<?xml version="1.0" encoding="UTF-8" standalone="no" ?>
<gpx xmlns="http://www.topografix.com/GPX/1/1" xmlns:xsi="http://www.w3.org/2001/XMLSchema-instance" xsi:schemaLocation="http://www.topografix.com/GPX/1/1 http://www.topografix.com/GPX/1/1/gpx.xsd" version="1.1" creator="VisuGPX - https://www.visugpx.com">
  <metadata>
    <name>ainsa</name>
  </metadata>
  <trk>
    <name><![CDATA[Ainsa 8 et des moustiques]]></name>
    <extensions>
      <line xmlns="http://www.topografix.com/GPX/gpx_style/0/2">
        <color>880088</color>
        <width>4</width>
      </line>
    </extensions>
    <trkseg>
      <trkpt lat="42.49968" lon="0.14376">
        <ele>611.5</ele>
        <time>2016-07-23T08:34:09Z</time>
      </trkpt>
      <trkpt lat="42.49954" lon="0.14368">
        <ele>610.6</ele>
        <time>2016-07-23T08:34:11Z</time>
      </trkpt>
      <trkpt lat="42.49951" lon="0.14374">
        <ele>610.5</ele>
        <time>2016-07-23T08:34:12Z</time>
      </trkpt>
      <trkpt lat="42.4995" lon="0.14367">
        <ele>610.3</ele>
        <time>2016-07-23T08:34:15Z</time>
      </trkpt>
      <trkpt lat="42.49953" lon="0.14372">
        <ele>610.6</ele>
        <time>2016-07-23T08:39:35Z</time>
      </trkpt>
      <trkpt lat="42.4995" lon="0.14374">
        <ele>610.3</ele>
        <time>2016-07-23T08:41:08Z</time>
      </trkpt>
      <trkpt lat="42.49947" lon="0.14371">
        <ele>610.1</ele>
        <time>2016-07-23T08:41:11Z</time>
      </trkpt>
      <trkpt lat="42.49944" lon="0.1437">
        <ele>609.9</ele>
        <time>2016-07-23T08:41:14Z</time>
      </trkpt>
      <trkpt lat="42.49942" lon="0.14374">
        <ele>609.8</ele>
        <time>2016-07-23T08:41:18Z</time>
      </trkpt>
      <trkpt lat="42.49939" lon="0.14377">
        <ele>609.5</ele>
        <time>2016-07-23T08:41:21Z</time>
      </trkpt>
      <trkpt lat="42.49937" lon="0.1438">
        <ele>609.2</ele>
        <time>2016-07-23T08:41:25Z</time>
      </trkpt>
      <trkpt lat="42.49935" lon="0.14383">
        <ele>608.9</ele>
        <time>2016-07-23T08:41:29Z</time>
      </trkpt>
      <trkpt lat="42.49937" lon="0.14386">
        <ele>608.9</ele>
        <time>2016-07-23T08:42:04Z</time>
      </trkpt>
      <trkpt lat="42.49937" lon="0.1439">
        <ele>608.7</ele>
        <time>2016-07-23T08:42:06Z</time>
      </trkpt>
      <trkpt lat="42.49935" lon="0.14396">
        <ele>608.4</ele>
        <time>2016-07-23T08:42:08Z</time>
      </trkpt>
      <trkpt lat="42.49932" lon="0.14398">
        <ele>608.1</ele>
        <time>2016-07-23T08:42:09Z</time>
      </trkpt>
      <trkpt lat="42.49929" lon="0.14399">
        <ele>607.8</ele>
        <time>2016-07-23T08:42:10Z</time>
      </trkpt>
      <trkpt lat="42.49925" lon="0.14399">
        <ele>607.6</ele>
        <time>2016-07-23T08:42:11Z</time>
      </trkpt>
      <trkpt lat="42.4992" lon="0.14399">
        <ele>607.3</ele>
        <time>2016-07-23T08:42:12Z</time>
      </trkpt>
      <trkpt lat="42.49914" lon="0.14398">
        <ele>607</ele>
        <time>2016-07-23T08:42:13Z</time>
      </trkpt>
      <trkpt lat="42.49909" lon="0.14397">
        <ele>606.7</ele>
        <time>2016-07-23T08:42:14Z</time>
      </trkpt>
      <trkpt lat="42.49903" lon="0.14398">
        <ele>606.4</ele>
        <time>2016-07-23T08:42:15Z</time>
      </trkpt>
      <trkpt lat="42.49898" lon="0.14399">
        <ele>606</ele>
        <time>2016-07-23T08:42:16Z</time>
      </trkpt>
      <trkpt lat="42.49892" lon="0.14399">
        <ele>605.7</ele>
        <time>2016-07-23T08:42:17Z</time>
      </trkpt>
      <trkpt lat="42.49886" lon="0.14401">
        <ele>605.3</ele>
        <time>2016-07-23T08:42:18Z</time>
      </trkpt>
      <trkpt lat="42.49879" lon="0.14401">
        <ele>604.9</ele>
        <time>2016-07-23T08:42:19Z</time>
      </trkpt>
      <trkpt lat="42.49872" lon="0.14401">
        <ele>604.6</ele>
        <time>2016-07-23T08:42:20Z</time>
      </trkpt>
      <trkpt lat="42.49866" lon="0.14402">
        <ele>604.5</ele>
        <time>2016-07-23T08:42:21Z</time>
      </trkpt>
      <trkpt lat="42.49859" lon="0.14402">
        <ele>604.3</ele>
        <time>2016-07-23T08:42:22Z</time>
      </trkpt>
      <trkpt lat="42.49851" lon="0.14403">
        <ele>604.1</ele>
        <time>2016-07-23T08:42:23Z</time>
      </trkpt>
      <trkpt lat="42.49844" lon="0.14404">
        <ele>603.9</ele>
        <time>2016-07-23T08:42:24Z</time>
      </trkpt>
      <trkpt lat="42.49836" lon="0.14405">
        <ele>603.7</ele>
        <time>2016-07-23T08:42:25Z</time>
      </trkpt>
      <trkpt lat="42.49829" lon="0.14406">
        <ele>603.5</ele>
        <time>2016-07-23T08:42:26Z</time>
      </trkpt>
      <trkpt lat="42.49821" lon="0.14408">
        <ele>603.3</ele>
        <time>2016-07-23T08:42:27Z</time>
      </trkpt>
      <trkpt lat="42.49813" lon="0.14409">
        <ele>603.1</ele>
        <time>2016-07-23T08:42:28Z</time>
      </trkpt>
      <trkpt lat="42.49807" lon="0.1441">
        <ele>602.9</ele>
        <time>2016-07-23T08:42:29Z</time>
      </trkpt>
      <trkpt lat="42.498" lon="0.14412">
        <ele>602.7</ele>
        <time>2016-07-23T08:42:30Z</time>
      </trkpt>
      <trkpt lat="42.49793" lon="0.14413">
        <ele>602.6</ele>
        <time>2016-07-23T08:42:31Z</time>
      </trkpt>
      <trkpt lat="42.49787" lon="0.14413">
        <ele>602.8</ele>
        <time>2016-07-23T08:42:32Z</time>
      </trkpt>
      <trkpt lat="42.4978" lon="0.14414">
        <ele>603.2</ele>
        <time>2016-07-23T08:42:33Z</time>
      </trkpt>
      <trkpt lat="42.49774" lon="0.14414">
        <ele>603.5</ele>
        <time>2016-07-23T08:42:34Z</time>
      </trkpt>
      <trkpt lat="42.49769" lon="0.14413">
        <ele>603.8</ele>
        <time>2016-07-23T08:42:35Z</time>
      </trkpt>
      <trkpt lat="42.49764" lon="0.14413">
        <ele>604.1</ele>
        <time>2016-07-23T08:42:36Z</time>
      </trkpt>
      <trkpt lat="42.4976" lon="0.14411">
        <ele>604.4</ele>
        <time>2016-07-23T08:42:37Z</time>
      </trkpt>
      <trkpt lat="42.49756" lon="0.1441">
        <ele>604.7</ele>
        <time>2016-07-23T08:42:38Z</time>
      </trkpt>
      <trkpt lat="42.49752" lon="0.14411">
        <ele>604.9</ele>
        <time>2016-07-23T08:42:39Z</time>
      </trkpt>
      <trkpt lat="42.49749" lon="0.14412">
        <ele>605</ele>
        <time>2016-07-23T08:42:40Z</time>
      </trkpt>
      <trkpt lat="42.49745" lon="0.14413">
        <ele>605.2</ele>
        <time>2016-07-23T08:42:41Z</time>
      </trkpt>
      <trkpt lat="42.4974" lon="0.14413">
        <ele>605.5</ele>
        <time>2016-07-23T08:42:42Z</time>
      </trkpt>
      <trkpt lat="42.49735" lon="0.14414">
        <ele>605.7</ele>
        <time>2016-07-23T08:42:43Z</time>
      </trkpt>
      <trkpt lat="42.4973" lon="0.14415">
        <ele>606</ele>
        <time>2016-07-23T08:42:44Z</time>
      </trkpt>
      <trkpt lat="42.49724" lon="0.14414">
        <ele>606.3</ele>
        <time>2016-07-23T08:42:45Z</time>
      </trkpt>
      <trkpt lat="42.49717" lon="0.14414">
        <ele>606.7</ele>
        <time>2016-07-23T08:42:46Z</time>
      </trkpt>
      <trkpt lat="42.49711" lon="0.14417">
        <ele>606.9</ele>
        <time>2016-07-23T08:42:47Z</time>
      </trkpt>
      <trkpt lat="42.49705" lon="0.14422">
        <ele>607.9</ele>
        <time>2016-07-23T08:42:48Z</time>
      </trkpt>
      <trkpt lat="42.49702" lon="0.1443">
        <ele>608.3</ele>
        <time>2016-07-23T08:42:49Z</time>
      </trkpt>
      <trkpt lat="42.49701" lon="0.14438">
        <ele>607.9</ele>
        <time>2016-07-23T08:42:50Z</time>
      </trkpt>
      <trkpt lat="42.497" lon="0.14447">
        <ele>607.6</ele>
        <time>2016-07-23T08:42:51Z</time>
      </trkpt>
      <trkpt lat="42.49701" lon="0.14455">
        <ele>606.8</ele>
        <time>2016-07-23T08:42:52Z</time>
      </trkpt>
      <trkpt lat="42.49702" lon="0.14463">
        <ele>605.9</ele>
        <time>2016-07-23T08:42:53Z</time>
      </trkpt>
      <trkpt lat="42.49703" lon="0.1447">
        <ele>605.2</ele>
        <time>2016-07-23T08:42:54Z</time>
      </trkpt>
      <trkpt lat="42.49703" lon="0.14477">
        <ele>604.7</ele>
        <time>2016-07-23T08:42:55Z</time>
      </trkpt>
      <trkpt lat="42.49704" lon="0.14484">
        <ele>604.1</ele>
        <time>2016-07-23T08:42:56Z</time>
      </trkpt>
      <trkpt lat="42.49705" lon="0.14492">
        <ele>603.7</ele>
        <time>2016-07-23T08:42:57Z</time>
      </trkpt>
      <trkpt lat="42.49706" lon="0.14498">
        <ele>603.1</ele>
        <time>2016-07-23T08:42:58Z</time>
      </trkpt>
      <trkpt lat="42.49708" lon="0.14505">
        <ele>602.4</ele>
        <time>2016-07-23T08:42:59Z</time>
      </trkpt>
      <trkpt lat="42.4971" lon="0.14512">
        <ele>602.1</ele>
        <time>2016-07-23T08:43:00Z</time>
      </trkpt>
      <trkpt lat="42.49712" lon="0.14518">
        <ele>601.8</ele>
        <time>2016-07-23T08:43:01Z</time>
      </trkpt>
      <trkpt lat="42.49715" lon="0.14524">
        <ele>601.6</ele>
        <time>2016-07-23T08:43:02Z</time>
      </trkpt>
      <trkpt lat="42.49718" lon="0.14528">
        <ele>601.4</ele>
        <time>2016-07-23T08:43:03Z</time>
      </trkpt>
      <trkpt lat="42.49722" lon="0.14533">
        <ele>601.3</ele>
        <time>2016-07-23T08:43:04Z</time>
      </trkpt>
      <trkpt lat="42.49726" lon="0.14537">
        <ele>601.2</ele>
        <time>2016-07-23T08:43:05Z</time>
      </trkpt>
      <trkpt lat="42.4973" lon="0.1454">
        <ele>601</ele>
        <time>2016-07-23T08:43:06Z</time>
      </trkpt>
      <trkpt lat="42.49735" lon="0.14545">
        <ele>601</ele>
        <time>2016-07-23T08:43:07Z</time>
      </trkpt>
      <trkpt lat="42.49739" lon="0.14548">
        <ele>600.9</ele>
        <time>2016-07-23T08:43:08Z</time>
      </trkpt>
      <trkpt lat="42.49744" lon="0.14551">
        <ele>600.9</ele>
        <time>2016-07-23T08:43:09Z</time>
      </trkpt>
      <trkpt lat="42.49749" lon="0.14555">
        <ele>600.9</ele>
        <time>2016-07-23T08:43:10Z</time>
      </trkpt>
      <trkpt lat="42.49754" lon="0.14558">
        <ele>600.9</ele>
        <time>2016-07-23T08:43:11Z</time>
      </trkpt>
      <trkpt lat="42.49759" lon="0.14561">
        <ele>601</ele>
        <time>2016-07-23T08:43:12Z</time>
      </trkpt>
      <trkpt lat="42.49763" lon="0.14563">
        <ele>601</ele>
        <time>2016-07-23T08:43:13Z</time>
      </trkpt>
      <trkpt lat="42.49768" lon="0.14566">
        <ele>601</ele>
        <time>2016-07-23T08:43:14Z</time>
      </trkpt>
      <trkpt lat="42.4977" lon="0.14568">
        <ele>601.1</ele>
        <time>2016-07-23T08:43:15Z</time>
      </trkpt>
      <trkpt lat="42.49773" lon="0.14569">
        <ele>601.1</ele>
        <time>2016-07-23T08:43:16Z</time>
      </trkpt>
      <trkpt lat="42.49776" lon="0.1457">
        <ele>601.1</ele>
        <time>2016-07-23T08:43:18Z</time>
      </trkpt>
      <trkpt lat="42.49778" lon="0.14565">
        <ele>601.1</ele>
        <time>2016-07-23T08:43:39Z</time>
      </trkpt>
      <trkpt lat="42.49781" lon="0.14567">
        <ele>601.2</ele>
        <time>2016-07-23T08:44:19Z</time>
      </trkpt>
      <trkpt lat="42.49784" lon="0.14567">
        <ele>601.2</ele>
        <time>2016-07-23T08:44:22Z</time>
      </trkpt>
      <trkpt lat="42.49787" lon="0.14569">
        <ele>601.3</ele>
        <time>2016-07-23T08:44:24Z</time>
      </trkpt>
      <trkpt lat="42.4979" lon="0.14571">
        <ele>601.3</ele>
        <time>2016-07-23T08:44:26Z</time>
      </trkpt>
      <trkpt lat="42.49795" lon="0.14573">
        <ele>601.4</ele>
        <time>2016-07-23T08:44:28Z</time>
      </trkpt>
      <trkpt lat="42.498" lon="0.14576">
        <ele>601.4</ele>
        <time>2016-07-23T08:44:30Z</time>
      </trkpt>
      <trkpt lat="42.49803" lon="0.14578">
        <ele>601.4</ele>
        <time>2016-07-23T08:44:31Z</time>
      </trkpt>
      <trkpt lat="42.49806" lon="0.1458">
        <ele>601.4</ele>
        <time>2016-07-23T08:44:32Z</time>
      </trkpt>
      <trkpt lat="42.49809" lon="0.14582">
        <ele>601.4</ele>
        <time>2016-07-23T08:44:33Z</time>
      </trkpt>
      <trkpt lat="42.49813" lon="0.14584">
        <ele>601.4</ele>
        <time>2016-07-23T08:44:34Z</time>
      </trkpt>
      <trkpt lat="42.49816" lon="0.14586">
        <ele>601.4</ele>
        <time>2016-07-23T08:44:35Z</time>
      </trkpt>
      <trkpt lat="42.4982" lon="0.14588">
        <ele>601.3</ele>
        <time>2016-07-23T08:44:36Z</time>
      </trkpt>
      <trkpt lat="42.49823" lon="0.14591">
        <ele>601.3</ele>
        <time>2016-07-23T08:44:37Z</time>
      </trkpt>
      <trkpt lat="42.49827" lon="0.14593">
        <ele>601.3</ele>
        <time>2016-07-23T08:44:38Z</time>
      </trkpt>
      <trkpt lat="42.49831" lon="0.14595">
        <ele>601.2</ele>
        <time>2016-07-23T08:44:39Z</time>
      </trkpt>
      <trkpt lat="42.49835" lon="0.14597">
        <ele>601.1</ele>
        <time>2016-07-23T08:44:40Z</time>
      </trkpt>
      <trkpt lat="42.49839" lon="0.14599">
        <ele>601.1</ele>
        <time>2016-07-23T08:44:41Z</time>
      </trkpt>
      <trkpt lat="42.49844" lon="0.14601">
        <ele>601</ele>
        <time>2016-07-23T08:44:42Z</time>
      </trkpt>
      <trkpt lat="42.49848" lon="0.14603">
        <ele>600.9</ele>
        <time>2016-07-23T08:44:43Z</time>
      </trkpt>
      <trkpt lat="42.49852" lon="0.14606">
        <ele>600.8</ele>
        <time>2016-07-23T08:44:44Z</time>
      </trkpt>
      <trkpt lat="42.49856" lon="0.14607">
        <ele>600.7</ele>
        <time>2016-07-23T08:44:45Z</time>
      </trkpt>
      <trkpt lat="42.4986" lon="0.14609">
        <ele>600.6</ele>
        <time>2016-07-23T08:44:46Z</time>
      </trkpt>
      <trkpt lat="42.49865" lon="0.14611">
        <ele>600.5</ele>
        <time>2016-07-23T08:44:47Z</time>
      </trkpt>
      <trkpt lat="42.49869" lon="0.14613">
        <ele>600.4</ele>
        <time>2016-07-23T08:44:48Z</time>
      </trkpt>
      <trkpt lat="42.49873" lon="0.14615">
        <ele>600.3</ele>
        <time>2016-07-23T08:44:49Z</time>
      </trkpt>
      <trkpt lat="42.49878" lon="0.14617">
        <ele>600.2</ele>
        <time>2016-07-23T08:44:50Z</time>
      </trkpt>
      <trkpt lat="42.49882" lon="0.14619">
        <ele>600.1</ele>
        <time>2016-07-23T08:44:51Z</time>
      </trkpt>
      <trkpt lat="42.49886" lon="0.14621">
        <ele>600.1</ele>
        <time>2016-07-23T08:44:52Z</time>
      </trkpt>
      <trkpt lat="42.49892" lon="0.14623">
        <ele>600.1</ele>
        <time>2016-07-23T08:44:53Z</time>
      </trkpt>
      <trkpt lat="42.49896" lon="0.14624">
        <ele>600</ele>
        <time>2016-07-23T08:44:54Z</time>
      </trkpt>
      <trkpt lat="42.499" lon="0.14627">
        <ele>600</ele>
        <time>2016-07-23T08:44:55Z</time>
      </trkpt>
      <trkpt lat="42.49904" lon="0.1463">
        <ele>599.9</ele>
        <time>2016-07-23T08:44:56Z</time>
      </trkpt>
      <trkpt lat="42.49909" lon="0.14632">
        <ele>599.9</ele>
        <time>2016-07-23T08:44:57Z</time>
      </trkpt>
      <trkpt lat="42.49913" lon="0.14634">
        <ele>599.9</ele>
        <time>2016-07-23T08:44:58Z</time>
      </trkpt>
      <trkpt lat="42.49917" lon="0.14636">
        <ele>599.9</ele>
        <time>2016-07-23T08:44:59Z</time>
      </trkpt>
      <trkpt lat="42.49922" lon="0.14638">
        <ele>600</ele>
        <time>2016-07-23T08:45:00Z</time>
      </trkpt>
      <trkpt lat="42.49927" lon="0.1464">
        <ele>600</ele>
        <time>2016-07-23T08:45:01Z</time>
      </trkpt>
      <trkpt lat="42.49931" lon="0.14642">
        <ele>600</ele>
        <time>2016-07-23T08:45:02Z</time>
      </trkpt>
      <trkpt lat="42.49935" lon="0.14643">
        <ele>600</ele>
        <time>2016-07-23T08:45:03Z</time>
      </trkpt>
      <trkpt lat="42.49939" lon="0.14646">
        <ele>600.1</ele>
        <time>2016-07-23T08:45:04Z</time>
      </trkpt>
      <trkpt lat="42.49943" lon="0.14648">
        <ele>600.1</ele>
        <time>2016-07-23T08:45:05Z</time>
      </trkpt>
      <trkpt lat="42.49947" lon="0.1465">
        <ele>600.2</ele>
        <time>2016-07-23T08:45:06Z</time>
      </trkpt>
      <trkpt lat="42.49952" lon="0.14651">
        <ele>600.2</ele>
        <time>2016-07-23T08:45:07Z</time>
      </trkpt>
      <trkpt lat="42.49956" lon="0.14653">
        <ele>600.3</ele>
        <time>2016-07-23T08:45:08Z</time>
      </trkpt>
      <trkpt lat="42.4996" lon="0.14655">
        <ele>600.4</ele>
        <time>2016-07-23T08:45:09Z</time>
      </trkpt>
      <trkpt lat="42.49964" lon="0.14657">
        <ele>600.4</ele>
        <time>2016-07-23T08:45:10Z</time>
      </trkpt>
      <trkpt lat="42.49969" lon="0.14659">
        <ele>600.5</ele>
        <time>2016-07-23T08:45:11Z</time>
      </trkpt>
      <trkpt lat="42.49973" lon="0.14661">
        <ele>600.5</ele>
        <time>2016-07-23T08:45:12Z</time>
      </trkpt>
      <trkpt lat="42.49977" lon="0.14663">
        <ele>600.6</ele>
        <time>2016-07-23T08:45:13Z</time>
      </trkpt>
      <trkpt lat="42.49982" lon="0.14665">
        <ele>600.6</ele>
        <time>2016-07-23T08:45:14Z</time>
      </trkpt>
      <trkpt lat="42.49986" lon="0.14667">
        <ele>600.7</ele>
        <time>2016-07-23T08:45:15Z</time>
      </trkpt>
      <trkpt lat="42.4999" lon="0.1467">
        <ele>600.7</ele>
        <time>2016-07-23T08:45:16Z</time>
      </trkpt>
      <trkpt lat="42.49994" lon="0.14671">
        <ele>600.7</ele>
        <time>2016-07-23T08:45:17Z</time>
      </trkpt>
      <trkpt lat="42.49999" lon="0.14673">
        <ele>600.8</ele>
        <time>2016-07-23T08:45:18Z</time>
      </trkpt>
      <trkpt lat="42.50003" lon="0.14675">
        <ele>600.8</ele>
        <time>2016-07-23T08:45:19Z</time>
      </trkpt>
      <trkpt lat="42.50008" lon="0.14676">
        <ele>600.8</ele>
        <time>2016-07-23T08:45:20Z</time>
      </trkpt>
      <trkpt lat="42.50012" lon="0.14679">
        <ele>600.9</ele>
        <time>2016-07-23T08:45:21Z</time>
      </trkpt>
      <trkpt lat="42.50017" lon="0.1468">
        <ele>600.9</ele>
        <time>2016-07-23T08:45:22Z</time>
      </trkpt>
      <trkpt lat="42.50022" lon="0.14682">
        <ele>600.9</ele>
        <time>2016-07-23T08:45:23Z</time>
      </trkpt>
      <trkpt lat="42.50027" lon="0.14684">
        <ele>600.9</ele>
        <time>2016-07-23T08:45:24Z</time>
      </trkpt>
      <trkpt lat="42.50031" lon="0.14685">
        <ele>601</ele>
        <time>2016-07-23T08:45:25Z</time>
      </trkpt>
      <trkpt lat="42.50036" lon="0.14687">
        <ele>601</ele>
        <time>2016-07-23T08:45:26Z</time>
      </trkpt>
      <trkpt lat="42.50041" lon="0.1469">
        <ele>601</ele>
        <time>2016-07-23T08:45:27Z</time>
      </trkpt>
      <trkpt lat="42.50045" lon="0.14692">
        <ele>601.1</ele>
        <time>2016-07-23T08:45:28Z</time>
      </trkpt>
      <trkpt lat="42.50049" lon="0.14695">
        <ele>601.2</ele>
        <time>2016-07-23T08:45:29Z</time>
      </trkpt>
      <trkpt lat="42.50054" lon="0.14697">
        <ele>601.4</ele>
        <time>2016-07-23T08:45:30Z</time>
      </trkpt>
      <trkpt lat="42.50059" lon="0.14699">
        <ele>601.5</ele>
        <time>2016-07-23T08:45:31Z</time>
      </trkpt>
      <trkpt lat="42.50064" lon="0.14701">
        <ele>601.6</ele>
        <time>2016-07-23T08:45:32Z</time>
      </trkpt>
      <trkpt lat="42.50068" lon="0.14703">
        <ele>601.7</ele>
        <time>2016-07-23T08:45:33Z</time>
      </trkpt>
      <trkpt lat="42.50073" lon="0.14705">
        <ele>601.8</ele>
        <time>2016-07-23T08:45:34Z</time>
      </trkpt>
      <trkpt lat="42.50078" lon="0.14707">
        <ele>601.9</ele>
        <time>2016-07-23T08:45:35Z</time>
      </trkpt>
      <trkpt lat="42.50083" lon="0.14709">
        <ele>602</ele>
        <time>2016-07-23T08:45:36Z</time>
      </trkpt>
      <trkpt lat="42.50088" lon="0.14711">
        <ele>602.1</ele>
        <time>2016-07-23T08:45:37Z</time>
      </trkpt>
      <trkpt lat="42.50092" lon="0.14713">
        <ele>602.1</ele>
        <time>2016-07-23T08:45:38Z</time>
      </trkpt>
      <trkpt lat="42.50097" lon="0.14715">
        <ele>602.2</ele>
        <time>2016-07-23T08:45:39Z</time>
      </trkpt>
      <trkpt lat="42.50102" lon="0.14717">
        <ele>602.3</ele>
        <time>2016-07-23T08:45:40Z</time>
      </trkpt>
      <trkpt lat="42.50107" lon="0.14718">
        <ele>602.4</ele>
        <time>2016-07-23T08:45:41Z</time>
      </trkpt>
      <trkpt lat="42.50111" lon="0.1472">
        <ele>602.5</ele>
        <time>2016-07-23T08:45:42Z</time>
      </trkpt>
      <trkpt lat="42.50116" lon="0.14721">
        <ele>602.6</ele>
        <time>2016-07-23T08:45:43Z</time>
      </trkpt>
      <trkpt lat="42.50121" lon="0.14724">
        <ele>602.7</ele>
        <time>2016-07-23T08:45:44Z</time>
      </trkpt>
      <trkpt lat="42.50125" lon="0.14726">
        <ele>602.8</ele>
        <time>2016-07-23T08:45:45Z</time>
      </trkpt>
      <trkpt lat="42.5013" lon="0.14727">
        <ele>602.9</ele>
        <time>2016-07-23T08:45:46Z</time>
      </trkpt>
      <trkpt lat="42.50135" lon="0.14729">
        <ele>603</ele>
        <time>2016-07-23T08:45:47Z</time>
      </trkpt>
      <trkpt lat="42.50139" lon="0.1473">
        <ele>603.2</ele>
        <time>2016-07-23T08:45:48Z</time>
      </trkpt>
      <trkpt lat="42.50144" lon="0.14733">
        <ele>603.3</ele>
        <time>2016-07-23T08:45:49Z</time>
      </trkpt>
      <trkpt lat="42.50149" lon="0.14733">
        <ele>603.4</ele>
        <time>2016-07-23T08:45:50Z</time>
      </trkpt>
      <trkpt lat="42.50153" lon="0.14736">
        <ele>603.5</ele>
        <time>2016-07-23T08:45:51Z</time>
      </trkpt>
      <trkpt lat="42.50158" lon="0.14738">
        <ele>603.5</ele>
        <time>2016-07-23T08:45:52Z</time>
      </trkpt>
      <trkpt lat="42.50163" lon="0.1474">
        <ele>603.6</ele>
        <time>2016-07-23T08:45:53Z</time>
      </trkpt>
      <trkpt lat="42.50168" lon="0.14742">
        <ele>603.7</ele>
        <time>2016-07-23T08:45:54Z</time>
      </trkpt>
      <trkpt lat="42.50173" lon="0.14743">
        <ele>603.8</ele>
        <time>2016-07-23T08:45:55Z</time>
      </trkpt>
      <trkpt lat="42.50177" lon="0.14745">
        <ele>603.9</ele>
        <time>2016-07-23T08:45:56Z</time>
      </trkpt>
      <trkpt lat="42.50182" lon="0.14746">
        <ele>604</ele>
        <time>2016-07-23T08:45:57Z</time>
      </trkpt>
      <trkpt lat="42.50187" lon="0.14748">
        <ele>604.1</ele>
        <time>2016-07-23T08:45:58Z</time>
      </trkpt>
      <trkpt lat="42.50192" lon="0.1475">
        <ele>604.1</ele>
        <time>2016-07-23T08:45:59Z</time>
      </trkpt>
      <trkpt lat="42.50197" lon="0.14751">
        <ele>604.2</ele>
        <time>2016-07-23T08:46:00Z</time>
      </trkpt>
      <trkpt lat="42.50202" lon="0.14753">
        <ele>604.2</ele>
        <time>2016-07-23T08:46:01Z</time>
      </trkpt>
      <trkpt lat="42.50207" lon="0.14754">
        <ele>604.3</ele>
        <time>2016-07-23T08:46:02Z</time>
      </trkpt>
      <trkpt lat="42.5021" lon="0.14755">
        <ele>604.4</ele>
        <time>2016-07-23T08:46:03Z</time>
      </trkpt>
      <trkpt lat="42.50215" lon="0.14758">
        <ele>604.6</ele>
        <time>2016-07-23T08:46:04Z</time>
      </trkpt>
      <trkpt lat="42.5022" lon="0.14759">
        <ele>604.8</ele>
        <time>2016-07-23T08:46:05Z</time>
      </trkpt>
      <trkpt lat="42.50225" lon="0.1476">
        <ele>605.1</ele>
        <time>2016-07-23T08:46:06Z</time>
      </trkpt>
      <trkpt lat="42.50229" lon="0.14761">
        <ele>605.3</ele>
        <time>2016-07-23T08:46:07Z</time>
      </trkpt>
      <trkpt lat="42.50233" lon="0.14761">
        <ele>605.6</ele>
        <time>2016-07-23T08:46:08Z</time>
      </trkpt>
      <trkpt lat="42.50238" lon="0.1476">
        <ele>605.9</ele>
        <time>2016-07-23T08:46:09Z</time>
      </trkpt>
      <trkpt lat="42.50243" lon="0.14758">
        <ele>606.2</ele>
        <time>2016-07-23T08:46:10Z</time>
      </trkpt>
      <trkpt lat="42.50248" lon="0.14758">
        <ele>606.5</ele>
        <time>2016-07-23T08:46:11Z</time>
      </trkpt>
      <trkpt lat="42.50252" lon="0.14758">
        <ele>606.7</ele>
        <time>2016-07-23T08:46:12Z</time>
      </trkpt>
      <trkpt lat="42.50257" lon="0.14759">
        <ele>607</ele>
        <time>2016-07-23T08:46:13Z</time>
      </trkpt>
      <trkpt lat="42.50262" lon="0.1476">
        <ele>607.2</ele>
        <time>2016-07-23T08:46:14Z</time>
      </trkpt>
      <trkpt lat="42.50267" lon="0.14762">
        <ele>607.4</ele>
        <time>2016-07-23T08:46:15Z</time>
      </trkpt>
      <trkpt lat="42.50272" lon="0.14763">
        <ele>607.6</ele>
        <time>2016-07-23T08:46:16Z</time>
      </trkpt>
      <trkpt lat="42.50277" lon="0.14763">
        <ele>607.9</ele>
        <time>2016-07-23T08:46:17Z</time>
      </trkpt>
      <trkpt lat="42.50281" lon="0.14764">
        <ele>608.1</ele>
        <time>2016-07-23T08:46:18Z</time>
      </trkpt>
      <trkpt lat="42.50285" lon="0.14765">
        <ele>608.3</ele>
        <time>2016-07-23T08:46:19Z</time>
      </trkpt>
      <trkpt lat="42.5029" lon="0.14764">
        <ele>608.6</ele>
        <time>2016-07-23T08:46:20Z</time>
      </trkpt>
      <trkpt lat="42.50294" lon="0.14762">
        <ele>608.8</ele>
        <time>2016-07-23T08:46:21Z</time>
      </trkpt>
      <trkpt lat="42.50298" lon="0.14759">
        <ele>609</ele>
        <time>2016-07-23T08:46:22Z</time>
      </trkpt>
      <trkpt lat="42.50303" lon="0.14756">
        <ele>609.3</ele>
        <time>2016-07-23T08:46:23Z</time>
      </trkpt>
      <trkpt lat="42.50308" lon="0.14754">
        <ele>609.5</ele>
        <time>2016-07-23T08:46:24Z</time>
      </trkpt>
      <trkpt lat="42.50313" lon="0.14753">
        <ele>609.6</ele>
        <time>2016-07-23T08:46:25Z</time>
      </trkpt>
      <trkpt lat="42.50318" lon="0.14754">
        <ele>609.6</ele>
        <time>2016-07-23T08:46:26Z</time>
      </trkpt>
      <trkpt lat="42.50324" lon="0.14753">
        <ele>609.7</ele>
        <time>2016-07-23T08:46:27Z</time>
      </trkpt>
      <trkpt lat="42.50329" lon="0.14752">
        <ele>609.9</ele>
        <time>2016-07-23T08:46:28Z</time>
      </trkpt>
      <trkpt lat="42.50333" lon="0.1475">
        <ele>610</ele>
        <time>2016-07-23T08:46:29Z</time>
      </trkpt>
      <trkpt lat="42.50338" lon="0.14748">
        <ele>610.1</ele>
        <time>2016-07-23T08:46:30Z</time>
      </trkpt>
      <trkpt lat="42.50342" lon="0.14747">
        <ele>610.2</ele>
        <time>2016-07-23T08:46:31Z</time>
      </trkpt>
      <trkpt lat="42.50347" lon="0.14748">
        <ele>610.3</ele>
        <time>2016-07-23T08:46:32Z</time>
      </trkpt>
      <trkpt lat="42.50353" lon="0.14749">
        <ele>610.3</ele>
        <time>2016-07-23T08:46:33Z</time>
      </trkpt>
      <trkpt lat="42.50357" lon="0.14749">
        <ele>610.3</ele>
        <time>2016-07-23T08:46:34Z</time>
      </trkpt>
      <trkpt lat="42.50361" lon="0.14748">
        <ele>610.4</ele>
        <time>2016-07-23T08:46:35Z</time>
      </trkpt>
      <trkpt lat="42.50367" lon="0.14748">
        <ele>610.5</ele>
        <time>2016-07-23T08:46:36Z</time>
      </trkpt>
      <trkpt lat="42.50372" lon="0.14749">
        <ele>610.5</ele>
        <time>2016-07-23T08:46:37Z</time>
      </trkpt>
      <trkpt lat="42.50377" lon="0.14749">
        <ele>610.5</ele>
        <time>2016-07-23T08:46:38Z</time>
      </trkpt>
      <trkpt lat="42.50382" lon="0.14749">
        <ele>610.5</ele>
        <time>2016-07-23T08:46:39Z</time>
      </trkpt>
      <trkpt lat="42.50387" lon="0.14748">
        <ele>610.4</ele>
        <time>2016-07-23T08:46:40Z</time>
      </trkpt>
      <trkpt lat="42.50392" lon="0.14749">
        <ele>610.3</ele>
        <time>2016-07-23T08:46:41Z</time>
      </trkpt>
      <trkpt lat="42.50398" lon="0.14749">
        <ele>610.3</ele>
        <time>2016-07-23T08:46:42Z</time>
      </trkpt>
      <trkpt lat="42.50403" lon="0.14748">
        <ele>610.2</ele>
        <time>2016-07-23T08:46:43Z</time>
      </trkpt>
      <trkpt lat="42.50408" lon="0.14748">
        <ele>610.2</ele>
        <time>2016-07-23T08:46:44Z</time>
      </trkpt>
      <trkpt lat="42.50414" lon="0.14747">
        <ele>610.1</ele>
        <time>2016-07-23T08:46:45Z</time>
      </trkpt>
      <trkpt lat="42.50419" lon="0.14746">
        <ele>610.1</ele>
        <time>2016-07-23T08:46:46Z</time>
      </trkpt>
      <trkpt lat="42.50424" lon="0.14746">
        <ele>610.1</ele>
        <time>2016-07-23T08:46:47Z</time>
      </trkpt>
      <trkpt lat="42.5043" lon="0.14745">
        <ele>610</ele>
        <time>2016-07-23T08:46:48Z</time>
      </trkpt>
      <trkpt lat="42.50435" lon="0.14746">
        <ele>609.9</ele>
        <time>2016-07-23T08:46:49Z</time>
      </trkpt>
      <trkpt lat="42.50439" lon="0.14745">
        <ele>609.9</ele>
        <time>2016-07-23T08:46:50Z</time>
      </trkpt>
      <trkpt lat="42.50444" lon="0.14746">
        <ele>609.8</ele>
        <time>2016-07-23T08:46:51Z</time>
      </trkpt>
      <trkpt lat="42.50449" lon="0.14746">
        <ele>609.8</ele>
        <time>2016-07-23T08:46:52Z</time>
      </trkpt>
      <trkpt lat="42.50454" lon="0.14746">
        <ele>609.7</ele>
        <time>2016-07-23T08:46:53Z</time>
      </trkpt>
      <trkpt lat="42.5046" lon="0.14745">
        <ele>609.7</ele>
        <time>2016-07-23T08:46:54Z</time>
      </trkpt>
      <trkpt lat="42.50465" lon="0.14745">
        <ele>609.7</ele>
        <time>2016-07-23T08:46:55Z</time>
      </trkpt>
      <trkpt lat="42.5047" lon="0.14745">
        <ele>609.8</ele>
        <time>2016-07-23T08:46:56Z</time>
      </trkpt>
      <trkpt lat="42.50476" lon="0.14744">
        <ele>609.8</ele>
        <time>2016-07-23T08:46:57Z</time>
      </trkpt>
      <trkpt lat="42.50481" lon="0.14743">
        <ele>609.9</ele>
        <time>2016-07-23T08:46:58Z</time>
      </trkpt>
      <trkpt lat="42.50486" lon="0.14742">
        <ele>609.9</ele>
        <time>2016-07-23T08:46:59Z</time>
      </trkpt>
      <trkpt lat="42.50491" lon="0.1474">
        <ele>610</ele>
        <time>2016-07-23T08:47:00Z</time>
      </trkpt>
      <trkpt lat="42.50497" lon="0.14738">
        <ele>610.1</ele>
        <time>2016-07-23T08:47:01Z</time>
      </trkpt>
      <trkpt lat="42.50502" lon="0.14737">
        <ele>610.2</ele>
        <time>2016-07-23T08:47:02Z</time>
      </trkpt>
      <trkpt lat="42.50506" lon="0.14734">
        <ele>610.3</ele>
        <time>2016-07-23T08:47:03Z</time>
      </trkpt>
      <trkpt lat="42.50511" lon="0.14731">
        <ele>610.4</ele>
        <time>2016-07-23T08:47:04Z</time>
      </trkpt>
      <trkpt lat="42.50515" lon="0.14728">
        <ele>610.4</ele>
        <time>2016-07-23T08:47:05Z</time>
      </trkpt>
      <trkpt lat="42.5052" lon="0.14726">
        <ele>610.5</ele>
        <time>2016-07-23T08:47:06Z</time>
      </trkpt>
      <trkpt lat="42.50524" lon="0.14723">
        <ele>610.6</ele>
        <time>2016-07-23T08:47:07Z</time>
      </trkpt>
      <trkpt lat="42.50528" lon="0.1472">
        <ele>610.7</ele>
        <time>2016-07-23T08:47:08Z</time>
      </trkpt>
      <trkpt lat="42.50532" lon="0.14718">
        <ele>610.8</ele>
        <time>2016-07-23T08:47:09Z</time>
      </trkpt>
      <trkpt lat="42.50536" lon="0.14715">
        <ele>610.8</ele>
        <time>2016-07-23T08:47:10Z</time>
      </trkpt>
      <trkpt lat="42.5054" lon="0.14713">
        <ele>610.9</ele>
        <time>2016-07-23T08:47:11Z</time>
      </trkpt>
      <trkpt lat="42.50544" lon="0.14711">
        <ele>610.9</ele>
        <time>2016-07-23T08:47:12Z</time>
      </trkpt>
      <trkpt lat="42.50548" lon="0.14707">
        <ele>610.8</ele>
        <time>2016-07-23T08:47:13Z</time>
      </trkpt>
      <trkpt lat="42.50553" lon="0.14704">
        <ele>610.6</ele>
        <time>2016-07-23T08:47:14Z</time>
      </trkpt>
      <trkpt lat="42.50557" lon="0.14701">
        <ele>610.4</ele>
        <time>2016-07-23T08:47:15Z</time>
      </trkpt>
      <trkpt lat="42.50561" lon="0.14697">
        <ele>610.3</ele>
        <time>2016-07-23T08:47:16Z</time>
      </trkpt>
      <trkpt lat="42.50565" lon="0.14694">
        <ele>610.1</ele>
        <time>2016-07-23T08:47:17Z</time>
      </trkpt>
      <trkpt lat="42.50568" lon="0.14691">
        <ele>610</ele>
        <time>2016-07-23T08:47:18Z</time>
      </trkpt>
      <trkpt lat="42.50572" lon="0.14688">
        <ele>609.9</ele>
        <time>2016-07-23T08:47:19Z</time>
      </trkpt>
      <trkpt lat="42.50575" lon="0.14684">
        <ele>609.8</ele>
        <time>2016-07-23T08:47:20Z</time>
      </trkpt>
      <trkpt lat="42.50578" lon="0.1468">
        <ele>609.7</ele>
        <time>2016-07-23T08:47:21Z</time>
      </trkpt>
      <trkpt lat="42.50581" lon="0.14675">
        <ele>609.6</ele>
        <time>2016-07-23T08:47:22Z</time>
      </trkpt>
      <trkpt lat="42.50582" lon="0.14668">
        <ele>609.5</ele>
        <time>2016-07-23T08:47:23Z</time>
      </trkpt>
      <trkpt lat="42.50583" lon="0.14663">
        <ele>609.5</ele>
        <time>2016-07-23T08:47:24Z</time>
      </trkpt>
      <trkpt lat="42.50585" lon="0.14658">
        <ele>609.4</ele>
        <time>2016-07-23T08:47:25Z</time>
      </trkpt>
      <trkpt lat="42.50586" lon="0.14653">
        <ele>609.4</ele>
        <time>2016-07-23T08:47:26Z</time>
      </trkpt>
      <trkpt lat="42.50586" lon="0.14649">
        <ele>609.3</ele>
        <time>2016-07-23T08:47:27Z</time>
      </trkpt>
      <trkpt lat="42.50587" lon="0.14645">
        <ele>609.3</ele>
        <time>2016-07-23T08:47:28Z</time>
      </trkpt>
      <trkpt lat="42.50587" lon="0.1464">
        <ele>609.2</ele>
        <time>2016-07-23T08:47:29Z</time>
      </trkpt>
      <trkpt lat="42.50588" lon="0.14636">
        <ele>609.2</ele>
        <time>2016-07-23T08:47:30Z</time>
      </trkpt>
      <trkpt lat="42.50588" lon="0.14632">
        <ele>609.2</ele>
        <time>2016-07-23T08:47:31Z</time>
      </trkpt>
      <trkpt lat="42.50589" lon="0.14626">
        <ele>609.1</ele>
        <time>2016-07-23T08:47:33Z</time>
      </trkpt>
      <trkpt lat="42.5059" lon="0.1462">
        <ele>609.3</ele>
        <time>2016-07-23T08:47:35Z</time>
      </trkpt>
      <trkpt lat="42.50592" lon="0.14616">
        <ele>609.5</ele>
        <time>2016-07-23T08:47:37Z</time>
      </trkpt>
      <trkpt lat="42.50596" lon="0.14619">
        <ele>609.5</ele>
        <time>2016-07-23T08:47:39Z</time>
      </trkpt>
      <trkpt lat="42.50597" lon="0.14624">
        <ele>609.4</ele>
        <time>2016-07-23T08:47:40Z</time>
      </trkpt>
      <trkpt lat="42.50597" lon="0.1463">
        <ele>609.3</ele>
        <time>2016-07-23T08:47:41Z</time>
      </trkpt>
      <trkpt lat="42.50595" lon="0.14636">
        <ele>609.3</ele>
        <time>2016-07-23T08:47:42Z</time>
      </trkpt>
      <trkpt lat="42.50595" lon="0.14642">
        <ele>609.4</ele>
        <time>2016-07-23T08:47:43Z</time>
      </trkpt>
      <trkpt lat="42.50594" lon="0.14649">
        <ele>609.4</ele>
        <time>2016-07-23T08:47:44Z</time>
      </trkpt>
      <trkpt lat="42.50594" lon="0.14655">
        <ele>609.4</ele>
        <time>2016-07-23T08:47:45Z</time>
      </trkpt>
      <trkpt lat="42.50593" lon="0.14661">
        <ele>609.5</ele>
        <time>2016-07-23T08:47:46Z</time>
      </trkpt>
      <trkpt lat="42.50593" lon="0.14666">
        <ele>609.5</ele>
        <time>2016-07-23T08:47:47Z</time>
      </trkpt>
      <trkpt lat="42.50592" lon="0.14672">
        <ele>609.5</ele>
        <time>2016-07-23T08:47:48Z</time>
      </trkpt>
      <trkpt lat="42.50592" lon="0.14677">
        <ele>609.6</ele>
        <time>2016-07-23T08:47:49Z</time>
      </trkpt>
      <trkpt lat="42.50591" lon="0.14683">
        <ele>609.6</ele>
        <time>2016-07-23T08:47:50Z</time>
      </trkpt>
      <trkpt lat="42.50591" lon="0.14688">
        <ele>609.7</ele>
        <time>2016-07-23T08:47:51Z</time>
      </trkpt>
      <trkpt lat="42.5059" lon="0.14693">
        <ele>609.7</ele>
        <time>2016-07-23T08:47:52Z</time>
      </trkpt>
      <trkpt lat="42.5059" lon="0.14699">
        <ele>609.8</ele>
        <time>2016-07-23T08:47:53Z</time>
      </trkpt>
      <trkpt lat="42.50589" lon="0.14705">
        <ele>609.8</ele>
        <time>2016-07-23T08:47:54Z</time>
      </trkpt>
      <trkpt lat="42.50588" lon="0.1471">
        <ele>609.8</ele>
        <time>2016-07-23T08:47:55Z</time>
      </trkpt>
      <trkpt lat="42.50588" lon="0.14716">
        <ele>609.7</ele>
        <time>2016-07-23T08:47:56Z</time>
      </trkpt>
      <trkpt lat="42.50587" lon="0.14722">
        <ele>609.6</ele>
        <time>2016-07-23T08:47:57Z</time>
      </trkpt>
      <trkpt lat="42.50587" lon="0.14728">
        <ele>609.5</ele>
        <time>2016-07-23T08:47:58Z</time>
      </trkpt>
      <trkpt lat="42.50586" lon="0.14733">
        <ele>609.3</ele>
        <time>2016-07-23T08:47:59Z</time>
      </trkpt>
      <trkpt lat="42.50585" lon="0.14739">
        <ele>609.2</ele>
        <time>2016-07-23T08:48:00Z</time>
      </trkpt>
      <trkpt lat="42.50585" lon="0.14745">
        <ele>609.1</ele>
        <time>2016-07-23T08:48:01Z</time>
      </trkpt>
      <trkpt lat="42.50584" lon="0.14751">
        <ele>609</ele>
        <time>2016-07-23T08:48:02Z</time>
      </trkpt>
      <trkpt lat="42.50584" lon="0.14756">
        <ele>608.8</ele>
        <time>2016-07-23T08:48:03Z</time>
      </trkpt>
      <trkpt lat="42.50583" lon="0.14762">
        <ele>608.7</ele>
        <time>2016-07-23T08:48:04Z</time>
      </trkpt>
      <trkpt lat="42.50583" lon="0.14768">
        <ele>608.6</ele>
        <time>2016-07-23T08:48:05Z</time>
      </trkpt>
      <trkpt lat="42.50583" lon="0.14774">
        <ele>608.4</ele>
        <time>2016-07-23T08:48:06Z</time>
      </trkpt>
      <trkpt lat="42.50582" lon="0.1478">
        <ele>608.3</ele>
        <time>2016-07-23T08:48:07Z</time>
      </trkpt>
      <trkpt lat="42.50582" lon="0.14786">
        <ele>608.2</ele>
        <time>2016-07-23T08:48:08Z</time>
      </trkpt>
      <trkpt lat="42.50581" lon="0.14791">
        <ele>608.1</ele>
        <time>2016-07-23T08:48:09Z</time>
      </trkpt>
      <trkpt lat="42.50581" lon="0.14797">
        <ele>608</ele>
        <time>2016-07-23T08:48:10Z</time>
      </trkpt>
      <trkpt lat="42.50581" lon="0.14803">
        <ele>608</ele>
        <time>2016-07-23T08:48:11Z</time>
      </trkpt>
      <trkpt lat="42.5058" lon="0.14809">
        <ele>607.9</ele>
        <time>2016-07-23T08:48:12Z</time>
      </trkpt>
      <trkpt lat="42.5058" lon="0.14815">
        <ele>607.9</ele>
        <time>2016-07-23T08:48:13Z</time>
      </trkpt>
      <trkpt lat="42.50579" lon="0.14821">
        <ele>607.8</ele>
        <time>2016-07-23T08:48:14Z</time>
      </trkpt>
      <trkpt lat="42.50579" lon="0.14827">
        <ele>607.8</ele>
        <time>2016-07-23T08:48:15Z</time>
      </trkpt>
      <trkpt lat="42.50578" lon="0.14833">
        <ele>607.7</ele>
        <time>2016-07-23T08:48:16Z</time>
      </trkpt>
      <trkpt lat="42.50578" lon="0.14839">
        <ele>607.7</ele>
        <time>2016-07-23T08:48:17Z</time>
      </trkpt>
      <trkpt lat="42.50577" lon="0.14845">
        <ele>607.6</ele>
        <time>2016-07-23T08:48:18Z</time>
      </trkpt>
      <trkpt lat="42.50577" lon="0.14851">
        <ele>607.5</ele>
        <time>2016-07-23T08:48:19Z</time>
      </trkpt>
      <trkpt lat="42.50576" lon="0.14856">
        <ele>607.5</ele>
        <time>2016-07-23T08:48:20Z</time>
      </trkpt>
      <trkpt lat="42.50575" lon="0.14861">
        <ele>607.4</ele>
        <time>2016-07-23T08:48:21Z</time>
      </trkpt>
      <trkpt lat="42.50574" lon="0.14865">
        <ele>607.3</ele>
        <time>2016-07-23T08:48:22Z</time>
      </trkpt>
      <trkpt lat="42.50573" lon="0.14869">
        <ele>607.2</ele>
        <time>2016-07-23T08:48:23Z</time>
      </trkpt>
      <trkpt lat="42.50572" lon="0.14873">
        <ele>607.1</ele>
        <time>2016-07-23T08:48:24Z</time>
      </trkpt>
      <trkpt lat="42.5057" lon="0.14877">
        <ele>607.2</ele>
        <time>2016-07-23T08:48:25Z</time>
      </trkpt>
      <trkpt lat="42.50569" lon="0.14881">
        <ele>607.5</ele>
        <time>2016-07-23T08:48:26Z</time>
      </trkpt>
      <trkpt lat="42.50567" lon="0.14884">
        <ele>607.7</ele>
        <time>2016-07-23T08:48:27Z</time>
      </trkpt>
      <trkpt lat="42.50566" lon="0.14888">
        <ele>607.9</ele>
        <time>2016-07-23T08:48:28Z</time>
      </trkpt>
      <trkpt lat="42.50565" lon="0.14892">
        <ele>608.1</ele>
        <time>2016-07-23T08:48:29Z</time>
      </trkpt>
      <trkpt lat="42.50563" lon="0.14895">
        <ele>608.2</ele>
        <time>2016-07-23T08:48:30Z</time>
      </trkpt>
      <trkpt lat="42.50562" lon="0.14898">
        <ele>608.4</ele>
        <time>2016-07-23T08:48:31Z</time>
      </trkpt>
      <trkpt lat="42.50561" lon="0.14902">
        <ele>608.5</ele>
        <time>2016-07-23T08:48:32Z</time>
      </trkpt>
      <trkpt lat="42.50558" lon="0.14908">
        <ele>608.7</ele>
        <time>2016-07-23T08:48:34Z</time>
      </trkpt>
      <trkpt lat="42.50556" lon="0.14914">
        <ele>608.9</ele>
        <time>2016-07-23T08:48:36Z</time>
      </trkpt>
      <trkpt lat="42.50554" lon="0.1492">
        <ele>609</ele>
        <time>2016-07-23T08:48:38Z</time>
      </trkpt>
      <trkpt lat="42.50553" lon="0.14924">
        <ele>609.1</ele>
        <time>2016-07-23T08:48:39Z</time>
      </trkpt>
      <trkpt lat="42.50552" lon="0.14927">
        <ele>609.2</ele>
        <time>2016-07-23T08:48:40Z</time>
      </trkpt>
      <trkpt lat="42.50551" lon="0.14931">
        <ele>609.3</ele>
        <time>2016-07-23T08:48:41Z</time>
      </trkpt>
      <trkpt lat="42.5055" lon="0.14938">
        <ele>609.4</ele>
        <time>2016-07-23T08:48:43Z</time>
      </trkpt>
      <trkpt lat="42.50549" lon="0.14941">
        <ele>609.5</ele>
        <time>2016-07-23T08:48:44Z</time>
      </trkpt>
      <trkpt lat="42.50548" lon="0.14945">
        <ele>609.5</ele>
        <time>2016-07-23T08:48:45Z</time>
      </trkpt>
      <trkpt lat="42.50548" lon="0.14949">
        <ele>609.6</ele>
        <time>2016-07-23T08:48:46Z</time>
      </trkpt>
      <trkpt lat="42.50547" lon="0.14953">
        <ele>609.7</ele>
        <time>2016-07-23T08:48:47Z</time>
      </trkpt>
      <trkpt lat="42.50547" lon="0.14956">
        <ele>609.8</ele>
        <time>2016-07-23T08:48:48Z</time>
      </trkpt>
      <trkpt lat="42.50547" lon="0.1496">
        <ele>610</ele>
        <time>2016-07-23T08:48:49Z</time>
      </trkpt>
      <trkpt lat="42.50546" lon="0.14964">
        <ele>610.3</ele>
        <time>2016-07-23T08:48:50Z</time>
      </trkpt>
      <trkpt lat="42.50546" lon="0.14968">
        <ele>610.6</ele>
        <time>2016-07-23T08:48:51Z</time>
      </trkpt>
      <trkpt lat="42.50546" lon="0.14972">
        <ele>610.9</ele>
        <time>2016-07-23T08:48:52Z</time>
      </trkpt>
      <trkpt lat="42.50546" lon="0.14975">
        <ele>611.1</ele>
        <time>2016-07-23T08:48:53Z</time>
      </trkpt>
      <trkpt lat="42.50545" lon="0.14979">
        <ele>611.3</ele>
        <time>2016-07-23T08:48:54Z</time>
      </trkpt>
      <trkpt lat="42.50544" lon="0.14985">
        <ele>611.7</ele>
        <time>2016-07-23T08:48:56Z</time>
      </trkpt>
      <trkpt lat="42.50543" lon="0.14992">
        <ele>612.1</ele>
        <time>2016-07-23T08:48:58Z</time>
      </trkpt>
      <trkpt lat="42.50543" lon="0.14996">
        <ele>612.3</ele>
        <time>2016-07-23T08:48:59Z</time>
      </trkpt>
      <trkpt lat="42.50542" lon="0.15">
        <ele>612.6</ele>
        <time>2016-07-23T08:49:00Z</time>
      </trkpt>
      <trkpt lat="42.50542" lon="0.15004">
        <ele>612.9</ele>
        <time>2016-07-23T08:49:01Z</time>
      </trkpt>
      <trkpt lat="42.50542" lon="0.15008">
        <ele>613.2</ele>
        <time>2016-07-23T08:49:02Z</time>
      </trkpt>
      <trkpt lat="42.50542" lon="0.15011">
        <ele>613.5</ele>
        <time>2016-07-23T08:49:03Z</time>
      </trkpt>
      <trkpt lat="42.50543" lon="0.15015">
        <ele>614</ele>
        <time>2016-07-23T08:49:04Z</time>
      </trkpt>
      <trkpt lat="42.50543" lon="0.15019">
        <ele>614.4</ele>
        <time>2016-07-23T08:49:05Z</time>
      </trkpt>
      <trkpt lat="42.50544" lon="0.15022">
        <ele>614.8</ele>
        <time>2016-07-23T08:49:06Z</time>
      </trkpt>
      <trkpt lat="42.50545" lon="0.15026">
        <ele>615.3</ele>
        <time>2016-07-23T08:49:07Z</time>
      </trkpt>
      <trkpt lat="42.50546" lon="0.15029">
        <ele>615.8</ele>
        <time>2016-07-23T08:49:08Z</time>
      </trkpt>
      <trkpt lat="42.50547" lon="0.15036">
        <ele>616.6</ele>
        <time>2016-07-23T08:49:10Z</time>
      </trkpt>
      <trkpt lat="42.50549" lon="0.15043">
        <ele>617.7</ele>
        <time>2016-07-23T08:49:12Z</time>
      </trkpt>
      <trkpt lat="42.50552" lon="0.1505">
        <ele>619.2</ele>
        <time>2016-07-23T08:49:14Z</time>
      </trkpt>
      <trkpt lat="42.50553" lon="0.15053">
        <ele>620</ele>
        <time>2016-07-23T08:49:15Z</time>
      </trkpt>
      <trkpt lat="42.50554" lon="0.15057">
        <ele>620.7</ele>
        <time>2016-07-23T08:49:16Z</time>
      </trkpt>
      <trkpt lat="42.50555" lon="0.1506">
        <ele>621.5</ele>
        <time>2016-07-23T08:49:17Z</time>
      </trkpt>
      <trkpt lat="42.50556" lon="0.15064">
        <ele>622.2</ele>
        <time>2016-07-23T08:49:18Z</time>
      </trkpt>
      <trkpt lat="42.50557" lon="0.15068">
        <ele>622.9</ele>
        <time>2016-07-23T08:49:19Z</time>
      </trkpt>
      <trkpt lat="42.50557" lon="0.15071">
        <ele>623.6</ele>
        <time>2016-07-23T08:49:20Z</time>
      </trkpt>
      <trkpt lat="42.50558" lon="0.15075">
        <ele>624.2</ele>
        <time>2016-07-23T08:49:21Z</time>
      </trkpt>
      <trkpt lat="42.50558" lon="0.15079">
        <ele>624.9</ele>
        <time>2016-07-23T08:49:22Z</time>
      </trkpt>
      <trkpt lat="42.50559" lon="0.15082">
        <ele>625.5</ele>
        <time>2016-07-23T08:49:23Z</time>
      </trkpt>
      <trkpt lat="42.5056" lon="0.15086">
        <ele>626.2</ele>
        <time>2016-07-23T08:49:24Z</time>
      </trkpt>
      <trkpt lat="42.50561" lon="0.1509">
        <ele>626.9</ele>
        <time>2016-07-23T08:49:25Z</time>
      </trkpt>
      <trkpt lat="42.50562" lon="0.15094">
        <ele>627.7</ele>
        <time>2016-07-23T08:49:26Z</time>
      </trkpt>
      <trkpt lat="42.50563" lon="0.15097">
        <ele>628.4</ele>
        <time>2016-07-23T08:49:27Z</time>
      </trkpt>
      <trkpt lat="42.50565" lon="0.151">
        <ele>629.1</ele>
        <time>2016-07-23T08:49:28Z</time>
      </trkpt>
      <trkpt lat="42.50566" lon="0.15104">
        <ele>629.8</ele>
        <time>2016-07-23T08:49:29Z</time>
      </trkpt>
      <trkpt lat="42.50568" lon="0.15107">
        <ele>630.5</ele>
        <time>2016-07-23T08:49:30Z</time>
      </trkpt>
      <trkpt lat="42.5057" lon="0.1511">
        <ele>631.2</ele>
        <time>2016-07-23T08:49:31Z</time>
      </trkpt>
      <trkpt lat="42.50572" lon="0.15113">
        <ele>631.8</ele>
        <time>2016-07-23T08:49:32Z</time>
      </trkpt>
      <trkpt lat="42.50573" lon="0.15116">
        <ele>632.5</ele>
        <time>2016-07-23T08:49:33Z</time>
      </trkpt>
      <trkpt lat="42.50575" lon="0.15118">
        <ele>633.1</ele>
        <time>2016-07-23T08:49:34Z</time>
      </trkpt>
      <trkpt lat="42.50579" lon="0.15123">
        <ele>634.2</ele>
        <time>2016-07-23T08:49:36Z</time>
      </trkpt>
      <trkpt lat="42.50582" lon="0.15128">
        <ele>635.4</ele>
        <time>2016-07-23T08:49:38Z</time>
      </trkpt>
      <trkpt lat="42.50585" lon="0.15133">
        <ele>636.6</ele>
        <time>2016-07-23T08:49:40Z</time>
      </trkpt>
      <trkpt lat="42.50589" lon="0.15139">
        <ele>637.9</ele>
        <time>2016-07-23T08:49:42Z</time>
      </trkpt>
      <trkpt lat="42.50593" lon="0.15144">
        <ele>639</ele>
        <time>2016-07-23T08:49:44Z</time>
      </trkpt>
      <trkpt lat="42.50596" lon="0.15149">
        <ele>640.1</ele>
        <time>2016-07-23T08:49:46Z</time>
      </trkpt>
      <trkpt lat="42.50599" lon="0.15155">
        <ele>641.2</ele>
        <time>2016-07-23T08:49:48Z</time>
      </trkpt>
      <trkpt lat="42.50602" lon="0.15161">
        <ele>642.2</ele>
        <time>2016-07-23T08:49:50Z</time>
      </trkpt>
      <trkpt lat="42.50606" lon="0.15166">
        <ele>643.1</ele>
        <time>2016-07-23T08:49:52Z</time>
      </trkpt>
      <trkpt lat="42.50607" lon="0.15169">
        <ele>643.6</ele>
        <time>2016-07-23T08:49:53Z</time>
      </trkpt>
      <trkpt lat="42.50611" lon="0.15174">
        <ele>644.3</ele>
        <time>2016-07-23T08:49:55Z</time>
      </trkpt>
      <trkpt lat="42.50614" lon="0.15179">
        <ele>645</ele>
        <time>2016-07-23T08:49:57Z</time>
      </trkpt>
      <trkpt lat="42.50618" lon="0.15185">
        <ele>645.7</ele>
        <time>2016-07-23T08:49:59Z</time>
      </trkpt>
      <trkpt lat="42.5062" lon="0.15191">
        <ele>646.4</ele>
        <time>2016-07-23T08:50:01Z</time>
      </trkpt>
      <trkpt lat="42.50622" lon="0.15195">
        <ele>646.7</ele>
        <time>2016-07-23T08:50:02Z</time>
      </trkpt>
      <trkpt lat="42.50623" lon="0.15198">
        <ele>647</ele>
        <time>2016-07-23T08:50:03Z</time>
      </trkpt>
      <trkpt lat="42.50625" lon="0.15201">
        <ele>647.3</ele>
        <time>2016-07-23T08:50:04Z</time>
      </trkpt>
      <trkpt lat="42.50628" lon="0.15207">
        <ele>648.6</ele>
        <time>2016-07-23T08:50:06Z</time>
      </trkpt>
      <trkpt lat="42.5063" lon="0.15213">
        <ele>650.6</ele>
        <time>2016-07-23T08:50:08Z</time>
      </trkpt>
      <trkpt lat="42.50633" lon="0.15218">
        <ele>652.8</ele>
        <time>2016-07-23T08:50:10Z</time>
      </trkpt>
      <trkpt lat="42.50636" lon="0.15224">
        <ele>654.9</ele>
        <time>2016-07-23T08:50:12Z</time>
      </trkpt>
      <trkpt lat="42.50639" lon="0.15229">
        <ele>656.7</ele>
        <time>2016-07-23T08:50:14Z</time>
      </trkpt>
      <trkpt lat="42.50642" lon="0.15234">
        <ele>658.4</ele>
        <time>2016-07-23T08:50:16Z</time>
      </trkpt>
      <trkpt lat="42.50645" lon="0.15241">
        <ele>660.2</ele>
        <time>2016-07-23T08:50:18Z</time>
      </trkpt>
      <trkpt lat="42.50647" lon="0.15247">
        <ele>661.8</ele>
        <time>2016-07-23T08:50:20Z</time>
      </trkpt>
      <trkpt lat="42.5065" lon="0.15253">
        <ele>663.3</ele>
        <time>2016-07-23T08:50:22Z</time>
      </trkpt>
      <trkpt lat="42.50652" lon="0.15259">
        <ele>664.7</ele>
        <time>2016-07-23T08:50:24Z</time>
      </trkpt>
      <trkpt lat="42.50652" lon="0.15263">
        <ele>665.4</ele>
        <time>2016-07-23T08:50:25Z</time>
      </trkpt>
      <trkpt lat="42.5065" lon="0.1527">
        <ele>666.5</ele>
        <time>2016-07-23T08:50:27Z</time>
      </trkpt>
      <trkpt lat="42.50649" lon="0.15273">
        <ele>666.9</ele>
        <time>2016-07-23T08:50:28Z</time>
      </trkpt>
      <trkpt lat="42.50646" lon="0.15276">
        <ele>667.2</ele>
        <time>2016-07-23T08:50:29Z</time>
      </trkpt>
      <trkpt lat="42.50644" lon="0.15278">
        <ele>667.4</ele>
        <time>2016-07-23T08:50:30Z</time>
      </trkpt>
      <trkpt lat="42.50641" lon="0.15279">
        <ele>667.5</ele>
        <time>2016-07-23T08:50:31Z</time>
      </trkpt>
      <trkpt lat="42.50638" lon="0.15279">
        <ele>667.3</ele>
        <time>2016-07-23T08:50:32Z</time>
      </trkpt>
      <trkpt lat="42.50635" lon="0.15278">
        <ele>666.9</ele>
        <time>2016-07-23T08:50:33Z</time>
      </trkpt>
      <trkpt lat="42.50633" lon="0.15276">
        <ele>666.4</ele>
        <time>2016-07-23T08:50:34Z</time>
      </trkpt>
      <trkpt lat="42.5063" lon="0.15274">
        <ele>665.7</ele>
        <time>2016-07-23T08:50:35Z</time>
      </trkpt>
      <trkpt lat="42.50628" lon="0.15272">
        <ele>664.9</ele>
        <time>2016-07-23T08:50:36Z</time>
      </trkpt>
      <trkpt lat="42.50626" lon="0.15269">
        <ele>664</ele>
        <time>2016-07-23T08:50:37Z</time>
      </trkpt>
      <trkpt lat="42.50623" lon="0.15266">
        <ele>663.5</ele>
        <time>2016-07-23T08:50:38Z</time>
      </trkpt>
      <trkpt lat="42.5062" lon="0.15261">
        <ele>662.6</ele>
        <time>2016-07-23T08:50:40Z</time>
      </trkpt>
      <trkpt lat="42.50616" lon="0.15257">
        <ele>661.7</ele>
        <time>2016-07-23T08:50:42Z</time>
      </trkpt>
      <trkpt lat="42.50612" lon="0.15252">
        <ele>660.8</ele>
        <time>2016-07-23T08:50:44Z</time>
      </trkpt>
      <trkpt lat="42.50608" lon="0.15247">
        <ele>660</ele>
        <time>2016-07-23T08:50:46Z</time>
      </trkpt>
      <trkpt lat="42.50604" lon="0.15244">
        <ele>659.3</ele>
        <time>2016-07-23T08:50:48Z</time>
      </trkpt>
      <trkpt lat="42.50599" lon="0.15241">
        <ele>658.8</ele>
        <time>2016-07-23T08:50:50Z</time>
      </trkpt>
      <trkpt lat="42.50597" lon="0.15239">
        <ele>658.6</ele>
        <time>2016-07-23T08:50:51Z</time>
      </trkpt>
      <trkpt lat="42.50594" lon="0.15238">
        <ele>658.3</ele>
        <time>2016-07-23T08:50:52Z</time>
      </trkpt>
      <trkpt lat="42.50592" lon="0.15236">
        <ele>658</ele>
        <time>2016-07-23T08:50:53Z</time>
      </trkpt>
      <trkpt lat="42.50587" lon="0.15233">
        <ele>657.2</ele>
        <time>2016-07-23T08:50:55Z</time>
      </trkpt>
      <trkpt lat="42.50583" lon="0.1523">
        <ele>656.7</ele>
        <time>2016-07-23T08:50:57Z</time>
      </trkpt>
      <trkpt lat="42.50578" lon="0.15229">
        <ele>656.6</ele>
        <time>2016-07-23T08:50:59Z</time>
      </trkpt>
      <trkpt lat="42.50573" lon="0.15228">
        <ele>656.6</ele>
        <time>2016-07-23T08:51:01Z</time>
      </trkpt>
      <trkpt lat="42.50568" lon="0.15228">
        <ele>656.9</ele>
        <time>2016-07-23T08:51:03Z</time>
      </trkpt>
      <trkpt lat="42.50563" lon="0.15229">
        <ele>657.6</ele>
        <time>2016-07-23T08:51:05Z</time>
      </trkpt>
      <trkpt lat="42.50558" lon="0.1523">
        <ele>658.3</ele>
        <time>2016-07-23T08:51:07Z</time>
      </trkpt>
      <trkpt lat="42.50553" lon="0.1523">
        <ele>658.7</ele>
        <time>2016-07-23T08:51:09Z</time>
      </trkpt>
      <trkpt lat="42.5055" lon="0.15229">
        <ele>658.8</ele>
        <time>2016-07-23T08:51:10Z</time>
      </trkpt>
      <trkpt lat="42.50545" lon="0.15228">
        <ele>658.4</ele>
        <time>2016-07-23T08:51:12Z</time>
      </trkpt>
      <trkpt lat="42.50541" lon="0.15224">
        <ele>657.1</ele>
        <time>2016-07-23T08:51:14Z</time>
      </trkpt>
      <trkpt lat="42.50538" lon="0.15219">
        <ele>654.5</ele>
        <time>2016-07-23T08:51:16Z</time>
      </trkpt>
      <trkpt lat="42.50536" lon="0.15213">
        <ele>651.7</ele>
        <time>2016-07-23T08:51:18Z</time>
      </trkpt>
      <trkpt lat="42.50533" lon="0.15207">
        <ele>649.3</ele>
        <time>2016-07-23T08:51:20Z</time>
      </trkpt>
      <trkpt lat="42.5053" lon="0.15202">
        <ele>647.3</ele>
        <time>2016-07-23T08:51:22Z</time>
      </trkpt>
      <trkpt lat="42.50525" lon="0.15198">
        <ele>645.6</ele>
        <time>2016-07-23T08:51:24Z</time>
      </trkpt>
      <trkpt lat="42.50523" lon="0.15197">
        <ele>644.9</ele>
        <time>2016-07-23T08:51:25Z</time>
      </trkpt>
      <trkpt lat="42.5052" lon="0.15196">
        <ele>644.2</ele>
        <time>2016-07-23T08:51:26Z</time>
      </trkpt>
      <trkpt lat="42.50517" lon="0.15196">
        <ele>643.7</ele>
        <time>2016-07-23T08:51:27Z</time>
      </trkpt>
      <trkpt lat="42.50514" lon="0.15196">
        <ele>643.3</ele>
        <time>2016-07-23T08:51:28Z</time>
      </trkpt>
      <trkpt lat="42.50511" lon="0.15196">
        <ele>642.8</ele>
        <time>2016-07-23T08:51:29Z</time>
      </trkpt>
      <trkpt lat="42.50509" lon="0.15197">
        <ele>642.6</ele>
        <time>2016-07-23T08:51:30Z</time>
      </trkpt>
      <trkpt lat="42.50506" lon="0.15198">
        <ele>642.3</ele>
        <time>2016-07-23T08:51:31Z</time>
      </trkpt>
      <trkpt lat="42.50503" lon="0.15199">
        <ele>642.2</ele>
        <time>2016-07-23T08:51:32Z</time>
      </trkpt>
      <trkpt lat="42.505" lon="0.15201">
        <ele>642.2</ele>
        <time>2016-07-23T08:51:33Z</time>
      </trkpt>
      <trkpt lat="42.50497" lon="0.15203">
        <ele>642.2</ele>
        <time>2016-07-23T08:51:34Z</time>
      </trkpt>
      <trkpt lat="42.50494" lon="0.15205">
        <ele>642.1</ele>
        <time>2016-07-23T08:51:35Z</time>
      </trkpt>
      <trkpt lat="42.50491" lon="0.15206">
        <ele>642.1</ele>
        <time>2016-07-23T08:51:36Z</time>
      </trkpt>
      <trkpt lat="42.50488" lon="0.15208">
        <ele>642</ele>
        <time>2016-07-23T08:51:37Z</time>
      </trkpt>
      <trkpt lat="42.50485" lon="0.1521">
        <ele>642.1</ele>
        <time>2016-07-23T08:51:38Z</time>
      </trkpt>
      <trkpt lat="42.50482" lon="0.15212">
        <ele>642.4</ele>
        <time>2016-07-23T08:51:39Z</time>
      </trkpt>
      <trkpt lat="42.50479" lon="0.15214">
        <ele>642.6</ele>
        <time>2016-07-23T08:51:40Z</time>
      </trkpt>
      <trkpt lat="42.50475" lon="0.15216">
        <ele>642.9</ele>
        <time>2016-07-23T08:51:41Z</time>
      </trkpt>
      <trkpt lat="42.50472" lon="0.15218">
        <ele>643.1</ele>
        <time>2016-07-23T08:51:42Z</time>
      </trkpt>
      <trkpt lat="42.50469" lon="0.1522">
        <ele>643.4</ele>
        <time>2016-07-23T08:51:43Z</time>
      </trkpt>
      <trkpt lat="42.50465" lon="0.15223">
        <ele>643.8</ele>
        <time>2016-07-23T08:51:44Z</time>
      </trkpt>
      <trkpt lat="42.50462" lon="0.15225">
        <ele>644.3</ele>
        <time>2016-07-23T08:51:45Z</time>
      </trkpt>
      <trkpt lat="42.50459" lon="0.15228">
        <ele>644.8</ele>
        <time>2016-07-23T08:51:46Z</time>
      </trkpt>
      <trkpt lat="42.50456" lon="0.15231">
        <ele>645.5</ele>
        <time>2016-07-23T08:51:47Z</time>
      </trkpt>
      <trkpt lat="42.50453" lon="0.15233">
        <ele>646.3</ele>
        <time>2016-07-23T08:51:48Z</time>
      </trkpt>
      <trkpt lat="42.5045" lon="0.15236">
        <ele>647</ele>
        <time>2016-07-23T08:51:49Z</time>
      </trkpt>
      <trkpt lat="42.50447" lon="0.15238">
        <ele>647.7</ele>
        <time>2016-07-23T08:51:50Z</time>
      </trkpt>
      <trkpt lat="42.50444" lon="0.15241">
        <ele>648.4</ele>
        <time>2016-07-23T08:51:51Z</time>
      </trkpt>
      <trkpt lat="42.50442" lon="0.15243">
        <ele>649</ele>
        <time>2016-07-23T08:51:52Z</time>
      </trkpt>
      <trkpt lat="42.50439" lon="0.15245">
        <ele>649.6</ele>
        <time>2016-07-23T08:51:53Z</time>
      </trkpt>
      <trkpt lat="42.50436" lon="0.15248">
        <ele>650.3</ele>
        <time>2016-07-23T08:51:54Z</time>
      </trkpt>
      <trkpt lat="42.50434" lon="0.1525">
        <ele>651</ele>
        <time>2016-07-23T08:51:55Z</time>
      </trkpt>
      <trkpt lat="42.50431" lon="0.15252">
        <ele>651.6</ele>
        <time>2016-07-23T08:51:56Z</time>
      </trkpt>
      <trkpt lat="42.50428" lon="0.15255">
        <ele>652.5</ele>
        <time>2016-07-23T08:51:57Z</time>
      </trkpt>
      <trkpt lat="42.50426" lon="0.15259">
        <ele>653.5</ele>
        <time>2016-07-23T08:51:58Z</time>
      </trkpt>
      <trkpt lat="42.50424" lon="0.15262">
        <ele>654.6</ele>
        <time>2016-07-23T08:51:59Z</time>
      </trkpt>
      <trkpt lat="42.50421" lon="0.15265">
        <ele>655.7</ele>
        <time>2016-07-23T08:52:00Z</time>
      </trkpt>
      <trkpt lat="42.50419" lon="0.15269">
        <ele>656.7</ele>
        <time>2016-07-23T08:52:01Z</time>
      </trkpt>
      <trkpt lat="42.50416" lon="0.15271">
        <ele>657.4</ele>
        <time>2016-07-23T08:52:02Z</time>
      </trkpt>
      <trkpt lat="42.50413" lon="0.15274">
        <ele>658.1</ele>
        <time>2016-07-23T08:52:03Z</time>
      </trkpt>
      <trkpt lat="42.5041" lon="0.15276">
        <ele>658.8</ele>
        <time>2016-07-23T08:52:04Z</time>
      </trkpt>
      <trkpt lat="42.50406" lon="0.15279">
        <ele>659.4</ele>
        <time>2016-07-23T08:52:05Z</time>
      </trkpt>
      <trkpt lat="42.50402" lon="0.15281">
        <ele>659.9</ele>
        <time>2016-07-23T08:52:06Z</time>
      </trkpt>
      <trkpt lat="42.50398" lon="0.15283">
        <ele>660.3</ele>
        <time>2016-07-23T08:52:07Z</time>
      </trkpt>
      <trkpt lat="42.50393" lon="0.15285">
        <ele>660.6</ele>
        <time>2016-07-23T08:52:08Z</time>
      </trkpt>
      <trkpt lat="42.50389" lon="0.15287">
        <ele>660.8</ele>
        <time>2016-07-23T08:52:09Z</time>
      </trkpt>
      <trkpt lat="42.50385" lon="0.15289">
        <ele>661.1</ele>
        <time>2016-07-23T08:52:10Z</time>
      </trkpt>
      <trkpt lat="42.50381" lon="0.15291">
        <ele>661.4</ele>
        <time>2016-07-23T08:52:11Z</time>
      </trkpt>
      <trkpt lat="42.50376" lon="0.15293">
        <ele>661.6</ele>
        <time>2016-07-23T08:52:12Z</time>
      </trkpt>
      <trkpt lat="42.50372" lon="0.15294">
        <ele>662.1</ele>
        <time>2016-07-23T08:52:13Z</time>
      </trkpt>
      <trkpt lat="42.50368" lon="0.15296">
        <ele>662.7</ele>
        <time>2016-07-23T08:52:14Z</time>
      </trkpt>
      <trkpt lat="42.50364" lon="0.15297">
        <ele>663.2</ele>
        <time>2016-07-23T08:52:15Z</time>
      </trkpt>
      <trkpt lat="42.5036" lon="0.15298">
        <ele>663.7</ele>
        <time>2016-07-23T08:52:16Z</time>
      </trkpt>
      <trkpt lat="42.50356" lon="0.15299">
        <ele>663.9</ele>
        <time>2016-07-23T08:52:17Z</time>
      </trkpt>
      <trkpt lat="42.50352" lon="0.15299">
        <ele>663.8</ele>
        <time>2016-07-23T08:52:18Z</time>
      </trkpt>
      <trkpt lat="42.50348" lon="0.15298">
        <ele>663.6</ele>
        <time>2016-07-23T08:52:19Z</time>
      </trkpt>
      <trkpt lat="42.50344" lon="0.15297">
        <ele>663.2</ele>
        <time>2016-07-23T08:52:20Z</time>
      </trkpt>
      <trkpt lat="42.5034" lon="0.15296">
        <ele>662.8</ele>
        <time>2016-07-23T08:52:21Z</time>
      </trkpt>
      <trkpt lat="42.50335" lon="0.15296">
        <ele>662.5</ele>
        <time>2016-07-23T08:52:22Z</time>
      </trkpt>
      <trkpt lat="42.50331" lon="0.15295">
        <ele>662.2</ele>
        <time>2016-07-23T08:52:23Z</time>
      </trkpt>
      <trkpt lat="42.50327" lon="0.15295">
        <ele>662.2</ele>
        <time>2016-07-23T08:52:24Z</time>
      </trkpt>
      <trkpt lat="42.50323" lon="0.15295">
        <ele>662.2</ele>
        <time>2016-07-23T08:52:25Z</time>
      </trkpt>
      <trkpt lat="42.50318" lon="0.15296">
        <ele>662.4</ele>
        <time>2016-07-23T08:52:26Z</time>
      </trkpt>
      <trkpt lat="42.50314" lon="0.15296">
        <ele>662.6</ele>
        <time>2016-07-23T08:52:27Z</time>
      </trkpt>
      <trkpt lat="42.5031" lon="0.15297">
        <ele>662.9</ele>
        <time>2016-07-23T08:52:28Z</time>
      </trkpt>
      <trkpt lat="42.50306" lon="0.15298">
        <ele>663.2</ele>
        <time>2016-07-23T08:52:29Z</time>
      </trkpt>
      <trkpt lat="42.50302" lon="0.15299">
        <ele>663.5</ele>
        <time>2016-07-23T08:52:30Z</time>
      </trkpt>
      <trkpt lat="42.50298" lon="0.153">
        <ele>663.8</ele>
        <time>2016-07-23T08:52:31Z</time>
      </trkpt>
      <trkpt lat="42.50294" lon="0.15301">
        <ele>664.2</ele>
        <time>2016-07-23T08:52:32Z</time>
      </trkpt>
      <trkpt lat="42.50291" lon="0.15303">
        <ele>664.5</ele>
        <time>2016-07-23T08:52:33Z</time>
      </trkpt>
      <trkpt lat="42.50287" lon="0.15304">
        <ele>664.7</ele>
        <time>2016-07-23T08:52:34Z</time>
      </trkpt>
      <trkpt lat="42.50284" lon="0.15306">
        <ele>664.8</ele>
        <time>2016-07-23T08:52:35Z</time>
      </trkpt>
      <trkpt lat="42.5028" lon="0.15308">
        <ele>665</ele>
        <time>2016-07-23T08:52:36Z</time>
      </trkpt>
      <trkpt lat="42.50276" lon="0.1531">
        <ele>665.1</ele>
        <time>2016-07-23T08:52:37Z</time>
      </trkpt>
      <trkpt lat="42.50272" lon="0.15311">
        <ele>665.2</ele>
        <time>2016-07-23T08:52:38Z</time>
      </trkpt>
      <trkpt lat="42.50269" lon="0.15313">
        <ele>665.2</ele>
        <time>2016-07-23T08:52:39Z</time>
      </trkpt>
      <trkpt lat="42.50265" lon="0.15314">
        <ele>665.2</ele>
        <time>2016-07-23T08:52:40Z</time>
      </trkpt>
      <trkpt lat="42.50261" lon="0.15315">
        <ele>665.1</ele>
        <time>2016-07-23T08:52:41Z</time>
      </trkpt>
      <trkpt lat="42.50257" lon="0.15316">
        <ele>664.9</ele>
        <time>2016-07-23T08:52:42Z</time>
      </trkpt>
      <trkpt lat="42.50254" lon="0.15317">
        <ele>664.7</ele>
        <time>2016-07-23T08:52:43Z</time>
      </trkpt>
      <trkpt lat="42.5025" lon="0.15317">
        <ele>664.4</ele>
        <time>2016-07-23T08:52:44Z</time>
      </trkpt>
      <trkpt lat="42.50247" lon="0.15317">
        <ele>664.1</ele>
        <time>2016-07-23T08:52:45Z</time>
      </trkpt>
      <trkpt lat="42.50244" lon="0.15317">
        <ele>663.7</ele>
        <time>2016-07-23T08:52:46Z</time>
      </trkpt>
      <trkpt lat="42.5024" lon="0.15317">
        <ele>663.3</ele>
        <time>2016-07-23T08:52:47Z</time>
      </trkpt>
      <trkpt lat="42.50237" lon="0.15317">
        <ele>662.9</ele>
        <time>2016-07-23T08:52:48Z</time>
      </trkpt>
      <trkpt lat="42.50233" lon="0.15318">
        <ele>662.5</ele>
        <time>2016-07-23T08:52:49Z</time>
      </trkpt>
      <trkpt lat="42.50229" lon="0.15318">
        <ele>662.1</ele>
        <time>2016-07-23T08:52:50Z</time>
      </trkpt>
      <trkpt lat="42.50226" lon="0.15318">
        <ele>661.7</ele>
        <time>2016-07-23T08:52:51Z</time>
      </trkpt>
      <trkpt lat="42.50222" lon="0.15318">
        <ele>661.2</ele>
        <time>2016-07-23T08:52:52Z</time>
      </trkpt>
      <trkpt lat="42.50218" lon="0.15318">
        <ele>660.8</ele>
        <time>2016-07-23T08:52:53Z</time>
      </trkpt>
      <trkpt lat="42.50215" lon="0.15318">
        <ele>660.5</ele>
        <time>2016-07-23T08:52:54Z</time>
      </trkpt>
      <trkpt lat="42.50212" lon="0.15318">
        <ele>660.1</ele>
        <time>2016-07-23T08:52:55Z</time>
      </trkpt>
      <trkpt lat="42.50208" lon="0.15317">
        <ele>659.6</ele>
        <time>2016-07-23T08:52:56Z</time>
      </trkpt>
      <trkpt lat="42.50205" lon="0.15316">
        <ele>659.1</ele>
        <time>2016-07-23T08:52:57Z</time>
      </trkpt>
      <trkpt lat="42.50202" lon="0.15315">
        <ele>658.7</ele>
        <time>2016-07-23T08:52:58Z</time>
      </trkpt>
      <trkpt lat="42.50199" lon="0.15314">
        <ele>658.2</ele>
        <time>2016-07-23T08:52:59Z</time>
      </trkpt>
      <trkpt lat="42.50196" lon="0.15313">
        <ele>657.8</ele>
        <time>2016-07-23T08:53:00Z</time>
      </trkpt>
      <trkpt lat="42.50193" lon="0.15312">
        <ele>657.3</ele>
        <time>2016-07-23T08:53:01Z</time>
      </trkpt>
      <trkpt lat="42.5019" lon="0.1531">
        <ele>656.7</ele>
        <time>2016-07-23T08:53:02Z</time>
      </trkpt>
      <trkpt lat="42.50187" lon="0.15308">
        <ele>656</ele>
        <time>2016-07-23T08:53:03Z</time>
      </trkpt>
      <trkpt lat="42.50184" lon="0.15305">
        <ele>655.2</ele>
        <time>2016-07-23T08:53:04Z</time>
      </trkpt>
      <trkpt lat="42.50181" lon="0.15303">
        <ele>654.4</ele>
        <time>2016-07-23T08:53:05Z</time>
      </trkpt>
      <trkpt lat="42.50179" lon="0.153">
        <ele>653.4</ele>
        <time>2016-07-23T08:53:06Z</time>
      </trkpt>
      <trkpt lat="42.50177" lon="0.15296">
        <ele>652.5</ele>
        <time>2016-07-23T08:53:07Z</time>
      </trkpt>
      <trkpt lat="42.50174" lon="0.15293">
        <ele>651.6</ele>
        <time>2016-07-23T08:53:08Z</time>
      </trkpt>
      <trkpt lat="42.50172" lon="0.15291">
        <ele>650.8</ele>
        <time>2016-07-23T08:53:09Z</time>
      </trkpt>
      <trkpt lat="42.5017" lon="0.15289">
        <ele>650.1</ele>
        <time>2016-07-23T08:53:10Z</time>
      </trkpt>
      <trkpt lat="42.50167" lon="0.15288">
        <ele>649.5</ele>
        <time>2016-07-23T08:53:11Z</time>
      </trkpt>
      <trkpt lat="42.50164" lon="0.15287">
        <ele>649.2</ele>
        <time>2016-07-23T08:53:12Z</time>
      </trkpt>
      <trkpt lat="42.50161" lon="0.15289">
        <ele>649.2</ele>
        <time>2016-07-23T08:53:13Z</time>
      </trkpt>
      <trkpt lat="42.50158" lon="0.15291">
        <ele>649.6</ele>
        <time>2016-07-23T08:53:14Z</time>
      </trkpt>
      <trkpt lat="42.50157" lon="0.15294">
        <ele>650.3</ele>
        <time>2016-07-23T08:53:15Z</time>
      </trkpt>
      <trkpt lat="42.50156" lon="0.15299">
        <ele>651.4</ele>
        <time>2016-07-23T08:53:16Z</time>
      </trkpt>
      <trkpt lat="42.50157" lon="0.15303">
        <ele>652.6</ele>
        <time>2016-07-23T08:53:17Z</time>
      </trkpt>
      <trkpt lat="42.50159" lon="0.15307">
        <ele>653.8</ele>
        <time>2016-07-23T08:53:18Z</time>
      </trkpt>
      <trkpt lat="42.50161" lon="0.1531">
        <ele>654.8</ele>
        <time>2016-07-23T08:53:19Z</time>
      </trkpt>
      <trkpt lat="42.50164" lon="0.15314">
        <ele>655.8</ele>
        <time>2016-07-23T08:53:20Z</time>
      </trkpt>
      <trkpt lat="42.50166" lon="0.15317">
        <ele>656.8</ele>
        <time>2016-07-23T08:53:21Z</time>
      </trkpt>
      <trkpt lat="42.50169" lon="0.15319">
        <ele>657.6</ele>
        <time>2016-07-23T08:53:22Z</time>
      </trkpt>
      <trkpt lat="42.50172" lon="0.15322">
        <ele>658.4</ele>
        <time>2016-07-23T08:53:23Z</time>
      </trkpt>
      <trkpt lat="42.50175" lon="0.15324">
        <ele>659.1</ele>
        <time>2016-07-23T08:53:24Z</time>
      </trkpt>
      <trkpt lat="42.50177" lon="0.15327">
        <ele>659.9</ele>
        <time>2016-07-23T08:53:25Z</time>
      </trkpt>
      <trkpt lat="42.5018" lon="0.15329">
        <ele>660.5</ele>
        <time>2016-07-23T08:53:26Z</time>
      </trkpt>
      <trkpt lat="42.50183" lon="0.1533">
        <ele>661</ele>
        <time>2016-07-23T08:53:27Z</time>
      </trkpt>
      <trkpt lat="42.50188" lon="0.15334">
        <ele>662.1</ele>
        <time>2016-07-23T08:53:29Z</time>
      </trkpt>
      <trkpt lat="42.5019" lon="0.15335">
        <ele>662.6</ele>
        <time>2016-07-23T08:53:30Z</time>
      </trkpt>
      <trkpt lat="42.50193" lon="0.15337">
        <ele>663.1</ele>
        <time>2016-07-23T08:53:31Z</time>
      </trkpt>
      <trkpt lat="42.50195" lon="0.15339">
        <ele>663.6</ele>
        <time>2016-07-23T08:53:32Z</time>
      </trkpt>
      <trkpt lat="42.50198" lon="0.1534">
        <ele>664.1</ele>
        <time>2016-07-23T08:53:33Z</time>
      </trkpt>
      <trkpt lat="42.50201" lon="0.15342">
        <ele>664.5</ele>
        <time>2016-07-23T08:53:34Z</time>
      </trkpt>
      <trkpt lat="42.50203" lon="0.15343">
        <ele>664.9</ele>
        <time>2016-07-23T08:53:35Z</time>
      </trkpt>
      <trkpt lat="42.50206" lon="0.15345">
        <ele>665.4</ele>
        <time>2016-07-23T08:53:36Z</time>
      </trkpt>
      <trkpt lat="42.50208" lon="0.15347">
        <ele>666</ele>
        <time>2016-07-23T08:53:37Z</time>
      </trkpt>
      <trkpt lat="42.50211" lon="0.15349">
        <ele>666.8</ele>
        <time>2016-07-23T08:53:38Z</time>
      </trkpt>
      <trkpt lat="42.50214" lon="0.15351">
        <ele>667.6</ele>
        <time>2016-07-23T08:53:39Z</time>
      </trkpt>
      <trkpt lat="42.50216" lon="0.15352">
        <ele>668.3</ele>
        <time>2016-07-23T08:53:40Z</time>
      </trkpt>
      <trkpt lat="42.50219" lon="0.15353">
        <ele>669</ele>
        <time>2016-07-23T08:53:41Z</time>
      </trkpt>
      <trkpt lat="42.50222" lon="0.15354">
        <ele>669.6</ele>
        <time>2016-07-23T08:53:42Z</time>
      </trkpt>
      <trkpt lat="42.50225" lon="0.15354">
        <ele>670.2</ele>
        <time>2016-07-23T08:53:43Z</time>
      </trkpt>
      <trkpt lat="42.50228" lon="0.15355">
        <ele>670.8</ele>
        <time>2016-07-23T08:53:44Z</time>
      </trkpt>
      <trkpt lat="42.50231" lon="0.15355">
        <ele>671.5</ele>
        <time>2016-07-23T08:53:45Z</time>
      </trkpt>
      <trkpt lat="42.50234" lon="0.15356">
        <ele>672</ele>
        <time>2016-07-23T08:53:46Z</time>
      </trkpt>
      <trkpt lat="42.50236" lon="0.15356">
        <ele>672.6</ele>
        <time>2016-07-23T08:53:47Z</time>
      </trkpt>
      <trkpt lat="42.50242" lon="0.15357">
        <ele>673.8</ele>
        <time>2016-07-23T08:53:49Z</time>
      </trkpt>
      <trkpt lat="42.50247" lon="0.15359">
        <ele>675</ele>
        <time>2016-07-23T08:53:51Z</time>
      </trkpt>
      <trkpt lat="42.50249" lon="0.1536">
        <ele>675.7</ele>
        <time>2016-07-23T08:53:52Z</time>
      </trkpt>
      <trkpt lat="42.50252" lon="0.15361">
        <ele>676.4</ele>
        <time>2016-07-23T08:53:53Z</time>
      </trkpt>
      <trkpt lat="42.50257" lon="0.15363">
        <ele>677.9</ele>
        <time>2016-07-23T08:53:55Z</time>
      </trkpt>
      <trkpt lat="42.50261" lon="0.15366">
        <ele>679.5</ele>
        <time>2016-07-23T08:53:57Z</time>
      </trkpt>
      <trkpt lat="42.50265" lon="0.15368">
        <ele>681</ele>
        <time>2016-07-23T08:53:59Z</time>
      </trkpt>
      <trkpt lat="42.5027" lon="0.1537">
        <ele>682.3</ele>
        <time>2016-07-23T08:54:01Z</time>
      </trkpt>
      <trkpt lat="42.50274" lon="0.15371">
        <ele>683.6</ele>
        <time>2016-07-23T08:54:03Z</time>
      </trkpt>
      <trkpt lat="42.50279" lon="0.15372">
        <ele>684.6</ele>
        <time>2016-07-23T08:54:05Z</time>
      </trkpt>
      <trkpt lat="42.50284" lon="0.15371">
        <ele>685.2</ele>
        <time>2016-07-23T08:54:07Z</time>
      </trkpt>
      <trkpt lat="42.50288" lon="0.1537">
        <ele>685.8</ele>
        <time>2016-07-23T08:54:09Z</time>
      </trkpt>
      <trkpt lat="42.50293" lon="0.1537">
        <ele>686.6</ele>
        <time>2016-07-23T08:54:11Z</time>
      </trkpt>
      <trkpt lat="42.50297" lon="0.1537">
        <ele>687</ele>
        <time>2016-07-23T08:54:13Z</time>
      </trkpt>
      <trkpt lat="42.50302" lon="0.1537">
        <ele>687.1</ele>
        <time>2016-07-23T08:54:15Z</time>
      </trkpt>
      <trkpt lat="42.50307" lon="0.15369">
        <ele>687.5</ele>
        <time>2016-07-23T08:54:17Z</time>
      </trkpt>
      <trkpt lat="42.50311" lon="0.15371">
        <ele>688.3</ele>
        <time>2016-07-23T08:54:19Z</time>
      </trkpt>
      <trkpt lat="42.50315" lon="0.15373">
        <ele>689.4</ele>
        <time>2016-07-23T08:54:21Z</time>
      </trkpt>
      <trkpt lat="42.50317" lon="0.15376">
        <ele>690.6</ele>
        <time>2016-07-23T08:54:23Z</time>
      </trkpt>
      <trkpt lat="42.50318" lon="0.15381">
        <ele>691.5</ele>
        <time>2016-07-23T08:54:25Z</time>
      </trkpt>
      <trkpt lat="42.50316" lon="0.15387">
        <ele>692.5</ele>
        <time>2016-07-23T08:54:27Z</time>
      </trkpt>
      <trkpt lat="42.50313" lon="0.15392">
        <ele>693.1</ele>
        <time>2016-07-23T08:54:29Z</time>
      </trkpt>
      <trkpt lat="42.50311" lon="0.15398">
        <ele>693.9</ele>
        <time>2016-07-23T08:54:31Z</time>
      </trkpt>
      <trkpt lat="42.50309" lon="0.15403">
        <ele>694.6</ele>
        <time>2016-07-23T08:54:33Z</time>
      </trkpt>
      <trkpt lat="42.50307" lon="0.15408">
        <ele>695.2</ele>
        <time>2016-07-23T08:54:35Z</time>
      </trkpt>
      <trkpt lat="42.50304" lon="0.15412">
        <ele>695.6</ele>
        <time>2016-07-23T08:54:37Z</time>
      </trkpt>
      <trkpt lat="42.503" lon="0.15415">
        <ele>695.7</ele>
        <time>2016-07-23T08:54:39Z</time>
      </trkpt>
      <trkpt lat="42.50297" lon="0.15419">
        <ele>696.1</ele>
        <time>2016-07-23T08:54:41Z</time>
      </trkpt>
      <trkpt lat="42.50297" lon="0.15425">
        <ele>697</ele>
        <time>2016-07-23T08:54:43Z</time>
      </trkpt>
      <trkpt lat="42.50298" lon="0.15431">
        <ele>698.2</ele>
        <time>2016-07-23T08:54:45Z</time>
      </trkpt>
      <trkpt lat="42.503" lon="0.15436">
        <ele>699.4</ele>
        <time>2016-07-23T08:54:47Z</time>
      </trkpt>
      <trkpt lat="42.50303" lon="0.15441">
        <ele>700.6</ele>
        <time>2016-07-23T08:54:49Z</time>
      </trkpt>
      <trkpt lat="42.50305" lon="0.15448">
        <ele>702</ele>
        <time>2016-07-23T08:54:51Z</time>
      </trkpt>
      <trkpt lat="42.50306" lon="0.15451">
        <ele>702.8</ele>
        <time>2016-07-23T08:54:52Z</time>
      </trkpt>
      <trkpt lat="42.5031" lon="0.15456">
        <ele>704.2</ele>
        <time>2016-07-23T08:54:54Z</time>
      </trkpt>
      <trkpt lat="42.50312" lon="0.15461">
        <ele>705</ele>
        <time>2016-07-23T08:54:56Z</time>
      </trkpt>
      <trkpt lat="42.50314" lon="0.15466">
        <ele>705.7</ele>
        <time>2016-07-23T08:54:58Z</time>
      </trkpt>
      <trkpt lat="42.50317" lon="0.15472">
        <ele>706.3</ele>
        <time>2016-07-23T08:55:00Z</time>
      </trkpt>
      <trkpt lat="42.5032" lon="0.15477">
        <ele>707</ele>
        <time>2016-07-23T08:55:02Z</time>
      </trkpt>
      <trkpt lat="42.50324" lon="0.15482">
        <ele>707.8</ele>
        <time>2016-07-23T08:55:04Z</time>
      </trkpt>
      <trkpt lat="42.50328" lon="0.15486">
        <ele>708.5</ele>
        <time>2016-07-23T08:55:06Z</time>
      </trkpt>
      <trkpt lat="42.50333" lon="0.15488">
        <ele>709.2</ele>
        <time>2016-07-23T08:55:08Z</time>
      </trkpt>
      <trkpt lat="42.50336" lon="0.15489">
        <ele>709.6</ele>
        <time>2016-07-23T08:55:09Z</time>
      </trkpt>
      <trkpt lat="42.50338" lon="0.1549">
        <ele>710</ele>
        <time>2016-07-23T08:55:10Z</time>
      </trkpt>
      <trkpt lat="42.50341" lon="0.15492">
        <ele>710.4</ele>
        <time>2016-07-23T08:55:11Z</time>
      </trkpt>
      <trkpt lat="42.50344" lon="0.15493">
        <ele>710.8</ele>
        <time>2016-07-23T08:55:12Z</time>
      </trkpt>
      <trkpt lat="42.50349" lon="0.15494">
        <ele>711.5</ele>
        <time>2016-07-23T08:55:14Z</time>
      </trkpt>
      <trkpt lat="42.50354" lon="0.15496">
        <ele>712.2</ele>
        <time>2016-07-23T08:55:16Z</time>
      </trkpt>
      <trkpt lat="42.50359" lon="0.15497">
        <ele>712.9</ele>
        <time>2016-07-23T08:55:18Z</time>
      </trkpt>
      <trkpt lat="42.50364" lon="0.15499">
        <ele>713.5</ele>
        <time>2016-07-23T08:55:20Z</time>
      </trkpt>
      <trkpt lat="42.50368" lon="0.15502">
        <ele>714.2</ele>
        <time>2016-07-23T08:55:22Z</time>
      </trkpt>
      <trkpt lat="42.50371" lon="0.15504">
        <ele>714.6</ele>
        <time>2016-07-23T08:55:23Z</time>
      </trkpt>
      <trkpt lat="42.50374" lon="0.15505">
        <ele>714.9</ele>
        <time>2016-07-23T08:55:24Z</time>
      </trkpt>
      <trkpt lat="42.50378" lon="0.15508">
        <ele>715.3</ele>
        <time>2016-07-23T08:55:26Z</time>
      </trkpt>
      <trkpt lat="42.50381" lon="0.1551">
        <ele>715.4</ele>
        <time>2016-07-23T08:55:27Z</time>
      </trkpt>
      <trkpt lat="42.50384" lon="0.15512">
        <ele>715.5</ele>
        <time>2016-07-23T08:55:28Z</time>
      </trkpt>
      <trkpt lat="42.50386" lon="0.15514">
        <ele>715.6</ele>
        <time>2016-07-23T08:55:29Z</time>
      </trkpt>
      <trkpt lat="42.50389" lon="0.15516">
        <ele>715.8</ele>
        <time>2016-07-23T08:55:30Z</time>
      </trkpt>
      <trkpt lat="42.50391" lon="0.15518">
        <ele>715.9</ele>
        <time>2016-07-23T08:55:31Z</time>
      </trkpt>
      <trkpt lat="42.50394" lon="0.1552">
        <ele>716</ele>
        <time>2016-07-23T08:55:32Z</time>
      </trkpt>
      <trkpt lat="42.50397" lon="0.15522">
        <ele>716.2</ele>
        <time>2016-07-23T08:55:33Z</time>
      </trkpt>
      <trkpt lat="42.50399" lon="0.15523">
        <ele>716.3</ele>
        <time>2016-07-23T08:55:34Z</time>
      </trkpt>
      <trkpt lat="42.50404" lon="0.15526">
        <ele>716.6</ele>
        <time>2016-07-23T08:55:36Z</time>
      </trkpt>
      <trkpt lat="42.50407" lon="0.15528">
        <ele>716.7</ele>
        <time>2016-07-23T08:55:37Z</time>
      </trkpt>
      <trkpt lat="42.50409" lon="0.1553">
        <ele>716.8</ele>
        <time>2016-07-23T08:55:38Z</time>
      </trkpt>
      <trkpt lat="42.50414" lon="0.15532">
        <ele>717.1</ele>
        <time>2016-07-23T08:55:40Z</time>
      </trkpt>
      <trkpt lat="42.5042" lon="0.15533">
        <ele>717.3</ele>
        <time>2016-07-23T08:55:42Z</time>
      </trkpt>
      <trkpt lat="42.50422" lon="0.15533">
        <ele>717.4</ele>
        <time>2016-07-23T08:55:43Z</time>
      </trkpt>
      <trkpt lat="42.50425" lon="0.15534">
        <ele>717.5</ele>
        <time>2016-07-23T08:55:44Z</time>
      </trkpt>
      <trkpt lat="42.5043" lon="0.15537">
        <ele>717.8</ele>
        <time>2016-07-23T08:55:46Z</time>
      </trkpt>
      <trkpt lat="42.50432" lon="0.15539">
        <ele>718</ele>
        <time>2016-07-23T08:55:47Z</time>
      </trkpt>
      <trkpt lat="42.50434" lon="0.15542">
        <ele>718.1</ele>
        <time>2016-07-23T08:55:48Z</time>
      </trkpt>
      <trkpt lat="42.50436" lon="0.15545">
        <ele>718.4</ele>
        <time>2016-07-23T08:55:49Z</time>
      </trkpt>
      <trkpt lat="42.50438" lon="0.15548">
        <ele>718.6</ele>
        <time>2016-07-23T08:55:50Z</time>
      </trkpt>
      <trkpt lat="42.50439" lon="0.15551">
        <ele>718.8</ele>
        <time>2016-07-23T08:55:51Z</time>
      </trkpt>
      <trkpt lat="42.50441" lon="0.15554">
        <ele>719</ele>
        <time>2016-07-23T08:55:52Z</time>
      </trkpt>
      <trkpt lat="42.50443" lon="0.15556">
        <ele>719.3</ele>
        <time>2016-07-23T08:55:53Z</time>
      </trkpt>
      <trkpt lat="42.50446" lon="0.15559">
        <ele>719.5</ele>
        <time>2016-07-23T08:55:54Z</time>
      </trkpt>
      <trkpt lat="42.50448" lon="0.15561">
        <ele>719.7</ele>
        <time>2016-07-23T08:55:55Z</time>
      </trkpt>
      <trkpt lat="42.5045" lon="0.15564">
        <ele>719.9</ele>
        <time>2016-07-23T08:55:56Z</time>
      </trkpt>
      <trkpt lat="42.50452" lon="0.15566">
        <ele>720.2</ele>
        <time>2016-07-23T08:55:57Z</time>
      </trkpt>
      <trkpt lat="42.50456" lon="0.15571">
        <ele>720.6</ele>
        <time>2016-07-23T08:55:59Z</time>
      </trkpt>
      <trkpt lat="42.50458" lon="0.15574">
        <ele>720.9</ele>
        <time>2016-07-23T08:56:00Z</time>
      </trkpt>
      <trkpt lat="42.5046" lon="0.15576">
        <ele>721.1</ele>
        <time>2016-07-23T08:56:01Z</time>
      </trkpt>
      <trkpt lat="42.50462" lon="0.15579">
        <ele>721.4</ele>
        <time>2016-07-23T08:56:02Z</time>
      </trkpt>
      <trkpt lat="42.50465" lon="0.15584">
        <ele>721.9</ele>
        <time>2016-07-23T08:56:04Z</time>
      </trkpt>
      <trkpt lat="42.50466" lon="0.15587">
        <ele>722.2</ele>
        <time>2016-07-23T08:56:05Z</time>
      </trkpt>
      <trkpt lat="42.5047" lon="0.15593">
        <ele>722.8</ele>
        <time>2016-07-23T08:56:07Z</time>
      </trkpt>
      <trkpt lat="42.50472" lon="0.15599">
        <ele>723.3</ele>
        <time>2016-07-23T08:56:09Z</time>
      </trkpt>
      <trkpt lat="42.50473" lon="0.15603">
        <ele>723.5</ele>
        <time>2016-07-23T08:56:10Z</time>
      </trkpt>
      <trkpt lat="42.50474" lon="0.15606">
        <ele>723.8</ele>
        <time>2016-07-23T08:56:11Z</time>
      </trkpt>
      <trkpt lat="42.50474" lon="0.1561">
        <ele>724</ele>
        <time>2016-07-23T08:56:12Z</time>
      </trkpt>
      <trkpt lat="42.50474" lon="0.15614">
        <ele>724.3</ele>
        <time>2016-07-23T08:56:13Z</time>
      </trkpt>
      <trkpt lat="42.50475" lon="0.15618">
        <ele>724.5</ele>
        <time>2016-07-23T08:56:14Z</time>
      </trkpt>
      <trkpt lat="42.50476" lon="0.15624">
        <ele>725</ele>
        <time>2016-07-23T08:56:16Z</time>
      </trkpt>
      <trkpt lat="42.50477" lon="0.15628">
        <ele>725.2</ele>
        <time>2016-07-23T08:56:17Z</time>
      </trkpt>
      <trkpt lat="42.50478" lon="0.15631">
        <ele>725.3</ele>
        <time>2016-07-23T08:56:18Z</time>
      </trkpt>
      <trkpt lat="42.5048" lon="0.15634">
        <ele>725.4</ele>
        <time>2016-07-23T08:56:19Z</time>
      </trkpt>
      <trkpt lat="42.50481" lon="0.15637">
        <ele>725.6</ele>
        <time>2016-07-23T08:56:20Z</time>
      </trkpt>
      <trkpt lat="42.50483" lon="0.15641">
        <ele>725.7</ele>
        <time>2016-07-23T08:56:21Z</time>
      </trkpt>
      <trkpt lat="42.50484" lon="0.15644">
        <ele>725.8</ele>
        <time>2016-07-23T08:56:22Z</time>
      </trkpt>
      <trkpt lat="42.50486" lon="0.15647">
        <ele>725.9</ele>
        <time>2016-07-23T08:56:23Z</time>
      </trkpt>
      <trkpt lat="42.50487" lon="0.1565">
        <ele>726</ele>
        <time>2016-07-23T08:56:24Z</time>
      </trkpt>
      <trkpt lat="42.50489" lon="0.15653">
        <ele>726.1</ele>
        <time>2016-07-23T08:56:25Z</time>
      </trkpt>
      <trkpt lat="42.5049" lon="0.15656">
        <ele>726.2</ele>
        <time>2016-07-23T08:56:26Z</time>
      </trkpt>
      <trkpt lat="42.50492" lon="0.15659">
        <ele>726.3</ele>
        <time>2016-07-23T08:56:27Z</time>
      </trkpt>
      <trkpt lat="42.50493" lon="0.15663">
        <ele>726.4</ele>
        <time>2016-07-23T08:56:28Z</time>
      </trkpt>
      <trkpt lat="42.50495" lon="0.15666">
        <ele>726.5</ele>
        <time>2016-07-23T08:56:29Z</time>
      </trkpt>
      <trkpt lat="42.50496" lon="0.15669">
        <ele>726.6</ele>
        <time>2016-07-23T08:56:30Z</time>
      </trkpt>
      <trkpt lat="42.50498" lon="0.15673">
        <ele>726.7</ele>
        <time>2016-07-23T08:56:31Z</time>
      </trkpt>
      <trkpt lat="42.50499" lon="0.15676">
        <ele>726.8</ele>
        <time>2016-07-23T08:56:32Z</time>
      </trkpt>
      <trkpt lat="42.50502" lon="0.15682">
        <ele>726.9</ele>
        <time>2016-07-23T08:56:34Z</time>
      </trkpt>
      <trkpt lat="42.50504" lon="0.15689">
        <ele>727</ele>
        <time>2016-07-23T08:56:36Z</time>
      </trkpt>
      <trkpt lat="42.50504" lon="0.15693">
        <ele>727</ele>
        <time>2016-07-23T08:56:37Z</time>
      </trkpt>
      <trkpt lat="42.50505" lon="0.15697">
        <ele>727.1</ele>
        <time>2016-07-23T08:56:38Z</time>
      </trkpt>
      <trkpt lat="42.50506" lon="0.157">
        <ele>727.1</ele>
        <time>2016-07-23T08:56:39Z</time>
      </trkpt>
      <trkpt lat="42.50506" lon="0.15704">
        <ele>727.1</ele>
        <time>2016-07-23T08:56:40Z</time>
      </trkpt>
      <trkpt lat="42.50508" lon="0.15711">
        <ele>727.3</ele>
        <time>2016-07-23T08:56:42Z</time>
      </trkpt>
      <trkpt lat="42.50509" lon="0.15715">
        <ele>727.6</ele>
        <time>2016-07-23T08:56:43Z</time>
      </trkpt>
      <trkpt lat="42.50511" lon="0.15718">
        <ele>727.8</ele>
        <time>2016-07-23T08:56:44Z</time>
      </trkpt>
      <trkpt lat="42.50513" lon="0.15721">
        <ele>728</ele>
        <time>2016-07-23T08:56:45Z</time>
      </trkpt>
      <trkpt lat="42.50515" lon="0.15724">
        <ele>728.2</ele>
        <time>2016-07-23T08:56:46Z</time>
      </trkpt>
      <trkpt lat="42.50516" lon="0.15727">
        <ele>728.4</ele>
        <time>2016-07-23T08:56:47Z</time>
      </trkpt>
      <trkpt lat="42.50518" lon="0.15729">
        <ele>728.6</ele>
        <time>2016-07-23T08:56:48Z</time>
      </trkpt>
      <trkpt lat="42.5052" lon="0.15732">
        <ele>728.8</ele>
        <time>2016-07-23T08:56:49Z</time>
      </trkpt>
      <trkpt lat="42.50522" lon="0.15735">
        <ele>729.1</ele>
        <time>2016-07-23T08:56:50Z</time>
      </trkpt>
      <trkpt lat="42.50524" lon="0.15738">
        <ele>729.3</ele>
        <time>2016-07-23T08:56:51Z</time>
      </trkpt>
      <trkpt lat="42.50528" lon="0.15743">
        <ele>729.7</ele>
        <time>2016-07-23T08:56:53Z</time>
      </trkpt>
      <trkpt lat="42.50529" lon="0.15746">
        <ele>729.9</ele>
        <time>2016-07-23T08:56:54Z</time>
      </trkpt>
      <trkpt lat="42.50531" lon="0.15749">
        <ele>730.1</ele>
        <time>2016-07-23T08:56:55Z</time>
      </trkpt>
      <trkpt lat="42.50533" lon="0.15752">
        <ele>730.3</ele>
        <time>2016-07-23T08:56:56Z</time>
      </trkpt>
      <trkpt lat="42.50537" lon="0.15757">
        <ele>730.8</ele>
        <time>2016-07-23T08:56:58Z</time>
      </trkpt>
      <trkpt lat="42.50538" lon="0.1576">
        <ele>731</ele>
        <time>2016-07-23T08:56:59Z</time>
      </trkpt>
      <trkpt lat="42.5054" lon="0.15763">
        <ele>731.2</ele>
        <time>2016-07-23T08:57:00Z</time>
      </trkpt>
      <trkpt lat="42.50542" lon="0.15766">
        <ele>731.5</ele>
        <time>2016-07-23T08:57:01Z</time>
      </trkpt>
      <trkpt lat="42.50544" lon="0.15768">
        <ele>731.7</ele>
        <time>2016-07-23T08:57:02Z</time>
      </trkpt>
      <trkpt lat="42.50546" lon="0.15771">
        <ele>732</ele>
        <time>2016-07-23T08:57:03Z</time>
      </trkpt>
      <trkpt lat="42.50549" lon="0.15777">
        <ele>732.6</ele>
        <time>2016-07-23T08:57:05Z</time>
      </trkpt>
      <trkpt lat="42.50551" lon="0.15783">
        <ele>733.2</ele>
        <time>2016-07-23T08:57:07Z</time>
      </trkpt>
      <trkpt lat="42.50554" lon="0.15789">
        <ele>733.7</ele>
        <time>2016-07-23T08:57:09Z</time>
      </trkpt>
      <trkpt lat="42.50555" lon="0.15793">
        <ele>734</ele>
        <time>2016-07-23T08:57:10Z</time>
      </trkpt>
      <trkpt lat="42.50558" lon="0.15799">
        <ele>734.5</ele>
        <time>2016-07-23T08:57:12Z</time>
      </trkpt>
      <trkpt lat="42.5056" lon="0.15806">
        <ele>735</ele>
        <time>2016-07-23T08:57:14Z</time>
      </trkpt>
      <trkpt lat="42.50561" lon="0.15809">
        <ele>735.2</ele>
        <time>2016-07-23T08:57:15Z</time>
      </trkpt>
      <trkpt lat="42.50561" lon="0.15813">
        <ele>735.4</ele>
        <time>2016-07-23T08:57:16Z</time>
      </trkpt>
      <trkpt lat="42.50562" lon="0.15816">
        <ele>735.6</ele>
        <time>2016-07-23T08:57:17Z</time>
      </trkpt>
      <trkpt lat="42.50563" lon="0.1582">
        <ele>735.9</ele>
        <time>2016-07-23T08:57:18Z</time>
      </trkpt>
      <trkpt lat="42.50564" lon="0.15826">
        <ele>736.2</ele>
        <time>2016-07-23T08:57:20Z</time>
      </trkpt>
      <trkpt lat="42.50565" lon="0.15833">
        <ele>736.6</ele>
        <time>2016-07-23T08:57:22Z</time>
      </trkpt>
      <trkpt lat="42.50566" lon="0.1584">
        <ele>737</ele>
        <time>2016-07-23T08:57:24Z</time>
      </trkpt>
      <trkpt lat="42.50568" lon="0.15846">
        <ele>737.3</ele>
        <time>2016-07-23T08:57:26Z</time>
      </trkpt>
      <trkpt lat="42.50568" lon="0.1585">
        <ele>737.5</ele>
        <time>2016-07-23T08:57:27Z</time>
      </trkpt>
      <trkpt lat="42.50569" lon="0.15854">
        <ele>737.7</ele>
        <time>2016-07-23T08:57:28Z</time>
      </trkpt>
      <trkpt lat="42.5057" lon="0.15858">
        <ele>737.9</ele>
        <time>2016-07-23T08:57:29Z</time>
      </trkpt>
      <trkpt lat="42.5057" lon="0.15862">
        <ele>738.1</ele>
        <time>2016-07-23T08:57:30Z</time>
      </trkpt>
      <trkpt lat="42.50571" lon="0.15866">
        <ele>738.3</ele>
        <time>2016-07-23T08:57:31Z</time>
      </trkpt>
      <trkpt lat="42.50571" lon="0.1587">
        <ele>738.5</ele>
        <time>2016-07-23T08:57:32Z</time>
      </trkpt>
      <trkpt lat="42.50571" lon="0.15874">
        <ele>738.6</ele>
        <time>2016-07-23T08:57:33Z</time>
      </trkpt>
      <trkpt lat="42.50572" lon="0.15877">
        <ele>738.9</ele>
        <time>2016-07-23T08:57:34Z</time>
      </trkpt>
      <trkpt lat="42.50572" lon="0.15881">
        <ele>739.1</ele>
        <time>2016-07-23T08:57:35Z</time>
      </trkpt>
      <trkpt lat="42.50573" lon="0.15885">
        <ele>739.3</ele>
        <time>2016-07-23T08:57:36Z</time>
      </trkpt>
      <trkpt lat="42.50573" lon="0.15888">
        <ele>739.6</ele>
        <time>2016-07-23T08:57:37Z</time>
      </trkpt>
      <trkpt lat="42.50574" lon="0.15895">
        <ele>740</ele>
        <time>2016-07-23T08:57:39Z</time>
      </trkpt>
      <trkpt lat="42.50575" lon="0.15902">
        <ele>740.4</ele>
        <time>2016-07-23T08:57:41Z</time>
      </trkpt>
      <trkpt lat="42.50575" lon="0.1591">
        <ele>740.9</ele>
        <time>2016-07-23T08:57:43Z</time>
      </trkpt>
      <trkpt lat="42.50576" lon="0.15913">
        <ele>741.1</ele>
        <time>2016-07-23T08:57:44Z</time>
      </trkpt>
      <trkpt lat="42.50577" lon="0.1592">
        <ele>741.6</ele>
        <time>2016-07-23T08:57:46Z</time>
      </trkpt>
      <trkpt lat="42.50577" lon="0.15924">
        <ele>741.8</ele>
        <time>2016-07-23T08:57:47Z</time>
      </trkpt>
      <trkpt lat="42.50578" lon="0.15931">
        <ele>742.2</ele>
        <time>2016-07-23T08:57:49Z</time>
      </trkpt>
      <trkpt lat="42.50579" lon="0.15935">
        <ele>742.5</ele>
        <time>2016-07-23T08:57:50Z</time>
      </trkpt>
      <trkpt lat="42.5058" lon="0.15941">
        <ele>742.9</ele>
        <time>2016-07-23T08:57:52Z</time>
      </trkpt>
      <trkpt lat="42.50581" lon="0.15948">
        <ele>743.3</ele>
        <time>2016-07-23T08:57:54Z</time>
      </trkpt>
      <trkpt lat="42.50581" lon="0.15956">
        <ele>743.8</ele>
        <time>2016-07-23T08:57:56Z</time>
      </trkpt>
      <trkpt lat="42.50583" lon="0.15963">
        <ele>744.3</ele>
        <time>2016-07-23T08:57:58Z</time>
      </trkpt>
      <trkpt lat="42.50584" lon="0.1597">
        <ele>744.9</ele>
        <time>2016-07-23T08:58:00Z</time>
      </trkpt>
      <trkpt lat="42.50585" lon="0.15976">
        <ele>745.5</ele>
        <time>2016-07-23T08:58:02Z</time>
      </trkpt>
      <trkpt lat="42.50586" lon="0.15983">
        <ele>746.1</ele>
        <time>2016-07-23T08:58:04Z</time>
      </trkpt>
      <trkpt lat="42.50589" lon="0.15989">
        <ele>746.6</ele>
        <time>2016-07-23T08:58:06Z</time>
      </trkpt>
      <trkpt lat="42.50591" lon="0.15991">
        <ele>746.9</ele>
        <time>2016-07-23T08:58:07Z</time>
      </trkpt>
      <trkpt lat="42.50594" lon="0.15993">
        <ele>747.1</ele>
        <time>2016-07-23T08:58:08Z</time>
      </trkpt>
      <trkpt lat="42.50597" lon="0.15994">
        <ele>747.2</ele>
        <time>2016-07-23T08:58:09Z</time>
      </trkpt>
      <trkpt lat="42.50601" lon="0.15994">
        <ele>747.3</ele>
        <time>2016-07-23T08:58:10Z</time>
      </trkpt>
      <trkpt lat="42.50605" lon="0.15994">
        <ele>747.3</ele>
        <time>2016-07-23T08:58:11Z</time>
      </trkpt>
      <trkpt lat="42.50609" lon="0.15994">
        <ele>747.4</ele>
        <time>2016-07-23T08:58:12Z</time>
      </trkpt>
      <trkpt lat="42.50613" lon="0.15994">
        <ele>747.4</ele>
        <time>2016-07-23T08:58:13Z</time>
      </trkpt>
      <trkpt lat="42.50617" lon="0.15994">
        <ele>747.5</ele>
        <time>2016-07-23T08:58:14Z</time>
      </trkpt>
      <trkpt lat="42.50621" lon="0.15994">
        <ele>747.5</ele>
        <time>2016-07-23T08:58:15Z</time>
      </trkpt>
      <trkpt lat="42.50625" lon="0.15993">
        <ele>747.5</ele>
        <time>2016-07-23T08:58:16Z</time>
      </trkpt>
      <trkpt lat="42.50629" lon="0.15993">
        <ele>747.6</ele>
        <time>2016-07-23T08:58:17Z</time>
      </trkpt>
      <trkpt lat="42.50633" lon="0.15993">
        <ele>747.6</ele>
        <time>2016-07-23T08:58:18Z</time>
      </trkpt>
      <trkpt lat="42.50637" lon="0.15993">
        <ele>747.6</ele>
        <time>2016-07-23T08:58:19Z</time>
      </trkpt>
      <trkpt lat="42.50642" lon="0.15993">
        <ele>747.7</ele>
        <time>2016-07-23T08:58:20Z</time>
      </trkpt>
      <trkpt lat="42.50646" lon="0.15993">
        <ele>747.8</ele>
        <time>2016-07-23T08:58:21Z</time>
      </trkpt>
      <trkpt lat="42.5065" lon="0.15994">
        <ele>747.9</ele>
        <time>2016-07-23T08:58:22Z</time>
      </trkpt>
      <trkpt lat="42.50654" lon="0.15994">
        <ele>747.9</ele>
        <time>2016-07-23T08:58:23Z</time>
      </trkpt>
      <trkpt lat="42.50659" lon="0.15994">
        <ele>748</ele>
        <time>2016-07-23T08:58:24Z</time>
      </trkpt>
      <trkpt lat="42.50663" lon="0.15995">
        <ele>748.1</ele>
        <time>2016-07-23T08:58:25Z</time>
      </trkpt>
      <trkpt lat="42.50667" lon="0.15995">
        <ele>748.1</ele>
        <time>2016-07-23T08:58:26Z</time>
      </trkpt>
      <trkpt lat="42.50671" lon="0.15996">
        <ele>748.2</ele>
        <time>2016-07-23T08:58:27Z</time>
      </trkpt>
      <trkpt lat="42.50675" lon="0.15996">
        <ele>748.3</ele>
        <time>2016-07-23T08:58:28Z</time>
      </trkpt>
      <trkpt lat="42.5068" lon="0.15997">
        <ele>748.4</ele>
        <time>2016-07-23T08:58:29Z</time>
      </trkpt>
      <trkpt lat="42.50685" lon="0.15997">
        <ele>748.5</ele>
        <time>2016-07-23T08:58:30Z</time>
      </trkpt>
      <trkpt lat="42.50691" lon="0.15996">
        <ele>748.5</ele>
        <time>2016-07-23T08:58:31Z</time>
      </trkpt>
      <trkpt lat="42.50695" lon="0.15997">
        <ele>748.6</ele>
        <time>2016-07-23T08:58:32Z</time>
      </trkpt>
      <trkpt lat="42.507" lon="0.15997">
        <ele>748.7</ele>
        <time>2016-07-23T08:58:33Z</time>
      </trkpt>
      <trkpt lat="42.50704" lon="0.15997">
        <ele>748.7</ele>
        <time>2016-07-23T08:58:34Z</time>
      </trkpt>
      <trkpt lat="42.50708" lon="0.15997">
        <ele>748.8</ele>
        <time>2016-07-23T08:58:35Z</time>
      </trkpt>
      <trkpt lat="42.50713" lon="0.15997">
        <ele>748.9</ele>
        <time>2016-07-23T08:58:36Z</time>
      </trkpt>
      <trkpt lat="42.50717" lon="0.15997">
        <ele>749.1</ele>
        <time>2016-07-23T08:58:37Z</time>
      </trkpt>
      <trkpt lat="42.50722" lon="0.15998">
        <ele>749.3</ele>
        <time>2016-07-23T08:58:38Z</time>
      </trkpt>
      <trkpt lat="42.50726" lon="0.15998">
        <ele>749.5</ele>
        <time>2016-07-23T08:58:39Z</time>
      </trkpt>
      <trkpt lat="42.5073" lon="0.15999">
        <ele>749.7</ele>
        <time>2016-07-23T08:58:40Z</time>
      </trkpt>
      <trkpt lat="42.50734" lon="0.15999">
        <ele>749.9</ele>
        <time>2016-07-23T08:58:41Z</time>
      </trkpt>
      <trkpt lat="42.50739" lon="0.16">
        <ele>750.1</ele>
        <time>2016-07-23T08:58:42Z</time>
      </trkpt>
      <trkpt lat="42.50743" lon="0.16001">
        <ele>750.3</ele>
        <time>2016-07-23T08:58:43Z</time>
      </trkpt>
      <trkpt lat="42.50748" lon="0.16">
        <ele>750.5</ele>
        <time>2016-07-23T08:58:44Z</time>
      </trkpt>
      <trkpt lat="42.50753" lon="0.16001">
        <ele>750.7</ele>
        <time>2016-07-23T08:58:45Z</time>
      </trkpt>
      <trkpt lat="42.50757" lon="0.16002">
        <ele>750.9</ele>
        <time>2016-07-23T08:58:46Z</time>
      </trkpt>
      <trkpt lat="42.50761" lon="0.16003">
        <ele>751.1</ele>
        <time>2016-07-23T08:58:47Z</time>
      </trkpt>
      <trkpt lat="42.50766" lon="0.16005">
        <ele>751.4</ele>
        <time>2016-07-23T08:58:48Z</time>
      </trkpt>
      <trkpt lat="42.5077" lon="0.16005">
        <ele>751.6</ele>
        <time>2016-07-23T08:58:49Z</time>
      </trkpt>
      <trkpt lat="42.50775" lon="0.16006">
        <ele>751.8</ele>
        <time>2016-07-23T08:58:50Z</time>
      </trkpt>
      <trkpt lat="42.50779" lon="0.16007">
        <ele>752.1</ele>
        <time>2016-07-23T08:58:51Z</time>
      </trkpt>
      <trkpt lat="42.50783" lon="0.16008">
        <ele>752.3</ele>
        <time>2016-07-23T08:58:52Z</time>
      </trkpt>
      <trkpt lat="42.50788" lon="0.16009">
        <ele>752.5</ele>
        <time>2016-07-23T08:58:53Z</time>
      </trkpt>
      <trkpt lat="42.50792" lon="0.1601">
        <ele>752.7</ele>
        <time>2016-07-23T08:58:54Z</time>
      </trkpt>
      <trkpt lat="42.50796" lon="0.16011">
        <ele>752.7</ele>
        <time>2016-07-23T08:58:55Z</time>
      </trkpt>
      <trkpt lat="42.50801" lon="0.16011">
        <ele>752.7</ele>
        <time>2016-07-23T08:58:56Z</time>
      </trkpt>
      <trkpt lat="42.50805" lon="0.16012">
        <ele>752.7</ele>
        <time>2016-07-23T08:58:57Z</time>
      </trkpt>
      <trkpt lat="42.5081" lon="0.16013">
        <ele>752.7</ele>
        <time>2016-07-23T08:58:58Z</time>
      </trkpt>
      <trkpt lat="42.50814" lon="0.16015">
        <ele>752.8</ele>
        <time>2016-07-23T08:58:59Z</time>
      </trkpt>
      <trkpt lat="42.50819" lon="0.16017">
        <ele>752.9</ele>
        <time>2016-07-23T08:59:00Z</time>
      </trkpt>
      <trkpt lat="42.50823" lon="0.16019">
        <ele>753</ele>
        <time>2016-07-23T08:59:01Z</time>
      </trkpt>
      <trkpt lat="42.50827" lon="0.16022">
        <ele>753.2</ele>
        <time>2016-07-23T08:59:02Z</time>
      </trkpt>
      <trkpt lat="42.50831" lon="0.16025">
        <ele>753.4</ele>
        <time>2016-07-23T08:59:03Z</time>
      </trkpt>
      <trkpt lat="42.50834" lon="0.16029">
        <ele>753.6</ele>
        <time>2016-07-23T08:59:04Z</time>
      </trkpt>
      <trkpt lat="42.50838" lon="0.16033">
        <ele>753.8</ele>
        <time>2016-07-23T08:59:05Z</time>
      </trkpt>
      <trkpt lat="42.50841" lon="0.16036">
        <ele>754</ele>
        <time>2016-07-23T08:59:06Z</time>
      </trkpt>
      <trkpt lat="42.50845" lon="0.1604">
        <ele>754.2</ele>
        <time>2016-07-23T08:59:07Z</time>
      </trkpt>
      <trkpt lat="42.50848" lon="0.16043">
        <ele>754.4</ele>
        <time>2016-07-23T08:59:08Z</time>
      </trkpt>
      <trkpt lat="42.50851" lon="0.16046">
        <ele>754.4</ele>
        <time>2016-07-23T08:59:09Z</time>
      </trkpt>
      <trkpt lat="42.50854" lon="0.1605">
        <ele>754.4</ele>
        <time>2016-07-23T08:59:10Z</time>
      </trkpt>
      <trkpt lat="42.50857" lon="0.16053">
        <ele>754.4</ele>
        <time>2016-07-23T08:59:11Z</time>
      </trkpt>
      <trkpt lat="42.5086" lon="0.16055">
        <ele>754.4</ele>
        <time>2016-07-23T08:59:12Z</time>
      </trkpt>
      <trkpt lat="42.50863" lon="0.16058">
        <ele>754.4</ele>
        <time>2016-07-23T08:59:13Z</time>
      </trkpt>
      <trkpt lat="42.50866" lon="0.16061">
        <ele>754.4</ele>
        <time>2016-07-23T08:59:14Z</time>
      </trkpt>
      <trkpt lat="42.50869" lon="0.16064">
        <ele>754.4</ele>
        <time>2016-07-23T08:59:15Z</time>
      </trkpt>
      <trkpt lat="42.50872" lon="0.16067">
        <ele>754.4</ele>
        <time>2016-07-23T08:59:16Z</time>
      </trkpt>
      <trkpt lat="42.50875" lon="0.1607">
        <ele>754.3</ele>
        <time>2016-07-23T08:59:17Z</time>
      </trkpt>
      <trkpt lat="42.50878" lon="0.16073">
        <ele>754.3</ele>
        <time>2016-07-23T08:59:18Z</time>
      </trkpt>
      <trkpt lat="42.50881" lon="0.16076">
        <ele>754.2</ele>
        <time>2016-07-23T08:59:19Z</time>
      </trkpt>
      <trkpt lat="42.50884" lon="0.16079">
        <ele>754.2</ele>
        <time>2016-07-23T08:59:20Z</time>
      </trkpt>
      <trkpt lat="42.50887" lon="0.16082">
        <ele>754.1</ele>
        <time>2016-07-23T08:59:21Z</time>
      </trkpt>
      <trkpt lat="42.5089" lon="0.16085">
        <ele>754.1</ele>
        <time>2016-07-23T08:59:22Z</time>
      </trkpt>
      <trkpt lat="42.50893" lon="0.16087">
        <ele>754</ele>
        <time>2016-07-23T08:59:23Z</time>
      </trkpt>
      <trkpt lat="42.50896" lon="0.1609">
        <ele>754</ele>
        <time>2016-07-23T08:59:24Z</time>
      </trkpt>
      <trkpt lat="42.50899" lon="0.16093">
        <ele>753.9</ele>
        <time>2016-07-23T08:59:25Z</time>
      </trkpt>
      <trkpt lat="42.50902" lon="0.16095">
        <ele>753.9</ele>
        <time>2016-07-23T08:59:26Z</time>
      </trkpt>
      <trkpt lat="42.50905" lon="0.16098">
        <ele>753.8</ele>
        <time>2016-07-23T08:59:27Z</time>
      </trkpt>
      <trkpt lat="42.50909" lon="0.16101">
        <ele>753.8</ele>
        <time>2016-07-23T08:59:28Z</time>
      </trkpt>
      <trkpt lat="42.50912" lon="0.16105">
        <ele>753.8</ele>
        <time>2016-07-23T08:59:29Z</time>
      </trkpt>
      <trkpt lat="42.50915" lon="0.16108">
        <ele>753.7</ele>
        <time>2016-07-23T08:59:30Z</time>
      </trkpt>
      <trkpt lat="42.50918" lon="0.16111">
        <ele>753.7</ele>
        <time>2016-07-23T08:59:31Z</time>
      </trkpt>
      <trkpt lat="42.50922" lon="0.16113">
        <ele>753.7</ele>
        <time>2016-07-23T08:59:32Z</time>
      </trkpt>
      <trkpt lat="42.50926" lon="0.16115">
        <ele>753.6</ele>
        <time>2016-07-23T08:59:33Z</time>
      </trkpt>
      <trkpt lat="42.50932" lon="0.16112">
        <ele>753.4</ele>
        <time>2016-07-23T08:59:34Z</time>
      </trkpt>
      <trkpt lat="42.50936" lon="0.16113">
        <ele>753.3</ele>
        <time>2016-07-23T08:59:35Z</time>
      </trkpt>
      <trkpt lat="42.50941" lon="0.16113">
        <ele>753.2</ele>
        <time>2016-07-23T08:59:36Z</time>
      </trkpt>
      <trkpt lat="42.50946" lon="0.16113">
        <ele>753</ele>
        <time>2016-07-23T08:59:37Z</time>
      </trkpt>
      <trkpt lat="42.50951" lon="0.16113">
        <ele>752.9</ele>
        <time>2016-07-23T08:59:38Z</time>
      </trkpt>
      <trkpt lat="42.50956" lon="0.16112">
        <ele>752.8</ele>
        <time>2016-07-23T08:59:39Z</time>
      </trkpt>
      <trkpt lat="42.50961" lon="0.16112">
        <ele>752.6</ele>
        <time>2016-07-23T08:59:40Z</time>
      </trkpt>
      <trkpt lat="42.50967" lon="0.16111">
        <ele>752.3</ele>
        <time>2016-07-23T08:59:41Z</time>
      </trkpt>
      <trkpt lat="42.50971" lon="0.16113">
        <ele>752.2</ele>
        <time>2016-07-23T08:59:42Z</time>
      </trkpt>
      <trkpt lat="42.50976" lon="0.16116">
        <ele>752.1</ele>
        <time>2016-07-23T08:59:43Z</time>
      </trkpt>
      <trkpt lat="42.50979" lon="0.16119">
        <ele>752.1</ele>
        <time>2016-07-23T08:59:44Z</time>
      </trkpt>
      <trkpt lat="42.50983" lon="0.16123">
        <ele>752.1</ele>
        <time>2016-07-23T08:59:45Z</time>
      </trkpt>
      <trkpt lat="42.50987" lon="0.16128">
        <ele>752.2</ele>
        <time>2016-07-23T08:59:46Z</time>
      </trkpt>
      <trkpt lat="42.5099" lon="0.16132">
        <ele>752.3</ele>
        <time>2016-07-23T08:59:47Z</time>
      </trkpt>
      <trkpt lat="42.50994" lon="0.16136">
        <ele>752.5</ele>
        <time>2016-07-23T08:59:48Z</time>
      </trkpt>
      <trkpt lat="42.50998" lon="0.16141">
        <ele>752.7</ele>
        <time>2016-07-23T08:59:49Z</time>
      </trkpt>
      <trkpt lat="42.51002" lon="0.16146">
        <ele>753</ele>
        <time>2016-07-23T08:59:50Z</time>
      </trkpt>
      <trkpt lat="42.51005" lon="0.16152">
        <ele>753.3</ele>
        <time>2016-07-23T08:59:51Z</time>
      </trkpt>
      <trkpt lat="42.51009" lon="0.16157">
        <ele>753.6</ele>
        <time>2016-07-23T08:59:52Z</time>
      </trkpt>
      <trkpt lat="42.51012" lon="0.16162">
        <ele>753.8</ele>
        <time>2016-07-23T08:59:53Z</time>
      </trkpt>
      <trkpt lat="42.51016" lon="0.16167">
        <ele>754.1</ele>
        <time>2016-07-23T08:59:54Z</time>
      </trkpt>
      <trkpt lat="42.51019" lon="0.16171">
        <ele>754.4</ele>
        <time>2016-07-23T08:59:55Z</time>
      </trkpt>
      <trkpt lat="42.51023" lon="0.16176">
        <ele>754.6</ele>
        <time>2016-07-23T08:59:56Z</time>
      </trkpt>
      <trkpt lat="42.51027" lon="0.16179">
        <ele>754.8</ele>
        <time>2016-07-23T08:59:57Z</time>
      </trkpt>
      <trkpt lat="42.5103" lon="0.16183">
        <ele>755.1</ele>
        <time>2016-07-23T08:59:58Z</time>
      </trkpt>
      <trkpt lat="42.51033" lon="0.16187">
        <ele>755.3</ele>
        <time>2016-07-23T08:59:59Z</time>
      </trkpt>
      <trkpt lat="42.51036" lon="0.16191">
        <ele>755.6</ele>
        <time>2016-07-23T09:00:00Z</time>
      </trkpt>
      <trkpt lat="42.51039" lon="0.16195">
        <ele>755.9</ele>
        <time>2016-07-23T09:00:01Z</time>
      </trkpt>
      <trkpt lat="42.51042" lon="0.162">
        <ele>756.3</ele>
        <time>2016-07-23T09:00:02Z</time>
      </trkpt>
      <trkpt lat="42.51045" lon="0.16205">
        <ele>756.3</ele>
        <time>2016-07-23T09:00:03Z</time>
      </trkpt>
      <trkpt lat="42.51046" lon="0.16212">
        <ele>756.4</ele>
        <time>2016-07-23T09:00:04Z</time>
      </trkpt>
      <trkpt lat="42.51045" lon="0.16219">
        <ele>756.7</ele>
        <time>2016-07-23T09:00:05Z</time>
      </trkpt>
      <trkpt lat="42.51044" lon="0.16226">
        <ele>757</ele>
        <time>2016-07-23T09:00:06Z</time>
      </trkpt>
      <trkpt lat="42.51043" lon="0.16233">
        <ele>757.3</ele>
        <time>2016-07-23T09:00:07Z</time>
      </trkpt>
      <trkpt lat="42.51042" lon="0.16241">
        <ele>757.7</ele>
        <time>2016-07-23T09:00:08Z</time>
      </trkpt>
      <trkpt lat="42.51042" lon="0.16249">
        <ele>757.9</ele>
        <time>2016-07-23T09:00:09Z</time>
      </trkpt>
      <trkpt lat="42.51042" lon="0.16258">
        <ele>758.1</ele>
        <time>2016-07-23T09:00:10Z</time>
      </trkpt>
      <trkpt lat="42.51043" lon="0.16267">
        <ele>758.2</ele>
        <time>2016-07-23T09:00:11Z</time>
      </trkpt>
      <trkpt lat="42.51044" lon="0.16277">
        <ele>758.2</ele>
        <time>2016-07-23T09:00:12Z</time>
      </trkpt>
      <trkpt lat="42.51045" lon="0.16287">
        <ele>758.3</ele>
        <time>2016-07-23T09:00:13Z</time>
      </trkpt>
      <trkpt lat="42.51046" lon="0.16298">
        <ele>758.4</ele>
        <time>2016-07-23T09:00:14Z</time>
      </trkpt>
      <trkpt lat="42.51046" lon="0.16308">
        <ele>758.7</ele>
        <time>2016-07-23T09:00:15Z</time>
      </trkpt>
      <trkpt lat="42.51047" lon="0.16319">
        <ele>759</ele>
        <time>2016-07-23T09:00:16Z</time>
      </trkpt>
      <trkpt lat="42.51047" lon="0.16328">
        <ele>759.3</ele>
        <time>2016-07-23T09:00:17Z</time>
      </trkpt>
      <trkpt lat="42.51049" lon="0.16338">
        <ele>759.5</ele>
        <time>2016-07-23T09:00:18Z</time>
      </trkpt>
      <trkpt lat="42.51049" lon="0.16349">
        <ele>759.8</ele>
        <time>2016-07-23T09:00:19Z</time>
      </trkpt>
      <trkpt lat="42.5105" lon="0.16357">
        <ele>760</ele>
        <time>2016-07-23T09:00:20Z</time>
      </trkpt>
      <trkpt lat="42.51052" lon="0.16365">
        <ele>759.9</ele>
        <time>2016-07-23T09:00:21Z</time>
      </trkpt>
      <trkpt lat="42.51055" lon="0.16372">
        <ele>759.8</ele>
        <time>2016-07-23T09:00:22Z</time>
      </trkpt>
      <trkpt lat="42.51059" lon="0.16379">
        <ele>759.4</ele>
        <time>2016-07-23T09:00:23Z</time>
      </trkpt>
      <trkpt lat="42.51063" lon="0.16386">
        <ele>759.1</ele>
        <time>2016-07-23T09:00:24Z</time>
      </trkpt>
      <trkpt lat="42.51067" lon="0.16393">
        <ele>758.9</ele>
        <time>2016-07-23T09:00:25Z</time>
      </trkpt>
      <trkpt lat="42.51071" lon="0.164">
        <ele>758.6</ele>
        <time>2016-07-23T09:00:26Z</time>
      </trkpt>
      <trkpt lat="42.51075" lon="0.16406">
        <ele>758.3</ele>
        <time>2016-07-23T09:00:27Z</time>
      </trkpt>
      <trkpt lat="42.5108" lon="0.1641">
        <ele>757.7</ele>
        <time>2016-07-23T09:00:28Z</time>
      </trkpt>
      <trkpt lat="42.51087" lon="0.1641">
        <ele>756.7</ele>
        <time>2016-07-23T09:00:29Z</time>
      </trkpt>
      <trkpt lat="42.51093" lon="0.16407">
        <ele>755.5</ele>
        <time>2016-07-23T09:00:30Z</time>
      </trkpt>
      <trkpt lat="42.51099" lon="0.16401">
        <ele>754.4</ele>
        <time>2016-07-23T09:00:31Z</time>
      </trkpt>
      <trkpt lat="42.51105" lon="0.16395">
        <ele>753.3</ele>
        <time>2016-07-23T09:00:32Z</time>
      </trkpt>
      <trkpt lat="42.5111" lon="0.16388">
        <ele>752.1</ele>
        <time>2016-07-23T09:00:33Z</time>
      </trkpt>
      <trkpt lat="42.51115" lon="0.16381">
        <ele>750.9</ele>
        <time>2016-07-23T09:00:34Z</time>
      </trkpt>
      <trkpt lat="42.5112" lon="0.16375">
        <ele>749.8</ele>
        <time>2016-07-23T09:00:35Z</time>
      </trkpt>
      <trkpt lat="42.51125" lon="0.16368">
        <ele>748.5</ele>
        <time>2016-07-23T09:00:36Z</time>
      </trkpt>
      <trkpt lat="42.51129" lon="0.16361">
        <ele>747.8</ele>
        <time>2016-07-23T09:00:37Z</time>
      </trkpt>
      <trkpt lat="42.51133" lon="0.16353">
        <ele>747.1</ele>
        <time>2016-07-23T09:00:38Z</time>
      </trkpt>
      <trkpt lat="42.51137" lon="0.16347">
        <ele>746.5</ele>
        <time>2016-07-23T09:00:39Z</time>
      </trkpt>
      <trkpt lat="42.51142" lon="0.16342">
        <ele>745.9</ele>
        <time>2016-07-23T09:00:40Z</time>
      </trkpt>
      <trkpt lat="42.51147" lon="0.16336">
        <ele>745.2</ele>
        <time>2016-07-23T09:00:41Z</time>
      </trkpt>
      <trkpt lat="42.51151" lon="0.16331">
        <ele>744.6</ele>
        <time>2016-07-23T09:00:42Z</time>
      </trkpt>
      <trkpt lat="42.51156" lon="0.16326">
        <ele>743.9</ele>
        <time>2016-07-23T09:00:43Z</time>
      </trkpt>
      <trkpt lat="42.51161" lon="0.16322">
        <ele>743.3</ele>
        <time>2016-07-23T09:00:44Z</time>
      </trkpt>
      <trkpt lat="42.51166" lon="0.16319">
        <ele>742.6</ele>
        <time>2016-07-23T09:00:45Z</time>
      </trkpt>
      <trkpt lat="42.51171" lon="0.16316">
        <ele>742.1</ele>
        <time>2016-07-23T09:00:46Z</time>
      </trkpt>
      <trkpt lat="42.51176" lon="0.16313">
        <ele>741.5</ele>
        <time>2016-07-23T09:00:47Z</time>
      </trkpt>
      <trkpt lat="42.51181" lon="0.1631">
        <ele>740.9</ele>
        <time>2016-07-23T09:00:48Z</time>
      </trkpt>
      <trkpt lat="42.51185" lon="0.16307">
        <ele>740.4</ele>
        <time>2016-07-23T09:00:49Z</time>
      </trkpt>
      <trkpt lat="42.51189" lon="0.16305">
        <ele>739.9</ele>
        <time>2016-07-23T09:00:50Z</time>
      </trkpt>
      <trkpt lat="42.51193" lon="0.16303">
        <ele>739.3</ele>
        <time>2016-07-23T09:00:51Z</time>
      </trkpt>
      <trkpt lat="42.51196" lon="0.163">
        <ele>738.8</ele>
        <time>2016-07-23T09:00:52Z</time>
      </trkpt>
      <trkpt lat="42.512" lon="0.16299">
        <ele>738.4</ele>
        <time>2016-07-23T09:00:53Z</time>
      </trkpt>
      <trkpt lat="42.51204" lon="0.16298">
        <ele>738</ele>
        <time>2016-07-23T09:00:54Z</time>
      </trkpt>
      <trkpt lat="42.51207" lon="0.16297">
        <ele>737.7</ele>
        <time>2016-07-23T09:00:55Z</time>
      </trkpt>
      <trkpt lat="42.5121" lon="0.16296">
        <ele>737.7</ele>
        <time>2016-07-23T09:00:56Z</time>
      </trkpt>
      <trkpt lat="42.51213" lon="0.16294">
        <ele>737.7</ele>
        <time>2016-07-23T09:00:57Z</time>
      </trkpt>
      <trkpt lat="42.51218" lon="0.16291">
        <ele>737.8</ele>
        <time>2016-07-23T09:00:59Z</time>
      </trkpt>
      <trkpt lat="42.51222" lon="0.16289">
        <ele>738</ele>
        <time>2016-07-23T09:01:00Z</time>
      </trkpt>
      <trkpt lat="42.51227" lon="0.16287">
        <ele>738.3</ele>
        <time>2016-07-23T09:01:02Z</time>
      </trkpt>
      <trkpt lat="42.5123" lon="0.16287">
        <ele>738.5</ele>
        <time>2016-07-23T09:01:03Z</time>
      </trkpt>
      <trkpt lat="42.51233" lon="0.16287">
        <ele>738.9</ele>
        <time>2016-07-23T09:01:04Z</time>
      </trkpt>
      <trkpt lat="42.51237" lon="0.16289">
        <ele>739.4</ele>
        <time>2016-07-23T09:01:05Z</time>
      </trkpt>
      <trkpt lat="42.5124" lon="0.16291">
        <ele>740</ele>
        <time>2016-07-23T09:01:06Z</time>
      </trkpt>
      <trkpt lat="42.51244" lon="0.16294">
        <ele>740.7</ele>
        <time>2016-07-23T09:01:07Z</time>
      </trkpt>
      <trkpt lat="42.51247" lon="0.16297">
        <ele>741.4</ele>
        <time>2016-07-23T09:01:08Z</time>
      </trkpt>
      <trkpt lat="42.51251" lon="0.16301">
        <ele>742.1</ele>
        <time>2016-07-23T09:01:09Z</time>
      </trkpt>
      <trkpt lat="42.51255" lon="0.16304">
        <ele>742.8</ele>
        <time>2016-07-23T09:01:10Z</time>
      </trkpt>
      <trkpt lat="42.51258" lon="0.16307">
        <ele>743.5</ele>
        <time>2016-07-23T09:01:11Z</time>
      </trkpt>
      <trkpt lat="42.51262" lon="0.16311">
        <ele>744.2</ele>
        <time>2016-07-23T09:01:12Z</time>
      </trkpt>
      <trkpt lat="42.51266" lon="0.16314">
        <ele>745</ele>
        <time>2016-07-23T09:01:13Z</time>
      </trkpt>
      <trkpt lat="42.51269" lon="0.16317">
        <ele>745.6</ele>
        <time>2016-07-23T09:01:14Z</time>
      </trkpt>
      <trkpt lat="42.51273" lon="0.1632">
        <ele>746.4</ele>
        <time>2016-07-23T09:01:15Z</time>
      </trkpt>
      <trkpt lat="42.51276" lon="0.16324">
        <ele>747</ele>
        <time>2016-07-23T09:01:16Z</time>
      </trkpt>
      <trkpt lat="42.5128" lon="0.16327">
        <ele>747.7</ele>
        <time>2016-07-23T09:01:17Z</time>
      </trkpt>
      <trkpt lat="42.51284" lon="0.1633">
        <ele>748.4</ele>
        <time>2016-07-23T09:01:18Z</time>
      </trkpt>
      <trkpt lat="42.51287" lon="0.16333">
        <ele>749.1</ele>
        <time>2016-07-23T09:01:19Z</time>
      </trkpt>
      <trkpt lat="42.5129" lon="0.16338">
        <ele>749.9</ele>
        <time>2016-07-23T09:01:20Z</time>
      </trkpt>
      <trkpt lat="42.51292" lon="0.16344">
        <ele>750.4</ele>
        <time>2016-07-23T09:01:21Z</time>
      </trkpt>
      <trkpt lat="42.51295" lon="0.1635">
        <ele>750.4</ele>
        <time>2016-07-23T09:01:22Z</time>
      </trkpt>
      <trkpt lat="42.51297" lon="0.16356">
        <ele>750.7</ele>
        <time>2016-07-23T09:01:23Z</time>
      </trkpt>
      <trkpt lat="42.51297" lon="0.16362">
        <ele>751.2</ele>
        <time>2016-07-23T09:01:24Z</time>
      </trkpt>
      <trkpt lat="42.51297" lon="0.16368">
        <ele>751.8</ele>
        <time>2016-07-23T09:01:25Z</time>
      </trkpt>
      <trkpt lat="42.51297" lon="0.16374">
        <ele>752.4</ele>
        <time>2016-07-23T09:01:26Z</time>
      </trkpt>
      <trkpt lat="42.51297" lon="0.1638">
        <ele>753</ele>
        <time>2016-07-23T09:01:27Z</time>
      </trkpt>
      <trkpt lat="42.51297" lon="0.16387">
        <ele>753.5</ele>
        <time>2016-07-23T09:01:28Z</time>
      </trkpt>
      <trkpt lat="42.51296" lon="0.16394">
        <ele>754.2</ele>
        <time>2016-07-23T09:01:29Z</time>
      </trkpt>
      <trkpt lat="42.51296" lon="0.16403">
        <ele>754.8</ele>
        <time>2016-07-23T09:01:30Z</time>
      </trkpt>
      <trkpt lat="42.51296" lon="0.16411">
        <ele>755.5</ele>
        <time>2016-07-23T09:01:31Z</time>
      </trkpt>
      <trkpt lat="42.51295" lon="0.16419">
        <ele>756.2</ele>
        <time>2016-07-23T09:01:32Z</time>
      </trkpt>
      <trkpt lat="42.51294" lon="0.16427">
        <ele>757</ele>
        <time>2016-07-23T09:01:33Z</time>
      </trkpt>
      <trkpt lat="42.51294" lon="0.16436">
        <ele>757.7</ele>
        <time>2016-07-23T09:01:34Z</time>
      </trkpt>
      <trkpt lat="42.51293" lon="0.16444">
        <ele>758.7</ele>
        <time>2016-07-23T09:01:35Z</time>
      </trkpt>
      <trkpt lat="42.51292" lon="0.16454">
        <ele>759.6</ele>
        <time>2016-07-23T09:01:36Z</time>
      </trkpt>
      <trkpt lat="42.51289" lon="0.16463">
        <ele>759.7</ele>
        <time>2016-07-23T09:01:37Z</time>
      </trkpt>
      <trkpt lat="42.51288" lon="0.16473">
        <ele>759.2</ele>
        <time>2016-07-23T09:01:38Z</time>
      </trkpt>
      <trkpt lat="42.51284" lon="0.16482">
        <ele>758.9</ele>
        <time>2016-07-23T09:01:39Z</time>
      </trkpt>
      <trkpt lat="42.5128" lon="0.16491">
        <ele>758.7</ele>
        <time>2016-07-23T09:01:40Z</time>
      </trkpt>
      <trkpt lat="42.51275" lon="0.165">
        <ele>758.8</ele>
        <time>2016-07-23T09:01:41Z</time>
      </trkpt>
      <trkpt lat="42.5127" lon="0.1651">
        <ele>759</ele>
        <time>2016-07-23T09:01:42Z</time>
      </trkpt>
      <trkpt lat="42.51267" lon="0.16521">
        <ele>759.3</ele>
        <time>2016-07-23T09:01:43Z</time>
      </trkpt>
      <trkpt lat="42.51267" lon="0.16532">
        <ele>759.3</ele>
        <time>2016-07-23T09:01:44Z</time>
      </trkpt>
      <trkpt lat="42.51267" lon="0.16542">
        <ele>759.1</ele>
        <time>2016-07-23T09:01:45Z</time>
      </trkpt>
      <trkpt lat="42.51269" lon="0.16552">
        <ele>758.4</ele>
        <time>2016-07-23T09:01:46Z</time>
      </trkpt>
      <trkpt lat="42.51273" lon="0.1656">
        <ele>757.6</ele>
        <time>2016-07-23T09:01:47Z</time>
      </trkpt>
      <trkpt lat="42.51276" lon="0.16568">
        <ele>757</ele>
        <time>2016-07-23T09:01:48Z</time>
      </trkpt>
      <trkpt lat="42.51277" lon="0.16576">
        <ele>756.4</ele>
        <time>2016-07-23T09:01:49Z</time>
      </trkpt>
      <trkpt lat="42.51279" lon="0.16584">
        <ele>756</ele>
        <time>2016-07-23T09:01:50Z</time>
      </trkpt>
      <trkpt lat="42.5128" lon="0.16593">
        <ele>755.6</ele>
        <time>2016-07-23T09:01:51Z</time>
      </trkpt>
      <trkpt lat="42.51281" lon="0.16602">
        <ele>755.2</ele>
        <time>2016-07-23T09:01:52Z</time>
      </trkpt>
      <trkpt lat="42.51282" lon="0.1661">
        <ele>754.8</ele>
        <time>2016-07-23T09:01:53Z</time>
      </trkpt>
      <trkpt lat="42.51284" lon="0.16619">
        <ele>754.3</ele>
        <time>2016-07-23T09:01:54Z</time>
      </trkpt>
      <trkpt lat="42.51284" lon="0.16628">
        <ele>754</ele>
        <time>2016-07-23T09:01:55Z</time>
      </trkpt>
      <trkpt lat="42.51285" lon="0.16637">
        <ele>753.7</ele>
        <time>2016-07-23T09:01:56Z</time>
      </trkpt>
      <trkpt lat="42.51287" lon="0.16645">
        <ele>753.3</ele>
        <time>2016-07-23T09:01:57Z</time>
      </trkpt>
      <trkpt lat="42.51287" lon="0.16653">
        <ele>753</ele>
        <time>2016-07-23T09:01:58Z</time>
      </trkpt>
      <trkpt lat="42.51288" lon="0.1666">
        <ele>752.7</ele>
        <time>2016-07-23T09:01:59Z</time>
      </trkpt>
      <trkpt lat="42.51289" lon="0.16666">
        <ele>752.5</ele>
        <time>2016-07-23T09:02:00Z</time>
      </trkpt>
      <trkpt lat="42.5129" lon="0.16672">
        <ele>752.2</ele>
        <time>2016-07-23T09:02:01Z</time>
      </trkpt>
      <trkpt lat="42.5129" lon="0.16677">
        <ele>752</ele>
        <time>2016-07-23T09:02:02Z</time>
      </trkpt>
      <trkpt lat="42.51291" lon="0.16681">
        <ele>751.8</ele>
        <time>2016-07-23T09:02:03Z</time>
      </trkpt>
      <trkpt lat="42.51291" lon="0.16685">
        <ele>751.6</ele>
        <time>2016-07-23T09:02:04Z</time>
      </trkpt>
      <trkpt lat="42.51292" lon="0.16689">
        <ele>751.4</ele>
        <time>2016-07-23T09:02:05Z</time>
      </trkpt>
      <trkpt lat="42.51292" lon="0.16693">
        <ele>751.3</ele>
        <time>2016-07-23T09:02:06Z</time>
      </trkpt>
      <trkpt lat="42.51293" lon="0.16697">
        <ele>751.2</ele>
        <time>2016-07-23T09:02:07Z</time>
      </trkpt>
      <trkpt lat="42.51293" lon="0.16701">
        <ele>751.1</ele>
        <time>2016-07-23T09:02:08Z</time>
      </trkpt>
      <trkpt lat="42.51294" lon="0.16707">
        <ele>750.9</ele>
        <time>2016-07-23T09:02:10Z</time>
      </trkpt>
      <trkpt lat="42.51295" lon="0.16714">
        <ele>751</ele>
        <time>2016-07-23T09:02:12Z</time>
      </trkpt>
      <trkpt lat="42.51295" lon="0.16721">
        <ele>751.3</ele>
        <time>2016-07-23T09:02:14Z</time>
      </trkpt>
      <trkpt lat="42.51295" lon="0.16728">
        <ele>751.5</ele>
        <time>2016-07-23T09:02:16Z</time>
      </trkpt>
      <trkpt lat="42.51295" lon="0.16735">
        <ele>751.8</ele>
        <time>2016-07-23T09:02:18Z</time>
      </trkpt>
      <trkpt lat="42.51295" lon="0.16742">
        <ele>752.1</ele>
        <time>2016-07-23T09:02:20Z</time>
      </trkpt>
      <trkpt lat="42.51296" lon="0.16746">
        <ele>752.2</ele>
        <time>2016-07-23T09:02:21Z</time>
      </trkpt>
      <trkpt lat="42.51296" lon="0.16753">
        <ele>752.5</ele>
        <time>2016-07-23T09:02:23Z</time>
      </trkpt>
      <trkpt lat="42.51297" lon="0.1676">
        <ele>752.7</ele>
        <time>2016-07-23T09:02:25Z</time>
      </trkpt>
      <trkpt lat="42.51297" lon="0.16763">
        <ele>752.9</ele>
        <time>2016-07-23T09:02:26Z</time>
      </trkpt>
      <trkpt lat="42.51297" lon="0.16767">
        <ele>753</ele>
        <time>2016-07-23T09:02:27Z</time>
      </trkpt>
      <trkpt lat="42.51297" lon="0.16771">
        <ele>753.2</ele>
        <time>2016-07-23T09:02:28Z</time>
      </trkpt>
      <trkpt lat="42.51297" lon="0.16775">
        <ele>753.3</ele>
        <time>2016-07-23T09:02:29Z</time>
      </trkpt>
      <trkpt lat="42.51297" lon="0.16779">
        <ele>753.5</ele>
        <time>2016-07-23T09:02:30Z</time>
      </trkpt>
      <trkpt lat="42.51297" lon="0.16783">
        <ele>753.7</ele>
        <time>2016-07-23T09:02:31Z</time>
      </trkpt>
      <trkpt lat="42.51296" lon="0.16788">
        <ele>753.8</ele>
        <time>2016-07-23T09:02:32Z</time>
      </trkpt>
      <trkpt lat="42.51296" lon="0.16792">
        <ele>754</ele>
        <time>2016-07-23T09:02:33Z</time>
      </trkpt>
      <trkpt lat="42.51296" lon="0.16797">
        <ele>754.2</ele>
        <time>2016-07-23T09:02:34Z</time>
      </trkpt>
      <trkpt lat="42.51295" lon="0.16802">
        <ele>754.4</ele>
        <time>2016-07-23T09:02:35Z</time>
      </trkpt>
      <trkpt lat="42.51295" lon="0.16807">
        <ele>754.6</ele>
        <time>2016-07-23T09:02:36Z</time>
      </trkpt>
      <trkpt lat="42.51294" lon="0.16813">
        <ele>754.8</ele>
        <time>2016-07-23T09:02:37Z</time>
      </trkpt>
      <trkpt lat="42.51292" lon="0.16818">
        <ele>755</ele>
        <time>2016-07-23T09:02:38Z</time>
      </trkpt>
      <trkpt lat="42.51291" lon="0.16824">
        <ele>755.3</ele>
        <time>2016-07-23T09:02:39Z</time>
      </trkpt>
      <trkpt lat="42.51288" lon="0.1683">
        <ele>755.7</ele>
        <time>2016-07-23T09:02:40Z</time>
      </trkpt>
      <trkpt lat="42.51286" lon="0.16836">
        <ele>756.1</ele>
        <time>2016-07-23T09:02:41Z</time>
      </trkpt>
      <trkpt lat="42.51283" lon="0.16842">
        <ele>756.6</ele>
        <time>2016-07-23T09:02:42Z</time>
      </trkpt>
      <trkpt lat="42.51281" lon="0.16848">
        <ele>756.9</ele>
        <time>2016-07-23T09:02:43Z</time>
      </trkpt>
      <trkpt lat="42.5128" lon="0.16854">
        <ele>757.2</ele>
        <time>2016-07-23T09:02:44Z</time>
      </trkpt>
      <trkpt lat="42.5128" lon="0.1686">
        <ele>757.4</ele>
        <time>2016-07-23T09:02:45Z</time>
      </trkpt>
      <trkpt lat="42.51281" lon="0.16866">
        <ele>757.5</ele>
        <time>2016-07-23T09:02:46Z</time>
      </trkpt>
      <trkpt lat="42.51283" lon="0.16871">
        <ele>757.5</ele>
        <time>2016-07-23T09:02:47Z</time>
      </trkpt>
      <trkpt lat="42.51285" lon="0.16875">
        <ele>757.5</ele>
        <time>2016-07-23T09:02:48Z</time>
      </trkpt>
      <trkpt lat="42.51287" lon="0.16879">
        <ele>757.6</ele>
        <time>2016-07-23T09:02:49Z</time>
      </trkpt>
      <trkpt lat="42.51289" lon="0.16883">
        <ele>757.8</ele>
        <time>2016-07-23T09:02:50Z</time>
      </trkpt>
      <trkpt lat="42.51291" lon="0.16887">
        <ele>757.9</ele>
        <time>2016-07-23T09:02:51Z</time>
      </trkpt>
      <trkpt lat="42.51293" lon="0.1689">
        <ele>758.1</ele>
        <time>2016-07-23T09:02:52Z</time>
      </trkpt>
      <trkpt lat="42.51295" lon="0.16894">
        <ele>758.3</ele>
        <time>2016-07-23T09:02:53Z</time>
      </trkpt>
      <trkpt lat="42.51297" lon="0.16898">
        <ele>758.5</ele>
        <time>2016-07-23T09:02:54Z</time>
      </trkpt>
      <trkpt lat="42.51299" lon="0.16902">
        <ele>758.7</ele>
        <time>2016-07-23T09:02:55Z</time>
      </trkpt>
      <trkpt lat="42.513" lon="0.16906">
        <ele>758.9</ele>
        <time>2016-07-23T09:02:56Z</time>
      </trkpt>
      <trkpt lat="42.51302" lon="0.16909">
        <ele>759.1</ele>
        <time>2016-07-23T09:02:57Z</time>
      </trkpt>
      <trkpt lat="42.51303" lon="0.16913">
        <ele>759.4</ele>
        <time>2016-07-23T09:02:58Z</time>
      </trkpt>
      <trkpt lat="42.51304" lon="0.16917">
        <ele>759.6</ele>
        <time>2016-07-23T09:02:59Z</time>
      </trkpt>
      <trkpt lat="42.51305" lon="0.16921">
        <ele>759.8</ele>
        <time>2016-07-23T09:03:00Z</time>
      </trkpt>
      <trkpt lat="42.51306" lon="0.16924">
        <ele>760</ele>
        <time>2016-07-23T09:03:01Z</time>
      </trkpt>
      <trkpt lat="42.51307" lon="0.16928">
        <ele>760.2</ele>
        <time>2016-07-23T09:03:02Z</time>
      </trkpt>
      <trkpt lat="42.51308" lon="0.16932">
        <ele>760.3</ele>
        <time>2016-07-23T09:03:03Z</time>
      </trkpt>
      <trkpt lat="42.51309" lon="0.16935">
        <ele>760.5</ele>
        <time>2016-07-23T09:03:04Z</time>
      </trkpt>
      <trkpt lat="42.5131" lon="0.16939">
        <ele>760.7</ele>
        <time>2016-07-23T09:03:05Z</time>
      </trkpt>
      <trkpt lat="42.5131" lon="0.16943">
        <ele>761</ele>
        <time>2016-07-23T09:03:06Z</time>
      </trkpt>
      <trkpt lat="42.5131" lon="0.16947">
        <ele>761.2</ele>
        <time>2016-07-23T09:03:07Z</time>
      </trkpt>
      <trkpt lat="42.5131" lon="0.16951">
        <ele>761.4</ele>
        <time>2016-07-23T09:03:08Z</time>
      </trkpt>
      <trkpt lat="42.5131" lon="0.16955">
        <ele>761.7</ele>
        <time>2016-07-23T09:03:09Z</time>
      </trkpt>
      <trkpt lat="42.5131" lon="0.16959">
        <ele>762</ele>
        <time>2016-07-23T09:03:10Z</time>
      </trkpt>
      <trkpt lat="42.5131" lon="0.16964">
        <ele>762.5</ele>
        <time>2016-07-23T09:03:11Z</time>
      </trkpt>
      <trkpt lat="42.51309" lon="0.16968">
        <ele>762.9</ele>
        <time>2016-07-23T09:03:12Z</time>
      </trkpt>
      <trkpt lat="42.51309" lon="0.16972">
        <ele>763.4</ele>
        <time>2016-07-23T09:03:13Z</time>
      </trkpt>
      <trkpt lat="42.51308" lon="0.16977">
        <ele>763.8</ele>
        <time>2016-07-23T09:03:14Z</time>
      </trkpt>
      <trkpt lat="42.51308" lon="0.16981">
        <ele>764.3</ele>
        <time>2016-07-23T09:03:15Z</time>
      </trkpt>
      <trkpt lat="42.51307" lon="0.16985">
        <ele>764.7</ele>
        <time>2016-07-23T09:03:16Z</time>
      </trkpt>
      <trkpt lat="42.51307" lon="0.1699">
        <ele>765.2</ele>
        <time>2016-07-23T09:03:17Z</time>
      </trkpt>
      <trkpt lat="42.51307" lon="0.16994">
        <ele>765.6</ele>
        <time>2016-07-23T09:03:18Z</time>
      </trkpt>
      <trkpt lat="42.51307" lon="0.16998">
        <ele>766</ele>
        <time>2016-07-23T09:03:19Z</time>
      </trkpt>
      <trkpt lat="42.51307" lon="0.17002">
        <ele>766.4</ele>
        <time>2016-07-23T09:03:20Z</time>
      </trkpt>
      <trkpt lat="42.51306" lon="0.17006">
        <ele>766.9</ele>
        <time>2016-07-23T09:03:21Z</time>
      </trkpt>
      <trkpt lat="42.51306" lon="0.1701">
        <ele>767.3</ele>
        <time>2016-07-23T09:03:22Z</time>
      </trkpt>
      <trkpt lat="42.51305" lon="0.17014">
        <ele>767.7</ele>
        <time>2016-07-23T09:03:23Z</time>
      </trkpt>
      <trkpt lat="42.51305" lon="0.17018">
        <ele>768.1</ele>
        <time>2016-07-23T09:03:24Z</time>
      </trkpt>
      <trkpt lat="42.51305" lon="0.17022">
        <ele>768.6</ele>
        <time>2016-07-23T09:03:25Z</time>
      </trkpt>
      <trkpt lat="42.51305" lon="0.17026">
        <ele>769</ele>
        <time>2016-07-23T09:03:26Z</time>
      </trkpt>
      <trkpt lat="42.51305" lon="0.17031">
        <ele>769.5</ele>
        <time>2016-07-23T09:03:27Z</time>
      </trkpt>
      <trkpt lat="42.51306" lon="0.17036">
        <ele>770</ele>
        <time>2016-07-23T09:03:28Z</time>
      </trkpt>
      <trkpt lat="42.51306" lon="0.17041">
        <ele>770.4</ele>
        <time>2016-07-23T09:03:29Z</time>
      </trkpt>
      <trkpt lat="42.51306" lon="0.17047">
        <ele>770.7</ele>
        <time>2016-07-23T09:03:30Z</time>
      </trkpt>
      <trkpt lat="42.51307" lon="0.17052">
        <ele>771</ele>
        <time>2016-07-23T09:03:31Z</time>
      </trkpt>
      <trkpt lat="42.51308" lon="0.17058">
        <ele>771.2</ele>
        <time>2016-07-23T09:03:32Z</time>
      </trkpt>
      <trkpt lat="42.51309" lon="0.17064">
        <ele>771.4</ele>
        <time>2016-07-23T09:03:33Z</time>
      </trkpt>
      <trkpt lat="42.5131" lon="0.1707">
        <ele>771.7</ele>
        <time>2016-07-23T09:03:34Z</time>
      </trkpt>
      <trkpt lat="42.51311" lon="0.17076">
        <ele>771.8</ele>
        <time>2016-07-23T09:03:35Z</time>
      </trkpt>
      <trkpt lat="42.51313" lon="0.17082">
        <ele>771.8</ele>
        <time>2016-07-23T09:03:36Z</time>
      </trkpt>
      <trkpt lat="42.51316" lon="0.17088">
        <ele>771.8</ele>
        <time>2016-07-23T09:03:37Z</time>
      </trkpt>
      <trkpt lat="42.51319" lon="0.17093">
        <ele>771.5</ele>
        <time>2016-07-23T09:03:38Z</time>
      </trkpt>
      <trkpt lat="42.51323" lon="0.17097">
        <ele>771.1</ele>
        <time>2016-07-23T09:03:39Z</time>
      </trkpt>
      <trkpt lat="42.51327" lon="0.171">
        <ele>770.6</ele>
        <time>2016-07-23T09:03:40Z</time>
      </trkpt>
      <trkpt lat="42.51332" lon="0.17102">
        <ele>769.8</ele>
        <time>2016-07-23T09:03:41Z</time>
      </trkpt>
      <trkpt lat="42.51338" lon="0.17103">
        <ele>769</ele>
        <time>2016-07-23T09:03:42Z</time>
      </trkpt>
      <trkpt lat="42.51343" lon="0.17102">
        <ele>768.1</ele>
        <time>2016-07-23T09:03:43Z</time>
      </trkpt>
      <trkpt lat="42.51348" lon="0.17099">
        <ele>767.3</ele>
        <time>2016-07-23T09:03:44Z</time>
      </trkpt>
      <trkpt lat="42.51352" lon="0.17096">
        <ele>766.5</ele>
        <time>2016-07-23T09:03:45Z</time>
      </trkpt>
      <trkpt lat="42.51356" lon="0.17091">
        <ele>765.9</ele>
        <time>2016-07-23T09:03:46Z</time>
      </trkpt>
      <trkpt lat="42.51358" lon="0.17087">
        <ele>765.4</ele>
        <time>2016-07-23T09:03:47Z</time>
      </trkpt>
      <trkpt lat="42.51361" lon="0.17082">
        <ele>765.1</ele>
        <time>2016-07-23T09:03:48Z</time>
      </trkpt>
      <trkpt lat="42.51362" lon="0.17077">
        <ele>764.8</ele>
        <time>2016-07-23T09:03:49Z</time>
      </trkpt>
      <trkpt lat="42.51364" lon="0.17072">
        <ele>764.5</ele>
        <time>2016-07-23T09:03:50Z</time>
      </trkpt>
      <trkpt lat="42.51365" lon="0.17068">
        <ele>764.3</ele>
        <time>2016-07-23T09:03:51Z</time>
      </trkpt>
      <trkpt lat="42.51366" lon="0.17063">
        <ele>764.1</ele>
        <time>2016-07-23T09:03:52Z</time>
      </trkpt>
      <trkpt lat="42.51367" lon="0.17058">
        <ele>764</ele>
        <time>2016-07-23T09:03:53Z</time>
      </trkpt>
      <trkpt lat="42.51368" lon="0.17054">
        <ele>763.8</ele>
        <time>2016-07-23T09:03:54Z</time>
      </trkpt>
      <trkpt lat="42.51369" lon="0.17049">
        <ele>763.7</ele>
        <time>2016-07-23T09:03:55Z</time>
      </trkpt>
      <trkpt lat="42.5137" lon="0.17045">
        <ele>763.5</ele>
        <time>2016-07-23T09:03:56Z</time>
      </trkpt>
      <trkpt lat="42.51371" lon="0.17041">
        <ele>763.4</ele>
        <time>2016-07-23T09:03:57Z</time>
      </trkpt>
      <trkpt lat="42.51372" lon="0.17037">
        <ele>763</ele>
        <time>2016-07-23T09:03:58Z</time>
      </trkpt>
      <trkpt lat="42.51373" lon="0.17033">
        <ele>762.7</ele>
        <time>2016-07-23T09:03:59Z</time>
      </trkpt>
      <trkpt lat="42.51373" lon="0.17029">
        <ele>762.4</ele>
        <time>2016-07-23T09:04:00Z</time>
      </trkpt>
      <trkpt lat="42.51373" lon="0.17025">
        <ele>762.2</ele>
        <time>2016-07-23T09:04:01Z</time>
      </trkpt>
      <trkpt lat="42.51373" lon="0.17021">
        <ele>761.9</ele>
        <time>2016-07-23T09:04:02Z</time>
      </trkpt>
      <trkpt lat="42.51373" lon="0.17017">
        <ele>761.7</ele>
        <time>2016-07-23T09:04:03Z</time>
      </trkpt>
      <trkpt lat="42.51373" lon="0.17013">
        <ele>761.5</ele>
        <time>2016-07-23T09:04:04Z</time>
      </trkpt>
      <trkpt lat="42.51373" lon="0.17009">
        <ele>761.2</ele>
        <time>2016-07-23T09:04:05Z</time>
      </trkpt>
      <trkpt lat="42.51373" lon="0.17005">
        <ele>761</ele>
        <time>2016-07-23T09:04:06Z</time>
      </trkpt>
      <trkpt lat="42.51373" lon="0.17002">
        <ele>760.7</ele>
        <time>2016-07-23T09:04:07Z</time>
      </trkpt>
      <trkpt lat="42.51373" lon="0.16998">
        <ele>760.5</ele>
        <time>2016-07-23T09:04:08Z</time>
      </trkpt>
      <trkpt lat="42.51373" lon="0.16994">
        <ele>760.3</ele>
        <time>2016-07-23T09:04:09Z</time>
      </trkpt>
      <trkpt lat="42.51373" lon="0.1699">
        <ele>760</ele>
        <time>2016-07-23T09:04:10Z</time>
      </trkpt>
      <trkpt lat="42.51374" lon="0.16983">
        <ele>759.6</ele>
        <time>2016-07-23T09:04:12Z</time>
      </trkpt>
      <trkpt lat="42.51375" lon="0.16976">
        <ele>759</ele>
        <time>2016-07-23T09:04:14Z</time>
      </trkpt>
      <trkpt lat="42.51376" lon="0.16972">
        <ele>759</ele>
        <time>2016-07-23T09:04:15Z</time>
      </trkpt>
      <trkpt lat="42.51377" lon="0.16965">
        <ele>758.9</ele>
        <time>2016-07-23T09:04:17Z</time>
      </trkpt>
      <trkpt lat="42.51378" lon="0.16962">
        <ele>758.8</ele>
        <time>2016-07-23T09:04:18Z</time>
      </trkpt>
      <trkpt lat="42.51379" lon="0.16955">
        <ele>758.9</ele>
        <time>2016-07-23T09:04:20Z</time>
      </trkpt>
      <trkpt lat="42.5138" lon="0.16948">
        <ele>759.1</ele>
        <time>2016-07-23T09:04:22Z</time>
      </trkpt>
      <trkpt lat="42.51382" lon="0.16942">
        <ele>759.3</ele>
        <time>2016-07-23T09:04:24Z</time>
      </trkpt>
      <trkpt lat="42.51384" lon="0.16935">
        <ele>759.5</ele>
        <time>2016-07-23T09:04:26Z</time>
      </trkpt>
      <trkpt lat="42.51386" lon="0.16929">
        <ele>759.8</ele>
        <time>2016-07-23T09:04:28Z</time>
      </trkpt>
      <trkpt lat="42.51387" lon="0.16923">
        <ele>760</ele>
        <time>2016-07-23T09:04:30Z</time>
      </trkpt>
      <trkpt lat="42.51389" lon="0.16917">
        <ele>760.3</ele>
        <time>2016-07-23T09:04:32Z</time>
      </trkpt>
      <trkpt lat="42.5139" lon="0.16911">
        <ele>760.5</ele>
        <time>2016-07-23T09:04:34Z</time>
      </trkpt>
      <trkpt lat="42.51392" lon="0.16905">
        <ele>760.7</ele>
        <time>2016-07-23T09:04:36Z</time>
      </trkpt>
      <trkpt lat="42.51394" lon="0.169">
        <ele>761.1</ele>
        <time>2016-07-23T09:04:38Z</time>
      </trkpt>
      <trkpt lat="42.51397" lon="0.16897">
        <ele>761.8</ele>
        <time>2016-07-23T09:04:40Z</time>
      </trkpt>
      <trkpt lat="42.51402" lon="0.16895">
        <ele>762.7</ele>
        <time>2016-07-23T09:04:42Z</time>
      </trkpt>
      <trkpt lat="42.51406" lon="0.16894">
        <ele>763.7</ele>
        <time>2016-07-23T09:04:44Z</time>
      </trkpt>
      <trkpt lat="42.5141" lon="0.16894">
        <ele>764.7</ele>
        <time>2016-07-23T09:04:46Z</time>
      </trkpt>
      <trkpt lat="42.51415" lon="0.16894">
        <ele>765.8</ele>
        <time>2016-07-23T09:04:48Z</time>
      </trkpt>
      <trkpt lat="42.51419" lon="0.16894">
        <ele>766.8</ele>
        <time>2016-07-23T09:04:50Z</time>
      </trkpt>
      <trkpt lat="42.51424" lon="0.16894">
        <ele>767.8</ele>
        <time>2016-07-23T09:04:52Z</time>
      </trkpt>
      <trkpt lat="42.51428" lon="0.16892">
        <ele>768.7</ele>
        <time>2016-07-23T09:04:54Z</time>
      </trkpt>
      <trkpt lat="42.51432" lon="0.1689">
        <ele>769.6</ele>
        <time>2016-07-23T09:04:56Z</time>
      </trkpt>
      <trkpt lat="42.51436" lon="0.16888">
        <ele>770.4</ele>
        <time>2016-07-23T09:04:58Z</time>
      </trkpt>
      <trkpt lat="42.5144" lon="0.16887">
        <ele>771.2</ele>
        <time>2016-07-23T09:05:00Z</time>
      </trkpt>
      <trkpt lat="42.51443" lon="0.16885">
        <ele>772</ele>
        <time>2016-07-23T09:05:02Z</time>
      </trkpt>
      <trkpt lat="42.51447" lon="0.16884">
        <ele>772.9</ele>
        <time>2016-07-23T09:05:04Z</time>
      </trkpt>
      <trkpt lat="42.51451" lon="0.16883">
        <ele>773.7</ele>
        <time>2016-07-23T09:05:06Z</time>
      </trkpt>
      <trkpt lat="42.51455" lon="0.16883">
        <ele>774.7</ele>
        <time>2016-07-23T09:05:08Z</time>
      </trkpt>
      <trkpt lat="42.5146" lon="0.16884">
        <ele>775.5</ele>
        <time>2016-07-23T09:05:10Z</time>
      </trkpt>
      <trkpt lat="42.51464" lon="0.16887">
        <ele>775.8</ele>
        <time>2016-07-23T09:05:12Z</time>
      </trkpt>
      <trkpt lat="42.51468" lon="0.16891">
        <ele>776.2</ele>
        <time>2016-07-23T09:05:14Z</time>
      </trkpt>
      <trkpt lat="42.51471" lon="0.16896">
        <ele>776.7</ele>
        <time>2016-07-23T09:05:16Z</time>
      </trkpt>
      <trkpt lat="42.51473" lon="0.169">
        <ele>776.9</ele>
        <time>2016-07-23T09:05:17Z</time>
      </trkpt>
      <trkpt lat="42.51474" lon="0.16903">
        <ele>777.2</ele>
        <time>2016-07-23T09:05:18Z</time>
      </trkpt>
      <trkpt lat="42.51475" lon="0.16907">
        <ele>777.4</ele>
        <time>2016-07-23T09:05:19Z</time>
      </trkpt>
      <trkpt lat="42.51475" lon="0.16911">
        <ele>777.6</ele>
        <time>2016-07-23T09:05:20Z</time>
      </trkpt>
      <trkpt lat="42.51476" lon="0.16915">
        <ele>777.8</ele>
        <time>2016-07-23T09:05:21Z</time>
      </trkpt>
      <trkpt lat="42.51477" lon="0.16918">
        <ele>778.1</ele>
        <time>2016-07-23T09:05:22Z</time>
      </trkpt>
      <trkpt lat="42.51477" lon="0.16922">
        <ele>778.3</ele>
        <time>2016-07-23T09:05:23Z</time>
      </trkpt>
      <trkpt lat="42.51479" lon="0.16929">
        <ele>778.7</ele>
        <time>2016-07-23T09:05:25Z</time>
      </trkpt>
      <trkpt lat="42.51481" lon="0.16936">
        <ele>779.2</ele>
        <time>2016-07-23T09:05:27Z</time>
      </trkpt>
      <trkpt lat="42.51481" lon="0.16939">
        <ele>779.4</ele>
        <time>2016-07-23T09:05:28Z</time>
      </trkpt>
      <trkpt lat="42.51482" lon="0.16943">
        <ele>779.6</ele>
        <time>2016-07-23T09:05:29Z</time>
      </trkpt>
      <trkpt lat="42.51484" lon="0.1695">
        <ele>780.1</ele>
        <time>2016-07-23T09:05:31Z</time>
      </trkpt>
      <trkpt lat="42.51484" lon="0.16954">
        <ele>780.3</ele>
        <time>2016-07-23T09:05:32Z</time>
      </trkpt>
      <trkpt lat="42.51485" lon="0.16957">
        <ele>780.6</ele>
        <time>2016-07-23T09:05:33Z</time>
      </trkpt>
      <trkpt lat="42.51486" lon="0.16962">
        <ele>780.7</ele>
        <time>2016-07-23T09:05:34Z</time>
      </trkpt>
      <trkpt lat="42.51487" lon="0.16966">
        <ele>780.8</ele>
        <time>2016-07-23T09:05:35Z</time>
      </trkpt>
      <trkpt lat="42.51487" lon="0.1697">
        <ele>780.9</ele>
        <time>2016-07-23T09:05:36Z</time>
      </trkpt>
      <trkpt lat="42.51487" lon="0.16974">
        <ele>781</ele>
        <time>2016-07-23T09:05:37Z</time>
      </trkpt>
      <trkpt lat="42.51487" lon="0.16978">
        <ele>781.1</ele>
        <time>2016-07-23T09:05:38Z</time>
      </trkpt>
      <trkpt lat="42.51487" lon="0.16982">
        <ele>781.1</ele>
        <time>2016-07-23T09:05:39Z</time>
      </trkpt>
      <trkpt lat="42.51486" lon="0.16987">
        <ele>781.1</ele>
        <time>2016-07-23T09:05:40Z</time>
      </trkpt>
      <trkpt lat="42.51486" lon="0.16991">
        <ele>781.2</ele>
        <time>2016-07-23T09:05:41Z</time>
      </trkpt>
      <trkpt lat="42.51486" lon="0.16995">
        <ele>781.3</ele>
        <time>2016-07-23T09:05:42Z</time>
      </trkpt>
      <trkpt lat="42.51486" lon="0.16999">
        <ele>781.3</ele>
        <time>2016-07-23T09:05:43Z</time>
      </trkpt>
      <trkpt lat="42.51487" lon="0.17003">
        <ele>781.4</ele>
        <time>2016-07-23T09:05:44Z</time>
      </trkpt>
      <trkpt lat="42.51487" lon="0.17008">
        <ele>781.5</ele>
        <time>2016-07-23T09:05:45Z</time>
      </trkpt>
      <trkpt lat="42.51487" lon="0.17012">
        <ele>781.6</ele>
        <time>2016-07-23T09:05:46Z</time>
      </trkpt>
      <trkpt lat="42.51488" lon="0.17016">
        <ele>781.8</ele>
        <time>2016-07-23T09:05:47Z</time>
      </trkpt>
      <trkpt lat="42.51489" lon="0.17021">
        <ele>782</ele>
        <time>2016-07-23T09:05:48Z</time>
      </trkpt>
      <trkpt lat="42.5149" lon="0.17025">
        <ele>782.2</ele>
        <time>2016-07-23T09:05:49Z</time>
      </trkpt>
      <trkpt lat="42.51491" lon="0.1703">
        <ele>782.5</ele>
        <time>2016-07-23T09:05:50Z</time>
      </trkpt>
      <trkpt lat="42.51493" lon="0.17034">
        <ele>782.8</ele>
        <time>2016-07-23T09:05:51Z</time>
      </trkpt>
      <trkpt lat="42.51494" lon="0.17039">
        <ele>783.1</ele>
        <time>2016-07-23T09:05:52Z</time>
      </trkpt>
      <trkpt lat="42.51496" lon="0.17043">
        <ele>783.4</ele>
        <time>2016-07-23T09:05:53Z</time>
      </trkpt>
      <trkpt lat="42.51497" lon="0.17047">
        <ele>783.7</ele>
        <time>2016-07-23T09:05:54Z</time>
      </trkpt>
      <trkpt lat="42.51499" lon="0.17052">
        <ele>784.1</ele>
        <time>2016-07-23T09:05:55Z</time>
      </trkpt>
      <trkpt lat="42.51501" lon="0.17056">
        <ele>784.4</ele>
        <time>2016-07-23T09:05:56Z</time>
      </trkpt>
      <trkpt lat="42.51502" lon="0.1706">
        <ele>784.8</ele>
        <time>2016-07-23T09:05:57Z</time>
      </trkpt>
      <trkpt lat="42.51503" lon="0.17065">
        <ele>785.1</ele>
        <time>2016-07-23T09:05:58Z</time>
      </trkpt>
      <trkpt lat="42.51505" lon="0.17069">
        <ele>785.4</ele>
        <time>2016-07-23T09:05:59Z</time>
      </trkpt>
      <trkpt lat="42.51506" lon="0.17074">
        <ele>785.8</ele>
        <time>2016-07-23T09:06:00Z</time>
      </trkpt>
      <trkpt lat="42.51507" lon="0.17078">
        <ele>786.1</ele>
        <time>2016-07-23T09:06:01Z</time>
      </trkpt>
      <trkpt lat="42.51509" lon="0.17082">
        <ele>786.5</ele>
        <time>2016-07-23T09:06:02Z</time>
      </trkpt>
      <trkpt lat="42.5151" lon="0.17086">
        <ele>787</ele>
        <time>2016-07-23T09:06:03Z</time>
      </trkpt>
      <trkpt lat="42.51512" lon="0.1709">
        <ele>787.5</ele>
        <time>2016-07-23T09:06:04Z</time>
      </trkpt>
      <trkpt lat="42.51514" lon="0.17094">
        <ele>788</ele>
        <time>2016-07-23T09:06:05Z</time>
      </trkpt>
      <trkpt lat="42.51517" lon="0.17097">
        <ele>788.6</ele>
        <time>2016-07-23T09:06:06Z</time>
      </trkpt>
      <trkpt lat="42.51519" lon="0.171">
        <ele>789.2</ele>
        <time>2016-07-23T09:06:07Z</time>
      </trkpt>
      <trkpt lat="42.51523" lon="0.17101">
        <ele>789.8</ele>
        <time>2016-07-23T09:06:08Z</time>
      </trkpt>
      <trkpt lat="42.51526" lon="0.17102">
        <ele>790.5</ele>
        <time>2016-07-23T09:06:09Z</time>
      </trkpt>
      <trkpt lat="42.51529" lon="0.17102">
        <ele>791.1</ele>
        <time>2016-07-23T09:06:10Z</time>
      </trkpt>
      <trkpt lat="42.51532" lon="0.17102">
        <ele>791.7</ele>
        <time>2016-07-23T09:06:11Z</time>
      </trkpt>
      <trkpt lat="42.51535" lon="0.17102">
        <ele>792.3</ele>
        <time>2016-07-23T09:06:12Z</time>
      </trkpt>
      <trkpt lat="42.51538" lon="0.17101">
        <ele>792.8</ele>
        <time>2016-07-23T09:06:13Z</time>
      </trkpt>
      <trkpt lat="42.51541" lon="0.17099">
        <ele>793.3</ele>
        <time>2016-07-23T09:06:14Z</time>
      </trkpt>
      <trkpt lat="42.51544" lon="0.17097">
        <ele>793.4</ele>
        <time>2016-07-23T09:06:15Z</time>
      </trkpt>
      <trkpt lat="42.51547" lon="0.17095">
        <ele>793.3</ele>
        <time>2016-07-23T09:06:16Z</time>
      </trkpt>
      <trkpt lat="42.51549" lon="0.17094">
        <ele>793.2</ele>
        <time>2016-07-23T09:06:17Z</time>
      </trkpt>
      <trkpt lat="42.51552" lon="0.17092">
        <ele>793.2</ele>
        <time>2016-07-23T09:06:18Z</time>
      </trkpt>
      <trkpt lat="42.51555" lon="0.17091">
        <ele>793.1</ele>
        <time>2016-07-23T09:06:19Z</time>
      </trkpt>
      <trkpt lat="42.51557" lon="0.1709">
        <ele>793.1</ele>
        <time>2016-07-23T09:06:20Z</time>
      </trkpt>
      <trkpt lat="42.51563" lon="0.17088">
        <ele>793</ele>
        <time>2016-07-23T09:06:22Z</time>
      </trkpt>
      <trkpt lat="42.51565" lon="0.17087">
        <ele>793</ele>
        <time>2016-07-23T09:06:23Z</time>
      </trkpt>
      <trkpt lat="42.51568" lon="0.17086">
        <ele>793</ele>
        <time>2016-07-23T09:06:24Z</time>
      </trkpt>
      <trkpt lat="42.51571" lon="0.17084">
        <ele>792.9</ele>
        <time>2016-07-23T09:06:25Z</time>
      </trkpt>
      <trkpt lat="42.51574" lon="0.17083">
        <ele>792.9</ele>
        <time>2016-07-23T09:06:26Z</time>
      </trkpt>
      <trkpt lat="42.51576" lon="0.17082">
        <ele>792.8</ele>
        <time>2016-07-23T09:06:27Z</time>
      </trkpt>
      <trkpt lat="42.51579" lon="0.17081">
        <ele>792.8</ele>
        <time>2016-07-23T09:06:28Z</time>
      </trkpt>
      <trkpt lat="42.51581" lon="0.1708">
        <ele>792.7</ele>
        <time>2016-07-23T09:06:29Z</time>
      </trkpt>
      <trkpt lat="42.51587" lon="0.17078">
        <ele>792.6</ele>
        <time>2016-07-23T09:06:31Z</time>
      </trkpt>
      <trkpt lat="42.51592" lon="0.17076">
        <ele>792.6</ele>
        <time>2016-07-23T09:06:33Z</time>
      </trkpt>
      <trkpt lat="42.51594" lon="0.17075">
        <ele>792.5</ele>
        <time>2016-07-23T09:06:34Z</time>
      </trkpt>
      <trkpt lat="42.51597" lon="0.17074">
        <ele>792.5</ele>
        <time>2016-07-23T09:06:35Z</time>
      </trkpt>
      <trkpt lat="42.516" lon="0.17073">
        <ele>792.4</ele>
        <time>2016-07-23T09:06:36Z</time>
      </trkpt>
      <trkpt lat="42.51602" lon="0.17072">
        <ele>792.3</ele>
        <time>2016-07-23T09:06:37Z</time>
      </trkpt>
      <trkpt lat="42.51608" lon="0.17071">
        <ele>792.3</ele>
        <time>2016-07-23T09:06:39Z</time>
      </trkpt>
      <trkpt lat="42.5161" lon="0.17071">
        <ele>792.3</ele>
        <time>2016-07-23T09:06:40Z</time>
      </trkpt>
      <trkpt lat="42.51613" lon="0.17071">
        <ele>792.3</ele>
        <time>2016-07-23T09:06:41Z</time>
      </trkpt>
      <trkpt lat="42.51616" lon="0.17071">
        <ele>792.4</ele>
        <time>2016-07-23T09:06:42Z</time>
      </trkpt>
      <trkpt lat="42.51619" lon="0.17072">
        <ele>792.5</ele>
        <time>2016-07-23T09:06:43Z</time>
      </trkpt>
      <trkpt lat="42.51623" lon="0.17076">
        <ele>792.8</ele>
        <time>2016-07-23T09:06:45Z</time>
      </trkpt>
      <trkpt lat="42.51627" lon="0.17081">
        <ele>793.3</ele>
        <time>2016-07-23T09:06:47Z</time>
      </trkpt>
      <trkpt lat="42.51629" lon="0.17086">
        <ele>793.7</ele>
        <time>2016-07-23T09:06:49Z</time>
      </trkpt>
      <trkpt lat="42.51629" lon="0.17092">
        <ele>794.2</ele>
        <time>2016-07-23T09:06:51Z</time>
      </trkpt>
      <trkpt lat="42.51628" lon="0.17099">
        <ele>794.8</ele>
        <time>2016-07-23T09:06:53Z</time>
      </trkpt>
      <trkpt lat="42.51627" lon="0.17106">
        <ele>795.4</ele>
        <time>2016-07-23T09:06:55Z</time>
      </trkpt>
      <trkpt lat="42.51625" lon="0.17112">
        <ele>795.9</ele>
        <time>2016-07-23T09:06:57Z</time>
      </trkpt>
      <trkpt lat="42.51623" lon="0.17118">
        <ele>796.3</ele>
        <time>2016-07-23T09:06:59Z</time>
      </trkpt>
      <trkpt lat="42.51621" lon="0.17122">
        <ele>796.6</ele>
        <time>2016-07-23T09:07:01Z</time>
      </trkpt>
      <trkpt lat="42.51619" lon="0.17126">
        <ele>797</ele>
        <time>2016-07-23T09:07:03Z</time>
      </trkpt>
      <trkpt lat="42.51617" lon="0.17131">
        <ele>797.4</ele>
        <time>2016-07-23T09:07:05Z</time>
      </trkpt>
      <trkpt lat="42.51615" lon="0.17135">
        <ele>797.7</ele>
        <time>2016-07-23T09:07:07Z</time>
      </trkpt>
      <trkpt lat="42.51613" lon="0.17139">
        <ele>798.1</ele>
        <time>2016-07-23T09:07:09Z</time>
      </trkpt>
      <trkpt lat="42.51612" lon="0.17145">
        <ele>798.5</ele>
        <time>2016-07-23T09:07:11Z</time>
      </trkpt>
      <trkpt lat="42.51611" lon="0.1715">
        <ele>799</ele>
        <time>2016-07-23T09:07:13Z</time>
      </trkpt>
      <trkpt lat="42.51611" lon="0.17156">
        <ele>799.5</ele>
        <time>2016-07-23T09:07:15Z</time>
      </trkpt>
      <trkpt lat="42.5161" lon="0.17163">
        <ele>800.1</ele>
        <time>2016-07-23T09:07:17Z</time>
      </trkpt>
      <trkpt lat="42.51611" lon="0.17169">
        <ele>800.7</ele>
        <time>2016-07-23T09:07:19Z</time>
      </trkpt>
      <trkpt lat="42.51612" lon="0.17175">
        <ele>801.3</ele>
        <time>2016-07-23T09:07:21Z</time>
      </trkpt>
      <trkpt lat="42.51614" lon="0.17181">
        <ele>802</ele>
        <time>2016-07-23T09:07:23Z</time>
      </trkpt>
      <trkpt lat="42.51615" lon="0.17186">
        <ele>802.7</ele>
        <time>2016-07-23T09:07:25Z</time>
      </trkpt>
      <trkpt lat="42.51618" lon="0.17192">
        <ele>803.5</ele>
        <time>2016-07-23T09:07:27Z</time>
      </trkpt>
      <trkpt lat="42.51621" lon="0.17197">
        <ele>804.2</ele>
        <time>2016-07-23T09:07:29Z</time>
      </trkpt>
      <trkpt lat="42.51623" lon="0.17202">
        <ele>805.1</ele>
        <time>2016-07-23T09:07:31Z</time>
      </trkpt>
      <trkpt lat="42.51627" lon="0.17207">
        <ele>805.8</ele>
        <time>2016-07-23T09:07:33Z</time>
      </trkpt>
      <trkpt lat="42.51631" lon="0.17211">
        <ele>806.3</ele>
        <time>2016-07-23T09:07:35Z</time>
      </trkpt>
      <trkpt lat="42.51635" lon="0.17215">
        <ele>806.7</ele>
        <time>2016-07-23T09:07:37Z</time>
      </trkpt>
      <trkpt lat="42.51639" lon="0.17218">
        <ele>806.9</ele>
        <time>2016-07-23T09:07:39Z</time>
      </trkpt>
      <trkpt lat="42.51644" lon="0.17219">
        <ele>807</ele>
        <time>2016-07-23T09:07:41Z</time>
      </trkpt>
      <trkpt lat="42.51648" lon="0.17218">
        <ele>806.9</ele>
        <time>2016-07-23T09:07:43Z</time>
      </trkpt>
      <trkpt lat="42.51652" lon="0.17217">
        <ele>806.8</ele>
        <time>2016-07-23T09:07:45Z</time>
      </trkpt>
      <trkpt lat="42.51656" lon="0.17216">
        <ele>806.8</ele>
        <time>2016-07-23T09:07:47Z</time>
      </trkpt>
      <trkpt lat="42.51661" lon="0.17216">
        <ele>806.8</ele>
        <time>2016-07-23T09:07:49Z</time>
      </trkpt>
      <trkpt lat="42.51665" lon="0.17216">
        <ele>806.8</ele>
        <time>2016-07-23T09:07:51Z</time>
      </trkpt>
      <trkpt lat="42.51669" lon="0.17216">
        <ele>806.7</ele>
        <time>2016-07-23T09:07:53Z</time>
      </trkpt>
      <trkpt lat="42.51674" lon="0.17216">
        <ele>806.7</ele>
        <time>2016-07-23T09:07:55Z</time>
      </trkpt>
      <trkpt lat="42.51678" lon="0.17216">
        <ele>806.8</ele>
        <time>2016-07-23T09:07:57Z</time>
      </trkpt>
      <trkpt lat="42.51683" lon="0.17216">
        <ele>806.8</ele>
        <time>2016-07-23T09:07:59Z</time>
      </trkpt>
      <trkpt lat="42.51687" lon="0.17217">
        <ele>806.9</ele>
        <time>2016-07-23T09:08:01Z</time>
      </trkpt>
      <trkpt lat="42.51692" lon="0.1722">
        <ele>807.2</ele>
        <time>2016-07-23T09:08:03Z</time>
      </trkpt>
      <trkpt lat="42.51695" lon="0.17222">
        <ele>807.4</ele>
        <time>2016-07-23T09:08:04Z</time>
      </trkpt>
      <trkpt lat="42.51697" lon="0.17225">
        <ele>807.7</ele>
        <time>2016-07-23T09:08:05Z</time>
      </trkpt>
      <trkpt lat="42.51698" lon="0.17228">
        <ele>808.1</ele>
        <time>2016-07-23T09:08:06Z</time>
      </trkpt>
      <trkpt lat="42.517" lon="0.17231">
        <ele>808.5</ele>
        <time>2016-07-23T09:08:07Z</time>
      </trkpt>
      <trkpt lat="42.51701" lon="0.17235">
        <ele>808.9</ele>
        <time>2016-07-23T09:08:08Z</time>
      </trkpt>
      <trkpt lat="42.51702" lon="0.17239">
        <ele>809.3</ele>
        <time>2016-07-23T09:08:09Z</time>
      </trkpt>
      <trkpt lat="42.51702" lon="0.17243">
        <ele>809.7</ele>
        <time>2016-07-23T09:08:10Z</time>
      </trkpt>
      <trkpt lat="42.51702" lon="0.17247">
        <ele>810.2</ele>
        <time>2016-07-23T09:08:11Z</time>
      </trkpt>
      <trkpt lat="42.51701" lon="0.17251">
        <ele>810.6</ele>
        <time>2016-07-23T09:08:12Z</time>
      </trkpt>
      <trkpt lat="42.517" lon="0.17255">
        <ele>811</ele>
        <time>2016-07-23T09:08:13Z</time>
      </trkpt>
      <trkpt lat="42.51698" lon="0.17259">
        <ele>811.4</ele>
        <time>2016-07-23T09:08:14Z</time>
      </trkpt>
      <trkpt lat="42.51696" lon="0.17263">
        <ele>811.8</ele>
        <time>2016-07-23T09:08:15Z</time>
      </trkpt>
      <trkpt lat="42.51694" lon="0.17266">
        <ele>812.1</ele>
        <time>2016-07-23T09:08:16Z</time>
      </trkpt>
      <trkpt lat="42.51692" lon="0.17269">
        <ele>812.4</ele>
        <time>2016-07-23T09:08:17Z</time>
      </trkpt>
      <trkpt lat="42.51689" lon="0.17272">
        <ele>812.7</ele>
        <time>2016-07-23T09:08:18Z</time>
      </trkpt>
      <trkpt lat="42.51687" lon="0.17274">
        <ele>812.9</ele>
        <time>2016-07-23T09:08:19Z</time>
      </trkpt>
      <trkpt lat="42.51684" lon="0.17277">
        <ele>813.2</ele>
        <time>2016-07-23T09:08:20Z</time>
      </trkpt>
      <trkpt lat="42.51682" lon="0.1728">
        <ele>813.4</ele>
        <time>2016-07-23T09:08:21Z</time>
      </trkpt>
      <trkpt lat="42.51679" lon="0.17282">
        <ele>813.6</ele>
        <time>2016-07-23T09:08:22Z</time>
      </trkpt>
      <trkpt lat="42.51677" lon="0.17284">
        <ele>813.9</ele>
        <time>2016-07-23T09:08:23Z</time>
      </trkpt>
      <trkpt lat="42.51675" lon="0.17287">
        <ele>814.1</ele>
        <time>2016-07-23T09:08:24Z</time>
      </trkpt>
      <trkpt lat="42.51671" lon="0.17291">
        <ele>814.5</ele>
        <time>2016-07-23T09:08:26Z</time>
      </trkpt>
      <trkpt lat="42.51668" lon="0.17295">
        <ele>814.7</ele>
        <time>2016-07-23T09:08:28Z</time>
      </trkpt>
      <trkpt lat="42.51664" lon="0.17298">
        <ele>814.8</ele>
        <time>2016-07-23T09:08:30Z</time>
      </trkpt>
      <trkpt lat="42.5166" lon="0.17301">
        <ele>814.9</ele>
        <time>2016-07-23T09:08:32Z</time>
      </trkpt>
      <trkpt lat="42.51656" lon="0.17303">
        <ele>815</ele>
        <time>2016-07-23T09:08:34Z</time>
      </trkpt>
      <trkpt lat="42.51652" lon="0.17305">
        <ele>815.1</ele>
        <time>2016-07-23T09:08:36Z</time>
      </trkpt>
      <trkpt lat="42.51647" lon="0.17306">
        <ele>815.1</ele>
        <time>2016-07-23T09:08:38Z</time>
      </trkpt>
      <trkpt lat="42.51643" lon="0.17307">
        <ele>815.1</ele>
        <time>2016-07-23T09:08:40Z</time>
      </trkpt>
      <trkpt lat="42.51638" lon="0.17308">
        <ele>815.1</ele>
        <time>2016-07-23T09:08:42Z</time>
      </trkpt>
      <trkpt lat="42.51634" lon="0.17311">
        <ele>815.2</ele>
        <time>2016-07-23T09:08:44Z</time>
      </trkpt>
      <trkpt lat="42.5163" lon="0.17315">
        <ele>815.4</ele>
        <time>2016-07-23T09:08:46Z</time>
      </trkpt>
      <trkpt lat="42.51626" lon="0.17319">
        <ele>815.6</ele>
        <time>2016-07-23T09:08:48Z</time>
      </trkpt>
      <trkpt lat="42.51623" lon="0.17323">
        <ele>815.6</ele>
        <time>2016-07-23T09:08:50Z</time>
      </trkpt>
      <trkpt lat="42.5162" lon="0.17329">
        <ele>815.4</ele>
        <time>2016-07-23T09:08:52Z</time>
      </trkpt>
      <trkpt lat="42.51617" lon="0.17334">
        <ele>815.1</ele>
        <time>2016-07-23T09:08:54Z</time>
      </trkpt>
      <trkpt lat="42.51614" lon="0.17338">
        <ele>814.8</ele>
        <time>2016-07-23T09:08:56Z</time>
      </trkpt>
      <trkpt lat="42.5161" lon="0.17342">
        <ele>814.3</ele>
        <time>2016-07-23T09:08:58Z</time>
      </trkpt>
      <trkpt lat="42.51607" lon="0.17346">
        <ele>814</ele>
        <time>2016-07-23T09:09:00Z</time>
      </trkpt>
      <trkpt lat="42.51604" lon="0.17351">
        <ele>814</ele>
        <time>2016-07-23T09:09:02Z</time>
      </trkpt>
      <trkpt lat="42.51602" lon="0.17355">
        <ele>813.9</ele>
        <time>2016-07-23T09:09:04Z</time>
      </trkpt>
      <trkpt lat="42.516" lon="0.17359">
        <ele>813.7</ele>
        <time>2016-07-23T09:09:06Z</time>
      </trkpt>
      <trkpt lat="42.51597" lon="0.17362">
        <ele>813.3</ele>
        <time>2016-07-23T09:09:08Z</time>
      </trkpt>
      <trkpt lat="42.51594" lon="0.17365">
        <ele>813.1</ele>
        <time>2016-07-23T09:09:10Z</time>
      </trkpt>
      <trkpt lat="42.51593" lon="0.1737">
        <ele>813.2</ele>
        <time>2016-07-23T09:09:12Z</time>
      </trkpt>
      <trkpt lat="42.51593" lon="0.17375">
        <ele>813.5</ele>
        <time>2016-07-23T09:09:14Z</time>
      </trkpt>
      <trkpt lat="42.51593" lon="0.1738">
        <ele>814.2</ele>
        <time>2016-07-23T09:09:16Z</time>
      </trkpt>
      <trkpt lat="42.51594" lon="0.17385">
        <ele>814.9</ele>
        <time>2016-07-23T09:09:18Z</time>
      </trkpt>
      <trkpt lat="42.51595" lon="0.1739">
        <ele>815.7</ele>
        <time>2016-07-23T09:09:20Z</time>
      </trkpt>
      <trkpt lat="42.51597" lon="0.17395">
        <ele>816.5</ele>
        <time>2016-07-23T09:09:22Z</time>
      </trkpt>
      <trkpt lat="42.51599" lon="0.17398">
        <ele>817.3</ele>
        <time>2016-07-23T09:09:24Z</time>
      </trkpt>
      <trkpt lat="42.51601" lon="0.17402">
        <ele>818</ele>
        <time>2016-07-23T09:09:26Z</time>
      </trkpt>
      <trkpt lat="42.51604" lon="0.17406">
        <ele>818.9</ele>
        <time>2016-07-23T09:09:28Z</time>
      </trkpt>
      <trkpt lat="42.51607" lon="0.17409">
        <ele>819.8</ele>
        <time>2016-07-23T09:09:30Z</time>
      </trkpt>
      <trkpt lat="42.5161" lon="0.17412">
        <ele>820.7</ele>
        <time>2016-07-23T09:09:32Z</time>
      </trkpt>
      <trkpt lat="42.51613" lon="0.17415">
        <ele>821.5</ele>
        <time>2016-07-23T09:09:34Z</time>
      </trkpt>
      <trkpt lat="42.51616" lon="0.17419">
        <ele>822.4</ele>
        <time>2016-07-23T09:09:36Z</time>
      </trkpt>
      <trkpt lat="42.5162" lon="0.17422">
        <ele>823.3</ele>
        <time>2016-07-23T09:09:38Z</time>
      </trkpt>
      <trkpt lat="42.51624" lon="0.17425">
        <ele>824.1</ele>
        <time>2016-07-23T09:09:40Z</time>
      </trkpt>
      <trkpt lat="42.51627" lon="0.17426">
        <ele>824.5</ele>
        <time>2016-07-23T09:09:42Z</time>
      </trkpt>
      <trkpt lat="42.51631" lon="0.17429">
        <ele>824.7</ele>
        <time>2016-07-23T09:09:44Z</time>
      </trkpt>
      <trkpt lat="42.51634" lon="0.17432">
        <ele>825</ele>
        <time>2016-07-23T09:09:46Z</time>
      </trkpt>
      <trkpt lat="42.51637" lon="0.17435">
        <ele>825.2</ele>
        <time>2016-07-23T09:09:48Z</time>
      </trkpt>
      <trkpt lat="42.5164" lon="0.17438">
        <ele>825.6</ele>
        <time>2016-07-23T09:09:50Z</time>
      </trkpt>
      <trkpt lat="42.51643" lon="0.17442">
        <ele>825.9</ele>
        <time>2016-07-23T09:09:52Z</time>
      </trkpt>
      <trkpt lat="42.51646" lon="0.17446">
        <ele>826.3</ele>
        <time>2016-07-23T09:09:54Z</time>
      </trkpt>
      <trkpt lat="42.51649" lon="0.1745">
        <ele>826.6</ele>
        <time>2016-07-23T09:09:56Z</time>
      </trkpt>
      <trkpt lat="42.51652" lon="0.17454">
        <ele>826.9</ele>
        <time>2016-07-23T09:09:58Z</time>
      </trkpt>
      <trkpt lat="42.51654" lon="0.17459">
        <ele>827.3</ele>
        <time>2016-07-23T09:10:00Z</time>
      </trkpt>
      <trkpt lat="42.51656" lon="0.17464">
        <ele>827.8</ele>
        <time>2016-07-23T09:10:02Z</time>
      </trkpt>
      <trkpt lat="42.51658" lon="0.17469">
        <ele>828.3</ele>
        <time>2016-07-23T09:10:04Z</time>
      </trkpt>
      <trkpt lat="42.51659" lon="0.17474">
        <ele>828.9</ele>
        <time>2016-07-23T09:10:06Z</time>
      </trkpt>
      <trkpt lat="42.51659" lon="0.1748">
        <ele>829.5</ele>
        <time>2016-07-23T09:10:08Z</time>
      </trkpt>
      <trkpt lat="42.51658" lon="0.17485">
        <ele>830.1</ele>
        <time>2016-07-23T09:10:10Z</time>
      </trkpt>
      <trkpt lat="42.51658" lon="0.1749">
        <ele>830.6</ele>
        <time>2016-07-23T09:10:12Z</time>
      </trkpt>
      <trkpt lat="42.51658" lon="0.17495">
        <ele>831.2</ele>
        <time>2016-07-23T09:10:14Z</time>
      </trkpt>
      <trkpt lat="42.51658" lon="0.175">
        <ele>831.7</ele>
        <time>2016-07-23T09:10:16Z</time>
      </trkpt>
      <trkpt lat="42.51657" lon="0.17506">
        <ele>832.4</ele>
        <time>2016-07-23T09:10:18Z</time>
      </trkpt>
      <trkpt lat="42.51657" lon="0.17512">
        <ele>833</ele>
        <time>2016-07-23T09:10:20Z</time>
      </trkpt>
      <trkpt lat="42.51657" lon="0.17518">
        <ele>833.6</ele>
        <time>2016-07-23T09:10:22Z</time>
      </trkpt>
      <trkpt lat="42.51658" lon="0.17523">
        <ele>834.2</ele>
        <time>2016-07-23T09:10:24Z</time>
      </trkpt>
      <trkpt lat="42.51659" lon="0.17529">
        <ele>834.8</ele>
        <time>2016-07-23T09:10:26Z</time>
      </trkpt>
      <trkpt lat="42.5166" lon="0.17535">
        <ele>835.4</ele>
        <time>2016-07-23T09:10:28Z</time>
      </trkpt>
      <trkpt lat="42.51662" lon="0.1754">
        <ele>836</ele>
        <time>2016-07-23T09:10:30Z</time>
      </trkpt>
      <trkpt lat="42.51664" lon="0.17545">
        <ele>836.5</ele>
        <time>2016-07-23T09:10:32Z</time>
      </trkpt>
      <trkpt lat="42.51667" lon="0.1755">
        <ele>836.8</ele>
        <time>2016-07-23T09:10:34Z</time>
      </trkpt>
      <trkpt lat="42.5167" lon="0.17553">
        <ele>837.2</ele>
        <time>2016-07-23T09:10:36Z</time>
      </trkpt>
      <trkpt lat="42.51673" lon="0.17557">
        <ele>837.5</ele>
        <time>2016-07-23T09:10:38Z</time>
      </trkpt>
      <trkpt lat="42.51676" lon="0.1756">
        <ele>837.8</ele>
        <time>2016-07-23T09:10:40Z</time>
      </trkpt>
      <trkpt lat="42.51679" lon="0.17564">
        <ele>838.1</ele>
        <time>2016-07-23T09:10:42Z</time>
      </trkpt>
      <trkpt lat="42.51682" lon="0.17569">
        <ele>838.5</ele>
        <time>2016-07-23T09:10:44Z</time>
      </trkpt>
      <trkpt lat="42.51684" lon="0.17573">
        <ele>839</ele>
        <time>2016-07-23T09:10:46Z</time>
      </trkpt>
      <trkpt lat="42.51687" lon="0.17578">
        <ele>839.4</ele>
        <time>2016-07-23T09:10:48Z</time>
      </trkpt>
      <trkpt lat="42.51689" lon="0.17582">
        <ele>839.8</ele>
        <time>2016-07-23T09:10:50Z</time>
      </trkpt>
      <trkpt lat="42.51691" lon="0.17587">
        <ele>840.3</ele>
        <time>2016-07-23T09:10:52Z</time>
      </trkpt>
      <trkpt lat="42.51691" lon="0.17592">
        <ele>840.9</ele>
        <time>2016-07-23T09:10:54Z</time>
      </trkpt>
      <trkpt lat="42.51692" lon="0.17598">
        <ele>841.5</ele>
        <time>2016-07-23T09:10:56Z</time>
      </trkpt>
      <trkpt lat="42.51691" lon="0.17603">
        <ele>842.1</ele>
        <time>2016-07-23T09:10:58Z</time>
      </trkpt>
      <trkpt lat="42.51688" lon="0.17608">
        <ele>842.6</ele>
        <time>2016-07-23T09:11:00Z</time>
      </trkpt>
      <trkpt lat="42.51685" lon="0.17612">
        <ele>843.1</ele>
        <time>2016-07-23T09:11:02Z</time>
      </trkpt>
      <trkpt lat="42.51681" lon="0.17614">
        <ele>843.5</ele>
        <time>2016-07-23T09:11:04Z</time>
      </trkpt>
      <trkpt lat="42.51676" lon="0.17615">
        <ele>843.7</ele>
        <time>2016-07-23T09:11:06Z</time>
      </trkpt>
      <trkpt lat="42.51673" lon="0.17615">
        <ele>843.7</ele>
        <time>2016-07-23T09:11:07Z</time>
      </trkpt>
      <trkpt lat="42.5167" lon="0.17614">
        <ele>843.7</ele>
        <time>2016-07-23T09:11:08Z</time>
      </trkpt>
      <trkpt lat="42.51668" lon="0.17613">
        <ele>843.6</ele>
        <time>2016-07-23T09:11:09Z</time>
      </trkpt>
      <trkpt lat="42.51665" lon="0.17611">
        <ele>843.5</ele>
        <time>2016-07-23T09:11:10Z</time>
      </trkpt>
      <trkpt lat="42.51663" lon="0.17608">
        <ele>843.2</ele>
        <time>2016-07-23T09:11:11Z</time>
      </trkpt>
      <trkpt lat="42.51661" lon="0.17605">
        <ele>843</ele>
        <time>2016-07-23T09:11:12Z</time>
      </trkpt>
      <trkpt lat="42.51659" lon="0.17603">
        <ele>842.8</ele>
        <time>2016-07-23T09:11:13Z</time>
      </trkpt>
      <trkpt lat="42.51656" lon="0.17601">
        <ele>842.6</ele>
        <time>2016-07-23T09:11:14Z</time>
      </trkpt>
      <trkpt lat="42.51654" lon="0.17599">
        <ele>842.5</ele>
        <time>2016-07-23T09:11:15Z</time>
      </trkpt>
      <trkpt lat="42.51649" lon="0.17595">
        <ele>842.2</ele>
        <time>2016-07-23T09:11:17Z</time>
      </trkpt>
      <trkpt lat="42.51646" lon="0.17594">
        <ele>842.1</ele>
        <time>2016-07-23T09:11:18Z</time>
      </trkpt>
      <trkpt lat="42.51644" lon="0.17593">
        <ele>842.1</ele>
        <time>2016-07-23T09:11:19Z</time>
      </trkpt>
      <trkpt lat="42.51641" lon="0.17592">
        <ele>842</ele>
        <time>2016-07-23T09:11:20Z</time>
      </trkpt>
      <trkpt lat="42.51638" lon="0.1759">
        <ele>841.9</ele>
        <time>2016-07-23T09:11:21Z</time>
      </trkpt>
      <trkpt lat="42.51635" lon="0.17589">
        <ele>841.9</ele>
        <time>2016-07-23T09:11:22Z</time>
      </trkpt>
      <trkpt lat="42.51633" lon="0.17588">
        <ele>841.9</ele>
        <time>2016-07-23T09:11:23Z</time>
      </trkpt>
      <trkpt lat="42.51628" lon="0.17587">
        <ele>841.8</ele>
        <time>2016-07-23T09:11:25Z</time>
      </trkpt>
      <trkpt lat="42.51623" lon="0.17587">
        <ele>841.8</ele>
        <time>2016-07-23T09:11:27Z</time>
      </trkpt>
      <trkpt lat="42.51619" lon="0.17588">
        <ele>841.9</ele>
        <time>2016-07-23T09:11:29Z</time>
      </trkpt>
      <trkpt lat="42.51615" lon="0.17591">
        <ele>842.1</ele>
        <time>2016-07-23T09:11:31Z</time>
      </trkpt>
      <trkpt lat="42.51611" lon="0.17594">
        <ele>842.5</ele>
        <time>2016-07-23T09:11:33Z</time>
      </trkpt>
      <trkpt lat="42.51609" lon="0.17599">
        <ele>843.1</ele>
        <time>2016-07-23T09:11:35Z</time>
      </trkpt>
      <trkpt lat="42.51608" lon="0.17606">
        <ele>844</ele>
        <time>2016-07-23T09:11:37Z</time>
      </trkpt>
      <trkpt lat="42.51609" lon="0.17612">
        <ele>844.9</ele>
        <time>2016-07-23T09:11:39Z</time>
      </trkpt>
      <trkpt lat="42.51611" lon="0.17618">
        <ele>845.6</ele>
        <time>2016-07-23T09:11:41Z</time>
      </trkpt>
      <trkpt lat="42.51613" lon="0.17623">
        <ele>846.2</ele>
        <time>2016-07-23T09:11:43Z</time>
      </trkpt>
      <trkpt lat="42.51615" lon="0.17627">
        <ele>846.6</ele>
        <time>2016-07-23T09:11:45Z</time>
      </trkpt>
      <trkpt lat="42.51618" lon="0.1763">
        <ele>846.9</ele>
        <time>2016-07-23T09:11:47Z</time>
      </trkpt>
      <trkpt lat="42.51622" lon="0.17633">
        <ele>847.3</ele>
        <time>2016-07-23T09:11:49Z</time>
      </trkpt>
      <trkpt lat="42.51625" lon="0.17636">
        <ele>847.6</ele>
        <time>2016-07-23T09:11:51Z</time>
      </trkpt>
      <trkpt lat="42.51628" lon="0.1764">
        <ele>848.1</ele>
        <time>2016-07-23T09:11:53Z</time>
      </trkpt>
      <trkpt lat="42.51631" lon="0.17644">
        <ele>848.5</ele>
        <time>2016-07-23T09:11:55Z</time>
      </trkpt>
      <trkpt lat="42.51633" lon="0.17648">
        <ele>849.1</ele>
        <time>2016-07-23T09:11:57Z</time>
      </trkpt>
      <trkpt lat="42.51635" lon="0.17652">
        <ele>849.6</ele>
        <time>2016-07-23T09:11:59Z</time>
      </trkpt>
      <trkpt lat="42.51638" lon="0.17656">
        <ele>850</ele>
        <time>2016-07-23T09:12:01Z</time>
      </trkpt>
      <trkpt lat="42.5164" lon="0.1766">
        <ele>850.5</ele>
        <time>2016-07-23T09:12:03Z</time>
      </trkpt>
      <trkpt lat="42.51642" lon="0.17664">
        <ele>850.9</ele>
        <time>2016-07-23T09:12:05Z</time>
      </trkpt>
      <trkpt lat="42.51644" lon="0.17668">
        <ele>851.4</ele>
        <time>2016-07-23T09:12:07Z</time>
      </trkpt>
      <trkpt lat="42.51645" lon="0.17673">
        <ele>851.9</ele>
        <time>2016-07-23T09:12:09Z</time>
      </trkpt>
      <trkpt lat="42.51646" lon="0.17677">
        <ele>852.5</ele>
        <time>2016-07-23T09:12:11Z</time>
      </trkpt>
      <trkpt lat="42.51648" lon="0.17681">
        <ele>853</ele>
        <time>2016-07-23T09:12:13Z</time>
      </trkpt>
      <trkpt lat="42.51649" lon="0.17686">
        <ele>853.5</ele>
        <time>2016-07-23T09:12:15Z</time>
      </trkpt>
      <trkpt lat="42.5165" lon="0.1769">
        <ele>854.1</ele>
        <time>2016-07-23T09:12:17Z</time>
      </trkpt>
      <trkpt lat="42.5165" lon="0.17695">
        <ele>854.7</ele>
        <time>2016-07-23T09:12:19Z</time>
      </trkpt>
      <trkpt lat="42.51651" lon="0.177">
        <ele>855.3</ele>
        <time>2016-07-23T09:12:21Z</time>
      </trkpt>
      <trkpt lat="42.51652" lon="0.17704">
        <ele>855.8</ele>
        <time>2016-07-23T09:12:23Z</time>
      </trkpt>
      <trkpt lat="42.51653" lon="0.17709">
        <ele>856.4</ele>
        <time>2016-07-23T09:12:25Z</time>
      </trkpt>
      <trkpt lat="42.51654" lon="0.17713">
        <ele>857.1</ele>
        <time>2016-07-23T09:12:27Z</time>
      </trkpt>
      <trkpt lat="42.51655" lon="0.17717">
        <ele>857.8</ele>
        <time>2016-07-23T09:12:29Z</time>
      </trkpt>
      <trkpt lat="42.51656" lon="0.17722">
        <ele>858.6</ele>
        <time>2016-07-23T09:12:31Z</time>
      </trkpt>
      <trkpt lat="42.51657" lon="0.17727">
        <ele>859.5</ele>
        <time>2016-07-23T09:12:33Z</time>
      </trkpt>
      <trkpt lat="42.51658" lon="0.17731">
        <ele>860.2</ele>
        <time>2016-07-23T09:12:35Z</time>
      </trkpt>
      <trkpt lat="42.51658" lon="0.17735">
        <ele>860.9</ele>
        <time>2016-07-23T09:12:37Z</time>
      </trkpt>
      <trkpt lat="42.51659" lon="0.17739">
        <ele>861.6</ele>
        <time>2016-07-23T09:12:39Z</time>
      </trkpt>
      <trkpt lat="42.5166" lon="0.17744">
        <ele>862.3</ele>
        <time>2016-07-23T09:12:41Z</time>
      </trkpt>
      <trkpt lat="42.51661" lon="0.17748">
        <ele>863.1</ele>
        <time>2016-07-23T09:12:43Z</time>
      </trkpt>
      <trkpt lat="42.5166" lon="0.17752">
        <ele>863.8</ele>
        <time>2016-07-23T09:12:45Z</time>
      </trkpt>
      <trkpt lat="42.51659" lon="0.17756">
        <ele>864.7</ele>
        <time>2016-07-23T09:12:47Z</time>
      </trkpt>
      <trkpt lat="42.51656" lon="0.1776">
        <ele>865.6</ele>
        <time>2016-07-23T09:12:49Z</time>
      </trkpt>
      <trkpt lat="42.51652" lon="0.17763">
        <ele>866.6</ele>
        <time>2016-07-23T09:12:51Z</time>
      </trkpt>
      <trkpt lat="42.51649" lon="0.17765">
        <ele>867.4</ele>
        <time>2016-07-23T09:12:53Z</time>
      </trkpt>
      <trkpt lat="42.51644" lon="0.17765">
        <ele>868.1</ele>
        <time>2016-07-23T09:12:55Z</time>
      </trkpt>
      <trkpt lat="42.5164" lon="0.17764">
        <ele>868.2</ele>
        <time>2016-07-23T09:12:57Z</time>
      </trkpt>
      <trkpt lat="42.51636" lon="0.17762">
        <ele>868.3</ele>
        <time>2016-07-23T09:12:59Z</time>
      </trkpt>
      <trkpt lat="42.51632" lon="0.1776">
        <ele>868.2</ele>
        <time>2016-07-23T09:13:01Z</time>
      </trkpt>
      <trkpt lat="42.51629" lon="0.17758">
        <ele>868.3</ele>
        <time>2016-07-23T09:13:03Z</time>
      </trkpt>
      <trkpt lat="42.51625" lon="0.17756">
        <ele>868.4</ele>
        <time>2016-07-23T09:13:05Z</time>
      </trkpt>
      <trkpt lat="42.51622" lon="0.17754">
        <ele>867.9</ele>
        <time>2016-07-23T09:13:07Z</time>
      </trkpt>
      <trkpt lat="42.51618" lon="0.17749">
        <ele>867.1</ele>
        <time>2016-07-23T09:13:09Z</time>
      </trkpt>
      <trkpt lat="42.51615" lon="0.17744">
        <ele>866.3</ele>
        <time>2016-07-23T09:13:11Z</time>
      </trkpt>
      <trkpt lat="42.51611" lon="0.17741">
        <ele>865.7</ele>
        <time>2016-07-23T09:13:13Z</time>
      </trkpt>
      <trkpt lat="42.51608" lon="0.17738">
        <ele>865.5</ele>
        <time>2016-07-23T09:13:15Z</time>
      </trkpt>
      <trkpt lat="42.51604" lon="0.17737">
        <ele>865.5</ele>
        <time>2016-07-23T09:13:17Z</time>
      </trkpt>
      <trkpt lat="42.51599" lon="0.17737">
        <ele>865.8</ele>
        <time>2016-07-23T09:13:19Z</time>
      </trkpt>
      <trkpt lat="42.51596" lon="0.17738">
        <ele>866.2</ele>
        <time>2016-07-23T09:13:21Z</time>
      </trkpt>
      <trkpt lat="42.51592" lon="0.17741">
        <ele>866.8</ele>
        <time>2016-07-23T09:13:23Z</time>
      </trkpt>
      <trkpt lat="42.51589" lon="0.17745">
        <ele>867.9</ele>
        <time>2016-07-23T09:13:25Z</time>
      </trkpt>
      <trkpt lat="42.51588" lon="0.17751">
        <ele>868.9</ele>
        <time>2016-07-23T09:13:27Z</time>
      </trkpt>
      <trkpt lat="42.51587" lon="0.17757">
        <ele>870.1</ele>
        <time>2016-07-23T09:13:29Z</time>
      </trkpt>
      <trkpt lat="42.51587" lon="0.17763">
        <ele>871.2</ele>
        <time>2016-07-23T09:13:31Z</time>
      </trkpt>
      <trkpt lat="42.51589" lon="0.17769">
        <ele>872.2</ele>
        <time>2016-07-23T09:13:33Z</time>
      </trkpt>
      <trkpt lat="42.51592" lon="0.17773">
        <ele>872.9</ele>
        <time>2016-07-23T09:13:35Z</time>
      </trkpt>
      <trkpt lat="42.51595" lon="0.17777">
        <ele>873.5</ele>
        <time>2016-07-23T09:13:37Z</time>
      </trkpt>
      <trkpt lat="42.51599" lon="0.1778">
        <ele>874</ele>
        <time>2016-07-23T09:13:39Z</time>
      </trkpt>
      <trkpt lat="42.51603" lon="0.17782">
        <ele>874.3</ele>
        <time>2016-07-23T09:13:41Z</time>
      </trkpt>
      <trkpt lat="42.51607" lon="0.17784">
        <ele>874.7</ele>
        <time>2016-07-23T09:13:43Z</time>
      </trkpt>
      <trkpt lat="42.51611" lon="0.17786">
        <ele>875</ele>
        <time>2016-07-23T09:13:45Z</time>
      </trkpt>
      <trkpt lat="42.51614" lon="0.17789">
        <ele>875.7</ele>
        <time>2016-07-23T09:13:47Z</time>
      </trkpt>
      <trkpt lat="42.51618" lon="0.17794">
        <ele>876.4</ele>
        <time>2016-07-23T09:13:49Z</time>
      </trkpt>
      <trkpt lat="42.51621" lon="0.17799">
        <ele>877.3</ele>
        <time>2016-07-23T09:13:51Z</time>
      </trkpt>
      <trkpt lat="42.51623" lon="0.17804">
        <ele>878.3</ele>
        <time>2016-07-23T09:13:53Z</time>
      </trkpt>
      <trkpt lat="42.51626" lon="0.1781">
        <ele>879.2</ele>
        <time>2016-07-23T09:13:55Z</time>
      </trkpt>
      <trkpt lat="42.51628" lon="0.17816">
        <ele>880</ele>
        <time>2016-07-23T09:13:57Z</time>
      </trkpt>
      <trkpt lat="42.51629" lon="0.17822">
        <ele>880.9</ele>
        <time>2016-07-23T09:13:59Z</time>
      </trkpt>
      <trkpt lat="42.51631" lon="0.17828">
        <ele>881.6</ele>
        <time>2016-07-23T09:14:01Z</time>
      </trkpt>
      <trkpt lat="42.51633" lon="0.17833">
        <ele>882.2</ele>
        <time>2016-07-23T09:14:03Z</time>
      </trkpt>
      <trkpt lat="42.51634" lon="0.17838">
        <ele>882.9</ele>
        <time>2016-07-23T09:14:05Z</time>
      </trkpt>
      <trkpt lat="42.51637" lon="0.17844">
        <ele>883.5</ele>
        <time>2016-07-23T09:14:07Z</time>
      </trkpt>
      <trkpt lat="42.51638" lon="0.17848">
        <ele>884</ele>
        <time>2016-07-23T09:14:09Z</time>
      </trkpt>
      <trkpt lat="42.51641" lon="0.17852">
        <ele>884.4</ele>
        <time>2016-07-23T09:14:11Z</time>
      </trkpt>
      <trkpt lat="42.51643" lon="0.17857">
        <ele>884.8</ele>
        <time>2016-07-23T09:14:13Z</time>
      </trkpt>
      <trkpt lat="42.51645" lon="0.17861">
        <ele>885.3</ele>
        <time>2016-07-23T09:14:15Z</time>
      </trkpt>
      <trkpt lat="42.51646" lon="0.17865">
        <ele>885.7</ele>
        <time>2016-07-23T09:14:17Z</time>
      </trkpt>
      <trkpt lat="42.51648" lon="0.17869">
        <ele>886</ele>
        <time>2016-07-23T09:14:19Z</time>
      </trkpt>
      <trkpt lat="42.51649" lon="0.17873">
        <ele>886.5</ele>
        <time>2016-07-23T09:14:21Z</time>
      </trkpt>
      <trkpt lat="42.51651" lon="0.17877">
        <ele>887.1</ele>
        <time>2016-07-23T09:14:23Z</time>
      </trkpt>
      <trkpt lat="42.51652" lon="0.17882">
        <ele>887.7</ele>
        <time>2016-07-23T09:14:25Z</time>
      </trkpt>
      <trkpt lat="42.51652" lon="0.17887">
        <ele>888.5</ele>
        <time>2016-07-23T09:14:27Z</time>
      </trkpt>
      <trkpt lat="42.51652" lon="0.17891">
        <ele>889.2</ele>
        <time>2016-07-23T09:14:29Z</time>
      </trkpt>
      <trkpt lat="42.51653" lon="0.17896">
        <ele>889.8</ele>
        <time>2016-07-23T09:14:31Z</time>
      </trkpt>
      <trkpt lat="42.51654" lon="0.17901">
        <ele>890.6</ele>
        <time>2016-07-23T09:14:33Z</time>
      </trkpt>
      <trkpt lat="42.51654" lon="0.17907">
        <ele>891.5</ele>
        <time>2016-07-23T09:14:35Z</time>
      </trkpt>
      <trkpt lat="42.51653" lon="0.17913">
        <ele>892.7</ele>
        <time>2016-07-23T09:14:37Z</time>
      </trkpt>
      <trkpt lat="42.51652" lon="0.17919">
        <ele>893.8</ele>
        <time>2016-07-23T09:14:39Z</time>
      </trkpt>
      <trkpt lat="42.51651" lon="0.17924">
        <ele>894.9</ele>
        <time>2016-07-23T09:14:41Z</time>
      </trkpt>
      <trkpt lat="42.5165" lon="0.1793">
        <ele>896</ele>
        <time>2016-07-23T09:14:43Z</time>
      </trkpt>
      <trkpt lat="42.51649" lon="0.17935">
        <ele>897.1</ele>
        <time>2016-07-23T09:14:45Z</time>
      </trkpt>
      <trkpt lat="42.51648" lon="0.1794">
        <ele>898</ele>
        <time>2016-07-23T09:14:47Z</time>
      </trkpt>
      <trkpt lat="42.51648" lon="0.17944">
        <ele>899</ele>
        <time>2016-07-23T09:14:49Z</time>
      </trkpt>
      <trkpt lat="42.51647" lon="0.17949">
        <ele>899.9</ele>
        <time>2016-07-23T09:14:51Z</time>
      </trkpt>
      <trkpt lat="42.51646" lon="0.17952">
        <ele>900.6</ele>
        <time>2016-07-23T09:14:53Z</time>
      </trkpt>
      <trkpt lat="42.51645" lon="0.17956">
        <ele>901.5</ele>
        <time>2016-07-23T09:14:55Z</time>
      </trkpt>
      <trkpt lat="42.51645" lon="0.17961">
        <ele>902.4</ele>
        <time>2016-07-23T09:14:57Z</time>
      </trkpt>
      <trkpt lat="42.51645" lon="0.17966">
        <ele>903.2</ele>
        <time>2016-07-23T09:14:59Z</time>
      </trkpt>
      <trkpt lat="42.51646" lon="0.17972">
        <ele>903.9</ele>
        <time>2016-07-23T09:15:01Z</time>
      </trkpt>
      <trkpt lat="42.51648" lon="0.17976">
        <ele>904.2</ele>
        <time>2016-07-23T09:15:03Z</time>
      </trkpt>
      <trkpt lat="42.51652" lon="0.17979">
        <ele>904</ele>
        <time>2016-07-23T09:15:05Z</time>
      </trkpt>
      <trkpt lat="42.51657" lon="0.17981">
        <ele>903.3</ele>
        <time>2016-07-23T09:15:07Z</time>
      </trkpt>
      <trkpt lat="42.51662" lon="0.1798">
        <ele>902.3</ele>
        <time>2016-07-23T09:15:09Z</time>
      </trkpt>
      <trkpt lat="42.51666" lon="0.17978">
        <ele>901.2</ele>
        <time>2016-07-23T09:15:11Z</time>
      </trkpt>
      <trkpt lat="42.51669" lon="0.17974">
        <ele>899.9</ele>
        <time>2016-07-23T09:15:13Z</time>
      </trkpt>
      <trkpt lat="42.51672" lon="0.1797">
        <ele>898.6</ele>
        <time>2016-07-23T09:15:15Z</time>
      </trkpt>
      <trkpt lat="42.51675" lon="0.17967">
        <ele>897.3</ele>
        <time>2016-07-23T09:15:17Z</time>
      </trkpt>
      <trkpt lat="42.51679" lon="0.17965">
        <ele>896.2</ele>
        <time>2016-07-23T09:15:19Z</time>
      </trkpt>
      <trkpt lat="42.51683" lon="0.17964">
        <ele>895.4</ele>
        <time>2016-07-23T09:15:21Z</time>
      </trkpt>
      <trkpt lat="42.51687" lon="0.17965">
        <ele>894.7</ele>
        <time>2016-07-23T09:15:23Z</time>
      </trkpt>
      <trkpt lat="42.51691" lon="0.17967">
        <ele>894.3</ele>
        <time>2016-07-23T09:15:25Z</time>
      </trkpt>
      <trkpt lat="42.51696" lon="0.17968">
        <ele>893.5</ele>
        <time>2016-07-23T09:15:27Z</time>
      </trkpt>
      <trkpt lat="42.51701" lon="0.17966">
        <ele>892.2</ele>
        <time>2016-07-23T09:15:29Z</time>
      </trkpt>
      <trkpt lat="42.51705" lon="0.17963">
        <ele>890.7</ele>
        <time>2016-07-23T09:15:31Z</time>
      </trkpt>
      <trkpt lat="42.51708" lon="0.17958">
        <ele>889.2</ele>
        <time>2016-07-23T09:15:33Z</time>
      </trkpt>
      <trkpt lat="42.5171" lon="0.17954">
        <ele>888.4</ele>
        <time>2016-07-23T09:15:35Z</time>
      </trkpt>
      <trkpt lat="42.51712" lon="0.17949">
        <ele>887.9</ele>
        <time>2016-07-23T09:15:37Z</time>
      </trkpt>
      <trkpt lat="42.51714" lon="0.17944">
        <ele>887.3</ele>
        <time>2016-07-23T09:15:39Z</time>
      </trkpt>
      <trkpt lat="42.51717" lon="0.1794">
        <ele>886.9</ele>
        <time>2016-07-23T09:15:41Z</time>
      </trkpt>
      <trkpt lat="42.51721" lon="0.17936">
        <ele>886.6</ele>
        <time>2016-07-23T09:15:43Z</time>
      </trkpt>
      <trkpt lat="42.51725" lon="0.17935">
        <ele>886.7</ele>
        <time>2016-07-23T09:15:45Z</time>
      </trkpt>
      <trkpt lat="42.5173" lon="0.17936">
        <ele>887.2</ele>
        <time>2016-07-23T09:15:47Z</time>
      </trkpt>
      <trkpt lat="42.51733" lon="0.17937">
        <ele>887.5</ele>
        <time>2016-07-23T09:15:48Z</time>
      </trkpt>
      <trkpt lat="42.51736" lon="0.17938">
        <ele>887.9</ele>
        <time>2016-07-23T09:15:49Z</time>
      </trkpt>
      <trkpt lat="42.51739" lon="0.17939">
        <ele>888.3</ele>
        <time>2016-07-23T09:15:50Z</time>
      </trkpt>
      <trkpt lat="42.51742" lon="0.1794">
        <ele>888.6</ele>
        <time>2016-07-23T09:15:51Z</time>
      </trkpt>
      <trkpt lat="42.51745" lon="0.17941">
        <ele>888.9</ele>
        <time>2016-07-23T09:15:52Z</time>
      </trkpt>
      <trkpt lat="42.51748" lon="0.17941">
        <ele>889.1</ele>
        <time>2016-07-23T09:15:53Z</time>
      </trkpt>
      <trkpt lat="42.5175" lon="0.1794">
        <ele>889.2</ele>
        <time>2016-07-23T09:15:54Z</time>
      </trkpt>
      <trkpt lat="42.51756" lon="0.17939">
        <ele>889.3</ele>
        <time>2016-07-23T09:15:56Z</time>
      </trkpt>
      <trkpt lat="42.5176" lon="0.17936">
        <ele>889.2</ele>
        <time>2016-07-23T09:15:58Z</time>
      </trkpt>
      <trkpt lat="42.51765" lon="0.17933">
        <ele>889</ele>
        <time>2016-07-23T09:16:00Z</time>
      </trkpt>
      <trkpt lat="42.51769" lon="0.17929">
        <ele>888.6</ele>
        <time>2016-07-23T09:16:02Z</time>
      </trkpt>
      <trkpt lat="42.51774" lon="0.17926">
        <ele>888.5</ele>
        <time>2016-07-23T09:16:04Z</time>
      </trkpt>
      <trkpt lat="42.51776" lon="0.17925">
        <ele>888.5</ele>
        <time>2016-07-23T09:16:05Z</time>
      </trkpt>
      <trkpt lat="42.51779" lon="0.17924">
        <ele>888.4</ele>
        <time>2016-07-23T09:16:06Z</time>
      </trkpt>
      <trkpt lat="42.51781" lon="0.17922">
        <ele>888.3</ele>
        <time>2016-07-23T09:16:07Z</time>
      </trkpt>
      <trkpt lat="42.51784" lon="0.1792">
        <ele>888.1</ele>
        <time>2016-07-23T09:16:08Z</time>
      </trkpt>
      <trkpt lat="42.51786" lon="0.17918">
        <ele>887.9</ele>
        <time>2016-07-23T09:16:09Z</time>
      </trkpt>
      <trkpt lat="42.51789" lon="0.17916">
        <ele>887.7</ele>
        <time>2016-07-23T09:16:10Z</time>
      </trkpt>
      <trkpt lat="42.51791" lon="0.17914">
        <ele>887.5</ele>
        <time>2016-07-23T09:16:11Z</time>
      </trkpt>
      <trkpt lat="42.51793" lon="0.17912">
        <ele>887.5</ele>
        <time>2016-07-23T09:16:12Z</time>
      </trkpt>
      <trkpt lat="42.51795" lon="0.1791">
        <ele>887.6</ele>
        <time>2016-07-23T09:16:13Z</time>
      </trkpt>
      <trkpt lat="42.518" lon="0.17906">
        <ele>888</ele>
        <time>2016-07-23T09:16:15Z</time>
      </trkpt>
      <trkpt lat="42.51802" lon="0.17905">
        <ele>888.4</ele>
        <time>2016-07-23T09:16:16Z</time>
      </trkpt>
      <trkpt lat="42.51808" lon="0.17903">
        <ele>889.3</ele>
        <time>2016-07-23T09:16:18Z</time>
      </trkpt>
      <trkpt lat="42.51813" lon="0.17904">
        <ele>890.7</ele>
        <time>2016-07-23T09:16:20Z</time>
      </trkpt>
      <trkpt lat="42.51817" lon="0.17908">
        <ele>892</ele>
        <time>2016-07-23T09:16:22Z</time>
      </trkpt>
      <trkpt lat="42.5182" lon="0.17914">
        <ele>893.3</ele>
        <time>2016-07-23T09:16:24Z</time>
      </trkpt>
      <trkpt lat="42.51821" lon="0.17917">
        <ele>894</ele>
        <time>2016-07-23T09:16:25Z</time>
      </trkpt>
      <trkpt lat="42.51822" lon="0.1792">
        <ele>894.7</ele>
        <time>2016-07-23T09:16:26Z</time>
      </trkpt>
      <trkpt lat="42.51824" lon="0.17924">
        <ele>895.4</ele>
        <time>2016-07-23T09:16:27Z</time>
      </trkpt>
      <trkpt lat="42.51826" lon="0.17929">
        <ele>896.3</ele>
        <time>2016-07-23T09:16:28Z</time>
      </trkpt>
      <trkpt lat="42.51829" lon="0.17933">
        <ele>897.3</ele>
        <time>2016-07-23T09:16:29Z</time>
      </trkpt>
      <trkpt lat="42.51832" lon="0.17938">
        <ele>898.3</ele>
        <time>2016-07-23T09:16:30Z</time>
      </trkpt>
      <trkpt lat="42.51835" lon="0.17944">
        <ele>899.4</ele>
        <time>2016-07-23T09:16:31Z</time>
      </trkpt>
      <trkpt lat="42.51839" lon="0.17949">
        <ele>900.4</ele>
        <time>2016-07-23T09:16:32Z</time>
      </trkpt>
      <trkpt lat="42.51842" lon="0.17954">
        <ele>901.3</ele>
        <time>2016-07-23T09:16:33Z</time>
      </trkpt>
      <trkpt lat="42.51846" lon="0.17959">
        <ele>902.2</ele>
        <time>2016-07-23T09:16:34Z</time>
      </trkpt>
      <trkpt lat="42.51849" lon="0.17963">
        <ele>903.1</ele>
        <time>2016-07-23T09:16:35Z</time>
      </trkpt>
      <trkpt lat="42.51852" lon="0.17968">
        <ele>904</ele>
        <time>2016-07-23T09:16:36Z</time>
      </trkpt>
      <trkpt lat="42.51854" lon="0.17974">
        <ele>904.8</ele>
        <time>2016-07-23T09:16:37Z</time>
      </trkpt>
      <trkpt lat="42.51855" lon="0.1798">
        <ele>905.5</ele>
        <time>2016-07-23T09:16:38Z</time>
      </trkpt>
      <trkpt lat="42.51855" lon="0.17986">
        <ele>906.1</ele>
        <time>2016-07-23T09:16:39Z</time>
      </trkpt>
      <trkpt lat="42.51854" lon="0.17992">
        <ele>906.6</ele>
        <time>2016-07-23T09:16:40Z</time>
      </trkpt>
      <trkpt lat="42.51853" lon="0.17998">
        <ele>907.1</ele>
        <time>2016-07-23T09:16:41Z</time>
      </trkpt>
      <trkpt lat="42.51852" lon="0.18004">
        <ele>907.7</ele>
        <time>2016-07-23T09:16:42Z</time>
      </trkpt>
      <trkpt lat="42.51852" lon="0.18009">
        <ele>908.3</ele>
        <time>2016-07-23T09:16:43Z</time>
      </trkpt>
      <trkpt lat="42.51854" lon="0.18013">
        <ele>908.6</ele>
        <time>2016-07-23T09:16:44Z</time>
      </trkpt>
      <trkpt lat="42.51857" lon="0.18015">
        <ele>908.7</ele>
        <time>2016-07-23T09:16:45Z</time>
      </trkpt>
      <trkpt lat="42.51861" lon="0.18014">
        <ele>908.5</ele>
        <time>2016-07-23T09:16:46Z</time>
      </trkpt>
      <trkpt lat="42.51866" lon="0.18012">
        <ele>908.2</ele>
        <time>2016-07-23T09:16:47Z</time>
      </trkpt>
      <trkpt lat="42.5187" lon="0.1801">
        <ele>908</ele>
        <time>2016-07-23T09:16:48Z</time>
      </trkpt>
      <trkpt lat="42.51874" lon="0.18009">
        <ele>907.8</ele>
        <time>2016-07-23T09:16:49Z</time>
      </trkpt>
      <trkpt lat="42.51878" lon="0.18008">
        <ele>907.2</ele>
        <time>2016-07-23T09:16:50Z</time>
      </trkpt>
      <trkpt lat="42.51881" lon="0.18009">
        <ele>906.6</ele>
        <time>2016-07-23T09:16:51Z</time>
      </trkpt>
      <trkpt lat="42.51883" lon="0.18011">
        <ele>906.2</ele>
        <time>2016-07-23T09:16:52Z</time>
      </trkpt>
      <trkpt lat="42.51885" lon="0.18018">
        <ele>906</ele>
        <time>2016-07-23T09:16:54Z</time>
      </trkpt>
      <trkpt lat="42.51885" lon="0.18022">
        <ele>906.3</ele>
        <time>2016-07-23T09:16:55Z</time>
      </trkpt>
      <trkpt lat="42.51884" lon="0.18026">
        <ele>906.7</ele>
        <time>2016-07-23T09:16:56Z</time>
      </trkpt>
      <trkpt lat="42.51883" lon="0.1803">
        <ele>907.1</ele>
        <time>2016-07-23T09:16:57Z</time>
      </trkpt>
      <trkpt lat="42.51882" lon="0.18034">
        <ele>907.4</ele>
        <time>2016-07-23T09:16:58Z</time>
      </trkpt>
      <trkpt lat="42.51882" lon="0.18038">
        <ele>907.7</ele>
        <time>2016-07-23T09:16:59Z</time>
      </trkpt>
      <trkpt lat="42.51881" lon="0.18042">
        <ele>908</ele>
        <time>2016-07-23T09:17:00Z</time>
      </trkpt>
      <trkpt lat="42.51881" lon="0.18046">
        <ele>908.6</ele>
        <time>2016-07-23T09:17:01Z</time>
      </trkpt>
      <trkpt lat="42.5188" lon="0.18049">
        <ele>909.2</ele>
        <time>2016-07-23T09:17:02Z</time>
      </trkpt>
      <trkpt lat="42.51878" lon="0.18056">
        <ele>910.4</ele>
        <time>2016-07-23T09:17:04Z</time>
      </trkpt>
      <trkpt lat="42.51877" lon="0.18063">
        <ele>911.5</ele>
        <time>2016-07-23T09:17:06Z</time>
      </trkpt>
      <trkpt lat="42.51876" lon="0.18069">
        <ele>912.5</ele>
        <time>2016-07-23T09:17:08Z</time>
      </trkpt>
      <trkpt lat="42.51875" lon="0.18076">
        <ele>913.5</ele>
        <time>2016-07-23T09:17:10Z</time>
      </trkpt>
      <trkpt lat="42.51875" lon="0.18083">
        <ele>914.3</ele>
        <time>2016-07-23T09:17:12Z</time>
      </trkpt>
      <trkpt lat="42.51877" lon="0.18089">
        <ele>914.9</ele>
        <time>2016-07-23T09:17:14Z</time>
      </trkpt>
      <trkpt lat="42.51881" lon="0.18093">
        <ele>914.8</ele>
        <time>2016-07-23T09:17:16Z</time>
      </trkpt>
      <trkpt lat="42.51884" lon="0.18094">
        <ele>914.6</ele>
        <time>2016-07-23T09:17:17Z</time>
      </trkpt>
      <trkpt lat="42.51887" lon="0.18095">
        <ele>914.3</ele>
        <time>2016-07-23T09:17:18Z</time>
      </trkpt>
      <trkpt lat="42.51889" lon="0.18095">
        <ele>914</ele>
        <time>2016-07-23T09:17:19Z</time>
      </trkpt>
      <trkpt lat="42.51892" lon="0.18095">
        <ele>913.6</ele>
        <time>2016-07-23T09:17:20Z</time>
      </trkpt>
      <trkpt lat="42.51895" lon="0.18095">
        <ele>913.2</ele>
        <time>2016-07-23T09:17:21Z</time>
      </trkpt>
      <trkpt lat="42.519" lon="0.18095">
        <ele>912.4</ele>
        <time>2016-07-23T09:17:23Z</time>
      </trkpt>
      <trkpt lat="42.51903" lon="0.18096">
        <ele>912.1</ele>
        <time>2016-07-23T09:17:24Z</time>
      </trkpt>
      <trkpt lat="42.51908" lon="0.18097">
        <ele>911.5</ele>
        <time>2016-07-23T09:17:26Z</time>
      </trkpt>
      <trkpt lat="42.51913" lon="0.18099">
        <ele>911.1</ele>
        <time>2016-07-23T09:17:28Z</time>
      </trkpt>
      <trkpt lat="42.51918" lon="0.181">
        <ele>910.6</ele>
        <time>2016-07-23T09:17:30Z</time>
      </trkpt>
      <trkpt lat="42.51923" lon="0.181">
        <ele>909.8</ele>
        <time>2016-07-23T09:17:32Z</time>
      </trkpt>
      <trkpt lat="42.51927" lon="0.18096">
        <ele>908.7</ele>
        <time>2016-07-23T09:17:34Z</time>
      </trkpt>
      <trkpt lat="42.51928" lon="0.1809">
        <ele>907.5</ele>
        <time>2016-07-23T09:17:36Z</time>
      </trkpt>
      <trkpt lat="42.51929" lon="0.18083">
        <ele>906.4</ele>
        <time>2016-07-23T09:17:38Z</time>
      </trkpt>
      <trkpt lat="42.51931" lon="0.18077">
        <ele>905.2</ele>
        <time>2016-07-23T09:17:40Z</time>
      </trkpt>
      <trkpt lat="42.51932" lon="0.18072">
        <ele>904.1</ele>
        <time>2016-07-23T09:17:42Z</time>
      </trkpt>
      <trkpt lat="42.51935" lon="0.18067">
        <ele>903</ele>
        <time>2016-07-23T09:17:44Z</time>
      </trkpt>
      <trkpt lat="42.51938" lon="0.18064">
        <ele>902</ele>
        <time>2016-07-23T09:17:46Z</time>
      </trkpt>
      <trkpt lat="42.51941" lon="0.1806">
        <ele>900.8</ele>
        <time>2016-07-23T09:17:48Z</time>
      </trkpt>
      <trkpt lat="42.51945" lon="0.18058">
        <ele>899.8</ele>
        <time>2016-07-23T09:17:50Z</time>
      </trkpt>
      <trkpt lat="42.51949" lon="0.18057">
        <ele>899.1</ele>
        <time>2016-07-23T09:17:52Z</time>
      </trkpt>
      <trkpt lat="42.51953" lon="0.18058">
        <ele>898.5</ele>
        <time>2016-07-23T09:17:54Z</time>
      </trkpt>
      <trkpt lat="42.51957" lon="0.1806">
        <ele>898.2</ele>
        <time>2016-07-23T09:17:56Z</time>
      </trkpt>
      <trkpt lat="42.51961" lon="0.18063">
        <ele>898.7</ele>
        <time>2016-07-23T09:17:58Z</time>
      </trkpt>
      <trkpt lat="42.51964" lon="0.18068">
        <ele>899.5</ele>
        <time>2016-07-23T09:18:00Z</time>
      </trkpt>
      <trkpt lat="42.51966" lon="0.18072">
        <ele>900.4</ele>
        <time>2016-07-23T09:18:02Z</time>
      </trkpt>
      <trkpt lat="42.51968" lon="0.18078">
        <ele>901.4</ele>
        <time>2016-07-23T09:18:04Z</time>
      </trkpt>
      <trkpt lat="42.51969" lon="0.18084">
        <ele>902.5</ele>
        <time>2016-07-23T09:18:06Z</time>
      </trkpt>
      <trkpt lat="42.5197" lon="0.1809">
        <ele>903.5</ele>
        <time>2016-07-23T09:18:08Z</time>
      </trkpt>
      <trkpt lat="42.51971" lon="0.18096">
        <ele>904.6</ele>
        <time>2016-07-23T09:18:10Z</time>
      </trkpt>
      <trkpt lat="42.51974" lon="0.18101">
        <ele>905.6</ele>
        <time>2016-07-23T09:18:12Z</time>
      </trkpt>
      <trkpt lat="42.51977" lon="0.18106">
        <ele>906.5</ele>
        <time>2016-07-23T09:18:14Z</time>
      </trkpt>
      <trkpt lat="42.51979" lon="0.1811">
        <ele>907.4</ele>
        <time>2016-07-23T09:18:16Z</time>
      </trkpt>
      <trkpt lat="42.51983" lon="0.18114">
        <ele>908.3</ele>
        <time>2016-07-23T09:18:18Z</time>
      </trkpt>
      <trkpt lat="42.51986" lon="0.18119">
        <ele>909.2</ele>
        <time>2016-07-23T09:18:20Z</time>
      </trkpt>
      <trkpt lat="42.51989" lon="0.18122">
        <ele>910</ele>
        <time>2016-07-23T09:18:22Z</time>
      </trkpt>
      <trkpt lat="42.51992" lon="0.18125">
        <ele>910.6</ele>
        <time>2016-07-23T09:18:24Z</time>
      </trkpt>
      <trkpt lat="42.51995" lon="0.18128">
        <ele>911.3</ele>
        <time>2016-07-23T09:18:26Z</time>
      </trkpt>
      <trkpt lat="42.51998" lon="0.18131">
        <ele>912</ele>
        <time>2016-07-23T09:18:28Z</time>
      </trkpt>
      <trkpt lat="42.52001" lon="0.18134">
        <ele>912.8</ele>
        <time>2016-07-23T09:18:30Z</time>
      </trkpt>
      <trkpt lat="42.52005" lon="0.18138">
        <ele>913.7</ele>
        <time>2016-07-23T09:18:32Z</time>
      </trkpt>
      <trkpt lat="42.52009" lon="0.18141">
        <ele>914.5</ele>
        <time>2016-07-23T09:18:34Z</time>
      </trkpt>
      <trkpt lat="42.52013" lon="0.18144">
        <ele>915.2</ele>
        <time>2016-07-23T09:18:36Z</time>
      </trkpt>
      <trkpt lat="42.52017" lon="0.18147">
        <ele>915.9</ele>
        <time>2016-07-23T09:18:38Z</time>
      </trkpt>
      <trkpt lat="42.52021" lon="0.18151">
        <ele>916.6</ele>
        <time>2016-07-23T09:18:40Z</time>
      </trkpt>
      <trkpt lat="42.52025" lon="0.18154">
        <ele>917.4</ele>
        <time>2016-07-23T09:18:42Z</time>
      </trkpt>
      <trkpt lat="42.52029" lon="0.18159">
        <ele>918.3</ele>
        <time>2016-07-23T09:18:44Z</time>
      </trkpt>
      <trkpt lat="42.52031" lon="0.18163">
        <ele>919.1</ele>
        <time>2016-07-23T09:18:46Z</time>
      </trkpt>
      <trkpt lat="42.52034" lon="0.18168">
        <ele>920</ele>
        <time>2016-07-23T09:18:48Z</time>
      </trkpt>
      <trkpt lat="42.52037" lon="0.18174">
        <ele>921.1</ele>
        <time>2016-07-23T09:18:50Z</time>
      </trkpt>
      <trkpt lat="42.52038" lon="0.18181">
        <ele>922.3</ele>
        <time>2016-07-23T09:18:52Z</time>
      </trkpt>
      <trkpt lat="42.52039" lon="0.18184">
        <ele>922.9</ele>
        <time>2016-07-23T09:18:53Z</time>
      </trkpt>
      <trkpt lat="42.5204" lon="0.18188">
        <ele>923.6</ele>
        <time>2016-07-23T09:18:54Z</time>
      </trkpt>
      <trkpt lat="42.52042" lon="0.18193">
        <ele>924.3</ele>
        <time>2016-07-23T09:18:55Z</time>
      </trkpt>
      <trkpt lat="42.52043" lon="0.18197">
        <ele>924.9</ele>
        <time>2016-07-23T09:18:56Z</time>
      </trkpt>
      <trkpt lat="42.52045" lon="0.18202">
        <ele>925.3</ele>
        <time>2016-07-23T09:18:57Z</time>
      </trkpt>
      <trkpt lat="42.52047" lon="0.18207">
        <ele>925.7</ele>
        <time>2016-07-23T09:18:58Z</time>
      </trkpt>
      <trkpt lat="42.5205" lon="0.18211">
        <ele>925.8</ele>
        <time>2016-07-23T09:18:59Z</time>
      </trkpt>
      <trkpt lat="42.52054" lon="0.18213">
        <ele>925.6</ele>
        <time>2016-07-23T09:19:00Z</time>
      </trkpt>
      <trkpt lat="42.52058" lon="0.18214">
        <ele>925</ele>
        <time>2016-07-23T09:19:01Z</time>
      </trkpt>
      <trkpt lat="42.52062" lon="0.18213">
        <ele>924.1</ele>
        <time>2016-07-23T09:19:02Z</time>
      </trkpt>
      <trkpt lat="42.52065" lon="0.18212">
        <ele>923.1</ele>
        <time>2016-07-23T09:19:03Z</time>
      </trkpt>
      <trkpt lat="42.52068" lon="0.1821">
        <ele>922.2</ele>
        <time>2016-07-23T09:19:04Z</time>
      </trkpt>
      <trkpt lat="42.52071" lon="0.18209">
        <ele>921.4</ele>
        <time>2016-07-23T09:19:05Z</time>
      </trkpt>
      <trkpt lat="42.52076" lon="0.18208">
        <ele>920.4</ele>
        <time>2016-07-23T09:19:07Z</time>
      </trkpt>
      <trkpt lat="42.52081" lon="0.1821">
        <ele>919.8</ele>
        <time>2016-07-23T09:19:09Z</time>
      </trkpt>
      <trkpt lat="42.52084" lon="0.18212">
        <ele>919.8</ele>
        <time>2016-07-23T09:19:10Z</time>
      </trkpt>
      <trkpt lat="42.52086" lon="0.18215">
        <ele>920.1</ele>
        <time>2016-07-23T09:19:11Z</time>
      </trkpt>
      <trkpt lat="42.52087" lon="0.18219">
        <ele>920.6</ele>
        <time>2016-07-23T09:19:12Z</time>
      </trkpt>
      <trkpt lat="42.52089" lon="0.18223">
        <ele>921.2</ele>
        <time>2016-07-23T09:19:13Z</time>
      </trkpt>
      <trkpt lat="42.5209" lon="0.18228">
        <ele>922</ele>
        <time>2016-07-23T09:19:14Z</time>
      </trkpt>
      <trkpt lat="42.52092" lon="0.18233">
        <ele>922.7</ele>
        <time>2016-07-23T09:19:15Z</time>
      </trkpt>
      <trkpt lat="42.52093" lon="0.18238">
        <ele>923.4</ele>
        <time>2016-07-23T09:19:16Z</time>
      </trkpt>
      <trkpt lat="42.52095" lon="0.18243">
        <ele>924.2</ele>
        <time>2016-07-23T09:19:17Z</time>
      </trkpt>
      <trkpt lat="42.52096" lon="0.18249">
        <ele>925.1</ele>
        <time>2016-07-23T09:19:18Z</time>
      </trkpt>
      <trkpt lat="42.52098" lon="0.18254">
        <ele>925.8</ele>
        <time>2016-07-23T09:19:19Z</time>
      </trkpt>
      <trkpt lat="42.521" lon="0.18258">
        <ele>926.4</ele>
        <time>2016-07-23T09:19:20Z</time>
      </trkpt>
      <trkpt lat="42.52102" lon="0.18262">
        <ele>926.6</ele>
        <time>2016-07-23T09:19:21Z</time>
      </trkpt>
      <trkpt lat="42.52105" lon="0.18264">
        <ele>926.5</ele>
        <time>2016-07-23T09:19:22Z</time>
      </trkpt>
      <trkpt lat="42.52109" lon="0.18265">
        <ele>926</ele>
        <time>2016-07-23T09:19:23Z</time>
      </trkpt>
      <trkpt lat="42.52113" lon="0.18265">
        <ele>925.2</ele>
        <time>2016-07-23T09:19:24Z</time>
      </trkpt>
      <trkpt lat="42.52116" lon="0.18265">
        <ele>924.3</ele>
        <time>2016-07-23T09:19:25Z</time>
      </trkpt>
      <trkpt lat="42.5212" lon="0.18264">
        <ele>923.4</ele>
        <time>2016-07-23T09:19:26Z</time>
      </trkpt>
      <trkpt lat="42.52123" lon="0.18263">
        <ele>922.5</ele>
        <time>2016-07-23T09:19:27Z</time>
      </trkpt>
      <trkpt lat="42.52126" lon="0.18262">
        <ele>921.8</ele>
        <time>2016-07-23T09:19:28Z</time>
      </trkpt>
      <trkpt lat="42.52129" lon="0.1826">
        <ele>921.3</ele>
        <time>2016-07-23T09:19:29Z</time>
      </trkpt>
      <trkpt lat="42.52132" lon="0.1826">
        <ele>921</ele>
        <time>2016-07-23T09:19:30Z</time>
      </trkpt>
      <trkpt lat="42.52135" lon="0.18259">
        <ele>920.7</ele>
        <time>2016-07-23T09:19:31Z</time>
      </trkpt>
      <trkpt lat="42.52138" lon="0.1826">
        <ele>920.6</ele>
        <time>2016-07-23T09:19:32Z</time>
      </trkpt>
      <trkpt lat="42.52141" lon="0.18261">
        <ele>920.6</ele>
        <time>2016-07-23T09:19:33Z</time>
      </trkpt>
      <trkpt lat="42.52144" lon="0.18262">
        <ele>920.7</ele>
        <time>2016-07-23T09:19:34Z</time>
      </trkpt>
      <trkpt lat="42.52146" lon="0.18264">
        <ele>920.9</ele>
        <time>2016-07-23T09:19:35Z</time>
      </trkpt>
      <trkpt lat="42.52149" lon="0.18266">
        <ele>921</ele>
        <time>2016-07-23T09:19:36Z</time>
      </trkpt>
      <trkpt lat="42.52151" lon="0.18267">
        <ele>921.2</ele>
        <time>2016-07-23T09:19:37Z</time>
      </trkpt>
      <trkpt lat="42.52156" lon="0.1827">
        <ele>921.5</ele>
        <time>2016-07-23T09:19:39Z</time>
      </trkpt>
      <trkpt lat="42.52158" lon="0.18272">
        <ele>921.7</ele>
        <time>2016-07-23T09:19:40Z</time>
      </trkpt>
      <trkpt lat="42.52163" lon="0.18276">
        <ele>922</ele>
        <time>2016-07-23T09:19:42Z</time>
      </trkpt>
      <trkpt lat="42.52167" lon="0.1828">
        <ele>922.3</ele>
        <time>2016-07-23T09:19:44Z</time>
      </trkpt>
      <trkpt lat="42.52172" lon="0.18283">
        <ele>922.6</ele>
        <time>2016-07-23T09:19:46Z</time>
      </trkpt>
      <trkpt lat="42.52176" lon="0.18286">
        <ele>922.7</ele>
        <time>2016-07-23T09:19:48Z</time>
      </trkpt>
      <trkpt lat="42.52181" lon="0.18287">
        <ele>922.5</ele>
        <time>2016-07-23T09:19:50Z</time>
      </trkpt>
      <trkpt lat="42.52185" lon="0.18288">
        <ele>922.3</ele>
        <time>2016-07-23T09:19:52Z</time>
      </trkpt>
      <trkpt lat="42.5219" lon="0.18289">
        <ele>922.1</ele>
        <time>2016-07-23T09:19:54Z</time>
      </trkpt>
      <trkpt lat="42.52194" lon="0.18289">
        <ele>921.8</ele>
        <time>2016-07-23T09:19:56Z</time>
      </trkpt>
      <trkpt lat="42.52199" lon="0.18291">
        <ele>921.6</ele>
        <time>2016-07-23T09:19:58Z</time>
      </trkpt>
      <trkpt lat="42.52204" lon="0.18291">
        <ele>921.4</ele>
        <time>2016-07-23T09:20:00Z</time>
      </trkpt>
      <trkpt lat="42.52208" lon="0.18292">
        <ele>921</ele>
        <time>2016-07-23T09:20:02Z</time>
      </trkpt>
      <trkpt lat="42.52213" lon="0.18292">
        <ele>921.6</ele>
        <time>2016-07-23T09:20:04Z</time>
      </trkpt>
      <trkpt lat="42.52218" lon="0.18292">
        <ele>921.9</ele>
        <time>2016-07-23T09:20:06Z</time>
      </trkpt>
      <trkpt lat="42.52223" lon="0.1829">
        <ele>922.2</ele>
        <time>2016-07-23T09:20:08Z</time>
      </trkpt>
      <trkpt lat="42.52228" lon="0.18291">
        <ele>922.8</ele>
        <time>2016-07-23T09:20:10Z</time>
      </trkpt>
      <trkpt lat="42.52233" lon="0.18293">
        <ele>923.7</ele>
        <time>2016-07-23T09:20:12Z</time>
      </trkpt>
      <trkpt lat="42.52235" lon="0.18295">
        <ele>924.2</ele>
        <time>2016-07-23T09:20:13Z</time>
      </trkpt>
      <trkpt lat="42.52238" lon="0.18296">
        <ele>924.7</ele>
        <time>2016-07-23T09:20:14Z</time>
      </trkpt>
      <trkpt lat="42.52241" lon="0.18297">
        <ele>925.3</ele>
        <time>2016-07-23T09:20:15Z</time>
      </trkpt>
      <trkpt lat="42.52243" lon="0.18299">
        <ele>925.8</ele>
        <time>2016-07-23T09:20:16Z</time>
      </trkpt>
      <trkpt lat="42.52246" lon="0.183">
        <ele>926.2</ele>
        <time>2016-07-23T09:20:17Z</time>
      </trkpt>
      <trkpt lat="42.52248" lon="0.18301">
        <ele>926.7</ele>
        <time>2016-07-23T09:20:18Z</time>
      </trkpt>
      <trkpt lat="42.52251" lon="0.18302">
        <ele>927</ele>
        <time>2016-07-23T09:20:19Z</time>
      </trkpt>
      <trkpt lat="42.52254" lon="0.18302">
        <ele>927.3</ele>
        <time>2016-07-23T09:20:20Z</time>
      </trkpt>
      <trkpt lat="42.52257" lon="0.18302">
        <ele>927.5</ele>
        <time>2016-07-23T09:20:21Z</time>
      </trkpt>
      <trkpt lat="42.52262" lon="0.18301">
        <ele>927.6</ele>
        <time>2016-07-23T09:20:23Z</time>
      </trkpt>
      <trkpt lat="42.52267" lon="0.18298">
        <ele>927.6</ele>
        <time>2016-07-23T09:20:25Z</time>
      </trkpt>
      <trkpt lat="42.52271" lon="0.18296">
        <ele>927.6</ele>
        <time>2016-07-23T09:20:27Z</time>
      </trkpt>
      <trkpt lat="42.52275" lon="0.18292">
        <ele>927.4</ele>
        <time>2016-07-23T09:20:29Z</time>
      </trkpt>
      <trkpt lat="42.52279" lon="0.18287">
        <ele>927.7</ele>
        <time>2016-07-23T09:20:31Z</time>
      </trkpt>
      <trkpt lat="42.52282" lon="0.18285">
        <ele>927.9</ele>
        <time>2016-07-23T09:20:32Z</time>
      </trkpt>
      <trkpt lat="42.52284" lon="0.18283">
        <ele>928.2</ele>
        <time>2016-07-23T09:20:33Z</time>
      </trkpt>
      <trkpt lat="42.52287" lon="0.18281">
        <ele>928.5</ele>
        <time>2016-07-23T09:20:34Z</time>
      </trkpt>
      <trkpt lat="42.5229" lon="0.18278">
        <ele>928.8</ele>
        <time>2016-07-23T09:20:35Z</time>
      </trkpt>
      <trkpt lat="42.52293" lon="0.18276">
        <ele>929</ele>
        <time>2016-07-23T09:20:36Z</time>
      </trkpt>
      <trkpt lat="42.52297" lon="0.18273">
        <ele>929</ele>
        <time>2016-07-23T09:20:37Z</time>
      </trkpt>
      <trkpt lat="42.523" lon="0.18271">
        <ele>929.1</ele>
        <time>2016-07-23T09:20:38Z</time>
      </trkpt>
      <trkpt lat="42.52304" lon="0.18268">
        <ele>929.1</ele>
        <time>2016-07-23T09:20:39Z</time>
      </trkpt>
      <trkpt lat="42.52308" lon="0.18265">
        <ele>929.2</ele>
        <time>2016-07-23T09:20:40Z</time>
      </trkpt>
      <trkpt lat="42.52311" lon="0.18262">
        <ele>929.3</ele>
        <time>2016-07-23T09:20:41Z</time>
      </trkpt>
      <trkpt lat="42.52315" lon="0.1826">
        <ele>929.3</ele>
        <time>2016-07-23T09:20:42Z</time>
      </trkpt>
      <trkpt lat="42.52319" lon="0.18257">
        <ele>929.4</ele>
        <time>2016-07-23T09:20:43Z</time>
      </trkpt>
      <trkpt lat="42.52323" lon="0.18255">
        <ele>929.5</ele>
        <time>2016-07-23T09:20:44Z</time>
      </trkpt>
      <trkpt lat="42.52327" lon="0.18253">
        <ele>929.6</ele>
        <time>2016-07-23T09:20:45Z</time>
      </trkpt>
      <trkpt lat="42.52332" lon="0.18251">
        <ele>929.7</ele>
        <time>2016-07-23T09:20:46Z</time>
      </trkpt>
      <trkpt lat="42.52337" lon="0.18248">
        <ele>929.9</ele>
        <time>2016-07-23T09:20:47Z</time>
      </trkpt>
      <trkpt lat="42.52342" lon="0.18245">
        <ele>930</ele>
        <time>2016-07-23T09:20:48Z</time>
      </trkpt>
      <trkpt lat="42.52347" lon="0.18242">
        <ele>930.2</ele>
        <time>2016-07-23T09:20:49Z</time>
      </trkpt>
      <trkpt lat="42.52353" lon="0.1824">
        <ele>930.4</ele>
        <time>2016-07-23T09:20:50Z</time>
      </trkpt>
      <trkpt lat="42.52358" lon="0.18238">
        <ele>930.5</ele>
        <time>2016-07-23T09:20:51Z</time>
      </trkpt>
      <trkpt lat="42.52362" lon="0.18238">
        <ele>930.6</ele>
        <time>2016-07-23T09:20:52Z</time>
      </trkpt>
      <trkpt lat="42.52367" lon="0.18239">
        <ele>930.7</ele>
        <time>2016-07-23T09:20:53Z</time>
      </trkpt>
      <trkpt lat="42.5237" lon="0.18241">
        <ele>930.7</ele>
        <time>2016-07-23T09:20:54Z</time>
      </trkpt>
      <trkpt lat="42.52373" lon="0.18245">
        <ele>930.6</ele>
        <time>2016-07-23T09:20:55Z</time>
      </trkpt>
      <trkpt lat="42.52375" lon="0.18251">
        <ele>930.5</ele>
        <time>2016-07-23T09:20:56Z</time>
      </trkpt>
      <trkpt lat="42.52376" lon="0.18259">
        <ele>930.2</ele>
        <time>2016-07-23T09:20:57Z</time>
      </trkpt>
      <trkpt lat="42.52375" lon="0.18267">
        <ele>929.9</ele>
        <time>2016-07-23T09:20:58Z</time>
      </trkpt>
      <trkpt lat="42.52372" lon="0.18274">
        <ele>929.6</ele>
        <time>2016-07-23T09:20:59Z</time>
      </trkpt>
      <trkpt lat="42.52369" lon="0.18281">
        <ele>929.4</ele>
        <time>2016-07-23T09:21:00Z</time>
      </trkpt>
      <trkpt lat="42.52365" lon="0.18288">
        <ele>929.1</ele>
        <time>2016-07-23T09:21:01Z</time>
      </trkpt>
      <trkpt lat="42.52361" lon="0.18295">
        <ele>928.8</ele>
        <time>2016-07-23T09:21:02Z</time>
      </trkpt>
      <trkpt lat="42.52356" lon="0.18301">
        <ele>928.6</ele>
        <time>2016-07-23T09:21:03Z</time>
      </trkpt>
      <trkpt lat="42.52351" lon="0.18307">
        <ele>928.5</ele>
        <time>2016-07-23T09:21:04Z</time>
      </trkpt>
      <trkpt lat="42.52345" lon="0.18313">
        <ele>928.6</ele>
        <time>2016-07-23T09:21:05Z</time>
      </trkpt>
      <trkpt lat="42.52339" lon="0.18319">
        <ele>928.8</ele>
        <time>2016-07-23T09:21:06Z</time>
      </trkpt>
      <trkpt lat="42.52332" lon="0.18326">
        <ele>929.3</ele>
        <time>2016-07-23T09:21:07Z</time>
      </trkpt>
      <trkpt lat="42.52328" lon="0.18336">
        <ele>929.8</ele>
        <time>2016-07-23T09:21:08Z</time>
      </trkpt>
      <trkpt lat="42.52325" lon="0.18345">
        <ele>930.3</ele>
        <time>2016-07-23T09:21:09Z</time>
      </trkpt>
      <trkpt lat="42.52321" lon="0.18355">
        <ele>931.1</ele>
        <time>2016-07-23T09:21:10Z</time>
      </trkpt>
      <trkpt lat="42.52319" lon="0.18365">
        <ele>931.7</ele>
        <time>2016-07-23T09:21:11Z</time>
      </trkpt>
      <trkpt lat="42.52318" lon="0.18375">
        <ele>932.3</ele>
        <time>2016-07-23T09:21:12Z</time>
      </trkpt>
      <trkpt lat="42.52317" lon="0.18385">
        <ele>932.9</ele>
        <time>2016-07-23T09:21:13Z</time>
      </trkpt>
      <trkpt lat="42.52317" lon="0.18395">
        <ele>933.5</ele>
        <time>2016-07-23T09:21:14Z</time>
      </trkpt>
      <trkpt lat="42.52317" lon="0.18405">
        <ele>933.9</ele>
        <time>2016-07-23T09:21:15Z</time>
      </trkpt>
      <trkpt lat="42.52319" lon="0.18414">
        <ele>934.1</ele>
        <time>2016-07-23T09:21:16Z</time>
      </trkpt>
      <trkpt lat="42.52321" lon="0.18422">
        <ele>934</ele>
        <time>2016-07-23T09:21:17Z</time>
      </trkpt>
      <trkpt lat="42.52323" lon="0.1843">
        <ele>933.7</ele>
        <time>2016-07-23T09:21:18Z</time>
      </trkpt>
      <trkpt lat="42.52323" lon="0.18438">
        <ele>933.8</ele>
        <time>2016-07-23T09:21:19Z</time>
      </trkpt>
      <trkpt lat="42.52323" lon="0.18445">
        <ele>934.1</ele>
        <time>2016-07-23T09:21:20Z</time>
      </trkpt>
      <trkpt lat="42.52323" lon="0.18451">
        <ele>934.5</ele>
        <time>2016-07-23T09:21:21Z</time>
      </trkpt>
      <trkpt lat="42.52322" lon="0.18457">
        <ele>934.9</ele>
        <time>2016-07-23T09:21:22Z</time>
      </trkpt>
      <trkpt lat="42.52321" lon="0.18462">
        <ele>935.6</ele>
        <time>2016-07-23T09:21:23Z</time>
      </trkpt>
      <trkpt lat="42.52321" lon="0.18467">
        <ele>936.2</ele>
        <time>2016-07-23T09:21:24Z</time>
      </trkpt>
      <trkpt lat="42.5232" lon="0.18472">
        <ele>936.8</ele>
        <time>2016-07-23T09:21:25Z</time>
      </trkpt>
      <trkpt lat="42.52319" lon="0.18477">
        <ele>937.3</ele>
        <time>2016-07-23T09:21:26Z</time>
      </trkpt>
      <trkpt lat="42.52319" lon="0.18482">
        <ele>937.6</ele>
        <time>2016-07-23T09:21:27Z</time>
      </trkpt>
      <trkpt lat="42.52319" lon="0.18487">
        <ele>937.9</ele>
        <time>2016-07-23T09:21:28Z</time>
      </trkpt>
      <trkpt lat="42.5232" lon="0.18491">
        <ele>938.2</ele>
        <time>2016-07-23T09:21:29Z</time>
      </trkpt>
      <trkpt lat="42.52319" lon="0.18495">
        <ele>938.6</ele>
        <time>2016-07-23T09:21:30Z</time>
      </trkpt>
      <trkpt lat="42.52319" lon="0.185">
        <ele>939.1</ele>
        <time>2016-07-23T09:21:31Z</time>
      </trkpt>
      <trkpt lat="42.52319" lon="0.18504">
        <ele>939.3</ele>
        <time>2016-07-23T09:21:32Z</time>
      </trkpt>
      <trkpt lat="42.52319" lon="0.18508">
        <ele>939.7</ele>
        <time>2016-07-23T09:21:33Z</time>
      </trkpt>
      <trkpt lat="42.52319" lon="0.18513">
        <ele>940</ele>
        <time>2016-07-23T09:21:34Z</time>
      </trkpt>
      <trkpt lat="42.52319" lon="0.18517">
        <ele>940.3</ele>
        <time>2016-07-23T09:21:35Z</time>
      </trkpt>
      <trkpt lat="42.52319" lon="0.18521">
        <ele>940.6</ele>
        <time>2016-07-23T09:21:36Z</time>
      </trkpt>
      <trkpt lat="42.52319" lon="0.18526">
        <ele>940.9</ele>
        <time>2016-07-23T09:21:37Z</time>
      </trkpt>
      <trkpt lat="42.52319" lon="0.1853">
        <ele>941.1</ele>
        <time>2016-07-23T09:21:38Z</time>
      </trkpt>
      <trkpt lat="42.52319" lon="0.18534">
        <ele>941.3</ele>
        <time>2016-07-23T09:21:39Z</time>
      </trkpt>
      <trkpt lat="42.52319" lon="0.18541">
        <ele>941.6</ele>
        <time>2016-07-23T09:21:41Z</time>
      </trkpt>
      <trkpt lat="42.5232" lon="0.18548">
        <ele>942.3</ele>
        <time>2016-07-23T09:21:43Z</time>
      </trkpt>
      <trkpt lat="42.52319" lon="0.18552">
        <ele>942.7</ele>
        <time>2016-07-23T09:21:44Z</time>
      </trkpt>
      <trkpt lat="42.52319" lon="0.18559">
        <ele>943.4</ele>
        <time>2016-07-23T09:21:46Z</time>
      </trkpt>
      <trkpt lat="42.52321" lon="0.18565">
        <ele>943.6</ele>
        <time>2016-07-23T09:21:48Z</time>
      </trkpt>
      <trkpt lat="42.52324" lon="0.18572">
        <ele>943.3</ele>
        <time>2016-07-23T09:21:50Z</time>
      </trkpt>
      <trkpt lat="42.52325" lon="0.18575">
        <ele>943.1</ele>
        <time>2016-07-23T09:21:51Z</time>
      </trkpt>
      <trkpt lat="42.52327" lon="0.18578">
        <ele>942.8</ele>
        <time>2016-07-23T09:21:52Z</time>
      </trkpt>
      <trkpt lat="42.5233" lon="0.18583">
        <ele>942.2</ele>
        <time>2016-07-23T09:21:54Z</time>
      </trkpt>
      <trkpt lat="42.52334" lon="0.18587">
        <ele>941.3</ele>
        <time>2016-07-23T09:21:56Z</time>
      </trkpt>
      <trkpt lat="42.52339" lon="0.18591">
        <ele>940.3</ele>
        <time>2016-07-23T09:21:58Z</time>
      </trkpt>
      <trkpt lat="42.52343" lon="0.18594">
        <ele>939.1</ele>
        <time>2016-07-23T09:22:00Z</time>
      </trkpt>
      <trkpt lat="42.52348" lon="0.18595">
        <ele>937.6</ele>
        <time>2016-07-23T09:22:02Z</time>
      </trkpt>
      <trkpt lat="42.52353" lon="0.18594">
        <ele>936</ele>
        <time>2016-07-23T09:22:04Z</time>
      </trkpt>
      <trkpt lat="42.52357" lon="0.18592">
        <ele>934.3</ele>
        <time>2016-07-23T09:22:06Z</time>
      </trkpt>
      <trkpt lat="42.52361" lon="0.18589">
        <ele>932.7</ele>
        <time>2016-07-23T09:22:08Z</time>
      </trkpt>
      <trkpt lat="42.52365" lon="0.18588">
        <ele>931.2</ele>
        <time>2016-07-23T09:22:10Z</time>
      </trkpt>
      <trkpt lat="42.5237" lon="0.18587">
        <ele>929.6</ele>
        <time>2016-07-23T09:22:12Z</time>
      </trkpt>
      <trkpt lat="42.52375" lon="0.18588">
        <ele>928.1</ele>
        <time>2016-07-23T09:22:14Z</time>
      </trkpt>
      <trkpt lat="42.52379" lon="0.18589">
        <ele>928.4</ele>
        <time>2016-07-23T09:22:16Z</time>
      </trkpt>
      <trkpt lat="42.52384" lon="0.1859">
        <ele>928.8</ele>
        <time>2016-07-23T09:22:18Z</time>
      </trkpt>
      <trkpt lat="42.52389" lon="0.18592">
        <ele>929.3</ele>
        <time>2016-07-23T09:22:20Z</time>
      </trkpt>
      <trkpt lat="42.52392" lon="0.18593">
        <ele>929.5</ele>
        <time>2016-07-23T09:22:21Z</time>
      </trkpt>
      <trkpt lat="42.52395" lon="0.18594">
        <ele>929.8</ele>
        <time>2016-07-23T09:22:22Z</time>
      </trkpt>
      <trkpt lat="42.52397" lon="0.18594">
        <ele>930</ele>
        <time>2016-07-23T09:22:23Z</time>
      </trkpt>
      <trkpt lat="42.524" lon="0.18595">
        <ele>930.2</ele>
        <time>2016-07-23T09:22:24Z</time>
      </trkpt>
      <trkpt lat="42.52403" lon="0.18596">
        <ele>930.5</ele>
        <time>2016-07-23T09:22:25Z</time>
      </trkpt>
      <trkpt lat="42.52406" lon="0.18597">
        <ele>930.7</ele>
        <time>2016-07-23T09:22:26Z</time>
      </trkpt>
      <trkpt lat="42.52409" lon="0.18597">
        <ele>931</ele>
        <time>2016-07-23T09:22:27Z</time>
      </trkpt>
      <trkpt lat="42.52411" lon="0.18598">
        <ele>931.2</ele>
        <time>2016-07-23T09:22:28Z</time>
      </trkpt>
      <trkpt lat="42.52414" lon="0.18598">
        <ele>931.5</ele>
        <time>2016-07-23T09:22:29Z</time>
      </trkpt>
      <trkpt lat="42.52417" lon="0.18599">
        <ele>931.7</ele>
        <time>2016-07-23T09:22:30Z</time>
      </trkpt>
      <trkpt lat="42.5242" lon="0.18598">
        <ele>931.9</ele>
        <time>2016-07-23T09:22:31Z</time>
      </trkpt>
      <trkpt lat="42.52423" lon="0.18598">
        <ele>932</ele>
        <time>2016-07-23T09:22:32Z</time>
      </trkpt>
      <trkpt lat="42.52426" lon="0.18597">
        <ele>932</ele>
        <time>2016-07-23T09:22:33Z</time>
      </trkpt>
      <trkpt lat="42.52431" lon="0.18594">
        <ele>931.9</ele>
        <time>2016-07-23T09:22:35Z</time>
      </trkpt>
      <trkpt lat="42.52435" lon="0.18592">
        <ele>932</ele>
        <time>2016-07-23T09:22:37Z</time>
      </trkpt>
      <trkpt lat="42.5244" lon="0.1859">
        <ele>932</ele>
        <time>2016-07-23T09:22:39Z</time>
      </trkpt>
      <trkpt lat="42.52445" lon="0.18588">
        <ele>932</ele>
        <time>2016-07-23T09:22:41Z</time>
      </trkpt>
      <trkpt lat="42.52451" lon="0.18587">
        <ele>932.1</ele>
        <time>2016-07-23T09:22:43Z</time>
      </trkpt>
      <trkpt lat="42.52456" lon="0.18586">
        <ele>932.2</ele>
        <time>2016-07-23T09:22:45Z</time>
      </trkpt>
      <trkpt lat="42.5246" lon="0.18584">
        <ele>932.1</ele>
        <time>2016-07-23T09:22:47Z</time>
      </trkpt>
      <trkpt lat="42.52465" lon="0.18583">
        <ele>931.7</ele>
        <time>2016-07-23T09:22:49Z</time>
      </trkpt>
      <trkpt lat="42.5247" lon="0.18581">
        <ele>931.3</ele>
        <time>2016-07-23T09:22:51Z</time>
      </trkpt>
      <trkpt lat="42.52476" lon="0.18579">
        <ele>930.9</ele>
        <time>2016-07-23T09:22:53Z</time>
      </trkpt>
      <trkpt lat="42.52478" lon="0.18579">
        <ele>930.8</ele>
        <time>2016-07-23T09:22:54Z</time>
      </trkpt>
      <trkpt lat="42.52481" lon="0.18579">
        <ele>930.6</ele>
        <time>2016-07-23T09:22:55Z</time>
      </trkpt>
      <trkpt lat="42.52484" lon="0.18578">
        <ele>930.5</ele>
        <time>2016-07-23T09:22:56Z</time>
      </trkpt>
      <trkpt lat="42.52489" lon="0.18579">
        <ele>930.4</ele>
        <time>2016-07-23T09:22:58Z</time>
      </trkpt>
      <trkpt lat="42.52494" lon="0.1858">
        <ele>930.5</ele>
        <time>2016-07-23T09:23:00Z</time>
      </trkpt>
      <trkpt lat="42.52497" lon="0.18581">
        <ele>930.6</ele>
        <time>2016-07-23T09:23:01Z</time>
      </trkpt>
      <trkpt lat="42.525" lon="0.18582">
        <ele>930.8</ele>
        <time>2016-07-23T09:23:02Z</time>
      </trkpt>
      <trkpt lat="42.52502" lon="0.18584">
        <ele>931.1</ele>
        <time>2016-07-23T09:23:03Z</time>
      </trkpt>
      <trkpt lat="42.52505" lon="0.18586">
        <ele>931.5</ele>
        <time>2016-07-23T09:23:04Z</time>
      </trkpt>
      <trkpt lat="42.52507" lon="0.18589">
        <ele>932</ele>
        <time>2016-07-23T09:23:05Z</time>
      </trkpt>
      <trkpt lat="42.52508" lon="0.18593">
        <ele>932.7</ele>
        <time>2016-07-23T09:23:06Z</time>
      </trkpt>
      <trkpt lat="42.52509" lon="0.18596">
        <ele>933.3</ele>
        <time>2016-07-23T09:23:07Z</time>
      </trkpt>
      <trkpt lat="42.52511" lon="0.18599">
        <ele>934</ele>
        <time>2016-07-23T09:23:08Z</time>
      </trkpt>
      <trkpt lat="42.52512" lon="0.18603">
        <ele>934.7</ele>
        <time>2016-07-23T09:23:09Z</time>
      </trkpt>
      <trkpt lat="42.52515" lon="0.18608">
        <ele>935.9</ele>
        <time>2016-07-23T09:23:11Z</time>
      </trkpt>
      <trkpt lat="42.52519" lon="0.18613">
        <ele>936.8</ele>
        <time>2016-07-23T09:23:13Z</time>
      </trkpt>
      <trkpt lat="42.52521" lon="0.18614">
        <ele>937.2</ele>
        <time>2016-07-23T09:23:14Z</time>
      </trkpt>
      <trkpt lat="42.52525" lon="0.18615">
        <ele>937.3</ele>
        <time>2016-07-23T09:23:15Z</time>
      </trkpt>
      <trkpt lat="42.52528" lon="0.18614">
        <ele>937.2</ele>
        <time>2016-07-23T09:23:16Z</time>
      </trkpt>
      <trkpt lat="42.52532" lon="0.18612">
        <ele>936.8</ele>
        <time>2016-07-23T09:23:17Z</time>
      </trkpt>
      <trkpt lat="42.52535" lon="0.1861">
        <ele>936.3</ele>
        <time>2016-07-23T09:23:18Z</time>
      </trkpt>
      <trkpt lat="42.52538" lon="0.18607">
        <ele>935.8</ele>
        <time>2016-07-23T09:23:19Z</time>
      </trkpt>
      <trkpt lat="42.5254" lon="0.18605">
        <ele>935.2</ele>
        <time>2016-07-23T09:23:20Z</time>
      </trkpt>
      <trkpt lat="42.52543" lon="0.18602">
        <ele>934.5</ele>
        <time>2016-07-23T09:23:21Z</time>
      </trkpt>
      <trkpt lat="42.52545" lon="0.18599">
        <ele>934.1</ele>
        <time>2016-07-23T09:23:22Z</time>
      </trkpt>
      <trkpt lat="42.52547" lon="0.18596">
        <ele>933.7</ele>
        <time>2016-07-23T09:23:23Z</time>
      </trkpt>
      <trkpt lat="42.52548" lon="0.18593">
        <ele>933.2</ele>
        <time>2016-07-23T09:23:24Z</time>
      </trkpt>
      <trkpt lat="42.52551" lon="0.18587">
        <ele>932.3</ele>
        <time>2016-07-23T09:23:26Z</time>
      </trkpt>
      <trkpt lat="42.52554" lon="0.18582">
        <ele>931.3</ele>
        <time>2016-07-23T09:23:28Z</time>
      </trkpt>
      <trkpt lat="42.52556" lon="0.18576">
        <ele>930.2</ele>
        <time>2016-07-23T09:23:30Z</time>
      </trkpt>
      <trkpt lat="42.52559" lon="0.1857">
        <ele>929.1</ele>
        <time>2016-07-23T09:23:32Z</time>
      </trkpt>
      <trkpt lat="42.52562" lon="0.18565">
        <ele>928.5</ele>
        <time>2016-07-23T09:23:34Z</time>
      </trkpt>
      <trkpt lat="42.52565" lon="0.18562">
        <ele>928.2</ele>
        <time>2016-07-23T09:23:36Z</time>
      </trkpt>
      <trkpt lat="42.52569" lon="0.1856">
        <ele>928.2</ele>
        <time>2016-07-23T09:23:38Z</time>
      </trkpt>
      <trkpt lat="42.52573" lon="0.18559">
        <ele>928.5</ele>
        <time>2016-07-23T09:23:40Z</time>
      </trkpt>
      <trkpt lat="42.52577" lon="0.18557">
        <ele>928.7</ele>
        <time>2016-07-23T09:23:42Z</time>
      </trkpt>
      <trkpt lat="42.52582" lon="0.18556">
        <ele>929</ele>
        <time>2016-07-23T09:23:44Z</time>
      </trkpt>
      <trkpt lat="42.52586" lon="0.18557">
        <ele>929.6</ele>
        <time>2016-07-23T09:23:46Z</time>
      </trkpt>
      <trkpt lat="42.5259" lon="0.18558">
        <ele>930.5</ele>
        <time>2016-07-23T09:23:48Z</time>
      </trkpt>
      <trkpt lat="42.52595" lon="0.18559">
        <ele>931.5</ele>
        <time>2016-07-23T09:23:50Z</time>
      </trkpt>
      <trkpt lat="42.52599" lon="0.18561">
        <ele>932.4</ele>
        <time>2016-07-23T09:23:52Z</time>
      </trkpt>
      <trkpt lat="42.52603" lon="0.18561">
        <ele>933.1</ele>
        <time>2016-07-23T09:23:54Z</time>
      </trkpt>
      <trkpt lat="42.52607" lon="0.1856">
        <ele>933.5</ele>
        <time>2016-07-23T09:23:56Z</time>
      </trkpt>
      <trkpt lat="42.52611" lon="0.18558">
        <ele>933.5</ele>
        <time>2016-07-23T09:23:58Z</time>
      </trkpt>
      <trkpt lat="42.52615" lon="0.18555">
        <ele>933.1</ele>
        <time>2016-07-23T09:24:00Z</time>
      </trkpt>
      <trkpt lat="42.52619" lon="0.18552">
        <ele>932.9</ele>
        <time>2016-07-23T09:24:02Z</time>
      </trkpt>
      <trkpt lat="42.52623" lon="0.1855">
        <ele>933</ele>
        <time>2016-07-23T09:24:04Z</time>
      </trkpt>
      <trkpt lat="42.52627" lon="0.18549">
        <ele>933.3</ele>
        <time>2016-07-23T09:24:06Z</time>
      </trkpt>
      <trkpt lat="42.52632" lon="0.18548">
        <ele>933.8</ele>
        <time>2016-07-23T09:24:08Z</time>
      </trkpt>
      <trkpt lat="42.52636" lon="0.18547">
        <ele>934.3</ele>
        <time>2016-07-23T09:24:10Z</time>
      </trkpt>
      <trkpt lat="42.5264" lon="0.18547">
        <ele>935</ele>
        <time>2016-07-23T09:24:12Z</time>
      </trkpt>
      <trkpt lat="42.52644" lon="0.18547">
        <ele>935.7</ele>
        <time>2016-07-23T09:24:14Z</time>
      </trkpt>
      <trkpt lat="42.52648" lon="0.18547">
        <ele>936.5</ele>
        <time>2016-07-23T09:24:16Z</time>
      </trkpt>
      <trkpt lat="42.52652" lon="0.18547">
        <ele>937.5</ele>
        <time>2016-07-23T09:24:18Z</time>
      </trkpt>
      <trkpt lat="42.52657" lon="0.18548">
        <ele>938.5</ele>
        <time>2016-07-23T09:24:20Z</time>
      </trkpt>
      <trkpt lat="42.52661" lon="0.18549">
        <ele>939.6</ele>
        <time>2016-07-23T09:24:22Z</time>
      </trkpt>
      <trkpt lat="42.52666" lon="0.18551">
        <ele>940.9</ele>
        <time>2016-07-23T09:24:24Z</time>
      </trkpt>
      <trkpt lat="42.5267" lon="0.18554">
        <ele>942.7</ele>
        <time>2016-07-23T09:24:26Z</time>
      </trkpt>
      <trkpt lat="42.52673" lon="0.18559">
        <ele>944.5</ele>
        <time>2016-07-23T09:24:28Z</time>
      </trkpt>
      <trkpt lat="42.52676" lon="0.18563">
        <ele>946.4</ele>
        <time>2016-07-23T09:24:30Z</time>
      </trkpt>
      <trkpt lat="42.52679" lon="0.18568">
        <ele>948.4</ele>
        <time>2016-07-23T09:24:32Z</time>
      </trkpt>
      <trkpt lat="42.52683" lon="0.18571">
        <ele>950.1</ele>
        <time>2016-07-23T09:24:34Z</time>
      </trkpt>
      <trkpt lat="42.52688" lon="0.18573">
        <ele>951.6</ele>
        <time>2016-07-23T09:24:36Z</time>
      </trkpt>
      <trkpt lat="42.52692" lon="0.18573">
        <ele>952.5</ele>
        <time>2016-07-23T09:24:38Z</time>
      </trkpt>
      <trkpt lat="42.52696" lon="0.18572">
        <ele>952.9</ele>
        <time>2016-07-23T09:24:40Z</time>
      </trkpt>
      <trkpt lat="42.52699" lon="0.18568">
        <ele>952.5</ele>
        <time>2016-07-23T09:24:42Z</time>
      </trkpt>
      <trkpt lat="42.52702" lon="0.18564">
        <ele>951.5</ele>
        <time>2016-07-23T09:24:44Z</time>
      </trkpt>
      <trkpt lat="42.52703" lon="0.18559">
        <ele>950.3</ele>
        <time>2016-07-23T09:24:46Z</time>
      </trkpt>
      <trkpt lat="42.52705" lon="0.18553">
        <ele>948.9</ele>
        <time>2016-07-23T09:24:48Z</time>
      </trkpt>
      <trkpt lat="42.52707" lon="0.18547">
        <ele>947.5</ele>
        <time>2016-07-23T09:24:50Z</time>
      </trkpt>
      <trkpt lat="42.52709" lon="0.18542">
        <ele>946.3</ele>
        <time>2016-07-23T09:24:52Z</time>
      </trkpt>
      <trkpt lat="42.52712" lon="0.18537">
        <ele>946</ele>
        <time>2016-07-23T09:24:54Z</time>
      </trkpt>
      <trkpt lat="42.52714" lon="0.18532">
        <ele>945.8</ele>
        <time>2016-07-23T09:24:56Z</time>
      </trkpt>
      <trkpt lat="42.52717" lon="0.18528">
        <ele>945.8</ele>
        <time>2016-07-23T09:24:58Z</time>
      </trkpt>
      <trkpt lat="42.52721" lon="0.18525">
        <ele>946</ele>
        <time>2016-07-23T09:25:00Z</time>
      </trkpt>
      <trkpt lat="42.52725" lon="0.18522">
        <ele>946.4</ele>
        <time>2016-07-23T09:25:02Z</time>
      </trkpt>
      <trkpt lat="42.52729" lon="0.18521">
        <ele>946.9</ele>
        <time>2016-07-23T09:25:04Z</time>
      </trkpt>
      <trkpt lat="42.52733" lon="0.18518">
        <ele>947.3</ele>
        <time>2016-07-23T09:25:06Z</time>
      </trkpt>
      <trkpt lat="42.52736" lon="0.18516">
        <ele>947.5</ele>
        <time>2016-07-23T09:25:08Z</time>
      </trkpt>
      <trkpt lat="42.52739" lon="0.18513">
        <ele>947.6</ele>
        <time>2016-07-23T09:25:10Z</time>
      </trkpt>
      <trkpt lat="42.52742" lon="0.1851">
        <ele>947.5</ele>
        <time>2016-07-23T09:25:12Z</time>
      </trkpt>
      <trkpt lat="42.52746" lon="0.18507">
        <ele>947.4</ele>
        <time>2016-07-23T09:25:14Z</time>
      </trkpt>
      <trkpt lat="42.52749" lon="0.18503">
        <ele>947.2</ele>
        <time>2016-07-23T09:25:16Z</time>
      </trkpt>
      <trkpt lat="42.52752" lon="0.18499">
        <ele>947</ele>
        <time>2016-07-23T09:25:18Z</time>
      </trkpt>
      <trkpt lat="42.52756" lon="0.18495">
        <ele>946.7</ele>
        <time>2016-07-23T09:25:20Z</time>
      </trkpt>
      <trkpt lat="42.52759" lon="0.18491">
        <ele>946.2</ele>
        <time>2016-07-23T09:25:22Z</time>
      </trkpt>
      <trkpt lat="42.52763" lon="0.18488">
        <ele>946</ele>
        <time>2016-07-23T09:25:24Z</time>
      </trkpt>
      <trkpt lat="42.52766" lon="0.18485">
        <ele>945.9</ele>
        <time>2016-07-23T09:25:26Z</time>
      </trkpt>
      <trkpt lat="42.5277" lon="0.18483">
        <ele>945.9</ele>
        <time>2016-07-23T09:25:28Z</time>
      </trkpt>
      <trkpt lat="42.52774" lon="0.1848">
        <ele>945.7</ele>
        <time>2016-07-23T09:25:30Z</time>
      </trkpt>
      <trkpt lat="42.52778" lon="0.18478">
        <ele>945.6</ele>
        <time>2016-07-23T09:25:32Z</time>
      </trkpt>
      <trkpt lat="42.52781" lon="0.18475">
        <ele>945.6</ele>
        <time>2016-07-23T09:25:34Z</time>
      </trkpt>
      <trkpt lat="42.52785" lon="0.18473">
        <ele>945.4</ele>
        <time>2016-07-23T09:25:36Z</time>
      </trkpt>
      <trkpt lat="42.52788" lon="0.18471">
        <ele>945.2</ele>
        <time>2016-07-23T09:25:38Z</time>
      </trkpt>
      <trkpt lat="42.52791" lon="0.18468">
        <ele>944.9</ele>
        <time>2016-07-23T09:25:40Z</time>
      </trkpt>
      <trkpt lat="42.52795" lon="0.18465">
        <ele>945</ele>
        <time>2016-07-23T09:25:42Z</time>
      </trkpt>
      <trkpt lat="42.52799" lon="0.18463">
        <ele>945.4</ele>
        <time>2016-07-23T09:25:44Z</time>
      </trkpt>
      <trkpt lat="42.52802" lon="0.18462">
        <ele>946</ele>
        <time>2016-07-23T09:25:46Z</time>
      </trkpt>
      <trkpt lat="42.52806" lon="0.1846">
        <ele>946.5</ele>
        <time>2016-07-23T09:25:48Z</time>
      </trkpt>
      <trkpt lat="42.5281" lon="0.18458">
        <ele>947.3</ele>
        <time>2016-07-23T09:25:50Z</time>
      </trkpt>
      <trkpt lat="42.52815" lon="0.18458">
        <ele>948.5</ele>
        <time>2016-07-23T09:25:52Z</time>
      </trkpt>
      <trkpt lat="42.52818" lon="0.18456">
        <ele>949.4</ele>
        <time>2016-07-23T09:25:54Z</time>
      </trkpt>
      <trkpt lat="42.52822" lon="0.18453">
        <ele>950.2</ele>
        <time>2016-07-23T09:25:56Z</time>
      </trkpt>
      <trkpt lat="42.52826" lon="0.18451">
        <ele>950.9</ele>
        <time>2016-07-23T09:25:58Z</time>
      </trkpt>
      <trkpt lat="42.52829" lon="0.18448">
        <ele>951.6</ele>
        <time>2016-07-23T09:26:00Z</time>
      </trkpt>
      <trkpt lat="42.52833" lon="0.18444">
        <ele>952.1</ele>
        <time>2016-07-23T09:26:02Z</time>
      </trkpt>
      <trkpt lat="42.52836" lon="0.1844">
        <ele>952.5</ele>
        <time>2016-07-23T09:26:04Z</time>
      </trkpt>
      <trkpt lat="42.52839" lon="0.18436">
        <ele>952.9</ele>
        <time>2016-07-23T09:26:06Z</time>
      </trkpt>
      <trkpt lat="42.52842" lon="0.18432">
        <ele>953.2</ele>
        <time>2016-07-23T09:26:08Z</time>
      </trkpt>
      <trkpt lat="42.52845" lon="0.18428">
        <ele>953.7</ele>
        <time>2016-07-23T09:26:10Z</time>
      </trkpt>
      <trkpt lat="42.52848" lon="0.18425">
        <ele>954.4</ele>
        <time>2016-07-23T09:26:12Z</time>
      </trkpt>
      <trkpt lat="42.52852" lon="0.18423">
        <ele>955.3</ele>
        <time>2016-07-23T09:26:14Z</time>
      </trkpt>
      <trkpt lat="42.52856" lon="0.18422">
        <ele>956.3</ele>
        <time>2016-07-23T09:26:16Z</time>
      </trkpt>
      <trkpt lat="42.5286" lon="0.18423">
        <ele>957.7</ele>
        <time>2016-07-23T09:26:18Z</time>
      </trkpt>
      <trkpt lat="42.52864" lon="0.18426">
        <ele>959.2</ele>
        <time>2016-07-23T09:26:20Z</time>
      </trkpt>
      <trkpt lat="42.52867" lon="0.18431">
        <ele>960.6</ele>
        <time>2016-07-23T09:26:22Z</time>
      </trkpt>
      <trkpt lat="42.52868" lon="0.18435">
        <ele>961.4</ele>
        <time>2016-07-23T09:26:23Z</time>
      </trkpt>
      <trkpt lat="42.52869" lon="0.18438">
        <ele>962</ele>
        <time>2016-07-23T09:26:24Z</time>
      </trkpt>
      <trkpt lat="42.52869" lon="0.18442">
        <ele>962.6</ele>
        <time>2016-07-23T09:26:25Z</time>
      </trkpt>
      <trkpt lat="42.52869" lon="0.18446">
        <ele>963</ele>
        <time>2016-07-23T09:26:26Z</time>
      </trkpt>
      <trkpt lat="42.52869" lon="0.1845">
        <ele>963.4</ele>
        <time>2016-07-23T09:26:27Z</time>
      </trkpt>
      <trkpt lat="42.52869" lon="0.18454">
        <ele>963.6</ele>
        <time>2016-07-23T09:26:28Z</time>
      </trkpt>
      <trkpt lat="42.52868" lon="0.18458">
        <ele>964</ele>
        <time>2016-07-23T09:26:29Z</time>
      </trkpt>
      <trkpt lat="42.52868" lon="0.18462">
        <ele>964.6</ele>
        <time>2016-07-23T09:26:30Z</time>
      </trkpt>
      <trkpt lat="42.52868" lon="0.18466">
        <ele>965.5</ele>
        <time>2016-07-23T09:26:31Z</time>
      </trkpt>
      <trkpt lat="42.52867" lon="0.1847">
        <ele>966.3</ele>
        <time>2016-07-23T09:26:32Z</time>
      </trkpt>
      <trkpt lat="42.52866" lon="0.18475">
        <ele>967</ele>
        <time>2016-07-23T09:26:33Z</time>
      </trkpt>
      <trkpt lat="42.52865" lon="0.18479">
        <ele>967.6</ele>
        <time>2016-07-23T09:26:34Z</time>
      </trkpt>
      <trkpt lat="42.52864" lon="0.18483">
        <ele>968.3</ele>
        <time>2016-07-23T09:26:35Z</time>
      </trkpt>
      <trkpt lat="42.52863" lon="0.18488">
        <ele>969.1</ele>
        <time>2016-07-23T09:26:36Z</time>
      </trkpt>
      <trkpt lat="42.52863" lon="0.18492">
        <ele>969.9</ele>
        <time>2016-07-23T09:26:37Z</time>
      </trkpt>
      <trkpt lat="42.52862" lon="0.18497">
        <ele>970.7</ele>
        <time>2016-07-23T09:26:38Z</time>
      </trkpt>
      <trkpt lat="42.52861" lon="0.18501">
        <ele>971.4</ele>
        <time>2016-07-23T09:26:39Z</time>
      </trkpt>
      <trkpt lat="42.5286" lon="0.18506">
        <ele>972.1</ele>
        <time>2016-07-23T09:26:40Z</time>
      </trkpt>
      <trkpt lat="42.52858" lon="0.1851">
        <ele>972.8</ele>
        <time>2016-07-23T09:26:41Z</time>
      </trkpt>
      <trkpt lat="42.52857" lon="0.18515">
        <ele>973.5</ele>
        <time>2016-07-23T09:26:42Z</time>
      </trkpt>
      <trkpt lat="42.52856" lon="0.1852">
        <ele>974.4</ele>
        <time>2016-07-23T09:26:43Z</time>
      </trkpt>
      <trkpt lat="42.52855" lon="0.18524">
        <ele>975.3</ele>
        <time>2016-07-23T09:26:44Z</time>
      </trkpt>
      <trkpt lat="42.52855" lon="0.18529">
        <ele>976.3</ele>
        <time>2016-07-23T09:26:45Z</time>
      </trkpt>
      <trkpt lat="42.52854" lon="0.18534">
        <ele>977.2</ele>
        <time>2016-07-23T09:26:46Z</time>
      </trkpt>
      <trkpt lat="42.52853" lon="0.18539">
        <ele>978.3</ele>
        <time>2016-07-23T09:26:47Z</time>
      </trkpt>
      <trkpt lat="42.52853" lon="0.18544">
        <ele>978.9</ele>
        <time>2016-07-23T09:26:48Z</time>
      </trkpt>
      <trkpt lat="42.52852" lon="0.18549">
        <ele>979.1</ele>
        <time>2016-07-23T09:26:49Z</time>
      </trkpt>
      <trkpt lat="42.52851" lon="0.18555">
        <ele>979.4</ele>
        <time>2016-07-23T09:26:50Z</time>
      </trkpt>
      <trkpt lat="42.5285" lon="0.1856">
        <ele>979.8</ele>
        <time>2016-07-23T09:26:51Z</time>
      </trkpt>
      <trkpt lat="42.52849" lon="0.18565">
        <ele>980.1</ele>
        <time>2016-07-23T09:26:52Z</time>
      </trkpt>
      <trkpt lat="42.52847" lon="0.18571">
        <ele>980.5</ele>
        <time>2016-07-23T09:26:53Z</time>
      </trkpt>
      <trkpt lat="42.52845" lon="0.18577">
        <ele>980.9</ele>
        <time>2016-07-23T09:26:54Z</time>
      </trkpt>
      <trkpt lat="42.52844" lon="0.18583">
        <ele>981.4</ele>
        <time>2016-07-23T09:26:55Z</time>
      </trkpt>
      <trkpt lat="42.52842" lon="0.18588">
        <ele>982</ele>
        <time>2016-07-23T09:26:56Z</time>
      </trkpt>
      <trkpt lat="42.5284" lon="0.18594">
        <ele>982.6</ele>
        <time>2016-07-23T09:26:57Z</time>
      </trkpt>
      <trkpt lat="42.52839" lon="0.186">
        <ele>983.3</ele>
        <time>2016-07-23T09:26:58Z</time>
      </trkpt>
      <trkpt lat="42.52838" lon="0.18607">
        <ele>984.2</ele>
        <time>2016-07-23T09:26:59Z</time>
      </trkpt>
      <trkpt lat="42.52837" lon="0.18614">
        <ele>985.2</ele>
        <time>2016-07-23T09:27:00Z</time>
      </trkpt>
      <trkpt lat="42.52836" lon="0.18622">
        <ele>986.2</ele>
        <time>2016-07-23T09:27:01Z</time>
      </trkpt>
      <trkpt lat="42.52835" lon="0.18628">
        <ele>987</ele>
        <time>2016-07-23T09:27:02Z</time>
      </trkpt>
      <trkpt lat="42.52834" lon="0.18634">
        <ele>987.4</ele>
        <time>2016-07-23T09:27:03Z</time>
      </trkpt>
      <trkpt lat="42.52833" lon="0.18641">
        <ele>988</ele>
        <time>2016-07-23T09:27:04Z</time>
      </trkpt>
      <trkpt lat="42.52832" lon="0.18647">
        <ele>988.5</ele>
        <time>2016-07-23T09:27:05Z</time>
      </trkpt>
      <trkpt lat="42.52832" lon="0.18654">
        <ele>989.1</ele>
        <time>2016-07-23T09:27:06Z</time>
      </trkpt>
      <trkpt lat="42.52831" lon="0.18662">
        <ele>989.7</ele>
        <time>2016-07-23T09:27:07Z</time>
      </trkpt>
      <trkpt lat="42.52831" lon="0.18668">
        <ele>990.2</ele>
        <time>2016-07-23T09:27:08Z</time>
      </trkpt>
      <trkpt lat="42.52831" lon="0.18674">
        <ele>990.8</ele>
        <time>2016-07-23T09:27:09Z</time>
      </trkpt>
      <trkpt lat="42.5283" lon="0.1868">
        <ele>991.4</ele>
        <time>2016-07-23T09:27:10Z</time>
      </trkpt>
      <trkpt lat="42.5283" lon="0.18686">
        <ele>991.8</ele>
        <time>2016-07-23T09:27:11Z</time>
      </trkpt>
      <trkpt lat="42.52828" lon="0.18692">
        <ele>993</ele>
        <time>2016-07-23T09:27:12Z</time>
      </trkpt>
      <trkpt lat="42.52827" lon="0.18697">
        <ele>994.1</ele>
        <time>2016-07-23T09:27:13Z</time>
      </trkpt>
      <trkpt lat="42.52825" lon="0.18702">
        <ele>995.3</ele>
        <time>2016-07-23T09:27:14Z</time>
      </trkpt>
      <trkpt lat="42.52823" lon="0.18707">
        <ele>996.6</ele>
        <time>2016-07-23T09:27:15Z</time>
      </trkpt>
      <trkpt lat="42.52821" lon="0.18712">
        <ele>997.9</ele>
        <time>2016-07-23T09:27:16Z</time>
      </trkpt>
      <trkpt lat="42.52819" lon="0.18717">
        <ele>999</ele>
        <time>2016-07-23T09:27:17Z</time>
      </trkpt>
      <trkpt lat="42.52817" lon="0.18722">
        <ele>1000.2</ele>
        <time>2016-07-23T09:27:18Z</time>
      </trkpt>
      <trkpt lat="42.52816" lon="0.18727">
        <ele>1001.4</ele>
        <time>2016-07-23T09:27:19Z</time>
      </trkpt>
      <trkpt lat="42.52815" lon="0.18733">
        <ele>1002.3</ele>
        <time>2016-07-23T09:27:20Z</time>
      </trkpt>
      <trkpt lat="42.52814" lon="0.18739">
        <ele>1003.2</ele>
        <time>2016-07-23T09:27:21Z</time>
      </trkpt>
      <trkpt lat="42.52813" lon="0.18745">
        <ele>1004</ele>
        <time>2016-07-23T09:27:22Z</time>
      </trkpt>
      <trkpt lat="42.52813" lon="0.18751">
        <ele>1004.6</ele>
        <time>2016-07-23T09:27:23Z</time>
      </trkpt>
      <trkpt lat="42.52813" lon="0.18758">
        <ele>1005.3</ele>
        <time>2016-07-23T09:27:24Z</time>
      </trkpt>
      <trkpt lat="42.52813" lon="0.18764">
        <ele>1005.8</ele>
        <time>2016-07-23T09:27:25Z</time>
      </trkpt>
      <trkpt lat="42.52813" lon="0.18771">
        <ele>1006.1</ele>
        <time>2016-07-23T09:27:26Z</time>
      </trkpt>
      <trkpt lat="42.52814" lon="0.18777">
        <ele>1006.1</ele>
        <time>2016-07-23T09:27:27Z</time>
      </trkpt>
      <trkpt lat="42.52815" lon="0.18783">
        <ele>1005.8</ele>
        <time>2016-07-23T09:27:28Z</time>
      </trkpt>
      <trkpt lat="42.52817" lon="0.18788">
        <ele>1005</ele>
        <time>2016-07-23T09:27:29Z</time>
      </trkpt>
      <trkpt lat="42.5282" lon="0.18793">
        <ele>1003.5</ele>
        <time>2016-07-23T09:27:30Z</time>
      </trkpt>
      <trkpt lat="42.52823" lon="0.18797">
        <ele>1001.5</ele>
        <time>2016-07-23T09:27:31Z</time>
      </trkpt>
      <trkpt lat="42.52826" lon="0.18801">
        <ele>999.5</ele>
        <time>2016-07-23T09:27:32Z</time>
      </trkpt>
      <trkpt lat="42.5283" lon="0.18804">
        <ele>997.6</ele>
        <time>2016-07-23T09:27:33Z</time>
      </trkpt>
      <trkpt lat="42.52833" lon="0.18808">
        <ele>995.7</ele>
        <time>2016-07-23T09:27:34Z</time>
      </trkpt>
      <trkpt lat="42.52837" lon="0.18812">
        <ele>993.9</ele>
        <time>2016-07-23T09:27:35Z</time>
      </trkpt>
      <trkpt lat="42.5284" lon="0.18815">
        <ele>992.3</ele>
        <time>2016-07-23T09:27:36Z</time>
      </trkpt>
      <trkpt lat="42.52844" lon="0.18819">
        <ele>990.8</ele>
        <time>2016-07-23T09:27:37Z</time>
      </trkpt>
      <trkpt lat="42.52847" lon="0.18823">
        <ele>989.6</ele>
        <time>2016-07-23T09:27:38Z</time>
      </trkpt>
      <trkpt lat="42.5285" lon="0.18826">
        <ele>988.5</ele>
        <time>2016-07-23T09:27:39Z</time>
      </trkpt>
      <trkpt lat="42.52853" lon="0.18829">
        <ele>987.5</ele>
        <time>2016-07-23T09:27:40Z</time>
      </trkpt>
      <trkpt lat="42.52856" lon="0.18832">
        <ele>986.3</ele>
        <time>2016-07-23T09:27:41Z</time>
      </trkpt>
      <trkpt lat="42.5286" lon="0.18835">
        <ele>985.4</ele>
        <time>2016-07-23T09:27:42Z</time>
      </trkpt>
      <trkpt lat="42.52863" lon="0.18839">
        <ele>984.6</ele>
        <time>2016-07-23T09:27:43Z</time>
      </trkpt>
      <trkpt lat="42.52866" lon="0.18843">
        <ele>984.2</ele>
        <time>2016-07-23T09:27:44Z</time>
      </trkpt>
      <trkpt lat="42.52868" lon="0.18847">
        <ele>984.1</ele>
        <time>2016-07-23T09:27:45Z</time>
      </trkpt>
      <trkpt lat="42.5287" lon="0.18852">
        <ele>984.4</ele>
        <time>2016-07-23T09:27:46Z</time>
      </trkpt>
      <trkpt lat="42.52872" lon="0.18857">
        <ele>984.8</ele>
        <time>2016-07-23T09:27:47Z</time>
      </trkpt>
      <trkpt lat="42.52874" lon="0.18862">
        <ele>985.5</ele>
        <time>2016-07-23T09:27:48Z</time>
      </trkpt>
      <trkpt lat="42.52875" lon="0.18867">
        <ele>986.3</ele>
        <time>2016-07-23T09:27:49Z</time>
      </trkpt>
      <trkpt lat="42.52876" lon="0.18873">
        <ele>987.1</ele>
        <time>2016-07-23T09:27:50Z</time>
      </trkpt>
      <trkpt lat="42.52877" lon="0.18878">
        <ele>987.2</ele>
        <time>2016-07-23T09:27:51Z</time>
      </trkpt>
      <trkpt lat="42.52878" lon="0.18883">
        <ele>986.8</ele>
        <time>2016-07-23T09:27:52Z</time>
      </trkpt>
      <trkpt lat="42.52878" lon="0.18888">
        <ele>986.6</ele>
        <time>2016-07-23T09:27:53Z</time>
      </trkpt>
      <trkpt lat="42.52878" lon="0.18893">
        <ele>986.6</ele>
        <time>2016-07-23T09:27:54Z</time>
      </trkpt>
      <trkpt lat="42.52877" lon="0.18898">
        <ele>987</ele>
        <time>2016-07-23T09:27:55Z</time>
      </trkpt>
      <trkpt lat="42.52874" lon="0.18903">
        <ele>987.4</ele>
        <time>2016-07-23T09:27:56Z</time>
      </trkpt>
      <trkpt lat="42.52871" lon="0.18907">
        <ele>987.7</ele>
        <time>2016-07-23T09:27:57Z</time>
      </trkpt>
      <trkpt lat="42.52867" lon="0.18911">
        <ele>987.8</ele>
        <time>2016-07-23T09:27:58Z</time>
      </trkpt>
      <trkpt lat="42.52863" lon="0.18915">
        <ele>987.9</ele>
        <time>2016-07-23T09:27:59Z</time>
      </trkpt>
      <trkpt lat="42.52858" lon="0.18918">
        <ele>988</ele>
        <time>2016-07-23T09:28:00Z</time>
      </trkpt>
      <trkpt lat="42.52853" lon="0.18921">
        <ele>987.9</ele>
        <time>2016-07-23T09:28:01Z</time>
      </trkpt>
      <trkpt lat="42.52847" lon="0.18924">
        <ele>987.8</ele>
        <time>2016-07-23T09:28:02Z</time>
      </trkpt>
      <trkpt lat="42.52842" lon="0.18927">
        <ele>987.4</ele>
        <time>2016-07-23T09:28:03Z</time>
      </trkpt>
      <trkpt lat="42.52837" lon="0.18931">
        <ele>986.9</ele>
        <time>2016-07-23T09:28:04Z</time>
      </trkpt>
      <trkpt lat="42.52831" lon="0.18936">
        <ele>985.9</ele>
        <time>2016-07-23T09:28:05Z</time>
      </trkpt>
      <trkpt lat="42.52827" lon="0.18941">
        <ele>984.6</ele>
        <time>2016-07-23T09:28:06Z</time>
      </trkpt>
      <trkpt lat="42.52823" lon="0.18948">
        <ele>982.9</ele>
        <time>2016-07-23T09:28:07Z</time>
      </trkpt>
      <trkpt lat="42.52819" lon="0.18954">
        <ele>981.1</ele>
        <time>2016-07-23T09:28:08Z</time>
      </trkpt>
      <trkpt lat="42.52814" lon="0.18959">
        <ele>979</ele>
        <time>2016-07-23T09:28:09Z</time>
      </trkpt>
      <trkpt lat="42.52807" lon="0.18962">
        <ele>976.9</ele>
        <time>2016-07-23T09:28:10Z</time>
      </trkpt>
      <trkpt lat="42.52802" lon="0.18965">
        <ele>975</ele>
        <time>2016-07-23T09:28:11Z</time>
      </trkpt>
      <trkpt lat="42.52797" lon="0.18967">
        <ele>973.6</ele>
        <time>2016-07-23T09:28:12Z</time>
      </trkpt>
      <trkpt lat="42.52792" lon="0.18968">
        <ele>972.6</ele>
        <time>2016-07-23T09:28:13Z</time>
      </trkpt>
      <trkpt lat="42.52789" lon="0.18967">
        <ele>972.6</ele>
        <time>2016-07-23T09:28:14Z</time>
      </trkpt>
      <trkpt lat="42.52786" lon="0.18963">
        <ele>974</ele>
        <time>2016-07-23T09:28:15Z</time>
      </trkpt>
      <trkpt lat="42.52783" lon="0.18957">
        <ele>976.2</ele>
        <time>2016-07-23T09:28:16Z</time>
      </trkpt>
      <trkpt lat="42.52781" lon="0.18952">
        <ele>977.9</ele>
        <time>2016-07-23T09:28:17Z</time>
      </trkpt>
      <trkpt lat="42.52779" lon="0.18945">
        <ele>980.1</ele>
        <time>2016-07-23T09:28:18Z</time>
      </trkpt>
      <trkpt lat="42.52779" lon="0.18938">
        <ele>982.9</ele>
        <time>2016-07-23T09:28:19Z</time>
      </trkpt>
      <trkpt lat="42.52778" lon="0.18931">
        <ele>985.5</ele>
        <time>2016-07-23T09:28:20Z</time>
      </trkpt>
      <trkpt lat="42.52776" lon="0.18925">
        <ele>987.4</ele>
        <time>2016-07-23T09:28:21Z</time>
      </trkpt>
      <trkpt lat="42.52773" lon="0.18918">
        <ele>989.6</ele>
        <time>2016-07-23T09:28:22Z</time>
      </trkpt>
      <trkpt lat="42.52769" lon="0.18913">
        <ele>991.2</ele>
        <time>2016-07-23T09:28:23Z</time>
      </trkpt>
      <trkpt lat="42.52766" lon="0.18907">
        <ele>993</ele>
        <time>2016-07-23T09:28:24Z</time>
      </trkpt>
      <trkpt lat="42.52762" lon="0.18903">
        <ele>994.2</ele>
        <time>2016-07-23T09:28:25Z</time>
      </trkpt>
      <trkpt lat="42.52757" lon="0.189">
        <ele>994.7</ele>
        <time>2016-07-23T09:28:26Z</time>
      </trkpt>
      <trkpt lat="42.52752" lon="0.18899">
        <ele>994.5</ele>
        <time>2016-07-23T09:28:27Z</time>
      </trkpt>
      <trkpt lat="42.52746" lon="0.189">
        <ele>993.4</ele>
        <time>2016-07-23T09:28:28Z</time>
      </trkpt>
      <trkpt lat="42.52742" lon="0.18901">
        <ele>992.4</ele>
        <time>2016-07-23T09:28:29Z</time>
      </trkpt>
      <trkpt lat="42.52736" lon="0.18903">
        <ele>991.3</ele>
        <time>2016-07-23T09:28:30Z</time>
      </trkpt>
      <trkpt lat="42.52732" lon="0.18904">
        <ele>990.3</ele>
        <time>2016-07-23T09:28:31Z</time>
      </trkpt>
      <trkpt lat="42.52726" lon="0.18906">
        <ele>988.9</ele>
        <time>2016-07-23T09:28:32Z</time>
      </trkpt>
      <trkpt lat="42.52722" lon="0.18906">
        <ele>988.3</ele>
        <time>2016-07-23T09:28:33Z</time>
      </trkpt>
      <trkpt lat="42.52718" lon="0.18907">
        <ele>987.3</ele>
        <time>2016-07-23T09:28:34Z</time>
      </trkpt>
      <trkpt lat="42.52714" lon="0.18908">
        <ele>986.2</ele>
        <time>2016-07-23T09:28:35Z</time>
      </trkpt>
      <trkpt lat="42.52709" lon="0.1891">
        <ele>985.2</ele>
        <time>2016-07-23T09:28:36Z</time>
      </trkpt>
      <trkpt lat="42.52705" lon="0.18911">
        <ele>984.5</ele>
        <time>2016-07-23T09:28:37Z</time>
      </trkpt>
      <trkpt lat="42.52702" lon="0.18911">
        <ele>984</ele>
        <time>2016-07-23T09:28:38Z</time>
      </trkpt>
      <trkpt lat="42.52697" lon="0.18911">
        <ele>983.8</ele>
        <time>2016-07-23T09:28:39Z</time>
      </trkpt>
      <trkpt lat="42.52693" lon="0.18911">
        <ele>983.7</ele>
        <time>2016-07-23T09:28:40Z</time>
      </trkpt>
      <trkpt lat="42.52689" lon="0.1891">
        <ele>983.7</ele>
        <time>2016-07-23T09:28:41Z</time>
      </trkpt>
      <trkpt lat="42.52685" lon="0.18909">
        <ele>983.8</ele>
        <time>2016-07-23T09:28:42Z</time>
      </trkpt>
      <trkpt lat="42.52681" lon="0.18907">
        <ele>984.5</ele>
        <time>2016-07-23T09:28:43Z</time>
      </trkpt>
      <trkpt lat="42.52677" lon="0.18904">
        <ele>985.7</ele>
        <time>2016-07-23T09:28:44Z</time>
      </trkpt>
      <trkpt lat="42.52675" lon="0.18899">
        <ele>987.5</ele>
        <time>2016-07-23T09:28:45Z</time>
      </trkpt>
      <trkpt lat="42.52672" lon="0.18894">
        <ele>989.9</ele>
        <time>2016-07-23T09:28:46Z</time>
      </trkpt>
      <trkpt lat="42.5267" lon="0.18887">
        <ele>992.4</ele>
        <time>2016-07-23T09:28:47Z</time>
      </trkpt>
      <trkpt lat="42.52668" lon="0.18882">
        <ele>994.8</ele>
        <time>2016-07-23T09:28:48Z</time>
      </trkpt>
      <trkpt lat="42.52665" lon="0.18877">
        <ele>996.7</ele>
        <time>2016-07-23T09:28:49Z</time>
      </trkpt>
      <trkpt lat="42.52661" lon="0.18873">
        <ele>997.6</ele>
        <time>2016-07-23T09:28:50Z</time>
      </trkpt>
      <trkpt lat="42.52657" lon="0.18872">
        <ele>997.7</ele>
        <time>2016-07-23T09:28:51Z</time>
      </trkpt>
      <trkpt lat="42.52652" lon="0.18872">
        <ele>997.4</ele>
        <time>2016-07-23T09:28:52Z</time>
      </trkpt>
      <trkpt lat="42.52647" lon="0.18873">
        <ele>996.8</ele>
        <time>2016-07-23T09:28:53Z</time>
      </trkpt>
      <trkpt lat="42.52643" lon="0.18875">
        <ele>996.1</ele>
        <time>2016-07-23T09:28:54Z</time>
      </trkpt>
      <trkpt lat="42.52638" lon="0.18878">
        <ele>994.7</ele>
        <time>2016-07-23T09:28:55Z</time>
      </trkpt>
      <trkpt lat="42.52633" lon="0.1888">
        <ele>993.4</ele>
        <time>2016-07-23T09:28:56Z</time>
      </trkpt>
      <trkpt lat="42.52628" lon="0.18882">
        <ele>992.2</ele>
        <time>2016-07-23T09:28:57Z</time>
      </trkpt>
      <trkpt lat="42.52623" lon="0.18884">
        <ele>991.4</ele>
        <time>2016-07-23T09:28:58Z</time>
      </trkpt>
      <trkpt lat="42.52617" lon="0.18885">
        <ele>991</ele>
        <time>2016-07-23T09:28:59Z</time>
      </trkpt>
      <trkpt lat="42.52612" lon="0.18887">
        <ele>990.6</ele>
        <time>2016-07-23T09:29:00Z</time>
      </trkpt>
      <trkpt lat="42.52606" lon="0.18889">
        <ele>989.9</ele>
        <time>2016-07-23T09:29:01Z</time>
      </trkpt>
      <trkpt lat="42.526" lon="0.18891">
        <ele>989.6</ele>
        <time>2016-07-23T09:29:02Z</time>
      </trkpt>
      <trkpt lat="42.52595" lon="0.18892">
        <ele>989.2</ele>
        <time>2016-07-23T09:29:03Z</time>
      </trkpt>
      <trkpt lat="42.52591" lon="0.18894">
        <ele>988.9</ele>
        <time>2016-07-23T09:29:04Z</time>
      </trkpt>
      <trkpt lat="42.52586" lon="0.18895">
        <ele>988.5</ele>
        <time>2016-07-23T09:29:05Z</time>
      </trkpt>
      <trkpt lat="42.52581" lon="0.18896">
        <ele>988.3</ele>
        <time>2016-07-23T09:29:06Z</time>
      </trkpt>
      <trkpt lat="42.52575" lon="0.18897">
        <ele>988.2</ele>
        <time>2016-07-23T09:29:07Z</time>
      </trkpt>
      <trkpt lat="42.5257" lon="0.18898">
        <ele>988.2</ele>
        <time>2016-07-23T09:29:08Z</time>
      </trkpt>
      <trkpt lat="42.52564" lon="0.18898">
        <ele>988.5</ele>
        <time>2016-07-23T09:29:09Z</time>
      </trkpt>
      <trkpt lat="42.52559" lon="0.18898">
        <ele>988.9</ele>
        <time>2016-07-23T09:29:10Z</time>
      </trkpt>
      <trkpt lat="42.52553" lon="0.18897">
        <ele>989.5</ele>
        <time>2016-07-23T09:29:11Z</time>
      </trkpt>
      <trkpt lat="42.52548" lon="0.18896">
        <ele>990</ele>
        <time>2016-07-23T09:29:12Z</time>
      </trkpt>
      <trkpt lat="42.52542" lon="0.18896">
        <ele>990.6</ele>
        <time>2016-07-23T09:29:13Z</time>
      </trkpt>
      <trkpt lat="42.52537" lon="0.18895">
        <ele>991.4</ele>
        <time>2016-07-23T09:29:14Z</time>
      </trkpt>
      <trkpt lat="42.52532" lon="0.18895">
        <ele>992.1</ele>
        <time>2016-07-23T09:29:15Z</time>
      </trkpt>
      <trkpt lat="42.52527" lon="0.18895">
        <ele>992.6</ele>
        <time>2016-07-23T09:29:16Z</time>
      </trkpt>
      <trkpt lat="42.52523" lon="0.18895">
        <ele>993.2</ele>
        <time>2016-07-23T09:29:17Z</time>
      </trkpt>
      <trkpt lat="42.52518" lon="0.18894">
        <ele>994.1</ele>
        <time>2016-07-23T09:29:18Z</time>
      </trkpt>
      <trkpt lat="42.52513" lon="0.18893">
        <ele>995.4</ele>
        <time>2016-07-23T09:29:19Z</time>
      </trkpt>
      <trkpt lat="42.52509" lon="0.18891">
        <ele>996.6</ele>
        <time>2016-07-23T09:29:20Z</time>
      </trkpt>
      <trkpt lat="42.52504" lon="0.1889">
        <ele>997.6</ele>
        <time>2016-07-23T09:29:21Z</time>
      </trkpt>
      <trkpt lat="42.52499" lon="0.18891">
        <ele>997.9</ele>
        <time>2016-07-23T09:29:22Z</time>
      </trkpt>
      <trkpt lat="42.52495" lon="0.18894">
        <ele>997.5</ele>
        <time>2016-07-23T09:29:23Z</time>
      </trkpt>
      <trkpt lat="42.52491" lon="0.18898">
        <ele>996.4</ele>
        <time>2016-07-23T09:29:24Z</time>
      </trkpt>
      <trkpt lat="42.52488" lon="0.18904">
        <ele>995.1</ele>
        <time>2016-07-23T09:29:25Z</time>
      </trkpt>
      <trkpt lat="42.52485" lon="0.18909">
        <ele>993.7</ele>
        <time>2016-07-23T09:29:26Z</time>
      </trkpt>
      <trkpt lat="42.52482" lon="0.18915">
        <ele>992.1</ele>
        <time>2016-07-23T09:29:27Z</time>
      </trkpt>
      <trkpt lat="42.52478" lon="0.18921">
        <ele>990.8</ele>
        <time>2016-07-23T09:29:28Z</time>
      </trkpt>
      <trkpt lat="42.52474" lon="0.18926">
        <ele>989.7</ele>
        <time>2016-07-23T09:29:29Z</time>
      </trkpt>
      <trkpt lat="42.5247" lon="0.18931">
        <ele>988.6</ele>
        <time>2016-07-23T09:29:30Z</time>
      </trkpt>
      <trkpt lat="42.52466" lon="0.18937">
        <ele>987.6</ele>
        <time>2016-07-23T09:29:31Z</time>
      </trkpt>
      <trkpt lat="42.52462" lon="0.18942">
        <ele>986.6</ele>
        <time>2016-07-23T09:29:32Z</time>
      </trkpt>
      <trkpt lat="42.52459" lon="0.18946">
        <ele>985.7</ele>
        <time>2016-07-23T09:29:33Z</time>
      </trkpt>
      <trkpt lat="42.52454" lon="0.18951">
        <ele>984.7</ele>
        <time>2016-07-23T09:29:34Z</time>
      </trkpt>
      <trkpt lat="42.5245" lon="0.18955">
        <ele>984</ele>
        <time>2016-07-23T09:29:35Z</time>
      </trkpt>
      <trkpt lat="42.52445" lon="0.18958">
        <ele>983.6</ele>
        <time>2016-07-23T09:29:36Z</time>
      </trkpt>
      <trkpt lat="42.5244" lon="0.18961">
        <ele>983.8</ele>
        <time>2016-07-23T09:29:37Z</time>
      </trkpt>
      <trkpt lat="42.52435" lon="0.18962">
        <ele>984.3</ele>
        <time>2016-07-23T09:29:38Z</time>
      </trkpt>
      <trkpt lat="42.52429" lon="0.18962">
        <ele>985</ele>
        <time>2016-07-23T09:29:39Z</time>
      </trkpt>
      <trkpt lat="42.52424" lon="0.18961">
        <ele>985.8</ele>
        <time>2016-07-23T09:29:40Z</time>
      </trkpt>
      <trkpt lat="42.52419" lon="0.18961">
        <ele>986.5</ele>
        <time>2016-07-23T09:29:41Z</time>
      </trkpt>
      <trkpt lat="42.52414" lon="0.18961">
        <ele>987</ele>
        <time>2016-07-23T09:29:42Z</time>
      </trkpt>
      <trkpt lat="42.52411" lon="0.18964">
        <ele>987.2</ele>
        <time>2016-07-23T09:29:43Z</time>
      </trkpt>
      <trkpt lat="42.52409" lon="0.18967">
        <ele>987.2</ele>
        <time>2016-07-23T09:29:44Z</time>
      </trkpt>
      <trkpt lat="42.52408" lon="0.18972">
        <ele>986.8</ele>
        <time>2016-07-23T09:29:45Z</time>
      </trkpt>
      <trkpt lat="42.52408" lon="0.18978">
        <ele>986.3</ele>
        <time>2016-07-23T09:29:46Z</time>
      </trkpt>
      <trkpt lat="42.52408" lon="0.18984">
        <ele>985.8</ele>
        <time>2016-07-23T09:29:47Z</time>
      </trkpt>
      <trkpt lat="42.52406" lon="0.18991">
        <ele>985.5</ele>
        <time>2016-07-23T09:29:48Z</time>
      </trkpt>
      <trkpt lat="42.52404" lon="0.18997">
        <ele>985.4</ele>
        <time>2016-07-23T09:29:49Z</time>
      </trkpt>
      <trkpt lat="42.52402" lon="0.19004">
        <ele>985.3</ele>
        <time>2016-07-23T09:29:50Z</time>
      </trkpt>
      <trkpt lat="42.52401" lon="0.1901">
        <ele>985.1</ele>
        <time>2016-07-23T09:29:51Z</time>
      </trkpt>
      <trkpt lat="42.52402" lon="0.19016">
        <ele>984.6</ele>
        <time>2016-07-23T09:29:52Z</time>
      </trkpt>
      <trkpt lat="42.52404" lon="0.19021">
        <ele>983.7</ele>
        <time>2016-07-23T09:29:53Z</time>
      </trkpt>
      <trkpt lat="42.52408" lon="0.19024">
        <ele>982.4</ele>
        <time>2016-07-23T09:29:54Z</time>
      </trkpt>
      <trkpt lat="42.52413" lon="0.19025">
        <ele>980.9</ele>
        <time>2016-07-23T09:29:55Z</time>
      </trkpt>
      <trkpt lat="42.52418" lon="0.19025">
        <ele>979.6</ele>
        <time>2016-07-23T09:29:56Z</time>
      </trkpt>
      <trkpt lat="42.52422" lon="0.19023">
        <ele>978.5</ele>
        <time>2016-07-23T09:29:57Z</time>
      </trkpt>
      <trkpt lat="42.52427" lon="0.19021">
        <ele>977.6</ele>
        <time>2016-07-23T09:29:58Z</time>
      </trkpt>
      <trkpt lat="42.52431" lon="0.1902">
        <ele>976.7</ele>
        <time>2016-07-23T09:29:59Z</time>
      </trkpt>
      <trkpt lat="42.52435" lon="0.1902">
        <ele>975.7</ele>
        <time>2016-07-23T09:30:00Z</time>
      </trkpt>
      <trkpt lat="42.52439" lon="0.1902">
        <ele>974.6</ele>
        <time>2016-07-23T09:30:01Z</time>
      </trkpt>
      <trkpt lat="42.52443" lon="0.1902">
        <ele>973.4</ele>
        <time>2016-07-23T09:30:02Z</time>
      </trkpt>
      <trkpt lat="42.52447" lon="0.19021">
        <ele>972.2</ele>
        <time>2016-07-23T09:30:03Z</time>
      </trkpt>
      <trkpt lat="42.5245" lon="0.19023">
        <ele>971</ele>
        <time>2016-07-23T09:30:04Z</time>
      </trkpt>
      <trkpt lat="42.52454" lon="0.19025">
        <ele>969.8</ele>
        <time>2016-07-23T09:30:05Z</time>
      </trkpt>
      <trkpt lat="42.52457" lon="0.19026">
        <ele>968.6</ele>
        <time>2016-07-23T09:30:06Z</time>
      </trkpt>
      <trkpt lat="42.5246" lon="0.19027">
        <ele>967.8</ele>
        <time>2016-07-23T09:30:07Z</time>
      </trkpt>
      <trkpt lat="42.52464" lon="0.19028">
        <ele>967.3</ele>
        <time>2016-07-23T09:30:08Z</time>
      </trkpt>
      <trkpt lat="42.52467" lon="0.19028">
        <ele>966.9</ele>
        <time>2016-07-23T09:30:09Z</time>
      </trkpt>
      <trkpt lat="42.5247" lon="0.19029">
        <ele>966.4</ele>
        <time>2016-07-23T09:30:10Z</time>
      </trkpt>
      <trkpt lat="42.52473" lon="0.19029">
        <ele>966</ele>
        <time>2016-07-23T09:30:11Z</time>
      </trkpt>
      <trkpt lat="42.52476" lon="0.1903">
        <ele>965.6</ele>
        <time>2016-07-23T09:30:12Z</time>
      </trkpt>
      <trkpt lat="42.52479" lon="0.1903">
        <ele>965.2</ele>
        <time>2016-07-23T09:30:13Z</time>
      </trkpt>
      <trkpt lat="42.52482" lon="0.1903">
        <ele>964.9</ele>
        <time>2016-07-23T09:30:14Z</time>
      </trkpt>
      <trkpt lat="42.52485" lon="0.19029">
        <ele>964.8</ele>
        <time>2016-07-23T09:30:15Z</time>
      </trkpt>
      <trkpt lat="42.52488" lon="0.19028">
        <ele>964.6</ele>
        <time>2016-07-23T09:30:16Z</time>
      </trkpt>
      <trkpt lat="42.52491" lon="0.19027">
        <ele>964.5</ele>
        <time>2016-07-23T09:30:17Z</time>
      </trkpt>
      <trkpt lat="42.52494" lon="0.19025">
        <ele>964.5</ele>
        <time>2016-07-23T09:30:18Z</time>
      </trkpt>
      <trkpt lat="42.52497" lon="0.19023">
        <ele>964.4</ele>
        <time>2016-07-23T09:30:19Z</time>
      </trkpt>
      <trkpt lat="42.525" lon="0.19022">
        <ele>964.3</ele>
        <time>2016-07-23T09:30:20Z</time>
      </trkpt>
      <trkpt lat="42.52503" lon="0.1902">
        <ele>964.2</ele>
        <time>2016-07-23T09:30:21Z</time>
      </trkpt>
      <trkpt lat="42.52506" lon="0.1902">
        <ele>964</ele>
        <time>2016-07-23T09:30:22Z</time>
      </trkpt>
      <trkpt lat="42.52509" lon="0.19019">
        <ele>963.7</ele>
        <time>2016-07-23T09:30:23Z</time>
      </trkpt>
      <trkpt lat="42.52512" lon="0.1902">
        <ele>963.3</ele>
        <time>2016-07-23T09:30:24Z</time>
      </trkpt>
      <trkpt lat="42.52514" lon="0.19021">
        <ele>962.8</ele>
        <time>2016-07-23T09:30:25Z</time>
      </trkpt>
      <trkpt lat="42.52518" lon="0.19026">
        <ele>961.7</ele>
        <time>2016-07-23T09:30:27Z</time>
      </trkpt>
      <trkpt lat="42.5252" lon="0.19033">
        <ele>960.5</ele>
        <time>2016-07-23T09:30:29Z</time>
      </trkpt>
      <trkpt lat="42.5252" lon="0.1904">
        <ele>959.5</ele>
        <time>2016-07-23T09:30:31Z</time>
      </trkpt>
      <trkpt lat="42.52518" lon="0.19045">
        <ele>960.2</ele>
        <time>2016-07-23T09:30:33Z</time>
      </trkpt>
      <trkpt lat="42.52515" lon="0.19051">
        <ele>961.8</ele>
        <time>2016-07-23T09:30:35Z</time>
      </trkpt>
      <trkpt lat="42.52513" lon="0.19056">
        <ele>963.2</ele>
        <time>2016-07-23T09:30:37Z</time>
      </trkpt>
      <trkpt lat="42.52511" lon="0.19061">
        <ele>964.6</ele>
        <time>2016-07-23T09:30:39Z</time>
      </trkpt>
      <trkpt lat="42.52509" lon="0.19067">
        <ele>966.2</ele>
        <time>2016-07-23T09:30:41Z</time>
      </trkpt>
      <trkpt lat="42.52508" lon="0.19072">
        <ele>967.6</ele>
        <time>2016-07-23T09:30:43Z</time>
      </trkpt>
      <trkpt lat="42.52507" lon="0.19078">
        <ele>969.1</ele>
        <time>2016-07-23T09:30:45Z</time>
      </trkpt>
      <trkpt lat="42.52507" lon="0.19083">
        <ele>970.6</ele>
        <time>2016-07-23T09:30:47Z</time>
      </trkpt>
      <trkpt lat="42.52507" lon="0.1909">
        <ele>972.1</ele>
        <time>2016-07-23T09:30:49Z</time>
      </trkpt>
      <trkpt lat="42.52508" lon="0.19096">
        <ele>973.6</ele>
        <time>2016-07-23T09:30:51Z</time>
      </trkpt>
      <trkpt lat="42.52508" lon="0.19102">
        <ele>975</ele>
        <time>2016-07-23T09:30:53Z</time>
      </trkpt>
      <trkpt lat="42.52508" lon="0.19108">
        <ele>976.6</ele>
        <time>2016-07-23T09:30:55Z</time>
      </trkpt>
      <trkpt lat="42.52508" lon="0.19115">
        <ele>978.1</ele>
        <time>2016-07-23T09:30:57Z</time>
      </trkpt>
      <trkpt lat="42.52508" lon="0.19121">
        <ele>979.6</ele>
        <time>2016-07-23T09:30:59Z</time>
      </trkpt>
      <trkpt lat="42.52508" lon="0.19127">
        <ele>981.1</ele>
        <time>2016-07-23T09:31:01Z</time>
      </trkpt>
      <trkpt lat="42.52509" lon="0.19133">
        <ele>982.7</ele>
        <time>2016-07-23T09:31:03Z</time>
      </trkpt>
      <trkpt lat="42.52509" lon="0.19139">
        <ele>984.4</ele>
        <time>2016-07-23T09:31:05Z</time>
      </trkpt>
      <trkpt lat="42.5251" lon="0.19146">
        <ele>986.3</ele>
        <time>2016-07-23T09:31:07Z</time>
      </trkpt>
      <trkpt lat="42.5251" lon="0.19153">
        <ele>988.1</ele>
        <time>2016-07-23T09:31:09Z</time>
      </trkpt>
      <trkpt lat="42.52511" lon="0.19159">
        <ele>989.6</ele>
        <time>2016-07-23T09:31:11Z</time>
      </trkpt>
      <trkpt lat="42.52513" lon="0.19164">
        <ele>990.6</ele>
        <time>2016-07-23T09:31:13Z</time>
      </trkpt>
      <trkpt lat="42.52515" lon="0.19166">
        <ele>990.8</ele>
        <time>2016-07-23T09:31:14Z</time>
      </trkpt>
      <trkpt lat="42.52518" lon="0.19168">
        <ele>990.6</ele>
        <time>2016-07-23T09:31:15Z</time>
      </trkpt>
      <trkpt lat="42.52523" lon="0.19168">
        <ele>989.7</ele>
        <time>2016-07-23T09:31:17Z</time>
      </trkpt>
      <trkpt lat="42.52527" lon="0.19167">
        <ele>988.5</ele>
        <time>2016-07-23T09:31:19Z</time>
      </trkpt>
      <trkpt lat="42.52531" lon="0.19165">
        <ele>987.3</ele>
        <time>2016-07-23T09:31:21Z</time>
      </trkpt>
      <trkpt lat="42.52534" lon="0.19161">
        <ele>985.8</ele>
        <time>2016-07-23T09:31:23Z</time>
      </trkpt>
      <trkpt lat="42.52537" lon="0.19156">
        <ele>984.1</ele>
        <time>2016-07-23T09:31:25Z</time>
      </trkpt>
      <trkpt lat="42.5254" lon="0.19151">
        <ele>982.6</ele>
        <time>2016-07-23T09:31:27Z</time>
      </trkpt>
      <trkpt lat="42.52544" lon="0.19147">
        <ele>981</ele>
        <time>2016-07-23T09:31:29Z</time>
      </trkpt>
      <trkpt lat="42.52547" lon="0.19143">
        <ele>979.3</ele>
        <time>2016-07-23T09:31:31Z</time>
      </trkpt>
      <trkpt lat="42.52551" lon="0.19139">
        <ele>977.8</ele>
        <time>2016-07-23T09:31:33Z</time>
      </trkpt>
      <trkpt lat="42.52555" lon="0.19136">
        <ele>976.2</ele>
        <time>2016-07-23T09:31:35Z</time>
      </trkpt>
      <trkpt lat="42.52559" lon="0.19135">
        <ele>974.9</ele>
        <time>2016-07-23T09:31:37Z</time>
      </trkpt>
      <trkpt lat="42.52563" lon="0.19134">
        <ele>973.9</ele>
        <time>2016-07-23T09:31:39Z</time>
      </trkpt>
      <trkpt lat="42.52567" lon="0.19136">
        <ele>973.2</ele>
        <time>2016-07-23T09:31:41Z</time>
      </trkpt>
      <trkpt lat="42.5257" lon="0.19138">
        <ele>972.9</ele>
        <time>2016-07-23T09:31:43Z</time>
      </trkpt>
      <trkpt lat="42.52573" lon="0.19141">
        <ele>972.7</ele>
        <time>2016-07-23T09:31:45Z</time>
      </trkpt>
      <trkpt lat="42.52577" lon="0.19144">
        <ele>972.5</ele>
        <time>2016-07-23T09:31:47Z</time>
      </trkpt>
      <trkpt lat="42.52579" lon="0.19147">
        <ele>972.7</ele>
        <time>2016-07-23T09:31:49Z</time>
      </trkpt>
      <trkpt lat="42.52581" lon="0.19152">
        <ele>973.1</ele>
        <time>2016-07-23T09:31:51Z</time>
      </trkpt>
      <trkpt lat="42.52582" lon="0.19156">
        <ele>973.9</ele>
        <time>2016-07-23T09:31:53Z</time>
      </trkpt>
      <trkpt lat="42.52582" lon="0.19162">
        <ele>975.1</ele>
        <time>2016-07-23T09:31:55Z</time>
      </trkpt>
      <trkpt lat="42.52582" lon="0.19167">
        <ele>976.3</ele>
        <time>2016-07-23T09:31:57Z</time>
      </trkpt>
      <trkpt lat="42.52582" lon="0.19172">
        <ele>977.3</ele>
        <time>2016-07-23T09:31:59Z</time>
      </trkpt>
      <trkpt lat="42.52582" lon="0.19177">
        <ele>978.2</ele>
        <time>2016-07-23T09:32:01Z</time>
      </trkpt>
      <trkpt lat="42.52583" lon="0.19183">
        <ele>979.2</ele>
        <time>2016-07-23T09:32:03Z</time>
      </trkpt>
      <trkpt lat="42.52584" lon="0.19188">
        <ele>980.2</ele>
        <time>2016-07-23T09:32:05Z</time>
      </trkpt>
      <trkpt lat="42.52584" lon="0.19194">
        <ele>981.3</ele>
        <time>2016-07-23T09:32:07Z</time>
      </trkpt>
      <trkpt lat="42.52585" lon="0.192">
        <ele>982.3</ele>
        <time>2016-07-23T09:32:09Z</time>
      </trkpt>
      <trkpt lat="42.52586" lon="0.19206">
        <ele>983.3</ele>
        <time>2016-07-23T09:32:11Z</time>
      </trkpt>
      <trkpt lat="42.52587" lon="0.19211">
        <ele>984.4</ele>
        <time>2016-07-23T09:32:13Z</time>
      </trkpt>
      <trkpt lat="42.52586" lon="0.19217">
        <ele>985.5</ele>
        <time>2016-07-23T09:32:15Z</time>
      </trkpt>
      <trkpt lat="42.52586" lon="0.19222">
        <ele>986.7</ele>
        <time>2016-07-23T09:32:17Z</time>
      </trkpt>
      <trkpt lat="42.52587" lon="0.19228">
        <ele>987.9</ele>
        <time>2016-07-23T09:32:19Z</time>
      </trkpt>
      <trkpt lat="42.52587" lon="0.19234">
        <ele>988.9</ele>
        <time>2016-07-23T09:32:21Z</time>
      </trkpt>
      <trkpt lat="42.52588" lon="0.1924">
        <ele>989.9</ele>
        <time>2016-07-23T09:32:23Z</time>
      </trkpt>
      <trkpt lat="42.52589" lon="0.19246">
        <ele>990.9</ele>
        <time>2016-07-23T09:32:25Z</time>
      </trkpt>
      <trkpt lat="42.5259" lon="0.19251">
        <ele>991.9</ele>
        <time>2016-07-23T09:32:27Z</time>
      </trkpt>
      <trkpt lat="42.5259" lon="0.19258">
        <ele>993</ele>
        <time>2016-07-23T09:32:29Z</time>
      </trkpt>
      <trkpt lat="42.52592" lon="0.19264">
        <ele>993.8</ele>
        <time>2016-07-23T09:32:31Z</time>
      </trkpt>
      <trkpt lat="42.52594" lon="0.19269">
        <ele>994.4</ele>
        <time>2016-07-23T09:32:33Z</time>
      </trkpt>
      <trkpt lat="42.52596" lon="0.19274">
        <ele>994.9</ele>
        <time>2016-07-23T09:32:35Z</time>
      </trkpt>
      <trkpt lat="42.52598" lon="0.19279">
        <ele>995.3</ele>
        <time>2016-07-23T09:32:37Z</time>
      </trkpt>
      <trkpt lat="42.52599" lon="0.19285">
        <ele>996.1</ele>
        <time>2016-07-23T09:32:39Z</time>
      </trkpt>
      <trkpt lat="42.52599" lon="0.19291">
        <ele>997.3</ele>
        <time>2016-07-23T09:32:41Z</time>
      </trkpt>
      <trkpt lat="42.52598" lon="0.19298">
        <ele>999</ele>
        <time>2016-07-23T09:32:43Z</time>
      </trkpt>
      <trkpt lat="42.52597" lon="0.19305">
        <ele>1001.1</ele>
        <time>2016-07-23T09:32:45Z</time>
      </trkpt>
      <trkpt lat="42.52595" lon="0.19308">
        <ele>1002.2</ele>
        <time>2016-07-23T09:32:46Z</time>
      </trkpt>
      <trkpt lat="42.52593" lon="0.19314">
        <ele>1004.2</ele>
        <time>2016-07-23T09:32:48Z</time>
      </trkpt>
      <trkpt lat="42.52591" lon="0.19319">
        <ele>1006.3</ele>
        <time>2016-07-23T09:32:50Z</time>
      </trkpt>
      <trkpt lat="42.52589" lon="0.19325">
        <ele>1008.3</ele>
        <time>2016-07-23T09:32:52Z</time>
      </trkpt>
      <trkpt lat="42.52587" lon="0.19331">
        <ele>1010.3</ele>
        <time>2016-07-23T09:32:54Z</time>
      </trkpt>
      <trkpt lat="42.52585" lon="0.19337">
        <ele>1012.4</ele>
        <time>2016-07-23T09:32:56Z</time>
      </trkpt>
      <trkpt lat="42.52583" lon="0.19343">
        <ele>1014.7</ele>
        <time>2016-07-23T09:32:58Z</time>
      </trkpt>
      <trkpt lat="42.52581" lon="0.19348">
        <ele>1017</ele>
        <time>2016-07-23T09:33:00Z</time>
      </trkpt>
      <trkpt lat="42.52578" lon="0.19353">
        <ele>1019</ele>
        <time>2016-07-23T09:33:02Z</time>
      </trkpt>
      <trkpt lat="42.52576" lon="0.19356">
        <ele>1021.1</ele>
        <time>2016-07-23T09:33:04Z</time>
      </trkpt>
      <trkpt lat="42.52573" lon="0.1936">
        <ele>1023.1</ele>
        <time>2016-07-23T09:33:06Z</time>
      </trkpt>
      <trkpt lat="42.52571" lon="0.19363">
        <ele>1025</ele>
        <time>2016-07-23T09:33:08Z</time>
      </trkpt>
      <trkpt lat="42.52569" lon="0.19368">
        <ele>1027.1</ele>
        <time>2016-07-23T09:33:10Z</time>
      </trkpt>
      <trkpt lat="42.52567" lon="0.19373">
        <ele>1029.4</ele>
        <time>2016-07-23T09:33:12Z</time>
      </trkpt>
      <trkpt lat="42.52565" lon="0.19378">
        <ele>1031.7</ele>
        <time>2016-07-23T09:33:14Z</time>
      </trkpt>
      <trkpt lat="42.52564" lon="0.19383">
        <ele>1033.6</ele>
        <time>2016-07-23T09:33:16Z</time>
      </trkpt>
      <trkpt lat="42.52563" lon="0.19389">
        <ele>1035.1</ele>
        <time>2016-07-23T09:33:18Z</time>
      </trkpt>
      <trkpt lat="42.52563" lon="0.19395">
        <ele>1036.7</ele>
        <time>2016-07-23T09:33:20Z</time>
      </trkpt>
      <trkpt lat="42.52564" lon="0.19402">
        <ele>1037.9</ele>
        <time>2016-07-23T09:33:22Z</time>
      </trkpt>
      <trkpt lat="42.52565" lon="0.19408">
        <ele>1038.6</ele>
        <time>2016-07-23T09:33:24Z</time>
      </trkpt>
      <trkpt lat="42.52566" lon="0.19415">
        <ele>1039.7</ele>
        <time>2016-07-23T09:33:26Z</time>
      </trkpt>
      <trkpt lat="42.52565" lon="0.19421">
        <ele>1041.2</ele>
        <time>2016-07-23T09:33:28Z</time>
      </trkpt>
      <trkpt lat="42.52565" lon="0.19427">
        <ele>1042.8</ele>
        <time>2016-07-23T09:33:30Z</time>
      </trkpt>
      <trkpt lat="42.52565" lon="0.19434">
        <ele>1044.5</ele>
        <time>2016-07-23T09:33:32Z</time>
      </trkpt>
      <trkpt lat="42.52566" lon="0.19441">
        <ele>1045</ele>
        <time>2016-07-23T09:33:34Z</time>
      </trkpt>
      <trkpt lat="42.5257" lon="0.19446">
        <ele>1044.2</ele>
        <time>2016-07-23T09:33:36Z</time>
      </trkpt>
      <trkpt lat="42.52574" lon="0.1945">
        <ele>1042.3</ele>
        <time>2016-07-23T09:33:38Z</time>
      </trkpt>
      <trkpt lat="42.52577" lon="0.19451">
        <ele>1041</ele>
        <time>2016-07-23T09:33:39Z</time>
      </trkpt>
      <trkpt lat="42.52581" lon="0.19454">
        <ele>1039</ele>
        <time>2016-07-23T09:33:41Z</time>
      </trkpt>
      <trkpt lat="42.52585" lon="0.19455">
        <ele>1036.9</ele>
        <time>2016-07-23T09:33:43Z</time>
      </trkpt>
      <trkpt lat="42.52589" lon="0.19455">
        <ele>1034.5</ele>
        <time>2016-07-23T09:33:45Z</time>
      </trkpt>
      <trkpt lat="42.52593" lon="0.19453">
        <ele>1031.7</ele>
        <time>2016-07-23T09:33:47Z</time>
      </trkpt>
      <trkpt lat="42.52597" lon="0.1945">
        <ele>1028.6</ele>
        <time>2016-07-23T09:33:49Z</time>
      </trkpt>
      <trkpt lat="42.52601" lon="0.19447">
        <ele>1025.8</ele>
        <time>2016-07-23T09:33:51Z</time>
      </trkpt>
      <trkpt lat="42.52605" lon="0.19444">
        <ele>1022.9</ele>
        <time>2016-07-23T09:33:53Z</time>
      </trkpt>
      <trkpt lat="42.5261" lon="0.19443">
        <ele>1020</ele>
        <time>2016-07-23T09:33:55Z</time>
      </trkpt>
      <trkpt lat="42.52615" lon="0.19443">
        <ele>1017.1</ele>
        <time>2016-07-23T09:33:57Z</time>
      </trkpt>
      <trkpt lat="42.5262" lon="0.19444">
        <ele>1014.5</ele>
        <time>2016-07-23T09:33:59Z</time>
      </trkpt>
      <trkpt lat="42.52624" lon="0.19445">
        <ele>1012.2</ele>
        <time>2016-07-23T09:34:01Z</time>
      </trkpt>
      <trkpt lat="42.52628" lon="0.19447">
        <ele>1010.5</ele>
        <time>2016-07-23T09:34:03Z</time>
      </trkpt>
      <trkpt lat="42.52633" lon="0.19447">
        <ele>1009</ele>
        <time>2016-07-23T09:34:05Z</time>
      </trkpt>
      <trkpt lat="42.52638" lon="0.19448">
        <ele>1007.5</ele>
        <time>2016-07-23T09:34:07Z</time>
      </trkpt>
      <trkpt lat="42.52642" lon="0.19448">
        <ele>1006.1</ele>
        <time>2016-07-23T09:34:09Z</time>
      </trkpt>
      <trkpt lat="42.52646" lon="0.19447">
        <ele>1004.6</ele>
        <time>2016-07-23T09:34:11Z</time>
      </trkpt>
      <trkpt lat="42.52651" lon="0.19446">
        <ele>1002.8</ele>
        <time>2016-07-23T09:34:13Z</time>
      </trkpt>
      <trkpt lat="42.52655" lon="0.19445">
        <ele>1001.3</ele>
        <time>2016-07-23T09:34:15Z</time>
      </trkpt>
      <trkpt lat="42.52659" lon="0.19445">
        <ele>1000</ele>
        <time>2016-07-23T09:34:17Z</time>
      </trkpt>
      <trkpt lat="42.52663" lon="0.19447">
        <ele>999</ele>
        <time>2016-07-23T09:34:19Z</time>
      </trkpt>
      <trkpt lat="42.52667" lon="0.1945">
        <ele>998.6</ele>
        <time>2016-07-23T09:34:21Z</time>
      </trkpt>
      <trkpt lat="42.52669" lon="0.19454">
        <ele>998.9</ele>
        <time>2016-07-23T09:34:23Z</time>
      </trkpt>
      <trkpt lat="42.52671" lon="0.19459">
        <ele>1000</ele>
        <time>2016-07-23T09:34:25Z</time>
      </trkpt>
      <trkpt lat="42.52671" lon="0.19465">
        <ele>1001.9</ele>
        <time>2016-07-23T09:34:27Z</time>
      </trkpt>
      <trkpt lat="42.52671" lon="0.19471">
        <ele>1004</ele>
        <time>2016-07-23T09:34:29Z</time>
      </trkpt>
      <trkpt lat="42.5267" lon="0.19477">
        <ele>1005.9</ele>
        <time>2016-07-23T09:34:31Z</time>
      </trkpt>
      <trkpt lat="42.52669" lon="0.19481">
        <ele>1007.8</ele>
        <time>2016-07-23T09:34:33Z</time>
      </trkpt>
      <trkpt lat="42.52667" lon="0.19485">
        <ele>1009.9</ele>
        <time>2016-07-23T09:34:35Z</time>
      </trkpt>
      <trkpt lat="42.52666" lon="0.19491">
        <ele>1011.9</ele>
        <time>2016-07-23T09:34:37Z</time>
      </trkpt>
      <trkpt lat="42.52666" lon="0.19497">
        <ele>1014.1</ele>
        <time>2016-07-23T09:34:39Z</time>
      </trkpt>
      <trkpt lat="42.52664" lon="0.19501">
        <ele>1015.9</ele>
        <time>2016-07-23T09:34:41Z</time>
      </trkpt>
      <trkpt lat="42.52662" lon="0.19506">
        <ele>1018.2</ele>
        <time>2016-07-23T09:34:43Z</time>
      </trkpt>
      <trkpt lat="42.5266" lon="0.19511">
        <ele>1020.5</ele>
        <time>2016-07-23T09:34:45Z</time>
      </trkpt>
      <trkpt lat="42.5266" lon="0.19516">
        <ele>1022.6</ele>
        <time>2016-07-23T09:34:47Z</time>
      </trkpt>
      <trkpt lat="42.52659" lon="0.19522">
        <ele>1024.8</ele>
        <time>2016-07-23T09:34:49Z</time>
      </trkpt>
      <trkpt lat="42.52658" lon="0.19527">
        <ele>1026.9</ele>
        <time>2016-07-23T09:34:51Z</time>
      </trkpt>
      <trkpt lat="42.52658" lon="0.19533">
        <ele>1029</ele>
        <time>2016-07-23T09:34:53Z</time>
      </trkpt>
      <trkpt lat="42.52658" lon="0.19539">
        <ele>1031.2</ele>
        <time>2016-07-23T09:34:55Z</time>
      </trkpt>
      <trkpt lat="42.52658" lon="0.19545">
        <ele>1033.3</ele>
        <time>2016-07-23T09:34:57Z</time>
      </trkpt>
      <trkpt lat="42.52659" lon="0.19552">
        <ele>1035.5</ele>
        <time>2016-07-23T09:34:59Z</time>
      </trkpt>
      <trkpt lat="42.52659" lon="0.19558">
        <ele>1037.5</ele>
        <time>2016-07-23T09:35:01Z</time>
      </trkpt>
      <trkpt lat="42.52661" lon="0.19564">
        <ele>1039.2</ele>
        <time>2016-07-23T09:35:03Z</time>
      </trkpt>
      <trkpt lat="42.52662" lon="0.19569">
        <ele>1040.6</ele>
        <time>2016-07-23T09:35:05Z</time>
      </trkpt>
      <trkpt lat="42.52663" lon="0.19575">
        <ele>1042.1</ele>
        <time>2016-07-23T09:35:07Z</time>
      </trkpt>
      <trkpt lat="42.52664" lon="0.19581">
        <ele>1043.9</ele>
        <time>2016-07-23T09:35:09Z</time>
      </trkpt>
      <trkpt lat="42.52665" lon="0.19586">
        <ele>1045.4</ele>
        <time>2016-07-23T09:35:11Z</time>
      </trkpt>
      <trkpt lat="42.52667" lon="0.19592">
        <ele>1046.8</ele>
        <time>2016-07-23T09:35:13Z</time>
      </trkpt>
      <trkpt lat="42.52667" lon="0.19598">
        <ele>1048.7</ele>
        <time>2016-07-23T09:35:15Z</time>
      </trkpt>
      <trkpt lat="42.52667" lon="0.19604">
        <ele>1050.9</ele>
        <time>2016-07-23T09:35:17Z</time>
      </trkpt>
      <trkpt lat="42.52667" lon="0.1961">
        <ele>1052.6</ele>
        <time>2016-07-23T09:35:19Z</time>
      </trkpt>
      <trkpt lat="42.52669" lon="0.19616">
        <ele>1053.8</ele>
        <time>2016-07-23T09:35:21Z</time>
      </trkpt>
      <trkpt lat="42.52672" lon="0.19621">
        <ele>1053.9</ele>
        <time>2016-07-23T09:35:23Z</time>
      </trkpt>
      <trkpt lat="42.52676" lon="0.19625">
        <ele>1053</ele>
        <time>2016-07-23T09:35:25Z</time>
      </trkpt>
      <trkpt lat="42.52679" lon="0.19626">
        <ele>1052.1</ele>
        <time>2016-07-23T09:35:26Z</time>
      </trkpt>
      <trkpt lat="42.52682" lon="0.19627">
        <ele>1051</ele>
        <time>2016-07-23T09:35:27Z</time>
      </trkpt>
      <trkpt lat="42.52684" lon="0.19628">
        <ele>1049.7</ele>
        <time>2016-07-23T09:35:28Z</time>
      </trkpt>
      <trkpt lat="42.52687" lon="0.19629">
        <ele>1048.3</ele>
        <time>2016-07-23T09:35:29Z</time>
      </trkpt>
      <trkpt lat="42.5269" lon="0.19629">
        <ele>1046.9</ele>
        <time>2016-07-23T09:35:30Z</time>
      </trkpt>
      <trkpt lat="42.52693" lon="0.19629">
        <ele>1045.6</ele>
        <time>2016-07-23T09:35:31Z</time>
      </trkpt>
      <trkpt lat="42.52695" lon="0.1963">
        <ele>1044.3</ele>
        <time>2016-07-23T09:35:32Z</time>
      </trkpt>
      <trkpt lat="42.52698" lon="0.19631">
        <ele>1043.2</ele>
        <time>2016-07-23T09:35:33Z</time>
      </trkpt>
      <trkpt lat="42.52701" lon="0.19632">
        <ele>1042</ele>
        <time>2016-07-23T09:35:34Z</time>
      </trkpt>
      <trkpt lat="42.52706" lon="0.19634">
        <ele>1039.7</ele>
        <time>2016-07-23T09:35:36Z</time>
      </trkpt>
      <trkpt lat="42.52711" lon="0.19635">
        <ele>1037.8</ele>
        <time>2016-07-23T09:35:38Z</time>
      </trkpt>
      <trkpt lat="42.52716" lon="0.19634">
        <ele>1035.5</ele>
        <time>2016-07-23T09:35:40Z</time>
      </trkpt>
      <trkpt lat="42.52721" lon="0.19632">
        <ele>1032.4</ele>
        <time>2016-07-23T09:35:42Z</time>
      </trkpt>
      <trkpt lat="42.52723" lon="0.19629">
        <ele>1030.4</ele>
        <time>2016-07-23T09:35:43Z</time>
      </trkpt>
      <trkpt lat="42.52726" lon="0.19627">
        <ele>1028.3</ele>
        <time>2016-07-23T09:35:44Z</time>
      </trkpt>
      <trkpt lat="42.52728" lon="0.19624">
        <ele>1026.3</ele>
        <time>2016-07-23T09:35:45Z</time>
      </trkpt>
      <trkpt lat="42.52731" lon="0.19621">
        <ele>1024.3</ele>
        <time>2016-07-23T09:35:46Z</time>
      </trkpt>
      <trkpt lat="42.52734" lon="0.19618">
        <ele>1022.2</ele>
        <time>2016-07-23T09:35:47Z</time>
      </trkpt>
      <trkpt lat="42.52737" lon="0.19616">
        <ele>1020</ele>
        <time>2016-07-23T09:35:48Z</time>
      </trkpt>
      <trkpt lat="42.52741" lon="0.19615">
        <ele>1018</ele>
        <time>2016-07-23T09:35:49Z</time>
      </trkpt>
      <trkpt lat="42.52744" lon="0.19614">
        <ele>1016.2</ele>
        <time>2016-07-23T09:35:50Z</time>
      </trkpt>
      <trkpt lat="42.52748" lon="0.19614">
        <ele>1014.9</ele>
        <time>2016-07-23T09:35:51Z</time>
      </trkpt>
      <trkpt lat="42.52751" lon="0.19615">
        <ele>1013.9</ele>
        <time>2016-07-23T09:35:52Z</time>
      </trkpt>
      <trkpt lat="42.52754" lon="0.19617">
        <ele>1013.3</ele>
        <time>2016-07-23T09:35:53Z</time>
      </trkpt>
      <trkpt lat="42.52757" lon="0.19619">
        <ele>1012.8</ele>
        <time>2016-07-23T09:35:54Z</time>
      </trkpt>
      <trkpt lat="42.52759" lon="0.19622">
        <ele>1012.6</ele>
        <time>2016-07-23T09:35:55Z</time>
      </trkpt>
      <trkpt lat="42.52762" lon="0.19626">
        <ele>1013</ele>
        <time>2016-07-23T09:35:56Z</time>
      </trkpt>
      <trkpt lat="42.52764" lon="0.1963">
        <ele>1014.2</ele>
        <time>2016-07-23T09:35:57Z</time>
      </trkpt>
      <trkpt lat="42.52766" lon="0.19635">
        <ele>1015.8</ele>
        <time>2016-07-23T09:35:58Z</time>
      </trkpt>
      <trkpt lat="42.52767" lon="0.1964">
        <ele>1017.7</ele>
        <time>2016-07-23T09:35:59Z</time>
      </trkpt>
      <trkpt lat="42.52767" lon="0.19644">
        <ele>1019.7</ele>
        <time>2016-07-23T09:36:00Z</time>
      </trkpt>
      <trkpt lat="42.52768" lon="0.19649">
        <ele>1021.9</ele>
        <time>2016-07-23T09:36:01Z</time>
      </trkpt>
      <trkpt lat="42.52768" lon="0.19653">
        <ele>1024</ele>
        <time>2016-07-23T09:36:02Z</time>
      </trkpt>
      <trkpt lat="42.52768" lon="0.19657">
        <ele>1026</ele>
        <time>2016-07-23T09:36:03Z</time>
      </trkpt>
      <trkpt lat="42.52768" lon="0.19661">
        <ele>1028</ele>
        <time>2016-07-23T09:36:04Z</time>
      </trkpt>
      <trkpt lat="42.52768" lon="0.19666">
        <ele>1030</ele>
        <time>2016-07-23T09:36:05Z</time>
      </trkpt>
      <trkpt lat="42.52769" lon="0.1967">
        <ele>1031.9</ele>
        <time>2016-07-23T09:36:06Z</time>
      </trkpt>
      <trkpt lat="42.52769" lon="0.19674">
        <ele>1033.8</ele>
        <time>2016-07-23T09:36:07Z</time>
      </trkpt>
      <trkpt lat="42.5277" lon="0.19678">
        <ele>1035.5</ele>
        <time>2016-07-23T09:36:08Z</time>
      </trkpt>
      <trkpt lat="42.52772" lon="0.19682">
        <ele>1037.2</ele>
        <time>2016-07-23T09:36:09Z</time>
      </trkpt>
      <trkpt lat="42.52774" lon="0.19687">
        <ele>1038.7</ele>
        <time>2016-07-23T09:36:10Z</time>
      </trkpt>
      <trkpt lat="42.52776" lon="0.1969">
        <ele>1040</ele>
        <time>2016-07-23T09:36:11Z</time>
      </trkpt>
      <trkpt lat="42.52778" lon="0.19694">
        <ele>1041.1</ele>
        <time>2016-07-23T09:36:12Z</time>
      </trkpt>
      <trkpt lat="42.52781" lon="0.19697">
        <ele>1042.2</ele>
        <time>2016-07-23T09:36:13Z</time>
      </trkpt>
      <trkpt lat="42.52783" lon="0.197">
        <ele>1043.1</ele>
        <time>2016-07-23T09:36:14Z</time>
      </trkpt>
      <trkpt lat="42.52786" lon="0.19704">
        <ele>1044</ele>
        <time>2016-07-23T09:36:15Z</time>
      </trkpt>
      <trkpt lat="42.52788" lon="0.19707">
        <ele>1045.1</ele>
        <time>2016-07-23T09:36:16Z</time>
      </trkpt>
      <trkpt lat="42.5279" lon="0.1971">
        <ele>1046.1</ele>
        <time>2016-07-23T09:36:17Z</time>
      </trkpt>
      <trkpt lat="42.52791" lon="0.19714">
        <ele>1047.1</ele>
        <time>2016-07-23T09:36:18Z</time>
      </trkpt>
      <trkpt lat="42.52793" lon="0.19719">
        <ele>1047.8</ele>
        <time>2016-07-23T09:36:19Z</time>
      </trkpt>
      <trkpt lat="42.52795" lon="0.19723">
        <ele>1048</ele>
        <time>2016-07-23T09:36:20Z</time>
      </trkpt>
      <trkpt lat="42.52798" lon="0.19727">
        <ele>1047.7</ele>
        <time>2016-07-23T09:36:21Z</time>
      </trkpt>
      <trkpt lat="42.52801" lon="0.1973">
        <ele>1047.1</ele>
        <time>2016-07-23T09:36:22Z</time>
      </trkpt>
      <trkpt lat="42.52804" lon="0.19733">
        <ele>1046.3</ele>
        <time>2016-07-23T09:36:23Z</time>
      </trkpt>
      <trkpt lat="42.52807" lon="0.19736">
        <ele>1045.5</ele>
        <time>2016-07-23T09:36:24Z</time>
      </trkpt>
      <trkpt lat="42.5281" lon="0.19738">
        <ele>1044.7</ele>
        <time>2016-07-23T09:36:25Z</time>
      </trkpt>
      <trkpt lat="42.52814" lon="0.19741">
        <ele>1043.7</ele>
        <time>2016-07-23T09:36:26Z</time>
      </trkpt>
      <trkpt lat="42.52817" lon="0.19743">
        <ele>1042.9</ele>
        <time>2016-07-23T09:36:27Z</time>
      </trkpt>
      <trkpt lat="42.5282" lon="0.19746">
        <ele>1042.5</ele>
        <time>2016-07-23T09:36:28Z</time>
      </trkpt>
      <trkpt lat="42.52823" lon="0.19749">
        <ele>1042.1</ele>
        <time>2016-07-23T09:36:29Z</time>
      </trkpt>
      <trkpt lat="42.52825" lon="0.19752">
        <ele>1041.9</ele>
        <time>2016-07-23T09:36:30Z</time>
      </trkpt>
      <trkpt lat="42.52829" lon="0.19753">
        <ele>1040.6</ele>
        <time>2016-07-23T09:36:31Z</time>
      </trkpt>
      <trkpt lat="42.52833" lon="0.19754">
        <ele>1038.8</ele>
        <time>2016-07-23T09:36:32Z</time>
      </trkpt>
      <trkpt lat="42.52837" lon="0.19754">
        <ele>1036.6</ele>
        <time>2016-07-23T09:36:33Z</time>
      </trkpt>
      <trkpt lat="42.52841" lon="0.19753">
        <ele>1034.4</ele>
        <time>2016-07-23T09:36:34Z</time>
      </trkpt>
      <trkpt lat="42.52845" lon="0.19752">
        <ele>1032</ele>
        <time>2016-07-23T09:36:35Z</time>
      </trkpt>
      <trkpt lat="42.52848" lon="0.19751">
        <ele>1029.6</ele>
        <time>2016-07-23T09:36:36Z</time>
      </trkpt>
      <trkpt lat="42.52852" lon="0.1975">
        <ele>1027.2</ele>
        <time>2016-07-23T09:36:37Z</time>
      </trkpt>
      <trkpt lat="42.52856" lon="0.19749">
        <ele>1024.9</ele>
        <time>2016-07-23T09:36:38Z</time>
      </trkpt>
      <trkpt lat="42.5286" lon="0.19749">
        <ele>1022.6</ele>
        <time>2016-07-23T09:36:39Z</time>
      </trkpt>
      <trkpt lat="42.52864" lon="0.19748">
        <ele>1020.4</ele>
        <time>2016-07-23T09:36:40Z</time>
      </trkpt>
      <trkpt lat="42.52868" lon="0.19748">
        <ele>1018.6</ele>
        <time>2016-07-23T09:36:41Z</time>
      </trkpt>
      <trkpt lat="42.52871" lon="0.19749">
        <ele>1017.1</ele>
        <time>2016-07-23T09:36:42Z</time>
      </trkpt>
      <trkpt lat="42.52875" lon="0.19751">
        <ele>1016</ele>
        <time>2016-07-23T09:36:43Z</time>
      </trkpt>
      <trkpt lat="42.52878" lon="0.19754">
        <ele>1016.5</ele>
        <time>2016-07-23T09:36:44Z</time>
      </trkpt>
      <trkpt lat="42.52881" lon="0.19757">
        <ele>1017.4</ele>
        <time>2016-07-23T09:36:45Z</time>
      </trkpt>
      <trkpt lat="42.52884" lon="0.19761">
        <ele>1018.8</ele>
        <time>2016-07-23T09:36:46Z</time>
      </trkpt>
      <trkpt lat="42.52886" lon="0.19765">
        <ele>1020.2</ele>
        <time>2016-07-23T09:36:47Z</time>
      </trkpt>
      <trkpt lat="42.52888" lon="0.19769">
        <ele>1021.7</ele>
        <time>2016-07-23T09:36:48Z</time>
      </trkpt>
      <trkpt lat="42.52889" lon="0.19773">
        <ele>1023.2</ele>
        <time>2016-07-23T09:36:49Z</time>
      </trkpt>
      <trkpt lat="42.52891" lon="0.19777">
        <ele>1024.5</ele>
        <time>2016-07-23T09:36:50Z</time>
      </trkpt>
      <trkpt lat="42.52893" lon="0.1978">
        <ele>1025.8</ele>
        <time>2016-07-23T09:36:51Z</time>
      </trkpt>
      <trkpt lat="42.52894" lon="0.19784">
        <ele>1027.1</ele>
        <time>2016-07-23T09:36:52Z</time>
      </trkpt>
      <trkpt lat="42.52896" lon="0.19787">
        <ele>1028.4</ele>
        <time>2016-07-23T09:36:53Z</time>
      </trkpt>
      <trkpt lat="42.52898" lon="0.19791">
        <ele>1029.4</ele>
        <time>2016-07-23T09:36:54Z</time>
      </trkpt>
      <trkpt lat="42.529" lon="0.19794">
        <ele>1029.8</ele>
        <time>2016-07-23T09:36:55Z</time>
      </trkpt>
      <trkpt lat="42.52902" lon="0.19796">
        <ele>1029.6</ele>
        <time>2016-07-23T09:36:56Z</time>
      </trkpt>
      <trkpt lat="42.52905" lon="0.19798">
        <ele>1029.5</ele>
        <time>2016-07-23T09:36:57Z</time>
      </trkpt>
      <trkpt lat="42.52907" lon="0.198">
        <ele>1029.2</ele>
        <time>2016-07-23T09:36:58Z</time>
      </trkpt>
      <trkpt lat="42.5291" lon="0.19803">
        <ele>1029</ele>
        <time>2016-07-23T09:36:59Z</time>
      </trkpt>
      <trkpt lat="42.52912" lon="0.19805">
        <ele>1028.8</ele>
        <time>2016-07-23T09:37:00Z</time>
      </trkpt>
      <trkpt lat="42.52915" lon="0.19807">
        <ele>1028.6</ele>
        <time>2016-07-23T09:37:01Z</time>
      </trkpt>
      <trkpt lat="42.52917" lon="0.19809">
        <ele>1028.4</ele>
        <time>2016-07-23T09:37:02Z</time>
      </trkpt>
      <trkpt lat="42.5292" lon="0.19811">
        <ele>1028.2</ele>
        <time>2016-07-23T09:37:03Z</time>
      </trkpt>
      <trkpt lat="42.52922" lon="0.19813">
        <ele>1028.1</ele>
        <time>2016-07-23T09:37:04Z</time>
      </trkpt>
      <trkpt lat="42.52924" lon="0.19816">
        <ele>1027.9</ele>
        <time>2016-07-23T09:37:05Z</time>
      </trkpt>
      <trkpt lat="42.52927" lon="0.19817">
        <ele>1027.7</ele>
        <time>2016-07-23T09:37:06Z</time>
      </trkpt>
      <trkpt lat="42.5293" lon="0.19819">
        <ele>1027.4</ele>
        <time>2016-07-23T09:37:07Z</time>
      </trkpt>
      <trkpt lat="42.52932" lon="0.19821">
        <ele>1027.2</ele>
        <time>2016-07-23T09:37:08Z</time>
      </trkpt>
      <trkpt lat="42.52934" lon="0.19823">
        <ele>1027.1</ele>
        <time>2016-07-23T09:37:09Z</time>
      </trkpt>
      <trkpt lat="42.52937" lon="0.19829">
        <ele>1027.7</ele>
        <time>2016-07-23T09:37:11Z</time>
      </trkpt>
      <trkpt lat="42.52938" lon="0.19836">
        <ele>1029</ele>
        <time>2016-07-23T09:37:13Z</time>
      </trkpt>
      <trkpt lat="42.52937" lon="0.1984">
        <ele>1029.9</ele>
        <time>2016-07-23T09:37:14Z</time>
      </trkpt>
      <trkpt lat="42.52935" lon="0.19843">
        <ele>1031.1</ele>
        <time>2016-07-23T09:37:15Z</time>
      </trkpt>
      <trkpt lat="42.52932" lon="0.19846">
        <ele>1032.4</ele>
        <time>2016-07-23T09:37:16Z</time>
      </trkpt>
      <trkpt lat="42.52929" lon="0.19848">
        <ele>1033.7</ele>
        <time>2016-07-23T09:37:17Z</time>
      </trkpt>
      <trkpt lat="42.52924" lon="0.1985">
        <ele>1035.2</ele>
        <time>2016-07-23T09:37:18Z</time>
      </trkpt>
      <trkpt lat="42.52918" lon="0.19851">
        <ele>1036.7</ele>
        <time>2016-07-23T09:37:19Z</time>
      </trkpt>
      <trkpt lat="42.52913" lon="0.19853">
        <ele>1038.4</ele>
        <time>2016-07-23T09:37:20Z</time>
      </trkpt>
      <trkpt lat="42.52906" lon="0.19855">
        <ele>1040.2</ele>
        <time>2016-07-23T09:37:21Z</time>
      </trkpt>
      <trkpt lat="42.529" lon="0.19856">
        <ele>1041.9</ele>
        <time>2016-07-23T09:37:22Z</time>
      </trkpt>
      <trkpt lat="42.52894" lon="0.19856">
        <ele>1043.4</ele>
        <time>2016-07-23T09:37:23Z</time>
      </trkpt>
      <trkpt lat="42.52887" lon="0.19857">
        <ele>1045.1</ele>
        <time>2016-07-23T09:37:24Z</time>
      </trkpt>
      <trkpt lat="42.5288" lon="0.19858">
        <ele>1046.9</ele>
        <time>2016-07-23T09:37:25Z</time>
      </trkpt>
      <trkpt lat="42.52873" lon="0.19861">
        <ele>1048.9</ele>
        <time>2016-07-23T09:37:26Z</time>
      </trkpt>
      <trkpt lat="42.52866" lon="0.19864">
        <ele>1051</ele>
        <time>2016-07-23T09:37:27Z</time>
      </trkpt>
      <trkpt lat="42.52859" lon="0.19868">
        <ele>1052.8</ele>
        <time>2016-07-23T09:37:28Z</time>
      </trkpt>
      <trkpt lat="42.52853" lon="0.19872">
        <ele>1054.5</ele>
        <time>2016-07-23T09:37:29Z</time>
      </trkpt>
      <trkpt lat="42.52848" lon="0.19879">
        <ele>1054</ele>
        <time>2016-07-23T09:37:30Z</time>
      </trkpt>
      <trkpt lat="42.52842" lon="0.19883">
        <ele>1052.9</ele>
        <time>2016-07-23T09:37:31Z</time>
      </trkpt>
      <trkpt lat="42.52836" lon="0.19888">
        <ele>1051.7</ele>
        <time>2016-07-23T09:37:32Z</time>
      </trkpt>
      <trkpt lat="42.5283" lon="0.19892">
        <ele>1050.8</ele>
        <time>2016-07-23T09:37:33Z</time>
      </trkpt>
      <trkpt lat="42.52826" lon="0.19892">
        <ele>1051.6</ele>
        <time>2016-07-23T09:37:34Z</time>
      </trkpt>
      <trkpt lat="42.52818" lon="0.19894">
        <ele>1052.1</ele>
        <time>2016-07-23T09:37:35Z</time>
      </trkpt>
      <trkpt lat="42.52814" lon="0.19893">
        <ele>1053.2</ele>
        <time>2016-07-23T09:37:36Z</time>
      </trkpt>
      <trkpt lat="42.52807" lon="0.19893">
        <ele>1054.4</ele>
        <time>2016-07-23T09:37:37Z</time>
      </trkpt>
      <trkpt lat="42.52801" lon="0.19892">
        <ele>1056</ele>
        <time>2016-07-23T09:37:38Z</time>
      </trkpt>
      <trkpt lat="42.52794" lon="0.19892">
        <ele>1057</ele>
        <time>2016-07-23T09:37:39Z</time>
      </trkpt>
      <trkpt lat="42.52787" lon="0.19891">
        <ele>1059.6</ele>
        <time>2016-07-23T09:37:40Z</time>
      </trkpt>
      <trkpt lat="42.52781" lon="0.19891">
        <ele>1062</ele>
        <time>2016-07-23T09:37:41Z</time>
      </trkpt>
      <trkpt lat="42.52774" lon="0.19891">
        <ele>1065</ele>
        <time>2016-07-23T09:37:42Z</time>
      </trkpt>
      <trkpt lat="42.52767" lon="0.19892">
        <ele>1067</ele>
        <time>2016-07-23T09:37:43Z</time>
      </trkpt>
      <trkpt lat="42.5276" lon="0.19895">
        <ele>1068.3</ele>
        <time>2016-07-23T09:37:44Z</time>
      </trkpt>
      <trkpt lat="42.52753" lon="0.19899">
        <ele>1069.3</ele>
        <time>2016-07-23T09:37:45Z</time>
      </trkpt>
      <trkpt lat="42.52746" lon="0.19903">
        <ele>1070.2</ele>
        <time>2016-07-23T09:37:46Z</time>
      </trkpt>
      <trkpt lat="42.5274" lon="0.19906">
        <ele>1070.9</ele>
        <time>2016-07-23T09:37:47Z</time>
      </trkpt>
      <trkpt lat="42.52734" lon="0.19911">
        <ele>1071.1</ele>
        <time>2016-07-23T09:37:48Z</time>
      </trkpt>
      <trkpt lat="42.5273" lon="0.19913">
        <ele>1072.1</ele>
        <time>2016-07-23T09:37:49Z</time>
      </trkpt>
      <trkpt lat="42.52725" lon="0.19919">
        <ele>1071</ele>
        <time>2016-07-23T09:37:50Z</time>
      </trkpt>
      <trkpt lat="42.52721" lon="0.19927">
        <ele>1069.5</ele>
        <time>2016-07-23T09:37:52Z</time>
      </trkpt>
      <trkpt lat="42.52718" lon="0.19933">
        <ele>1067.6</ele>
        <time>2016-07-23T09:37:53Z</time>
      </trkpt>
      <trkpt lat="42.52715" lon="0.19942">
        <ele>1064.8</ele>
        <time>2016-07-23T09:37:54Z</time>
      </trkpt>
      <trkpt lat="42.52716" lon="0.19949">
        <ele>1061.1</ele>
        <time>2016-07-23T09:37:55Z</time>
      </trkpt>
      <trkpt lat="42.52715" lon="0.19956">
        <ele>1058.3</ele>
        <time>2016-07-23T09:37:56Z</time>
      </trkpt>
      <trkpt lat="42.52711" lon="0.19963">
        <ele>1057</ele>
        <time>2016-07-23T09:37:57Z</time>
      </trkpt>
      <trkpt lat="42.52707" lon="0.1997">
        <ele>1054.9</ele>
        <time>2016-07-23T09:37:58Z</time>
      </trkpt>
      <trkpt lat="42.52702" lon="0.19977">
        <ele>1052.7</ele>
        <time>2016-07-23T09:37:59Z</time>
      </trkpt>
      <trkpt lat="42.52698" lon="0.19984">
        <ele>1049.7</ele>
        <time>2016-07-23T09:38:00Z</time>
      </trkpt>
      <trkpt lat="42.52692" lon="0.19992">
        <ele>1046.7</ele>
        <time>2016-07-23T09:38:01Z</time>
      </trkpt>
      <trkpt lat="42.52688" lon="0.19999">
        <ele>1043.6</ele>
        <time>2016-07-23T09:38:02Z</time>
      </trkpt>
      <trkpt lat="42.52688" lon="0.20008">
        <ele>1039.6</ele>
        <time>2016-07-23T09:38:03Z</time>
      </trkpt>
      <trkpt lat="42.52686" lon="0.20015">
        <ele>1036.3</ele>
        <time>2016-07-23T09:38:04Z</time>
      </trkpt>
      <trkpt lat="42.52681" lon="0.20021">
        <ele>1033.8</ele>
        <time>2016-07-23T09:38:05Z</time>
      </trkpt>
      <trkpt lat="42.52677" lon="0.20026">
        <ele>1031.5</ele>
        <time>2016-07-23T09:38:06Z</time>
      </trkpt>
      <trkpt lat="42.52671" lon="0.2003">
        <ele>1029.9</ele>
        <time>2016-07-23T09:38:07Z</time>
      </trkpt>
      <trkpt lat="42.52668" lon="0.2003">
        <ele>1029.8</ele>
        <time>2016-07-23T09:38:08Z</time>
      </trkpt>
      <trkpt lat="42.52664" lon="0.20028">
        <ele>1031.5</ele>
        <time>2016-07-23T09:38:09Z</time>
      </trkpt>
      <trkpt lat="42.5266" lon="0.20026">
        <ele>1032.6</ele>
        <time>2016-07-23T09:38:10Z</time>
      </trkpt>
      <trkpt lat="42.52656" lon="0.20023">
        <ele>1034.9</ele>
        <time>2016-07-23T09:38:11Z</time>
      </trkpt>
      <trkpt lat="42.52652" lon="0.20019">
        <ele>1037.2</ele>
        <time>2016-07-23T09:38:12Z</time>
      </trkpt>
      <trkpt lat="42.52649" lon="0.20014">
        <ele>1040.3</ele>
        <time>2016-07-23T09:38:13Z</time>
      </trkpt>
      <trkpt lat="42.52645" lon="0.20009">
        <ele>1043.2</ele>
        <time>2016-07-23T09:38:14Z</time>
      </trkpt>
      <trkpt lat="42.52642" lon="0.20005">
        <ele>1045.8</ele>
        <time>2016-07-23T09:38:15Z</time>
      </trkpt>
      <trkpt lat="42.52637" lon="0.20002">
        <ele>1048</ele>
        <time>2016-07-23T09:38:16Z</time>
      </trkpt>
      <trkpt lat="42.52631" lon="0.20002">
        <ele>1048.8</ele>
        <time>2016-07-23T09:38:17Z</time>
      </trkpt>
      <trkpt lat="42.52625" lon="0.20003">
        <ele>1048.9</ele>
        <time>2016-07-23T09:38:18Z</time>
      </trkpt>
      <trkpt lat="42.52618" lon="0.20005">
        <ele>1048.6</ele>
        <time>2016-07-23T09:38:19Z</time>
      </trkpt>
      <trkpt lat="42.52614" lon="0.20008">
        <ele>1047.2</ele>
        <time>2016-07-23T09:38:20Z</time>
      </trkpt>
      <trkpt lat="42.5261" lon="0.20012">
        <ele>1045.5</ele>
        <time>2016-07-23T09:38:21Z</time>
      </trkpt>
      <trkpt lat="42.52605" lon="0.20014">
        <ele>1044.7</ele>
        <time>2016-07-23T09:38:22Z</time>
      </trkpt>
      <trkpt lat="42.52597" lon="0.20015">
        <ele>1044.9</ele>
        <time>2016-07-23T09:38:23Z</time>
      </trkpt>
      <trkpt lat="42.5259" lon="0.20016">
        <ele>1044.9</ele>
        <time>2016-07-23T09:38:24Z</time>
      </trkpt>
      <trkpt lat="42.52584" lon="0.20017">
        <ele>1045</ele>
        <time>2016-07-23T09:38:25Z</time>
      </trkpt>
      <trkpt lat="42.52577" lon="0.20021">
        <ele>1043.4</ele>
        <time>2016-07-23T09:38:26Z</time>
      </trkpt>
      <trkpt lat="42.52571" lon="0.20025">
        <ele>1041.6</ele>
        <time>2016-07-23T09:38:27Z</time>
      </trkpt>
      <trkpt lat="42.52565" lon="0.2003">
        <ele>1038.9</ele>
        <time>2016-07-23T09:38:28Z</time>
      </trkpt>
      <trkpt lat="42.52559" lon="0.20033">
        <ele>1037.5</ele>
        <time>2016-07-23T09:38:29Z</time>
      </trkpt>
      <trkpt lat="42.52556" lon="0.20035">
        <ele>1036.5</ele>
        <time>2016-07-23T09:38:30Z</time>
      </trkpt>
      <trkpt lat="42.52551" lon="0.20035">
        <ele>1036.5</ele>
        <time>2016-07-23T09:38:31Z</time>
      </trkpt>
      <trkpt lat="42.52546" lon="0.20036">
        <ele>1036.5</ele>
        <time>2016-07-23T09:38:32Z</time>
      </trkpt>
      <trkpt lat="42.52538" lon="0.20037">
        <ele>1037.5</ele>
        <time>2016-07-23T09:38:33Z</time>
      </trkpt>
      <trkpt lat="42.52532" lon="0.20037">
        <ele>1040.5</ele>
        <time>2016-07-23T09:38:34Z</time>
      </trkpt>
      <trkpt lat="42.52527" lon="0.20036">
        <ele>1043.6</ele>
        <time>2016-07-23T09:38:35Z</time>
      </trkpt>
      <trkpt lat="42.52522" lon="0.20032">
        <ele>1048</ele>
        <time>2016-07-23T09:38:36Z</time>
      </trkpt>
      <trkpt lat="42.52517" lon="0.20028">
        <ele>1052.4</ele>
        <time>2016-07-23T09:38:37Z</time>
      </trkpt>
      <trkpt lat="42.52514" lon="0.20026">
        <ele>1055.7</ele>
        <time>2016-07-23T09:38:38Z</time>
      </trkpt>
      <trkpt lat="42.5251" lon="0.20025">
        <ele>1058.1</ele>
        <time>2016-07-23T09:38:39Z</time>
      </trkpt>
      <trkpt lat="42.52505" lon="0.20027">
        <ele>1058.7</ele>
        <time>2016-07-23T09:38:40Z</time>
      </trkpt>
      <trkpt lat="42.525" lon="0.20032">
        <ele>1057.5</ele>
        <time>2016-07-23T09:38:41Z</time>
      </trkpt>
      <trkpt lat="42.52497" lon="0.20038">
        <ele>1055.5</ele>
        <time>2016-07-23T09:38:42Z</time>
      </trkpt>
      <trkpt lat="42.52495" lon="0.20044">
        <ele>1052.8</ele>
        <time>2016-07-23T09:38:43Z</time>
      </trkpt>
      <trkpt lat="42.52493" lon="0.2005">
        <ele>1050.2</ele>
        <time>2016-07-23T09:38:44Z</time>
      </trkpt>
      <trkpt lat="42.52491" lon="0.20057">
        <ele>1047.5</ele>
        <time>2016-07-23T09:38:45Z</time>
      </trkpt>
      <trkpt lat="42.52489" lon="0.20064">
        <ele>1044.6</ele>
        <time>2016-07-23T09:38:46Z</time>
      </trkpt>
      <trkpt lat="42.52485" lon="0.20071">
        <ele>1042.4</ele>
        <time>2016-07-23T09:38:47Z</time>
      </trkpt>
      <trkpt lat="42.52483" lon="0.20078">
        <ele>1039.7</ele>
        <time>2016-07-23T09:38:48Z</time>
      </trkpt>
      <trkpt lat="42.52481" lon="0.20085">
        <ele>1036.7</ele>
        <time>2016-07-23T09:38:49Z</time>
      </trkpt>
      <trkpt lat="42.52478" lon="0.20093">
        <ele>1033.9</ele>
        <time>2016-07-23T09:38:50Z</time>
      </trkpt>
      <trkpt lat="42.52476" lon="0.201">
        <ele>1031</ele>
        <time>2016-07-23T09:38:51Z</time>
      </trkpt>
      <trkpt lat="42.52472" lon="0.20106">
        <ele>1029.2</ele>
        <time>2016-07-23T09:38:52Z</time>
      </trkpt>
      <trkpt lat="42.52467" lon="0.20111">
        <ele>1028.3</ele>
        <time>2016-07-23T09:38:53Z</time>
      </trkpt>
      <trkpt lat="42.52463" lon="0.20118">
        <ele>1026.1</ele>
        <time>2016-07-23T09:38:54Z</time>
      </trkpt>
      <trkpt lat="42.52458" lon="0.20125">
        <ele>1024.1</ele>
        <time>2016-07-23T09:38:55Z</time>
      </trkpt>
      <trkpt lat="42.52453" lon="0.20131">
        <ele>1021.9</ele>
        <time>2016-07-23T09:38:56Z</time>
      </trkpt>
      <trkpt lat="42.52449" lon="0.20135">
        <ele>1020.4</ele>
        <time>2016-07-23T09:38:57Z</time>
      </trkpt>
      <trkpt lat="42.52444" lon="0.20137">
        <ele>1020.2</ele>
        <time>2016-07-23T09:38:58Z</time>
      </trkpt>
      <trkpt lat="42.52438" lon="0.20137">
        <ele>1020.7</ele>
        <time>2016-07-23T09:38:59Z</time>
      </trkpt>
      <trkpt lat="42.52433" lon="0.20136">
        <ele>1021.9</ele>
        <time>2016-07-23T09:39:00Z</time>
      </trkpt>
      <trkpt lat="42.52427" lon="0.20135">
        <ele>1023.3</ele>
        <time>2016-07-23T09:39:01Z</time>
      </trkpt>
      <trkpt lat="42.52421" lon="0.20133">
        <ele>1024.7</ele>
        <time>2016-07-23T09:39:02Z</time>
      </trkpt>
      <trkpt lat="42.52416" lon="0.20131">
        <ele>1026.3</ele>
        <time>2016-07-23T09:39:03Z</time>
      </trkpt>
      <trkpt lat="42.5241" lon="0.20133">
        <ele>1026.2</ele>
        <time>2016-07-23T09:39:04Z</time>
      </trkpt>
      <trkpt lat="42.52405" lon="0.20136">
        <ele>1025.6</ele>
        <time>2016-07-23T09:39:05Z</time>
      </trkpt>
      <trkpt lat="42.52401" lon="0.20142">
        <ele>1023.5</ele>
        <time>2016-07-23T09:39:06Z</time>
      </trkpt>
      <trkpt lat="42.52399" lon="0.20148">
        <ele>1021.6</ele>
        <time>2016-07-23T09:39:07Z</time>
      </trkpt>
      <trkpt lat="42.52397" lon="0.20153">
        <ele>1020.2</ele>
        <time>2016-07-23T09:39:08Z</time>
      </trkpt>
      <trkpt lat="42.52393" lon="0.20157">
        <ele>1019.3</ele>
        <time>2016-07-23T09:39:09Z</time>
      </trkpt>
      <trkpt lat="42.52389" lon="0.20159">
        <ele>1019.1</ele>
        <time>2016-07-23T09:39:10Z</time>
      </trkpt>
      <trkpt lat="42.52383" lon="0.20162">
        <ele>1019.2</ele>
        <time>2016-07-23T09:39:11Z</time>
      </trkpt>
      <trkpt lat="42.52377" lon="0.20163">
        <ele>1019.8</ele>
        <time>2016-07-23T09:39:12Z</time>
      </trkpt>
      <trkpt lat="42.52372" lon="0.20164">
        <ele>1020.8</ele>
        <time>2016-07-23T09:39:13Z</time>
      </trkpt>
      <trkpt lat="42.52366" lon="0.20165">
        <ele>1022.4</ele>
        <time>2016-07-23T09:39:14Z</time>
      </trkpt>
      <trkpt lat="42.52359" lon="0.20167">
        <ele>1023.9</ele>
        <time>2016-07-23T09:39:15Z</time>
      </trkpt>
      <trkpt lat="42.52353" lon="0.2017">
        <ele>1025</ele>
        <time>2016-07-23T09:39:16Z</time>
      </trkpt>
      <trkpt lat="42.52348" lon="0.20173">
        <ele>1025.3</ele>
        <time>2016-07-23T09:39:17Z</time>
      </trkpt>
      <trkpt lat="42.52346" lon="0.20179">
        <ele>1024.5</ele>
        <time>2016-07-23T09:39:18Z</time>
      </trkpt>
      <trkpt lat="42.52342" lon="0.20183">
        <ele>1024.2</ele>
        <time>2016-07-23T09:39:19Z</time>
      </trkpt>
      <trkpt lat="42.52342" lon="0.2019">
        <ele>1022.2</ele>
        <time>2016-07-23T09:39:21Z</time>
      </trkpt>
      <trkpt lat="42.52345" lon="0.20194">
        <ele>1019.9</ele>
        <time>2016-07-23T09:39:23Z</time>
      </trkpt>
      <trkpt lat="42.52347" lon="0.20197">
        <ele>1018.5</ele>
        <time>2016-07-23T09:39:24Z</time>
      </trkpt>
      <trkpt lat="42.52351" lon="0.202">
        <ele>1016.3</ele>
        <time>2016-07-23T09:39:26Z</time>
      </trkpt>
      <trkpt lat="42.52355" lon="0.20202">
        <ele>1013.9</ele>
        <time>2016-07-23T09:39:28Z</time>
      </trkpt>
      <trkpt lat="42.52357" lon="0.20205">
        <ele>1012.4</ele>
        <time>2016-07-23T09:39:29Z</time>
      </trkpt>
      <trkpt lat="42.5236" lon="0.20208">
        <ele>1010.6</ele>
        <time>2016-07-23T09:39:30Z</time>
      </trkpt>
      <trkpt lat="42.52362" lon="0.20211">
        <ele>1009.9</ele>
        <time>2016-07-23T09:39:31Z</time>
      </trkpt>
      <trkpt lat="42.52365" lon="0.20214">
        <ele>1009.3</ele>
        <time>2016-07-23T09:39:32Z</time>
      </trkpt>
      <trkpt lat="42.52368" lon="0.20218">
        <ele>1008.8</ele>
        <time>2016-07-23T09:39:33Z</time>
      </trkpt>
      <trkpt lat="42.52371" lon="0.20221">
        <ele>1008.2</ele>
        <time>2016-07-23T09:39:34Z</time>
      </trkpt>
      <trkpt lat="42.52374" lon="0.20225">
        <ele>1007.5</ele>
        <time>2016-07-23T09:39:35Z</time>
      </trkpt>
      <trkpt lat="42.52378" lon="0.20228">
        <ele>1006.8</ele>
        <time>2016-07-23T09:39:36Z</time>
      </trkpt>
      <trkpt lat="42.52381" lon="0.20232">
        <ele>1006.1</ele>
        <time>2016-07-23T09:39:37Z</time>
      </trkpt>
      <trkpt lat="42.52385" lon="0.20236">
        <ele>1005.3</ele>
        <time>2016-07-23T09:39:38Z</time>
      </trkpt>
      <trkpt lat="42.5239" lon="0.20239">
        <ele>1004.2</ele>
        <time>2016-07-23T09:39:39Z</time>
      </trkpt>
      <trkpt lat="42.52395" lon="0.20239">
        <ele>1002.5</ele>
        <time>2016-07-23T09:39:40Z</time>
      </trkpt>
      <trkpt lat="42.52401" lon="0.2024">
        <ele>1000.6</ele>
        <time>2016-07-23T09:39:41Z</time>
      </trkpt>
      <trkpt lat="42.52405" lon="0.20242">
        <ele>999.3</ele>
        <time>2016-07-23T09:39:42Z</time>
      </trkpt>
      <trkpt lat="42.5241" lon="0.20246">
        <ele>997.9</ele>
        <time>2016-07-23T09:39:43Z</time>
      </trkpt>
      <trkpt lat="42.52414" lon="0.20251">
        <ele>996.7</ele>
        <time>2016-07-23T09:39:44Z</time>
      </trkpt>
      <trkpt lat="42.52418" lon="0.20257">
        <ele>995.5</ele>
        <time>2016-07-23T09:39:45Z</time>
      </trkpt>
      <trkpt lat="42.52421" lon="0.20263">
        <ele>994.6</ele>
        <time>2016-07-23T09:39:46Z</time>
      </trkpt>
      <trkpt lat="42.52424" lon="0.20269">
        <ele>993.7</ele>
        <time>2016-07-23T09:39:47Z</time>
      </trkpt>
      <trkpt lat="42.52428" lon="0.20276">
        <ele>992.1</ele>
        <time>2016-07-23T09:39:48Z</time>
      </trkpt>
      <trkpt lat="42.52434" lon="0.20282">
        <ele>989.9</ele>
        <time>2016-07-23T09:39:49Z</time>
      </trkpt>
      <trkpt lat="42.52439" lon="0.20288">
        <ele>987.8</ele>
        <time>2016-07-23T09:39:50Z</time>
      </trkpt>
      <trkpt lat="42.52442" lon="0.20293">
        <ele>986.5</ele>
        <time>2016-07-23T09:39:51Z</time>
      </trkpt>
      <trkpt lat="42.52448" lon="0.20296">
        <ele>985.5</ele>
        <time>2016-07-23T09:39:52Z</time>
      </trkpt>
      <trkpt lat="42.52453" lon="0.20297">
        <ele>983.6</ele>
        <time>2016-07-23T09:39:53Z</time>
      </trkpt>
      <trkpt lat="42.52458" lon="0.20296">
        <ele>980.8</ele>
        <time>2016-07-23T09:39:54Z</time>
      </trkpt>
      <trkpt lat="42.52464" lon="0.20295">
        <ele>978.5</ele>
        <time>2016-07-23T09:39:55Z</time>
      </trkpt>
      <trkpt lat="42.5247" lon="0.20294">
        <ele>976</ele>
        <time>2016-07-23T09:39:56Z</time>
      </trkpt>
      <trkpt lat="42.52477" lon="0.20293">
        <ele>973.3</ele>
        <time>2016-07-23T09:39:57Z</time>
      </trkpt>
      <trkpt lat="42.52484" lon="0.20293">
        <ele>971.3</ele>
        <time>2016-07-23T09:39:58Z</time>
      </trkpt>
      <trkpt lat="42.5249" lon="0.20295">
        <ele>970.2</ele>
        <time>2016-07-23T09:39:59Z</time>
      </trkpt>
      <trkpt lat="42.52497" lon="0.20296">
        <ele>968.2</ele>
        <time>2016-07-23T09:40:00Z</time>
      </trkpt>
      <trkpt lat="42.52505" lon="0.20296">
        <ele>965.7</ele>
        <time>2016-07-23T09:40:01Z</time>
      </trkpt>
      <trkpt lat="42.52512" lon="0.20295">
        <ele>962.9</ele>
        <time>2016-07-23T09:40:02Z</time>
      </trkpt>
      <trkpt lat="42.52518" lon="0.20293">
        <ele>960.2</ele>
        <time>2016-07-23T09:40:03Z</time>
      </trkpt>
      <trkpt lat="42.52524" lon="0.20291">
        <ele>957.6</ele>
        <time>2016-07-23T09:40:04Z</time>
      </trkpt>
      <trkpt lat="42.52528" lon="0.2029">
        <ele>956.6</ele>
        <time>2016-07-23T09:40:05Z</time>
      </trkpt>
      <trkpt lat="42.5253" lon="0.20293">
        <ele>956.5</ele>
        <time>2016-07-23T09:40:06Z</time>
      </trkpt>
      <trkpt lat="42.52536" lon="0.20294">
        <ele>954.9</ele>
        <time>2016-07-23T09:40:07Z</time>
      </trkpt>
      <trkpt lat="42.5254" lon="0.20297">
        <ele>954.7</ele>
        <time>2016-07-23T09:40:08Z</time>
      </trkpt>
      <trkpt lat="42.52542" lon="0.20301">
        <ele>955.7</ele>
        <time>2016-07-23T09:40:09Z</time>
      </trkpt>
      <trkpt lat="42.52546" lon="0.20306">
        <ele>956.7</ele>
        <time>2016-07-23T09:40:10Z</time>
      </trkpt>
      <trkpt lat="42.52548" lon="0.20314">
        <ele>959.1</ele>
        <time>2016-07-23T09:40:11Z</time>
      </trkpt>
      <trkpt lat="42.52551" lon="0.20321">
        <ele>960.7</ele>
        <time>2016-07-23T09:40:12Z</time>
      </trkpt>
      <trkpt lat="42.52554" lon="0.20327">
        <ele>962.3</ele>
        <time>2016-07-23T09:40:13Z</time>
      </trkpt>
      <trkpt lat="42.52557" lon="0.20332">
        <ele>963.2</ele>
        <time>2016-07-23T09:40:14Z</time>
      </trkpt>
      <trkpt lat="42.5256" lon="0.2034">
        <ele>965.3</ele>
        <time>2016-07-23T09:40:15Z</time>
      </trkpt>
      <trkpt lat="42.52562" lon="0.20348">
        <ele>967.5</ele>
        <time>2016-07-23T09:40:16Z</time>
      </trkpt>
      <trkpt lat="42.52567" lon="0.20355">
        <ele>968.7</ele>
        <time>2016-07-23T09:40:17Z</time>
      </trkpt>
      <trkpt lat="42.52573" lon="0.20359">
        <ele>967.4</ele>
        <time>2016-07-23T09:40:18Z</time>
      </trkpt>
      <trkpt lat="42.52579" lon="0.20363">
        <ele>967</ele>
        <time>2016-07-23T09:40:19Z</time>
      </trkpt>
      <trkpt lat="42.52584" lon="0.20365">
        <ele>965.4</ele>
        <time>2016-07-23T09:40:20Z</time>
      </trkpt>
      <trkpt lat="42.52589" lon="0.20372">
        <ele>966.2</ele>
        <time>2016-07-23T09:40:21Z</time>
      </trkpt>
      <trkpt lat="42.52595" lon="0.20378">
        <ele>966.4</ele>
        <time>2016-07-23T09:40:22Z</time>
      </trkpt>
      <trkpt lat="42.52599" lon="0.20386">
        <ele>969.5</ele>
        <time>2016-07-23T09:40:23Z</time>
      </trkpt>
      <trkpt lat="42.52601" lon="0.20391">
        <ele>971.4</ele>
        <time>2016-07-23T09:40:24Z</time>
      </trkpt>
      <trkpt lat="42.52606" lon="0.20397">
        <ele>972.7</ele>
        <time>2016-07-23T09:40:25Z</time>
      </trkpt>
      <trkpt lat="42.5261" lon="0.20403">
        <ele>974.1</ele>
        <time>2016-07-23T09:40:26Z</time>
      </trkpt>
      <trkpt lat="42.52614" lon="0.2041">
        <ele>975.7</ele>
        <time>2016-07-23T09:40:27Z</time>
      </trkpt>
      <trkpt lat="42.52619" lon="0.20414">
        <ele>976</ele>
        <time>2016-07-23T09:40:28Z</time>
      </trkpt>
      <trkpt lat="42.52623" lon="0.20418">
        <ele>976.1</ele>
        <time>2016-07-23T09:40:29Z</time>
      </trkpt>
      <trkpt lat="42.52631" lon="0.2042">
        <ele>972.6</ele>
        <time>2016-07-23T09:40:30Z</time>
      </trkpt>
      <trkpt lat="42.52635" lon="0.20423">
        <ele>972.1</ele>
        <time>2016-07-23T09:40:31Z</time>
      </trkpt>
      <trkpt lat="42.52639" lon="0.20428">
        <ele>972.2</ele>
        <time>2016-07-23T09:40:32Z</time>
      </trkpt>
      <trkpt lat="42.52641" lon="0.20432">
        <ele>972.7</ele>
        <time>2016-07-23T09:40:33Z</time>
      </trkpt>
      <trkpt lat="42.52643" lon="0.20436">
        <ele>973.5</ele>
        <time>2016-07-23T09:40:34Z</time>
      </trkpt>
      <trkpt lat="42.52646" lon="0.20442">
        <ele>974.8</ele>
        <time>2016-07-23T09:40:35Z</time>
      </trkpt>
      <trkpt lat="42.52648" lon="0.20446">
        <ele>975.8</ele>
        <time>2016-07-23T09:40:36Z</time>
      </trkpt>
      <trkpt lat="42.52651" lon="0.2045">
        <ele>976.1</ele>
        <time>2016-07-23T09:40:37Z</time>
      </trkpt>
      <trkpt lat="42.52652" lon="0.20454">
        <ele>977.4</ele>
        <time>2016-07-23T09:40:38Z</time>
      </trkpt>
      <trkpt lat="42.52653" lon="0.20458">
        <ele>978.7</ele>
        <time>2016-07-23T09:40:39Z</time>
      </trkpt>
      <trkpt lat="42.52654" lon="0.20461">
        <ele>980</ele>
        <time>2016-07-23T09:40:40Z</time>
      </trkpt>
      <trkpt lat="42.52655" lon="0.20467">
        <ele>981.9</ele>
        <time>2016-07-23T09:40:41Z</time>
      </trkpt>
      <trkpt lat="42.52655" lon="0.20472">
        <ele>983.4</ele>
        <time>2016-07-23T09:40:42Z</time>
      </trkpt>
      <trkpt lat="42.52656" lon="0.20475">
        <ele>984.9</ele>
        <time>2016-07-23T09:40:43Z</time>
      </trkpt>
      <trkpt lat="42.52656" lon="0.2048">
        <ele>986.3</ele>
        <time>2016-07-23T09:40:44Z</time>
      </trkpt>
      <trkpt lat="42.52658" lon="0.20484">
        <ele>987.4</ele>
        <time>2016-07-23T09:40:45Z</time>
      </trkpt>
      <trkpt lat="42.52659" lon="0.20488">
        <ele>988.1</ele>
        <time>2016-07-23T09:40:46Z</time>
      </trkpt>
      <trkpt lat="42.52662" lon="0.20491">
        <ele>988.1</ele>
        <time>2016-07-23T09:40:47Z</time>
      </trkpt>
      <trkpt lat="42.52664" lon="0.20494">
        <ele>987.8</ele>
        <time>2016-07-23T09:40:48Z</time>
      </trkpt>
      <trkpt lat="42.52667" lon="0.20495">
        <ele>986.7</ele>
        <time>2016-07-23T09:40:49Z</time>
      </trkpt>
      <trkpt lat="42.5267" lon="0.20496">
        <ele>985.1</ele>
        <time>2016-07-23T09:40:50Z</time>
      </trkpt>
      <trkpt lat="42.52673" lon="0.20496">
        <ele>983.3</ele>
        <time>2016-07-23T09:40:51Z</time>
      </trkpt>
      <trkpt lat="42.52676" lon="0.20496">
        <ele>981.4</ele>
        <time>2016-07-23T09:40:52Z</time>
      </trkpt>
      <trkpt lat="42.52679" lon="0.20495">
        <ele>979.3</ele>
        <time>2016-07-23T09:40:53Z</time>
      </trkpt>
      <trkpt lat="42.52683" lon="0.20495">
        <ele>976.9</ele>
        <time>2016-07-23T09:40:54Z</time>
      </trkpt>
      <trkpt lat="42.52686" lon="0.20494">
        <ele>974.6</ele>
        <time>2016-07-23T09:40:55Z</time>
      </trkpt>
      <trkpt lat="42.52689" lon="0.20493">
        <ele>972.4</ele>
        <time>2016-07-23T09:40:56Z</time>
      </trkpt>
      <trkpt lat="42.52694" lon="0.20491">
        <ele>968.3</ele>
        <time>2016-07-23T09:40:58Z</time>
      </trkpt>
      <trkpt lat="42.52697" lon="0.2049">
        <ele>966.3</ele>
        <time>2016-07-23T09:40:59Z</time>
      </trkpt>
      <trkpt lat="42.52701" lon="0.20489">
        <ele>962.5</ele>
        <time>2016-07-23T09:41:01Z</time>
      </trkpt>
      <trkpt lat="42.52707" lon="0.20486">
        <ele>958.2</ele>
        <time>2016-07-23T09:41:03Z</time>
      </trkpt>
      <trkpt lat="42.52709" lon="0.20485">
        <ele>956.1</ele>
        <time>2016-07-23T09:41:04Z</time>
      </trkpt>
      <trkpt lat="42.52712" lon="0.20483">
        <ele>954.8</ele>
        <time>2016-07-23T09:41:05Z</time>
      </trkpt>
      <trkpt lat="42.52715" lon="0.20481">
        <ele>953.5</ele>
        <time>2016-07-23T09:41:06Z</time>
      </trkpt>
      <trkpt lat="42.52717" lon="0.20479">
        <ele>952.2</ele>
        <time>2016-07-23T09:41:07Z</time>
      </trkpt>
      <trkpt lat="42.5272" lon="0.20477">
        <ele>950.9</ele>
        <time>2016-07-23T09:41:08Z</time>
      </trkpt>
      <trkpt lat="42.52722" lon="0.20475">
        <ele>949.7</ele>
        <time>2016-07-23T09:41:09Z</time>
      </trkpt>
      <trkpt lat="42.52725" lon="0.20473">
        <ele>948.5</ele>
        <time>2016-07-23T09:41:10Z</time>
      </trkpt>
      <trkpt lat="42.52727" lon="0.20472">
        <ele>947.4</ele>
        <time>2016-07-23T09:41:11Z</time>
      </trkpt>
      <trkpt lat="42.5273" lon="0.2047">
        <ele>946.4</ele>
        <time>2016-07-23T09:41:12Z</time>
      </trkpt>
      <trkpt lat="42.52732" lon="0.20468">
        <ele>945.3</ele>
        <time>2016-07-23T09:41:13Z</time>
      </trkpt>
      <trkpt lat="42.52735" lon="0.20466">
        <ele>944.1</ele>
        <time>2016-07-23T09:41:14Z</time>
      </trkpt>
      <trkpt lat="42.52737" lon="0.20464">
        <ele>943</ele>
        <time>2016-07-23T09:41:15Z</time>
      </trkpt>
      <trkpt lat="42.52742" lon="0.20461">
        <ele>941.1</ele>
        <time>2016-07-23T09:41:17Z</time>
      </trkpt>
      <trkpt lat="42.52744" lon="0.2046">
        <ele>940.3</ele>
        <time>2016-07-23T09:41:18Z</time>
      </trkpt>
      <trkpt lat="42.52747" lon="0.20459">
        <ele>939.4</ele>
        <time>2016-07-23T09:41:19Z</time>
      </trkpt>
      <trkpt lat="42.5275" lon="0.20458">
        <ele>938.8</ele>
        <time>2016-07-23T09:41:20Z</time>
      </trkpt>
      <trkpt lat="42.52753" lon="0.20458">
        <ele>938.5</ele>
        <time>2016-07-23T09:41:21Z</time>
      </trkpt>
      <trkpt lat="42.52758" lon="0.20461">
        <ele>938.9</ele>
        <time>2016-07-23T09:41:23Z</time>
      </trkpt>
      <trkpt lat="42.5276" lon="0.20467">
        <ele>940.9</ele>
        <time>2016-07-23T09:41:25Z</time>
      </trkpt>
      <trkpt lat="42.5276" lon="0.20472">
        <ele>942.5</ele>
        <time>2016-07-23T09:41:26Z</time>
      </trkpt>
      <trkpt lat="42.5276" lon="0.20476">
        <ele>944.1</ele>
        <time>2016-07-23T09:41:27Z</time>
      </trkpt>
      <trkpt lat="42.52759" lon="0.20481">
        <ele>945.8</ele>
        <time>2016-07-23T09:41:28Z</time>
      </trkpt>
      <trkpt lat="42.52758" lon="0.20485">
        <ele>947.6</ele>
        <time>2016-07-23T09:41:29Z</time>
      </trkpt>
      <trkpt lat="42.52758" lon="0.2049">
        <ele>949.5</ele>
        <time>2016-07-23T09:41:30Z</time>
      </trkpt>
      <trkpt lat="42.52757" lon="0.20495">
        <ele>951.4</ele>
        <time>2016-07-23T09:41:31Z</time>
      </trkpt>
      <trkpt lat="42.52756" lon="0.205">
        <ele>953.5</ele>
        <time>2016-07-23T09:41:32Z</time>
      </trkpt>
      <trkpt lat="42.52755" lon="0.20506">
        <ele>955.8</ele>
        <time>2016-07-23T09:41:33Z</time>
      </trkpt>
      <trkpt lat="42.52754" lon="0.20512">
        <ele>958.1</ele>
        <time>2016-07-23T09:41:34Z</time>
      </trkpt>
      <trkpt lat="42.52754" lon="0.20518">
        <ele>960.4</ele>
        <time>2016-07-23T09:41:35Z</time>
      </trkpt>
      <trkpt lat="42.52754" lon="0.20524">
        <ele>962.7</ele>
        <time>2016-07-23T09:41:36Z</time>
      </trkpt>
      <trkpt lat="42.52755" lon="0.20531">
        <ele>965</ele>
        <time>2016-07-23T09:41:37Z</time>
      </trkpt>
      <trkpt lat="42.52756" lon="0.20537">
        <ele>967.1</ele>
        <time>2016-07-23T09:41:38Z</time>
      </trkpt>
      <trkpt lat="42.52757" lon="0.20544">
        <ele>968.7</ele>
        <time>2016-07-23T09:41:39Z</time>
      </trkpt>
      <trkpt lat="42.52758" lon="0.20551">
        <ele>969.3</ele>
        <time>2016-07-23T09:41:40Z</time>
      </trkpt>
      <trkpt lat="42.52759" lon="0.20558">
        <ele>969.8</ele>
        <time>2016-07-23T09:41:41Z</time>
      </trkpt>
      <trkpt lat="42.5276" lon="0.20565">
        <ele>970.4</ele>
        <time>2016-07-23T09:41:42Z</time>
      </trkpt>
      <trkpt lat="42.52761" lon="0.20572">
        <ele>971.1</ele>
        <time>2016-07-23T09:41:43Z</time>
      </trkpt>
      <trkpt lat="42.52762" lon="0.2058">
        <ele>971.8</ele>
        <time>2016-07-23T09:41:44Z</time>
      </trkpt>
      <trkpt lat="42.52761" lon="0.20588">
        <ele>973.1</ele>
        <time>2016-07-23T09:41:45Z</time>
      </trkpt>
      <trkpt lat="42.52759" lon="0.20595">
        <ele>974.8</ele>
        <time>2016-07-23T09:41:46Z</time>
      </trkpt>
      <trkpt lat="42.52756" lon="0.20602">
        <ele>977</ele>
        <time>2016-07-23T09:41:47Z</time>
      </trkpt>
      <trkpt lat="42.52752" lon="0.2061">
        <ele>979.6</ele>
        <time>2016-07-23T09:41:48Z</time>
      </trkpt>
      <trkpt lat="42.52747" lon="0.20617">
        <ele>982.5</ele>
        <time>2016-07-23T09:41:49Z</time>
      </trkpt>
      <trkpt lat="42.52742" lon="0.20623">
        <ele>985.6</ele>
        <time>2016-07-23T09:41:50Z</time>
      </trkpt>
      <trkpt lat="42.52737" lon="0.20628">
        <ele>987.9</ele>
        <time>2016-07-23T09:41:51Z</time>
      </trkpt>
      <trkpt lat="42.5273" lon="0.20632">
        <ele>989.6</ele>
        <time>2016-07-23T09:41:52Z</time>
      </trkpt>
      <trkpt lat="42.52721" lon="0.20631">
        <ele>994.1</ele>
        <time>2016-07-23T09:41:53Z</time>
      </trkpt>
      <trkpt lat="42.52716" lon="0.20637">
        <ele>994.8</ele>
        <time>2016-07-23T09:41:54Z</time>
      </trkpt>
      <trkpt lat="42.52712" lon="0.20647">
        <ele>994.7</ele>
        <time>2016-07-23T09:41:55Z</time>
      </trkpt>
      <trkpt lat="42.52707" lon="0.20654">
        <ele>995</ele>
        <time>2016-07-23T09:41:56Z</time>
      </trkpt>
      <trkpt lat="42.52705" lon="0.20661">
        <ele>994.9</ele>
        <time>2016-07-23T09:41:57Z</time>
      </trkpt>
      <trkpt lat="42.527" lon="0.20669">
        <ele>995.7</ele>
        <time>2016-07-23T09:41:58Z</time>
      </trkpt>
      <trkpt lat="42.52698" lon="0.20675">
        <ele>995.8</ele>
        <time>2016-07-23T09:41:59Z</time>
      </trkpt>
      <trkpt lat="42.52695" lon="0.20682">
        <ele>996</ele>
        <time>2016-07-23T09:42:00Z</time>
      </trkpt>
      <trkpt lat="42.52693" lon="0.20689">
        <ele>996</ele>
        <time>2016-07-23T09:42:01Z</time>
      </trkpt>
      <trkpt lat="42.52689" lon="0.20693">
        <ele>997.1</ele>
        <time>2016-07-23T09:42:02Z</time>
      </trkpt>
      <trkpt lat="42.52684" lon="0.20701">
        <ele>998.7</ele>
        <time>2016-07-23T09:42:03Z</time>
      </trkpt>
      <trkpt lat="42.52683" lon="0.20707">
        <ele>998.3</ele>
        <time>2016-07-23T09:42:04Z</time>
      </trkpt>
      <trkpt lat="42.52678" lon="0.20712">
        <ele>1000</ele>
        <time>2016-07-23T09:42:05Z</time>
      </trkpt>
      <trkpt lat="42.52674" lon="0.20716">
        <ele>1001.2</ele>
        <time>2016-07-23T09:42:06Z</time>
      </trkpt>
      <trkpt lat="42.52672" lon="0.20719">
        <ele>1002</ele>
        <time>2016-07-23T09:42:07Z</time>
      </trkpt>
      <trkpt lat="42.52668" lon="0.20723">
        <ele>1002.8</ele>
        <time>2016-07-23T09:42:08Z</time>
      </trkpt>
      <trkpt lat="42.52666" lon="0.20728">
        <ele>1003.2</ele>
        <time>2016-07-23T09:42:09Z</time>
      </trkpt>
      <trkpt lat="42.52664" lon="0.20733">
        <ele>1003.1</ele>
        <time>2016-07-23T09:42:10Z</time>
      </trkpt>
      <trkpt lat="42.52662" lon="0.20738">
        <ele>1002.6</ele>
        <time>2016-07-23T09:42:11Z</time>
      </trkpt>
      <trkpt lat="42.52661" lon="0.20744">
        <ele>1001.6</ele>
        <time>2016-07-23T09:42:12Z</time>
      </trkpt>
      <trkpt lat="42.52662" lon="0.20752">
        <ele>998.5</ele>
        <time>2016-07-23T09:42:13Z</time>
      </trkpt>
      <trkpt lat="42.52666" lon="0.20757">
        <ele>995.2</ele>
        <time>2016-07-23T09:42:14Z</time>
      </trkpt>
      <trkpt lat="42.52665" lon="0.20763">
        <ele>993.9</ele>
        <time>2016-07-23T09:42:15Z</time>
      </trkpt>
      <trkpt lat="42.52666" lon="0.2077">
        <ele>991.8</ele>
        <time>2016-07-23T09:42:16Z</time>
      </trkpt>
      <trkpt lat="42.52664" lon="0.20775">
        <ele>991.4</ele>
        <time>2016-07-23T09:42:17Z</time>
      </trkpt>
      <trkpt lat="42.52661" lon="0.20778">
        <ele>992.1</ele>
        <time>2016-07-23T09:42:18Z</time>
      </trkpt>
      <trkpt lat="42.52658" lon="0.20783">
        <ele>992.9</ele>
        <time>2016-07-23T09:42:19Z</time>
      </trkpt>
      <trkpt lat="42.52653" lon="0.20786">
        <ele>994.8</ele>
        <time>2016-07-23T09:42:20Z</time>
      </trkpt>
      <trkpt lat="42.5265" lon="0.20789">
        <ele>996</ele>
        <time>2016-07-23T09:42:21Z</time>
      </trkpt>
      <trkpt lat="42.52646" lon="0.20791">
        <ele>997.5</ele>
        <time>2016-07-23T09:42:22Z</time>
      </trkpt>
      <trkpt lat="42.52642" lon="0.20793">
        <ele>999.2</ele>
        <time>2016-07-23T09:42:23Z</time>
      </trkpt>
      <trkpt lat="42.52638" lon="0.20794">
        <ele>1001.2</ele>
        <time>2016-07-23T09:42:24Z</time>
      </trkpt>
      <trkpt lat="42.52633" lon="0.20796">
        <ele>1003.3</ele>
        <time>2016-07-23T09:42:25Z</time>
      </trkpt>
      <trkpt lat="42.52629" lon="0.20798">
        <ele>1005.2</ele>
        <time>2016-07-23T09:42:26Z</time>
      </trkpt>
      <trkpt lat="42.52623" lon="0.20801">
        <ele>1007.2</ele>
        <time>2016-07-23T09:42:27Z</time>
      </trkpt>
      <trkpt lat="42.52618" lon="0.20805">
        <ele>1009.2</ele>
        <time>2016-07-23T09:42:28Z</time>
      </trkpt>
      <trkpt lat="42.52613" lon="0.2081">
        <ele>1010.8</ele>
        <time>2016-07-23T09:42:29Z</time>
      </trkpt>
      <trkpt lat="42.52608" lon="0.20816">
        <ele>1011.5</ele>
        <time>2016-07-23T09:42:30Z</time>
      </trkpt>
      <trkpt lat="42.52605" lon="0.20822">
        <ele>1011.4</ele>
        <time>2016-07-23T09:42:31Z</time>
      </trkpt>
      <trkpt lat="42.52602" lon="0.20829">
        <ele>1010.5</ele>
        <time>2016-07-23T09:42:32Z</time>
      </trkpt>
      <trkpt lat="42.52599" lon="0.20836">
        <ele>1009.3</ele>
        <time>2016-07-23T09:42:33Z</time>
      </trkpt>
      <trkpt lat="42.52597" lon="0.20843">
        <ele>1007.7</ele>
        <time>2016-07-23T09:42:34Z</time>
      </trkpt>
      <trkpt lat="42.52595" lon="0.2085">
        <ele>1006.2</ele>
        <time>2016-07-23T09:42:35Z</time>
      </trkpt>
      <trkpt lat="42.52593" lon="0.20857">
        <ele>1004.6</ele>
        <time>2016-07-23T09:42:36Z</time>
      </trkpt>
      <trkpt lat="42.52591" lon="0.20863">
        <ele>1002.9</ele>
        <time>2016-07-23T09:42:37Z</time>
      </trkpt>
      <trkpt lat="42.52589" lon="0.2087">
        <ele>1001.3</ele>
        <time>2016-07-23T09:42:38Z</time>
      </trkpt>
      <trkpt lat="42.52587" lon="0.20876">
        <ele>999.8</ele>
        <time>2016-07-23T09:42:39Z</time>
      </trkpt>
      <trkpt lat="42.52584" lon="0.20883">
        <ele>999</ele>
        <time>2016-07-23T09:42:40Z</time>
      </trkpt>
      <trkpt lat="42.52582" lon="0.20889">
        <ele>998.4</ele>
        <time>2016-07-23T09:42:41Z</time>
      </trkpt>
      <trkpt lat="42.52579" lon="0.20895">
        <ele>998.5</ele>
        <time>2016-07-23T09:42:42Z</time>
      </trkpt>
      <trkpt lat="42.52575" lon="0.209">
        <ele>999.1</ele>
        <time>2016-07-23T09:42:43Z</time>
      </trkpt>
      <trkpt lat="42.52571" lon="0.20905">
        <ele>1000.4</ele>
        <time>2016-07-23T09:42:44Z</time>
      </trkpt>
      <trkpt lat="42.52566" lon="0.2091">
        <ele>1002.1</ele>
        <time>2016-07-23T09:42:45Z</time>
      </trkpt>
      <trkpt lat="42.52561" lon="0.20914">
        <ele>1004.1</ele>
        <time>2016-07-23T09:42:46Z</time>
      </trkpt>
      <trkpt lat="42.52556" lon="0.20917">
        <ele>1006.6</ele>
        <time>2016-07-23T09:42:47Z</time>
      </trkpt>
      <trkpt lat="42.5255" lon="0.20921">
        <ele>1009.1</ele>
        <time>2016-07-23T09:42:48Z</time>
      </trkpt>
      <trkpt lat="42.52545" lon="0.20925">
        <ele>1011.3</ele>
        <time>2016-07-23T09:42:49Z</time>
      </trkpt>
      <trkpt lat="42.5254" lon="0.20932">
        <ele>1012.4</ele>
        <time>2016-07-23T09:42:50Z</time>
      </trkpt>
      <trkpt lat="42.52537" lon="0.20939">
        <ele>1012.2</ele>
        <time>2016-07-23T09:42:51Z</time>
      </trkpt>
      <trkpt lat="42.52535" lon="0.20946">
        <ele>1010.7</ele>
        <time>2016-07-23T09:42:52Z</time>
      </trkpt>
      <trkpt lat="42.52535" lon="0.20954">
        <ele>1008.5</ele>
        <time>2016-07-23T09:42:53Z</time>
      </trkpt>
      <trkpt lat="42.52535" lon="0.20961">
        <ele>1006.7</ele>
        <time>2016-07-23T09:42:54Z</time>
      </trkpt>
      <trkpt lat="42.52535" lon="0.20969">
        <ele>1005.9</ele>
        <time>2016-07-23T09:42:55Z</time>
      </trkpt>
      <trkpt lat="42.52535" lon="0.20976">
        <ele>1005.3</ele>
        <time>2016-07-23T09:42:56Z</time>
      </trkpt>
      <trkpt lat="42.52535" lon="0.20983">
        <ele>1004.1</ele>
        <time>2016-07-23T09:42:57Z</time>
      </trkpt>
      <trkpt lat="42.52536" lon="0.20991">
        <ele>1003</ele>
        <time>2016-07-23T09:42:58Z</time>
      </trkpt>
      <trkpt lat="42.52536" lon="0.20999">
        <ele>1002</ele>
        <time>2016-07-23T09:42:59Z</time>
      </trkpt>
      <trkpt lat="42.52536" lon="0.21006">
        <ele>1001.3</ele>
        <time>2016-07-23T09:43:00Z</time>
      </trkpt>
      <trkpt lat="42.52536" lon="0.21014">
        <ele>1000.8</ele>
        <time>2016-07-23T09:43:01Z</time>
      </trkpt>
      <trkpt lat="42.52535" lon="0.21022">
        <ele>1000.5</ele>
        <time>2016-07-23T09:43:02Z</time>
      </trkpt>
      <trkpt lat="42.52534" lon="0.2103">
        <ele>1000.2</ele>
        <time>2016-07-23T09:43:03Z</time>
      </trkpt>
      <trkpt lat="42.52534" lon="0.2104">
        <ele>999.5</ele>
        <time>2016-07-23T09:43:04Z</time>
      </trkpt>
      <trkpt lat="42.52533" lon="0.21048">
        <ele>999.3</ele>
        <time>2016-07-23T09:43:05Z</time>
      </trkpt>
      <trkpt lat="42.5253" lon="0.21055">
        <ele>1000.4</ele>
        <time>2016-07-23T09:43:06Z</time>
      </trkpt>
      <trkpt lat="42.52529" lon="0.21062">
        <ele>999.9</ele>
        <time>2016-07-23T09:43:07Z</time>
      </trkpt>
      <trkpt lat="42.52529" lon="0.21068">
        <ele>998.6</ele>
        <time>2016-07-23T09:43:08Z</time>
      </trkpt>
      <trkpt lat="42.52528" lon="0.21074">
        <ele>998.5</ele>
        <time>2016-07-23T09:43:09Z</time>
      </trkpt>
      <trkpt lat="42.52526" lon="0.2108">
        <ele>999.1</ele>
        <time>2016-07-23T09:43:10Z</time>
      </trkpt>
      <trkpt lat="42.52523" lon="0.21085">
        <ele>1000</ele>
        <time>2016-07-23T09:43:11Z</time>
      </trkpt>
      <trkpt lat="42.52522" lon="0.21089">
        <ele>1000.6</ele>
        <time>2016-07-23T09:43:12Z</time>
      </trkpt>
      <trkpt lat="42.5252" lon="0.21093">
        <ele>1001.6</ele>
        <time>2016-07-23T09:43:13Z</time>
      </trkpt>
      <trkpt lat="42.52518" lon="0.21098">
        <ele>1002.1</ele>
        <time>2016-07-23T09:43:14Z</time>
      </trkpt>
      <trkpt lat="42.52517" lon="0.21102">
        <ele>1002.6</ele>
        <time>2016-07-23T09:43:15Z</time>
      </trkpt>
      <trkpt lat="42.52514" lon="0.21107">
        <ele>1004.2</ele>
        <time>2016-07-23T09:43:16Z</time>
      </trkpt>
      <trkpt lat="42.52513" lon="0.21111">
        <ele>1004.3</ele>
        <time>2016-07-23T09:43:17Z</time>
      </trkpt>
      <trkpt lat="42.52511" lon="0.21116">
        <ele>1005.2</ele>
        <time>2016-07-23T09:43:18Z</time>
      </trkpt>
      <trkpt lat="42.52509" lon="0.21121">
        <ele>1005.5</ele>
        <time>2016-07-23T09:43:19Z</time>
      </trkpt>
      <trkpt lat="42.52508" lon="0.21126">
        <ele>1005.9</ele>
        <time>2016-07-23T09:43:20Z</time>
      </trkpt>
      <trkpt lat="42.52507" lon="0.21133">
        <ele>1004.5</ele>
        <time>2016-07-23T09:43:21Z</time>
      </trkpt>
      <trkpt lat="42.52506" lon="0.21139">
        <ele>1003</ele>
        <time>2016-07-23T09:43:22Z</time>
      </trkpt>
      <trkpt lat="42.52504" lon="0.21148">
        <ele>1002.1</ele>
        <time>2016-07-23T09:43:23Z</time>
      </trkpt>
      <trkpt lat="42.52503" lon="0.21155">
        <ele>1000</ele>
        <time>2016-07-23T09:43:24Z</time>
      </trkpt>
      <trkpt lat="42.52502" lon="0.21161">
        <ele>998.6</ele>
        <time>2016-07-23T09:43:25Z</time>
      </trkpt>
      <trkpt lat="42.52501" lon="0.21168">
        <ele>997.5</ele>
        <time>2016-07-23T09:43:26Z</time>
      </trkpt>
      <trkpt lat="42.52498" lon="0.21175">
        <ele>996.9</ele>
        <time>2016-07-23T09:43:27Z</time>
      </trkpt>
      <trkpt lat="42.52497" lon="0.21181">
        <ele>996.2</ele>
        <time>2016-07-23T09:43:28Z</time>
      </trkpt>
      <trkpt lat="42.52495" lon="0.21187">
        <ele>995.3</ele>
        <time>2016-07-23T09:43:29Z</time>
      </trkpt>
      <trkpt lat="42.52494" lon="0.21192">
        <ele>994</ele>
        <time>2016-07-23T09:43:30Z</time>
      </trkpt>
      <trkpt lat="42.52491" lon="0.21198">
        <ele>993.6</ele>
        <time>2016-07-23T09:43:31Z</time>
      </trkpt>
      <trkpt lat="42.52489" lon="0.21204">
        <ele>992.9</ele>
        <time>2016-07-23T09:43:32Z</time>
      </trkpt>
      <trkpt lat="42.52487" lon="0.21209">
        <ele>992.3</ele>
        <time>2016-07-23T09:43:33Z</time>
      </trkpt>
      <trkpt lat="42.52485" lon="0.21215">
        <ele>992</ele>
        <time>2016-07-23T09:43:34Z</time>
      </trkpt>
      <trkpt lat="42.52483" lon="0.2122">
        <ele>991.4</ele>
        <time>2016-07-23T09:43:35Z</time>
      </trkpt>
      <trkpt lat="42.52483" lon="0.21225">
        <ele>990.3</ele>
        <time>2016-07-23T09:43:36Z</time>
      </trkpt>
      <trkpt lat="42.52483" lon="0.21231">
        <ele>988.4</ele>
        <time>2016-07-23T09:43:37Z</time>
      </trkpt>
      <trkpt lat="42.52483" lon="0.21238">
        <ele>986.2</ele>
        <time>2016-07-23T09:43:38Z</time>
      </trkpt>
      <trkpt lat="42.52484" lon="0.21243">
        <ele>984.3</ele>
        <time>2016-07-23T09:43:39Z</time>
      </trkpt>
      <trkpt lat="42.52484" lon="0.21249">
        <ele>982.3</ele>
        <time>2016-07-23T09:43:40Z</time>
      </trkpt>
      <trkpt lat="42.52484" lon="0.21254">
        <ele>980.7</ele>
        <time>2016-07-23T09:43:41Z</time>
      </trkpt>
      <trkpt lat="42.52484" lon="0.2126">
        <ele>979.1</ele>
        <time>2016-07-23T09:43:42Z</time>
      </trkpt>
      <trkpt lat="42.52483" lon="0.21267">
        <ele>977.5</ele>
        <time>2016-07-23T09:43:43Z</time>
      </trkpt>
      <trkpt lat="42.52482" lon="0.21273">
        <ele>976.2</ele>
        <time>2016-07-23T09:43:44Z</time>
      </trkpt>
      <trkpt lat="42.5248" lon="0.21279">
        <ele>975.1</ele>
        <time>2016-07-23T09:43:45Z</time>
      </trkpt>
      <trkpt lat="42.52478" lon="0.21285">
        <ele>974.4</ele>
        <time>2016-07-23T09:43:46Z</time>
      </trkpt>
      <trkpt lat="42.52475" lon="0.2129">
        <ele>974.1</ele>
        <time>2016-07-23T09:43:47Z</time>
      </trkpt>
      <trkpt lat="42.52472" lon="0.21294">
        <ele>974.2</ele>
        <time>2016-07-23T09:43:48Z</time>
      </trkpt>
      <trkpt lat="42.52468" lon="0.21297">
        <ele>974.7</ele>
        <time>2016-07-23T09:43:49Z</time>
      </trkpt>
      <trkpt lat="42.52464" lon="0.213">
        <ele>975.7</ele>
        <time>2016-07-23T09:43:50Z</time>
      </trkpt>
      <trkpt lat="42.52459" lon="0.21302">
        <ele>977.1</ele>
        <time>2016-07-23T09:43:51Z</time>
      </trkpt>
      <trkpt lat="42.52454" lon="0.21302">
        <ele>978.9</ele>
        <time>2016-07-23T09:43:52Z</time>
      </trkpt>
      <trkpt lat="42.52449" lon="0.21303">
        <ele>980.9</ele>
        <time>2016-07-23T09:43:53Z</time>
      </trkpt>
      <trkpt lat="42.52443" lon="0.21303">
        <ele>982.9</ele>
        <time>2016-07-23T09:43:54Z</time>
      </trkpt>
      <trkpt lat="42.52438" lon="0.21303">
        <ele>984.9</ele>
        <time>2016-07-23T09:43:55Z</time>
      </trkpt>
      <trkpt lat="42.52434" lon="0.21303">
        <ele>986.7</ele>
        <time>2016-07-23T09:43:56Z</time>
      </trkpt>
      <trkpt lat="42.52428" lon="0.21304">
        <ele>988.8</ele>
        <time>2016-07-23T09:43:57Z</time>
      </trkpt>
      <trkpt lat="42.52422" lon="0.21305">
        <ele>991</ele>
        <time>2016-07-23T09:43:58Z</time>
      </trkpt>
      <trkpt lat="42.52416" lon="0.21305">
        <ele>993.2</ele>
        <time>2016-07-23T09:43:59Z</time>
      </trkpt>
      <trkpt lat="42.52411" lon="0.21306">
        <ele>995.4</ele>
        <time>2016-07-23T09:44:00Z</time>
      </trkpt>
      <trkpt lat="42.52406" lon="0.21306">
        <ele>997.1</ele>
        <time>2016-07-23T09:44:01Z</time>
      </trkpt>
      <trkpt lat="42.52403" lon="0.21306">
        <ele>998.3</ele>
        <time>2016-07-23T09:44:02Z</time>
      </trkpt>
      <trkpt lat="42.524" lon="0.21306">
        <ele>999.5</ele>
        <time>2016-07-23T09:44:04Z</time>
      </trkpt>
      <trkpt lat="42.52397" lon="0.21306">
        <ele>1001.1</ele>
        <time>2016-07-23T09:44:06Z</time>
      </trkpt>
      <trkpt lat="42.52393" lon="0.21304">
        <ele>1003.1</ele>
        <time>2016-07-23T09:44:08Z</time>
      </trkpt>
      <trkpt lat="42.52388" lon="0.21305">
        <ele>1004.8</ele>
        <time>2016-07-23T09:44:10Z</time>
      </trkpt>
      <trkpt lat="42.52385" lon="0.21307">
        <ele>1005.5</ele>
        <time>2016-07-23T09:44:11Z</time>
      </trkpt>
      <trkpt lat="42.52382" lon="0.2131">
        <ele>1006.1</ele>
        <time>2016-07-23T09:44:12Z</time>
      </trkpt>
      <trkpt lat="42.52379" lon="0.21313">
        <ele>1006.5</ele>
        <time>2016-07-23T09:44:13Z</time>
      </trkpt>
      <trkpt lat="42.52377" lon="0.21318">
        <ele>1006.5</ele>
        <time>2016-07-23T09:44:14Z</time>
      </trkpt>
      <trkpt lat="42.52375" lon="0.21322">
        <ele>1006.4</ele>
        <time>2016-07-23T09:44:15Z</time>
      </trkpt>
      <trkpt lat="42.52373" lon="0.21327">
        <ele>1006.7</ele>
        <time>2016-07-23T09:44:16Z</time>
      </trkpt>
      <trkpt lat="42.52371" lon="0.21332">
        <ele>1007.3</ele>
        <time>2016-07-23T09:44:17Z</time>
      </trkpt>
      <trkpt lat="42.52368" lon="0.21337">
        <ele>1007.9</ele>
        <time>2016-07-23T09:44:18Z</time>
      </trkpt>
      <trkpt lat="42.52366" lon="0.21342">
        <ele>1008.7</ele>
        <time>2016-07-23T09:44:19Z</time>
      </trkpt>
      <trkpt lat="42.52364" lon="0.21347">
        <ele>1009.4</ele>
        <time>2016-07-23T09:44:20Z</time>
      </trkpt>
      <trkpt lat="42.52361" lon="0.21352">
        <ele>1010</ele>
        <time>2016-07-23T09:44:21Z</time>
      </trkpt>
      <trkpt lat="42.52359" lon="0.21357">
        <ele>1010.8</ele>
        <time>2016-07-23T09:44:22Z</time>
      </trkpt>
      <trkpt lat="42.52357" lon="0.2136">
        <ele>1011.6</ele>
        <time>2016-07-23T09:44:23Z</time>
      </trkpt>
      <trkpt lat="42.52356" lon="0.21363">
        <ele>1012.3</ele>
        <time>2016-07-23T09:44:24Z</time>
      </trkpt>
      <trkpt lat="42.52355" lon="0.21368">
        <ele>1012.2</ele>
        <time>2016-07-23T09:44:25Z</time>
      </trkpt>
      <trkpt lat="42.52355" lon="0.21372">
        <ele>1011.5</ele>
        <time>2016-07-23T09:44:26Z</time>
      </trkpt>
      <trkpt lat="42.52355" lon="0.21376">
        <ele>1010.5</ele>
        <time>2016-07-23T09:44:27Z</time>
      </trkpt>
      <trkpt lat="42.52355" lon="0.21381">
        <ele>1009.7</ele>
        <time>2016-07-23T09:44:28Z</time>
      </trkpt>
      <trkpt lat="42.52354" lon="0.21385">
        <ele>1009.3</ele>
        <time>2016-07-23T09:44:29Z</time>
      </trkpt>
      <trkpt lat="42.52353" lon="0.21389">
        <ele>1009.1</ele>
        <time>2016-07-23T09:44:30Z</time>
      </trkpt>
      <trkpt lat="42.52351" lon="0.21394">
        <ele>1009.4</ele>
        <time>2016-07-23T09:44:31Z</time>
      </trkpt>
      <trkpt lat="42.52349" lon="0.21398">
        <ele>1009.8</ele>
        <time>2016-07-23T09:44:32Z</time>
      </trkpt>
      <trkpt lat="42.52347" lon="0.21403">
        <ele>1010.3</ele>
        <time>2016-07-23T09:44:33Z</time>
      </trkpt>
      <trkpt lat="42.52346" lon="0.21407">
        <ele>1010.6</ele>
        <time>2016-07-23T09:44:34Z</time>
      </trkpt>
      <trkpt lat="42.52343" lon="0.21413">
        <ele>1011.1</ele>
        <time>2016-07-23T09:44:36Z</time>
      </trkpt>
      <trkpt lat="42.52342" lon="0.21417">
        <ele>1011.4</ele>
        <time>2016-07-23T09:44:37Z</time>
      </trkpt>
      <trkpt lat="42.5234" lon="0.21421">
        <ele>1011.8</ele>
        <time>2016-07-23T09:44:38Z</time>
      </trkpt>
      <trkpt lat="42.52338" lon="0.21425">
        <ele>1012.3</ele>
        <time>2016-07-23T09:44:39Z</time>
      </trkpt>
      <trkpt lat="42.52336" lon="0.21429">
        <ele>1012.7</ele>
        <time>2016-07-23T09:44:40Z</time>
      </trkpt>
      <trkpt lat="42.52334" lon="0.21433">
        <ele>1013.4</ele>
        <time>2016-07-23T09:44:41Z</time>
      </trkpt>
      <trkpt lat="42.52332" lon="0.21437">
        <ele>1014.2</ele>
        <time>2016-07-23T09:44:42Z</time>
      </trkpt>
      <trkpt lat="42.5233" lon="0.21441">
        <ele>1014.6</ele>
        <time>2016-07-23T09:44:43Z</time>
      </trkpt>
      <trkpt lat="42.52328" lon="0.21445">
        <ele>1015.2</ele>
        <time>2016-07-23T09:44:44Z</time>
      </trkpt>
      <trkpt lat="42.52326" lon="0.21449">
        <ele>1015.7</ele>
        <time>2016-07-23T09:44:45Z</time>
      </trkpt>
      <trkpt lat="42.52324" lon="0.21453">
        <ele>1016.5</ele>
        <time>2016-07-23T09:44:46Z</time>
      </trkpt>
      <trkpt lat="42.52322" lon="0.21457">
        <ele>1017.1</ele>
        <time>2016-07-23T09:44:47Z</time>
      </trkpt>
      <trkpt lat="42.52319" lon="0.21461">
        <ele>1017.3</ele>
        <time>2016-07-23T09:44:48Z</time>
      </trkpt>
      <trkpt lat="42.52318" lon="0.21464">
        <ele>1016.7</ele>
        <time>2016-07-23T09:44:49Z</time>
      </trkpt>
      <trkpt lat="42.52316" lon="0.21468">
        <ele>1015.9</ele>
        <time>2016-07-23T09:44:50Z</time>
      </trkpt>
      <trkpt lat="42.52315" lon="0.21472">
        <ele>1014.9</ele>
        <time>2016-07-23T09:44:51Z</time>
      </trkpt>
      <trkpt lat="42.52314" lon="0.21475">
        <ele>1013.8</ele>
        <time>2016-07-23T09:44:52Z</time>
      </trkpt>
      <trkpt lat="42.52313" lon="0.21479">
        <ele>1013</ele>
        <time>2016-07-23T09:44:53Z</time>
      </trkpt>
      <trkpt lat="42.52311" lon="0.21482">
        <ele>1012.1</ele>
        <time>2016-07-23T09:44:54Z</time>
      </trkpt>
      <trkpt lat="42.52309" lon="0.21486">
        <ele>1011.3</ele>
        <time>2016-07-23T09:44:55Z</time>
      </trkpt>
      <trkpt lat="42.52306" lon="0.21491">
        <ele>1010.4</ele>
        <time>2016-07-23T09:44:57Z</time>
      </trkpt>
      <trkpt lat="42.52303" lon="0.21496">
        <ele>1009.9</ele>
        <time>2016-07-23T09:44:59Z</time>
      </trkpt>
      <trkpt lat="42.52298" lon="0.215">
        <ele>1010.5</ele>
        <time>2016-07-23T09:45:01Z</time>
      </trkpt>
      <trkpt lat="42.52296" lon="0.21502">
        <ele>1011</ele>
        <time>2016-07-23T09:45:02Z</time>
      </trkpt>
      <trkpt lat="42.52293" lon="0.21504">
        <ele>1011.7</ele>
        <time>2016-07-23T09:45:03Z</time>
      </trkpt>
      <trkpt lat="42.5229" lon="0.21506">
        <ele>1010.8</ele>
        <time>2016-07-23T09:45:04Z</time>
      </trkpt>
      <trkpt lat="42.52287" lon="0.21508">
        <ele>1009.6</ele>
        <time>2016-07-23T09:45:05Z</time>
      </trkpt>
      <trkpt lat="42.52282" lon="0.2151">
        <ele>1007.9</ele>
        <time>2016-07-23T09:45:07Z</time>
      </trkpt>
      <trkpt lat="42.5228" lon="0.21511">
        <ele>1007.1</ele>
        <time>2016-07-23T09:45:08Z</time>
      </trkpt>
      <trkpt lat="42.52277" lon="0.21512">
        <ele>1006.1</ele>
        <time>2016-07-23T09:45:09Z</time>
      </trkpt>
      <trkpt lat="42.52274" lon="0.21513">
        <ele>1005.1</ele>
        <time>2016-07-23T09:45:10Z</time>
      </trkpt>
      <trkpt lat="42.52271" lon="0.21515">
        <ele>1004.1</ele>
        <time>2016-07-23T09:45:11Z</time>
      </trkpt>
      <trkpt lat="42.52268" lon="0.21515">
        <ele>1003.3</ele>
        <time>2016-07-23T09:45:12Z</time>
      </trkpt>
      <trkpt lat="42.52265" lon="0.21515">
        <ele>1003</ele>
        <time>2016-07-23T09:45:13Z</time>
      </trkpt>
      <trkpt lat="42.52261" lon="0.21515">
        <ele>1002.9</ele>
        <time>2016-07-23T09:45:14Z</time>
      </trkpt>
      <trkpt lat="42.52257" lon="0.21514">
        <ele>1003.2</ele>
        <time>2016-07-23T09:45:15Z</time>
      </trkpt>
      <trkpt lat="42.52254" lon="0.21513">
        <ele>1003.5</ele>
        <time>2016-07-23T09:45:16Z</time>
      </trkpt>
      <trkpt lat="42.5225" lon="0.21511">
        <ele>1004</ele>
        <time>2016-07-23T09:45:17Z</time>
      </trkpt>
      <trkpt lat="42.52247" lon="0.2151">
        <ele>1004.5</ele>
        <time>2016-07-23T09:45:18Z</time>
      </trkpt>
      <trkpt lat="42.52243" lon="0.21509">
        <ele>1005</ele>
        <time>2016-07-23T09:45:19Z</time>
      </trkpt>
      <trkpt lat="42.5224" lon="0.21508">
        <ele>1005.2</ele>
        <time>2016-07-23T09:45:20Z</time>
      </trkpt>
      <trkpt lat="42.52237" lon="0.21507">
        <ele>1005.2</ele>
        <time>2016-07-23T09:45:21Z</time>
      </trkpt>
      <trkpt lat="42.52233" lon="0.21507">
        <ele>1005</ele>
        <time>2016-07-23T09:45:22Z</time>
      </trkpt>
      <trkpt lat="42.5223" lon="0.21507">
        <ele>1004.6</ele>
        <time>2016-07-23T09:45:23Z</time>
      </trkpt>
      <trkpt lat="42.52226" lon="0.21507">
        <ele>1004</ele>
        <time>2016-07-23T09:45:24Z</time>
      </trkpt>
      <trkpt lat="42.52223" lon="0.21508">
        <ele>1003.2</ele>
        <time>2016-07-23T09:45:25Z</time>
      </trkpt>
      <trkpt lat="42.52218" lon="0.21509">
        <ele>1002.3</ele>
        <time>2016-07-23T09:45:27Z</time>
      </trkpt>
      <trkpt lat="42.52215" lon="0.21509">
        <ele>1002</ele>
        <time>2016-07-23T09:45:28Z</time>
      </trkpt>
      <trkpt lat="42.52212" lon="0.21509">
        <ele>1001.6</ele>
        <time>2016-07-23T09:45:29Z</time>
      </trkpt>
      <trkpt lat="42.52208" lon="0.21509">
        <ele>1001.4</ele>
        <time>2016-07-23T09:45:30Z</time>
      </trkpt>
      <trkpt lat="42.52205" lon="0.21509">
        <ele>1000.9</ele>
        <time>2016-07-23T09:45:31Z</time>
      </trkpt>
      <trkpt lat="42.52198" lon="0.2151">
        <ele>999.2</ele>
        <time>2016-07-23T09:45:33Z</time>
      </trkpt>
      <trkpt lat="42.52195" lon="0.21511">
        <ele>998</ele>
        <time>2016-07-23T09:45:34Z</time>
      </trkpt>
      <trkpt lat="42.52191" lon="0.21513">
        <ele>996.7</ele>
        <time>2016-07-23T09:45:35Z</time>
      </trkpt>
      <trkpt lat="42.52188" lon="0.21515">
        <ele>995.1</ele>
        <time>2016-07-23T09:45:36Z</time>
      </trkpt>
      <trkpt lat="42.52184" lon="0.21516">
        <ele>993.8</ele>
        <time>2016-07-23T09:45:37Z</time>
      </trkpt>
      <trkpt lat="42.5218" lon="0.21517">
        <ele>992.7</ele>
        <time>2016-07-23T09:45:38Z</time>
      </trkpt>
      <trkpt lat="42.52177" lon="0.21517">
        <ele>992</ele>
        <time>2016-07-23T09:45:39Z</time>
      </trkpt>
      <trkpt lat="42.52173" lon="0.21517">
        <ele>991.7</ele>
        <time>2016-07-23T09:45:40Z</time>
      </trkpt>
      <trkpt lat="42.5217" lon="0.21517">
        <ele>991.3</ele>
        <time>2016-07-23T09:45:41Z</time>
      </trkpt>
      <trkpt lat="42.52166" lon="0.21517">
        <ele>990.7</ele>
        <time>2016-07-23T09:45:42Z</time>
      </trkpt>
      <trkpt lat="42.52162" lon="0.21517">
        <ele>990</ele>
        <time>2016-07-23T09:45:43Z</time>
      </trkpt>
      <trkpt lat="42.52158" lon="0.21518">
        <ele>989.1</ele>
        <time>2016-07-23T09:45:44Z</time>
      </trkpt>
      <trkpt lat="42.52153" lon="0.21518">
        <ele>988.1</ele>
        <time>2016-07-23T09:45:45Z</time>
      </trkpt>
      <trkpt lat="42.52149" lon="0.21519">
        <ele>987.3</ele>
        <time>2016-07-23T09:45:46Z</time>
      </trkpt>
      <trkpt lat="42.52146" lon="0.21519">
        <ele>986.6</ele>
        <time>2016-07-23T09:45:47Z</time>
      </trkpt>
      <trkpt lat="42.52142" lon="0.21519">
        <ele>986</ele>
        <time>2016-07-23T09:45:48Z</time>
      </trkpt>
      <trkpt lat="42.52138" lon="0.21519">
        <ele>985.7</ele>
        <time>2016-07-23T09:45:49Z</time>
      </trkpt>
      <trkpt lat="42.52134" lon="0.21517">
        <ele>985.7</ele>
        <time>2016-07-23T09:45:50Z</time>
      </trkpt>
      <trkpt lat="42.52131" lon="0.21516">
        <ele>985.9</ele>
        <time>2016-07-23T09:45:51Z</time>
      </trkpt>
      <trkpt lat="42.52127" lon="0.21513">
        <ele>986.4</ele>
        <time>2016-07-23T09:45:52Z</time>
      </trkpt>
      <trkpt lat="42.52124" lon="0.2151">
        <ele>987</ele>
        <time>2016-07-23T09:45:53Z</time>
      </trkpt>
      <trkpt lat="42.52121" lon="0.21507">
        <ele>988.2</ele>
        <time>2016-07-23T09:45:54Z</time>
      </trkpt>
      <trkpt lat="42.52118" lon="0.21504">
        <ele>989.5</ele>
        <time>2016-07-23T09:45:55Z</time>
      </trkpt>
      <trkpt lat="42.52115" lon="0.21501">
        <ele>990.5</ele>
        <time>2016-07-23T09:45:56Z</time>
      </trkpt>
      <trkpt lat="42.52112" lon="0.21498">
        <ele>991.4</ele>
        <time>2016-07-23T09:45:57Z</time>
      </trkpt>
      <trkpt lat="42.52109" lon="0.21496">
        <ele>992.2</ele>
        <time>2016-07-23T09:45:58Z</time>
      </trkpt>
      <trkpt lat="42.52107" lon="0.21494">
        <ele>992.9</ele>
        <time>2016-07-23T09:45:59Z</time>
      </trkpt>
      <trkpt lat="42.52104" lon="0.21492">
        <ele>993.5</ele>
        <time>2016-07-23T09:46:00Z</time>
      </trkpt>
      <trkpt lat="42.52101" lon="0.2149">
        <ele>994.1</ele>
        <time>2016-07-23T09:46:01Z</time>
      </trkpt>
      <trkpt lat="42.52098" lon="0.21489">
        <ele>994.6</ele>
        <time>2016-07-23T09:46:02Z</time>
      </trkpt>
      <trkpt lat="42.52095" lon="0.21487">
        <ele>995</ele>
        <time>2016-07-23T09:46:03Z</time>
      </trkpt>
      <trkpt lat="42.52093" lon="0.21486">
        <ele>995.4</ele>
        <time>2016-07-23T09:46:04Z</time>
      </trkpt>
      <trkpt lat="42.52086" lon="0.21482">
        <ele>996.4</ele>
        <time>2016-07-23T09:46:07Z</time>
      </trkpt>
      <trkpt lat="42.52081" lon="0.2148">
        <ele>997.2</ele>
        <time>2016-07-23T09:46:09Z</time>
      </trkpt>
      <trkpt lat="42.52076" lon="0.21478">
        <ele>997.6</ele>
        <time>2016-07-23T09:46:11Z</time>
      </trkpt>
      <trkpt lat="42.52073" lon="0.21478">
        <ele>997.6</ele>
        <time>2016-07-23T09:46:12Z</time>
      </trkpt>
      <trkpt lat="42.5207" lon="0.21477">
        <ele>997.7</ele>
        <time>2016-07-23T09:46:13Z</time>
      </trkpt>
      <trkpt lat="42.52067" lon="0.21477">
        <ele>997.9</ele>
        <time>2016-07-23T09:46:14Z</time>
      </trkpt>
      <trkpt lat="42.52065" lon="0.21475">
        <ele>998.2</ele>
        <time>2016-07-23T09:46:15Z</time>
      </trkpt>
      <trkpt lat="42.52062" lon="0.21474">
        <ele>998.7</ele>
        <time>2016-07-23T09:46:16Z</time>
      </trkpt>
      <trkpt lat="42.5206" lon="0.21472">
        <ele>999.1</ele>
        <time>2016-07-23T09:46:17Z</time>
      </trkpt>
      <trkpt lat="42.52054" lon="0.21471">
        <ele>999.3</ele>
        <time>2016-07-23T09:46:19Z</time>
      </trkpt>
      <trkpt lat="42.52051" lon="0.21471">
        <ele>999</ele>
        <time>2016-07-23T09:46:20Z</time>
      </trkpt>
      <trkpt lat="42.52046" lon="0.21475">
        <ele>997.7</ele>
        <time>2016-07-23T09:46:22Z</time>
      </trkpt>
      <trkpt lat="42.52044" lon="0.21477">
        <ele>996.8</ele>
        <time>2016-07-23T09:46:23Z</time>
      </trkpt>
      <trkpt lat="42.5204" lon="0.21481">
        <ele>995.5</ele>
        <time>2016-07-23T09:46:25Z</time>
      </trkpt>
      <trkpt lat="42.52035" lon="0.21483">
        <ele>995.6</ele>
        <time>2016-07-23T09:46:27Z</time>
      </trkpt>
      <trkpt lat="42.52032" lon="0.21482">
        <ele>996.1</ele>
        <time>2016-07-23T09:46:28Z</time>
      </trkpt>
      <trkpt lat="42.52029" lon="0.21481">
        <ele>996.9</ele>
        <time>2016-07-23T09:46:29Z</time>
      </trkpt>
      <trkpt lat="42.52027" lon="0.21479">
        <ele>997.8</ele>
        <time>2016-07-23T09:46:30Z</time>
      </trkpt>
      <trkpt lat="42.52025" lon="0.21476">
        <ele>998.8</ele>
        <time>2016-07-23T09:46:31Z</time>
      </trkpt>
      <trkpt lat="42.52022" lon="0.21474">
        <ele>999.9</ele>
        <time>2016-07-23T09:46:32Z</time>
      </trkpt>
      <trkpt lat="42.5202" lon="0.21472">
        <ele>1000.8</ele>
        <time>2016-07-23T09:46:33Z</time>
      </trkpt>
      <trkpt lat="42.52015" lon="0.21469">
        <ele>1002.4</ele>
        <time>2016-07-23T09:46:35Z</time>
      </trkpt>
      <trkpt lat="42.52012" lon="0.21468">
        <ele>1003.1</ele>
        <time>2016-07-23T09:46:36Z</time>
      </trkpt>
      <trkpt lat="42.52009" lon="0.21467">
        <ele>1003.7</ele>
        <time>2016-07-23T09:46:37Z</time>
      </trkpt>
      <trkpt lat="42.52006" lon="0.21466">
        <ele>1004.2</ele>
        <time>2016-07-23T09:46:38Z</time>
      </trkpt>
      <trkpt lat="42.52003" lon="0.21467">
        <ele>1004.4</ele>
        <time>2016-07-23T09:46:39Z</time>
      </trkpt>
      <trkpt lat="42.52001" lon="0.21467">
        <ele>1004.5</ele>
        <time>2016-07-23T09:46:40Z</time>
      </trkpt>
      <trkpt lat="42.51998" lon="0.21468">
        <ele>1004.4</ele>
        <time>2016-07-23T09:46:41Z</time>
      </trkpt>
      <trkpt lat="42.51995" lon="0.21469">
        <ele>1004.5</ele>
        <time>2016-07-23T09:46:42Z</time>
      </trkpt>
      <trkpt lat="42.51992" lon="0.21469">
        <ele>1004.7</ele>
        <time>2016-07-23T09:46:43Z</time>
      </trkpt>
      <trkpt lat="42.51988" lon="0.21469">
        <ele>1005</ele>
        <time>2016-07-23T09:46:44Z</time>
      </trkpt>
      <trkpt lat="42.51985" lon="0.21469">
        <ele>1005.4</ele>
        <time>2016-07-23T09:46:45Z</time>
      </trkpt>
      <trkpt lat="42.51983" lon="0.21469">
        <ele>1005.8</ele>
        <time>2016-07-23T09:46:46Z</time>
      </trkpt>
      <trkpt lat="42.51978" lon="0.2147">
        <ele>1006</ele>
        <time>2016-07-23T09:46:48Z</time>
      </trkpt>
      <trkpt lat="42.51973" lon="0.21471">
        <ele>1006</ele>
        <time>2016-07-23T09:46:50Z</time>
      </trkpt>
      <trkpt lat="42.51968" lon="0.21473">
        <ele>1005.9</ele>
        <time>2016-07-23T09:46:52Z</time>
      </trkpt>
      <trkpt lat="42.51966" lon="0.21474">
        <ele>1006</ele>
        <time>2016-07-23T09:46:53Z</time>
      </trkpt>
      <trkpt lat="42.51962" lon="0.21475">
        <ele>1006</ele>
        <time>2016-07-23T09:46:54Z</time>
      </trkpt>
      <trkpt lat="42.51959" lon="0.21476">
        <ele>1006.2</ele>
        <time>2016-07-23T09:46:55Z</time>
      </trkpt>
      <trkpt lat="42.51956" lon="0.21476">
        <ele>1006.4</ele>
        <time>2016-07-23T09:46:56Z</time>
      </trkpt>
      <trkpt lat="42.51953" lon="0.21476">
        <ele>1006.7</ele>
        <time>2016-07-23T09:46:57Z</time>
      </trkpt>
      <trkpt lat="42.5195" lon="0.21476">
        <ele>1007</ele>
        <time>2016-07-23T09:46:58Z</time>
      </trkpt>
      <trkpt lat="42.51946" lon="0.21477">
        <ele>1007.4</ele>
        <time>2016-07-23T09:47:00Z</time>
      </trkpt>
      <trkpt lat="42.51942" lon="0.21477">
        <ele>1007.9</ele>
        <time>2016-07-23T09:47:02Z</time>
      </trkpt>
      <trkpt lat="42.51939" lon="0.21479">
        <ele>1007.6</ele>
        <time>2016-07-23T09:47:05Z</time>
      </trkpt>
      <trkpt lat="42.51937" lon="0.21482">
        <ele>1007</ele>
        <time>2016-07-23T09:47:30Z</time>
      </trkpt>
      <trkpt lat="42.51936" lon="0.21486">
        <ele>1005.8</ele>
        <time>2016-07-23T09:47:39Z</time>
      </trkpt>
      <trkpt lat="42.51939" lon="0.21485">
        <ele>1005.6</ele>
        <time>2016-07-23T09:47:55Z</time>
      </trkpt>
      <trkpt lat="42.51942" lon="0.21485">
        <ele>1005.3</ele>
        <time>2016-07-23T09:47:57Z</time>
      </trkpt>
      <trkpt lat="42.5194" lon="0.21489">
        <ele>1004.1</ele>
        <time>2016-07-23T09:48:03Z</time>
      </trkpt>
      <trkpt lat="42.51937" lon="0.2149">
        <ele>1004.2</ele>
        <time>2016-07-23T09:48:06Z</time>
      </trkpt>
      <trkpt lat="42.51937" lon="0.21495">
        <ele>1002.5</ele>
        <time>2016-07-23T09:48:09Z</time>
      </trkpt>
      <trkpt lat="42.51939" lon="0.215">
        <ele>1000.7</ele>
        <time>2016-07-23T09:48:11Z</time>
      </trkpt>
      <trkpt lat="42.51941" lon="0.21505">
        <ele>998.8</ele>
        <time>2016-07-23T09:48:13Z</time>
      </trkpt>
      <trkpt lat="42.51941" lon="0.21509">
        <ele>997.4</ele>
        <time>2016-07-23T09:48:15Z</time>
      </trkpt>
      <trkpt lat="42.51943" lon="0.21512">
        <ele>996.1</ele>
        <time>2016-07-23T09:48:18Z</time>
      </trkpt>
      <trkpt lat="42.51946" lon="0.21513">
        <ele>995.5</ele>
        <time>2016-07-23T09:48:22Z</time>
      </trkpt>
      <trkpt lat="42.51949" lon="0.21514">
        <ele>994.8</ele>
        <time>2016-07-23T09:48:26Z</time>
      </trkpt>
      <trkpt lat="42.51952" lon="0.21517">
        <ele>993.4</ele>
        <time>2016-07-23T09:48:28Z</time>
      </trkpt>
      <trkpt lat="42.51953" lon="0.2152">
        <ele>992.1</ele>
        <time>2016-07-23T09:48:31Z</time>
      </trkpt>
      <trkpt lat="42.51951" lon="0.21523">
        <ele>991.5</ele>
        <time>2016-07-23T09:48:37Z</time>
      </trkpt>
      <trkpt lat="42.5195" lon="0.21526">
        <ele>990.6</ele>
        <time>2016-07-23T09:48:45Z</time>
      </trkpt>
      <trkpt lat="42.5195" lon="0.2153">
        <ele>989.4</ele>
        <time>2016-07-23T09:48:48Z</time>
      </trkpt>
      <trkpt lat="42.51951" lon="0.21534">
        <ele>987.6</ele>
        <time>2016-07-23T09:48:52Z</time>
      </trkpt>
      <trkpt lat="42.51953" lon="0.21539">
        <ele>985.8</ele>
        <time>2016-07-23T09:48:54Z</time>
      </trkpt>
      <trkpt lat="42.51956" lon="0.21546">
        <ele>983.5</ele>
        <time>2016-07-23T09:48:56Z</time>
      </trkpt>
      <trkpt lat="42.51958" lon="0.2155">
        <ele>982.1</ele>
        <time>2016-07-23T09:48:58Z</time>
      </trkpt>
      <trkpt lat="42.51961" lon="0.21554">
        <ele>981</ele>
        <time>2016-07-23T09:49:00Z</time>
      </trkpt>
      <trkpt lat="42.51964" lon="0.21556">
        <ele>980.1</ele>
        <time>2016-07-23T09:49:02Z</time>
      </trkpt>
      <trkpt lat="42.51965" lon="0.2156">
        <ele>979.1</ele>
        <time>2016-07-23T09:49:05Z</time>
      </trkpt>
      <trkpt lat="42.51964" lon="0.21564">
        <ele>978.2</ele>
        <time>2016-07-23T09:49:07Z</time>
      </trkpt>
      <trkpt lat="42.51964" lon="0.21569">
        <ele>977.2</ele>
        <time>2016-07-23T09:49:10Z</time>
      </trkpt>
      <trkpt lat="42.51966" lon="0.21576">
        <ele>975.3</ele>
        <time>2016-07-23T09:49:12Z</time>
      </trkpt>
      <trkpt lat="42.51967" lon="0.21579">
        <ele>974.4</ele>
        <time>2016-07-23T09:49:13Z</time>
      </trkpt>
      <trkpt lat="42.51969" lon="0.21585">
        <ele>972.7</ele>
        <time>2016-07-23T09:49:15Z</time>
      </trkpt>
      <trkpt lat="42.51971" lon="0.21589">
        <ele>971.6</ele>
        <time>2016-07-23T09:49:16Z</time>
      </trkpt>
      <trkpt lat="42.51972" lon="0.21593">
        <ele>970.5</ele>
        <time>2016-07-23T09:49:17Z</time>
      </trkpt>
      <trkpt lat="42.51974" lon="0.21598">
        <ele>969.3</ele>
        <time>2016-07-23T09:49:18Z</time>
      </trkpt>
      <trkpt lat="42.51976" lon="0.21601">
        <ele>968.2</ele>
        <time>2016-07-23T09:49:19Z</time>
      </trkpt>
      <trkpt lat="42.51978" lon="0.21605">
        <ele>967.1</ele>
        <time>2016-07-23T09:49:20Z</time>
      </trkpt>
      <trkpt lat="42.5198" lon="0.21609">
        <ele>966</ele>
        <time>2016-07-23T09:49:21Z</time>
      </trkpt>
      <trkpt lat="42.51981" lon="0.21612">
        <ele>965</ele>
        <time>2016-07-23T09:49:22Z</time>
      </trkpt>
      <trkpt lat="42.51983" lon="0.21616">
        <ele>964</ele>
        <time>2016-07-23T09:49:23Z</time>
      </trkpt>
      <trkpt lat="42.51984" lon="0.2162">
        <ele>962.9</ele>
        <time>2016-07-23T09:49:24Z</time>
      </trkpt>
      <trkpt lat="42.51985" lon="0.21624">
        <ele>961.7</ele>
        <time>2016-07-23T09:49:25Z</time>
      </trkpt>
      <trkpt lat="42.51985" lon="0.21628">
        <ele>960.6</ele>
        <time>2016-07-23T09:49:26Z</time>
      </trkpt>
      <trkpt lat="42.51985" lon="0.21633">
        <ele>959.1</ele>
        <time>2016-07-23T09:49:28Z</time>
      </trkpt>
      <trkpt lat="42.51987" lon="0.21639">
        <ele>957.1</ele>
        <time>2016-07-23T09:49:30Z</time>
      </trkpt>
      <trkpt lat="42.5199" lon="0.21645">
        <ele>955.2</ele>
        <time>2016-07-23T09:49:32Z</time>
      </trkpt>
      <trkpt lat="42.51992" lon="0.21648">
        <ele>954.1</ele>
        <time>2016-07-23T09:49:33Z</time>
      </trkpt>
      <trkpt lat="42.51994" lon="0.21651">
        <ele>953</ele>
        <time>2016-07-23T09:49:34Z</time>
      </trkpt>
      <trkpt lat="42.51997" lon="0.21654">
        <ele>951.6</ele>
        <time>2016-07-23T09:49:36Z</time>
      </trkpt>
      <trkpt lat="42.52" lon="0.21654">
        <ele>951.3</ele>
        <time>2016-07-23T09:49:40Z</time>
      </trkpt>
      <trkpt lat="42.52002" lon="0.21658">
        <ele>950.1</ele>
        <time>2016-07-23T09:49:49Z</time>
      </trkpt>
      <trkpt lat="42.52005" lon="0.21659">
        <ele>949.5</ele>
        <time>2016-07-23T09:49:52Z</time>
      </trkpt>
      <trkpt lat="42.52007" lon="0.21663">
        <ele>948.1</ele>
        <time>2016-07-23T09:49:56Z</time>
      </trkpt>
      <trkpt lat="42.52005" lon="0.21667">
        <ele>947</ele>
        <time>2016-07-23T09:50:08Z</time>
      </trkpt>
      <trkpt lat="42.52003" lon="0.2167">
        <ele>946.5</ele>
        <time>2016-07-23T09:50:10Z</time>
      </trkpt>
      <trkpt lat="42.52001" lon="0.21676">
        <ele>945.1</ele>
        <time>2016-07-23T09:50:12Z</time>
      </trkpt>
      <trkpt lat="42.52002" lon="0.2168">
        <ele>943.9</ele>
        <time>2016-07-23T09:50:14Z</time>
      </trkpt>
      <trkpt lat="42.52002" lon="0.21684">
        <ele>942.7</ele>
        <time>2016-07-23T09:50:16Z</time>
      </trkpt>
      <trkpt lat="42.52002" lon="0.21688">
        <ele>941.5</ele>
        <time>2016-07-23T09:50:18Z</time>
      </trkpt>
      <trkpt lat="42.52" lon="0.21692">
        <ele>940.5</ele>
        <time>2016-07-23T09:50:20Z</time>
      </trkpt>
      <trkpt lat="42.51998" lon="0.21698">
        <ele>939.1</ele>
        <time>2016-07-23T09:50:22Z</time>
      </trkpt>
      <trkpt lat="42.51998" lon="0.21702">
        <ele>938</ele>
        <time>2016-07-23T09:50:23Z</time>
      </trkpt>
      <trkpt lat="42.51998" lon="0.21706">
        <ele>936.8</ele>
        <time>2016-07-23T09:50:24Z</time>
      </trkpt>
      <trkpt lat="42.52" lon="0.2171">
        <ele>935.5</ele>
        <time>2016-07-23T09:50:25Z</time>
      </trkpt>
      <trkpt lat="42.52002" lon="0.21713">
        <ele>934.1</ele>
        <time>2016-07-23T09:50:26Z</time>
      </trkpt>
      <trkpt lat="42.52004" lon="0.21718">
        <ele>932</ele>
        <time>2016-07-23T09:50:28Z</time>
      </trkpt>
      <trkpt lat="42.52005" lon="0.21723">
        <ele>930</ele>
        <time>2016-07-23T09:50:30Z</time>
      </trkpt>
      <trkpt lat="42.52005" lon="0.21727">
        <ele>928.6</ele>
        <time>2016-07-23T09:50:35Z</time>
      </trkpt>
      <trkpt lat="42.52005" lon="0.21732">
        <ele>926.5</ele>
        <time>2016-07-23T09:50:41Z</time>
      </trkpt>
      <trkpt lat="42.52007" lon="0.21739">
        <ele>923.7</ele>
        <time>2016-07-23T09:50:43Z</time>
      </trkpt>
      <trkpt lat="42.5201" lon="0.21743">
        <ele>922</ele>
        <time>2016-07-23T09:50:45Z</time>
      </trkpt>
      <trkpt lat="42.52014" lon="0.21745">
        <ele>921.2</ele>
        <time>2016-07-23T09:50:48Z</time>
      </trkpt>
      <trkpt lat="42.52019" lon="0.21748">
        <ele>919.8</ele>
        <time>2016-07-23T09:50:50Z</time>
      </trkpt>
      <trkpt lat="42.52021" lon="0.2175">
        <ele>918.6</ele>
        <time>2016-07-23T09:50:51Z</time>
      </trkpt>
      <trkpt lat="42.52023" lon="0.21753">
        <ele>917.4</ele>
        <time>2016-07-23T09:50:52Z</time>
      </trkpt>
      <trkpt lat="42.52025" lon="0.21757">
        <ele>915.8</ele>
        <time>2016-07-23T09:50:54Z</time>
      </trkpt>
      <trkpt lat="42.52028" lon="0.21759">
        <ele>914.8</ele>
        <time>2016-07-23T09:50:56Z</time>
      </trkpt>
      <trkpt lat="42.52031" lon="0.21763">
        <ele>913.2</ele>
        <time>2016-07-23T09:50:58Z</time>
      </trkpt>
      <trkpt lat="42.52035" lon="0.21767">
        <ele>911.4</ele>
        <time>2016-07-23T09:51:00Z</time>
      </trkpt>
      <trkpt lat="42.52038" lon="0.21769">
        <ele>910.7</ele>
        <time>2016-07-23T09:51:01Z</time>
      </trkpt>
      <trkpt lat="42.5204" lon="0.2177">
        <ele>910.2</ele>
        <time>2016-07-23T09:51:02Z</time>
      </trkpt>
      <trkpt lat="42.52045" lon="0.2177">
        <ele>910</ele>
        <time>2016-07-23T09:51:04Z</time>
      </trkpt>
      <trkpt lat="42.52049" lon="0.21772">
        <ele>908.8</ele>
        <time>2016-07-23T09:51:06Z</time>
      </trkpt>
      <trkpt lat="42.5205" lon="0.21776">
        <ele>907.5</ele>
        <time>2016-07-23T09:51:07Z</time>
      </trkpt>
      <trkpt lat="42.52051" lon="0.2178">
        <ele>905.8</ele>
        <time>2016-07-23T09:51:08Z</time>
      </trkpt>
      <trkpt lat="42.52052" lon="0.21785">
        <ele>903.8</ele>
        <time>2016-07-23T09:51:09Z</time>
      </trkpt>
      <trkpt lat="42.52053" lon="0.21789">
        <ele>902.3</ele>
        <time>2016-07-23T09:51:10Z</time>
      </trkpt>
      <trkpt lat="42.52056" lon="0.21793">
        <ele>900.9</ele>
        <time>2016-07-23T09:51:11Z</time>
      </trkpt>
      <trkpt lat="42.5206" lon="0.21796">
        <ele>899.6</ele>
        <time>2016-07-23T09:51:12Z</time>
      </trkpt>
      <trkpt lat="42.52064" lon="0.21797">
        <ele>899.1</ele>
        <time>2016-07-23T09:51:13Z</time>
      </trkpt>
      <trkpt lat="42.52069" lon="0.21796">
        <ele>899.2</ele>
        <time>2016-07-23T09:51:14Z</time>
      </trkpt>
      <trkpt lat="42.52074" lon="0.21794">
        <ele>899.9</ele>
        <time>2016-07-23T09:51:15Z</time>
      </trkpt>
      <trkpt lat="42.52078" lon="0.21789">
        <ele>901.1</ele>
        <time>2016-07-23T09:51:16Z</time>
      </trkpt>
      <trkpt lat="42.52081" lon="0.21786">
        <ele>902.3</ele>
        <time>2016-07-23T09:51:17Z</time>
      </trkpt>
      <trkpt lat="42.52085" lon="0.21782">
        <ele>903.4</ele>
        <time>2016-07-23T09:51:18Z</time>
      </trkpt>
      <trkpt lat="42.52089" lon="0.21779">
        <ele>904.4</ele>
        <time>2016-07-23T09:51:19Z</time>
      </trkpt>
      <trkpt lat="42.52092" lon="0.21775">
        <ele>905.3</ele>
        <time>2016-07-23T09:51:20Z</time>
      </trkpt>
      <trkpt lat="42.52095" lon="0.21773">
        <ele>906</ele>
        <time>2016-07-23T09:51:21Z</time>
      </trkpt>
      <trkpt lat="42.52099" lon="0.2177">
        <ele>906.7</ele>
        <time>2016-07-23T09:51:23Z</time>
      </trkpt>
      <trkpt lat="42.52102" lon="0.2177">
        <ele>906.7</ele>
        <time>2016-07-23T09:51:24Z</time>
      </trkpt>
      <trkpt lat="42.52105" lon="0.21769">
        <ele>906.8</ele>
        <time>2016-07-23T09:51:25Z</time>
      </trkpt>
      <trkpt lat="42.52108" lon="0.21768">
        <ele>906.9</ele>
        <time>2016-07-23T09:51:26Z</time>
      </trkpt>
      <trkpt lat="42.52111" lon="0.21767">
        <ele>907.3</ele>
        <time>2016-07-23T09:51:28Z</time>
      </trkpt>
      <trkpt lat="42.52114" lon="0.21766">
        <ele>907.4</ele>
        <time>2016-07-23T09:51:30Z</time>
      </trkpt>
      <trkpt lat="42.52117" lon="0.21767">
        <ele>906.9</ele>
        <time>2016-07-23T09:51:32Z</time>
      </trkpt>
      <trkpt lat="42.5212" lon="0.2177">
        <ele>905.8</ele>
        <time>2016-07-23T09:51:34Z</time>
      </trkpt>
      <trkpt lat="42.52124" lon="0.21773">
        <ele>904.3</ele>
        <time>2016-07-23T09:51:36Z</time>
      </trkpt>
      <trkpt lat="42.52127" lon="0.21774">
        <ele>903.5</ele>
        <time>2016-07-23T09:51:38Z</time>
      </trkpt>
      <trkpt lat="42.5213" lon="0.21772">
        <ele>903.3</ele>
        <time>2016-07-23T09:51:40Z</time>
      </trkpt>
      <trkpt lat="42.52132" lon="0.21776">
        <ele>901.6</ele>
        <time>2016-07-23T09:51:46Z</time>
      </trkpt>
      <trkpt lat="42.52134" lon="0.21779">
        <ele>900.1</ele>
        <time>2016-07-23T09:51:48Z</time>
      </trkpt>
      <trkpt lat="42.52138" lon="0.21782">
        <ele>898.2</ele>
        <time>2016-07-23T09:51:50Z</time>
      </trkpt>
      <trkpt lat="42.52141" lon="0.21785">
        <ele>896.2</ele>
        <time>2016-07-23T09:51:52Z</time>
      </trkpt>
      <trkpt lat="42.52145" lon="0.21789">
        <ele>894.1</ele>
        <time>2016-07-23T09:51:55Z</time>
      </trkpt>
      <trkpt lat="42.52148" lon="0.21793">
        <ele>891.9</ele>
        <time>2016-07-23T09:51:57Z</time>
      </trkpt>
      <trkpt lat="42.52151" lon="0.21794">
        <ele>890.7</ele>
        <time>2016-07-23T09:51:59Z</time>
      </trkpt>
      <trkpt lat="42.5215" lon="0.21789">
        <ele>892.5</ele>
        <time>2016-07-23T09:52:37Z</time>
      </trkpt>
      <trkpt lat="42.52152" lon="0.21786">
        <ele>893.2</ele>
        <time>2016-07-23T09:52:39Z</time>
      </trkpt>
      <trkpt lat="42.52154" lon="0.21781">
        <ele>894.2</ele>
        <time>2016-07-23T09:52:41Z</time>
      </trkpt>
      <trkpt lat="42.52156" lon="0.21776">
        <ele>895.5</ele>
        <time>2016-07-23T09:52:43Z</time>
      </trkpt>
      <trkpt lat="42.52156" lon="0.21771">
        <ele>897</ele>
        <time>2016-07-23T09:52:45Z</time>
      </trkpt>
      <trkpt lat="42.52157" lon="0.21768">
        <ele>898.1</ele>
        <time>2016-07-23T09:52:50Z</time>
      </trkpt>
      <trkpt lat="42.5216" lon="0.21765">
        <ele>898.3</ele>
        <time>2016-07-23T09:52:54Z</time>
      </trkpt>
      <trkpt lat="42.52163" lon="0.21765">
        <ele>897.3</ele>
        <time>2016-07-23T09:52:56Z</time>
      </trkpt>
      <trkpt lat="42.52167" lon="0.21766">
        <ele>896.1</ele>
        <time>2016-07-23T09:52:58Z</time>
      </trkpt>
      <trkpt lat="42.52171" lon="0.21767">
        <ele>894.6</ele>
        <time>2016-07-23T09:53:00Z</time>
      </trkpt>
      <trkpt lat="42.52174" lon="0.21768">
        <ele>893.5</ele>
        <time>2016-07-23T09:53:01Z</time>
      </trkpt>
      <trkpt lat="42.52177" lon="0.2177">
        <ele>892.3</ele>
        <time>2016-07-23T09:53:02Z</time>
      </trkpt>
      <trkpt lat="42.52179" lon="0.21772">
        <ele>891</ele>
        <time>2016-07-23T09:53:03Z</time>
      </trkpt>
      <trkpt lat="42.52182" lon="0.21774">
        <ele>889.7</ele>
        <time>2016-07-23T09:53:04Z</time>
      </trkpt>
      <trkpt lat="42.52186" lon="0.21775">
        <ele>888.3</ele>
        <time>2016-07-23T09:53:05Z</time>
      </trkpt>
      <trkpt lat="42.5219" lon="0.21775">
        <ele>887.3</ele>
        <time>2016-07-23T09:53:06Z</time>
      </trkpt>
      <trkpt lat="42.52193" lon="0.21775">
        <ele>886.6</ele>
        <time>2016-07-23T09:53:07Z</time>
      </trkpt>
      <trkpt lat="42.52196" lon="0.21775">
        <ele>885.7</ele>
        <time>2016-07-23T09:53:08Z</time>
      </trkpt>
      <trkpt lat="42.52199" lon="0.21777">
        <ele>884.3</ele>
        <time>2016-07-23T09:53:09Z</time>
      </trkpt>
      <trkpt lat="42.52203" lon="0.21779">
        <ele>882.7</ele>
        <time>2016-07-23T09:53:10Z</time>
      </trkpt>
      <trkpt lat="42.52207" lon="0.21781">
        <ele>881.1</ele>
        <time>2016-07-23T09:53:11Z</time>
      </trkpt>
      <trkpt lat="42.52211" lon="0.21782">
        <ele>879.9</ele>
        <time>2016-07-23T09:53:12Z</time>
      </trkpt>
      <trkpt lat="42.52214" lon="0.21783">
        <ele>879.2</ele>
        <time>2016-07-23T09:53:13Z</time>
      </trkpt>
      <trkpt lat="42.52218" lon="0.21783">
        <ele>878.8</ele>
        <time>2016-07-23T09:53:14Z</time>
      </trkpt>
      <trkpt lat="42.52223" lon="0.21783">
        <ele>878</ele>
        <time>2016-07-23T09:53:16Z</time>
      </trkpt>
      <trkpt lat="42.52227" lon="0.21784">
        <ele>877.3</ele>
        <time>2016-07-23T09:53:17Z</time>
      </trkpt>
      <trkpt lat="42.5223" lon="0.21785">
        <ele>876.5</ele>
        <time>2016-07-23T09:53:18Z</time>
      </trkpt>
      <trkpt lat="42.52235" lon="0.21787">
        <ele>875.1</ele>
        <time>2016-07-23T09:53:20Z</time>
      </trkpt>
      <trkpt lat="42.52238" lon="0.21788">
        <ele>874.3</ele>
        <time>2016-07-23T09:53:21Z</time>
      </trkpt>
      <trkpt lat="42.52241" lon="0.2179">
        <ele>873.4</ele>
        <time>2016-07-23T09:53:22Z</time>
      </trkpt>
      <trkpt lat="42.52245" lon="0.21791">
        <ele>872.3</ele>
        <time>2016-07-23T09:53:23Z</time>
      </trkpt>
      <trkpt lat="42.52249" lon="0.21793">
        <ele>871.2</ele>
        <time>2016-07-23T09:53:24Z</time>
      </trkpt>
      <trkpt lat="42.52252" lon="0.21795">
        <ele>870.1</ele>
        <time>2016-07-23T09:53:25Z</time>
      </trkpt>
      <trkpt lat="42.52257" lon="0.21798">
        <ele>868.6</ele>
        <time>2016-07-23T09:53:26Z</time>
      </trkpt>
      <trkpt lat="42.5226" lon="0.21802">
        <ele>867.2</ele>
        <time>2016-07-23T09:53:27Z</time>
      </trkpt>
      <trkpt lat="42.52263" lon="0.21805">
        <ele>865.8</ele>
        <time>2016-07-23T09:53:28Z</time>
      </trkpt>
      <trkpt lat="42.52266" lon="0.21808">
        <ele>864.5</ele>
        <time>2016-07-23T09:53:29Z</time>
      </trkpt>
      <trkpt lat="42.5227" lon="0.2181">
        <ele>863.2</ele>
        <time>2016-07-23T09:53:30Z</time>
      </trkpt>
      <trkpt lat="42.52273" lon="0.21812">
        <ele>862.3</ele>
        <time>2016-07-23T09:53:31Z</time>
      </trkpt>
      <trkpt lat="42.52278" lon="0.21813">
        <ele>861.5</ele>
        <time>2016-07-23T09:53:33Z</time>
      </trkpt>
      <trkpt lat="42.52281" lon="0.2181">
        <ele>861.8</ele>
        <time>2016-07-23T09:53:35Z</time>
      </trkpt>
      <trkpt lat="42.52285" lon="0.21812">
        <ele>860.9</ele>
        <time>2016-07-23T09:53:38Z</time>
      </trkpt>
      <trkpt lat="42.52286" lon="0.21816">
        <ele>859.6</ele>
        <time>2016-07-23T09:53:40Z</time>
      </trkpt>
      <trkpt lat="42.52286" lon="0.21819">
        <ele>858.4</ele>
        <time>2016-07-23T09:53:43Z</time>
      </trkpt>
      <trkpt lat="42.52291" lon="0.21823">
        <ele>856.6</ele>
        <time>2016-07-23T09:53:45Z</time>
      </trkpt>
      <trkpt lat="42.52294" lon="0.21825">
        <ele>855.7</ele>
        <time>2016-07-23T09:53:46Z</time>
      </trkpt>
      <trkpt lat="42.52298" lon="0.21826">
        <ele>855</ele>
        <time>2016-07-23T09:53:47Z</time>
      </trkpt>
      <trkpt lat="42.52302" lon="0.21827">
        <ele>854.2</ele>
        <time>2016-07-23T09:53:48Z</time>
      </trkpt>
      <trkpt lat="42.52304" lon="0.21828">
        <ele>853.5</ele>
        <time>2016-07-23T09:53:49Z</time>
      </trkpt>
      <trkpt lat="42.52309" lon="0.21832">
        <ele>851.8</ele>
        <time>2016-07-23T09:53:51Z</time>
      </trkpt>
      <trkpt lat="42.52311" lon="0.21836">
        <ele>850.1</ele>
        <time>2016-07-23T09:53:53Z</time>
      </trkpt>
      <trkpt lat="42.5231" lon="0.2184">
        <ele>849.4</ele>
        <time>2016-07-23T09:53:56Z</time>
      </trkpt>
      <trkpt lat="42.52306" lon="0.2184">
        <ele>849.6</ele>
        <time>2016-07-23T09:53:59Z</time>
      </trkpt>
      <trkpt lat="42.52303" lon="0.21842">
        <ele>849.4</ele>
        <time>2016-07-23T09:54:01Z</time>
      </trkpt>
      <trkpt lat="42.52298" lon="0.21846">
        <ele>849</ele>
        <time>2016-07-23T09:54:03Z</time>
      </trkpt>
      <trkpt lat="42.52295" lon="0.21847">
        <ele>849</ele>
        <time>2016-07-23T09:54:04Z</time>
      </trkpt>
      <trkpt lat="42.52293" lon="0.21848">
        <ele>848.9</ele>
        <time>2016-07-23T09:54:05Z</time>
      </trkpt>
      <trkpt lat="42.5229" lon="0.2185">
        <ele>848.7</ele>
        <time>2016-07-23T09:54:06Z</time>
      </trkpt>
      <trkpt lat="42.52286" lon="0.21853">
        <ele>848.2</ele>
        <time>2016-07-23T09:54:07Z</time>
      </trkpt>
      <trkpt lat="42.52279" lon="0.21859">
        <ele>847.3</ele>
        <time>2016-07-23T09:54:09Z</time>
      </trkpt>
      <trkpt lat="42.52276" lon="0.21862">
        <ele>846.9</ele>
        <time>2016-07-23T09:54:10Z</time>
      </trkpt>
      <trkpt lat="42.52273" lon="0.21864">
        <ele>846.6</ele>
        <time>2016-07-23T09:54:11Z</time>
      </trkpt>
      <trkpt lat="42.5227" lon="0.21865">
        <ele>846.5</ele>
        <time>2016-07-23T09:54:12Z</time>
      </trkpt>
      <trkpt lat="42.52267" lon="0.21866">
        <ele>846.7</ele>
        <time>2016-07-23T09:54:13Z</time>
      </trkpt>
      <trkpt lat="42.52264" lon="0.21866">
        <ele>847</ele>
        <time>2016-07-23T09:54:14Z</time>
      </trkpt>
      <trkpt lat="42.52261" lon="0.21867">
        <ele>847</ele>
        <time>2016-07-23T09:54:15Z</time>
      </trkpt>
      <trkpt lat="42.52258" lon="0.2187">
        <ele>846.6</ele>
        <time>2016-07-23T09:54:16Z</time>
      </trkpt>
      <trkpt lat="42.52255" lon="0.21874">
        <ele>845.7</ele>
        <time>2016-07-23T09:54:17Z</time>
      </trkpt>
      <trkpt lat="42.52253" lon="0.21878">
        <ele>845.5</ele>
        <time>2016-07-23T09:54:18Z</time>
      </trkpt>
      <trkpt lat="42.52256" lon="0.21879">
        <ele>845.1</ele>
        <time>2016-07-23T09:54:22Z</time>
      </trkpt>
      <trkpt lat="42.5226" lon="0.21879">
        <ele>844.6</ele>
        <time>2016-07-23T09:54:25Z</time>
      </trkpt>
      <trkpt lat="42.52263" lon="0.21882">
        <ele>844.1</ele>
        <time>2016-07-23T09:54:27Z</time>
      </trkpt>
      <trkpt lat="42.52264" lon="0.21885">
        <ele>843.7</ele>
        <time>2016-07-23T09:54:29Z</time>
      </trkpt>
      <trkpt lat="42.52267" lon="0.21886">
        <ele>843.2</ele>
        <time>2016-07-23T09:54:33Z</time>
      </trkpt>
      <trkpt lat="42.52273" lon="0.21882">
        <ele>842.7</ele>
        <time>2016-07-23T09:54:35Z</time>
      </trkpt>
      <trkpt lat="42.52276" lon="0.2188">
        <ele>842.5</ele>
        <time>2016-07-23T09:54:37Z</time>
      </trkpt>
      <trkpt lat="42.5228" lon="0.21882">
        <ele>841.9</ele>
        <time>2016-07-23T09:54:40Z</time>
      </trkpt>
      <trkpt lat="42.52279" lon="0.21886">
        <ele>841.7</ele>
        <time>2016-07-23T09:54:43Z</time>
      </trkpt>
      <trkpt lat="42.52276" lon="0.21888">
        <ele>841.8</ele>
        <time>2016-07-23T09:54:46Z</time>
      </trkpt>
      <trkpt lat="42.52273" lon="0.21891">
        <ele>842.1</ele>
        <time>2016-07-23T09:54:48Z</time>
      </trkpt>
      <trkpt lat="42.52267" lon="0.21895">
        <ele>842.6</ele>
        <time>2016-07-23T09:54:50Z</time>
      </trkpt>
      <trkpt lat="42.52263" lon="0.219">
        <ele>843</ele>
        <time>2016-07-23T09:54:51Z</time>
      </trkpt>
      <trkpt lat="42.52257" lon="0.21906">
        <ele>843.6</ele>
        <time>2016-07-23T09:54:52Z</time>
      </trkpt>
      <trkpt lat="42.52235" lon="0.21929">
        <ele>846.6</ele>
        <time>2016-07-23T09:54:54Z</time>
      </trkpt>
      <trkpt lat="42.52232" lon="0.21932">
        <ele>847</ele>
        <time>2016-07-23T09:54:55Z</time>
      </trkpt>
      <trkpt lat="42.52229" lon="0.21937">
        <ele>847.5</ele>
        <time>2016-07-23T09:54:56Z</time>
      </trkpt>
      <trkpt lat="42.52226" lon="0.21942">
        <ele>848.2</ele>
        <time>2016-07-23T09:54:58Z</time>
      </trkpt>
      <trkpt lat="42.52246" lon="0.21912">
        <ele>845.1</ele>
        <time>2016-07-23T09:55:00Z</time>
      </trkpt>
      <trkpt lat="42.52249" lon="0.21909">
        <ele>844.8</ele>
        <time>2016-07-23T09:55:01Z</time>
      </trkpt>
      <trkpt lat="42.52251" lon="0.21905">
        <ele>844.6</ele>
        <time>2016-07-23T09:55:02Z</time>
      </trkpt>
      <trkpt lat="42.52277" lon="0.21871">
        <ele>844.1</ele>
        <time>2016-07-23T09:55:04Z</time>
      </trkpt>
      <trkpt lat="42.52279" lon="0.21868">
        <ele>844.6</ele>
        <time>2016-07-23T09:55:05Z</time>
      </trkpt>
      <trkpt lat="42.52282" lon="0.21866">
        <ele>845</ele>
        <time>2016-07-23T09:55:07Z</time>
      </trkpt>
      <trkpt lat="42.5228" lon="0.21869">
        <ele>844.2</ele>
        <time>2016-07-23T09:55:10Z</time>
      </trkpt>
      <trkpt lat="42.52278" lon="0.21873">
        <ele>843.4</ele>
        <time>2016-07-23T09:55:11Z</time>
      </trkpt>
      <trkpt lat="42.52275" lon="0.21877">
        <ele>842.8</ele>
        <time>2016-07-23T09:55:12Z</time>
      </trkpt>
      <trkpt lat="42.52273" lon="0.21882">
        <ele>842.8</ele>
        <time>2016-07-23T09:55:13Z</time>
      </trkpt>
      <trkpt lat="42.52271" lon="0.21886">
        <ele>842.8</ele>
        <time>2016-07-23T09:55:14Z</time>
      </trkpt>
      <trkpt lat="42.52274" lon="0.21886">
        <ele>842.4</ele>
        <time>2016-07-23T09:55:19Z</time>
      </trkpt>
      <trkpt lat="42.52277" lon="0.21882">
        <ele>842.3</ele>
        <time>2016-07-23T09:55:21Z</time>
      </trkpt>
      <trkpt lat="42.52279" lon="0.21879">
        <ele>842.2</ele>
        <time>2016-07-23T09:55:23Z</time>
      </trkpt>
      <trkpt lat="42.52282" lon="0.21877">
        <ele>842</ele>
        <time>2016-07-23T09:55:26Z</time>
      </trkpt>
      <trkpt lat="42.52285" lon="0.21877">
        <ele>841.6</ele>
        <time>2016-07-23T09:55:30Z</time>
      </trkpt>
      <trkpt lat="42.52286" lon="0.21882">
        <ele>841.1</ele>
        <time>2016-07-23T09:55:37Z</time>
      </trkpt>
      <trkpt lat="42.5229" lon="0.21882">
        <ele>840.6</ele>
        <time>2016-07-23T09:55:46Z</time>
      </trkpt>
      <trkpt lat="42.52288" lon="0.21886">
        <ele>840.4</ele>
        <time>2016-07-23T09:55:50Z</time>
      </trkpt>
      <trkpt lat="42.52286" lon="0.2189">
        <ele>840.3</ele>
        <time>2016-07-23T09:55:52Z</time>
      </trkpt>
      <trkpt lat="42.5229" lon="0.2189">
        <ele>839.9</ele>
        <time>2016-07-23T09:55:57Z</time>
      </trkpt>
      <trkpt lat="42.52291" lon="0.21893">
        <ele>839.4</ele>
        <time>2016-07-23T09:56:02Z</time>
      </trkpt>
      <trkpt lat="42.52277" lon="0.219">
        <ele>840.8</ele>
        <time>2016-07-23T09:58:37Z</time>
      </trkpt>
      <trkpt lat="42.52277" lon="0.21896">
        <ele>841.2</ele>
        <time>2016-07-23T09:58:42Z</time>
      </trkpt>
      <trkpt lat="42.52283" lon="0.21895">
        <ele>840.3</ele>
        <time>2016-07-23T09:58:52Z</time>
      </trkpt>
      <trkpt lat="42.52281" lon="0.21897">
        <ele>840.5</ele>
        <time>2016-07-23T10:04:23Z</time>
      </trkpt>
      <trkpt lat="42.5228" lon="0.219">
        <ele>840.3</ele>
        <time>2016-07-23T10:04:31Z</time>
      </trkpt>
      <trkpt lat="42.52288" lon="0.21908">
        <ele>838.5</ele>
        <time>2016-07-23T10:06:10Z</time>
      </trkpt>
      <trkpt lat="42.5229" lon="0.2191">
        <ele>837.9</ele>
        <time>2016-07-23T10:06:14Z</time>
      </trkpt>
      <trkpt lat="42.52288" lon="0.21907">
        <ele>838.6</ele>
        <time>2016-07-23T10:06:18Z</time>
      </trkpt>
      <trkpt lat="42.52286" lon="0.21904">
        <ele>839.2</ele>
        <time>2016-07-23T10:06:23Z</time>
      </trkpt>
      <trkpt lat="42.52287" lon="0.21908">
        <ele>838.7</ele>
        <time>2016-07-23T10:06:29Z</time>
      </trkpt>
      <trkpt lat="42.52287" lon="0.21903">
        <ele>839.1</ele>
        <time>2016-07-23T10:06:36Z</time>
      </trkpt>
      <trkpt lat="42.52285" lon="0.219">
        <ele>839.6</ele>
        <time>2016-07-23T10:06:39Z</time>
      </trkpt>
      <trkpt lat="42.52285" lon="0.21904">
        <ele>839.2</ele>
        <time>2016-07-23T10:06:46Z</time>
      </trkpt>
      <trkpt lat="42.52287" lon="0.21907">
        <ele>838.7</ele>
        <time>2016-07-23T10:06:48Z</time>
      </trkpt>
      <trkpt lat="42.5229" lon="0.21907">
        <ele>838.1</ele>
        <time>2016-07-23T10:06:52Z</time>
      </trkpt>
      <trkpt lat="42.52293" lon="0.21905">
        <ele>837.9</ele>
        <time>2016-07-23T10:06:57Z</time>
      </trkpt>
      <trkpt lat="42.52295" lon="0.21902">
        <ele>837.9</ele>
        <time>2016-07-23T10:07:11Z</time>
      </trkpt>
      <trkpt lat="42.52297" lon="0.21905">
        <ele>837.3</ele>
        <time>2016-07-23T10:07:14Z</time>
      </trkpt>
      <trkpt lat="42.52297" lon="0.21901">
        <ele>837.7</ele>
        <time>2016-07-23T10:07:22Z</time>
      </trkpt>
      <trkpt lat="42.52295" lon="0.21898">
        <ele>838.3</ele>
        <time>2016-07-23T10:07:25Z</time>
      </trkpt>
      <trkpt lat="42.52297" lon="0.21901">
        <ele>837.8</ele>
        <time>2016-07-23T10:07:38Z</time>
      </trkpt>
      <trkpt lat="42.52299" lon="0.21905">
        <ele>837</ele>
        <time>2016-07-23T10:07:45Z</time>
      </trkpt>
      <trkpt lat="42.52312" lon="0.21909">
        <ele>834.5</ele>
        <time>2016-07-23T10:08:44Z</time>
      </trkpt>
      <trkpt lat="42.52315" lon="0.2191">
        <ele>833.9</ele>
        <time>2016-07-23T10:08:46Z</time>
      </trkpt>
      <trkpt lat="42.52318" lon="0.21914">
        <ele>833.1</ele>
        <time>2016-07-23T10:08:49Z</time>
      </trkpt>
      <trkpt lat="42.5232" lon="0.21917">
        <ele>832.3</ele>
        <time>2016-07-23T10:08:52Z</time>
      </trkpt>
      <trkpt lat="42.52323" lon="0.21919">
        <ele>831.7</ele>
        <time>2016-07-23T10:08:55Z</time>
      </trkpt>
      <trkpt lat="42.52327" lon="0.21921">
        <ele>830.8</ele>
        <time>2016-07-23T10:08:58Z</time>
      </trkpt>
      <trkpt lat="42.52332" lon="0.21922">
        <ele>829.9</ele>
        <time>2016-07-23T10:09:00Z</time>
      </trkpt>
      <trkpt lat="42.52334" lon="0.21923">
        <ele>829.3</ele>
        <time>2016-07-23T10:09:01Z</time>
      </trkpt>
      <trkpt lat="42.52338" lon="0.21925">
        <ele>828.4</ele>
        <time>2016-07-23T10:09:03Z</time>
      </trkpt>
      <trkpt lat="42.52342" lon="0.21926">
        <ele>827.6</ele>
        <time>2016-07-23T10:09:05Z</time>
      </trkpt>
      <trkpt lat="42.52346" lon="0.21928">
        <ele>826.7</ele>
        <time>2016-07-23T10:09:07Z</time>
      </trkpt>
      <trkpt lat="42.52348" lon="0.21929">
        <ele>826.1</ele>
        <time>2016-07-23T10:09:09Z</time>
      </trkpt>
      <trkpt lat="42.52351" lon="0.21931">
        <ele>825.4</ele>
        <time>2016-07-23T10:09:12Z</time>
      </trkpt>
      <trkpt lat="42.52356" lon="0.21932">
        <ele>824.5</ele>
        <time>2016-07-23T10:09:14Z</time>
      </trkpt>
      <trkpt lat="42.5236" lon="0.21934">
        <ele>823.4</ele>
        <time>2016-07-23T10:09:16Z</time>
      </trkpt>
      <trkpt lat="42.52365" lon="0.21936">
        <ele>822.2</ele>
        <time>2016-07-23T10:09:18Z</time>
      </trkpt>
      <trkpt lat="42.52369" lon="0.21939">
        <ele>821</ele>
        <time>2016-07-23T10:09:20Z</time>
      </trkpt>
      <trkpt lat="42.52374" lon="0.2194">
        <ele>820</ele>
        <time>2016-07-23T10:09:22Z</time>
      </trkpt>
      <trkpt lat="42.52377" lon="0.2194">
        <ele>819.4</ele>
        <time>2016-07-23T10:09:23Z</time>
      </trkpt>
      <trkpt lat="42.52379" lon="0.2194">
        <ele>818.5</ele>
        <time>2016-07-23T10:09:24Z</time>
      </trkpt>
      <trkpt lat="42.52384" lon="0.21939">
        <ele>817.1</ele>
        <time>2016-07-23T10:09:26Z</time>
      </trkpt>
      <trkpt lat="42.52388" lon="0.21938">
        <ele>816</ele>
        <time>2016-07-23T10:09:28Z</time>
      </trkpt>
      <trkpt lat="42.52391" lon="0.21939">
        <ele>815.1</ele>
        <time>2016-07-23T10:09:36Z</time>
      </trkpt>
      <trkpt lat="42.52393" lon="0.21936">
        <ele>814.8</ele>
        <time>2016-07-23T10:09:49Z</time>
      </trkpt>
      <trkpt lat="42.52396" lon="0.21934">
        <ele>814.2</ele>
        <time>2016-07-23T10:09:54Z</time>
      </trkpt>
      <trkpt lat="42.524" lon="0.21932">
        <ele>813.4</ele>
        <time>2016-07-23T10:09:57Z</time>
      </trkpt>
      <trkpt lat="42.52406" lon="0.21928">
        <ele>812.2</ele>
        <time>2016-07-23T10:10:00Z</time>
      </trkpt>
      <trkpt lat="42.52408" lon="0.21925">
        <ele>811.9</ele>
        <time>2016-07-23T10:10:02Z</time>
      </trkpt>
      <trkpt lat="42.52411" lon="0.21922">
        <ele>811.4</ele>
        <time>2016-07-23T10:10:04Z</time>
      </trkpt>
      <trkpt lat="42.52416" lon="0.2192">
        <ele>810</ele>
        <time>2016-07-23T10:10:06Z</time>
      </trkpt>
      <trkpt lat="42.52419" lon="0.2192">
        <ele>809.2</ele>
        <time>2016-07-23T10:10:07Z</time>
      </trkpt>
      <trkpt lat="42.52422" lon="0.21919">
        <ele>808.4</ele>
        <time>2016-07-23T10:10:08Z</time>
      </trkpt>
      <trkpt lat="42.52425" lon="0.21918">
        <ele>807.6</ele>
        <time>2016-07-23T10:10:09Z</time>
      </trkpt>
      <trkpt lat="42.52432" lon="0.21916">
        <ele>805.9</ele>
        <time>2016-07-23T10:14:19Z</time>
      </trkpt>
      <trkpt lat="42.52429" lon="0.21917">
        <ele>806.7</ele>
        <time>2016-07-23T10:14:22Z</time>
      </trkpt>
      <trkpt lat="42.52426" lon="0.21916">
        <ele>807.6</ele>
        <time>2016-07-23T10:14:25Z</time>
      </trkpt>
      <trkpt lat="42.52423" lon="0.21917">
        <ele>808.5</ele>
        <time>2016-07-23T10:14:29Z</time>
      </trkpt>
      <trkpt lat="42.5242" lon="0.21918">
        <ele>809.2</ele>
        <time>2016-07-23T10:14:33Z</time>
      </trkpt>
      <trkpt lat="42.52417" lon="0.2192">
        <ele>809.9</ele>
        <time>2016-07-23T10:14:37Z</time>
      </trkpt>
      <trkpt lat="42.52414" lon="0.21921">
        <ele>810.6</ele>
        <time>2016-07-23T10:14:40Z</time>
      </trkpt>
      <trkpt lat="42.52411" lon="0.21922">
        <ele>811.6</ele>
        <time>2016-07-23T10:14:43Z</time>
      </trkpt>
      <trkpt lat="42.52408" lon="0.21922">
        <ele>812.4</ele>
        <time>2016-07-23T10:14:46Z</time>
      </trkpt>
      <trkpt lat="42.52404" lon="0.21923">
        <ele>813.4</ele>
        <time>2016-07-23T10:14:50Z</time>
      </trkpt>
      <trkpt lat="42.52401" lon="0.21923">
        <ele>814.4</ele>
        <time>2016-07-23T10:14:53Z</time>
      </trkpt>
      <trkpt lat="42.52399" lon="0.21927">
        <ele>814.4</ele>
        <time>2016-07-23T10:14:59Z</time>
      </trkpt>
      <trkpt lat="42.52397" lon="0.2193">
        <ele>814.5</ele>
        <time>2016-07-23T10:15:04Z</time>
      </trkpt>
      <trkpt lat="42.52394" lon="0.21932">
        <ele>815.1</ele>
        <time>2016-07-23T10:15:09Z</time>
      </trkpt>
      <trkpt lat="42.52396" lon="0.21935">
        <ele>814.1</ele>
        <time>2016-07-23T10:15:13Z</time>
      </trkpt>
      <trkpt lat="42.524" lon="0.21935">
        <ele>813</ele>
        <time>2016-07-23T10:15:16Z</time>
      </trkpt>
      <trkpt lat="42.52402" lon="0.21936">
        <ele>812</ele>
        <time>2016-07-23T10:15:20Z</time>
      </trkpt>
      <trkpt lat="42.52405" lon="0.21938">
        <ele>810.9</ele>
        <time>2016-07-23T10:15:25Z</time>
      </trkpt>
      <trkpt lat="42.52407" lon="0.2194">
        <ele>809.8</ele>
        <time>2016-07-23T10:15:27Z</time>
      </trkpt>
      <trkpt lat="42.5241" lon="0.21941">
        <ele>808.8</ele>
        <time>2016-07-23T10:15:34Z</time>
      </trkpt>
      <trkpt lat="42.52411" lon="0.21945">
        <ele>807.8</ele>
        <time>2016-07-23T10:15:41Z</time>
      </trkpt>
      <trkpt lat="42.52414" lon="0.21946">
        <ele>806.6</ele>
        <time>2016-07-23T10:15:45Z</time>
      </trkpt>
      <trkpt lat="42.52415" lon="0.2195">
        <ele>805.7</ele>
        <time>2016-07-23T10:15:50Z</time>
      </trkpt>
      <trkpt lat="42.52413" lon="0.21954">
        <ele>805.9</ele>
        <time>2016-07-23T10:15:54Z</time>
      </trkpt>
      <trkpt lat="42.5241" lon="0.21956">
        <ele>806.4</ele>
        <time>2016-07-23T10:15:59Z</time>
      </trkpt>
      <trkpt lat="42.52408" lon="0.21957">
        <ele>806.9</ele>
        <time>2016-07-23T10:16:05Z</time>
      </trkpt>
      <trkpt lat="42.52408" lon="0.21953">
        <ele>807.6</ele>
        <time>2016-07-23T10:16:14Z</time>
      </trkpt>
      <trkpt lat="42.52411" lon="0.21951">
        <ele>807</ele>
        <time>2016-07-23T10:16:17Z</time>
      </trkpt>
      <trkpt lat="42.52413" lon="0.21948">
        <ele>806.8</ele>
        <time>2016-07-23T10:16:21Z</time>
      </trkpt>
      <trkpt lat="42.52412" lon="0.21944">
        <ele>807.6</ele>
        <time>2016-07-23T10:16:30Z</time>
      </trkpt>
      <trkpt lat="42.52409" lon="0.2194">
        <ele>809.1</ele>
        <time>2016-07-23T10:16:34Z</time>
      </trkpt>
      <trkpt lat="42.52406" lon="0.21938">
        <ele>810.4</ele>
        <time>2016-07-23T10:16:37Z</time>
      </trkpt>
      <trkpt lat="42.52404" lon="0.21936">
        <ele>811.5</ele>
        <time>2016-07-23T10:16:40Z</time>
      </trkpt>
      <trkpt lat="42.52401" lon="0.21937">
        <ele>812.4</ele>
        <time>2016-07-23T10:16:43Z</time>
      </trkpt>
      <trkpt lat="42.52402" lon="0.21933">
        <ele>812.7</ele>
        <time>2016-07-23T10:16:54Z</time>
      </trkpt>
      <trkpt lat="42.52404" lon="0.21931">
        <ele>812.3</ele>
        <time>2016-07-23T10:16:57Z</time>
      </trkpt>
      <trkpt lat="42.52406" lon="0.21928">
        <ele>812.2</ele>
        <time>2016-07-23T10:17:02Z</time>
      </trkpt>
      <trkpt lat="42.52409" lon="0.21926">
        <ele>811.6</ele>
        <time>2016-07-23T10:17:09Z</time>
      </trkpt>
      <trkpt lat="42.52411" lon="0.21923">
        <ele>811.2</ele>
        <time>2016-07-23T10:17:13Z</time>
      </trkpt>
      <trkpt lat="42.52414" lon="0.2192">
        <ele>810.8</ele>
        <time>2016-07-23T10:17:15Z</time>
      </trkpt>
      <trkpt lat="42.52417" lon="0.21919">
        <ele>810.1</ele>
        <time>2016-07-23T10:17:18Z</time>
      </trkpt>
      <trkpt lat="42.5242" lon="0.21918">
        <ele>809.2</ele>
        <time>2016-07-23T10:17:21Z</time>
      </trkpt>
      <trkpt lat="42.52424" lon="0.21916">
        <ele>808.4</ele>
        <time>2016-07-23T10:17:25Z</time>
      </trkpt>
      <trkpt lat="42.52426" lon="0.21915">
        <ele>807.8</ele>
        <time>2016-07-23T10:17:31Z</time>
      </trkpt>
      <trkpt lat="42.52429" lon="0.21916">
        <ele>806.7</ele>
        <time>2016-07-23T10:17:39Z</time>
      </trkpt>
      <trkpt lat="42.52428" lon="0.2192">
        <ele>806.5</ele>
        <time>2016-07-23T10:17:48Z</time>
      </trkpt>
      <trkpt lat="42.52429" lon="0.21924">
        <ele>805.6</ele>
        <time>2016-07-23T10:17:51Z</time>
      </trkpt>
      <trkpt lat="42.5243" lon="0.21927">
        <ele>804.8</ele>
        <time>2016-07-23T10:17:54Z</time>
      </trkpt>
      <trkpt lat="42.52431" lon="0.21931">
        <ele>803.8</ele>
        <time>2016-07-23T10:18:01Z</time>
      </trkpt>
      <trkpt lat="42.52431" lon="0.21935">
        <ele>803.2</ele>
        <time>2016-07-23T10:18:05Z</time>
      </trkpt>
      <trkpt lat="42.52432" lon="0.21939">
        <ele>802.3</ele>
        <time>2016-07-23T10:18:12Z</time>
      </trkpt>
      <trkpt lat="42.52433" lon="0.21943">
        <ele>801.3</ele>
        <time>2016-07-23T10:18:17Z</time>
      </trkpt>
      <trkpt lat="42.52433" lon="0.21947">
        <ele>800.6</ele>
        <time>2016-07-23T10:18:21Z</time>
      </trkpt>
      <trkpt lat="42.52433" lon="0.21951">
        <ele>800.2</ele>
        <time>2016-07-23T10:18:25Z</time>
      </trkpt>
      <trkpt lat="42.5243" lon="0.21953">
        <ele>800.6</ele>
        <time>2016-07-23T10:18:28Z</time>
      </trkpt>
      <trkpt lat="42.52428" lon="0.21957">
        <ele>800.7</ele>
        <time>2016-07-23T10:18:33Z</time>
      </trkpt>
      <trkpt lat="42.52428" lon="0.21961">
        <ele>801</ele>
        <time>2016-07-23T10:18:39Z</time>
      </trkpt>
      <trkpt lat="42.52427" lon="0.21965">
        <ele>801.9</ele>
        <time>2016-07-23T10:18:43Z</time>
      </trkpt>
      <trkpt lat="42.52428" lon="0.21969">
        <ele>802.2</ele>
        <time>2016-07-23T10:18:48Z</time>
      </trkpt>
      <trkpt lat="42.52429" lon="0.21972">
        <ele>802.3</ele>
        <time>2016-07-23T10:18:53Z</time>
      </trkpt>
      <trkpt lat="42.5243" lon="0.21976">
        <ele>802.5</ele>
        <time>2016-07-23T10:18:57Z</time>
      </trkpt>
      <trkpt lat="42.5243" lon="0.21972">
        <ele>801.9</ele>
        <time>2016-07-23T10:19:41Z</time>
      </trkpt>
      <trkpt lat="42.52431" lon="0.21969">
        <ele>801</ele>
        <time>2016-07-23T10:19:45Z</time>
      </trkpt>
      <trkpt lat="42.52433" lon="0.21965">
        <ele>799.8</ele>
        <time>2016-07-23T10:19:50Z</time>
      </trkpt>
      <trkpt lat="42.52433" lon="0.21962">
        <ele>799.3</ele>
        <time>2016-07-23T10:20:00Z</time>
      </trkpt>
      <trkpt lat="42.52434" lon="0.21957">
        <ele>798.8</ele>
        <time>2016-07-23T10:20:05Z</time>
      </trkpt>
      <trkpt lat="42.52437" lon="0.21957">
        <ele>798</ele>
        <time>2016-07-23T10:20:16Z</time>
      </trkpt>
      <trkpt lat="42.5244" lon="0.21955">
        <ele>797.4</ele>
        <time>2016-07-23T10:20:22Z</time>
      </trkpt>
      <trkpt lat="42.52441" lon="0.21951">
        <ele>797.5</ele>
        <time>2016-07-23T10:20:28Z</time>
      </trkpt>
      <trkpt lat="42.5244" lon="0.21948">
        <ele>798.5</ele>
        <time>2016-07-23T10:20:34Z</time>
      </trkpt>
      <trkpt lat="42.52439" lon="0.21944">
        <ele>799.3</ele>
        <time>2016-07-23T10:20:39Z</time>
      </trkpt>
      <trkpt lat="42.52437" lon="0.21941">
        <ele>800.4</ele>
        <time>2016-07-23T10:20:44Z</time>
      </trkpt>
      <trkpt lat="42.52437" lon="0.21937">
        <ele>801.2</ele>
        <time>2016-07-23T10:20:55Z</time>
      </trkpt>
      <trkpt lat="42.52435" lon="0.21934">
        <ele>802.1</ele>
        <time>2016-07-23T10:20:59Z</time>
      </trkpt>
      <trkpt lat="42.52436" lon="0.2193">
        <ele>802.4</ele>
        <time>2016-07-23T10:21:07Z</time>
      </trkpt>
      <trkpt lat="42.52436" lon="0.21926">
        <ele>803.1</ele>
        <time>2016-07-23T10:21:12Z</time>
      </trkpt>
      <trkpt lat="42.52436" lon="0.21922">
        <ele>803.8</ele>
        <time>2016-07-23T10:21:18Z</time>
      </trkpt>
      <trkpt lat="42.52434" lon="0.21919">
        <ele>804.8</ele>
        <time>2016-07-23T10:21:23Z</time>
      </trkpt>
      <trkpt lat="42.52433" lon="0.21915">
        <ele>805.8</ele>
        <time>2016-07-23T10:21:29Z</time>
      </trkpt>
      <trkpt lat="42.5243" lon="0.21913">
        <ele>806.8</ele>
        <time>2016-07-23T10:21:40Z</time>
      </trkpt>
      <trkpt lat="42.52427" lon="0.21914">
        <ele>807.6</ele>
        <time>2016-07-23T10:23:23Z</time>
      </trkpt>
      <trkpt lat="42.52425" lon="0.21916">
        <ele>808</ele>
        <time>2016-07-23T10:23:27Z</time>
      </trkpt>
      <trkpt lat="42.5242" lon="0.21918">
        <ele>809.3</ele>
        <time>2016-07-23T10:23:47Z</time>
      </trkpt>
      <trkpt lat="42.52417" lon="0.2192">
        <ele>809.9</ele>
        <time>2016-07-23T10:23:51Z</time>
      </trkpt>
      <trkpt lat="42.52415" lon="0.21923">
        <ele>810.1</ele>
        <time>2016-07-23T10:23:58Z</time>
      </trkpt>
      <trkpt lat="42.52412" lon="0.21924">
        <ele>810.8</ele>
        <time>2016-07-23T10:24:02Z</time>
      </trkpt>
      <trkpt lat="42.52409" lon="0.21925">
        <ele>811.5</ele>
        <time>2016-07-23T10:24:10Z</time>
      </trkpt>
      <trkpt lat="42.52407" lon="0.21926">
        <ele>812.2</ele>
        <time>2016-07-23T10:24:16Z</time>
      </trkpt>
      <trkpt lat="42.52405" lon="0.21929">
        <ele>812.3</ele>
        <time>2016-07-23T10:24:22Z</time>
      </trkpt>
      <trkpt lat="42.52402" lon="0.21932">
        <ele>812.6</ele>
        <time>2016-07-23T10:24:26Z</time>
      </trkpt>
      <trkpt lat="42.524" lon="0.21934">
        <ele>812.9</ele>
        <time>2016-07-23T10:24:40Z</time>
      </trkpt>
      <trkpt lat="42.52397" lon="0.21936">
        <ele>813.5</ele>
        <time>2016-07-23T10:24:47Z</time>
      </trkpt>
      <trkpt lat="42.52394" lon="0.21938">
        <ele>814.2</ele>
        <time>2016-07-23T10:24:52Z</time>
      </trkpt>
      <trkpt lat="42.52393" lon="0.21941">
        <ele>814.2</ele>
        <time>2016-07-23T10:25:02Z</time>
      </trkpt>
      <trkpt lat="42.5239" lon="0.2194">
        <ele>815.1</ele>
        <time>2016-07-23T10:25:07Z</time>
      </trkpt>
      <trkpt lat="42.52387" lon="0.2194">
        <ele>816.1</ele>
        <time>2016-07-23T10:25:10Z</time>
      </trkpt>
      <trkpt lat="42.52385" lon="0.2194">
        <ele>816.9</ele>
        <time>2016-07-23T10:25:15Z</time>
      </trkpt>
      <trkpt lat="42.52382" lon="0.2194">
        <ele>817.8</ele>
        <time>2016-07-23T10:25:19Z</time>
      </trkpt>
      <trkpt lat="42.52378" lon="0.21941">
        <ele>818.7</ele>
        <time>2016-07-23T10:25:24Z</time>
      </trkpt>
      <trkpt lat="42.52376" lon="0.21942">
        <ele>819.4</ele>
        <time>2016-07-23T10:25:27Z</time>
      </trkpt>
      <trkpt lat="42.52372" lon="0.21941">
        <ele>820.3</ele>
        <time>2016-07-23T10:25:32Z</time>
      </trkpt>
      <trkpt lat="42.52369" lon="0.21939">
        <ele>821.1</ele>
        <time>2016-07-23T10:25:36Z</time>
      </trkpt>
      <trkpt lat="42.52366" lon="0.21938">
        <ele>821.8</ele>
        <time>2016-07-23T10:25:40Z</time>
      </trkpt>
      <trkpt lat="42.52363" lon="0.21936">
        <ele>822.6</ele>
        <time>2016-07-23T10:25:45Z</time>
      </trkpt>
      <trkpt lat="42.5236" lon="0.21935">
        <ele>823.3</ele>
        <time>2016-07-23T10:25:49Z</time>
      </trkpt>
      <trkpt lat="42.52357" lon="0.21934">
        <ele>823.9</ele>
        <time>2016-07-23T10:25:52Z</time>
      </trkpt>
      <trkpt lat="42.52354" lon="0.21935">
        <ele>824.3</ele>
        <time>2016-07-23T10:25:56Z</time>
      </trkpt>
      <trkpt lat="42.52355" lon="0.21939">
        <ele>823.6</ele>
        <time>2016-07-23T10:26:00Z</time>
      </trkpt>
      <trkpt lat="42.52357" lon="0.21942">
        <ele>822.8</ele>
        <time>2016-07-23T10:26:04Z</time>
      </trkpt>
      <trkpt lat="42.52359" lon="0.21945">
        <ele>822</ele>
        <time>2016-07-23T10:26:08Z</time>
      </trkpt>
      <trkpt lat="42.52361" lon="0.21949">
        <ele>821.1</ele>
        <time>2016-07-23T10:26:12Z</time>
      </trkpt>
      <trkpt lat="42.52364" lon="0.21951">
        <ele>820.2</ele>
        <time>2016-07-23T10:26:15Z</time>
      </trkpt>
      <trkpt lat="42.52367" lon="0.21954">
        <ele>819.2</ele>
        <time>2016-07-23T10:26:19Z</time>
      </trkpt>
      <trkpt lat="42.52369" lon="0.21957">
        <ele>818.5</ele>
        <time>2016-07-23T10:26:22Z</time>
      </trkpt>
      <trkpt lat="42.52371" lon="0.21959">
        <ele>817.9</ele>
        <time>2016-07-23T10:26:26Z</time>
      </trkpt>
      <trkpt lat="42.52374" lon="0.21961">
        <ele>817.8</ele>
        <time>2016-07-23T10:26:30Z</time>
      </trkpt>
      <trkpt lat="42.52377" lon="0.21963">
        <ele>817.6</ele>
        <time>2016-07-23T10:26:35Z</time>
      </trkpt>
      <trkpt lat="42.52379" lon="0.21966">
        <ele>817.5</ele>
        <time>2016-07-23T10:26:40Z</time>
      </trkpt>
      <trkpt lat="42.52381" lon="0.21968">
        <ele>817.5</ele>
        <time>2016-07-23T10:26:44Z</time>
      </trkpt>
      <trkpt lat="42.52382" lon="0.21973">
        <ele>818.2</ele>
        <time>2016-07-23T10:26:50Z</time>
      </trkpt>
      <trkpt lat="42.52381" lon="0.21976">
        <ele>819.2</ele>
        <time>2016-07-23T10:26:54Z</time>
      </trkpt>
      <trkpt lat="42.5238" lon="0.2198">
        <ele>820.3</ele>
        <time>2016-07-23T10:26:58Z</time>
      </trkpt>
      <trkpt lat="42.5238" lon="0.21984">
        <ele>821.6</ele>
        <time>2016-07-23T10:27:02Z</time>
      </trkpt>
      <trkpt lat="42.52382" lon="0.21987">
        <ele>821.3</ele>
        <time>2016-07-23T10:27:07Z</time>
      </trkpt>
      <trkpt lat="42.52381" lon="0.2199">
        <ele>822.5</ele>
        <time>2016-07-23T10:27:13Z</time>
      </trkpt>
      <trkpt lat="42.52379" lon="0.21995">
        <ele>824.2</ele>
        <time>2016-07-23T10:27:16Z</time>
      </trkpt>
      <trkpt lat="42.52378" lon="0.21999">
        <ele>825.5</ele>
        <time>2016-07-23T10:27:18Z</time>
      </trkpt>
      <trkpt lat="42.52377" lon="0.22004">
        <ele>827</ele>
        <time>2016-07-23T10:27:21Z</time>
      </trkpt>
      <trkpt lat="42.52376" lon="0.22008">
        <ele>828.7</ele>
        <time>2016-07-23T10:27:24Z</time>
      </trkpt>
      <trkpt lat="42.52374" lon="0.22011">
        <ele>830</ele>
        <time>2016-07-23T10:27:26Z</time>
      </trkpt>
      <trkpt lat="42.52373" lon="0.22015">
        <ele>831.3</ele>
        <time>2016-07-23T10:27:28Z</time>
      </trkpt>
      <trkpt lat="42.52373" lon="0.2202">
        <ele>832.4</ele>
        <time>2016-07-23T10:27:31Z</time>
      </trkpt>
      <trkpt lat="42.52372" lon="0.22025">
        <ele>834</ele>
        <time>2016-07-23T10:27:34Z</time>
      </trkpt>
      <trkpt lat="42.52371" lon="0.22029">
        <ele>835.1</ele>
        <time>2016-07-23T10:27:36Z</time>
      </trkpt>
      <trkpt lat="42.5237" lon="0.22032">
        <ele>836.5</ele>
        <time>2016-07-23T10:27:38Z</time>
      </trkpt>
      <trkpt lat="42.52368" lon="0.22036">
        <ele>838.1</ele>
        <time>2016-07-23T10:27:41Z</time>
      </trkpt>
      <trkpt lat="42.52366" lon="0.22041">
        <ele>840.1</ele>
        <time>2016-07-23T10:27:44Z</time>
      </trkpt>
      <trkpt lat="42.52365" lon="0.22045">
        <ele>841.5</ele>
        <time>2016-07-23T10:27:46Z</time>
      </trkpt>
      <trkpt lat="42.52363" lon="0.2205">
        <ele>843.1</ele>
        <time>2016-07-23T10:27:49Z</time>
      </trkpt>
      <trkpt lat="42.52361" lon="0.22053">
        <ele>844.6</ele>
        <time>2016-07-23T10:27:51Z</time>
      </trkpt>
      <trkpt lat="42.52358" lon="0.22057">
        <ele>846.4</ele>
        <time>2016-07-23T10:27:54Z</time>
      </trkpt>
      <trkpt lat="42.52357" lon="0.2206">
        <ele>847.7</ele>
        <time>2016-07-23T10:27:56Z</time>
      </trkpt>
      <trkpt lat="42.52355" lon="0.22064">
        <ele>849.1</ele>
        <time>2016-07-23T10:27:58Z</time>
      </trkpt>
      <trkpt lat="42.52354" lon="0.22068">
        <ele>850.7</ele>
        <time>2016-07-23T10:28:00Z</time>
      </trkpt>
      <trkpt lat="42.52352" lon="0.22072">
        <ele>852.6</ele>
        <time>2016-07-23T10:28:03Z</time>
      </trkpt>
      <trkpt lat="42.52349" lon="0.22075">
        <ele>854.4</ele>
        <time>2016-07-23T10:28:06Z</time>
      </trkpt>
      <trkpt lat="42.52347" lon="0.22078">
        <ele>856.1</ele>
        <time>2016-07-23T10:28:08Z</time>
      </trkpt>
      <trkpt lat="42.52345" lon="0.22081">
        <ele>857.7</ele>
        <time>2016-07-23T10:28:10Z</time>
      </trkpt>
      <trkpt lat="42.52344" lon="0.22086">
        <ele>859.7</ele>
        <time>2016-07-23T10:28:13Z</time>
      </trkpt>
      <trkpt lat="42.52344" lon="0.22091">
        <ele>861</ele>
        <time>2016-07-23T10:28:16Z</time>
      </trkpt>
      <trkpt lat="42.52342" lon="0.22096">
        <ele>863.1</ele>
        <time>2016-07-23T10:28:19Z</time>
      </trkpt>
      <trkpt lat="42.52342" lon="0.22101">
        <ele>864.5</ele>
        <time>2016-07-23T10:28:22Z</time>
      </trkpt>
      <trkpt lat="42.52343" lon="0.22105">
        <ele>865.1</ele>
        <time>2016-07-23T10:28:24Z</time>
      </trkpt>
      <trkpt lat="42.52344" lon="0.22109">
        <ele>865.5</ele>
        <time>2016-07-23T10:28:26Z</time>
      </trkpt>
      <trkpt lat="42.52345" lon="0.22113">
        <ele>865.7</ele>
        <time>2016-07-23T10:28:28Z</time>
      </trkpt>
      <trkpt lat="42.52346" lon="0.22117">
        <ele>866.2</ele>
        <time>2016-07-23T10:28:30Z</time>
      </trkpt>
      <trkpt lat="42.52345" lon="0.22121">
        <ele>867.6</ele>
        <time>2016-07-23T10:28:32Z</time>
      </trkpt>
      <trkpt lat="42.52343" lon="0.22125">
        <ele>869.7</ele>
        <time>2016-07-23T10:28:34Z</time>
      </trkpt>
      <trkpt lat="42.52342" lon="0.22129">
        <ele>871.1</ele>
        <time>2016-07-23T10:28:36Z</time>
      </trkpt>
      <trkpt lat="42.52342" lon="0.22133">
        <ele>871.9</ele>
        <time>2016-07-23T10:28:38Z</time>
      </trkpt>
      <trkpt lat="42.52343" lon="0.22137">
        <ele>872.4</ele>
        <time>2016-07-23T10:28:40Z</time>
      </trkpt>
      <trkpt lat="42.52343" lon="0.22142">
        <ele>873</ele>
        <time>2016-07-23T10:28:43Z</time>
      </trkpt>
      <trkpt lat="42.52344" lon="0.22145">
        <ele>873.1</ele>
        <time>2016-07-23T10:28:45Z</time>
      </trkpt>
      <trkpt lat="42.52346" lon="0.22151">
        <ele>872.5</ele>
        <time>2016-07-23T10:28:48Z</time>
      </trkpt>
      <trkpt lat="42.52348" lon="0.22155">
        <ele>871.9</ele>
        <time>2016-07-23T10:28:50Z</time>
      </trkpt>
      <trkpt lat="42.52349" lon="0.22158">
        <ele>871.9</ele>
        <time>2016-07-23T10:28:52Z</time>
      </trkpt>
      <trkpt lat="42.52348" lon="0.22164">
        <ele>873.5</ele>
        <time>2016-07-23T10:28:55Z</time>
      </trkpt>
      <trkpt lat="42.52348" lon="0.22171">
        <ele>875</ele>
        <time>2016-07-23T10:28:57Z</time>
      </trkpt>
      <trkpt lat="42.52348" lon="0.22176">
        <ele>876</ele>
        <time>2016-07-23T10:28:59Z</time>
      </trkpt>
      <trkpt lat="42.52348" lon="0.22182">
        <ele>877.2</ele>
        <time>2016-07-23T10:29:01Z</time>
      </trkpt>
      <trkpt lat="42.52347" lon="0.22188">
        <ele>878.4</ele>
        <time>2016-07-23T10:29:03Z</time>
      </trkpt>
      <trkpt lat="42.52347" lon="0.22195">
        <ele>880.1</ele>
        <time>2016-07-23T10:29:05Z</time>
      </trkpt>
      <trkpt lat="42.52346" lon="0.22201">
        <ele>882</ele>
        <time>2016-07-23T10:29:07Z</time>
      </trkpt>
      <trkpt lat="42.52345" lon="0.22209">
        <ele>884.2</ele>
        <time>2016-07-23T10:29:09Z</time>
      </trkpt>
      <trkpt lat="42.52345" lon="0.22214">
        <ele>884.7</ele>
        <time>2016-07-23T10:29:10Z</time>
      </trkpt>
      <trkpt lat="42.52345" lon="0.22219">
        <ele>884.8</ele>
        <time>2016-07-23T10:29:11Z</time>
      </trkpt>
      <trkpt lat="42.52346" lon="0.22223">
        <ele>884.4</ele>
        <time>2016-07-23T10:29:12Z</time>
      </trkpt>
      <trkpt lat="42.52347" lon="0.22227">
        <ele>884.1</ele>
        <time>2016-07-23T10:29:13Z</time>
      </trkpt>
      <trkpt lat="42.52348" lon="0.2223">
        <ele>883.7</ele>
        <time>2016-07-23T10:29:14Z</time>
      </trkpt>
      <trkpt lat="42.52349" lon="0.22234">
        <ele>883.5</ele>
        <time>2016-07-23T10:29:15Z</time>
      </trkpt>
      <trkpt lat="42.52349" lon="0.22239">
        <ele>883.4</ele>
        <time>2016-07-23T10:29:16Z</time>
      </trkpt>
      <trkpt lat="42.52349" lon="0.22245">
        <ele>883.9</ele>
        <time>2016-07-23T10:29:17Z</time>
      </trkpt>
      <trkpt lat="42.52349" lon="0.22251">
        <ele>884.8</ele>
        <time>2016-07-23T10:29:18Z</time>
      </trkpt>
      <trkpt lat="42.52349" lon="0.22256">
        <ele>885.4</ele>
        <time>2016-07-23T10:29:19Z</time>
      </trkpt>
      <trkpt lat="42.52349" lon="0.22261">
        <ele>885.8</ele>
        <time>2016-07-23T10:29:20Z</time>
      </trkpt>
      <trkpt lat="42.52349" lon="0.22266">
        <ele>886</ele>
        <time>2016-07-23T10:29:21Z</time>
      </trkpt>
      <trkpt lat="42.5235" lon="0.2227">
        <ele>886.1</ele>
        <time>2016-07-23T10:29:22Z</time>
      </trkpt>
      <trkpt lat="42.5235" lon="0.22275">
        <ele>886.3</ele>
        <time>2016-07-23T10:29:23Z</time>
      </trkpt>
      <trkpt lat="42.52351" lon="0.22279">
        <ele>886.1</ele>
        <time>2016-07-23T10:29:24Z</time>
      </trkpt>
      <trkpt lat="42.52352" lon="0.22286">
        <ele>885.9</ele>
        <time>2016-07-23T10:29:26Z</time>
      </trkpt>
      <trkpt lat="42.52353" lon="0.22291">
        <ele>885.5</ele>
        <time>2016-07-23T10:29:28Z</time>
      </trkpt>
      <trkpt lat="42.52353" lon="0.22296">
        <ele>885.1</ele>
        <time>2016-07-23T10:29:30Z</time>
      </trkpt>
      <trkpt lat="42.52354" lon="0.22303">
        <ele>884</ele>
        <time>2016-07-23T10:29:32Z</time>
      </trkpt>
      <trkpt lat="42.52355" lon="0.22308">
        <ele>883.3</ele>
        <time>2016-07-23T10:29:34Z</time>
      </trkpt>
      <trkpt lat="42.52355" lon="0.22313">
        <ele>883.4</ele>
        <time>2016-07-23T10:29:36Z</time>
      </trkpt>
      <trkpt lat="42.52355" lon="0.22317">
        <ele>883.6</ele>
        <time>2016-07-23T10:29:38Z</time>
      </trkpt>
      <trkpt lat="42.52354" lon="0.22321">
        <ele>883.7</ele>
        <time>2016-07-23T10:29:40Z</time>
      </trkpt>
      <trkpt lat="42.52355" lon="0.22327">
        <ele>883.1</ele>
        <time>2016-07-23T10:29:42Z</time>
      </trkpt>
      <trkpt lat="42.52356" lon="0.2233">
        <ele>882.1</ele>
        <time>2016-07-23T10:29:44Z</time>
      </trkpt>
      <trkpt lat="42.52356" lon="0.22334">
        <ele>881.9</ele>
        <time>2016-07-23T10:29:52Z</time>
      </trkpt>
      <trkpt lat="42.52357" lon="0.22338">
        <ele>881.6</ele>
        <time>2016-07-23T10:29:56Z</time>
      </trkpt>
      <trkpt lat="42.52355" lon="0.22342">
        <ele>882.4</ele>
        <time>2016-07-23T10:30:03Z</time>
      </trkpt>
      <trkpt lat="42.52355" lon="0.22346">
        <ele>882.3</ele>
        <time>2016-07-23T10:30:07Z</time>
      </trkpt>
      <trkpt lat="42.52354" lon="0.2235">
        <ele>883.4</ele>
        <time>2016-07-23T10:30:15Z</time>
      </trkpt>
      <trkpt lat="42.52353" lon="0.22354">
        <ele>883.8</ele>
        <time>2016-07-23T10:30:33Z</time>
      </trkpt>
      <trkpt lat="42.52356" lon="0.22355">
        <ele>881.6</ele>
        <time>2016-07-23T10:30:40Z</time>
      </trkpt>
      <trkpt lat="42.52354" lon="0.22359">
        <ele>883</ele>
        <time>2016-07-23T10:30:47Z</time>
      </trkpt>
      <trkpt lat="42.52352" lon="0.22363">
        <ele>884.3</ele>
        <time>2016-07-23T10:30:49Z</time>
      </trkpt>
      <trkpt lat="42.52349" lon="0.22366">
        <ele>885.7</ele>
        <time>2016-07-23T10:30:51Z</time>
      </trkpt>
      <trkpt lat="42.52347" lon="0.2237">
        <ele>887.1</ele>
        <time>2016-07-23T10:30:53Z</time>
      </trkpt>
      <trkpt lat="42.52345" lon="0.22373">
        <ele>888.2</ele>
        <time>2016-07-23T10:30:54Z</time>
      </trkpt>
      <trkpt lat="42.52343" lon="0.22376">
        <ele>889.4</ele>
        <time>2016-07-23T10:30:55Z</time>
      </trkpt>
      <trkpt lat="42.5234" lon="0.22378">
        <ele>890.5</ele>
        <time>2016-07-23T10:30:56Z</time>
      </trkpt>
      <trkpt lat="42.52338" lon="0.22381">
        <ele>891.4</ele>
        <time>2016-07-23T10:30:57Z</time>
      </trkpt>
      <trkpt lat="42.52336" lon="0.22384">
        <ele>892.4</ele>
        <time>2016-07-23T10:30:58Z</time>
      </trkpt>
      <trkpt lat="42.52334" lon="0.22386">
        <ele>893.3</ele>
        <time>2016-07-23T10:30:59Z</time>
      </trkpt>
      <trkpt lat="42.52331" lon="0.22388">
        <ele>894.3</ele>
        <time>2016-07-23T10:31:00Z</time>
      </trkpt>
      <trkpt lat="42.52329" lon="0.22391">
        <ele>895.3</ele>
        <time>2016-07-23T10:31:01Z</time>
      </trkpt>
      <trkpt lat="42.52326" lon="0.22393">
        <ele>896.5</ele>
        <time>2016-07-23T10:31:02Z</time>
      </trkpt>
      <trkpt lat="42.52324" lon="0.22395">
        <ele>897.5</ele>
        <time>2016-07-23T10:31:03Z</time>
      </trkpt>
      <trkpt lat="42.5232" lon="0.22398">
        <ele>899.6</ele>
        <time>2016-07-23T10:31:05Z</time>
      </trkpt>
      <trkpt lat="42.52315" lon="0.22401">
        <ele>901.9</ele>
        <time>2016-07-23T10:31:07Z</time>
      </trkpt>
      <trkpt lat="42.52313" lon="0.22403">
        <ele>902.9</ele>
        <time>2016-07-23T10:31:10Z</time>
      </trkpt>
      <trkpt lat="42.52314" lon="0.22406">
        <ele>901.6</ele>
        <time>2016-07-23T10:31:14Z</time>
      </trkpt>
      <trkpt lat="42.52315" lon="0.2241">
        <ele>900.3</ele>
        <time>2016-07-23T10:31:21Z</time>
      </trkpt>
      <trkpt lat="42.52314" lon="0.22415">
        <ele>900.2</ele>
        <time>2016-07-23T10:31:24Z</time>
      </trkpt>
      <trkpt lat="42.52312" lon="0.22418">
        <ele>900.6</ele>
        <time>2016-07-23T10:31:27Z</time>
      </trkpt>
      <trkpt lat="42.52309" lon="0.2242">
        <ele>901.9</ele>
        <time>2016-07-23T10:31:30Z</time>
      </trkpt>
      <trkpt lat="42.52306" lon="0.22421">
        <ele>903.8</ele>
        <time>2016-07-23T10:31:33Z</time>
      </trkpt>
      <trkpt lat="42.52302" lon="0.22422">
        <ele>905.6</ele>
        <time>2016-07-23T10:31:36Z</time>
      </trkpt>
      <trkpt lat="42.52301" lon="0.22425">
        <ele>905.9</ele>
        <time>2016-07-23T10:31:40Z</time>
      </trkpt>
      <trkpt lat="42.52298" lon="0.22428">
        <ele>906.5</ele>
        <time>2016-07-23T10:31:45Z</time>
      </trkpt>
      <trkpt lat="42.52297" lon="0.22432">
        <ele>906.9</ele>
        <time>2016-07-23T10:31:59Z</time>
      </trkpt>
      <trkpt lat="42.52295" lon="0.22429">
        <ele>908.5</ele>
        <time>2016-07-23T10:32:14Z</time>
      </trkpt>
      <trkpt lat="42.52299" lon="0.22434">
        <ele>905.1</ele>
        <time>2016-07-23T10:32:53Z</time>
      </trkpt>
      <trkpt lat="42.52301" lon="0.22436">
        <ele>903.2</ele>
        <time>2016-07-23T10:32:56Z</time>
      </trkpt>
      <trkpt lat="42.52303" lon="0.22439">
        <ele>901.7</ele>
        <time>2016-07-23T10:33:03Z</time>
      </trkpt>
      <trkpt lat="42.52301" lon="0.22442">
        <ele>902.1</ele>
        <time>2016-07-23T10:33:09Z</time>
      </trkpt>
      <trkpt lat="42.52304" lon="0.22442">
        <ele>900.3</ele>
        <time>2016-07-23T10:33:31Z</time>
      </trkpt>
      <trkpt lat="42.52307" lon="0.22443">
        <ele>898.5</ele>
        <time>2016-07-23T10:33:34Z</time>
      </trkpt>
      <trkpt lat="42.5231" lon="0.22444">
        <ele>896.4</ele>
        <time>2016-07-23T10:33:38Z</time>
      </trkpt>
      <trkpt lat="42.52313" lon="0.22445">
        <ele>894.6</ele>
        <time>2016-07-23T10:33:40Z</time>
      </trkpt>
      <trkpt lat="42.5231" lon="0.22446">
        <ele>895.9</ele>
        <time>2016-07-23T10:33:51Z</time>
      </trkpt>
      <trkpt lat="42.52303" lon="0.22432">
        <ele>902.9</ele>
        <time>2016-07-23T10:35:50Z</time>
      </trkpt>
      <trkpt lat="42.523" lon="0.22433">
        <ele>904.5</ele>
        <time>2016-07-23T10:35:53Z</time>
      </trkpt>
      <trkpt lat="42.52306" lon="0.22428">
        <ele>902.1</ele>
        <time>2016-07-23T10:42:22Z</time>
      </trkpt>
      <trkpt lat="42.52308" lon="0.22425">
        <ele>901.5</ele>
        <time>2016-07-23T10:42:24Z</time>
      </trkpt>
      <trkpt lat="42.52311" lon="0.2242">
        <ele>900.7</ele>
        <time>2016-07-23T10:42:26Z</time>
      </trkpt>
      <trkpt lat="42.52311" lon="0.22416">
        <ele>901.6</ele>
        <time>2016-07-23T10:42:28Z</time>
      </trkpt>
      <trkpt lat="42.52309" lon="0.22413">
        <ele>903.2</ele>
        <time>2016-07-23T10:42:35Z</time>
      </trkpt>
      <trkpt lat="42.52309" lon="0.22408">
        <ele>904.1</ele>
        <time>2016-07-23T10:42:39Z</time>
      </trkpt>
      <trkpt lat="42.52312" lon="0.22401">
        <ele>903.8</ele>
        <time>2016-07-23T10:42:41Z</time>
      </trkpt>
      <trkpt lat="42.52316" lon="0.22398">
        <ele>902.1</ele>
        <time>2016-07-23T10:42:42Z</time>
      </trkpt>
      <trkpt lat="42.52321" lon="0.22395">
        <ele>899.6</ele>
        <time>2016-07-23T10:42:43Z</time>
      </trkpt>
      <trkpt lat="42.52326" lon="0.22393">
        <ele>896.9</ele>
        <time>2016-07-23T10:42:44Z</time>
      </trkpt>
      <trkpt lat="42.52331" lon="0.22391">
        <ele>894.3</ele>
        <time>2016-07-23T10:42:45Z</time>
      </trkpt>
      <trkpt lat="42.52335" lon="0.22389">
        <ele>891.7</ele>
        <time>2016-07-23T10:42:46Z</time>
      </trkpt>
      <trkpt lat="42.52339" lon="0.22386">
        <ele>889.6</ele>
        <time>2016-07-23T10:42:47Z</time>
      </trkpt>
      <trkpt lat="42.52342" lon="0.22384">
        <ele>888.3</ele>
        <time>2016-07-23T10:42:48Z</time>
      </trkpt>
      <trkpt lat="42.52346" lon="0.2238">
        <ele>886.4</ele>
        <time>2016-07-23T10:42:50Z</time>
      </trkpt>
      <trkpt lat="42.5235" lon="0.22375">
        <ele>885.1</ele>
        <time>2016-07-23T10:42:52Z</time>
      </trkpt>
      <trkpt lat="42.52353" lon="0.2237">
        <ele>882.9</ele>
        <time>2016-07-23T10:42:54Z</time>
      </trkpt>
      <trkpt lat="42.52356" lon="0.22368">
        <ele>881.4</ele>
        <time>2016-07-23T10:42:55Z</time>
      </trkpt>
      <trkpt lat="42.52358" lon="0.22365">
        <ele>879.8</ele>
        <time>2016-07-23T10:42:56Z</time>
      </trkpt>
      <trkpt lat="42.5236" lon="0.22362">
        <ele>878.5</ele>
        <time>2016-07-23T10:42:57Z</time>
      </trkpt>
      <trkpt lat="42.52363" lon="0.22356">
        <ele>876.9</ele>
        <time>2016-07-23T10:42:59Z</time>
      </trkpt>
      <trkpt lat="42.52363" lon="0.22352">
        <ele>876.7</ele>
        <time>2016-07-23T10:43:00Z</time>
      </trkpt>
      <trkpt lat="42.52363" lon="0.22348">
        <ele>876.8</ele>
        <time>2016-07-23T10:43:01Z</time>
      </trkpt>
      <trkpt lat="42.52362" lon="0.22342">
        <ele>877.6</ele>
        <time>2016-07-23T10:43:03Z</time>
      </trkpt>
      <trkpt lat="42.52361" lon="0.22338">
        <ele>878.4</ele>
        <time>2016-07-23T10:43:04Z</time>
      </trkpt>
      <trkpt lat="42.5236" lon="0.22334">
        <ele>879.6</ele>
        <time>2016-07-23T10:43:05Z</time>
      </trkpt>
      <trkpt lat="42.52358" lon="0.22329">
        <ele>880.8</ele>
        <time>2016-07-23T10:43:06Z</time>
      </trkpt>
      <trkpt lat="42.52356" lon="0.22322">
        <ele>882</ele>
        <time>2016-07-23T10:43:07Z</time>
      </trkpt>
      <trkpt lat="42.52355" lon="0.22316">
        <ele>882.9</ele>
        <time>2016-07-23T10:43:08Z</time>
      </trkpt>
      <trkpt lat="42.52355" lon="0.22309">
        <ele>883.3</ele>
        <time>2016-07-23T10:43:09Z</time>
      </trkpt>
      <trkpt lat="42.52355" lon="0.22302">
        <ele>883.4</ele>
        <time>2016-07-23T10:43:10Z</time>
      </trkpt>
      <trkpt lat="42.52355" lon="0.22297">
        <ele>883.5</ele>
        <time>2016-07-23T10:43:11Z</time>
      </trkpt>
      <trkpt lat="42.52355" lon="0.22291">
        <ele>883.6</ele>
        <time>2016-07-23T10:43:12Z</time>
      </trkpt>
      <trkpt lat="42.52354" lon="0.22285">
        <ele>883.7</ele>
        <time>2016-07-23T10:43:13Z</time>
      </trkpt>
      <trkpt lat="42.52354" lon="0.22278">
        <ele>883.7</ele>
        <time>2016-07-23T10:43:14Z</time>
      </trkpt>
      <trkpt lat="42.52353" lon="0.22272">
        <ele>883.6</ele>
        <time>2016-07-23T10:43:15Z</time>
      </trkpt>
      <trkpt lat="42.52352" lon="0.22265">
        <ele>883.6</ele>
        <time>2016-07-23T10:43:16Z</time>
      </trkpt>
      <trkpt lat="42.52351" lon="0.22259">
        <ele>883.6</ele>
        <time>2016-07-23T10:43:17Z</time>
      </trkpt>
      <trkpt lat="42.5235" lon="0.22252">
        <ele>883.7</ele>
        <time>2016-07-23T10:43:18Z</time>
      </trkpt>
      <trkpt lat="42.5235" lon="0.22245">
        <ele>883.2</ele>
        <time>2016-07-23T10:43:19Z</time>
      </trkpt>
      <trkpt lat="42.52351" lon="0.22239">
        <ele>882.3</ele>
        <time>2016-07-23T10:43:20Z</time>
      </trkpt>
      <trkpt lat="42.52351" lon="0.22233">
        <ele>881.2</ele>
        <time>2016-07-23T10:43:21Z</time>
      </trkpt>
      <trkpt lat="42.52352" lon="0.22227">
        <ele>880</ele>
        <time>2016-07-23T10:43:22Z</time>
      </trkpt>
      <trkpt lat="42.52352" lon="0.22222">
        <ele>879.7</ele>
        <time>2016-07-23T10:43:23Z</time>
      </trkpt>
      <trkpt lat="42.52351" lon="0.22215">
        <ele>879.5</ele>
        <time>2016-07-23T10:43:24Z</time>
      </trkpt>
      <trkpt lat="42.52351" lon="0.2221">
        <ele>879.3</ele>
        <time>2016-07-23T10:43:25Z</time>
      </trkpt>
      <trkpt lat="42.52351" lon="0.22206">
        <ele>878.4</ele>
        <time>2016-07-23T10:43:26Z</time>
      </trkpt>
      <trkpt lat="42.52352" lon="0.22202">
        <ele>877.5</ele>
        <time>2016-07-23T10:43:27Z</time>
      </trkpt>
      <trkpt lat="42.52352" lon="0.22198">
        <ele>876.7</ele>
        <time>2016-07-23T10:43:28Z</time>
      </trkpt>
      <trkpt lat="42.52352" lon="0.22194">
        <ele>876.3</ele>
        <time>2016-07-23T10:43:29Z</time>
      </trkpt>
      <trkpt lat="42.52351" lon="0.22191">
        <ele>876.1</ele>
        <time>2016-07-23T10:43:30Z</time>
      </trkpt>
      <trkpt lat="42.5235" lon="0.22187">
        <ele>875.9</ele>
        <time>2016-07-23T10:43:31Z</time>
      </trkpt>
      <trkpt lat="42.5235" lon="0.22183">
        <ele>875.8</ele>
        <time>2016-07-23T10:43:32Z</time>
      </trkpt>
      <trkpt lat="42.52349" lon="0.22178">
        <ele>875.7</ele>
        <time>2016-07-23T10:43:33Z</time>
      </trkpt>
      <trkpt lat="42.52348" lon="0.22173">
        <ele>875.5</ele>
        <time>2016-07-23T10:43:34Z</time>
      </trkpt>
      <trkpt lat="42.52346" lon="0.22169">
        <ele>875.6</ele>
        <time>2016-07-23T10:43:35Z</time>
      </trkpt>
      <trkpt lat="42.52345" lon="0.22165">
        <ele>875.9</ele>
        <time>2016-07-23T10:43:36Z</time>
      </trkpt>
      <trkpt lat="42.52344" lon="0.22162">
        <ele>876</ele>
        <time>2016-07-23T10:43:38Z</time>
      </trkpt>
      <trkpt lat="42.52343" lon="0.22158">
        <ele>875.8</ele>
        <time>2016-07-23T10:43:41Z</time>
      </trkpt>
      <trkpt lat="42.52343" lon="0.22153">
        <ele>875.1</ele>
        <time>2016-07-23T10:43:44Z</time>
      </trkpt>
      <trkpt lat="42.52343" lon="0.22148">
        <ele>874.2</ele>
        <time>2016-07-23T10:43:46Z</time>
      </trkpt>
      <trkpt lat="42.52344" lon="0.2214">
        <ele>872</ele>
        <time>2016-07-23T10:43:48Z</time>
      </trkpt>
      <trkpt lat="42.52345" lon="0.22136">
        <ele>870.9</ele>
        <time>2016-07-23T10:43:49Z</time>
      </trkpt>
      <trkpt lat="42.52345" lon="0.22131">
        <ele>869.9</ele>
        <time>2016-07-23T10:43:50Z</time>
      </trkpt>
      <trkpt lat="42.52345" lon="0.22125">
        <ele>868.5</ele>
        <time>2016-07-23T10:43:51Z</time>
      </trkpt>
      <trkpt lat="42.52346" lon="0.22121">
        <ele>866.9</ele>
        <time>2016-07-23T10:43:52Z</time>
      </trkpt>
      <trkpt lat="42.52347" lon="0.22117">
        <ele>865.6</ele>
        <time>2016-07-23T10:43:53Z</time>
      </trkpt>
      <trkpt lat="42.52348" lon="0.22113">
        <ele>864.3</ele>
        <time>2016-07-23T10:43:54Z</time>
      </trkpt>
      <trkpt lat="42.52348" lon="0.22108">
        <ele>863.1</ele>
        <time>2016-07-23T10:43:55Z</time>
      </trkpt>
      <trkpt lat="42.52347" lon="0.22102">
        <ele>861.9</ele>
        <time>2016-07-23T10:43:56Z</time>
      </trkpt>
      <trkpt lat="42.52347" lon="0.22095">
        <ele>860.4</ele>
        <time>2016-07-23T10:43:57Z</time>
      </trkpt>
      <trkpt lat="42.52347" lon="0.22081">
        <ele>857</ele>
        <time>2016-07-23T10:43:59Z</time>
      </trkpt>
      <trkpt lat="42.52348" lon="0.22074">
        <ele>854.7</ele>
        <time>2016-07-23T10:44:00Z</time>
      </trkpt>
      <trkpt lat="42.5235" lon="0.22069">
        <ele>852.5</ele>
        <time>2016-07-23T10:44:01Z</time>
      </trkpt>
      <trkpt lat="42.52352" lon="0.22064">
        <ele>850.4</ele>
        <time>2016-07-23T10:44:02Z</time>
      </trkpt>
      <trkpt lat="42.52355" lon="0.22059">
        <ele>848</ele>
        <time>2016-07-23T10:44:03Z</time>
      </trkpt>
      <trkpt lat="42.52358" lon="0.22055">
        <ele>845.9</ele>
        <time>2016-07-23T10:44:04Z</time>
      </trkpt>
      <trkpt lat="42.52361" lon="0.22051">
        <ele>843.9</ele>
        <time>2016-07-23T10:44:05Z</time>
      </trkpt>
      <trkpt lat="42.52364" lon="0.22046">
        <ele>842.1</ele>
        <time>2016-07-23T10:44:06Z</time>
      </trkpt>
      <trkpt lat="42.52366" lon="0.22041">
        <ele>840.2</ele>
        <time>2016-07-23T10:44:07Z</time>
      </trkpt>
      <trkpt lat="42.52368" lon="0.22035">
        <ele>838.1</ele>
        <time>2016-07-23T10:44:08Z</time>
      </trkpt>
      <trkpt lat="42.52369" lon="0.22029">
        <ele>836</ele>
        <time>2016-07-23T10:44:09Z</time>
      </trkpt>
      <trkpt lat="42.52372" lon="0.22022">
        <ele>833.5</ele>
        <time>2016-07-23T10:44:10Z</time>
      </trkpt>
      <trkpt lat="42.52375" lon="0.22016">
        <ele>830.9</ele>
        <time>2016-07-23T10:44:11Z</time>
      </trkpt>
      <trkpt lat="42.52378" lon="0.2201">
        <ele>828.3</ele>
        <time>2016-07-23T10:44:12Z</time>
      </trkpt>
      <trkpt lat="42.5238" lon="0.22007">
        <ele>826.5</ele>
        <time>2016-07-23T10:44:13Z</time>
      </trkpt>
      <trkpt lat="42.5238" lon="0.22001">
        <ele>825.5</ele>
        <time>2016-07-23T10:44:21Z</time>
      </trkpt>
      <trkpt lat="42.52381" lon="0.21994">
        <ele>823.3</ele>
        <time>2016-07-23T10:44:23Z</time>
      </trkpt>
      <trkpt lat="42.52382" lon="0.21989">
        <ele>821.7</ele>
        <time>2016-07-23T10:44:24Z</time>
      </trkpt>
      <trkpt lat="42.52384" lon="0.21985">
        <ele>820.2</ele>
        <time>2016-07-23T10:44:25Z</time>
      </trkpt>
      <trkpt lat="42.52385" lon="0.21979">
        <ele>818.5</ele>
        <time>2016-07-23T10:44:27Z</time>
      </trkpt>
      <trkpt lat="42.52384" lon="0.21975">
        <ele>817.9</ele>
        <time>2016-07-23T10:44:29Z</time>
      </trkpt>
      <trkpt lat="42.52381" lon="0.21971">
        <ele>818</ele>
        <time>2016-07-23T10:44:32Z</time>
      </trkpt>
      <trkpt lat="42.52376" lon="0.21967">
        <ele>818.8</ele>
        <time>2016-07-23T10:44:34Z</time>
      </trkpt>
      <trkpt lat="42.52374" lon="0.21965">
        <ele>818.9</ele>
        <time>2016-07-23T10:44:35Z</time>
      </trkpt>
      <trkpt lat="42.5237" lon="0.21962">
        <ele>818.9</ele>
        <time>2016-07-23T10:44:37Z</time>
      </trkpt>
      <trkpt lat="42.52367" lon="0.21959">
        <ele>818.6</ele>
        <time>2016-07-23T10:44:39Z</time>
      </trkpt>
      <trkpt lat="42.52364" lon="0.21955">
        <ele>819.6</ele>
        <time>2016-07-23T10:44:41Z</time>
      </trkpt>
      <trkpt lat="42.52361" lon="0.2195">
        <ele>820.8</ele>
        <time>2016-07-23T10:44:43Z</time>
      </trkpt>
      <trkpt lat="42.5236" lon="0.21947">
        <ele>821.6</ele>
        <time>2016-07-23T10:44:44Z</time>
      </trkpt>
      <trkpt lat="42.52358" lon="0.21943">
        <ele>822.5</ele>
        <time>2016-07-23T10:44:45Z</time>
      </trkpt>
      <trkpt lat="42.52357" lon="0.21938">
        <ele>823.3</ele>
        <time>2016-07-23T10:44:47Z</time>
      </trkpt>
      <trkpt lat="42.52354" lon="0.21936">
        <ele>824.1</ele>
        <time>2016-07-23T10:44:52Z</time>
      </trkpt>
      <trkpt lat="42.52357" lon="0.21939">
        <ele>823.2</ele>
        <time>2016-07-23T10:44:56Z</time>
      </trkpt>
      <trkpt lat="42.52362" lon="0.21942">
        <ele>822</ele>
        <time>2016-07-23T10:44:58Z</time>
      </trkpt>
      <trkpt lat="42.52366" lon="0.21944">
        <ele>820.9</ele>
        <time>2016-07-23T10:45:00Z</time>
      </trkpt>
      <trkpt lat="42.52371" lon="0.21946">
        <ele>819.8</ele>
        <time>2016-07-23T10:45:02Z</time>
      </trkpt>
      <trkpt lat="42.52375" lon="0.21946">
        <ele>818.8</ele>
        <time>2016-07-23T10:45:04Z</time>
      </trkpt>
      <trkpt lat="42.52378" lon="0.21946">
        <ele>817.9</ele>
        <time>2016-07-23T10:45:05Z</time>
      </trkpt>
      <trkpt lat="42.52382" lon="0.21946">
        <ele>816.8</ele>
        <time>2016-07-23T10:45:06Z</time>
      </trkpt>
      <trkpt lat="42.52385" lon="0.21945">
        <ele>815.8</ele>
        <time>2016-07-23T10:45:07Z</time>
      </trkpt>
      <trkpt lat="42.5239" lon="0.21944">
        <ele>814.6</ele>
        <time>2016-07-23T10:45:09Z</time>
      </trkpt>
      <trkpt lat="42.52392" lon="0.21945">
        <ele>813.7</ele>
        <time>2016-07-23T10:45:11Z</time>
      </trkpt>
      <trkpt lat="42.52395" lon="0.21942">
        <ele>813.5</ele>
        <time>2016-07-23T10:45:27Z</time>
      </trkpt>
      <trkpt lat="42.52397" lon="0.21938">
        <ele>813.2</ele>
        <time>2016-07-23T10:45:30Z</time>
      </trkpt>
      <trkpt lat="42.52401" lon="0.21935">
        <ele>812.7</ele>
        <time>2016-07-23T10:45:32Z</time>
      </trkpt>
      <trkpt lat="42.52404" lon="0.21929">
        <ele>812.4</ele>
        <time>2016-07-23T10:45:35Z</time>
      </trkpt>
      <trkpt lat="42.52407" lon="0.21926">
        <ele>812</ele>
        <time>2016-07-23T10:45:37Z</time>
      </trkpt>
      <trkpt lat="42.52411" lon="0.21925">
        <ele>811.1</ele>
        <time>2016-07-23T10:45:39Z</time>
      </trkpt>
      <trkpt lat="42.52414" lon="0.21922">
        <ele>810.4</ele>
        <time>2016-07-23T10:45:41Z</time>
      </trkpt>
      <trkpt lat="42.52417" lon="0.21921">
        <ele>809.8</ele>
        <time>2016-07-23T10:45:43Z</time>
      </trkpt>
      <trkpt lat="42.52419" lon="0.2192">
        <ele>809.2</ele>
        <time>2016-07-23T10:45:46Z</time>
      </trkpt>
      <trkpt lat="42.52422" lon="0.21919">
        <ele>808.5</ele>
        <time>2016-07-23T10:45:51Z</time>
      </trkpt>
      <trkpt lat="42.52425" lon="0.2192">
        <ele>807.5</ele>
        <time>2016-07-23T10:45:58Z</time>
      </trkpt>
      <trkpt lat="42.52427" lon="0.21916">
        <ele>807.4</ele>
        <time>2016-07-23T10:46:06Z</time>
      </trkpt>
      <trkpt lat="42.52428" lon="0.21912">
        <ele>807.5</ele>
        <time>2016-07-23T10:46:25Z</time>
      </trkpt>
      <trkpt lat="42.52431" lon="0.2191">
        <ele>807.1</ele>
        <time>2016-07-23T10:46:28Z</time>
      </trkpt>
      <trkpt lat="42.52433" lon="0.21907">
        <ele>806.9</ele>
        <time>2016-07-23T10:46:31Z</time>
      </trkpt>
      <trkpt lat="42.52437" lon="0.21904">
        <ele>806.1</ele>
        <time>2016-07-23T10:46:34Z</time>
      </trkpt>
      <trkpt lat="42.52442" lon="0.21903">
        <ele>804.7</ele>
        <time>2016-07-23T10:46:36Z</time>
      </trkpt>
      <trkpt lat="42.52445" lon="0.21903">
        <ele>803.9</ele>
        <time>2016-07-23T10:46:39Z</time>
      </trkpt>
      <trkpt lat="42.52445" lon="0.21898">
        <ele>804.5</ele>
        <time>2016-07-23T10:46:49Z</time>
      </trkpt>
      <trkpt lat="42.52447" lon="0.21895">
        <ele>804.3</ele>
        <time>2016-07-23T10:46:53Z</time>
      </trkpt>
      <trkpt lat="42.5245" lon="0.21892">
        <ele>804.1</ele>
        <time>2016-07-23T10:46:57Z</time>
      </trkpt>
      <trkpt lat="42.52452" lon="0.21889">
        <ele>803.8</ele>
        <time>2016-07-23T10:47:01Z</time>
      </trkpt>
      <trkpt lat="42.52455" lon="0.21888">
        <ele>803.1</ele>
        <time>2016-07-23T10:47:05Z</time>
      </trkpt>
      <trkpt lat="42.52457" lon="0.2189">
        <ele>802</ele>
        <time>2016-07-23T10:47:11Z</time>
      </trkpt>
      <trkpt lat="42.52456" lon="0.21894">
        <ele>801.7</ele>
        <time>2016-07-23T10:47:49Z</time>
      </trkpt>
      <trkpt lat="42.52456" lon="0.21899">
        <ele>801</ele>
        <time>2016-07-23T10:48:02Z</time>
      </trkpt>
      <trkpt lat="42.52453" lon="0.21891">
        <ele>803.1</ele>
        <time>2016-07-23T10:51:19Z</time>
      </trkpt>
      <trkpt lat="42.52455" lon="0.21888">
        <ele>803.1</ele>
        <time>2016-07-23T10:51:23Z</time>
      </trkpt>
      <trkpt lat="42.52457" lon="0.21884">
        <ele>803.1</ele>
        <time>2016-07-23T10:51:27Z</time>
      </trkpt>
      <trkpt lat="42.5246" lon="0.21884">
        <ele>802.5</ele>
        <time>2016-07-23T10:51:34Z</time>
      </trkpt>
      <trkpt lat="42.52462" lon="0.21882">
        <ele>802.5</ele>
        <time>2016-07-23T10:51:39Z</time>
      </trkpt>
      <trkpt lat="42.52464" lon="0.21879">
        <ele>802.7</ele>
        <time>2016-07-23T10:51:43Z</time>
      </trkpt>
      <trkpt lat="42.52467" lon="0.21878">
        <ele>802.6</ele>
        <time>2016-07-23T10:51:45Z</time>
      </trkpt>
      <trkpt lat="42.5247" lon="0.21877">
        <ele>802.4</ele>
        <time>2016-07-23T10:51:49Z</time>
      </trkpt>
      <trkpt lat="42.5247" lon="0.21873">
        <ele>803</ele>
        <time>2016-07-23T10:52:00Z</time>
      </trkpt>
      <trkpt lat="42.52471" lon="0.21869">
        <ele>803.6</ele>
        <time>2016-07-23T10:52:05Z</time>
      </trkpt>
      <trkpt lat="42.52474" lon="0.21868">
        <ele>803.5</ele>
        <time>2016-07-23T10:52:15Z</time>
      </trkpt>
      <trkpt lat="42.52476" lon="0.21865">
        <ele>803.8</ele>
        <time>2016-07-23T10:52:18Z</time>
      </trkpt>
      <trkpt lat="42.52477" lon="0.21861">
        <ele>804.2</ele>
        <time>2016-07-23T10:52:20Z</time>
      </trkpt>
      <trkpt lat="42.52479" lon="0.21857">
        <ele>804.6</ele>
        <time>2016-07-23T10:52:22Z</time>
      </trkpt>
      <trkpt lat="42.52481" lon="0.21854">
        <ele>804.7</ele>
        <time>2016-07-23T10:52:26Z</time>
      </trkpt>
      <trkpt lat="42.52483" lon="0.2185">
        <ele>805.1</ele>
        <time>2016-07-23T10:52:30Z</time>
      </trkpt>
      <trkpt lat="42.52484" lon="0.21846">
        <ele>805.5</ele>
        <time>2016-07-23T10:52:33Z</time>
      </trkpt>
      <trkpt lat="42.52485" lon="0.21843">
        <ele>805.8</ele>
        <time>2016-07-23T10:52:36Z</time>
      </trkpt>
      <trkpt lat="42.52487" lon="0.2184">
        <ele>805.7</ele>
        <time>2016-07-23T10:52:40Z</time>
      </trkpt>
      <trkpt lat="42.52489" lon="0.21837">
        <ele>805.5</ele>
        <time>2016-07-23T10:52:46Z</time>
      </trkpt>
      <trkpt lat="42.52489" lon="0.21833">
        <ele>806.2</ele>
        <time>2016-07-23T10:52:50Z</time>
      </trkpt>
      <trkpt lat="42.52489" lon="0.21829">
        <ele>806.7</ele>
        <time>2016-07-23T10:52:53Z</time>
      </trkpt>
      <trkpt lat="42.5249" lon="0.21825">
        <ele>806.9</ele>
        <time>2016-07-23T10:52:56Z</time>
      </trkpt>
      <trkpt lat="42.52491" lon="0.21821">
        <ele>807.4</ele>
        <time>2016-07-23T10:53:01Z</time>
      </trkpt>
      <trkpt lat="42.52493" lon="0.21818">
        <ele>807.1</ele>
        <time>2016-07-23T10:53:04Z</time>
      </trkpt>
      <trkpt lat="42.52495" lon="0.21815">
        <ele>806.7</ele>
        <time>2016-07-23T10:53:07Z</time>
      </trkpt>
      <trkpt lat="42.52498" lon="0.21813">
        <ele>806.2</ele>
        <time>2016-07-23T10:53:11Z</time>
      </trkpt>
      <trkpt lat="42.525" lon="0.21808">
        <ele>806</ele>
        <time>2016-07-23T10:53:14Z</time>
      </trkpt>
      <trkpt lat="42.525" lon="0.21804">
        <ele>806.3</ele>
        <time>2016-07-23T10:53:16Z</time>
      </trkpt>
      <trkpt lat="42.52501" lon="0.21798">
        <ele>806.7</ele>
        <time>2016-07-23T10:53:18Z</time>
      </trkpt>
      <trkpt lat="42.52501" lon="0.21793">
        <ele>807.1</ele>
        <time>2016-07-23T10:53:20Z</time>
      </trkpt>
      <trkpt lat="42.52502" lon="0.21789">
        <ele>807.3</ele>
        <time>2016-07-23T10:53:22Z</time>
      </trkpt>
      <trkpt lat="42.52503" lon="0.21784">
        <ele>807.7</ele>
        <time>2016-07-23T10:53:25Z</time>
      </trkpt>
      <trkpt lat="42.52504" lon="0.21781">
        <ele>807.6</ele>
        <time>2016-07-23T10:53:31Z</time>
      </trkpt>
      <trkpt lat="42.52506" lon="0.21777">
        <ele>807.4</ele>
        <time>2016-07-23T10:53:35Z</time>
      </trkpt>
      <trkpt lat="42.52506" lon="0.21773">
        <ele>807.8</ele>
        <time>2016-07-23T10:53:38Z</time>
      </trkpt>
      <trkpt lat="42.52506" lon="0.21768">
        <ele>808.5</ele>
        <time>2016-07-23T10:53:42Z</time>
      </trkpt>
      <trkpt lat="42.52507" lon="0.21764">
        <ele>808.8</ele>
        <time>2016-07-23T10:53:46Z</time>
      </trkpt>
      <trkpt lat="42.52508" lon="0.21759">
        <ele>809.1</ele>
        <time>2016-07-23T10:53:49Z</time>
      </trkpt>
      <trkpt lat="42.52509" lon="0.21756">
        <ele>809</ele>
        <time>2016-07-23T10:53:52Z</time>
      </trkpt>
      <trkpt lat="42.5251" lon="0.21751">
        <ele>809.3</ele>
        <time>2016-07-23T10:53:56Z</time>
      </trkpt>
      <trkpt lat="42.52512" lon="0.21746">
        <ele>809.1</ele>
        <time>2016-07-23T10:54:05Z</time>
      </trkpt>
      <trkpt lat="42.52513" lon="0.21742">
        <ele>809.2</ele>
        <time>2016-07-23T10:54:07Z</time>
      </trkpt>
      <trkpt lat="42.52513" lon="0.21737">
        <ele>809.7</ele>
        <time>2016-07-23T10:54:09Z</time>
      </trkpt>
      <trkpt lat="42.52513" lon="0.21733">
        <ele>810.2</ele>
        <time>2016-07-23T10:54:11Z</time>
      </trkpt>
      <trkpt lat="42.52514" lon="0.21728">
        <ele>810.6</ele>
        <time>2016-07-23T10:54:13Z</time>
      </trkpt>
      <trkpt lat="42.52515" lon="0.21723">
        <ele>810.5</ele>
        <time>2016-07-23T10:54:15Z</time>
      </trkpt>
      <trkpt lat="42.52518" lon="0.21719">
        <ele>809.8</ele>
        <time>2016-07-23T10:54:17Z</time>
      </trkpt>
      <trkpt lat="42.52521" lon="0.21714">
        <ele>808.7</ele>
        <time>2016-07-23T10:54:19Z</time>
      </trkpt>
      <trkpt lat="42.52523" lon="0.21711">
        <ele>808.1</ele>
        <time>2016-07-23T10:54:20Z</time>
      </trkpt>
      <trkpt lat="42.52525" lon="0.21708">
        <ele>807.6</ele>
        <time>2016-07-23T10:54:21Z</time>
      </trkpt>
      <trkpt lat="42.52527" lon="0.21705">
        <ele>807.2</ele>
        <time>2016-07-23T10:54:22Z</time>
      </trkpt>
      <trkpt lat="42.52529" lon="0.21702">
        <ele>806.7</ele>
        <time>2016-07-23T10:54:23Z</time>
      </trkpt>
      <trkpt lat="42.52532" lon="0.21697">
        <ele>805.7</ele>
        <time>2016-07-23T10:54:25Z</time>
      </trkpt>
      <trkpt lat="42.52534" lon="0.21694">
        <ele>805.2</ele>
        <time>2016-07-23T10:54:26Z</time>
      </trkpt>
      <trkpt lat="42.52538" lon="0.21689">
        <ele>804.3</ele>
        <time>2016-07-23T10:54:28Z</time>
      </trkpt>
      <trkpt lat="42.52541" lon="0.21684">
        <ele>803.6</ele>
        <time>2016-07-23T10:54:30Z</time>
      </trkpt>
      <trkpt lat="42.52543" lon="0.21681">
        <ele>804</ele>
        <time>2016-07-23T10:54:31Z</time>
      </trkpt>
      <trkpt lat="42.52545" lon="0.21677">
        <ele>804.7</ele>
        <time>2016-07-23T10:54:32Z</time>
      </trkpt>
      <trkpt lat="42.52547" lon="0.21675">
        <ele>805.2</ele>
        <time>2016-07-23T10:54:33Z</time>
      </trkpt>
      <trkpt lat="42.52549" lon="0.21672">
        <ele>805.7</ele>
        <time>2016-07-23T10:54:34Z</time>
      </trkpt>
      <trkpt lat="42.52551" lon="0.21669">
        <ele>806</ele>
        <time>2016-07-23T10:54:35Z</time>
      </trkpt>
      <trkpt lat="42.52555" lon="0.21666">
        <ele>806.4</ele>
        <time>2016-07-23T10:54:37Z</time>
      </trkpt>
      <trkpt lat="42.52557" lon="0.21662">
        <ele>806.6</ele>
        <time>2016-07-23T10:54:39Z</time>
      </trkpt>
      <trkpt lat="42.5256" lon="0.21659">
        <ele>806.7</ele>
        <time>2016-07-23T10:54:41Z</time>
      </trkpt>
      <trkpt lat="42.52563" lon="0.21654">
        <ele>806.9</ele>
        <time>2016-07-23T10:54:44Z</time>
      </trkpt>
      <trkpt lat="42.52564" lon="0.21649">
        <ele>807</ele>
        <time>2016-07-23T10:54:46Z</time>
      </trkpt>
      <trkpt lat="42.52567" lon="0.21644">
        <ele>806.9</ele>
        <time>2016-07-23T10:54:48Z</time>
      </trkpt>
      <trkpt lat="42.52569" lon="0.21641">
        <ele>806.6</ele>
        <time>2016-07-23T10:54:49Z</time>
      </trkpt>
      <trkpt lat="42.52572" lon="0.21638">
        <ele>806.2</ele>
        <time>2016-07-23T10:54:50Z</time>
      </trkpt>
      <trkpt lat="42.52574" lon="0.21635">
        <ele>805.6</ele>
        <time>2016-07-23T10:54:51Z</time>
      </trkpt>
      <trkpt lat="42.52577" lon="0.21633">
        <ele>805.1</ele>
        <time>2016-07-23T10:54:52Z</time>
      </trkpt>
      <trkpt lat="42.52579" lon="0.2163">
        <ele>804.4</ele>
        <time>2016-07-23T10:54:53Z</time>
      </trkpt>
      <trkpt lat="42.52582" lon="0.21627">
        <ele>803.6</ele>
        <time>2016-07-23T10:54:54Z</time>
      </trkpt>
      <trkpt lat="42.52584" lon="0.21625">
        <ele>802.8</ele>
        <time>2016-07-23T10:54:55Z</time>
      </trkpt>
      <trkpt lat="42.52587" lon="0.21624">
        <ele>802.4</ele>
        <time>2016-07-23T10:54:56Z</time>
      </trkpt>
      <trkpt lat="42.5259" lon="0.21622">
        <ele>802.1</ele>
        <time>2016-07-23T10:54:57Z</time>
      </trkpt>
      <trkpt lat="42.52592" lon="0.2162">
        <ele>801.8</ele>
        <time>2016-07-23T10:54:58Z</time>
      </trkpt>
      <trkpt lat="42.52595" lon="0.21618">
        <ele>801.5</ele>
        <time>2016-07-23T10:54:59Z</time>
      </trkpt>
      <trkpt lat="42.52599" lon="0.21615">
        <ele>800.8</ele>
        <time>2016-07-23T10:55:01Z</time>
      </trkpt>
      <trkpt lat="42.52603" lon="0.21613">
        <ele>799.9</ele>
        <time>2016-07-23T10:55:03Z</time>
      </trkpt>
      <trkpt lat="42.52607" lon="0.21611">
        <ele>799</ele>
        <time>2016-07-23T10:55:05Z</time>
      </trkpt>
      <trkpt lat="42.5261" lon="0.21608">
        <ele>798.5</ele>
        <time>2016-07-23T10:55:07Z</time>
      </trkpt>
      <trkpt lat="42.52613" lon="0.21607">
        <ele>797.9</ele>
        <time>2016-07-23T10:55:09Z</time>
      </trkpt>
      <trkpt lat="42.52616" lon="0.21606">
        <ele>797</ele>
        <time>2016-07-23T10:55:11Z</time>
      </trkpt>
      <trkpt lat="42.5262" lon="0.21605">
        <ele>795.6</ele>
        <time>2016-07-23T10:55:14Z</time>
      </trkpt>
      <trkpt lat="42.52624" lon="0.21603">
        <ele>794.3</ele>
        <time>2016-07-23T10:55:16Z</time>
      </trkpt>
      <trkpt lat="42.52629" lon="0.21601">
        <ele>794.5</ele>
        <time>2016-07-23T10:55:18Z</time>
      </trkpt>
      <trkpt lat="42.52633" lon="0.216">
        <ele>795</ele>
        <time>2016-07-23T10:55:20Z</time>
      </trkpt>
      <trkpt lat="42.52637" lon="0.21598">
        <ele>795.6</ele>
        <time>2016-07-23T10:55:22Z</time>
      </trkpt>
      <trkpt lat="42.52642" lon="0.21597">
        <ele>796</ele>
        <time>2016-07-23T10:55:24Z</time>
      </trkpt>
      <trkpt lat="42.52646" lon="0.21596">
        <ele>796.4</ele>
        <time>2016-07-23T10:55:26Z</time>
      </trkpt>
      <trkpt lat="42.52649" lon="0.21594">
        <ele>796.6</ele>
        <time>2016-07-23T10:55:28Z</time>
      </trkpt>
      <trkpt lat="42.52652" lon="0.21592">
        <ele>796.8</ele>
        <time>2016-07-23T10:55:31Z</time>
      </trkpt>
      <trkpt lat="42.52654" lon="0.21587">
        <ele>796.9</ele>
        <time>2016-07-23T10:55:33Z</time>
      </trkpt>
      <trkpt lat="42.52656" lon="0.21582">
        <ele>796.9</ele>
        <time>2016-07-23T10:55:35Z</time>
      </trkpt>
      <trkpt lat="42.52658" lon="0.21579">
        <ele>796.9</ele>
        <time>2016-07-23T10:55:37Z</time>
      </trkpt>
      <trkpt lat="42.5266" lon="0.21574">
        <ele>796.7</ele>
        <time>2016-07-23T10:55:39Z</time>
      </trkpt>
      <trkpt lat="42.52661" lon="0.21569">
        <ele>796.5</ele>
        <time>2016-07-23T10:55:41Z</time>
      </trkpt>
      <trkpt lat="42.52662" lon="0.21564">
        <ele>796.3</ele>
        <time>2016-07-23T10:55:43Z</time>
      </trkpt>
      <trkpt lat="42.52664" lon="0.2156">
        <ele>795.9</ele>
        <time>2016-07-23T10:55:45Z</time>
      </trkpt>
      <trkpt lat="42.52665" lon="0.21555">
        <ele>795.4</ele>
        <time>2016-07-23T10:55:47Z</time>
      </trkpt>
      <trkpt lat="42.52667" lon="0.21551">
        <ele>794.9</ele>
        <time>2016-07-23T10:55:48Z</time>
      </trkpt>
      <trkpt lat="42.5267" lon="0.21546">
        <ele>794</ele>
        <time>2016-07-23T10:55:49Z</time>
      </trkpt>
      <trkpt lat="42.52672" lon="0.21543">
        <ele>793.3</ele>
        <time>2016-07-23T10:55:50Z</time>
      </trkpt>
      <trkpt lat="42.52674" lon="0.2154">
        <ele>793</ele>
        <time>2016-07-23T10:55:51Z</time>
      </trkpt>
      <trkpt lat="42.52676" lon="0.21537">
        <ele>793.1</ele>
        <time>2016-07-23T10:55:52Z</time>
      </trkpt>
      <trkpt lat="42.5268" lon="0.21533">
        <ele>792.7</ele>
        <time>2016-07-23T10:55:54Z</time>
      </trkpt>
      <trkpt lat="42.52684" lon="0.21532">
        <ele>791.9</ele>
        <time>2016-07-23T10:55:55Z</time>
      </trkpt>
      <trkpt lat="42.52687" lon="0.21531">
        <ele>790.9</ele>
        <time>2016-07-23T10:55:56Z</time>
      </trkpt>
      <trkpt lat="42.5269" lon="0.21531">
        <ele>789.9</ele>
        <time>2016-07-23T10:55:57Z</time>
      </trkpt>
      <trkpt lat="42.52693" lon="0.21529">
        <ele>789.3</ele>
        <time>2016-07-23T10:55:58Z</time>
      </trkpt>
      <trkpt lat="42.52696" lon="0.21526">
        <ele>788.7</ele>
        <time>2016-07-23T10:56:00Z</time>
      </trkpt>
      <trkpt lat="42.52698" lon="0.21524">
        <ele>788.2</ele>
        <time>2016-07-23T10:56:06Z</time>
      </trkpt>
      <trkpt lat="42.52697" lon="0.21519">
        <ele>789</ele>
        <time>2016-07-23T10:56:11Z</time>
      </trkpt>
      <trkpt lat="42.52696" lon="0.21515">
        <ele>789.7</ele>
        <time>2016-07-23T10:56:15Z</time>
      </trkpt>
      <trkpt lat="42.52697" lon="0.2151">
        <ele>789.8</ele>
        <time>2016-07-23T10:56:20Z</time>
      </trkpt>
      <trkpt lat="42.52698" lon="0.21506">
        <ele>789.8</ele>
        <time>2016-07-23T10:56:22Z</time>
      </trkpt>
      <trkpt lat="42.52698" lon="0.21502">
        <ele>790</ele>
        <time>2016-07-23T10:56:24Z</time>
      </trkpt>
      <trkpt lat="42.52697" lon="0.21497">
        <ele>790.8</ele>
        <time>2016-07-23T10:56:26Z</time>
      </trkpt>
      <trkpt lat="42.52697" lon="0.21492">
        <ele>791.1</ele>
        <time>2016-07-23T10:56:29Z</time>
      </trkpt>
      <trkpt lat="42.52699" lon="0.21486">
        <ele>790.7</ele>
        <time>2016-07-23T10:56:31Z</time>
      </trkpt>
      <trkpt lat="42.52701" lon="0.21482">
        <ele>790</ele>
        <time>2016-07-23T10:56:33Z</time>
      </trkpt>
      <trkpt lat="42.52702" lon="0.21479">
        <ele>789.2</ele>
        <time>2016-07-23T10:56:34Z</time>
      </trkpt>
      <trkpt lat="42.52704" lon="0.21474">
        <ele>788.5</ele>
        <time>2016-07-23T10:56:35Z</time>
      </trkpt>
      <trkpt lat="42.52705" lon="0.21468">
        <ele>788</ele>
        <time>2016-07-23T10:56:36Z</time>
      </trkpt>
      <trkpt lat="42.52706" lon="0.21463">
        <ele>787.6</ele>
        <time>2016-07-23T10:56:37Z</time>
      </trkpt>
      <trkpt lat="42.52707" lon="0.21458">
        <ele>787.2</ele>
        <time>2016-07-23T10:56:38Z</time>
      </trkpt>
      <trkpt lat="42.52708" lon="0.21453">
        <ele>787.5</ele>
        <time>2016-07-23T10:56:39Z</time>
      </trkpt>
      <trkpt lat="42.52709" lon="0.21448">
        <ele>787.8</ele>
        <time>2016-07-23T10:56:40Z</time>
      </trkpt>
      <trkpt lat="42.5271" lon="0.21443">
        <ele>789</ele>
        <time>2016-07-23T10:56:41Z</time>
      </trkpt>
      <trkpt lat="42.52712" lon="0.21438">
        <ele>790</ele>
        <time>2016-07-23T10:56:42Z</time>
      </trkpt>
      <trkpt lat="42.52713" lon="0.21434">
        <ele>791</ele>
        <time>2016-07-23T10:56:43Z</time>
      </trkpt>
      <trkpt lat="42.52715" lon="0.21429">
        <ele>791.8</ele>
        <time>2016-07-23T10:56:44Z</time>
      </trkpt>
      <trkpt lat="42.52717" lon="0.21426">
        <ele>792.5</ele>
        <time>2016-07-23T10:56:45Z</time>
      </trkpt>
      <trkpt lat="42.5272" lon="0.21422">
        <ele>793.1</ele>
        <time>2016-07-23T10:56:46Z</time>
      </trkpt>
      <trkpt lat="42.52722" lon="0.21419">
        <ele>793.7</ele>
        <time>2016-07-23T10:56:47Z</time>
      </trkpt>
      <trkpt lat="42.52724" lon="0.21415">
        <ele>794.2</ele>
        <time>2016-07-23T10:56:48Z</time>
      </trkpt>
      <trkpt lat="42.52725" lon="0.21411">
        <ele>794.5</ele>
        <time>2016-07-23T10:56:49Z</time>
      </trkpt>
      <trkpt lat="42.52727" lon="0.21408">
        <ele>794.8</ele>
        <time>2016-07-23T10:56:50Z</time>
      </trkpt>
      <trkpt lat="42.52729" lon="0.21402">
        <ele>795.1</ele>
        <time>2016-07-23T10:56:52Z</time>
      </trkpt>
      <trkpt lat="42.52731" lon="0.21395">
        <ele>795.4</ele>
        <time>2016-07-23T10:56:54Z</time>
      </trkpt>
      <trkpt lat="42.52733" lon="0.21392">
        <ele>795.4</ele>
        <time>2016-07-23T10:56:55Z</time>
      </trkpt>
      <trkpt lat="42.52734" lon="0.21388">
        <ele>795.4</ele>
        <time>2016-07-23T10:56:56Z</time>
      </trkpt>
      <trkpt lat="42.52736" lon="0.21383">
        <ele>795.3</ele>
        <time>2016-07-23T10:56:58Z</time>
      </trkpt>
      <trkpt lat="42.52739" lon="0.21376">
        <ele>794.9</ele>
        <time>2016-07-23T10:57:00Z</time>
      </trkpt>
      <trkpt lat="42.52741" lon="0.21373">
        <ele>794.7</ele>
        <time>2016-07-23T10:57:01Z</time>
      </trkpt>
      <trkpt lat="42.52743" lon="0.21369">
        <ele>794.3</ele>
        <time>2016-07-23T10:57:02Z</time>
      </trkpt>
      <trkpt lat="42.52746" lon="0.21365">
        <ele>793.8</ele>
        <time>2016-07-23T10:57:03Z</time>
      </trkpt>
      <trkpt lat="42.52748" lon="0.21362">
        <ele>793.2</ele>
        <time>2016-07-23T10:57:04Z</time>
      </trkpt>
      <trkpt lat="42.52751" lon="0.21359">
        <ele>792.6</ele>
        <time>2016-07-23T10:57:05Z</time>
      </trkpt>
      <trkpt lat="42.52753" lon="0.21356">
        <ele>791.9</ele>
        <time>2016-07-23T10:57:06Z</time>
      </trkpt>
      <trkpt lat="42.52755" lon="0.21354">
        <ele>791.3</ele>
        <time>2016-07-23T10:57:07Z</time>
      </trkpt>
      <trkpt lat="42.52757" lon="0.21351">
        <ele>790.6</ele>
        <time>2016-07-23T10:57:08Z</time>
      </trkpt>
      <trkpt lat="42.52759" lon="0.21348">
        <ele>789.8</ele>
        <time>2016-07-23T10:57:09Z</time>
      </trkpt>
      <trkpt lat="42.52762" lon="0.21344">
        <ele>788.5</ele>
        <time>2016-07-23T10:57:10Z</time>
      </trkpt>
      <trkpt lat="42.52765" lon="0.21339">
        <ele>787.1</ele>
        <time>2016-07-23T10:57:11Z</time>
      </trkpt>
      <trkpt lat="42.52767" lon="0.21335">
        <ele>785.8</ele>
        <time>2016-07-23T10:57:12Z</time>
      </trkpt>
      <trkpt lat="42.52769" lon="0.21332">
        <ele>784.6</ele>
        <time>2016-07-23T10:57:13Z</time>
      </trkpt>
      <trkpt lat="42.52771" lon="0.21329">
        <ele>783.5</ele>
        <time>2016-07-23T10:57:14Z</time>
      </trkpt>
      <trkpt lat="42.52774" lon="0.21323">
        <ele>781.3</ele>
        <time>2016-07-23T10:57:16Z</time>
      </trkpt>
      <trkpt lat="42.52775" lon="0.21319">
        <ele>780</ele>
        <time>2016-07-23T10:57:17Z</time>
      </trkpt>
      <trkpt lat="42.52777" lon="0.21315">
        <ele>778.5</ele>
        <time>2016-07-23T10:57:18Z</time>
      </trkpt>
      <trkpt lat="42.52779" lon="0.21312">
        <ele>777</ele>
        <time>2016-07-23T10:57:19Z</time>
      </trkpt>
      <trkpt lat="42.52781" lon="0.21308">
        <ele>775.3</ele>
        <time>2016-07-23T10:57:20Z</time>
      </trkpt>
      <trkpt lat="42.52783" lon="0.21305">
        <ele>773.4</ele>
        <time>2016-07-23T10:57:21Z</time>
      </trkpt>
      <trkpt lat="42.52785" lon="0.21301">
        <ele>771.3</ele>
        <time>2016-07-23T10:57:22Z</time>
      </trkpt>
      <trkpt lat="42.52787" lon="0.21297">
        <ele>769</ele>
        <time>2016-07-23T10:57:23Z</time>
      </trkpt>
      <trkpt lat="42.5279" lon="0.21294">
        <ele>766.5</ele>
        <time>2016-07-23T10:57:24Z</time>
      </trkpt>
      <trkpt lat="42.52793" lon="0.21291">
        <ele>765.8</ele>
        <time>2016-07-23T10:57:25Z</time>
      </trkpt>
      <trkpt lat="42.52796" lon="0.21288">
        <ele>767</ele>
        <time>2016-07-23T10:57:26Z</time>
      </trkpt>
      <trkpt lat="42.528" lon="0.21283">
        <ele>768.8</ele>
        <time>2016-07-23T10:57:28Z</time>
      </trkpt>
      <trkpt lat="42.52802" lon="0.21279">
        <ele>769.7</ele>
        <time>2016-07-23T10:57:30Z</time>
      </trkpt>
      <trkpt lat="42.52804" lon="0.21275">
        <ele>770.5</ele>
        <time>2016-07-23T10:57:32Z</time>
      </trkpt>
      <trkpt lat="42.52806" lon="0.21271">
        <ele>771.2</ele>
        <time>2016-07-23T10:57:34Z</time>
      </trkpt>
      <trkpt lat="42.52808" lon="0.21266">
        <ele>771.7</ele>
        <time>2016-07-23T10:57:36Z</time>
      </trkpt>
      <trkpt lat="42.52811" lon="0.21261">
        <ele>772.5</ele>
        <time>2016-07-23T10:57:38Z</time>
      </trkpt>
      <trkpt lat="42.52814" lon="0.21257">
        <ele>773.6</ele>
        <time>2016-07-23T10:57:40Z</time>
      </trkpt>
      <trkpt lat="42.52817" lon="0.21252">
        <ele>774.3</ele>
        <time>2016-07-23T10:57:42Z</time>
      </trkpt>
      <trkpt lat="42.52819" lon="0.21248">
        <ele>774.5</ele>
        <time>2016-07-23T10:57:44Z</time>
      </trkpt>
      <trkpt lat="42.52822" lon="0.21242">
        <ele>774.7</ele>
        <time>2016-07-23T10:57:46Z</time>
      </trkpt>
      <trkpt lat="42.52824" lon="0.21237">
        <ele>774.8</ele>
        <time>2016-07-23T10:57:48Z</time>
      </trkpt>
      <trkpt lat="42.52827" lon="0.21234">
        <ele>775.1</ele>
        <time>2016-07-23T10:57:50Z</time>
      </trkpt>
      <trkpt lat="42.5283" lon="0.21229">
        <ele>775.4</ele>
        <time>2016-07-23T10:57:52Z</time>
      </trkpt>
      <trkpt lat="42.52833" lon="0.21226">
        <ele>775.7</ele>
        <time>2016-07-23T10:57:54Z</time>
      </trkpt>
      <trkpt lat="42.52835" lon="0.21223">
        <ele>775.9</ele>
        <time>2016-07-23T10:57:55Z</time>
      </trkpt>
      <trkpt lat="42.52837" lon="0.21221">
        <ele>776</ele>
        <time>2016-07-23T10:57:56Z</time>
      </trkpt>
      <trkpt lat="42.5284" lon="0.21218">
        <ele>776.1</ele>
        <time>2016-07-23T10:57:57Z</time>
      </trkpt>
      <trkpt lat="42.52842" lon="0.21216">
        <ele>776</ele>
        <time>2016-07-23T10:57:58Z</time>
      </trkpt>
      <trkpt lat="42.52844" lon="0.21213">
        <ele>776</ele>
        <time>2016-07-23T10:57:59Z</time>
      </trkpt>
      <trkpt lat="42.52848" lon="0.2121">
        <ele>776.1</ele>
        <time>2016-07-23T10:58:01Z</time>
      </trkpt>
      <trkpt lat="42.52851" lon="0.21208">
        <ele>776.3</ele>
        <time>2016-07-23T10:58:02Z</time>
      </trkpt>
      <trkpt lat="42.52854" lon="0.21206">
        <ele>776.5</ele>
        <time>2016-07-23T10:58:03Z</time>
      </trkpt>
      <trkpt lat="42.52856" lon="0.21205">
        <ele>776.8</ele>
        <time>2016-07-23T10:58:04Z</time>
      </trkpt>
      <trkpt lat="42.52859" lon="0.21203">
        <ele>777</ele>
        <time>2016-07-23T10:58:05Z</time>
      </trkpt>
      <trkpt lat="42.52862" lon="0.21202">
        <ele>777.2</ele>
        <time>2016-07-23T10:58:06Z</time>
      </trkpt>
      <trkpt lat="42.52865" lon="0.212">
        <ele>777.3</ele>
        <time>2016-07-23T10:58:07Z</time>
      </trkpt>
      <trkpt lat="42.52868" lon="0.21199">
        <ele>777.5</ele>
        <time>2016-07-23T10:58:08Z</time>
      </trkpt>
      <trkpt lat="42.52871" lon="0.21199">
        <ele>777.8</ele>
        <time>2016-07-23T10:58:09Z</time>
      </trkpt>
      <trkpt lat="42.52876" lon="0.212">
        <ele>778.9</ele>
        <time>2016-07-23T10:58:11Z</time>
      </trkpt>
      <trkpt lat="42.52878" lon="0.21202">
        <ele>780.1</ele>
        <time>2016-07-23T10:58:12Z</time>
      </trkpt>
      <trkpt lat="42.52881" lon="0.21205">
        <ele>781.6</ele>
        <time>2016-07-23T10:58:13Z</time>
      </trkpt>
      <trkpt lat="42.52884" lon="0.21208">
        <ele>783.4</ele>
        <time>2016-07-23T10:58:14Z</time>
      </trkpt>
      <trkpt lat="42.52887" lon="0.21211">
        <ele>785.1</ele>
        <time>2016-07-23T10:58:15Z</time>
      </trkpt>
      <trkpt lat="42.5289" lon="0.21214">
        <ele>786.7</ele>
        <time>2016-07-23T10:58:16Z</time>
      </trkpt>
      <trkpt lat="42.52894" lon="0.21216">
        <ele>788.5</ele>
        <time>2016-07-23T10:58:17Z</time>
      </trkpt>
      <trkpt lat="42.52897" lon="0.21219">
        <ele>790.2</ele>
        <time>2016-07-23T10:58:18Z</time>
      </trkpt>
      <trkpt lat="42.52902" lon="0.2122">
        <ele>791.6</ele>
        <time>2016-07-23T10:58:19Z</time>
      </trkpt>
      <trkpt lat="42.52905" lon="0.2122">
        <ele>792.5</ele>
        <time>2016-07-23T10:58:21Z</time>
      </trkpt>
      <trkpt lat="42.52906" lon="0.21214">
        <ele>790.8</ele>
        <time>2016-07-23T10:58:25Z</time>
      </trkpt>
      <trkpt lat="42.52907" lon="0.2121">
        <ele>789.8</ele>
        <time>2016-07-23T10:58:26Z</time>
      </trkpt>
      <trkpt lat="42.52909" lon="0.21205">
        <ele>788.8</ele>
        <time>2016-07-23T10:58:27Z</time>
      </trkpt>
      <trkpt lat="42.52911" lon="0.212">
        <ele>787.6</ele>
        <time>2016-07-23T10:58:28Z</time>
      </trkpt>
      <trkpt lat="42.52912" lon="0.21195">
        <ele>786.4</ele>
        <time>2016-07-23T10:58:29Z</time>
      </trkpt>
      <trkpt lat="42.52914" lon="0.2119">
        <ele>785.1</ele>
        <time>2016-07-23T10:58:30Z</time>
      </trkpt>
      <trkpt lat="42.52916" lon="0.21185">
        <ele>783.6</ele>
        <time>2016-07-23T10:58:31Z</time>
      </trkpt>
      <trkpt lat="42.52917" lon="0.2118">
        <ele>782.3</ele>
        <time>2016-07-23T10:58:32Z</time>
      </trkpt>
      <trkpt lat="42.52918" lon="0.21176">
        <ele>781.2</ele>
        <time>2016-07-23T10:58:33Z</time>
      </trkpt>
      <trkpt lat="42.52918" lon="0.21172">
        <ele>779.9</ele>
        <time>2016-07-23T10:58:34Z</time>
      </trkpt>
      <trkpt lat="42.52919" lon="0.21167">
        <ele>778.4</ele>
        <time>2016-07-23T10:58:35Z</time>
      </trkpt>
      <trkpt lat="42.52919" lon="0.21163">
        <ele>776.8</ele>
        <time>2016-07-23T10:58:36Z</time>
      </trkpt>
      <trkpt lat="42.5292" lon="0.21159">
        <ele>775.6</ele>
        <time>2016-07-23T10:58:37Z</time>
      </trkpt>
      <trkpt lat="42.52922" lon="0.21152">
        <ele>773.7</ele>
        <time>2016-07-23T10:58:39Z</time>
      </trkpt>
      <trkpt lat="42.52925" lon="0.21147">
        <ele>772.4</ele>
        <time>2016-07-23T10:58:41Z</time>
      </trkpt>
      <trkpt lat="42.52928" lon="0.21144">
        <ele>771.9</ele>
        <time>2016-07-23T10:58:43Z</time>
      </trkpt>
      <trkpt lat="42.52931" lon="0.21142">
        <ele>771.5</ele>
        <time>2016-07-23T10:58:45Z</time>
      </trkpt>
      <trkpt lat="42.52935" lon="0.21137">
        <ele>770.2</ele>
        <time>2016-07-23T10:58:47Z</time>
      </trkpt>
      <trkpt lat="42.52937" lon="0.21134">
        <ele>769.4</ele>
        <time>2016-07-23T10:58:48Z</time>
      </trkpt>
      <trkpt lat="42.52941" lon="0.21131">
        <ele>768.9</ele>
        <time>2016-07-23T10:58:49Z</time>
      </trkpt>
      <trkpt lat="42.52944" lon="0.21129">
        <ele>768.7</ele>
        <time>2016-07-23T10:58:50Z</time>
      </trkpt>
      <trkpt lat="42.52948" lon="0.21128">
        <ele>768.6</ele>
        <time>2016-07-23T10:58:51Z</time>
      </trkpt>
      <trkpt lat="42.52952" lon="0.21126">
        <ele>768.4</ele>
        <time>2016-07-23T10:58:52Z</time>
      </trkpt>
      <trkpt lat="42.52955" lon="0.21124">
        <ele>768.4</ele>
        <time>2016-07-23T10:58:53Z</time>
      </trkpt>
      <trkpt lat="42.52958" lon="0.21122">
        <ele>768.6</ele>
        <time>2016-07-23T10:58:54Z</time>
      </trkpt>
      <trkpt lat="42.52961" lon="0.21121">
        <ele>769.3</ele>
        <time>2016-07-23T10:58:55Z</time>
      </trkpt>
      <trkpt lat="42.52964" lon="0.21119">
        <ele>770.1</ele>
        <time>2016-07-23T10:58:56Z</time>
      </trkpt>
      <trkpt lat="42.52967" lon="0.21117">
        <ele>770.7</ele>
        <time>2016-07-23T10:58:57Z</time>
      </trkpt>
      <trkpt lat="42.5297" lon="0.21116">
        <ele>771.3</ele>
        <time>2016-07-23T10:58:58Z</time>
      </trkpt>
      <trkpt lat="42.52974" lon="0.21114">
        <ele>772.1</ele>
        <time>2016-07-23T10:58:59Z</time>
      </trkpt>
      <trkpt lat="42.52978" lon="0.21112">
        <ele>772.7</ele>
        <time>2016-07-23T10:59:00Z</time>
      </trkpt>
      <trkpt lat="42.52982" lon="0.21108">
        <ele>773</ele>
        <time>2016-07-23T10:59:01Z</time>
      </trkpt>
      <trkpt lat="42.52985" lon="0.21105">
        <ele>773</ele>
        <time>2016-07-23T10:59:02Z</time>
      </trkpt>
      <trkpt lat="42.52988" lon="0.21101">
        <ele>772.8</ele>
        <time>2016-07-23T10:59:03Z</time>
      </trkpt>
      <trkpt lat="42.5299" lon="0.21097">
        <ele>772.3</ele>
        <time>2016-07-23T10:59:04Z</time>
      </trkpt>
      <trkpt lat="42.52993" lon="0.21092">
        <ele>771.7</ele>
        <time>2016-07-23T10:59:05Z</time>
      </trkpt>
      <trkpt lat="42.52997" lon="0.21088">
        <ele>771</ele>
        <time>2016-07-23T10:59:06Z</time>
      </trkpt>
      <trkpt lat="42.53001" lon="0.21084">
        <ele>770.6</ele>
        <time>2016-07-23T10:59:07Z</time>
      </trkpt>
      <trkpt lat="42.53005" lon="0.21081">
        <ele>770.2</ele>
        <time>2016-07-23T10:59:08Z</time>
      </trkpt>
      <trkpt lat="42.5301" lon="0.21077">
        <ele>769.6</ele>
        <time>2016-07-23T10:59:09Z</time>
      </trkpt>
      <trkpt lat="42.53014" lon="0.21073">
        <ele>768.8</ele>
        <time>2016-07-23T10:59:10Z</time>
      </trkpt>
      <trkpt lat="42.53018" lon="0.2107">
        <ele>768.1</ele>
        <time>2016-07-23T10:59:11Z</time>
      </trkpt>
      <trkpt lat="42.53022" lon="0.21068">
        <ele>767.6</ele>
        <time>2016-07-23T10:59:12Z</time>
      </trkpt>
      <trkpt lat="42.53026" lon="0.21066">
        <ele>767.1</ele>
        <time>2016-07-23T10:59:13Z</time>
      </trkpt>
      <trkpt lat="42.53029" lon="0.21065">
        <ele>767</ele>
        <time>2016-07-23T10:59:14Z</time>
      </trkpt>
      <trkpt lat="42.53033" lon="0.21064">
        <ele>767.2</ele>
        <time>2016-07-23T10:59:16Z</time>
      </trkpt>
      <trkpt lat="42.53037" lon="0.21061">
        <ele>765.9</ele>
        <time>2016-07-23T10:59:18Z</time>
      </trkpt>
      <trkpt lat="42.53039" lon="0.21055">
        <ele>763.3</ele>
        <time>2016-07-23T10:59:20Z</time>
      </trkpt>
      <trkpt lat="42.5304" lon="0.21051">
        <ele>761.2</ele>
        <time>2016-07-23T10:59:21Z</time>
      </trkpt>
      <trkpt lat="42.53041" lon="0.21046">
        <ele>759.1</ele>
        <time>2016-07-23T10:59:22Z</time>
      </trkpt>
      <trkpt lat="42.53042" lon="0.21042">
        <ele>757.2</ele>
        <time>2016-07-23T10:59:23Z</time>
      </trkpt>
      <trkpt lat="42.53044" lon="0.21038">
        <ele>757.7</ele>
        <time>2016-07-23T10:59:24Z</time>
      </trkpt>
      <trkpt lat="42.53045" lon="0.21034">
        <ele>758.4</ele>
        <time>2016-07-23T10:59:25Z</time>
      </trkpt>
      <trkpt lat="42.53047" lon="0.21031">
        <ele>759</ele>
        <time>2016-07-23T10:59:26Z</time>
      </trkpt>
      <trkpt lat="42.5305" lon="0.21028">
        <ele>759.7</ele>
        <time>2016-07-23T10:59:27Z</time>
      </trkpt>
      <trkpt lat="42.53053" lon="0.21024">
        <ele>760.7</ele>
        <time>2016-07-23T10:59:28Z</time>
      </trkpt>
      <trkpt lat="42.53056" lon="0.21021">
        <ele>761.6</ele>
        <time>2016-07-23T10:59:29Z</time>
      </trkpt>
      <trkpt lat="42.5306" lon="0.21018">
        <ele>762.5</ele>
        <time>2016-07-23T10:59:30Z</time>
      </trkpt>
      <trkpt lat="42.53064" lon="0.21014">
        <ele>763.6</ele>
        <time>2016-07-23T10:59:31Z</time>
      </trkpt>
      <trkpt lat="42.53068" lon="0.21012">
        <ele>764.5</ele>
        <time>2016-07-23T10:59:32Z</time>
      </trkpt>
      <trkpt lat="42.53072" lon="0.2101">
        <ele>765.3</ele>
        <time>2016-07-23T10:59:33Z</time>
      </trkpt>
      <trkpt lat="42.53075" lon="0.21009">
        <ele>766.1</ele>
        <time>2016-07-23T10:59:34Z</time>
      </trkpt>
      <trkpt lat="42.53078" lon="0.21011">
        <ele>767.3</ele>
        <time>2016-07-23T10:59:38Z</time>
      </trkpt>
      <trkpt lat="42.53081" lon="0.2101">
        <ele>768</ele>
        <time>2016-07-23T10:59:41Z</time>
      </trkpt>
      <trkpt lat="42.53081" lon="0.21006">
        <ele>767.3</ele>
        <time>2016-07-23T10:59:44Z</time>
      </trkpt>
      <trkpt lat="42.53081" lon="0.21003">
        <ele>766.6</ele>
        <time>2016-07-23T10:59:46Z</time>
      </trkpt>
      <trkpt lat="42.53082" lon="0.20999">
        <ele>766.2</ele>
        <time>2016-07-23T10:59:49Z</time>
      </trkpt>
      <trkpt lat="42.53083" lon="0.20995">
        <ele>765.7</ele>
        <time>2016-07-23T10:59:51Z</time>
      </trkpt>
      <trkpt lat="42.53084" lon="0.20991">
        <ele>765.1</ele>
        <time>2016-07-23T10:59:52Z</time>
      </trkpt>
      <trkpt lat="42.53086" lon="0.20986">
        <ele>764.5</ele>
        <time>2016-07-23T10:59:53Z</time>
      </trkpt>
      <trkpt lat="42.53087" lon="0.2098">
        <ele>763.7</ele>
        <time>2016-07-23T10:59:54Z</time>
      </trkpt>
      <trkpt lat="42.53089" lon="0.20976">
        <ele>763</ele>
        <time>2016-07-23T10:59:55Z</time>
      </trkpt>
      <trkpt lat="42.5309" lon="0.20971">
        <ele>762.2</ele>
        <time>2016-07-23T10:59:56Z</time>
      </trkpt>
      <trkpt lat="42.53092" lon="0.20966">
        <ele>761.3</ele>
        <time>2016-07-23T10:59:57Z</time>
      </trkpt>
      <trkpt lat="42.53095" lon="0.20961">
        <ele>760.4</ele>
        <time>2016-07-23T10:59:58Z</time>
      </trkpt>
      <trkpt lat="42.53098" lon="0.20956">
        <ele>760</ele>
        <time>2016-07-23T10:59:59Z</time>
      </trkpt>
      <trkpt lat="42.531" lon="0.20953">
        <ele>760.1</ele>
        <time>2016-07-23T11:00:00Z</time>
      </trkpt>
      <trkpt lat="42.53102" lon="0.2095">
        <ele>760</ele>
        <time>2016-07-23T11:00:01Z</time>
      </trkpt>
      <trkpt lat="42.53106" lon="0.20945">
        <ele>759.8</ele>
        <time>2016-07-23T11:00:03Z</time>
      </trkpt>
      <trkpt lat="42.53109" lon="0.2094">
        <ele>759.3</ele>
        <time>2016-07-23T11:00:05Z</time>
      </trkpt>
      <trkpt lat="42.53111" lon="0.20937">
        <ele>758.9</ele>
        <time>2016-07-23T11:00:06Z</time>
      </trkpt>
      <trkpt lat="42.53113" lon="0.20934">
        <ele>758.4</ele>
        <time>2016-07-23T11:00:07Z</time>
      </trkpt>
      <trkpt lat="42.53117" lon="0.20929">
        <ele>757.4</ele>
        <time>2016-07-23T11:00:09Z</time>
      </trkpt>
      <trkpt lat="42.53119" lon="0.20926">
        <ele>756.7</ele>
        <time>2016-07-23T11:00:10Z</time>
      </trkpt>
      <trkpt lat="42.53121" lon="0.20922">
        <ele>755.7</ele>
        <time>2016-07-23T11:00:11Z</time>
      </trkpt>
      <trkpt lat="42.53123" lon="0.20917">
        <ele>754.4</ele>
        <time>2016-07-23T11:00:12Z</time>
      </trkpt>
      <trkpt lat="42.53125" lon="0.20912">
        <ele>753.2</ele>
        <time>2016-07-23T11:00:13Z</time>
      </trkpt>
      <trkpt lat="42.53127" lon="0.20908">
        <ele>753.2</ele>
        <time>2016-07-23T11:00:14Z</time>
      </trkpt>
      <trkpt lat="42.53129" lon="0.20903">
        <ele>753.1</ele>
        <time>2016-07-23T11:00:15Z</time>
      </trkpt>
      <trkpt lat="42.5313" lon="0.20897">
        <ele>752.7</ele>
        <time>2016-07-23T11:00:16Z</time>
      </trkpt>
      <trkpt lat="42.5313" lon="0.20893">
        <ele>752.1</ele>
        <time>2016-07-23T11:00:17Z</time>
      </trkpt>
      <trkpt lat="42.5313" lon="0.20886">
        <ele>750.7</ele>
        <time>2016-07-23T11:00:19Z</time>
      </trkpt>
      <trkpt lat="42.53131" lon="0.20881">
        <ele>750</ele>
        <time>2016-07-23T11:00:20Z</time>
      </trkpt>
      <trkpt lat="42.53132" lon="0.20875">
        <ele>749.3</ele>
        <time>2016-07-23T11:00:21Z</time>
      </trkpt>
      <trkpt lat="42.53133" lon="0.20868">
        <ele>750.3</ele>
        <time>2016-07-23T11:00:22Z</time>
      </trkpt>
      <trkpt lat="42.53134" lon="0.20862">
        <ele>751.1</ele>
        <time>2016-07-23T11:00:23Z</time>
      </trkpt>
      <trkpt lat="42.53135" lon="0.20858">
        <ele>751.6</ele>
        <time>2016-07-23T11:00:24Z</time>
      </trkpt>
      <trkpt lat="42.53136" lon="0.20854">
        <ele>752.1</ele>
        <time>2016-07-23T11:00:25Z</time>
      </trkpt>
      <trkpt lat="42.53136" lon="0.20849">
        <ele>752.4</ele>
        <time>2016-07-23T11:00:26Z</time>
      </trkpt>
      <trkpt lat="42.53137" lon="0.20845">
        <ele>752.7</ele>
        <time>2016-07-23T11:00:27Z</time>
      </trkpt>
      <trkpt lat="42.53137" lon="0.2084">
        <ele>753.2</ele>
        <time>2016-07-23T11:00:28Z</time>
      </trkpt>
      <trkpt lat="42.53139" lon="0.20835">
        <ele>753.7</ele>
        <time>2016-07-23T11:00:29Z</time>
      </trkpt>
      <trkpt lat="42.5314" lon="0.2083">
        <ele>754.2</ele>
        <time>2016-07-23T11:00:30Z</time>
      </trkpt>
      <trkpt lat="42.53142" lon="0.20826">
        <ele>754.7</ele>
        <time>2016-07-23T11:00:31Z</time>
      </trkpt>
      <trkpt lat="42.53144" lon="0.20823">
        <ele>755.2</ele>
        <time>2016-07-23T11:00:32Z</time>
      </trkpt>
      <trkpt lat="42.53146" lon="0.2082">
        <ele>755.6</ele>
        <time>2016-07-23T11:00:33Z</time>
      </trkpt>
      <trkpt lat="42.53148" lon="0.20818">
        <ele>756.1</ele>
        <time>2016-07-23T11:00:34Z</time>
      </trkpt>
      <trkpt lat="42.53151" lon="0.20816">
        <ele>756.7</ele>
        <time>2016-07-23T11:00:35Z</time>
      </trkpt>
      <trkpt lat="42.53156" lon="0.20816">
        <ele>757.6</ele>
        <time>2016-07-23T11:00:37Z</time>
      </trkpt>
      <trkpt lat="42.5316" lon="0.20817">
        <ele>758.4</ele>
        <time>2016-07-23T11:00:39Z</time>
      </trkpt>
      <trkpt lat="42.53163" lon="0.20816">
        <ele>759</ele>
        <time>2016-07-23T11:00:41Z</time>
      </trkpt>
      <trkpt lat="42.53164" lon="0.20811">
        <ele>758.7</ele>
        <time>2016-07-23T11:00:44Z</time>
      </trkpt>
      <trkpt lat="42.53164" lon="0.20807">
        <ele>758.3</ele>
        <time>2016-07-23T11:00:51Z</time>
      </trkpt>
      <trkpt lat="42.53163" lon="0.20803">
        <ele>757.8</ele>
        <time>2016-07-23T11:01:02Z</time>
      </trkpt>
      <trkpt lat="42.53161" lon="0.208">
        <ele>757.2</ele>
        <time>2016-07-23T11:01:07Z</time>
      </trkpt>
      <trkpt lat="42.5316" lon="0.20797">
        <ele>756.9</ele>
        <time>2016-07-23T11:01:10Z</time>
      </trkpt>
      <trkpt lat="42.53162" lon="0.20795">
        <ele>756.9</ele>
        <time>2016-07-23T11:01:13Z</time>
      </trkpt>
      <trkpt lat="42.53166" lon="0.20798">
        <ele>757.6</ele>
        <time>2016-07-23T11:01:20Z</time>
      </trkpt>
      <trkpt lat="42.53171" lon="0.20798">
        <ele>758</ele>
        <time>2016-07-23T11:01:36Z</time>
      </trkpt>
      <trkpt lat="42.53174" lon="0.20795">
        <ele>758</ele>
        <time>2016-07-23T11:01:40Z</time>
      </trkpt>
      <trkpt lat="42.53175" lon="0.20789">
        <ele>757.5</ele>
        <time>2016-07-23T11:01:44Z</time>
      </trkpt>
      <trkpt lat="42.53177" lon="0.20786">
        <ele>757.3</ele>
        <time>2016-07-23T11:01:46Z</time>
      </trkpt>
      <trkpt lat="42.53179" lon="0.20783">
        <ele>757.2</ele>
        <time>2016-07-23T11:01:48Z</time>
      </trkpt>
      <trkpt lat="42.53182" lon="0.2078">
        <ele>757</ele>
        <time>2016-07-23T11:01:50Z</time>
      </trkpt>
      <trkpt lat="42.53185" lon="0.20777">
        <ele>756.8</ele>
        <time>2016-07-23T11:01:53Z</time>
      </trkpt>
      <trkpt lat="42.53188" lon="0.20774">
        <ele>756.6</ele>
        <time>2016-07-23T11:01:56Z</time>
      </trkpt>
      <trkpt lat="42.53191" lon="0.20771">
        <ele>756.3</ele>
        <time>2016-07-23T11:01:59Z</time>
      </trkpt>
      <trkpt lat="42.53194" lon="0.20767">
        <ele>755.8</ele>
        <time>2016-07-23T11:02:01Z</time>
      </trkpt>
      <trkpt lat="42.53198" lon="0.20765">
        <ele>755.3</ele>
        <time>2016-07-23T11:02:03Z</time>
      </trkpt>
      <trkpt lat="42.53201" lon="0.20764">
        <ele>755.1</ele>
        <time>2016-07-23T11:02:05Z</time>
      </trkpt>
      <trkpt lat="42.53206" lon="0.20761">
        <ele>754.6</ele>
        <time>2016-07-23T11:02:07Z</time>
      </trkpt>
      <trkpt lat="42.5321" lon="0.20757">
        <ele>754</ele>
        <time>2016-07-23T11:02:09Z</time>
      </trkpt>
      <trkpt lat="42.53213" lon="0.20755">
        <ele>753.8</ele>
        <time>2016-07-23T11:02:10Z</time>
      </trkpt>
      <trkpt lat="42.53216" lon="0.20752">
        <ele>753.7</ele>
        <time>2016-07-23T11:02:12Z</time>
      </trkpt>
      <trkpt lat="42.53219" lon="0.20749">
        <ele>753.4</ele>
        <time>2016-07-23T11:02:14Z</time>
      </trkpt>
      <trkpt lat="42.53221" lon="0.20746">
        <ele>753.1</ele>
        <time>2016-07-23T11:02:16Z</time>
      </trkpt>
      <trkpt lat="42.53225" lon="0.20741">
        <ele>752.6</ele>
        <time>2016-07-23T11:02:18Z</time>
      </trkpt>
      <trkpt lat="42.53228" lon="0.20739">
        <ele>752.3</ele>
        <time>2016-07-23T11:02:19Z</time>
      </trkpt>
      <trkpt lat="42.53232" lon="0.20735">
        <ele>752</ele>
        <time>2016-07-23T11:02:20Z</time>
      </trkpt>
      <trkpt lat="42.53236" lon="0.20732">
        <ele>751.7</ele>
        <time>2016-07-23T11:02:21Z</time>
      </trkpt>
      <trkpt lat="42.53241" lon="0.2073">
        <ele>751.6</ele>
        <time>2016-07-23T11:02:22Z</time>
      </trkpt>
      <trkpt lat="42.53246" lon="0.20728">
        <ele>751.5</ele>
        <time>2016-07-23T11:02:23Z</time>
      </trkpt>
      <trkpt lat="42.5325" lon="0.20726">
        <ele>751.4</ele>
        <time>2016-07-23T11:02:24Z</time>
      </trkpt>
      <trkpt lat="42.53252" lon="0.20725">
        <ele>751.3</ele>
        <time>2016-07-23T11:02:25Z</time>
      </trkpt>
      <trkpt lat="42.53255" lon="0.20723">
        <ele>751</ele>
        <time>2016-07-23T11:02:26Z</time>
      </trkpt>
      <trkpt lat="42.53257" lon="0.20721">
        <ele>750.6</ele>
        <time>2016-07-23T11:02:27Z</time>
      </trkpt>
      <trkpt lat="42.53259" lon="0.20716">
        <ele>749.5</ele>
        <time>2016-07-23T11:02:29Z</time>
      </trkpt>
      <trkpt lat="42.53258" lon="0.2071">
        <ele>747.9</ele>
        <time>2016-07-23T11:02:32Z</time>
      </trkpt>
      <trkpt lat="42.53258" lon="0.20705">
        <ele>747.3</ele>
        <time>2016-07-23T11:02:34Z</time>
      </trkpt>
      <trkpt lat="42.53259" lon="0.20697">
        <ele>747.3</ele>
        <time>2016-07-23T11:02:36Z</time>
      </trkpt>
      <trkpt lat="42.5326" lon="0.20694">
        <ele>747.2</ele>
        <time>2016-07-23T11:02:37Z</time>
      </trkpt>
      <trkpt lat="42.53261" lon="0.20689">
        <ele>747.1</ele>
        <time>2016-07-23T11:02:38Z</time>
      </trkpt>
      <trkpt lat="42.53262" lon="0.20683">
        <ele>746.8</ele>
        <time>2016-07-23T11:02:39Z</time>
      </trkpt>
      <trkpt lat="42.53263" lon="0.20677">
        <ele>746.5</ele>
        <time>2016-07-23T11:02:40Z</time>
      </trkpt>
      <trkpt lat="42.53264" lon="0.2067">
        <ele>746.1</ele>
        <time>2016-07-23T11:02:41Z</time>
      </trkpt>
      <trkpt lat="42.53265" lon="0.20665">
        <ele>745.8</ele>
        <time>2016-07-23T11:02:42Z</time>
      </trkpt>
      <trkpt lat="42.53266" lon="0.20661">
        <ele>745.3</ele>
        <time>2016-07-23T11:02:43Z</time>
      </trkpt>
      <trkpt lat="42.53268" lon="0.20656">
        <ele>744.6</ele>
        <time>2016-07-23T11:02:44Z</time>
      </trkpt>
      <trkpt lat="42.53271" lon="0.20652">
        <ele>743.5</ele>
        <time>2016-07-23T11:02:45Z</time>
      </trkpt>
      <trkpt lat="42.53274" lon="0.20647">
        <ele>742.2</ele>
        <time>2016-07-23T11:02:46Z</time>
      </trkpt>
      <trkpt lat="42.53277" lon="0.20641">
        <ele>740.7</ele>
        <time>2016-07-23T11:02:47Z</time>
      </trkpt>
      <trkpt lat="42.53279" lon="0.20634">
        <ele>739.2</ele>
        <time>2016-07-23T11:02:48Z</time>
      </trkpt>
      <trkpt lat="42.5328" lon="0.20628">
        <ele>738.1</ele>
        <time>2016-07-23T11:02:49Z</time>
      </trkpt>
      <trkpt lat="42.5328" lon="0.20622">
        <ele>738.1</ele>
        <time>2016-07-23T11:02:50Z</time>
      </trkpt>
      <trkpt lat="42.53281" lon="0.20616">
        <ele>739</ele>
        <time>2016-07-23T11:02:51Z</time>
      </trkpt>
      <trkpt lat="42.53281" lon="0.20612">
        <ele>739.7</ele>
        <time>2016-07-23T11:02:52Z</time>
      </trkpt>
      <trkpt lat="42.53281" lon="0.20607">
        <ele>740.1</ele>
        <time>2016-07-23T11:02:53Z</time>
      </trkpt>
      <trkpt lat="42.53283" lon="0.20604">
        <ele>739.8</ele>
        <time>2016-07-23T11:02:57Z</time>
      </trkpt>
      <trkpt lat="42.53286" lon="0.20601">
        <ele>739</ele>
        <time>2016-07-23T11:03:04Z</time>
      </trkpt>
      <trkpt lat="42.53288" lon="0.20594">
        <ele>739.3</ele>
        <time>2016-07-23T11:03:06Z</time>
      </trkpt>
      <trkpt lat="42.53288" lon="0.20589">
        <ele>739.5</ele>
        <time>2016-07-23T11:03:07Z</time>
      </trkpt>
      <trkpt lat="42.53289" lon="0.20585">
        <ele>739.7</ele>
        <time>2016-07-23T11:03:08Z</time>
      </trkpt>
      <trkpt lat="42.5329" lon="0.20581">
        <ele>740</ele>
        <time>2016-07-23T11:03:09Z</time>
      </trkpt>
      <trkpt lat="42.5329" lon="0.20577">
        <ele>740.2</ele>
        <time>2016-07-23T11:03:10Z</time>
      </trkpt>
      <trkpt lat="42.53291" lon="0.20573">
        <ele>740.3</ele>
        <time>2016-07-23T11:03:11Z</time>
      </trkpt>
      <trkpt lat="42.53293" lon="0.20566">
        <ele>741.1</ele>
        <time>2016-07-23T11:03:13Z</time>
      </trkpt>
      <trkpt lat="42.53294" lon="0.20562">
        <ele>741.8</ele>
        <time>2016-07-23T11:03:14Z</time>
      </trkpt>
      <trkpt lat="42.53295" lon="0.20558">
        <ele>742.5</ele>
        <time>2016-07-23T11:03:15Z</time>
      </trkpt>
      <trkpt lat="42.53295" lon="0.20553">
        <ele>743.1</ele>
        <time>2016-07-23T11:03:16Z</time>
      </trkpt>
      <trkpt lat="42.53295" lon="0.20549">
        <ele>743.6</ele>
        <time>2016-07-23T11:03:17Z</time>
      </trkpt>
      <trkpt lat="42.53296" lon="0.20546">
        <ele>744.1</ele>
        <time>2016-07-23T11:03:18Z</time>
      </trkpt>
      <trkpt lat="42.53297" lon="0.20539">
        <ele>745.1</ele>
        <time>2016-07-23T11:03:20Z</time>
      </trkpt>
      <trkpt lat="42.53297" lon="0.20534">
        <ele>745.6</ele>
        <time>2016-07-23T11:03:21Z</time>
      </trkpt>
      <trkpt lat="42.53298" lon="0.2053">
        <ele>746.2</ele>
        <time>2016-07-23T11:03:22Z</time>
      </trkpt>
      <trkpt lat="42.53299" lon="0.20524">
        <ele>746.9</ele>
        <time>2016-07-23T11:03:24Z</time>
      </trkpt>
      <trkpt lat="42.533" lon="0.2052">
        <ele>747.4</ele>
        <time>2016-07-23T11:03:25Z</time>
      </trkpt>
      <trkpt lat="42.53301" lon="0.20516">
        <ele>747.8</ele>
        <time>2016-07-23T11:03:26Z</time>
      </trkpt>
      <trkpt lat="42.53303" lon="0.20511">
        <ele>748.2</ele>
        <time>2016-07-23T11:03:27Z</time>
      </trkpt>
      <trkpt lat="42.53306" lon="0.20507">
        <ele>748.6</ele>
        <time>2016-07-23T11:03:28Z</time>
      </trkpt>
      <trkpt lat="42.53308" lon="0.20503">
        <ele>748.8</ele>
        <time>2016-07-23T11:03:29Z</time>
      </trkpt>
      <trkpt lat="42.53311" lon="0.205">
        <ele>748.9</ele>
        <time>2016-07-23T11:03:30Z</time>
      </trkpt>
      <trkpt lat="42.53314" lon="0.20497">
        <ele>748.9</ele>
        <time>2016-07-23T11:03:31Z</time>
      </trkpt>
      <trkpt lat="42.53317" lon="0.20494">
        <ele>748.9</ele>
        <time>2016-07-23T11:03:32Z</time>
      </trkpt>
      <trkpt lat="42.5332" lon="0.2049">
        <ele>748.7</ele>
        <time>2016-07-23T11:03:33Z</time>
      </trkpt>
      <trkpt lat="42.53323" lon="0.20487">
        <ele>748.4</ele>
        <time>2016-07-23T11:03:34Z</time>
      </trkpt>
      <trkpt lat="42.53327" lon="0.20483">
        <ele>748</ele>
        <time>2016-07-23T11:03:35Z</time>
      </trkpt>
      <trkpt lat="42.5333" lon="0.20479">
        <ele>747.5</ele>
        <time>2016-07-23T11:03:36Z</time>
      </trkpt>
      <trkpt lat="42.53333" lon="0.20475">
        <ele>747</ele>
        <time>2016-07-23T11:03:37Z</time>
      </trkpt>
      <trkpt lat="42.53336" lon="0.20472">
        <ele>746.4</ele>
        <time>2016-07-23T11:03:38Z</time>
      </trkpt>
      <trkpt lat="42.53338" lon="0.2047">
        <ele>745.8</ele>
        <time>2016-07-23T11:03:39Z</time>
      </trkpt>
      <trkpt lat="42.53341" lon="0.20467">
        <ele>745</ele>
        <time>2016-07-23T11:03:40Z</time>
      </trkpt>
      <trkpt lat="42.53344" lon="0.20463">
        <ele>744.3</ele>
        <time>2016-07-23T11:03:41Z</time>
      </trkpt>
      <trkpt lat="42.53346" lon="0.2046">
        <ele>743.4</ele>
        <time>2016-07-23T11:03:42Z</time>
      </trkpt>
      <trkpt lat="42.53348" lon="0.20456">
        <ele>743.4</ele>
        <time>2016-07-23T11:03:43Z</time>
      </trkpt>
      <trkpt lat="42.53351" lon="0.20452">
        <ele>743.8</ele>
        <time>2016-07-23T11:03:44Z</time>
      </trkpt>
      <trkpt lat="42.53353" lon="0.20449">
        <ele>744.2</ele>
        <time>2016-07-23T11:03:45Z</time>
      </trkpt>
      <trkpt lat="42.53356" lon="0.20445">
        <ele>744.2</ele>
        <time>2016-07-23T11:03:46Z</time>
      </trkpt>
      <trkpt lat="42.53359" lon="0.20442">
        <ele>744.1</ele>
        <time>2016-07-23T11:03:47Z</time>
      </trkpt>
      <trkpt lat="42.53362" lon="0.20439">
        <ele>743.6</ele>
        <time>2016-07-23T11:03:48Z</time>
      </trkpt>
      <trkpt lat="42.53365" lon="0.20436">
        <ele>743.1</ele>
        <time>2016-07-23T11:03:49Z</time>
      </trkpt>
      <trkpt lat="42.53368" lon="0.20433">
        <ele>742.5</ele>
        <time>2016-07-23T11:03:50Z</time>
      </trkpt>
      <trkpt lat="42.53372" lon="0.20429">
        <ele>741.4</ele>
        <time>2016-07-23T11:03:51Z</time>
      </trkpt>
      <trkpt lat="42.53377" lon="0.20426">
        <ele>740.3</ele>
        <time>2016-07-23T11:03:52Z</time>
      </trkpt>
      <trkpt lat="42.53382" lon="0.20424">
        <ele>740.2</ele>
        <time>2016-07-23T11:03:53Z</time>
      </trkpt>
      <trkpt lat="42.53387" lon="0.20423">
        <ele>739.9</ele>
        <time>2016-07-23T11:03:54Z</time>
      </trkpt>
      <trkpt lat="42.53392" lon="0.20422">
        <ele>739.6</ele>
        <time>2016-07-23T11:03:55Z</time>
      </trkpt>
      <trkpt lat="42.53397" lon="0.20423">
        <ele>739.2</ele>
        <time>2016-07-23T11:03:56Z</time>
      </trkpt>
      <trkpt lat="42.53403" lon="0.20424">
        <ele>738.7</ele>
        <time>2016-07-23T11:03:57Z</time>
      </trkpt>
      <trkpt lat="42.53408" lon="0.20427">
        <ele>738.4</ele>
        <time>2016-07-23T11:03:58Z</time>
      </trkpt>
      <trkpt lat="42.53413" lon="0.20429">
        <ele>738.3</ele>
        <time>2016-07-23T11:03:59Z</time>
      </trkpt>
      <trkpt lat="42.53417" lon="0.20432">
        <ele>738.3</ele>
        <time>2016-07-23T11:04:00Z</time>
      </trkpt>
      <trkpt lat="42.5342" lon="0.20434">
        <ele>738.3</ele>
        <time>2016-07-23T11:04:01Z</time>
      </trkpt>
      <trkpt lat="42.53425" lon="0.20435">
        <ele>738.3</ele>
        <time>2016-07-23T11:04:03Z</time>
      </trkpt>
      <trkpt lat="42.5343" lon="0.20437">
        <ele>738.3</ele>
        <time>2016-07-23T11:04:05Z</time>
      </trkpt>
      <trkpt lat="42.53435" lon="0.20439">
        <ele>738.5</ele>
        <time>2016-07-23T11:04:07Z</time>
      </trkpt>
      <trkpt lat="42.53438" lon="0.20439">
        <ele>738.6</ele>
        <time>2016-07-23T11:04:08Z</time>
      </trkpt>
      <trkpt lat="42.53442" lon="0.2044">
        <ele>738.6</ele>
        <time>2016-07-23T11:04:09Z</time>
      </trkpt>
      <trkpt lat="42.53447" lon="0.2044">
        <ele>738.7</ele>
        <time>2016-07-23T11:04:10Z</time>
      </trkpt>
      <trkpt lat="42.53452" lon="0.20441">
        <ele>738.7</ele>
        <time>2016-07-23T11:04:11Z</time>
      </trkpt>
      <trkpt lat="42.53457" lon="0.20441">
        <ele>738.9</ele>
        <time>2016-07-23T11:04:12Z</time>
      </trkpt>
      <trkpt lat="42.53461" lon="0.20442">
        <ele>739</ele>
        <time>2016-07-23T11:04:13Z</time>
      </trkpt>
      <trkpt lat="42.53465" lon="0.20443">
        <ele>739.1</ele>
        <time>2016-07-23T11:04:14Z</time>
      </trkpt>
      <trkpt lat="42.53468" lon="0.20443">
        <ele>739.3</ele>
        <time>2016-07-23T11:04:15Z</time>
      </trkpt>
      <trkpt lat="42.5347" lon="0.20444">
        <ele>739.3</ele>
        <time>2016-07-23T11:04:16Z</time>
      </trkpt>
      <trkpt lat="42.53473" lon="0.20444">
        <ele>739.2</ele>
        <time>2016-07-23T11:04:17Z</time>
      </trkpt>
      <trkpt lat="42.53476" lon="0.20444">
        <ele>739.2</ele>
        <time>2016-07-23T11:04:18Z</time>
      </trkpt>
      <trkpt lat="42.53481" lon="0.20444">
        <ele>739.3</ele>
        <time>2016-07-23T11:04:20Z</time>
      </trkpt>
      <trkpt lat="42.53486" lon="0.20445">
        <ele>739.4</ele>
        <time>2016-07-23T11:04:22Z</time>
      </trkpt>
      <trkpt lat="42.5349" lon="0.20444">
        <ele>739.2</ele>
        <time>2016-07-23T11:04:24Z</time>
      </trkpt>
      <trkpt lat="42.53493" lon="0.20443">
        <ele>738.8</ele>
        <time>2016-07-23T11:04:26Z</time>
      </trkpt>
      <trkpt lat="42.53495" lon="0.20442">
        <ele>738.5</ele>
        <time>2016-07-23T11:04:28Z</time>
      </trkpt>
      <trkpt lat="42.53499" lon="0.2044">
        <ele>738</ele>
        <time>2016-07-23T11:04:31Z</time>
      </trkpt>
      <trkpt lat="42.53502" lon="0.20439">
        <ele>737.7</ele>
        <time>2016-07-23T11:04:33Z</time>
      </trkpt>
      <trkpt lat="42.53505" lon="0.20437">
        <ele>737.1</ele>
        <time>2016-07-23T11:04:36Z</time>
      </trkpt>
      <trkpt lat="42.53508" lon="0.20436">
        <ele>736.6</ele>
        <time>2016-07-23T11:04:38Z</time>
      </trkpt>
      <trkpt lat="42.53511" lon="0.20433">
        <ele>735.9</ele>
        <time>2016-07-23T11:04:40Z</time>
      </trkpt>
      <trkpt lat="42.53514" lon="0.20432">
        <ele>735.3</ele>
        <time>2016-07-23T11:04:42Z</time>
      </trkpt>
      <trkpt lat="42.53517" lon="0.20431">
        <ele>735.2</ele>
        <time>2016-07-23T11:04:44Z</time>
      </trkpt>
      <trkpt lat="42.5352" lon="0.20432">
        <ele>735.2</ele>
        <time>2016-07-23T11:04:46Z</time>
      </trkpt>
      <trkpt lat="42.53523" lon="0.20433">
        <ele>735.5</ele>
        <time>2016-07-23T11:04:48Z</time>
      </trkpt>
      <trkpt lat="42.53526" lon="0.20434">
        <ele>735.7</ele>
        <time>2016-07-23T11:04:50Z</time>
      </trkpt>
      <trkpt lat="42.53529" lon="0.20433">
        <ele>735.2</ele>
        <time>2016-07-23T11:04:52Z</time>
      </trkpt>
      <trkpt lat="42.53533" lon="0.20431">
        <ele>734.5</ele>
        <time>2016-07-23T11:04:54Z</time>
      </trkpt>
      <trkpt lat="42.53537" lon="0.20428">
        <ele>733.7</ele>
        <time>2016-07-23T11:04:56Z</time>
      </trkpt>
      <trkpt lat="42.53541" lon="0.20426">
        <ele>733</ele>
        <time>2016-07-23T11:04:58Z</time>
      </trkpt>
      <trkpt lat="42.53544" lon="0.20424">
        <ele>732.9</ele>
        <time>2016-07-23T11:05:00Z</time>
      </trkpt>
      <trkpt lat="42.53548" lon="0.20421">
        <ele>733.4</ele>
        <time>2016-07-23T11:05:02Z</time>
      </trkpt>
      <trkpt lat="42.53552" lon="0.2042">
        <ele>734.3</ele>
        <time>2016-07-23T11:05:04Z</time>
      </trkpt>
      <trkpt lat="42.53555" lon="0.20419">
        <ele>735.1</ele>
        <time>2016-07-23T11:05:06Z</time>
      </trkpt>
      <trkpt lat="42.53558" lon="0.20422">
        <ele>736.7</ele>
        <time>2016-07-23T11:05:08Z</time>
      </trkpt>
      <trkpt lat="42.53563" lon="0.20424">
        <ele>739</ele>
        <time>2016-07-23T11:05:10Z</time>
      </trkpt>
      <trkpt lat="42.53567" lon="0.20426">
        <ele>740.6</ele>
        <time>2016-07-23T11:05:12Z</time>
      </trkpt>
      <trkpt lat="42.5357" lon="0.20424">
        <ele>741.1</ele>
        <time>2016-07-23T11:05:14Z</time>
      </trkpt>
      <trkpt lat="42.53572" lon="0.20419">
        <ele>740.3</ele>
        <time>2016-07-23T11:05:16Z</time>
      </trkpt>
      <trkpt lat="42.53573" lon="0.20414">
        <ele>739.2</ele>
        <time>2016-07-23T11:05:18Z</time>
      </trkpt>
      <trkpt lat="42.53573" lon="0.2041">
        <ele>738.3</ele>
        <time>2016-07-23T11:05:20Z</time>
      </trkpt>
      <trkpt lat="42.53574" lon="0.20405">
        <ele>737.1</ele>
        <time>2016-07-23T11:05:22Z</time>
      </trkpt>
      <trkpt lat="42.53575" lon="0.204">
        <ele>736</ele>
        <time>2016-07-23T11:05:24Z</time>
      </trkpt>
      <trkpt lat="42.53576" lon="0.20394">
        <ele>735</ele>
        <time>2016-07-23T11:05:26Z</time>
      </trkpt>
      <trkpt lat="42.53578" lon="0.2039">
        <ele>734.4</ele>
        <time>2016-07-23T11:05:28Z</time>
      </trkpt>
      <trkpt lat="42.5358" lon="0.20386">
        <ele>734.3</ele>
        <time>2016-07-23T11:05:30Z</time>
      </trkpt>
      <trkpt lat="42.53584" lon="0.20384">
        <ele>735</ele>
        <time>2016-07-23T11:05:32Z</time>
      </trkpt>
      <trkpt lat="42.53587" lon="0.20382">
        <ele>735.6</ele>
        <time>2016-07-23T11:05:34Z</time>
      </trkpt>
      <trkpt lat="42.5359" lon="0.20378">
        <ele>735.6</ele>
        <time>2016-07-23T11:05:36Z</time>
      </trkpt>
      <trkpt lat="42.53593" lon="0.20373">
        <ele>735.6</ele>
        <time>2016-07-23T11:05:38Z</time>
      </trkpt>
      <trkpt lat="42.53596" lon="0.20369">
        <ele>735.6</ele>
        <time>2016-07-23T11:05:40Z</time>
      </trkpt>
      <trkpt lat="42.53598" lon="0.20366">
        <ele>735.7</ele>
        <time>2016-07-23T11:05:42Z</time>
      </trkpt>
      <trkpt lat="42.536" lon="0.20363">
        <ele>735.8</ele>
        <time>2016-07-23T11:05:50Z</time>
      </trkpt>
      <trkpt lat="42.53602" lon="0.20361">
        <ele>736.2</ele>
        <time>2016-07-23T11:05:58Z</time>
      </trkpt>
      <trkpt lat="42.53605" lon="0.20358">
        <ele>736.3</ele>
        <time>2016-07-23T11:06:06Z</time>
      </trkpt>
      <trkpt lat="42.53607" lon="0.20356">
        <ele>736.3</ele>
        <time>2016-07-23T11:06:10Z</time>
      </trkpt>
      <trkpt lat="42.53609" lon="0.20352">
        <ele>735.9</ele>
        <time>2016-07-23T11:06:15Z</time>
      </trkpt>
      <trkpt lat="42.5361" lon="0.20349">
        <ele>735.5</ele>
        <time>2016-07-23T11:06:22Z</time>
      </trkpt>
      <trkpt lat="42.53611" lon="0.20345">
        <ele>734.6</ele>
        <time>2016-07-23T11:06:28Z</time>
      </trkpt>
      <trkpt lat="42.53613" lon="0.20341">
        <ele>734</ele>
        <time>2016-07-23T11:06:32Z</time>
      </trkpt>
      <trkpt lat="42.53615" lon="0.20337">
        <ele>733.5</ele>
        <time>2016-07-23T11:06:36Z</time>
      </trkpt>
      <trkpt lat="42.53617" lon="0.20334">
        <ele>733.1</ele>
        <time>2016-07-23T11:06:40Z</time>
      </trkpt>
      <trkpt lat="42.53618" lon="0.20331">
        <ele>732.4</ele>
        <time>2016-07-23T11:06:44Z</time>
      </trkpt>
      <trkpt lat="42.5362" lon="0.20328">
        <ele>731.9</ele>
        <time>2016-07-23T11:06:47Z</time>
      </trkpt>
      <trkpt lat="42.53621" lon="0.20324">
        <ele>731.3</ele>
        <time>2016-07-23T11:06:59Z</time>
      </trkpt>
      <trkpt lat="42.53623" lon="0.20321">
        <ele>730.6</ele>
        <time>2016-07-23T11:07:02Z</time>
      </trkpt>
      <trkpt lat="42.53623" lon="0.20317">
        <ele>729.5</ele>
        <time>2016-07-23T11:07:09Z</time>
      </trkpt>
      <trkpt lat="42.53624" lon="0.20313">
        <ele>728.4</ele>
        <time>2016-07-23T11:07:12Z</time>
      </trkpt>
      <trkpt lat="42.53625" lon="0.20309">
        <ele>727.6</ele>
        <time>2016-07-23T11:07:14Z</time>
      </trkpt>
      <trkpt lat="42.53626" lon="0.20305">
        <ele>726.4</ele>
        <time>2016-07-23T11:07:16Z</time>
      </trkpt>
      <trkpt lat="42.53627" lon="0.203">
        <ele>725.6</ele>
        <time>2016-07-23T11:07:18Z</time>
      </trkpt>
      <trkpt lat="42.53628" lon="0.20297">
        <ele>725</ele>
        <time>2016-07-23T11:07:20Z</time>
      </trkpt>
      <trkpt lat="42.5363" lon="0.20294">
        <ele>725</ele>
        <time>2016-07-23T11:07:22Z</time>
      </trkpt>
      <trkpt lat="42.53632" lon="0.20292">
        <ele>725.4</ele>
        <time>2016-07-23T11:07:25Z</time>
      </trkpt>
      <trkpt lat="42.53635" lon="0.20291">
        <ele>726.6</ele>
        <time>2016-07-23T11:07:32Z</time>
      </trkpt>
      <trkpt lat="42.53638" lon="0.2029">
        <ele>727.7</ele>
        <time>2016-07-23T11:07:36Z</time>
      </trkpt>
      <trkpt lat="42.53641" lon="0.2029">
        <ele>728.9</ele>
        <time>2016-07-23T11:07:40Z</time>
      </trkpt>
      <trkpt lat="42.53644" lon="0.20288">
        <ele>730</ele>
        <time>2016-07-23T11:07:44Z</time>
      </trkpt>
      <trkpt lat="42.53648" lon="0.2029">
        <ele>732.2</ele>
        <time>2016-07-23T11:07:50Z</time>
      </trkpt>
      <trkpt lat="42.5365" lon="0.2029">
        <ele>733.5</ele>
        <time>2016-07-23T11:07:53Z</time>
      </trkpt>
      <trkpt lat="42.53653" lon="0.2029">
        <ele>735</ele>
        <time>2016-07-23T11:07:55Z</time>
      </trkpt>
      <trkpt lat="42.53656" lon="0.20291">
        <ele>736.7</ele>
        <time>2016-07-23T11:07:58Z</time>
      </trkpt>
      <trkpt lat="42.5366" lon="0.20291">
        <ele>738.3</ele>
        <time>2016-07-23T11:08:01Z</time>
      </trkpt>
      <trkpt lat="42.53662" lon="0.20289">
        <ele>739.1</ele>
        <time>2016-07-23T11:08:03Z</time>
      </trkpt>
      <trkpt lat="42.53665" lon="0.20287">
        <ele>739.3</ele>
        <time>2016-07-23T11:08:05Z</time>
      </trkpt>
      <trkpt lat="42.53668" lon="0.20285">
        <ele>740.2</ele>
        <time>2016-07-23T11:08:07Z</time>
      </trkpt>
      <trkpt lat="42.5367" lon="0.20284">
        <ele>741.2</ele>
        <time>2016-07-23T11:08:10Z</time>
      </trkpt>
      <trkpt lat="42.53674" lon="0.20282">
        <ele>741.9</ele>
        <time>2016-07-23T11:08:13Z</time>
      </trkpt>
      <trkpt lat="42.53677" lon="0.20281">
        <ele>743</ele>
        <time>2016-07-23T11:08:16Z</time>
      </trkpt>
      <trkpt lat="42.5368" lon="0.2028">
        <ele>743.8</ele>
        <time>2016-07-23T11:08:18Z</time>
      </trkpt>
      <trkpt lat="42.53683" lon="0.20278">
        <ele>744.6</ele>
        <time>2016-07-23T11:08:21Z</time>
      </trkpt>
      <trkpt lat="42.53686" lon="0.20276">
        <ele>745.3</ele>
        <time>2016-07-23T11:08:24Z</time>
      </trkpt>
      <trkpt lat="42.5369" lon="0.20274">
        <ele>746.2</ele>
        <time>2016-07-23T11:08:32Z</time>
      </trkpt>
      <trkpt lat="42.53693" lon="0.20272">
        <ele>746.8</ele>
        <time>2016-07-23T11:08:38Z</time>
      </trkpt>
      <trkpt lat="42.53696" lon="0.20271">
        <ele>747.8</ele>
        <time>2016-07-23T11:08:42Z</time>
      </trkpt>
      <trkpt lat="42.53699" lon="0.20269">
        <ele>748.2</ele>
        <time>2016-07-23T11:08:45Z</time>
      </trkpt>
      <trkpt lat="42.53702" lon="0.20268">
        <ele>748.7</ele>
        <time>2016-07-23T11:08:48Z</time>
      </trkpt>
      <trkpt lat="42.53704" lon="0.20266">
        <ele>749</ele>
        <time>2016-07-23T11:08:51Z</time>
      </trkpt>
      <trkpt lat="42.53707" lon="0.20264">
        <ele>749.7</ele>
        <time>2016-07-23T11:08:55Z</time>
      </trkpt>
      <trkpt lat="42.5371" lon="0.20263">
        <ele>750.3</ele>
        <time>2016-07-23T11:08:58Z</time>
      </trkpt>
      <trkpt lat="42.53712" lon="0.20261">
        <ele>750.3</ele>
        <time>2016-07-23T11:09:02Z</time>
      </trkpt>
      <trkpt lat="42.53715" lon="0.20258">
        <ele>750.7</ele>
        <time>2016-07-23T11:09:07Z</time>
      </trkpt>
      <trkpt lat="42.53718" lon="0.20257">
        <ele>751.5</ele>
        <time>2016-07-23T11:09:11Z</time>
      </trkpt>
      <trkpt lat="42.53721" lon="0.20256">
        <ele>752.5</ele>
        <time>2016-07-23T11:09:15Z</time>
      </trkpt>
      <trkpt lat="42.53724" lon="0.20254">
        <ele>753.2</ele>
        <time>2016-07-23T11:09:21Z</time>
      </trkpt>
      <trkpt lat="42.53727" lon="0.20251">
        <ele>753.4</ele>
        <time>2016-07-23T11:09:25Z</time>
      </trkpt>
      <trkpt lat="42.5373" lon="0.2025">
        <ele>754.2</ele>
        <time>2016-07-23T11:09:29Z</time>
      </trkpt>
      <trkpt lat="42.53732" lon="0.20249">
        <ele>754.9</ele>
        <time>2016-07-23T11:09:33Z</time>
      </trkpt>
      <trkpt lat="42.53735" lon="0.20247">
        <ele>755.5</ele>
        <time>2016-07-23T11:09:36Z</time>
      </trkpt>
      <trkpt lat="42.53738" lon="0.20245">
        <ele>756</ele>
        <time>2016-07-23T11:09:40Z</time>
      </trkpt>
      <trkpt lat="42.53741" lon="0.20244">
        <ele>757.3</ele>
        <time>2016-07-23T11:09:44Z</time>
      </trkpt>
      <trkpt lat="42.53744" lon="0.20245">
        <ele>759.2</ele>
        <time>2016-07-23T11:09:49Z</time>
      </trkpt>
      <trkpt lat="42.53747" lon="0.20243">
        <ele>760</ele>
        <time>2016-07-23T11:09:54Z</time>
      </trkpt>
      <trkpt lat="42.53749" lon="0.2024">
        <ele>759.9</ele>
        <time>2016-07-23T11:10:01Z</time>
      </trkpt>
      <trkpt lat="42.5375" lon="0.20235">
        <ele>758.5</ele>
        <time>2016-07-23T11:10:10Z</time>
      </trkpt>
      <trkpt lat="42.53752" lon="0.20232">
        <ele>758.5</ele>
        <time>2016-07-23T11:10:12Z</time>
      </trkpt>
      <trkpt lat="42.53754" lon="0.20229">
        <ele>758.9</ele>
        <time>2016-07-23T11:10:14Z</time>
      </trkpt>
      <trkpt lat="42.53757" lon="0.20227">
        <ele>759.3</ele>
        <time>2016-07-23T11:10:16Z</time>
      </trkpt>
      <trkpt lat="42.53759" lon="0.20223">
        <ele>759.5</ele>
        <time>2016-07-23T11:10:18Z</time>
      </trkpt>
      <trkpt lat="42.53762" lon="0.2022">
        <ele>760.1</ele>
        <time>2016-07-23T11:10:21Z</time>
      </trkpt>
      <trkpt lat="42.53765" lon="0.20215">
        <ele>760</ele>
        <time>2016-07-23T11:10:23Z</time>
      </trkpt>
      <trkpt lat="42.53767" lon="0.20211">
        <ele>759.8</ele>
        <time>2016-07-23T11:10:24Z</time>
      </trkpt>
      <trkpt lat="42.53768" lon="0.20208">
        <ele>759.8</ele>
        <time>2016-07-23T11:10:25Z</time>
      </trkpt>
      <trkpt lat="42.5377" lon="0.20205">
        <ele>760.1</ele>
        <time>2016-07-23T11:10:26Z</time>
      </trkpt>
      <trkpt lat="42.53773" lon="0.202">
        <ele>760.9</ele>
        <time>2016-07-23T11:10:28Z</time>
      </trkpt>
      <trkpt lat="42.53776" lon="0.20195">
        <ele>761.7</ele>
        <time>2016-07-23T11:10:30Z</time>
      </trkpt>
      <trkpt lat="42.53778" lon="0.20189">
        <ele>761.9</ele>
        <time>2016-07-23T11:10:32Z</time>
      </trkpt>
      <trkpt lat="42.53778" lon="0.20183">
        <ele>761</ele>
        <time>2016-07-23T11:10:34Z</time>
      </trkpt>
      <trkpt lat="42.53777" lon="0.20177">
        <ele>759.2</ele>
        <time>2016-07-23T11:10:36Z</time>
      </trkpt>
      <trkpt lat="42.53776" lon="0.20172">
        <ele>757.9</ele>
        <time>2016-07-23T11:10:38Z</time>
      </trkpt>
      <trkpt lat="42.53778" lon="0.20168">
        <ele>757.9</ele>
        <time>2016-07-23T11:10:40Z</time>
      </trkpt>
      <trkpt lat="42.5378" lon="0.20163">
        <ele>758.2</ele>
        <time>2016-07-23T11:10:42Z</time>
      </trkpt>
      <trkpt lat="42.53781" lon="0.20156">
        <ele>757.5</ele>
        <time>2016-07-23T11:10:44Z</time>
      </trkpt>
      <trkpt lat="42.53781" lon="0.20151">
        <ele>756.8</ele>
        <time>2016-07-23T11:10:45Z</time>
      </trkpt>
      <trkpt lat="42.53781" lon="0.20147">
        <ele>756.1</ele>
        <time>2016-07-23T11:10:46Z</time>
      </trkpt>
      <trkpt lat="42.53782" lon="0.20142">
        <ele>755.6</ele>
        <time>2016-07-23T11:10:47Z</time>
      </trkpt>
      <trkpt lat="42.53782" lon="0.20138">
        <ele>755</ele>
        <time>2016-07-23T11:10:48Z</time>
      </trkpt>
      <trkpt lat="42.53782" lon="0.20132">
        <ele>753.7</ele>
        <time>2016-07-23T11:10:50Z</time>
      </trkpt>
      <trkpt lat="42.53781" lon="0.20127">
        <ele>752.4</ele>
        <time>2016-07-23T11:10:52Z</time>
      </trkpt>
      <trkpt lat="42.5378" lon="0.20123">
        <ele>751.2</ele>
        <time>2016-07-23T11:10:55Z</time>
      </trkpt>
      <trkpt lat="42.53779" lon="0.20118">
        <ele>749.5</ele>
        <time>2016-07-23T11:10:59Z</time>
      </trkpt>
      <trkpt lat="42.53779" lon="0.20114">
        <ele>748.3</ele>
        <time>2016-07-23T11:11:01Z</time>
      </trkpt>
      <trkpt lat="42.53779" lon="0.2011">
        <ele>747.4</ele>
        <time>2016-07-23T11:11:03Z</time>
      </trkpt>
      <trkpt lat="42.53779" lon="0.20103">
        <ele>746.2</ele>
        <time>2016-07-23T11:11:06Z</time>
      </trkpt>
      <trkpt lat="42.53779" lon="0.20096">
        <ele>744.5</ele>
        <time>2016-07-23T11:11:08Z</time>
      </trkpt>
      <trkpt lat="42.53779" lon="0.20093">
        <ele>743.6</ele>
        <time>2016-07-23T11:11:09Z</time>
      </trkpt>
      <trkpt lat="42.53779" lon="0.20089">
        <ele>743</ele>
        <time>2016-07-23T11:11:10Z</time>
      </trkpt>
      <trkpt lat="42.5378" lon="0.20085">
        <ele>742.6</ele>
        <time>2016-07-23T11:11:11Z</time>
      </trkpt>
      <trkpt lat="42.53781" lon="0.20082">
        <ele>742.4</ele>
        <time>2016-07-23T11:11:12Z</time>
      </trkpt>
      <trkpt lat="42.53783" lon="0.20076">
        <ele>742.1</ele>
        <time>2016-07-23T11:11:14Z</time>
      </trkpt>
      <trkpt lat="42.53785" lon="0.20071">
        <ele>741.8</ele>
        <time>2016-07-23T11:11:16Z</time>
      </trkpt>
      <trkpt lat="42.53786" lon="0.20066">
        <ele>741.2</ele>
        <time>2016-07-23T11:11:18Z</time>
      </trkpt>
      <trkpt lat="42.53788" lon="0.2006">
        <ele>740.5</ele>
        <time>2016-07-23T11:11:20Z</time>
      </trkpt>
      <trkpt lat="42.5379" lon="0.20054">
        <ele>740.1</ele>
        <time>2016-07-23T11:11:22Z</time>
      </trkpt>
      <trkpt lat="42.53791" lon="0.20049">
        <ele>739.4</ele>
        <time>2016-07-23T11:11:24Z</time>
      </trkpt>
      <trkpt lat="42.53791" lon="0.20044">
        <ele>738</ele>
        <time>2016-07-23T11:11:27Z</time>
      </trkpt>
      <trkpt lat="42.53791" lon="0.20038">
        <ele>737.4</ele>
        <time>2016-07-23T11:11:29Z</time>
      </trkpt>
      <trkpt lat="42.53792" lon="0.20032">
        <ele>737.7</ele>
        <time>2016-07-23T11:11:31Z</time>
      </trkpt>
      <trkpt lat="42.53794" lon="0.20026">
        <ele>738.2</ele>
        <time>2016-07-23T11:11:33Z</time>
      </trkpt>
      <trkpt lat="42.53795" lon="0.2002">
        <ele>738.6</ele>
        <time>2016-07-23T11:11:35Z</time>
      </trkpt>
      <trkpt lat="42.53797" lon="0.20014">
        <ele>739.3</ele>
        <time>2016-07-23T11:11:37Z</time>
      </trkpt>
      <trkpt lat="42.53799" lon="0.20008">
        <ele>740.2</ele>
        <time>2016-07-23T11:11:39Z</time>
      </trkpt>
      <trkpt lat="42.53801" lon="0.2">
        <ele>740.8</ele>
        <time>2016-07-23T11:11:41Z</time>
      </trkpt>
      <trkpt lat="42.53802" lon="0.19996">
        <ele>741</ele>
        <time>2016-07-23T11:11:42Z</time>
      </trkpt>
      <trkpt lat="42.53803" lon="0.19993">
        <ele>741.4</ele>
        <time>2016-07-23T11:11:43Z</time>
      </trkpt>
      <trkpt lat="42.53804" lon="0.19989">
        <ele>741.6</ele>
        <time>2016-07-23T11:11:44Z</time>
      </trkpt>
      <trkpt lat="42.53806" lon="0.19983">
        <ele>742.1</ele>
        <time>2016-07-23T11:11:46Z</time>
      </trkpt>
      <trkpt lat="42.53809" lon="0.19978">
        <ele>743</ele>
        <time>2016-07-23T11:11:48Z</time>
      </trkpt>
      <trkpt lat="42.53811" lon="0.19974">
        <ele>743.7</ele>
        <time>2016-07-23T11:11:50Z</time>
      </trkpt>
      <trkpt lat="42.53812" lon="0.1997">
        <ele>744.2</ele>
        <time>2016-07-23T11:11:52Z</time>
      </trkpt>
      <trkpt lat="42.53813" lon="0.19966">
        <ele>744.3</ele>
        <time>2016-07-23T11:11:54Z</time>
      </trkpt>
      <trkpt lat="42.53815" lon="0.19962">
        <ele>744.4</ele>
        <time>2016-07-23T11:11:56Z</time>
      </trkpt>
      <trkpt lat="42.53816" lon="0.19956">
        <ele>744.3</ele>
        <time>2016-07-23T11:11:58Z</time>
      </trkpt>
      <trkpt lat="42.53817" lon="0.19952">
        <ele>743.9</ele>
        <time>2016-07-23T11:12:00Z</time>
      </trkpt>
      <trkpt lat="42.53819" lon="0.19948">
        <ele>743.7</ele>
        <time>2016-07-23T11:12:22Z</time>
      </trkpt>
      <trkpt lat="42.53821" lon="0.19944">
        <ele>743.6</ele>
        <time>2016-07-23T11:12:29Z</time>
      </trkpt>
      <trkpt lat="42.53821" lon="0.19939">
        <ele>742.3</ele>
        <time>2016-07-23T11:12:54Z</time>
      </trkpt>
      <trkpt lat="42.53823" lon="0.19936">
        <ele>742.6</ele>
        <time>2016-07-23T11:13:04Z</time>
      </trkpt>
      <trkpt lat="42.53824" lon="0.19932">
        <ele>742.1</ele>
        <time>2016-07-23T11:13:07Z</time>
      </trkpt>
      <trkpt lat="42.53825" lon="0.19928">
        <ele>741.8</ele>
        <time>2016-07-23T11:13:11Z</time>
      </trkpt>
      <trkpt lat="42.53826" lon="0.19924">
        <ele>741.3</ele>
        <time>2016-07-23T11:13:14Z</time>
      </trkpt>
      <trkpt lat="42.53827" lon="0.1992">
        <ele>740.6</ele>
        <time>2016-07-23T11:13:17Z</time>
      </trkpt>
      <trkpt lat="42.53828" lon="0.19916">
        <ele>740.1</ele>
        <time>2016-07-23T11:13:20Z</time>
      </trkpt>
      <trkpt lat="42.5383" lon="0.19912">
        <ele>739.9</ele>
        <time>2016-07-23T11:13:23Z</time>
      </trkpt>
      <trkpt lat="42.53831" lon="0.19908">
        <ele>739.3</ele>
        <time>2016-07-23T11:13:27Z</time>
      </trkpt>
      <trkpt lat="42.53832" lon="0.19904">
        <ele>738.9</ele>
        <time>2016-07-23T11:13:33Z</time>
      </trkpt>
      <trkpt lat="42.53833" lon="0.19899">
        <ele>738</ele>
        <time>2016-07-23T11:13:35Z</time>
      </trkpt>
      <trkpt lat="42.53836" lon="0.19893">
        <ele>737.8</ele>
        <time>2016-07-23T11:13:37Z</time>
      </trkpt>
      <trkpt lat="42.53839" lon="0.1989">
        <ele>738.2</ele>
        <time>2016-07-23T11:13:39Z</time>
      </trkpt>
      <trkpt lat="42.53841" lon="0.19886">
        <ele>738.1</ele>
        <time>2016-07-23T11:13:41Z</time>
      </trkpt>
      <trkpt lat="42.53843" lon="0.1988">
        <ele>737.2</ele>
        <time>2016-07-23T11:13:43Z</time>
      </trkpt>
      <trkpt lat="42.53845" lon="0.19876">
        <ele>736.8</ele>
        <time>2016-07-23T11:13:44Z</time>
      </trkpt>
      <trkpt lat="42.53846" lon="0.19872">
        <ele>736.2</ele>
        <time>2016-07-23T11:13:45Z</time>
      </trkpt>
      <trkpt lat="42.53849" lon="0.19869">
        <ele>736</ele>
        <time>2016-07-23T11:13:46Z</time>
      </trkpt>
      <trkpt lat="42.53851" lon="0.19867">
        <ele>736</ele>
        <time>2016-07-23T11:13:47Z</time>
      </trkpt>
      <trkpt lat="42.53854" lon="0.19866">
        <ele>736.4</ele>
        <time>2016-07-23T11:13:48Z</time>
      </trkpt>
      <trkpt lat="42.53858" lon="0.19862">
        <ele>736.8</ele>
        <time>2016-07-23T11:13:50Z</time>
      </trkpt>
      <trkpt lat="42.53861" lon="0.1986">
        <ele>737</ele>
        <time>2016-07-23T11:13:51Z</time>
      </trkpt>
      <trkpt lat="42.53864" lon="0.19858">
        <ele>737.1</ele>
        <time>2016-07-23T11:13:52Z</time>
      </trkpt>
      <trkpt lat="42.53867" lon="0.19856">
        <ele>737.2</ele>
        <time>2016-07-23T11:13:53Z</time>
      </trkpt>
      <trkpt lat="42.5387" lon="0.19853">
        <ele>737.3</ele>
        <time>2016-07-23T11:13:54Z</time>
      </trkpt>
      <trkpt lat="42.53873" lon="0.19851">
        <ele>737.4</ele>
        <time>2016-07-23T11:13:55Z</time>
      </trkpt>
      <trkpt lat="42.53876" lon="0.19849">
        <ele>737.5</ele>
        <time>2016-07-23T11:13:56Z</time>
      </trkpt>
      <trkpt lat="42.53879" lon="0.19848">
        <ele>737.7</ele>
        <time>2016-07-23T11:13:57Z</time>
      </trkpt>
      <trkpt lat="42.53882" lon="0.19846">
        <ele>737.6</ele>
        <time>2016-07-23T11:13:58Z</time>
      </trkpt>
      <trkpt lat="42.53885" lon="0.19842">
        <ele>736.7</ele>
        <time>2016-07-23T11:14:00Z</time>
      </trkpt>
      <trkpt lat="42.5389" lon="0.19839">
        <ele>736.3</ele>
        <time>2016-07-23T11:14:02Z</time>
      </trkpt>
      <trkpt lat="42.53893" lon="0.19838">
        <ele>736.5</ele>
        <time>2016-07-23T11:14:03Z</time>
      </trkpt>
      <trkpt lat="42.53896" lon="0.19837">
        <ele>737.1</ele>
        <time>2016-07-23T11:14:04Z</time>
      </trkpt>
      <trkpt lat="42.53901" lon="0.19836">
        <ele>737.9</ele>
        <time>2016-07-23T11:14:06Z</time>
      </trkpt>
      <trkpt lat="42.53904" lon="0.19835">
        <ele>738.2</ele>
        <time>2016-07-23T11:14:07Z</time>
      </trkpt>
      <trkpt lat="42.53906" lon="0.19834">
        <ele>738.5</ele>
        <time>2016-07-23T11:14:08Z</time>
      </trkpt>
      <trkpt lat="42.53909" lon="0.19833">
        <ele>738.7</ele>
        <time>2016-07-23T11:14:09Z</time>
      </trkpt>
      <trkpt lat="42.53912" lon="0.19832">
        <ele>738.9</ele>
        <time>2016-07-23T11:14:10Z</time>
      </trkpt>
      <trkpt lat="42.53915" lon="0.1983">
        <ele>738.7</ele>
        <time>2016-07-23T11:14:11Z</time>
      </trkpt>
      <trkpt lat="42.53918" lon="0.19827">
        <ele>738.1</ele>
        <time>2016-07-23T11:14:12Z</time>
      </trkpt>
      <trkpt lat="42.5392" lon="0.19824">
        <ele>737.2</ele>
        <time>2016-07-23T11:14:13Z</time>
      </trkpt>
      <trkpt lat="42.53922" lon="0.19822">
        <ele>736.3</ele>
        <time>2016-07-23T11:14:14Z</time>
      </trkpt>
      <trkpt lat="42.53923" lon="0.19819">
        <ele>735.3</ele>
        <time>2016-07-23T11:14:15Z</time>
      </trkpt>
      <trkpt lat="42.53925" lon="0.19816">
        <ele>734.5</ele>
        <time>2016-07-23T11:14:16Z</time>
      </trkpt>
      <trkpt lat="42.53929" lon="0.19813">
        <ele>733.8</ele>
        <time>2016-07-23T11:14:18Z</time>
      </trkpt>
      <trkpt lat="42.53932" lon="0.19811">
        <ele>733.5</ele>
        <time>2016-07-23T11:14:19Z</time>
      </trkpt>
      <trkpt lat="42.53935" lon="0.1981">
        <ele>733.5</ele>
        <time>2016-07-23T11:14:20Z</time>
      </trkpt>
      <trkpt lat="42.53939" lon="0.19808">
        <ele>733.6</ele>
        <time>2016-07-23T11:14:21Z</time>
      </trkpt>
      <trkpt lat="42.53943" lon="0.19806">
        <ele>733.5</ele>
        <time>2016-07-23T11:14:22Z</time>
      </trkpt>
      <trkpt lat="42.53947" lon="0.19803">
        <ele>733.4</ele>
        <time>2016-07-23T11:14:23Z</time>
      </trkpt>
      <trkpt lat="42.53951" lon="0.19801">
        <ele>733.2</ele>
        <time>2016-07-23T11:14:24Z</time>
      </trkpt>
      <trkpt lat="42.53955" lon="0.19799">
        <ele>733</ele>
        <time>2016-07-23T11:14:25Z</time>
      </trkpt>
      <trkpt lat="42.53959" lon="0.19797">
        <ele>733</ele>
        <time>2016-07-23T11:14:26Z</time>
      </trkpt>
      <trkpt lat="42.53962" lon="0.19796">
        <ele>732.8</ele>
        <time>2016-07-23T11:14:27Z</time>
      </trkpt>
      <trkpt lat="42.53965" lon="0.19794">
        <ele>732.6</ele>
        <time>2016-07-23T11:14:28Z</time>
      </trkpt>
      <trkpt lat="42.53968" lon="0.19792">
        <ele>732.3</ele>
        <time>2016-07-23T11:14:29Z</time>
      </trkpt>
      <trkpt lat="42.53971" lon="0.1979">
        <ele>732.1</ele>
        <time>2016-07-23T11:14:30Z</time>
      </trkpt>
      <trkpt lat="42.53974" lon="0.19785">
        <ele>731.2</ele>
        <time>2016-07-23T11:14:32Z</time>
      </trkpt>
      <trkpt lat="42.53977" lon="0.19779">
        <ele>730</ele>
        <time>2016-07-23T11:14:34Z</time>
      </trkpt>
      <trkpt lat="42.53979" lon="0.19775">
        <ele>728.9</ele>
        <time>2016-07-23T11:14:36Z</time>
      </trkpt>
      <trkpt lat="42.5398" lon="0.19771">
        <ele>728</ele>
        <time>2016-07-23T11:14:38Z</time>
      </trkpt>
      <trkpt lat="42.53981" lon="0.19767">
        <ele>727</ele>
        <time>2016-07-23T11:14:40Z</time>
      </trkpt>
      <trkpt lat="42.53982" lon="0.19763">
        <ele>726.1</ele>
        <time>2016-07-23T11:14:42Z</time>
      </trkpt>
      <trkpt lat="42.53983" lon="0.19758">
        <ele>724.9</ele>
        <time>2016-07-23T11:14:44Z</time>
      </trkpt>
      <trkpt lat="42.53986" lon="0.19755">
        <ele>724.3</ele>
        <time>2016-07-23T11:14:46Z</time>
      </trkpt>
      <trkpt lat="42.53988" lon="0.19752">
        <ele>723.9</ele>
        <time>2016-07-23T11:14:49Z</time>
      </trkpt>
      <trkpt lat="42.53988" lon="0.19747">
        <ele>722.7</ele>
        <time>2016-07-23T11:14:53Z</time>
      </trkpt>
      <trkpt lat="42.5399" lon="0.19744">
        <ele>722.1</ele>
        <time>2016-07-23T11:14:55Z</time>
      </trkpt>
      <trkpt lat="42.53992" lon="0.1974">
        <ele>721.4</ele>
        <time>2016-07-23T11:14:57Z</time>
      </trkpt>
      <trkpt lat="42.53994" lon="0.19736">
        <ele>720.8</ele>
        <time>2016-07-23T11:14:59Z</time>
      </trkpt>
      <trkpt lat="42.53995" lon="0.19733">
        <ele>720</ele>
        <time>2016-07-23T11:15:01Z</time>
      </trkpt>
      <trkpt lat="42.53996" lon="0.19727">
        <ele>718.7</ele>
        <time>2016-07-23T11:15:03Z</time>
      </trkpt>
      <trkpt lat="42.53998" lon="0.19723">
        <ele>718</ele>
        <time>2016-07-23T11:15:04Z</time>
      </trkpt>
      <trkpt lat="42.54001" lon="0.19719">
        <ele>717.5</ele>
        <time>2016-07-23T11:15:05Z</time>
      </trkpt>
      <trkpt lat="42.54004" lon="0.19715">
        <ele>717.1</ele>
        <time>2016-07-23T11:15:06Z</time>
      </trkpt>
      <trkpt lat="42.54007" lon="0.19711">
        <ele>716.7</ele>
        <time>2016-07-23T11:15:07Z</time>
      </trkpt>
      <trkpt lat="42.5401" lon="0.19707">
        <ele>716.5</ele>
        <time>2016-07-23T11:15:08Z</time>
      </trkpt>
      <trkpt lat="42.54012" lon="0.19703">
        <ele>716.5</ele>
        <time>2016-07-23T11:15:09Z</time>
      </trkpt>
      <trkpt lat="42.54015" lon="0.19699">
        <ele>716.4</ele>
        <time>2016-07-23T11:15:10Z</time>
      </trkpt>
      <trkpt lat="42.54017" lon="0.19696">
        <ele>716.3</ele>
        <time>2016-07-23T11:15:11Z</time>
      </trkpt>
      <trkpt lat="42.54019" lon="0.19692">
        <ele>716.2</ele>
        <time>2016-07-23T11:15:12Z</time>
      </trkpt>
      <trkpt lat="42.54021" lon="0.19689">
        <ele>716.1</ele>
        <time>2016-07-23T11:15:13Z</time>
      </trkpt>
      <trkpt lat="42.54024" lon="0.19687">
        <ele>716.1</ele>
        <time>2016-07-23T11:15:14Z</time>
      </trkpt>
      <trkpt lat="42.54027" lon="0.19682">
        <ele>715.9</ele>
        <time>2016-07-23T11:15:16Z</time>
      </trkpt>
      <trkpt lat="42.54027" lon="0.19676">
        <ele>714.7</ele>
        <time>2016-07-23T11:15:18Z</time>
      </trkpt>
      <trkpt lat="42.54026" lon="0.19669">
        <ele>712.9</ele>
        <time>2016-07-23T11:15:20Z</time>
      </trkpt>
      <trkpt lat="42.54026" lon="0.19662">
        <ele>711.5</ele>
        <time>2016-07-23T11:15:22Z</time>
      </trkpt>
      <trkpt lat="42.54028" lon="0.19658">
        <ele>710.9</ele>
        <time>2016-07-23T11:15:23Z</time>
      </trkpt>
      <trkpt lat="42.5403" lon="0.19655">
        <ele>710.6</ele>
        <time>2016-07-23T11:15:24Z</time>
      </trkpt>
      <trkpt lat="42.54032" lon="0.19653">
        <ele>710.6</ele>
        <time>2016-07-23T11:15:25Z</time>
      </trkpt>
      <trkpt lat="42.54035" lon="0.19651">
        <ele>710.8</ele>
        <time>2016-07-23T11:15:26Z</time>
      </trkpt>
      <trkpt lat="42.54038" lon="0.19649">
        <ele>711</ele>
        <time>2016-07-23T11:15:27Z</time>
      </trkpt>
      <trkpt lat="42.5404" lon="0.19646">
        <ele>710.8</ele>
        <time>2016-07-23T11:15:28Z</time>
      </trkpt>
      <trkpt lat="42.54042" lon="0.19643">
        <ele>710.2</ele>
        <time>2016-07-23T11:15:29Z</time>
      </trkpt>
      <trkpt lat="42.54044" lon="0.19637">
        <ele>709.4</ele>
        <time>2016-07-23T11:15:30Z</time>
      </trkpt>
      <trkpt lat="42.54048" lon="0.19629">
        <ele>708.7</ele>
        <time>2016-07-23T11:15:31Z</time>
      </trkpt>
      <trkpt lat="42.54052" lon="0.19622">
        <ele>708.3</ele>
        <time>2016-07-23T11:15:32Z</time>
      </trkpt>
      <trkpt lat="42.54057" lon="0.19615">
        <ele>708.2</ele>
        <time>2016-07-23T11:15:33Z</time>
      </trkpt>
      <trkpt lat="42.54061" lon="0.19608">
        <ele>708.1</ele>
        <time>2016-07-23T11:15:34Z</time>
      </trkpt>
      <trkpt lat="42.54066" lon="0.19602">
        <ele>708.2</ele>
        <time>2016-07-23T11:15:35Z</time>
      </trkpt>
      <trkpt lat="42.5407" lon="0.19595">
        <ele>708.2</ele>
        <time>2016-07-23T11:15:36Z</time>
      </trkpt>
      <trkpt lat="42.54074" lon="0.19591">
        <ele>708.3</ele>
        <time>2016-07-23T11:15:37Z</time>
      </trkpt>
      <trkpt lat="42.54078" lon="0.19585">
        <ele>708.3</ele>
        <time>2016-07-23T11:15:38Z</time>
      </trkpt>
      <trkpt lat="42.54082" lon="0.19579">
        <ele>708.4</ele>
        <time>2016-07-23T11:15:39Z</time>
      </trkpt>
      <trkpt lat="42.54087" lon="0.19575">
        <ele>708.8</ele>
        <time>2016-07-23T11:15:40Z</time>
      </trkpt>
      <trkpt lat="42.5409" lon="0.19571">
        <ele>709</ele>
        <time>2016-07-23T11:15:41Z</time>
      </trkpt>
      <trkpt lat="42.54094" lon="0.19565">
        <ele>709.1</ele>
        <time>2016-07-23T11:15:42Z</time>
      </trkpt>
      <trkpt lat="42.54098" lon="0.19559">
        <ele>709</ele>
        <time>2016-07-23T11:15:43Z</time>
      </trkpt>
      <trkpt lat="42.54093" lon="0.19556">
        <ele>707.2</ele>
        <time>2016-07-23T11:16:05Z</time>
      </trkpt>
      <trkpt lat="42.54091" lon="0.19554">
        <ele>706.3</ele>
        <time>2016-07-23T11:16:06Z</time>
      </trkpt>
      <trkpt lat="42.54088" lon="0.19554">
        <ele>705.2</ele>
        <time>2016-07-23T11:16:07Z</time>
      </trkpt>
      <trkpt lat="42.54083" lon="0.19554">
        <ele>704.2</ele>
        <time>2016-07-23T11:16:08Z</time>
      </trkpt>
      <trkpt lat="42.54078" lon="0.19557">
        <ele>703.3</ele>
        <time>2016-07-23T11:16:09Z</time>
      </trkpt>
      <trkpt lat="42.54072" lon="0.1956">
        <ele>702.3</ele>
        <time>2016-07-23T11:16:10Z</time>
      </trkpt>
      <trkpt lat="42.54063" lon="0.19567">
        <ele>701.3</ele>
        <time>2016-07-23T11:16:11Z</time>
      </trkpt>
      <trkpt lat="42.54057" lon="0.19572">
        <ele>700.4</ele>
        <time>2016-07-23T11:16:12Z</time>
      </trkpt>
      <trkpt lat="42.5405" lon="0.19579">
        <ele>699.9</ele>
        <time>2016-07-23T11:16:13Z</time>
      </trkpt>
      <trkpt lat="42.54043" lon="0.19583">
        <ele>698.8</ele>
        <time>2016-07-23T11:16:14Z</time>
      </trkpt>
      <trkpt lat="42.54035" lon="0.19588">
        <ele>699</ele>
        <time>2016-07-23T11:16:15Z</time>
      </trkpt>
      <trkpt lat="42.54026" lon="0.19593">
        <ele>699.1</ele>
        <time>2016-07-23T11:16:16Z</time>
      </trkpt>
      <trkpt lat="42.54018" lon="0.19598">
        <ele>699</ele>
        <time>2016-07-23T11:16:17Z</time>
      </trkpt>
      <trkpt lat="42.54009" lon="0.19603">
        <ele>698.7</ele>
        <time>2016-07-23T11:16:18Z</time>
      </trkpt>
      <trkpt lat="42.54001" lon="0.19608">
        <ele>698.2</ele>
        <time>2016-07-23T11:16:19Z</time>
      </trkpt>
      <trkpt lat="42.53993" lon="0.19614">
        <ele>697.4</ele>
        <time>2016-07-23T11:16:20Z</time>
      </trkpt>
      <trkpt lat="42.53986" lon="0.19622">
        <ele>696.5</ele>
        <time>2016-07-23T11:16:21Z</time>
      </trkpt>
      <trkpt lat="42.53978" lon="0.19628">
        <ele>695.8</ele>
        <time>2016-07-23T11:16:22Z</time>
      </trkpt>
      <trkpt lat="42.53972" lon="0.19635">
        <ele>695.6</ele>
        <time>2016-07-23T11:16:23Z</time>
      </trkpt>
      <trkpt lat="42.53969" lon="0.19639">
        <ele>695.7</ele>
        <time>2016-07-23T11:16:24Z</time>
      </trkpt>
      <trkpt lat="42.53965" lon="0.19642">
        <ele>695.3</ele>
        <time>2016-07-23T11:16:25Z</time>
      </trkpt>
      <trkpt lat="42.53962" lon="0.19645">
        <ele>695.2</ele>
        <time>2016-07-23T11:16:26Z</time>
      </trkpt>
      <trkpt lat="42.53958" lon="0.19645">
        <ele>694.4</ele>
        <time>2016-07-23T11:16:27Z</time>
      </trkpt>
      <trkpt lat="42.53957" lon="0.19642">
        <ele>694.1</ele>
        <time>2016-07-23T11:16:28Z</time>
      </trkpt>
      <trkpt lat="42.53962" lon="0.19631">
        <ele>693.4</ele>
        <time>2016-07-23T11:16:30Z</time>
      </trkpt>
      <trkpt lat="42.53964" lon="0.19623">
        <ele>693</ele>
        <time>2016-07-23T11:16:31Z</time>
      </trkpt>
      <trkpt lat="42.53965" lon="0.19615">
        <ele>693.7</ele>
        <time>2016-07-23T11:16:32Z</time>
      </trkpt>
      <trkpt lat="42.53969" lon="0.19606">
        <ele>694.5</ele>
        <time>2016-07-23T11:16:33Z</time>
      </trkpt>
      <trkpt lat="42.53973" lon="0.19599">
        <ele>695.2</ele>
        <time>2016-07-23T11:16:34Z</time>
      </trkpt>
      <trkpt lat="42.53977" lon="0.19593">
        <ele>695.6</ele>
        <time>2016-07-23T11:16:35Z</time>
      </trkpt>
      <trkpt lat="42.53979" lon="0.19588">
        <ele>695.8</ele>
        <time>2016-07-23T11:16:36Z</time>
      </trkpt>
      <trkpt lat="42.53982" lon="0.19582">
        <ele>696</ele>
        <time>2016-07-23T11:16:37Z</time>
      </trkpt>
      <trkpt lat="42.53986" lon="0.19576">
        <ele>696.1</ele>
        <time>2016-07-23T11:16:38Z</time>
      </trkpt>
      <trkpt lat="42.53989" lon="0.19569">
        <ele>696</ele>
        <time>2016-07-23T11:16:39Z</time>
      </trkpt>
      <trkpt lat="42.53992" lon="0.19562">
        <ele>695.8</ele>
        <time>2016-07-23T11:16:40Z</time>
      </trkpt>
      <trkpt lat="42.53994" lon="0.19555">
        <ele>695.5</ele>
        <time>2016-07-23T11:16:41Z</time>
      </trkpt>
      <trkpt lat="42.53996" lon="0.19549">
        <ele>695.1</ele>
        <time>2016-07-23T11:16:42Z</time>
      </trkpt>
      <trkpt lat="42.53998" lon="0.19541">
        <ele>694.7</ele>
        <time>2016-07-23T11:16:44Z</time>
      </trkpt>
      <trkpt lat="42.54" lon="0.19537">
        <ele>695.3</ele>
        <time>2016-07-23T11:16:45Z</time>
      </trkpt>
      <trkpt lat="42.54003" lon="0.19531">
        <ele>695.9</ele>
        <time>2016-07-23T11:16:47Z</time>
      </trkpt>
      <trkpt lat="42.54005" lon="0.19527">
        <ele>696.4</ele>
        <time>2016-07-23T11:16:49Z</time>
      </trkpt>
      <trkpt lat="42.54006" lon="0.19523">
        <ele>696.8</ele>
        <time>2016-07-23T11:16:52Z</time>
      </trkpt>
      <trkpt lat="42.54007" lon="0.19519">
        <ele>697.2</ele>
        <time>2016-07-23T11:16:54Z</time>
      </trkpt>
      <trkpt lat="42.54006" lon="0.19516">
        <ele>697.9</ele>
        <time>2016-07-23T11:17:00Z</time>
      </trkpt>
      <trkpt lat="42.54007" lon="0.19512">
        <ele>698.2</ele>
        <time>2016-07-23T11:17:04Z</time>
      </trkpt>
      <trkpt lat="42.54008" lon="0.19508">
        <ele>698.6</ele>
        <time>2016-07-23T11:17:10Z</time>
      </trkpt>
      <trkpt lat="42.54009" lon="0.19504">
        <ele>698.9</ele>
        <time>2016-07-23T11:17:16Z</time>
      </trkpt>
      <trkpt lat="42.5401" lon="0.195">
        <ele>699.3</ele>
        <time>2016-07-23T11:17:21Z</time>
      </trkpt>
      <trkpt lat="42.5401" lon="0.19496">
        <ele>699.6</ele>
        <time>2016-07-23T11:17:24Z</time>
      </trkpt>
      <trkpt lat="42.5401" lon="0.19491">
        <ele>700.4</ele>
        <time>2016-07-23T11:17:27Z</time>
      </trkpt>
      <trkpt lat="42.54009" lon="0.19486">
        <ele>701.3</ele>
        <time>2016-07-23T11:17:29Z</time>
      </trkpt>
      <trkpt lat="42.54007" lon="0.19478">
        <ele>703</ele>
        <time>2016-07-23T11:17:31Z</time>
      </trkpt>
      <trkpt lat="42.54005" lon="0.19473">
        <ele>704.4</ele>
        <time>2016-07-23T11:17:32Z</time>
      </trkpt>
      <trkpt lat="42.54004" lon="0.19467">
        <ele>705.8</ele>
        <time>2016-07-23T11:17:33Z</time>
      </trkpt>
      <trkpt lat="42.54002" lon="0.19461">
        <ele>707.4</ele>
        <time>2016-07-23T11:17:34Z</time>
      </trkpt>
      <trkpt lat="42.54" lon="0.19456">
        <ele>709.5</ele>
        <time>2016-07-23T11:17:35Z</time>
      </trkpt>
      <trkpt lat="42.53998" lon="0.1945">
        <ele>711.8</ele>
        <time>2016-07-23T11:17:36Z</time>
      </trkpt>
      <trkpt lat="42.53997" lon="0.19445">
        <ele>714.1</ele>
        <time>2016-07-23T11:17:37Z</time>
      </trkpt>
      <trkpt lat="42.53995" lon="0.1944">
        <ele>716.4</ele>
        <time>2016-07-23T11:17:38Z</time>
      </trkpt>
      <trkpt lat="42.53994" lon="0.19435">
        <ele>718.6</ele>
        <time>2016-07-23T11:17:39Z</time>
      </trkpt>
      <trkpt lat="42.53992" lon="0.19431">
        <ele>720.6</ele>
        <time>2016-07-23T11:17:40Z</time>
      </trkpt>
      <trkpt lat="42.53992" lon="0.19427">
        <ele>722.2</ele>
        <time>2016-07-23T11:17:41Z</time>
      </trkpt>
      <trkpt lat="42.53992" lon="0.19423">
        <ele>723.5</ele>
        <time>2016-07-23T11:17:43Z</time>
      </trkpt>
      <trkpt lat="42.53995" lon="0.1942">
        <ele>723.2</ele>
        <time>2016-07-23T11:17:46Z</time>
      </trkpt>
      <trkpt lat="42.53998" lon="0.19421">
        <ele>721.5</ele>
        <time>2016-07-23T11:17:52Z</time>
      </trkpt>
      <trkpt lat="42.54001" lon="0.1942">
        <ele>720.4</ele>
        <time>2016-07-23T11:17:56Z</time>
      </trkpt>
      <trkpt lat="42.54004" lon="0.1942">
        <ele>718.9</ele>
        <time>2016-07-23T11:18:00Z</time>
      </trkpt>
      <trkpt lat="42.54008" lon="0.19421">
        <ele>717.1</ele>
        <time>2016-07-23T11:18:02Z</time>
      </trkpt>
      <trkpt lat="42.54012" lon="0.1942">
        <ele>715.5</ele>
        <time>2016-07-23T11:18:04Z</time>
      </trkpt>
      <trkpt lat="42.54017" lon="0.19416">
        <ele>714.6</ele>
        <time>2016-07-23T11:18:06Z</time>
      </trkpt>
      <trkpt lat="42.54019" lon="0.19413">
        <ele>714.4</ele>
        <time>2016-07-23T11:18:07Z</time>
      </trkpt>
      <trkpt lat="42.54022" lon="0.19409">
        <ele>714.3</ele>
        <time>2016-07-23T11:18:08Z</time>
      </trkpt>
      <trkpt lat="42.54024" lon="0.19406">
        <ele>714.1</ele>
        <time>2016-07-23T11:18:09Z</time>
      </trkpt>
      <trkpt lat="42.54026" lon="0.19403">
        <ele>713.8</ele>
        <time>2016-07-23T11:18:10Z</time>
      </trkpt>
      <trkpt lat="42.54029" lon="0.19401">
        <ele>713.3</ele>
        <time>2016-07-23T11:18:11Z</time>
      </trkpt>
      <trkpt lat="42.54033" lon="0.19397">
        <ele>711.9</ele>
        <time>2016-07-23T11:18:13Z</time>
      </trkpt>
      <trkpt lat="42.54036" lon="0.19396">
        <ele>710.8</ele>
        <time>2016-07-23T11:18:14Z</time>
      </trkpt>
      <trkpt lat="42.54039" lon="0.19394">
        <ele>709.9</ele>
        <time>2016-07-23T11:18:15Z</time>
      </trkpt>
      <trkpt lat="42.54043" lon="0.19391">
        <ele>709</ele>
        <time>2016-07-23T11:18:17Z</time>
      </trkpt>
      <trkpt lat="42.54046" lon="0.19389">
        <ele>709</ele>
        <time>2016-07-23T11:18:19Z</time>
      </trkpt>
      <trkpt lat="42.54048" lon="0.19386">
        <ele>709.2</ele>
        <time>2016-07-23T11:18:21Z</time>
      </trkpt>
      <trkpt lat="42.54051" lon="0.19383">
        <ele>709.3</ele>
        <time>2016-07-23T11:18:23Z</time>
      </trkpt>
      <trkpt lat="42.54053" lon="0.19381">
        <ele>709.3</ele>
        <time>2016-07-23T11:18:28Z</time>
      </trkpt>
      <trkpt lat="42.54056" lon="0.19378">
        <ele>709.3</ele>
        <time>2016-07-23T11:18:32Z</time>
      </trkpt>
      <trkpt lat="42.54057" lon="0.19375">
        <ele>709.8</ele>
        <time>2016-07-23T11:18:36Z</time>
      </trkpt>
      <trkpt lat="42.54055" lon="0.1937">
        <ele>711.2</ele>
        <time>2016-07-23T11:18:38Z</time>
      </trkpt>
      <trkpt lat="42.54054" lon="0.19366">
        <ele>712.5</ele>
        <time>2016-07-23T11:18:40Z</time>
      </trkpt>
      <trkpt lat="42.54051" lon="0.19362">
        <ele>714.1</ele>
        <time>2016-07-23T11:18:43Z</time>
      </trkpt>
      <trkpt lat="42.54049" lon="0.19359">
        <ele>715.5</ele>
        <time>2016-07-23T11:18:45Z</time>
      </trkpt>
      <trkpt lat="42.54047" lon="0.19355">
        <ele>716.7</ele>
        <time>2016-07-23T11:18:47Z</time>
      </trkpt>
      <trkpt lat="42.54046" lon="0.19351">
        <ele>718.1</ele>
        <time>2016-07-23T11:18:50Z</time>
      </trkpt>
      <trkpt lat="42.54045" lon="0.19348">
        <ele>719.4</ele>
        <time>2016-07-23T11:18:52Z</time>
      </trkpt>
      <trkpt lat="42.54043" lon="0.19343">
        <ele>720.9</ele>
        <time>2016-07-23T11:18:54Z</time>
      </trkpt>
      <trkpt lat="42.54043" lon="0.19337">
        <ele>722.5</ele>
        <time>2016-07-23T11:18:56Z</time>
      </trkpt>
      <trkpt lat="42.54044" lon="0.19331">
        <ele>724</ele>
        <time>2016-07-23T11:18:58Z</time>
      </trkpt>
      <trkpt lat="42.54043" lon="0.19325">
        <ele>725.8</ele>
        <time>2016-07-23T11:19:00Z</time>
      </trkpt>
      <trkpt lat="42.54042" lon="0.1932">
        <ele>727.2</ele>
        <time>2016-07-23T11:19:02Z</time>
      </trkpt>
      <trkpt lat="42.54043" lon="0.19316">
        <ele>728</ele>
        <time>2016-07-23T11:19:04Z</time>
      </trkpt>
      <trkpt lat="42.54043" lon="0.19313">
        <ele>729.1</ele>
        <time>2016-07-23T11:19:06Z</time>
      </trkpt>
      <trkpt lat="42.54043" lon="0.19308">
        <ele>730.3</ele>
        <time>2016-07-23T11:19:08Z</time>
      </trkpt>
      <trkpt lat="42.54044" lon="0.19303">
        <ele>731.3</ele>
        <time>2016-07-23T11:19:10Z</time>
      </trkpt>
      <trkpt lat="42.54044" lon="0.19297">
        <ele>732.6</ele>
        <time>2016-07-23T11:19:12Z</time>
      </trkpt>
      <trkpt lat="42.54045" lon="0.19293">
        <ele>733.2</ele>
        <time>2016-07-23T11:19:15Z</time>
      </trkpt>
      <trkpt lat="42.54047" lon="0.19288">
        <ele>733.5</ele>
        <time>2016-07-23T11:19:19Z</time>
      </trkpt>
      <trkpt lat="42.54044" lon="0.19286">
        <ele>735.3</ele>
        <time>2016-07-23T11:19:24Z</time>
      </trkpt>
      <trkpt lat="42.54041" lon="0.19287">
        <ele>736.5</ele>
        <time>2016-07-23T11:19:34Z</time>
      </trkpt>
      <trkpt lat="42.54039" lon="0.19286">
        <ele>738.3</ele>
        <time>2016-07-23T11:19:41Z</time>
      </trkpt>
      <trkpt lat="42.54037" lon="0.19282">
        <ele>740.2</ele>
        <time>2016-07-23T11:19:49Z</time>
      </trkpt>
      <trkpt lat="42.54038" lon="0.19278">
        <ele>740.6</ele>
        <time>2016-07-23T11:19:52Z</time>
      </trkpt>
      <trkpt lat="42.54039" lon="0.19274">
        <ele>740.9</ele>
        <time>2016-07-23T11:19:55Z</time>
      </trkpt>
      <trkpt lat="42.5404" lon="0.19271">
        <ele>741</ele>
        <time>2016-07-23T11:20:02Z</time>
      </trkpt>
      <trkpt lat="42.54042" lon="0.19267">
        <ele>740.9</ele>
        <time>2016-07-23T11:20:06Z</time>
      </trkpt>
      <trkpt lat="42.54044" lon="0.19262">
        <ele>741.1</ele>
        <time>2016-07-23T11:20:08Z</time>
      </trkpt>
      <trkpt lat="42.54046" lon="0.19259">
        <ele>741.3</ele>
        <time>2016-07-23T11:20:09Z</time>
      </trkpt>
      <trkpt lat="42.54048" lon="0.19254">
        <ele>741.7</ele>
        <time>2016-07-23T11:20:11Z</time>
      </trkpt>
      <trkpt lat="42.5405" lon="0.19249">
        <ele>742</ele>
        <time>2016-07-23T11:20:13Z</time>
      </trkpt>
      <trkpt lat="42.54052" lon="0.19245">
        <ele>742.2</ele>
        <time>2016-07-23T11:20:15Z</time>
      </trkpt>
      <trkpt lat="42.54055" lon="0.19241">
        <ele>741.7</ele>
        <time>2016-07-23T11:20:17Z</time>
      </trkpt>
      <trkpt lat="42.54059" lon="0.19238">
        <ele>740.8</ele>
        <time>2016-07-23T11:20:19Z</time>
      </trkpt>
      <trkpt lat="42.54064" lon="0.19235">
        <ele>739.6</ele>
        <time>2016-07-23T11:20:21Z</time>
      </trkpt>
      <trkpt lat="42.54068" lon="0.19232">
        <ele>739.1</ele>
        <time>2016-07-23T11:20:22Z</time>
      </trkpt>
      <trkpt lat="42.5407" lon="0.19229">
        <ele>738.6</ele>
        <time>2016-07-23T11:20:23Z</time>
      </trkpt>
      <trkpt lat="42.54074" lon="0.19225">
        <ele>738.1</ele>
        <time>2016-07-23T11:20:25Z</time>
      </trkpt>
      <trkpt lat="42.54076" lon="0.1922">
        <ele>738.6</ele>
        <time>2016-07-23T11:20:27Z</time>
      </trkpt>
      <trkpt lat="42.54077" lon="0.19217">
        <ele>739</ele>
        <time>2016-07-23T11:20:33Z</time>
      </trkpt>
      <trkpt lat="42.5408" lon="0.19218">
        <ele>737.6</ele>
        <time>2016-07-23T11:20:38Z</time>
      </trkpt>
      <trkpt lat="42.54082" lon="0.19219">
        <ele>736.2</ele>
        <time>2016-07-23T11:20:42Z</time>
      </trkpt>
      <trkpt lat="42.54086" lon="0.19219">
        <ele>734.7</ele>
        <time>2016-07-23T11:20:49Z</time>
      </trkpt>
      <trkpt lat="42.5409" lon="0.19218">
        <ele>733.8</ele>
        <time>2016-07-23T11:20:51Z</time>
      </trkpt>
      <trkpt lat="42.54094" lon="0.19215">
        <ele>732.7</ele>
        <time>2016-07-23T11:20:53Z</time>
      </trkpt>
      <trkpt lat="42.54097" lon="0.19213">
        <ele>732.1</ele>
        <time>2016-07-23T11:20:54Z</time>
      </trkpt>
      <trkpt lat="42.541" lon="0.19211">
        <ele>731.4</ele>
        <time>2016-07-23T11:20:55Z</time>
      </trkpt>
      <trkpt lat="42.54103" lon="0.19209">
        <ele>730.7</ele>
        <time>2016-07-23T11:20:56Z</time>
      </trkpt>
      <trkpt lat="42.54105" lon="0.19208">
        <ele>729.9</ele>
        <time>2016-07-23T11:20:57Z</time>
      </trkpt>
      <trkpt lat="42.54109" lon="0.19206">
        <ele>728.8</ele>
        <time>2016-07-23T11:20:58Z</time>
      </trkpt>
      <trkpt lat="42.54112" lon="0.19205">
        <ele>727.7</ele>
        <time>2016-07-23T11:20:59Z</time>
      </trkpt>
      <trkpt lat="42.54116" lon="0.19203">
        <ele>726.6</ele>
        <time>2016-07-23T11:21:00Z</time>
      </trkpt>
      <trkpt lat="42.54119" lon="0.19202">
        <ele>725.6</ele>
        <time>2016-07-23T11:21:01Z</time>
      </trkpt>
      <trkpt lat="42.54124" lon="0.19201">
        <ele>724</ele>
        <time>2016-07-23T11:21:03Z</time>
      </trkpt>
      <trkpt lat="42.54127" lon="0.192">
        <ele>723.5</ele>
        <time>2016-07-23T11:21:04Z</time>
      </trkpt>
      <trkpt lat="42.54131" lon="0.192">
        <ele>723.1</ele>
        <time>2016-07-23T11:21:05Z</time>
      </trkpt>
      <trkpt lat="42.54135" lon="0.19199">
        <ele>722.7</ele>
        <time>2016-07-23T11:21:06Z</time>
      </trkpt>
      <trkpt lat="42.54138" lon="0.19198">
        <ele>722.4</ele>
        <time>2016-07-23T11:21:07Z</time>
      </trkpt>
      <trkpt lat="42.54142" lon="0.19197">
        <ele>722.1</ele>
        <time>2016-07-23T11:21:08Z</time>
      </trkpt>
      <trkpt lat="42.54146" lon="0.19195">
        <ele>721.7</ele>
        <time>2016-07-23T11:21:09Z</time>
      </trkpt>
      <trkpt lat="42.54151" lon="0.19195">
        <ele>721.1</ele>
        <time>2016-07-23T11:21:10Z</time>
      </trkpt>
      <trkpt lat="42.54154" lon="0.19195">
        <ele>720.6</ele>
        <time>2016-07-23T11:21:11Z</time>
      </trkpt>
      <trkpt lat="42.54158" lon="0.19195">
        <ele>719.9</ele>
        <time>2016-07-23T11:21:12Z</time>
      </trkpt>
      <trkpt lat="42.54162" lon="0.19196">
        <ele>719.2</ele>
        <time>2016-07-23T11:21:13Z</time>
      </trkpt>
      <trkpt lat="42.54166" lon="0.19197">
        <ele>718.5</ele>
        <time>2016-07-23T11:21:14Z</time>
      </trkpt>
      <trkpt lat="42.5417" lon="0.19197">
        <ele>717.8</ele>
        <time>2016-07-23T11:21:15Z</time>
      </trkpt>
      <trkpt lat="42.54174" lon="0.19196">
        <ele>717.4</ele>
        <time>2016-07-23T11:21:16Z</time>
      </trkpt>
      <trkpt lat="42.54178" lon="0.19194">
        <ele>717</ele>
        <time>2016-07-23T11:21:17Z</time>
      </trkpt>
      <trkpt lat="42.54181" lon="0.19192">
        <ele>716.7</ele>
        <time>2016-07-23T11:21:18Z</time>
      </trkpt>
      <trkpt lat="42.54184" lon="0.19189">
        <ele>716.7</ele>
        <time>2016-07-23T11:21:19Z</time>
      </trkpt>
      <trkpt lat="42.54186" lon="0.19184">
        <ele>716.9</ele>
        <time>2016-07-23T11:21:20Z</time>
      </trkpt>
      <trkpt lat="42.54188" lon="0.19179">
        <ele>717.1</ele>
        <time>2016-07-23T11:21:21Z</time>
      </trkpt>
      <trkpt lat="42.5419" lon="0.19174">
        <ele>717.3</ele>
        <time>2016-07-23T11:21:22Z</time>
      </trkpt>
      <trkpt lat="42.54193" lon="0.19169">
        <ele>717.3</ele>
        <time>2016-07-23T11:21:23Z</time>
      </trkpt>
      <trkpt lat="42.54196" lon="0.19166">
        <ele>717.1</ele>
        <time>2016-07-23T11:21:24Z</time>
      </trkpt>
      <trkpt lat="42.54198" lon="0.19163">
        <ele>717</ele>
        <time>2016-07-23T11:21:25Z</time>
      </trkpt>
      <trkpt lat="42.542" lon="0.1916">
        <ele>716.9</ele>
        <time>2016-07-23T11:21:26Z</time>
      </trkpt>
      <trkpt lat="42.54203" lon="0.19155">
        <ele>716.7</ele>
        <time>2016-07-23T11:21:27Z</time>
      </trkpt>
      <trkpt lat="42.54205" lon="0.1915">
        <ele>716.7</ele>
        <time>2016-07-23T11:21:28Z</time>
      </trkpt>
      <trkpt lat="42.54206" lon="0.19143">
        <ele>717.1</ele>
        <time>2016-07-23T11:21:29Z</time>
      </trkpt>
      <trkpt lat="42.54207" lon="0.19136">
        <ele>717.5</ele>
        <time>2016-07-23T11:21:30Z</time>
      </trkpt>
      <trkpt lat="42.54207" lon="0.1913">
        <ele>717.9</ele>
        <time>2016-07-23T11:21:31Z</time>
      </trkpt>
      <trkpt lat="42.54207" lon="0.19124">
        <ele>718.4</ele>
        <time>2016-07-23T11:21:32Z</time>
      </trkpt>
      <trkpt lat="42.54207" lon="0.19119">
        <ele>718.5</ele>
        <time>2016-07-23T11:21:33Z</time>
      </trkpt>
      <trkpt lat="42.54208" lon="0.19114">
        <ele>718.6</ele>
        <time>2016-07-23T11:21:34Z</time>
      </trkpt>
      <trkpt lat="42.54208" lon="0.19108">
        <ele>718.8</ele>
        <time>2016-07-23T11:21:35Z</time>
      </trkpt>
      <trkpt lat="42.54208" lon="0.19102">
        <ele>719</ele>
        <time>2016-07-23T11:21:36Z</time>
      </trkpt>
      <trkpt lat="42.54207" lon="0.19097">
        <ele>719.4</ele>
        <time>2016-07-23T11:21:37Z</time>
      </trkpt>
      <trkpt lat="42.54206" lon="0.19092">
        <ele>719.8</ele>
        <time>2016-07-23T11:21:38Z</time>
      </trkpt>
      <trkpt lat="42.54205" lon="0.19087">
        <ele>720.3</ele>
        <time>2016-07-23T11:21:39Z</time>
      </trkpt>
      <trkpt lat="42.54204" lon="0.19082">
        <ele>720.9</ele>
        <time>2016-07-23T11:21:40Z</time>
      </trkpt>
      <trkpt lat="42.54203" lon="0.19078">
        <ele>721.4</ele>
        <time>2016-07-23T11:21:41Z</time>
      </trkpt>
      <trkpt lat="42.54202" lon="0.19075">
        <ele>721.9</ele>
        <time>2016-07-23T11:21:42Z</time>
      </trkpt>
      <trkpt lat="42.542" lon="0.19069">
        <ele>722.7</ele>
        <time>2016-07-23T11:21:44Z</time>
      </trkpt>
      <trkpt lat="42.54197" lon="0.19063">
        <ele>723.9</ele>
        <time>2016-07-23T11:21:46Z</time>
      </trkpt>
      <trkpt lat="42.54196" lon="0.1906">
        <ele>724.6</ele>
        <time>2016-07-23T11:21:47Z</time>
      </trkpt>
      <trkpt lat="42.54196" lon="0.19054">
        <ele>724.9</ele>
        <time>2016-07-23T11:21:48Z</time>
      </trkpt>
      <trkpt lat="42.54196" lon="0.19048">
        <ele>725</ele>
        <time>2016-07-23T11:21:49Z</time>
      </trkpt>
      <trkpt lat="42.54197" lon="0.19042">
        <ele>724.8</ele>
        <time>2016-07-23T11:21:50Z</time>
      </trkpt>
      <trkpt lat="42.542" lon="0.19036">
        <ele>723.9</ele>
        <time>2016-07-23T11:21:51Z</time>
      </trkpt>
      <trkpt lat="42.54202" lon="0.19031">
        <ele>723.2</ele>
        <time>2016-07-23T11:21:52Z</time>
      </trkpt>
      <trkpt lat="42.54204" lon="0.19025">
        <ele>722.6</ele>
        <time>2016-07-23T11:21:53Z</time>
      </trkpt>
      <trkpt lat="42.54204" lon="0.1902">
        <ele>722.3</ele>
        <time>2016-07-23T11:21:54Z</time>
      </trkpt>
      <trkpt lat="42.54205" lon="0.19014">
        <ele>722.2</ele>
        <time>2016-07-23T11:21:55Z</time>
      </trkpt>
      <trkpt lat="42.54204" lon="0.19009">
        <ele>722.4</ele>
        <time>2016-07-23T11:21:56Z</time>
      </trkpt>
      <trkpt lat="42.54202" lon="0.19003">
        <ele>722.9</ele>
        <time>2016-07-23T11:21:57Z</time>
      </trkpt>
      <trkpt lat="42.54201" lon="0.18998">
        <ele>723.4</ele>
        <time>2016-07-23T11:21:58Z</time>
      </trkpt>
      <trkpt lat="42.54199" lon="0.18992">
        <ele>724</ele>
        <time>2016-07-23T11:21:59Z</time>
      </trkpt>
      <trkpt lat="42.54197" lon="0.18987">
        <ele>724.4</ele>
        <time>2016-07-23T11:22:00Z</time>
      </trkpt>
      <trkpt lat="42.54196" lon="0.18983">
        <ele>724.7</ele>
        <time>2016-07-23T11:22:01Z</time>
      </trkpt>
      <trkpt lat="42.54196" lon="0.18979">
        <ele>724.6</ele>
        <time>2016-07-23T11:22:02Z</time>
      </trkpt>
      <trkpt lat="42.54197" lon="0.18974">
        <ele>724.5</ele>
        <time>2016-07-23T11:22:04Z</time>
      </trkpt>
      <trkpt lat="42.54199" lon="0.18968">
        <ele>723.7</ele>
        <time>2016-07-23T11:22:06Z</time>
      </trkpt>
      <trkpt lat="42.54202" lon="0.18964">
        <ele>722.9</ele>
        <time>2016-07-23T11:22:07Z</time>
      </trkpt>
      <trkpt lat="42.54204" lon="0.18959">
        <ele>722.2</ele>
        <time>2016-07-23T11:22:08Z</time>
      </trkpt>
      <trkpt lat="42.54206" lon="0.18955">
        <ele>721</ele>
        <time>2016-07-23T11:22:09Z</time>
      </trkpt>
      <trkpt lat="42.54207" lon="0.1895">
        <ele>719.9</ele>
        <time>2016-07-23T11:22:10Z</time>
      </trkpt>
      <trkpt lat="42.54208" lon="0.18944">
        <ele>719.1</ele>
        <time>2016-07-23T11:22:11Z</time>
      </trkpt>
      <trkpt lat="42.54207" lon="0.1894">
        <ele>718.4</ele>
        <time>2016-07-23T11:22:12Z</time>
      </trkpt>
      <trkpt lat="42.54206" lon="0.18935">
        <ele>718.1</ele>
        <time>2016-07-23T11:22:13Z</time>
      </trkpt>
      <trkpt lat="42.54204" lon="0.18932">
        <ele>718</ele>
        <time>2016-07-23T11:22:14Z</time>
      </trkpt>
      <trkpt lat="42.54202" lon="0.18928">
        <ele>717.9</ele>
        <time>2016-07-23T11:22:15Z</time>
      </trkpt>
      <trkpt lat="42.542" lon="0.18924">
        <ele>717.7</ele>
        <time>2016-07-23T11:22:16Z</time>
      </trkpt>
      <trkpt lat="42.54199" lon="0.18921">
        <ele>717.5</ele>
        <time>2016-07-23T11:22:17Z</time>
      </trkpt>
      <trkpt lat="42.54198" lon="0.18917">
        <ele>717.1</ele>
        <time>2016-07-23T11:22:18Z</time>
      </trkpt>
      <trkpt lat="42.54197" lon="0.18912">
        <ele>716.6</ele>
        <time>2016-07-23T11:22:19Z</time>
      </trkpt>
      <trkpt lat="42.54195" lon="0.18907">
        <ele>716.2</ele>
        <time>2016-07-23T11:22:20Z</time>
      </trkpt>
      <trkpt lat="42.54193" lon="0.18903">
        <ele>715.8</ele>
        <time>2016-07-23T11:22:21Z</time>
      </trkpt>
      <trkpt lat="42.54193" lon="0.18899">
        <ele>715.3</ele>
        <time>2016-07-23T11:22:22Z</time>
      </trkpt>
      <trkpt lat="42.54192" lon="0.18892">
        <ele>714.3</ele>
        <time>2016-07-23T11:22:24Z</time>
      </trkpt>
      <trkpt lat="42.54192" lon="0.18888">
        <ele>713.7</ele>
        <time>2016-07-23T11:22:25Z</time>
      </trkpt>
      <trkpt lat="42.54192" lon="0.18881">
        <ele>712.4</ele>
        <time>2016-07-23T11:22:27Z</time>
      </trkpt>
      <trkpt lat="42.54193" lon="0.18875">
        <ele>711.1</ele>
        <time>2016-07-23T11:22:29Z</time>
      </trkpt>
      <trkpt lat="42.54194" lon="0.1887">
        <ele>710.2</ele>
        <time>2016-07-23T11:22:31Z</time>
      </trkpt>
      <trkpt lat="42.54196" lon="0.18865">
        <ele>709.4</ele>
        <time>2016-07-23T11:22:32Z</time>
      </trkpt>
      <trkpt lat="42.54196" lon="0.1886">
        <ele>708.9</ele>
        <time>2016-07-23T11:22:33Z</time>
      </trkpt>
      <trkpt lat="42.54197" lon="0.18855">
        <ele>707.9</ele>
        <time>2016-07-23T11:22:34Z</time>
      </trkpt>
      <trkpt lat="42.54199" lon="0.18848">
        <ele>706.9</ele>
        <time>2016-07-23T11:22:35Z</time>
      </trkpt>
      <trkpt lat="42.54199" lon="0.18842">
        <ele>706.1</ele>
        <time>2016-07-23T11:22:36Z</time>
      </trkpt>
      <trkpt lat="42.542" lon="0.18835">
        <ele>705.3</ele>
        <time>2016-07-23T11:22:37Z</time>
      </trkpt>
      <trkpt lat="42.54199" lon="0.1883">
        <ele>704.7</ele>
        <time>2016-07-23T11:22:38Z</time>
      </trkpt>
      <trkpt lat="42.54199" lon="0.18825">
        <ele>704.3</ele>
        <time>2016-07-23T11:22:39Z</time>
      </trkpt>
      <trkpt lat="42.54198" lon="0.18821">
        <ele>704</ele>
        <time>2016-07-23T11:22:40Z</time>
      </trkpt>
      <trkpt lat="42.54196" lon="0.18817">
        <ele>703.9</ele>
        <time>2016-07-23T11:22:41Z</time>
      </trkpt>
      <trkpt lat="42.54194" lon="0.18813">
        <ele>703.8</ele>
        <time>2016-07-23T11:22:42Z</time>
      </trkpt>
      <trkpt lat="42.54191" lon="0.1881">
        <ele>703.8</ele>
        <time>2016-07-23T11:22:43Z</time>
      </trkpt>
      <trkpt lat="42.54189" lon="0.18806">
        <ele>703.8</ele>
        <time>2016-07-23T11:22:44Z</time>
      </trkpt>
      <trkpt lat="42.54187" lon="0.18802">
        <ele>703.5</ele>
        <time>2016-07-23T11:22:45Z</time>
      </trkpt>
      <trkpt lat="42.54187" lon="0.18797">
        <ele>702.9</ele>
        <time>2016-07-23T11:22:46Z</time>
      </trkpt>
      <trkpt lat="42.54187" lon="0.18792">
        <ele>702.3</ele>
        <time>2016-07-23T11:22:47Z</time>
      </trkpt>
      <trkpt lat="42.54187" lon="0.18788">
        <ele>702.8</ele>
        <time>2016-07-23T11:22:48Z</time>
      </trkpt>
      <trkpt lat="42.54187" lon="0.18784">
        <ele>703.3</ele>
        <time>2016-07-23T11:22:49Z</time>
      </trkpt>
      <trkpt lat="42.54187" lon="0.1878">
        <ele>703.7</ele>
        <time>2016-07-23T11:22:50Z</time>
      </trkpt>
      <trkpt lat="42.54187" lon="0.18776">
        <ele>704.1</ele>
        <time>2016-07-23T11:22:51Z</time>
      </trkpt>
      <trkpt lat="42.54188" lon="0.18772">
        <ele>704.5</ele>
        <time>2016-07-23T11:22:52Z</time>
      </trkpt>
      <trkpt lat="42.54188" lon="0.18767">
        <ele>705</ele>
        <time>2016-07-23T11:22:53Z</time>
      </trkpt>
      <trkpt lat="42.54188" lon="0.18761">
        <ele>705.7</ele>
        <time>2016-07-23T11:22:54Z</time>
      </trkpt>
      <trkpt lat="42.54188" lon="0.18756">
        <ele>706.4</ele>
        <time>2016-07-23T11:22:55Z</time>
      </trkpt>
      <trkpt lat="42.54187" lon="0.18751">
        <ele>707.3</ele>
        <time>2016-07-23T11:22:56Z</time>
      </trkpt>
      <trkpt lat="42.54186" lon="0.18745">
        <ele>708.2</ele>
        <time>2016-07-23T11:22:57Z</time>
      </trkpt>
      <trkpt lat="42.54185" lon="0.1874">
        <ele>708.9</ele>
        <time>2016-07-23T11:22:58Z</time>
      </trkpt>
      <trkpt lat="42.54185" lon="0.18736">
        <ele>709.5</ele>
        <time>2016-07-23T11:22:59Z</time>
      </trkpt>
      <trkpt lat="42.54183" lon="0.18731">
        <ele>710.7</ele>
        <time>2016-07-23T11:23:01Z</time>
      </trkpt>
      <trkpt lat="42.54179" lon="0.18728">
        <ele>712.2</ele>
        <time>2016-07-23T11:23:03Z</time>
      </trkpt>
      <trkpt lat="42.54176" lon="0.18725">
        <ele>713.7</ele>
        <time>2016-07-23T11:23:05Z</time>
      </trkpt>
      <trkpt lat="42.54176" lon="0.18721">
        <ele>714</ele>
        <time>2016-07-23T11:23:12Z</time>
      </trkpt>
      <trkpt lat="42.54177" lon="0.18717">
        <ele>714.2</ele>
        <time>2016-07-23T11:23:18Z</time>
      </trkpt>
      <trkpt lat="42.54179" lon="0.18713">
        <ele>714.2</ele>
        <time>2016-07-23T11:23:22Z</time>
      </trkpt>
      <trkpt lat="42.5418" lon="0.18708">
        <ele>714.4</ele>
        <time>2016-07-23T11:23:26Z</time>
      </trkpt>
      <trkpt lat="42.54182" lon="0.18706">
        <ele>714.1</ele>
        <time>2016-07-23T11:23:30Z</time>
      </trkpt>
      <trkpt lat="42.54182" lon="0.18702">
        <ele>714.2</ele>
        <time>2016-07-23T11:23:36Z</time>
      </trkpt>
      <trkpt lat="42.54182" lon="0.18698">
        <ele>714.5</ele>
        <time>2016-07-23T11:23:41Z</time>
      </trkpt>
      <trkpt lat="42.54183" lon="0.18694">
        <ele>714.7</ele>
        <time>2016-07-23T11:23:46Z</time>
      </trkpt>
      <trkpt lat="42.54186" lon="0.1869">
        <ele>713.7</ele>
        <time>2016-07-23T11:23:49Z</time>
      </trkpt>
      <trkpt lat="42.54189" lon="0.18687">
        <ele>712.6</ele>
        <time>2016-07-23T11:23:51Z</time>
      </trkpt>
      <trkpt lat="42.54193" lon="0.18683">
        <ele>711.5</ele>
        <time>2016-07-23T11:23:53Z</time>
      </trkpt>
      <trkpt lat="42.54196" lon="0.18677">
        <ele>710.3</ele>
        <time>2016-07-23T11:23:55Z</time>
      </trkpt>
      <trkpt lat="42.54197" lon="0.18674">
        <ele>709.8</ele>
        <time>2016-07-23T11:23:56Z</time>
      </trkpt>
      <trkpt lat="42.54198" lon="0.1867">
        <ele>709.5</ele>
        <time>2016-07-23T11:23:57Z</time>
      </trkpt>
      <trkpt lat="42.54199" lon="0.18665">
        <ele>709.4</ele>
        <time>2016-07-23T11:23:58Z</time>
      </trkpt>
      <trkpt lat="42.54199" lon="0.1866">
        <ele>709.6</ele>
        <time>2016-07-23T11:23:59Z</time>
      </trkpt>
      <trkpt lat="42.54198" lon="0.18654">
        <ele>710</ele>
        <time>2016-07-23T11:24:00Z</time>
      </trkpt>
      <trkpt lat="42.54197" lon="0.18648">
        <ele>710.8</ele>
        <time>2016-07-23T11:24:01Z</time>
      </trkpt>
      <trkpt lat="42.54196" lon="0.18642">
        <ele>711.7</ele>
        <time>2016-07-23T11:24:02Z</time>
      </trkpt>
      <trkpt lat="42.54194" lon="0.18635">
        <ele>712.9</ele>
        <time>2016-07-23T11:24:03Z</time>
      </trkpt>
      <trkpt lat="42.54192" lon="0.18628">
        <ele>714.5</ele>
        <time>2016-07-23T11:24:04Z</time>
      </trkpt>
      <trkpt lat="42.54189" lon="0.18621">
        <ele>716.8</ele>
        <time>2016-07-23T11:24:05Z</time>
      </trkpt>
      <trkpt lat="42.54186" lon="0.18615">
        <ele>719.3</ele>
        <time>2016-07-23T11:24:06Z</time>
      </trkpt>
      <trkpt lat="42.54184" lon="0.18608">
        <ele>721.6</ele>
        <time>2016-07-23T11:24:07Z</time>
      </trkpt>
      <trkpt lat="42.54182" lon="0.18602">
        <ele>723.7</ele>
        <time>2016-07-23T11:24:08Z</time>
      </trkpt>
      <trkpt lat="42.54181" lon="0.18596">
        <ele>725.3</ele>
        <time>2016-07-23T11:24:09Z</time>
      </trkpt>
      <trkpt lat="42.54181" lon="0.18591">
        <ele>726.3</ele>
        <time>2016-07-23T11:24:10Z</time>
      </trkpt>
      <trkpt lat="42.54181" lon="0.18586">
        <ele>727.2</ele>
        <time>2016-07-23T11:24:11Z</time>
      </trkpt>
      <trkpt lat="42.5418" lon="0.18581">
        <ele>728.4</ele>
        <time>2016-07-23T11:24:12Z</time>
      </trkpt>
      <trkpt lat="42.5418" lon="0.18575">
        <ele>729.6</ele>
        <time>2016-07-23T11:24:13Z</time>
      </trkpt>
      <trkpt lat="42.54179" lon="0.18569">
        <ele>730.9</ele>
        <time>2016-07-23T11:24:14Z</time>
      </trkpt>
      <trkpt lat="42.54179" lon="0.18562">
        <ele>732.2</ele>
        <time>2016-07-23T11:24:15Z</time>
      </trkpt>
      <trkpt lat="42.5418" lon="0.18554">
        <ele>732.8</ele>
        <time>2016-07-23T11:24:16Z</time>
      </trkpt>
      <trkpt lat="42.54181" lon="0.18546">
        <ele>733.2</ele>
        <time>2016-07-23T11:24:17Z</time>
      </trkpt>
      <trkpt lat="42.54183" lon="0.18538">
        <ele>733.5</ele>
        <time>2016-07-23T11:24:18Z</time>
      </trkpt>
      <trkpt lat="42.54185" lon="0.1853">
        <ele>733.5</ele>
        <time>2016-07-23T11:24:19Z</time>
      </trkpt>
      <trkpt lat="42.54188" lon="0.18521">
        <ele>733.1</ele>
        <time>2016-07-23T11:24:20Z</time>
      </trkpt>
      <trkpt lat="42.5419" lon="0.18513">
        <ele>732.6</ele>
        <time>2016-07-23T11:24:21Z</time>
      </trkpt>
      <trkpt lat="42.54193" lon="0.18505">
        <ele>732.3</ele>
        <time>2016-07-23T11:24:22Z</time>
      </trkpt>
      <trkpt lat="42.54196" lon="0.18497">
        <ele>732</ele>
        <time>2016-07-23T11:24:23Z</time>
      </trkpt>
      <trkpt lat="42.54198" lon="0.1849">
        <ele>731.9</ele>
        <time>2016-07-23T11:24:24Z</time>
      </trkpt>
      <trkpt lat="42.542" lon="0.18483">
        <ele>731.9</ele>
        <time>2016-07-23T11:24:25Z</time>
      </trkpt>
      <trkpt lat="42.54202" lon="0.18476">
        <ele>732.1</ele>
        <time>2016-07-23T11:24:26Z</time>
      </trkpt>
      <trkpt lat="42.54204" lon="0.18469">
        <ele>732.5</ele>
        <time>2016-07-23T11:24:27Z</time>
      </trkpt>
      <trkpt lat="42.54206" lon="0.18462">
        <ele>732.6</ele>
        <time>2016-07-23T11:24:28Z</time>
      </trkpt>
      <trkpt lat="42.54208" lon="0.18455">
        <ele>732.7</ele>
        <time>2016-07-23T11:24:29Z</time>
      </trkpt>
      <trkpt lat="42.54211" lon="0.18448">
        <ele>732.6</ele>
        <time>2016-07-23T11:24:30Z</time>
      </trkpt>
      <trkpt lat="42.54214" lon="0.18442">
        <ele>732.5</ele>
        <time>2016-07-23T11:24:31Z</time>
      </trkpt>
      <trkpt lat="42.54216" lon="0.18436">
        <ele>732.3</ele>
        <time>2016-07-23T11:24:32Z</time>
      </trkpt>
      <trkpt lat="42.54219" lon="0.18431">
        <ele>732</ele>
        <time>2016-07-23T11:24:33Z</time>
      </trkpt>
      <trkpt lat="42.54221" lon="0.18426">
        <ele>731.5</ele>
        <time>2016-07-23T11:24:34Z</time>
      </trkpt>
      <trkpt lat="42.54225" lon="0.18421">
        <ele>730.7</ele>
        <time>2016-07-23T11:24:35Z</time>
      </trkpt>
      <trkpt lat="42.54228" lon="0.18416">
        <ele>729.9</ele>
        <time>2016-07-23T11:24:36Z</time>
      </trkpt>
      <trkpt lat="42.54232" lon="0.18411">
        <ele>729.1</ele>
        <time>2016-07-23T11:24:37Z</time>
      </trkpt>
      <trkpt lat="42.54235" lon="0.18406">
        <ele>728.4</ele>
        <time>2016-07-23T11:24:38Z</time>
      </trkpt>
      <trkpt lat="42.54239" lon="0.184">
        <ele>727.6</ele>
        <time>2016-07-23T11:24:39Z</time>
      </trkpt>
      <trkpt lat="42.54242" lon="0.18395">
        <ele>726.9</ele>
        <time>2016-07-23T11:24:40Z</time>
      </trkpt>
      <trkpt lat="42.54245" lon="0.18389">
        <ele>726.2</ele>
        <time>2016-07-23T11:24:41Z</time>
      </trkpt>
      <trkpt lat="42.54249" lon="0.18383">
        <ele>725.6</ele>
        <time>2016-07-23T11:24:42Z</time>
      </trkpt>
      <trkpt lat="42.54252" lon="0.18377">
        <ele>725.1</ele>
        <time>2016-07-23T11:24:43Z</time>
      </trkpt>
      <trkpt lat="42.54255" lon="0.1837">
        <ele>725.7</ele>
        <time>2016-07-23T11:24:44Z</time>
      </trkpt>
      <trkpt lat="42.54257" lon="0.18364">
        <ele>726.6</ele>
        <time>2016-07-23T11:24:45Z</time>
      </trkpt>
      <trkpt lat="42.5426" lon="0.18358">
        <ele>727.5</ele>
        <time>2016-07-23T11:24:46Z</time>
      </trkpt>
      <trkpt lat="42.54262" lon="0.18352">
        <ele>728.4</ele>
        <time>2016-07-23T11:24:47Z</time>
      </trkpt>
      <trkpt lat="42.54264" lon="0.18346">
        <ele>729.6</ele>
        <time>2016-07-23T11:24:48Z</time>
      </trkpt>
      <trkpt lat="42.54265" lon="0.1834">
        <ele>730.9</ele>
        <time>2016-07-23T11:24:49Z</time>
      </trkpt>
      <trkpt lat="42.54267" lon="0.18334">
        <ele>732.1</ele>
        <time>2016-07-23T11:24:50Z</time>
      </trkpt>
      <trkpt lat="42.5427" lon="0.18328">
        <ele>733.1</ele>
        <time>2016-07-23T11:24:51Z</time>
      </trkpt>
      <trkpt lat="42.54272" lon="0.18323">
        <ele>733.9</ele>
        <time>2016-07-23T11:24:52Z</time>
      </trkpt>
      <trkpt lat="42.54274" lon="0.18318">
        <ele>734.8</ele>
        <time>2016-07-23T11:24:53Z</time>
      </trkpt>
      <trkpt lat="42.54276" lon="0.18313">
        <ele>735.7</ele>
        <time>2016-07-23T11:24:54Z</time>
      </trkpt>
      <trkpt lat="42.54279" lon="0.18308">
        <ele>736.6</ele>
        <time>2016-07-23T11:24:55Z</time>
      </trkpt>
      <trkpt lat="42.54281" lon="0.18304">
        <ele>737.5</ele>
        <time>2016-07-23T11:24:56Z</time>
      </trkpt>
      <trkpt lat="42.54283" lon="0.183">
        <ele>738.3</ele>
        <time>2016-07-23T11:24:57Z</time>
      </trkpt>
      <trkpt lat="42.54284" lon="0.18296">
        <ele>739.1</ele>
        <time>2016-07-23T11:24:58Z</time>
      </trkpt>
      <trkpt lat="42.54286" lon="0.18293">
        <ele>739.9</ele>
        <time>2016-07-23T11:24:59Z</time>
      </trkpt>
      <trkpt lat="42.54288" lon="0.18288">
        <ele>740.8</ele>
        <time>2016-07-23T11:25:01Z</time>
      </trkpt>
      <trkpt lat="42.5429" lon="0.18284">
        <ele>741.8</ele>
        <time>2016-07-23T11:25:03Z</time>
      </trkpt>
      <trkpt lat="42.54293" lon="0.1828">
        <ele>742</ele>
        <time>2016-07-23T11:25:05Z</time>
      </trkpt>
      <trkpt lat="42.54296" lon="0.18277">
        <ele>741.6</ele>
        <time>2016-07-23T11:25:07Z</time>
      </trkpt>
      <trkpt lat="42.54301" lon="0.18272">
        <ele>740.7</ele>
        <time>2016-07-23T11:25:09Z</time>
      </trkpt>
      <trkpt lat="42.54304" lon="0.1827">
        <ele>740.1</ele>
        <time>2016-07-23T11:25:10Z</time>
      </trkpt>
      <trkpt lat="42.54307" lon="0.18267">
        <ele>739.4</ele>
        <time>2016-07-23T11:25:11Z</time>
      </trkpt>
      <trkpt lat="42.5431" lon="0.18264">
        <ele>738.7</ele>
        <time>2016-07-23T11:25:12Z</time>
      </trkpt>
      <trkpt lat="42.54314" lon="0.1826">
        <ele>738</ele>
        <time>2016-07-23T11:25:13Z</time>
      </trkpt>
      <trkpt lat="42.54319" lon="0.18256">
        <ele>737.1</ele>
        <time>2016-07-23T11:25:14Z</time>
      </trkpt>
      <trkpt lat="42.54324" lon="0.18251">
        <ele>736.1</ele>
        <time>2016-07-23T11:25:15Z</time>
      </trkpt>
      <trkpt lat="42.54329" lon="0.18246">
        <ele>735.3</ele>
        <time>2016-07-23T11:25:16Z</time>
      </trkpt>
      <trkpt lat="42.54334" lon="0.1824">
        <ele>734.9</ele>
        <time>2016-07-23T11:25:17Z</time>
      </trkpt>
      <trkpt lat="42.54339" lon="0.18234">
        <ele>734.8</ele>
        <time>2016-07-23T11:25:18Z</time>
      </trkpt>
      <trkpt lat="42.54344" lon="0.18227">
        <ele>734.6</ele>
        <time>2016-07-23T11:25:19Z</time>
      </trkpt>
      <trkpt lat="42.54349" lon="0.18222">
        <ele>733.9</ele>
        <time>2016-07-23T11:25:20Z</time>
      </trkpt>
      <trkpt lat="42.54355" lon="0.18217">
        <ele>732.6</ele>
        <time>2016-07-23T11:25:21Z</time>
      </trkpt>
      <trkpt lat="42.54363" lon="0.18218">
        <ele>727.6</ele>
        <time>2016-07-23T11:25:22Z</time>
      </trkpt>
      <trkpt lat="42.54368" lon="0.18214">
        <ele>726.4</ele>
        <time>2016-07-23T11:25:23Z</time>
      </trkpt>
      <trkpt lat="42.54372" lon="0.18211">
        <ele>725.1</ele>
        <time>2016-07-23T11:25:24Z</time>
      </trkpt>
      <trkpt lat="42.54378" lon="0.18207">
        <ele>724</ele>
        <time>2016-07-23T11:25:25Z</time>
      </trkpt>
      <trkpt lat="42.54386" lon="0.18202">
        <ele>721.6</ele>
        <time>2016-07-23T11:25:26Z</time>
      </trkpt>
      <trkpt lat="42.54392" lon="0.18197">
        <ele>719.8</ele>
        <time>2016-07-23T11:25:27Z</time>
      </trkpt>
      <trkpt lat="42.54398" lon="0.18192">
        <ele>718.1</ele>
        <time>2016-07-23T11:25:28Z</time>
      </trkpt>
      <trkpt lat="42.54404" lon="0.18186">
        <ele>716.2</ele>
        <time>2016-07-23T11:25:29Z</time>
      </trkpt>
      <trkpt lat="42.54409" lon="0.18181">
        <ele>714.8</ele>
        <time>2016-07-23T11:25:30Z</time>
      </trkpt>
      <trkpt lat="42.54412" lon="0.18176">
        <ele>714.1</ele>
        <time>2016-07-23T11:25:31Z</time>
      </trkpt>
      <trkpt lat="42.54416" lon="0.18172">
        <ele>712.9</ele>
        <time>2016-07-23T11:25:32Z</time>
      </trkpt>
      <trkpt lat="42.54419" lon="0.18168">
        <ele>712.1</ele>
        <time>2016-07-23T11:25:33Z</time>
      </trkpt>
      <trkpt lat="42.54422" lon="0.18164">
        <ele>711.2</ele>
        <time>2016-07-23T11:25:34Z</time>
      </trkpt>
      <trkpt lat="42.54425" lon="0.18161">
        <ele>710.3</ele>
        <time>2016-07-23T11:25:35Z</time>
      </trkpt>
      <trkpt lat="42.54432" lon="0.18156">
        <ele>706.9</ele>
        <time>2016-07-23T11:25:37Z</time>
      </trkpt>
      <trkpt lat="42.54435" lon="0.18153">
        <ele>705.7</ele>
        <time>2016-07-23T11:25:38Z</time>
      </trkpt>
      <trkpt lat="42.54438" lon="0.1815">
        <ele>704.6</ele>
        <time>2016-07-23T11:25:39Z</time>
      </trkpt>
      <trkpt lat="42.5444" lon="0.18146">
        <ele>703.6</ele>
        <time>2016-07-23T11:25:40Z</time>
      </trkpt>
      <trkpt lat="42.54444" lon="0.18141">
        <ele>702.2</ele>
        <time>2016-07-23T11:25:41Z</time>
      </trkpt>
      <trkpt lat="42.54447" lon="0.18136">
        <ele>700.8</ele>
        <time>2016-07-23T11:25:42Z</time>
      </trkpt>
      <trkpt lat="42.54452" lon="0.1813">
        <ele>698.9</ele>
        <time>2016-07-23T11:25:43Z</time>
      </trkpt>
      <trkpt lat="42.54456" lon="0.18123">
        <ele>697</ele>
        <time>2016-07-23T11:25:44Z</time>
      </trkpt>
      <trkpt lat="42.5446" lon="0.18116">
        <ele>695.7</ele>
        <time>2016-07-23T11:25:45Z</time>
      </trkpt>
      <trkpt lat="42.54463" lon="0.18108">
        <ele>695.6</ele>
        <time>2016-07-23T11:25:46Z</time>
      </trkpt>
      <trkpt lat="42.54467" lon="0.18099">
        <ele>695.6</ele>
        <time>2016-07-23T11:25:47Z</time>
      </trkpt>
      <trkpt lat="42.54468" lon="0.18087">
        <ele>696.2</ele>
        <time>2016-07-23T11:25:48Z</time>
      </trkpt>
      <trkpt lat="42.54471" lon="0.18077">
        <ele>696.2</ele>
        <time>2016-07-23T11:25:49Z</time>
      </trkpt>
      <trkpt lat="42.54472" lon="0.18067">
        <ele>696.5</ele>
        <time>2016-07-23T11:25:50Z</time>
      </trkpt>
      <trkpt lat="42.54474" lon="0.18058">
        <ele>696.6</ele>
        <time>2016-07-23T11:25:51Z</time>
      </trkpt>
      <trkpt lat="42.54475" lon="0.18049">
        <ele>696.6</ele>
        <time>2016-07-23T11:25:52Z</time>
      </trkpt>
      <trkpt lat="42.54477" lon="0.18039">
        <ele>696.8</ele>
        <time>2016-07-23T11:25:53Z</time>
      </trkpt>
      <trkpt lat="42.54478" lon="0.18032">
        <ele>697.9</ele>
        <time>2016-07-23T11:25:54Z</time>
      </trkpt>
      <trkpt lat="42.54479" lon="0.18026">
        <ele>698.6</ele>
        <time>2016-07-23T11:25:55Z</time>
      </trkpt>
      <trkpt lat="42.5448" lon="0.18021">
        <ele>699</ele>
        <time>2016-07-23T11:25:56Z</time>
      </trkpt>
      <trkpt lat="42.54481" lon="0.18017">
        <ele>699.2</ele>
        <time>2016-07-23T11:25:57Z</time>
      </trkpt>
      <trkpt lat="42.5448" lon="0.18012">
        <ele>700.6</ele>
        <time>2016-07-23T11:25:59Z</time>
      </trkpt>
      <trkpt lat="42.54481" lon="0.18006">
        <ele>701.3</ele>
        <time>2016-07-23T11:26:01Z</time>
      </trkpt>
      <trkpt lat="42.54481" lon="0.17998">
        <ele>703</ele>
        <time>2016-07-23T11:26:03Z</time>
      </trkpt>
      <trkpt lat="42.54482" lon="0.17993">
        <ele>703.3</ele>
        <time>2016-07-23T11:26:05Z</time>
      </trkpt>
      <trkpt lat="42.54484" lon="0.17986">
        <ele>703.5</ele>
        <time>2016-07-23T11:26:07Z</time>
      </trkpt>
      <trkpt lat="42.54485" lon="0.17983">
        <ele>703.2</ele>
        <time>2016-07-23T11:26:09Z</time>
      </trkpt>
      <trkpt lat="42.54481" lon="0.1799">
        <ele>704.4</ele>
        <time>2016-07-23T11:26:31Z</time>
      </trkpt>
      <trkpt lat="42.5448" lon="0.17994">
        <ele>704</ele>
        <time>2016-07-23T11:26:35Z</time>
      </trkpt>
      <trkpt lat="42.5448" lon="0.17998">
        <ele>703.5</ele>
        <time>2016-07-23T11:26:39Z</time>
      </trkpt>
      <trkpt lat="42.5448" lon="0.18004">
        <ele>702.1</ele>
        <time>2016-07-23T11:26:47Z</time>
      </trkpt>
      <trkpt lat="42.54481" lon="0.18008">
        <ele>701.2</ele>
        <time>2016-07-23T11:26:50Z</time>
      </trkpt>
      <trkpt lat="42.5448" lon="0.18012">
        <ele>700.9</ele>
        <time>2016-07-23T11:26:54Z</time>
      </trkpt>
      <trkpt lat="42.5448" lon="0.18016">
        <ele>700.3</ele>
        <time>2016-07-23T11:26:58Z</time>
      </trkpt>
      <trkpt lat="42.5448" lon="0.1802">
        <ele>699.4</ele>
        <time>2016-07-23T11:27:00Z</time>
      </trkpt>
      <trkpt lat="42.54479" lon="0.18025">
        <ele>698.7</ele>
        <time>2016-07-23T11:27:02Z</time>
      </trkpt>
      <trkpt lat="42.54478" lon="0.18029">
        <ele>698.4</ele>
        <time>2016-07-23T11:27:04Z</time>
      </trkpt>
      <trkpt lat="42.54477" lon="0.18033">
        <ele>698</ele>
        <time>2016-07-23T11:27:07Z</time>
      </trkpt>
      <trkpt lat="42.54478" lon="0.18039">
        <ele>696.8</ele>
        <time>2016-07-23T11:27:15Z</time>
      </trkpt>
      <trkpt lat="42.54477" lon="0.18044">
        <ele>696.3</ele>
        <time>2016-07-23T11:27:17Z</time>
      </trkpt>
      <trkpt lat="42.54476" lon="0.1805">
        <ele>696.2</ele>
        <time>2016-07-23T11:27:19Z</time>
      </trkpt>
      <trkpt lat="42.54475" lon="0.18058">
        <ele>696.3</ele>
        <time>2016-07-23T11:27:21Z</time>
      </trkpt>
      <trkpt lat="42.54474" lon="0.18062">
        <ele>696.3</ele>
        <time>2016-07-23T11:27:22Z</time>
      </trkpt>
      <trkpt lat="42.54473" lon="0.18066">
        <ele>696.3</ele>
        <time>2016-07-23T11:27:23Z</time>
      </trkpt>
      <trkpt lat="42.54472" lon="0.1807">
        <ele>696.2</ele>
        <time>2016-07-23T11:27:24Z</time>
      </trkpt>
      <trkpt lat="42.54472" lon="0.18075">
        <ele>696.2</ele>
        <time>2016-07-23T11:27:25Z</time>
      </trkpt>
      <trkpt lat="42.54471" lon="0.18079">
        <ele>696.2</ele>
        <time>2016-07-23T11:27:26Z</time>
      </trkpt>
      <trkpt lat="42.5447" lon="0.18083">
        <ele>696.2</ele>
        <time>2016-07-23T11:27:27Z</time>
      </trkpt>
      <trkpt lat="42.54468" lon="0.18086">
        <ele>696.3</ele>
        <time>2016-07-23T11:27:28Z</time>
      </trkpt>
      <trkpt lat="42.54467" lon="0.1809">
        <ele>696.3</ele>
        <time>2016-07-23T11:27:29Z</time>
      </trkpt>
      <trkpt lat="42.54465" lon="0.18096">
        <ele>696.3</ele>
        <time>2016-07-23T11:27:31Z</time>
      </trkpt>
      <trkpt lat="42.54464" lon="0.18102">
        <ele>696</ele>
        <time>2016-07-23T11:27:33Z</time>
      </trkpt>
      <trkpt lat="42.54462" lon="0.18108">
        <ele>695.9</ele>
        <time>2016-07-23T11:27:35Z</time>
      </trkpt>
      <trkpt lat="42.5446" lon="0.18113">
        <ele>696</ele>
        <time>2016-07-23T11:27:37Z</time>
      </trkpt>
      <trkpt lat="42.54457" lon="0.18118">
        <ele>696.6</ele>
        <time>2016-07-23T11:27:39Z</time>
      </trkpt>
      <trkpt lat="42.54454" lon="0.18122">
        <ele>698.2</ele>
        <time>2016-07-23T11:27:41Z</time>
      </trkpt>
      <trkpt lat="42.54452" lon="0.18127">
        <ele>699.4</ele>
        <time>2016-07-23T11:27:43Z</time>
      </trkpt>
      <trkpt lat="42.54449" lon="0.18132">
        <ele>700.7</ele>
        <time>2016-07-23T11:27:45Z</time>
      </trkpt>
      <trkpt lat="42.54446" lon="0.18136">
        <ele>702.1</ele>
        <time>2016-07-23T11:27:47Z</time>
      </trkpt>
      <trkpt lat="42.54443" lon="0.1814">
        <ele>703.3</ele>
        <time>2016-07-23T11:27:49Z</time>
      </trkpt>
      <trkpt lat="42.54439" lon="0.18143">
        <ele>704.9</ele>
        <time>2016-07-23T11:27:51Z</time>
      </trkpt>
      <trkpt lat="42.54437" lon="0.18146">
        <ele>706</ele>
        <time>2016-07-23T11:27:53Z</time>
      </trkpt>
      <trkpt lat="42.54434" lon="0.1815">
        <ele>706.9</ele>
        <time>2016-07-23T11:27:55Z</time>
      </trkpt>
      <trkpt lat="42.54431" lon="0.18154">
        <ele>708.2</ele>
        <time>2016-07-23T11:27:57Z</time>
      </trkpt>
      <trkpt lat="42.54428" lon="0.18156">
        <ele>709.6</ele>
        <time>2016-07-23T11:27:59Z</time>
      </trkpt>
      <trkpt lat="42.54425" lon="0.18156">
        <ele>711.5</ele>
        <time>2016-07-23T11:28:02Z</time>
      </trkpt>
      <trkpt lat="42.54422" lon="0.18158">
        <ele>712.5</ele>
        <time>2016-07-23T11:28:04Z</time>
      </trkpt>
      <trkpt lat="42.54421" lon="0.18162">
        <ele>712.5</ele>
        <time>2016-07-23T11:28:06Z</time>
      </trkpt>
      <trkpt lat="42.5442" lon="0.18166">
        <ele>712.3</ele>
        <time>2016-07-23T11:28:08Z</time>
      </trkpt>
      <trkpt lat="42.54418" lon="0.1817">
        <ele>712.4</ele>
        <time>2016-07-23T11:28:11Z</time>
      </trkpt>
      <trkpt lat="42.54415" lon="0.18168">
        <ele>714.9</ele>
        <time>2016-07-23T11:28:14Z</time>
      </trkpt>
      <trkpt lat="42.54413" lon="0.18162">
        <ele>717.3</ele>
        <time>2016-07-23T11:28:16Z</time>
      </trkpt>
      <trkpt lat="42.54413" lon="0.18157">
        <ele>719.2</ele>
        <time>2016-07-23T11:28:18Z</time>
      </trkpt>
      <trkpt lat="42.54413" lon="0.18152">
        <ele>720.5</ele>
        <time>2016-07-23T11:28:20Z</time>
      </trkpt>
      <trkpt lat="42.54414" lon="0.18146">
        <ele>721.4</ele>
        <time>2016-07-23T11:28:22Z</time>
      </trkpt>
      <trkpt lat="42.54415" lon="0.1814">
        <ele>721.9</ele>
        <time>2016-07-23T11:28:24Z</time>
      </trkpt>
      <trkpt lat="42.54417" lon="0.18135">
        <ele>722</ele>
        <time>2016-07-23T11:28:26Z</time>
      </trkpt>
      <trkpt lat="42.5442" lon="0.18128">
        <ele>722</ele>
        <time>2016-07-23T11:28:28Z</time>
      </trkpt>
      <trkpt lat="42.54421" lon="0.18121">
        <ele>722.5</ele>
        <time>2016-07-23T11:28:30Z</time>
      </trkpt>
      <trkpt lat="42.54421" lon="0.18117">
        <ele>723</ele>
        <time>2016-07-23T11:28:31Z</time>
      </trkpt>
      <trkpt lat="42.54421" lon="0.18113">
        <ele>723.7</ele>
        <time>2016-07-23T11:28:32Z</time>
      </trkpt>
      <trkpt lat="42.54421" lon="0.18108">
        <ele>724.3</ele>
        <time>2016-07-23T11:28:33Z</time>
      </trkpt>
      <trkpt lat="42.54421" lon="0.18104">
        <ele>724.8</ele>
        <time>2016-07-23T11:28:34Z</time>
      </trkpt>
      <trkpt lat="42.54421" lon="0.181">
        <ele>724.9</ele>
        <time>2016-07-23T11:28:35Z</time>
      </trkpt>
      <trkpt lat="42.54422" lon="0.18095">
        <ele>725.3</ele>
        <time>2016-07-23T11:28:36Z</time>
      </trkpt>
      <trkpt lat="42.54422" lon="0.1809">
        <ele>725.6</ele>
        <time>2016-07-23T11:28:37Z</time>
      </trkpt>
      <trkpt lat="42.54423" lon="0.18085">
        <ele>726.2</ele>
        <time>2016-07-23T11:28:38Z</time>
      </trkpt>
      <trkpt lat="42.54423" lon="0.18079">
        <ele>726.6</ele>
        <time>2016-07-23T11:28:39Z</time>
      </trkpt>
      <trkpt lat="42.54423" lon="0.18075">
        <ele>727</ele>
        <time>2016-07-23T11:28:40Z</time>
      </trkpt>
      <trkpt lat="42.54424" lon="0.1807">
        <ele>727.3</ele>
        <time>2016-07-23T11:28:41Z</time>
      </trkpt>
      <trkpt lat="42.54424" lon="0.18066">
        <ele>727.7</ele>
        <time>2016-07-23T11:28:42Z</time>
      </trkpt>
      <trkpt lat="42.54424" lon="0.18063">
        <ele>728</ele>
        <time>2016-07-23T11:28:43Z</time>
      </trkpt>
      <trkpt lat="42.54425" lon="0.18056">
        <ele>728.5</ele>
        <time>2016-07-23T11:28:45Z</time>
      </trkpt>
      <trkpt lat="42.54426" lon="0.18052">
        <ele>728.3</ele>
        <time>2016-07-23T11:28:46Z</time>
      </trkpt>
      <trkpt lat="42.54427" lon="0.18047">
        <ele>727.7</ele>
        <time>2016-07-23T11:28:47Z</time>
      </trkpt>
      <trkpt lat="42.5443" lon="0.18042">
        <ele>726.4</ele>
        <time>2016-07-23T11:28:48Z</time>
      </trkpt>
      <trkpt lat="42.54432" lon="0.18036">
        <ele>725.6</ele>
        <time>2016-07-23T11:28:49Z</time>
      </trkpt>
      <trkpt lat="42.54434" lon="0.1803">
        <ele>725.3</ele>
        <time>2016-07-23T11:28:50Z</time>
      </trkpt>
      <trkpt lat="42.54436" lon="0.18025">
        <ele>725.1</ele>
        <time>2016-07-23T11:28:51Z</time>
      </trkpt>
      <trkpt lat="42.54438" lon="0.1802">
        <ele>724.7</ele>
        <time>2016-07-23T11:28:52Z</time>
      </trkpt>
      <trkpt lat="42.54441" lon="0.18014">
        <ele>724.1</ele>
        <time>2016-07-23T11:28:53Z</time>
      </trkpt>
      <trkpt lat="42.54443" lon="0.18006">
        <ele>724.3</ele>
        <time>2016-07-23T11:28:54Z</time>
      </trkpt>
      <trkpt lat="42.54445" lon="0.17998">
        <ele>725</ele>
        <time>2016-07-23T11:28:55Z</time>
      </trkpt>
      <trkpt lat="42.54447" lon="0.17991">
        <ele>725.6</ele>
        <time>2016-07-23T11:28:56Z</time>
      </trkpt>
      <trkpt lat="42.54448" lon="0.17984">
        <ele>726.1</ele>
        <time>2016-07-23T11:28:57Z</time>
      </trkpt>
      <trkpt lat="42.54449" lon="0.1798">
        <ele>726.9</ele>
        <time>2016-07-23T11:28:58Z</time>
      </trkpt>
      <trkpt lat="42.54448" lon="0.17971">
        <ele>729.3</ele>
        <time>2016-07-23T11:29:01Z</time>
      </trkpt>
      <trkpt lat="42.54449" lon="0.17968">
        <ele>729.7</ele>
        <time>2016-07-23T11:29:07Z</time>
      </trkpt>
      <trkpt lat="42.5445" lon="0.17964">
        <ele>729.7</ele>
        <time>2016-07-23T11:29:11Z</time>
      </trkpt>
      <trkpt lat="42.54452" lon="0.1796">
        <ele>729.6</ele>
        <time>2016-07-23T11:29:14Z</time>
      </trkpt>
      <trkpt lat="42.54454" lon="0.17956">
        <ele>729.3</ele>
        <time>2016-07-23T11:29:16Z</time>
      </trkpt>
      <trkpt lat="42.54456" lon="0.17951">
        <ele>729.3</ele>
        <time>2016-07-23T11:29:18Z</time>
      </trkpt>
      <trkpt lat="42.54459" lon="0.17945">
        <ele>729.9</ele>
        <time>2016-07-23T11:29:20Z</time>
      </trkpt>
      <trkpt lat="42.5446" lon="0.17941">
        <ele>730.3</ele>
        <time>2016-07-23T11:29:21Z</time>
      </trkpt>
      <trkpt lat="42.54461" lon="0.17936">
        <ele>730.9</ele>
        <time>2016-07-23T11:29:22Z</time>
      </trkpt>
      <trkpt lat="42.54462" lon="0.17931">
        <ele>731.4</ele>
        <time>2016-07-23T11:29:23Z</time>
      </trkpt>
      <trkpt lat="42.54463" lon="0.17926">
        <ele>732</ele>
        <time>2016-07-23T11:29:24Z</time>
      </trkpt>
      <trkpt lat="42.54464" lon="0.1792">
        <ele>732.7</ele>
        <time>2016-07-23T11:29:25Z</time>
      </trkpt>
      <trkpt lat="42.54466" lon="0.17914">
        <ele>733.4</ele>
        <time>2016-07-23T11:29:26Z</time>
      </trkpt>
      <trkpt lat="42.54467" lon="0.17909">
        <ele>734.1</ele>
        <time>2016-07-23T11:29:27Z</time>
      </trkpt>
      <trkpt lat="42.54468" lon="0.17905">
        <ele>734.6</ele>
        <time>2016-07-23T11:29:28Z</time>
      </trkpt>
      <trkpt lat="42.54469" lon="0.179">
        <ele>734.7</ele>
        <time>2016-07-23T11:29:29Z</time>
      </trkpt>
      <trkpt lat="42.5447" lon="0.17896">
        <ele>734.9</ele>
        <time>2016-07-23T11:29:30Z</time>
      </trkpt>
      <trkpt lat="42.54472" lon="0.17893">
        <ele>734.9</ele>
        <time>2016-07-23T11:29:31Z</time>
      </trkpt>
      <trkpt lat="42.54473" lon="0.17888">
        <ele>734.8</ele>
        <time>2016-07-23T11:29:32Z</time>
      </trkpt>
      <trkpt lat="42.54475" lon="0.17884">
        <ele>734.7</ele>
        <time>2016-07-23T11:29:33Z</time>
      </trkpt>
      <trkpt lat="42.54477" lon="0.17879">
        <ele>734.7</ele>
        <time>2016-07-23T11:29:34Z</time>
      </trkpt>
      <trkpt lat="42.5448" lon="0.17874">
        <ele>733.8</ele>
        <time>2016-07-23T11:29:35Z</time>
      </trkpt>
      <trkpt lat="42.54483" lon="0.17868">
        <ele>731.8</ele>
        <time>2016-07-23T11:29:36Z</time>
      </trkpt>
      <trkpt lat="42.54486" lon="0.17863">
        <ele>729.6</ele>
        <time>2016-07-23T11:29:37Z</time>
      </trkpt>
      <trkpt lat="42.54489" lon="0.17858">
        <ele>727.8</ele>
        <time>2016-07-23T11:29:38Z</time>
      </trkpt>
      <trkpt lat="42.5449" lon="0.17855">
        <ele>726.8</ele>
        <time>2016-07-23T11:29:39Z</time>
      </trkpt>
      <trkpt lat="42.54492" lon="0.17852">
        <ele>725.8</ele>
        <time>2016-07-23T11:29:40Z</time>
      </trkpt>
      <trkpt lat="42.54494" lon="0.17847">
        <ele>724.9</ele>
        <time>2016-07-23T11:29:42Z</time>
      </trkpt>
      <trkpt lat="42.54496" lon="0.17841">
        <ele>723.5</ele>
        <time>2016-07-23T11:29:44Z</time>
      </trkpt>
      <trkpt lat="42.54498" lon="0.17838">
        <ele>722.2</ele>
        <time>2016-07-23T11:29:45Z</time>
      </trkpt>
      <trkpt lat="42.545" lon="0.17835">
        <ele>720.7</ele>
        <time>2016-07-23T11:29:46Z</time>
      </trkpt>
      <trkpt lat="42.54504" lon="0.17831">
        <ele>718.6</ele>
        <time>2016-07-23T11:29:47Z</time>
      </trkpt>
      <trkpt lat="42.54506" lon="0.17826">
        <ele>716.9</ele>
        <time>2016-07-23T11:29:48Z</time>
      </trkpt>
      <trkpt lat="42.54509" lon="0.1782">
        <ele>715.4</ele>
        <time>2016-07-23T11:29:49Z</time>
      </trkpt>
      <trkpt lat="42.54511" lon="0.17814">
        <ele>714.1</ele>
        <time>2016-07-23T11:29:50Z</time>
      </trkpt>
      <trkpt lat="42.54513" lon="0.17808">
        <ele>713.1</ele>
        <time>2016-07-23T11:29:51Z</time>
      </trkpt>
      <trkpt lat="42.54515" lon="0.17802">
        <ele>712.7</ele>
        <time>2016-07-23T11:29:52Z</time>
      </trkpt>
      <trkpt lat="42.54516" lon="0.17796">
        <ele>712.3</ele>
        <time>2016-07-23T11:29:53Z</time>
      </trkpt>
      <trkpt lat="42.54517" lon="0.1779">
        <ele>712.1</ele>
        <time>2016-07-23T11:29:54Z</time>
      </trkpt>
      <trkpt lat="42.54517" lon="0.17785">
        <ele>712</ele>
        <time>2016-07-23T11:29:55Z</time>
      </trkpt>
      <trkpt lat="42.54517" lon="0.1778">
        <ele>712.1</ele>
        <time>2016-07-23T11:29:56Z</time>
      </trkpt>
      <trkpt lat="42.54516" lon="0.17776">
        <ele>712.5</ele>
        <time>2016-07-23T11:29:57Z</time>
      </trkpt>
      <trkpt lat="42.54516" lon="0.17771">
        <ele>712.7</ele>
        <time>2016-07-23T11:29:58Z</time>
      </trkpt>
      <trkpt lat="42.54516" lon="0.17767">
        <ele>712.8</ele>
        <time>2016-07-23T11:29:59Z</time>
      </trkpt>
      <trkpt lat="42.54516" lon="0.17763">
        <ele>712.9</ele>
        <time>2016-07-23T11:30:00Z</time>
      </trkpt>
      <trkpt lat="42.54516" lon="0.17759">
        <ele>712.9</ele>
        <time>2016-07-23T11:30:01Z</time>
      </trkpt>
      <trkpt lat="42.54516" lon="0.17755">
        <ele>713</ele>
        <time>2016-07-23T11:30:02Z</time>
      </trkpt>
      <trkpt lat="42.54516" lon="0.17751">
        <ele>713.2</ele>
        <time>2016-07-23T11:30:03Z</time>
      </trkpt>
      <trkpt lat="42.54515" lon="0.17746">
        <ele>713.7</ele>
        <time>2016-07-23T11:30:05Z</time>
      </trkpt>
      <trkpt lat="42.54515" lon="0.17741">
        <ele>714.2</ele>
        <time>2016-07-23T11:30:07Z</time>
      </trkpt>
      <trkpt lat="42.54515" lon="0.17735">
        <ele>714.1</ele>
        <time>2016-07-23T11:30:09Z</time>
      </trkpt>
      <trkpt lat="42.54515" lon="0.17729">
        <ele>714.3</ele>
        <time>2016-07-23T11:30:11Z</time>
      </trkpt>
      <trkpt lat="42.54515" lon="0.17721">
        <ele>714.2</ele>
        <time>2016-07-23T11:30:13Z</time>
      </trkpt>
      <trkpt lat="42.54516" lon="0.17715">
        <ele>713.8</ele>
        <time>2016-07-23T11:30:14Z</time>
      </trkpt>
      <trkpt lat="42.54517" lon="0.17707">
        <ele>713.3</ele>
        <time>2016-07-23T11:30:15Z</time>
      </trkpt>
      <trkpt lat="42.54518" lon="0.17699">
        <ele>712.7</ele>
        <time>2016-07-23T11:30:16Z</time>
      </trkpt>
      <trkpt lat="42.54519" lon="0.17692">
        <ele>712.1</ele>
        <time>2016-07-23T11:30:17Z</time>
      </trkpt>
      <trkpt lat="42.5452" lon="0.17686">
        <ele>711.5</ele>
        <time>2016-07-23T11:30:18Z</time>
      </trkpt>
      <trkpt lat="42.54521" lon="0.17681">
        <ele>710.9</ele>
        <time>2016-07-23T11:30:19Z</time>
      </trkpt>
      <trkpt lat="42.54522" lon="0.17675">
        <ele>710</ele>
        <time>2016-07-23T11:30:20Z</time>
      </trkpt>
      <trkpt lat="42.54524" lon="0.17669">
        <ele>708.9</ele>
        <time>2016-07-23T11:30:21Z</time>
      </trkpt>
      <trkpt lat="42.54525" lon="0.17663">
        <ele>708.1</ele>
        <time>2016-07-23T11:30:22Z</time>
      </trkpt>
      <trkpt lat="42.54526" lon="0.17656">
        <ele>707.7</ele>
        <time>2016-07-23T11:30:23Z</time>
      </trkpt>
      <trkpt lat="42.54526" lon="0.1765">
        <ele>707.8</ele>
        <time>2016-07-23T11:30:24Z</time>
      </trkpt>
      <trkpt lat="42.54526" lon="0.17644">
        <ele>707.4</ele>
        <time>2016-07-23T11:30:25Z</time>
      </trkpt>
      <trkpt lat="42.54527" lon="0.17639">
        <ele>707</ele>
        <time>2016-07-23T11:30:26Z</time>
      </trkpt>
      <trkpt lat="42.54528" lon="0.17634">
        <ele>706.5</ele>
        <time>2016-07-23T11:30:27Z</time>
      </trkpt>
      <trkpt lat="42.54529" lon="0.17629">
        <ele>705.7</ele>
        <time>2016-07-23T11:30:28Z</time>
      </trkpt>
      <trkpt lat="42.5453" lon="0.17624">
        <ele>705.1</ele>
        <time>2016-07-23T11:30:29Z</time>
      </trkpt>
      <trkpt lat="42.54531" lon="0.17619">
        <ele>705</ele>
        <time>2016-07-23T11:30:30Z</time>
      </trkpt>
      <trkpt lat="42.5453" lon="0.17614">
        <ele>705.8</ele>
        <time>2016-07-23T11:30:32Z</time>
      </trkpt>
      <trkpt lat="42.54528" lon="0.1761">
        <ele>707.2</ele>
        <time>2016-07-23T11:30:34Z</time>
      </trkpt>
      <trkpt lat="42.54525" lon="0.17607">
        <ele>709</ele>
        <time>2016-07-23T11:30:36Z</time>
      </trkpt>
      <trkpt lat="42.54522" lon="0.17609">
        <ele>710.3</ele>
        <time>2016-07-23T11:30:40Z</time>
      </trkpt>
      <trkpt lat="42.54519" lon="0.17608">
        <ele>712.1</ele>
        <time>2016-07-23T11:30:46Z</time>
      </trkpt>
      <trkpt lat="42.54521" lon="0.17606">
        <ele>711</ele>
        <time>2016-07-23T11:30:52Z</time>
      </trkpt>
      <trkpt lat="42.54523" lon="0.17602">
        <ele>710.1</ele>
        <time>2016-07-23T11:30:56Z</time>
      </trkpt>
      <trkpt lat="42.54526" lon="0.17594">
        <ele>709</ele>
        <time>2016-07-23T11:30:58Z</time>
      </trkpt>
      <trkpt lat="42.54527" lon="0.1759">
        <ele>708.5</ele>
        <time>2016-07-23T11:30:59Z</time>
      </trkpt>
      <trkpt lat="42.54529" lon="0.17585">
        <ele>707.9</ele>
        <time>2016-07-23T11:31:00Z</time>
      </trkpt>
      <trkpt lat="42.5453" lon="0.1758">
        <ele>707.3</ele>
        <time>2016-07-23T11:31:01Z</time>
      </trkpt>
      <trkpt lat="42.54531" lon="0.17574">
        <ele>706.8</ele>
        <time>2016-07-23T11:31:02Z</time>
      </trkpt>
      <trkpt lat="42.54532" lon="0.17569">
        <ele>706.6</ele>
        <time>2016-07-23T11:31:03Z</time>
      </trkpt>
      <trkpt lat="42.54533" lon="0.17563">
        <ele>706.6</ele>
        <time>2016-07-23T11:31:04Z</time>
      </trkpt>
      <trkpt lat="42.54533" lon="0.17558">
        <ele>706.7</ele>
        <time>2016-07-23T11:31:05Z</time>
      </trkpt>
      <trkpt lat="42.54532" lon="0.17553">
        <ele>707.1</ele>
        <time>2016-07-23T11:31:06Z</time>
      </trkpt>
      <trkpt lat="42.54532" lon="0.17548">
        <ele>707.6</ele>
        <time>2016-07-23T11:31:07Z</time>
      </trkpt>
      <trkpt lat="42.54531" lon="0.17544">
        <ele>708.3</ele>
        <time>2016-07-23T11:31:08Z</time>
      </trkpt>
      <trkpt lat="42.54529" lon="0.17537">
        <ele>709.9</ele>
        <time>2016-07-23T11:31:10Z</time>
      </trkpt>
      <trkpt lat="42.54528" lon="0.17533">
        <ele>711.1</ele>
        <time>2016-07-23T11:31:12Z</time>
      </trkpt>
      <trkpt lat="42.54528" lon="0.17529">
        <ele>711.7</ele>
        <time>2016-07-23T11:31:15Z</time>
      </trkpt>
      <trkpt lat="42.54529" lon="0.17524">
        <ele>711.6</ele>
        <time>2016-07-23T11:31:17Z</time>
      </trkpt>
      <trkpt lat="42.54529" lon="0.17517">
        <ele>712.2</ele>
        <time>2016-07-23T11:31:19Z</time>
      </trkpt>
      <trkpt lat="42.54528" lon="0.17511">
        <ele>713.2</ele>
        <time>2016-07-23T11:31:21Z</time>
      </trkpt>
      <trkpt lat="42.54529" lon="0.17505">
        <ele>713.7</ele>
        <time>2016-07-23T11:31:23Z</time>
      </trkpt>
      <trkpt lat="42.54528" lon="0.17498">
        <ele>714.7</ele>
        <time>2016-07-23T11:31:25Z</time>
      </trkpt>
      <trkpt lat="42.54527" lon="0.17492">
        <ele>716</ele>
        <time>2016-07-23T11:31:27Z</time>
      </trkpt>
      <trkpt lat="42.54526" lon="0.17487">
        <ele>717.1</ele>
        <time>2016-07-23T11:31:29Z</time>
      </trkpt>
      <trkpt lat="42.54526" lon="0.1748">
        <ele>717.6</ele>
        <time>2016-07-23T11:31:31Z</time>
      </trkpt>
      <trkpt lat="42.54527" lon="0.17476">
        <ele>717.6</ele>
        <time>2016-07-23T11:31:32Z</time>
      </trkpt>
      <trkpt lat="42.54528" lon="0.17471">
        <ele>717.6</ele>
        <time>2016-07-23T11:31:33Z</time>
      </trkpt>
      <trkpt lat="42.54528" lon="0.17467">
        <ele>717.9</ele>
        <time>2016-07-23T11:31:34Z</time>
      </trkpt>
      <trkpt lat="42.54528" lon="0.17462">
        <ele>718.6</ele>
        <time>2016-07-23T11:31:35Z</time>
      </trkpt>
      <trkpt lat="42.54527" lon="0.17458">
        <ele>719.7</ele>
        <time>2016-07-23T11:31:36Z</time>
      </trkpt>
      <trkpt lat="42.54526" lon="0.17454">
        <ele>721</ele>
        <time>2016-07-23T11:31:37Z</time>
      </trkpt>
      <trkpt lat="42.54524" lon="0.17447">
        <ele>723.4</ele>
        <time>2016-07-23T11:31:39Z</time>
      </trkpt>
      <trkpt lat="42.54524" lon="0.17443">
        <ele>724.4</ele>
        <time>2016-07-23T11:31:40Z</time>
      </trkpt>
      <trkpt lat="42.54524" lon="0.1744">
        <ele>724.9</ele>
        <time>2016-07-23T11:31:41Z</time>
      </trkpt>
      <trkpt lat="42.54525" lon="0.17433">
        <ele>725.6</ele>
        <time>2016-07-23T11:31:43Z</time>
      </trkpt>
      <trkpt lat="42.54525" lon="0.17427">
        <ele>726.1</ele>
        <time>2016-07-23T11:31:45Z</time>
      </trkpt>
      <trkpt lat="42.54525" lon="0.17422">
        <ele>727</ele>
        <time>2016-07-23T11:31:47Z</time>
      </trkpt>
      <trkpt lat="42.54524" lon="0.17418">
        <ele>728.5</ele>
        <time>2016-07-23T11:31:50Z</time>
      </trkpt>
      <trkpt lat="42.54525" lon="0.17414">
        <ele>728.9</ele>
        <time>2016-07-23T11:31:56Z</time>
      </trkpt>
      <trkpt lat="42.54524" lon="0.17409">
        <ele>730.4</ele>
        <time>2016-07-23T11:31:59Z</time>
      </trkpt>
      <trkpt lat="42.54526" lon="0.17405">
        <ele>729.7</ele>
        <time>2016-07-23T11:32:02Z</time>
      </trkpt>
      <trkpt lat="42.54528" lon="0.17402">
        <ele>728.8</ele>
        <time>2016-07-23T11:32:07Z</time>
      </trkpt>
      <trkpt lat="42.5453" lon="0.17399">
        <ele>727.9</ele>
        <time>2016-07-23T11:32:10Z</time>
      </trkpt>
      <trkpt lat="42.54532" lon="0.17397">
        <ele>726.6</ele>
        <time>2016-07-23T11:32:14Z</time>
      </trkpt>
      <trkpt lat="42.54533" lon="0.17393">
        <ele>726.5</ele>
        <time>2016-07-23T11:32:18Z</time>
      </trkpt>
      <trkpt lat="42.54533" lon="0.17389">
        <ele>727</ele>
        <time>2016-07-23T11:32:21Z</time>
      </trkpt>
      <trkpt lat="42.54533" lon="0.17383">
        <ele>728.3</ele>
        <time>2016-07-23T11:32:24Z</time>
      </trkpt>
      <trkpt lat="42.54533" lon="0.17379">
        <ele>729.1</ele>
        <time>2016-07-23T11:32:26Z</time>
      </trkpt>
      <trkpt lat="42.54532" lon="0.17375">
        <ele>729.9</ele>
        <time>2016-07-23T11:32:29Z</time>
      </trkpt>
      <trkpt lat="42.54532" lon="0.1737">
        <ele>731.7</ele>
        <time>2016-07-23T11:32:33Z</time>
      </trkpt>
      <trkpt lat="42.54532" lon="0.17365">
        <ele>733.5</ele>
        <time>2016-07-23T11:32:39Z</time>
      </trkpt>
      <trkpt lat="42.54533" lon="0.17361">
        <ele>734.7</ele>
        <time>2016-07-23T11:32:41Z</time>
      </trkpt>
      <trkpt lat="42.54534" lon="0.17357">
        <ele>735.3</ele>
        <time>2016-07-23T11:32:43Z</time>
      </trkpt>
      <trkpt lat="42.54535" lon="0.17353">
        <ele>735.9</ele>
        <time>2016-07-23T11:32:45Z</time>
      </trkpt>
      <trkpt lat="42.54538" lon="0.17347">
        <ele>736.5</ele>
        <time>2016-07-23T11:32:47Z</time>
      </trkpt>
      <trkpt lat="42.54539" lon="0.17344">
        <ele>736.6</ele>
        <time>2016-07-23T11:32:48Z</time>
      </trkpt>
      <trkpt lat="42.54541" lon="0.17338">
        <ele>737</ele>
        <time>2016-07-23T11:32:50Z</time>
      </trkpt>
      <trkpt lat="42.54543" lon="0.17334">
        <ele>737.4</ele>
        <time>2016-07-23T11:32:51Z</time>
      </trkpt>
      <trkpt lat="42.54544" lon="0.17331">
        <ele>737.8</ele>
        <time>2016-07-23T11:32:52Z</time>
      </trkpt>
      <trkpt lat="42.54546" lon="0.17327">
        <ele>738</ele>
        <time>2016-07-23T11:32:53Z</time>
      </trkpt>
      <trkpt lat="42.54548" lon="0.17323">
        <ele>738</ele>
        <time>2016-07-23T11:32:54Z</time>
      </trkpt>
      <trkpt lat="42.54552" lon="0.17317">
        <ele>738</ele>
        <time>2016-07-23T11:32:55Z</time>
      </trkpt>
      <trkpt lat="42.54555" lon="0.17311">
        <ele>737.7</ele>
        <time>2016-07-23T11:32:56Z</time>
      </trkpt>
      <trkpt lat="42.54559" lon="0.17306">
        <ele>737.1</ele>
        <time>2016-07-23T11:32:57Z</time>
      </trkpt>
      <trkpt lat="42.54562" lon="0.17303">
        <ele>736.2</ele>
        <time>2016-07-23T11:32:58Z</time>
      </trkpt>
      <trkpt lat="42.54565" lon="0.173">
        <ele>735.3</ele>
        <time>2016-07-23T11:32:59Z</time>
      </trkpt>
      <trkpt lat="42.54568" lon="0.173">
        <ele>733.4</ele>
        <time>2016-07-23T11:33:03Z</time>
      </trkpt>
      <trkpt lat="42.54571" lon="0.17298">
        <ele>732</ele>
        <time>2016-07-23T11:33:06Z</time>
      </trkpt>
      <trkpt lat="42.54574" lon="0.17296">
        <ele>730.7</ele>
        <time>2016-07-23T11:33:08Z</time>
      </trkpt>
      <trkpt lat="42.54578" lon="0.17293">
        <ele>729.1</ele>
        <time>2016-07-23T11:33:10Z</time>
      </trkpt>
      <trkpt lat="42.54581" lon="0.17293">
        <ele>727.1</ele>
        <time>2016-07-23T11:33:13Z</time>
      </trkpt>
      <trkpt lat="42.54581" lon="0.17298">
        <ele>725.7</ele>
        <time>2016-07-23T11:33:17Z</time>
      </trkpt>
      <trkpt lat="42.5458" lon="0.17302">
        <ele>724.7</ele>
        <time>2016-07-23T11:33:19Z</time>
      </trkpt>
      <trkpt lat="42.54583" lon="0.173">
        <ele>722.9</ele>
        <time>2016-07-23T11:33:26Z</time>
      </trkpt>
      <trkpt lat="42.54586" lon="0.173">
        <ele>721.1</ele>
        <time>2016-07-23T11:33:27Z</time>
      </trkpt>
      <trkpt lat="42.5459" lon="0.17299">
        <ele>719</ele>
        <time>2016-07-23T11:33:28Z</time>
      </trkpt>
      <trkpt lat="42.54594" lon="0.17298">
        <ele>717.1</ele>
        <time>2016-07-23T11:33:29Z</time>
      </trkpt>
      <trkpt lat="42.54597" lon="0.17296">
        <ele>715.2</ele>
        <time>2016-07-23T11:33:30Z</time>
      </trkpt>
      <trkpt lat="42.54601" lon="0.17293">
        <ele>713.6</ele>
        <time>2016-07-23T11:33:31Z</time>
      </trkpt>
      <trkpt lat="42.54605" lon="0.1729">
        <ele>712.4</ele>
        <time>2016-07-23T11:33:32Z</time>
      </trkpt>
      <trkpt lat="42.54608" lon="0.17288">
        <ele>711.6</ele>
        <time>2016-07-23T11:33:33Z</time>
      </trkpt>
      <trkpt lat="42.54611" lon="0.17284">
        <ele>711.2</ele>
        <time>2016-07-23T11:33:34Z</time>
      </trkpt>
      <trkpt lat="42.54614" lon="0.17281">
        <ele>710.9</ele>
        <time>2016-07-23T11:33:35Z</time>
      </trkpt>
      <trkpt lat="42.54616" lon="0.17278">
        <ele>710.6</ele>
        <time>2016-07-23T11:33:36Z</time>
      </trkpt>
      <trkpt lat="42.54619" lon="0.17276">
        <ele>709.9</ele>
        <time>2016-07-23T11:33:37Z</time>
      </trkpt>
      <trkpt lat="42.54621" lon="0.17275">
        <ele>708.8</ele>
        <time>2016-07-23T11:33:38Z</time>
      </trkpt>
      <trkpt lat="42.54624" lon="0.17273">
        <ele>707.6</ele>
        <time>2016-07-23T11:33:39Z</time>
      </trkpt>
      <trkpt lat="42.54627" lon="0.17272">
        <ele>706.9</ele>
        <time>2016-07-23T11:33:40Z</time>
      </trkpt>
      <trkpt lat="42.54631" lon="0.17269">
        <ele>706.8</ele>
        <time>2016-07-23T11:33:41Z</time>
      </trkpt>
      <trkpt lat="42.54635" lon="0.17266">
        <ele>706.8</ele>
        <time>2016-07-23T11:33:42Z</time>
      </trkpt>
      <trkpt lat="42.54638" lon="0.17263">
        <ele>707</ele>
        <time>2016-07-23T11:33:43Z</time>
      </trkpt>
      <trkpt lat="42.5464" lon="0.17261">
        <ele>707.5</ele>
        <time>2016-07-23T11:33:44Z</time>
      </trkpt>
      <trkpt lat="42.54643" lon="0.17258">
        <ele>708.1</ele>
        <time>2016-07-23T11:33:45Z</time>
      </trkpt>
      <trkpt lat="42.54645" lon="0.17255">
        <ele>708.8</ele>
        <time>2016-07-23T11:33:46Z</time>
      </trkpt>
      <trkpt lat="42.54647" lon="0.17251">
        <ele>709.5</ele>
        <time>2016-07-23T11:33:47Z</time>
      </trkpt>
      <trkpt lat="42.54649" lon="0.17248">
        <ele>710.1</ele>
        <time>2016-07-23T11:33:48Z</time>
      </trkpt>
      <trkpt lat="42.54651" lon="0.17246">
        <ele>710.5</ele>
        <time>2016-07-23T11:33:49Z</time>
      </trkpt>
      <trkpt lat="42.54654" lon="0.17243">
        <ele>710.7</ele>
        <time>2016-07-23T11:33:50Z</time>
      </trkpt>
      <trkpt lat="42.54656" lon="0.17242">
        <ele>710.7</ele>
        <time>2016-07-23T11:33:51Z</time>
      </trkpt>
      <trkpt lat="42.54659" lon="0.1724">
        <ele>710.4</ele>
        <time>2016-07-23T11:33:52Z</time>
      </trkpt>
      <trkpt lat="42.54662" lon="0.17239">
        <ele>709.9</ele>
        <time>2016-07-23T11:33:53Z</time>
      </trkpt>
      <trkpt lat="42.54665" lon="0.17237">
        <ele>709.3</ele>
        <time>2016-07-23T11:33:54Z</time>
      </trkpt>
      <trkpt lat="42.54669" lon="0.17236">
        <ele>708.6</ele>
        <time>2016-07-23T11:33:55Z</time>
      </trkpt>
      <trkpt lat="42.54673" lon="0.17235">
        <ele>707.9</ele>
        <time>2016-07-23T11:33:56Z</time>
      </trkpt>
      <trkpt lat="42.54677" lon="0.17233">
        <ele>707.1</ele>
        <time>2016-07-23T11:33:57Z</time>
      </trkpt>
      <trkpt lat="42.54681" lon="0.17231">
        <ele>706.2</ele>
        <time>2016-07-23T11:33:58Z</time>
      </trkpt>
      <trkpt lat="42.54685" lon="0.17229">
        <ele>705.6</ele>
        <time>2016-07-23T11:33:59Z</time>
      </trkpt>
      <trkpt lat="42.5469" lon="0.17227">
        <ele>705</ele>
        <time>2016-07-23T11:34:00Z</time>
      </trkpt>
      <trkpt lat="42.54694" lon="0.17224">
        <ele>704.6</ele>
        <time>2016-07-23T11:34:01Z</time>
      </trkpt>
      <trkpt lat="42.54699" lon="0.17221">
        <ele>704.2</ele>
        <time>2016-07-23T11:34:02Z</time>
      </trkpt>
      <trkpt lat="42.54703" lon="0.17218">
        <ele>703.8</ele>
        <time>2016-07-23T11:34:03Z</time>
      </trkpt>
      <trkpt lat="42.54708" lon="0.17216">
        <ele>703.1</ele>
        <time>2016-07-23T11:34:04Z</time>
      </trkpt>
      <trkpt lat="42.54712" lon="0.17214">
        <ele>702.4</ele>
        <time>2016-07-23T11:34:05Z</time>
      </trkpt>
      <trkpt lat="42.54717" lon="0.17212">
        <ele>701.4</ele>
        <time>2016-07-23T11:34:06Z</time>
      </trkpt>
      <trkpt lat="42.54722" lon="0.17211">
        <ele>700.4</ele>
        <time>2016-07-23T11:34:07Z</time>
      </trkpt>
      <trkpt lat="42.54727" lon="0.17209">
        <ele>699.3</ele>
        <time>2016-07-23T11:34:08Z</time>
      </trkpt>
      <trkpt lat="42.54732" lon="0.17206">
        <ele>698.3</ele>
        <time>2016-07-23T11:34:09Z</time>
      </trkpt>
      <trkpt lat="42.54736" lon="0.17204">
        <ele>697.4</ele>
        <time>2016-07-23T11:34:10Z</time>
      </trkpt>
      <trkpt lat="42.5474" lon="0.17201">
        <ele>696.6</ele>
        <time>2016-07-23T11:34:11Z</time>
      </trkpt>
      <trkpt lat="42.54743" lon="0.17198">
        <ele>696.1</ele>
        <time>2016-07-23T11:34:12Z</time>
      </trkpt>
      <trkpt lat="42.54747" lon="0.17195">
        <ele>695.6</ele>
        <time>2016-07-23T11:34:13Z</time>
      </trkpt>
      <trkpt lat="42.5475" lon="0.1719">
        <ele>695.6</ele>
        <time>2016-07-23T11:34:14Z</time>
      </trkpt>
      <trkpt lat="42.54752" lon="0.17185">
        <ele>695.9</ele>
        <time>2016-07-23T11:34:15Z</time>
      </trkpt>
      <trkpt lat="42.54753" lon="0.17179">
        <ele>696.6</ele>
        <time>2016-07-23T11:34:16Z</time>
      </trkpt>
      <trkpt lat="42.54754" lon="0.17175">
        <ele>697</ele>
        <time>2016-07-23T11:34:17Z</time>
      </trkpt>
      <trkpt lat="42.54756" lon="0.17172">
        <ele>697.1</ele>
        <time>2016-07-23T11:34:18Z</time>
      </trkpt>
      <trkpt lat="42.54758" lon="0.17167">
        <ele>697</ele>
        <time>2016-07-23T11:34:20Z</time>
      </trkpt>
      <trkpt lat="42.54761" lon="0.17162">
        <ele>697</ele>
        <time>2016-07-23T11:34:22Z</time>
      </trkpt>
      <trkpt lat="42.54762" lon="0.17157">
        <ele>697.4</ele>
        <time>2016-07-23T11:34:24Z</time>
      </trkpt>
      <trkpt lat="42.54763" lon="0.17151">
        <ele>698</ele>
        <time>2016-07-23T11:34:26Z</time>
      </trkpt>
      <trkpt lat="42.54764" lon="0.17145">
        <ele>698.9</ele>
        <time>2016-07-23T11:34:28Z</time>
      </trkpt>
      <trkpt lat="42.54764" lon="0.1714">
        <ele>699.9</ele>
        <time>2016-07-23T11:34:30Z</time>
      </trkpt>
      <trkpt lat="42.54763" lon="0.17135">
        <ele>701</ele>
        <time>2016-07-23T11:34:32Z</time>
      </trkpt>
      <trkpt lat="42.54764" lon="0.1713">
        <ele>701.6</ele>
        <time>2016-07-23T11:34:34Z</time>
      </trkpt>
      <trkpt lat="42.54766" lon="0.17126">
        <ele>701.5</ele>
        <time>2016-07-23T11:34:36Z</time>
      </trkpt>
      <trkpt lat="42.54768" lon="0.17119">
        <ele>700</ele>
        <time>2016-07-23T11:34:38Z</time>
      </trkpt>
      <trkpt lat="42.54769" lon="0.17115">
        <ele>699.3</ele>
        <time>2016-07-23T11:34:39Z</time>
      </trkpt>
      <trkpt lat="42.54769" lon="0.17111">
        <ele>698.8</ele>
        <time>2016-07-23T11:34:40Z</time>
      </trkpt>
      <trkpt lat="42.54769" lon="0.17108">
        <ele>698.4</ele>
        <time>2016-07-23T11:34:41Z</time>
      </trkpt>
      <trkpt lat="42.54769" lon="0.17104">
        <ele>698</ele>
        <time>2016-07-23T11:34:42Z</time>
      </trkpt>
      <trkpt lat="42.54769" lon="0.17099">
        <ele>697.7</ele>
        <time>2016-07-23T11:34:43Z</time>
      </trkpt>
      <trkpt lat="42.54769" lon="0.17094">
        <ele>697.2</ele>
        <time>2016-07-23T11:34:44Z</time>
      </trkpt>
      <trkpt lat="42.54769" lon="0.17089">
        <ele>696.4</ele>
        <time>2016-07-23T11:34:45Z</time>
      </trkpt>
      <trkpt lat="42.5477" lon="0.17083">
        <ele>695.6</ele>
        <time>2016-07-23T11:34:46Z</time>
      </trkpt>
      <trkpt lat="42.5477" lon="0.17078">
        <ele>695</ele>
        <time>2016-07-23T11:34:47Z</time>
      </trkpt>
      <trkpt lat="42.5477" lon="0.17073">
        <ele>694.5</ele>
        <time>2016-07-23T11:34:48Z</time>
      </trkpt>
      <trkpt lat="42.5477" lon="0.17067">
        <ele>693.8</ele>
        <time>2016-07-23T11:34:49Z</time>
      </trkpt>
      <trkpt lat="42.54771" lon="0.17062">
        <ele>693</ele>
        <time>2016-07-23T11:34:50Z</time>
      </trkpt>
      <trkpt lat="42.54772" lon="0.17057">
        <ele>692.1</ele>
        <time>2016-07-23T11:34:51Z</time>
      </trkpt>
      <trkpt lat="42.54773" lon="0.17052">
        <ele>691</ele>
        <time>2016-07-23T11:34:52Z</time>
      </trkpt>
      <trkpt lat="42.54774" lon="0.17047">
        <ele>689.8</ele>
        <time>2016-07-23T11:34:53Z</time>
      </trkpt>
      <trkpt lat="42.54775" lon="0.17041">
        <ele>688.7</ele>
        <time>2016-07-23T11:34:54Z</time>
      </trkpt>
      <trkpt lat="42.54776" lon="0.17034">
        <ele>686.7</ele>
        <time>2016-07-23T11:34:55Z</time>
      </trkpt>
      <trkpt lat="42.54777" lon="0.17027">
        <ele>685</ele>
        <time>2016-07-23T11:34:56Z</time>
      </trkpt>
      <trkpt lat="42.54777" lon="0.17022">
        <ele>684.2</ele>
        <time>2016-07-23T11:34:57Z</time>
      </trkpt>
      <trkpt lat="42.54777" lon="0.17017">
        <ele>683.2</ele>
        <time>2016-07-23T11:34:59Z</time>
      </trkpt>
      <trkpt lat="42.54776" lon="0.17012">
        <ele>682.8</ele>
        <time>2016-07-23T11:35:03Z</time>
      </trkpt>
      <trkpt lat="42.54776" lon="0.17008">
        <ele>682.6</ele>
        <time>2016-07-23T11:35:04Z</time>
      </trkpt>
      <trkpt lat="42.54775" lon="0.17003">
        <ele>682.1</ele>
        <time>2016-07-23T11:35:05Z</time>
      </trkpt>
      <trkpt lat="42.54773" lon="0.16997">
        <ele>681.7</ele>
        <time>2016-07-23T11:35:06Z</time>
      </trkpt>
      <trkpt lat="42.54773" lon="0.16991">
        <ele>680.9</ele>
        <time>2016-07-23T11:35:07Z</time>
      </trkpt>
      <trkpt lat="42.54773" lon="0.16984">
        <ele>679.9</ele>
        <time>2016-07-23T11:35:08Z</time>
      </trkpt>
      <trkpt lat="42.54772" lon="0.16979">
        <ele>679.2</ele>
        <time>2016-07-23T11:35:09Z</time>
      </trkpt>
      <trkpt lat="42.54771" lon="0.16974">
        <ele>678.7</ele>
        <time>2016-07-23T11:35:10Z</time>
      </trkpt>
      <trkpt lat="42.5477" lon="0.16969">
        <ele>678.5</ele>
        <time>2016-07-23T11:35:11Z</time>
      </trkpt>
      <trkpt lat="42.54769" lon="0.16963">
        <ele>678.2</ele>
        <time>2016-07-23T11:35:12Z</time>
      </trkpt>
      <trkpt lat="42.54767" lon="0.16957">
        <ele>678.1</ele>
        <time>2016-07-23T11:35:13Z</time>
      </trkpt>
      <trkpt lat="42.54765" lon="0.1695">
        <ele>678.8</ele>
        <time>2016-07-23T11:35:14Z</time>
      </trkpt>
      <trkpt lat="42.54762" lon="0.16942">
        <ele>679.6</ele>
        <time>2016-07-23T11:35:15Z</time>
      </trkpt>
      <trkpt lat="42.5476" lon="0.16934">
        <ele>680.3</ele>
        <time>2016-07-23T11:35:16Z</time>
      </trkpt>
      <trkpt lat="42.54757" lon="0.16926">
        <ele>680.8</ele>
        <time>2016-07-23T11:35:17Z</time>
      </trkpt>
      <trkpt lat="42.54755" lon="0.16918">
        <ele>681.1</ele>
        <time>2016-07-23T11:35:18Z</time>
      </trkpt>
      <trkpt lat="42.54752" lon="0.1691">
        <ele>681.4</ele>
        <time>2016-07-23T11:35:19Z</time>
      </trkpt>
      <trkpt lat="42.5475" lon="0.16902">
        <ele>681.8</ele>
        <time>2016-07-23T11:35:20Z</time>
      </trkpt>
      <trkpt lat="42.54744" lon="0.16895">
        <ele>683.6</ele>
        <time>2016-07-23T11:35:21Z</time>
      </trkpt>
      <trkpt lat="42.54741" lon="0.16889">
        <ele>684.1</ele>
        <time>2016-07-23T11:35:22Z</time>
      </trkpt>
      <trkpt lat="42.54739" lon="0.16881">
        <ele>684.1</ele>
        <time>2016-07-23T11:35:23Z</time>
      </trkpt>
      <trkpt lat="42.54737" lon="0.16875">
        <ele>684.2</ele>
        <time>2016-07-23T11:35:24Z</time>
      </trkpt>
      <trkpt lat="42.54736" lon="0.16868">
        <ele>684.3</ele>
        <time>2016-07-23T11:35:25Z</time>
      </trkpt>
      <trkpt lat="42.54734" lon="0.1686">
        <ele>684.7</ele>
        <time>2016-07-23T11:35:26Z</time>
      </trkpt>
      <trkpt lat="42.54731" lon="0.16853">
        <ele>685.2</ele>
        <time>2016-07-23T11:35:27Z</time>
      </trkpt>
      <trkpt lat="42.54728" lon="0.16848">
        <ele>686.1</ele>
        <time>2016-07-23T11:35:28Z</time>
      </trkpt>
      <trkpt lat="42.54726" lon="0.16842">
        <ele>686.4</ele>
        <time>2016-07-23T11:35:29Z</time>
      </trkpt>
      <trkpt lat="42.54724" lon="0.16837">
        <ele>686.9</ele>
        <time>2016-07-23T11:35:30Z</time>
      </trkpt>
      <trkpt lat="42.54723" lon="0.16831">
        <ele>686.8</ele>
        <time>2016-07-23T11:35:31Z</time>
      </trkpt>
      <trkpt lat="42.54722" lon="0.16824">
        <ele>686.9</ele>
        <time>2016-07-23T11:35:32Z</time>
      </trkpt>
      <trkpt lat="42.5472" lon="0.16819">
        <ele>687.2</ele>
        <time>2016-07-23T11:35:33Z</time>
      </trkpt>
      <trkpt lat="42.54718" lon="0.16812">
        <ele>687.2</ele>
        <time>2016-07-23T11:35:34Z</time>
      </trkpt>
      <trkpt lat="42.54716" lon="0.16807">
        <ele>687.6</ele>
        <time>2016-07-23T11:35:35Z</time>
      </trkpt>
      <trkpt lat="42.54713" lon="0.16803">
        <ele>688.4</ele>
        <time>2016-07-23T11:35:36Z</time>
      </trkpt>
      <trkpt lat="42.54711" lon="0.168">
        <ele>688.9</ele>
        <time>2016-07-23T11:35:37Z</time>
      </trkpt>
      <trkpt lat="42.54709" lon="0.16795">
        <ele>689.1</ele>
        <time>2016-07-23T11:35:38Z</time>
      </trkpt>
      <trkpt lat="42.5471" lon="0.1679">
        <ele>688.5</ele>
        <time>2016-07-23T11:35:39Z</time>
      </trkpt>
      <trkpt lat="42.54709" lon="0.16785">
        <ele>688.3</ele>
        <time>2016-07-23T11:35:40Z</time>
      </trkpt>
      <trkpt lat="42.54709" lon="0.1678">
        <ele>688.2</ele>
        <time>2016-07-23T11:35:41Z</time>
      </trkpt>
      <trkpt lat="42.54708" lon="0.16774">
        <ele>688.2</ele>
        <time>2016-07-23T11:35:42Z</time>
      </trkpt>
      <trkpt lat="42.54707" lon="0.16765">
        <ele>688</ele>
        <time>2016-07-23T11:35:43Z</time>
      </trkpt>
      <trkpt lat="42.54706" lon="0.16758">
        <ele>688.4</ele>
        <time>2016-07-23T11:35:44Z</time>
      </trkpt>
      <trkpt lat="42.54705" lon="0.1675">
        <ele>688.2</ele>
        <time>2016-07-23T11:35:45Z</time>
      </trkpt>
      <trkpt lat="42.54704" lon="0.16743">
        <ele>688.2</ele>
        <time>2016-07-23T11:35:46Z</time>
      </trkpt>
      <trkpt lat="42.54704" lon="0.16736">
        <ele>688.1</ele>
        <time>2016-07-23T11:35:47Z</time>
      </trkpt>
      <trkpt lat="42.54704" lon="0.16731">
        <ele>687.9</ele>
        <time>2016-07-23T11:35:48Z</time>
      </trkpt>
      <trkpt lat="42.54704" lon="0.16724">
        <ele>687.6</ele>
        <time>2016-07-23T11:35:49Z</time>
      </trkpt>
      <trkpt lat="42.54702" lon="0.16718">
        <ele>688</ele>
        <time>2016-07-23T11:35:50Z</time>
      </trkpt>
      <trkpt lat="42.54704" lon="0.1671">
        <ele>686.3</ele>
        <time>2016-07-23T11:35:52Z</time>
      </trkpt>
      <trkpt lat="42.54705" lon="0.16704">
        <ele>685.7</ele>
        <time>2016-07-23T11:35:53Z</time>
      </trkpt>
      <trkpt lat="42.54706" lon="0.16701">
        <ele>685.4</ele>
        <time>2016-07-23T11:35:54Z</time>
      </trkpt>
      <trkpt lat="42.54708" lon="0.16694">
        <ele>684.7</ele>
        <time>2016-07-23T11:35:56Z</time>
      </trkpt>
      <trkpt lat="42.54707" lon="0.16686">
        <ele>685.3</ele>
        <time>2016-07-23T11:35:58Z</time>
      </trkpt>
      <trkpt lat="42.54708" lon="0.16682">
        <ele>685.1</ele>
        <time>2016-07-23T11:35:59Z</time>
      </trkpt>
      <trkpt lat="42.54707" lon="0.16677">
        <ele>685.4</ele>
        <time>2016-07-23T11:36:00Z</time>
      </trkpt>
      <trkpt lat="42.54707" lon="0.16672">
        <ele>685.6</ele>
        <time>2016-07-23T11:36:01Z</time>
      </trkpt>
      <trkpt lat="42.54707" lon="0.16666">
        <ele>686</ele>
        <time>2016-07-23T11:36:02Z</time>
      </trkpt>
      <trkpt lat="42.54706" lon="0.16661">
        <ele>686.6</ele>
        <time>2016-07-23T11:36:03Z</time>
      </trkpt>
      <trkpt lat="42.54705" lon="0.16657">
        <ele>687.3</ele>
        <time>2016-07-23T11:36:04Z</time>
      </trkpt>
      <trkpt lat="42.54704" lon="0.16652">
        <ele>688</ele>
        <time>2016-07-23T11:36:05Z</time>
      </trkpt>
      <trkpt lat="42.54703" lon="0.16647">
        <ele>688.6</ele>
        <time>2016-07-23T11:36:06Z</time>
      </trkpt>
      <trkpt lat="42.54702" lon="0.16642">
        <ele>689.2</ele>
        <time>2016-07-23T11:36:07Z</time>
      </trkpt>
      <trkpt lat="42.54701" lon="0.16638">
        <ele>689.7</ele>
        <time>2016-07-23T11:36:08Z</time>
      </trkpt>
      <trkpt lat="42.547" lon="0.16634">
        <ele>690.2</ele>
        <time>2016-07-23T11:36:09Z</time>
      </trkpt>
      <trkpt lat="42.547" lon="0.16629">
        <ele>690.6</ele>
        <time>2016-07-23T11:36:10Z</time>
      </trkpt>
      <trkpt lat="42.547" lon="0.16624">
        <ele>690.7</ele>
        <time>2016-07-23T11:36:11Z</time>
      </trkpt>
      <trkpt lat="42.54699" lon="0.1662">
        <ele>690.4</ele>
        <time>2016-07-23T11:36:12Z</time>
      </trkpt>
      <trkpt lat="42.54699" lon="0.16615">
        <ele>690.1</ele>
        <time>2016-07-23T11:36:13Z</time>
      </trkpt>
      <trkpt lat="42.54698" lon="0.1661">
        <ele>689.8</ele>
        <time>2016-07-23T11:36:14Z</time>
      </trkpt>
      <trkpt lat="42.54698" lon="0.16605">
        <ele>689.6</ele>
        <time>2016-07-23T11:36:15Z</time>
      </trkpt>
      <trkpt lat="42.54697" lon="0.166">
        <ele>689.3</ele>
        <time>2016-07-23T11:36:16Z</time>
      </trkpt>
      <trkpt lat="42.54696" lon="0.16595">
        <ele>689.3</ele>
        <time>2016-07-23T11:36:17Z</time>
      </trkpt>
      <trkpt lat="42.54695" lon="0.1659">
        <ele>689.4</ele>
        <time>2016-07-23T11:36:18Z</time>
      </trkpt>
      <trkpt lat="42.54693" lon="0.16586">
        <ele>689.7</ele>
        <time>2016-07-23T11:36:19Z</time>
      </trkpt>
      <trkpt lat="42.54692" lon="0.16581">
        <ele>689.9</ele>
        <time>2016-07-23T11:36:20Z</time>
      </trkpt>
      <trkpt lat="42.54691" lon="0.16577">
        <ele>690.2</ele>
        <time>2016-07-23T11:36:21Z</time>
      </trkpt>
      <trkpt lat="42.5469" lon="0.16573">
        <ele>690.4</ele>
        <time>2016-07-23T11:36:22Z</time>
      </trkpt>
      <trkpt lat="42.54689" lon="0.16569">
        <ele>690.4</ele>
        <time>2016-07-23T11:36:23Z</time>
      </trkpt>
      <trkpt lat="42.54688" lon="0.16565">
        <ele>690.4</ele>
        <time>2016-07-23T11:36:24Z</time>
      </trkpt>
      <trkpt lat="42.54688" lon="0.16561">
        <ele>690.1</ele>
        <time>2016-07-23T11:36:25Z</time>
      </trkpt>
      <trkpt lat="42.54687" lon="0.16557">
        <ele>690</ele>
        <time>2016-07-23T11:36:26Z</time>
      </trkpt>
      <trkpt lat="42.54686" lon="0.16553">
        <ele>689.8</ele>
        <time>2016-07-23T11:36:27Z</time>
      </trkpt>
      <trkpt lat="42.54686" lon="0.16549">
        <ele>689.6</ele>
        <time>2016-07-23T11:36:28Z</time>
      </trkpt>
      <trkpt lat="42.54686" lon="0.16541">
        <ele>689</ele>
        <time>2016-07-23T11:36:30Z</time>
      </trkpt>
      <trkpt lat="42.54684" lon="0.16535">
        <ele>689.5</ele>
        <time>2016-07-23T11:36:32Z</time>
      </trkpt>
      <trkpt lat="42.54682" lon="0.16532">
        <ele>689.9</ele>
        <time>2016-07-23T11:36:33Z</time>
      </trkpt>
      <trkpt lat="42.54681" lon="0.16528">
        <ele>690.5</ele>
        <time>2016-07-23T11:36:34Z</time>
      </trkpt>
      <trkpt lat="42.54679" lon="0.16524">
        <ele>690.9</ele>
        <time>2016-07-23T11:36:35Z</time>
      </trkpt>
      <trkpt lat="42.54678" lon="0.1652">
        <ele>691.2</ele>
        <time>2016-07-23T11:36:36Z</time>
      </trkpt>
      <trkpt lat="42.54677" lon="0.16516">
        <ele>691.4</ele>
        <time>2016-07-23T11:36:37Z</time>
      </trkpt>
      <trkpt lat="42.54676" lon="0.16511">
        <ele>691.5</ele>
        <time>2016-07-23T11:36:38Z</time>
      </trkpt>
      <trkpt lat="42.54675" lon="0.16505">
        <ele>691.5</ele>
        <time>2016-07-23T11:36:39Z</time>
      </trkpt>
      <trkpt lat="42.54675" lon="0.165">
        <ele>691.4</ele>
        <time>2016-07-23T11:36:40Z</time>
      </trkpt>
      <trkpt lat="42.54674" lon="0.16494">
        <ele>691.3</ele>
        <time>2016-07-23T11:36:41Z</time>
      </trkpt>
      <trkpt lat="42.54673" lon="0.16488">
        <ele>691.1</ele>
        <time>2016-07-23T11:36:42Z</time>
      </trkpt>
      <trkpt lat="42.54672" lon="0.16482">
        <ele>691.2</ele>
        <time>2016-07-23T11:36:43Z</time>
      </trkpt>
      <trkpt lat="42.54671" lon="0.16476">
        <ele>691.6</ele>
        <time>2016-07-23T11:36:44Z</time>
      </trkpt>
      <trkpt lat="42.54669" lon="0.1647">
        <ele>692</ele>
        <time>2016-07-23T11:36:45Z</time>
      </trkpt>
      <trkpt lat="42.54665" lon="0.16463">
        <ele>693.2</ele>
        <time>2016-07-23T11:36:46Z</time>
      </trkpt>
      <trkpt lat="42.54663" lon="0.16457">
        <ele>693.6</ele>
        <time>2016-07-23T11:36:47Z</time>
      </trkpt>
      <trkpt lat="42.54661" lon="0.16452">
        <ele>694.3</ele>
        <time>2016-07-23T11:36:48Z</time>
      </trkpt>
      <trkpt lat="42.54658" lon="0.16445">
        <ele>695</ele>
        <time>2016-07-23T11:36:49Z</time>
      </trkpt>
      <trkpt lat="42.54657" lon="0.1644">
        <ele>695.3</ele>
        <time>2016-07-23T11:36:50Z</time>
      </trkpt>
      <trkpt lat="42.54656" lon="0.16434">
        <ele>695.1</ele>
        <time>2016-07-23T11:36:51Z</time>
      </trkpt>
      <trkpt lat="42.54656" lon="0.16427">
        <ele>694.2</ele>
        <time>2016-07-23T11:36:52Z</time>
      </trkpt>
      <trkpt lat="42.54655" lon="0.16422">
        <ele>694.4</ele>
        <time>2016-07-23T11:36:53Z</time>
      </trkpt>
      <trkpt lat="42.54656" lon="0.16415">
        <ele>693.3</ele>
        <time>2016-07-23T11:36:54Z</time>
      </trkpt>
      <trkpt lat="42.54654" lon="0.16413">
        <ele>694.1</ele>
        <time>2016-07-23T11:36:55Z</time>
      </trkpt>
      <trkpt lat="42.54652" lon="0.16409">
        <ele>694.7</ele>
        <time>2016-07-23T11:36:56Z</time>
      </trkpt>
      <trkpt lat="42.54651" lon="0.16403">
        <ele>694.5</ele>
        <time>2016-07-23T11:36:57Z</time>
      </trkpt>
      <trkpt lat="42.54652" lon="0.16399">
        <ele>693.6</ele>
        <time>2016-07-23T11:36:58Z</time>
      </trkpt>
      <trkpt lat="42.54652" lon="0.16391">
        <ele>693.2</ele>
        <time>2016-07-23T11:37:00Z</time>
      </trkpt>
      <trkpt lat="42.54649" lon="0.16386">
        <ele>694</ele>
        <time>2016-07-23T11:37:02Z</time>
      </trkpt>
      <trkpt lat="42.54645" lon="0.16384">
        <ele>695.6</ele>
        <time>2016-07-23T11:37:04Z</time>
      </trkpt>
      <trkpt lat="42.54642" lon="0.16384">
        <ele>697</ele>
        <time>2016-07-23T11:37:07Z</time>
      </trkpt>
      <trkpt lat="42.5464" lon="0.1638">
        <ele>697.4</ele>
        <time>2016-07-23T11:37:10Z</time>
      </trkpt>
      <trkpt lat="42.54639" lon="0.16376">
        <ele>697.6</ele>
        <time>2016-07-23T11:37:13Z</time>
      </trkpt>
      <trkpt lat="42.5464" lon="0.16372">
        <ele>696.7</ele>
        <time>2016-07-23T11:37:16Z</time>
      </trkpt>
      <trkpt lat="42.54641" lon="0.16365">
        <ele>695</ele>
        <time>2016-07-23T11:37:22Z</time>
      </trkpt>
      <trkpt lat="42.54643" lon="0.16362">
        <ele>693.6</ele>
        <time>2016-07-23T11:37:23Z</time>
      </trkpt>
      <trkpt lat="42.54642" lon="0.16358">
        <ele>693.4</ele>
        <time>2016-07-23T11:37:28Z</time>
      </trkpt>
      <trkpt lat="42.54639" lon="0.16358">
        <ele>695</ele>
        <time>2016-07-23T11:37:31Z</time>
      </trkpt>
      <trkpt lat="42.54635" lon="0.16361">
        <ele>697.2</ele>
        <time>2016-07-23T11:37:33Z</time>
      </trkpt>
      <trkpt lat="42.54635" lon="0.16356">
        <ele>696.4</ele>
        <time>2016-07-23T11:37:36Z</time>
      </trkpt>
      <trkpt lat="42.54637" lon="0.16352">
        <ele>694.8</ele>
        <time>2016-07-23T11:37:38Z</time>
      </trkpt>
      <trkpt lat="42.54639" lon="0.16347">
        <ele>693.3</ele>
        <time>2016-07-23T11:37:40Z</time>
      </trkpt>
      <trkpt lat="42.54641" lon="0.16342">
        <ele>691.6</ele>
        <time>2016-07-23T11:37:42Z</time>
      </trkpt>
      <trkpt lat="42.54643" lon="0.16337">
        <ele>689.9</ele>
        <time>2016-07-23T11:37:44Z</time>
      </trkpt>
      <trkpt lat="42.54645" lon="0.16333">
        <ele>688.9</ele>
        <time>2016-07-23T11:37:45Z</time>
      </trkpt>
      <trkpt lat="42.54646" lon="0.1633">
        <ele>687.8</ele>
        <time>2016-07-23T11:37:46Z</time>
      </trkpt>
      <trkpt lat="42.54647" lon="0.16326">
        <ele>686.9</ele>
        <time>2016-07-23T11:37:47Z</time>
      </trkpt>
      <trkpt lat="42.54648" lon="0.16322">
        <ele>686.1</ele>
        <time>2016-07-23T11:37:48Z</time>
      </trkpt>
      <trkpt lat="42.54647" lon="0.16317">
        <ele>685.5</ele>
        <time>2016-07-23T11:37:49Z</time>
      </trkpt>
      <trkpt lat="42.54647" lon="0.16312">
        <ele>684.8</ele>
        <time>2016-07-23T11:37:50Z</time>
      </trkpt>
      <trkpt lat="42.54647" lon="0.16307">
        <ele>684.1</ele>
        <time>2016-07-23T11:37:51Z</time>
      </trkpt>
      <trkpt lat="42.54648" lon="0.16302">
        <ele>683.3</ele>
        <time>2016-07-23T11:37:52Z</time>
      </trkpt>
      <trkpt lat="42.54648" lon="0.16296">
        <ele>682.3</ele>
        <time>2016-07-23T11:37:53Z</time>
      </trkpt>
      <trkpt lat="42.54648" lon="0.16291">
        <ele>681.4</ele>
        <time>2016-07-23T11:37:54Z</time>
      </trkpt>
      <trkpt lat="42.54648" lon="0.16285">
        <ele>680.6</ele>
        <time>2016-07-23T11:37:55Z</time>
      </trkpt>
      <trkpt lat="42.54647" lon="0.1628">
        <ele>680</ele>
        <time>2016-07-23T11:37:56Z</time>
      </trkpt>
      <trkpt lat="42.54645" lon="0.16275">
        <ele>679.6</ele>
        <time>2016-07-23T11:37:57Z</time>
      </trkpt>
      <trkpt lat="42.54643" lon="0.1627">
        <ele>679.2</ele>
        <time>2016-07-23T11:37:58Z</time>
      </trkpt>
      <trkpt lat="42.54641" lon="0.16266">
        <ele>679</ele>
        <time>2016-07-23T11:37:59Z</time>
      </trkpt>
      <trkpt lat="42.54639" lon="0.16262">
        <ele>678.8</ele>
        <time>2016-07-23T11:38:00Z</time>
      </trkpt>
      <trkpt lat="42.54635" lon="0.16256">
        <ele>678.6</ele>
        <time>2016-07-23T11:38:01Z</time>
      </trkpt>
      <trkpt lat="42.54632" lon="0.16252">
        <ele>678.4</ele>
        <time>2016-07-23T11:38:02Z</time>
      </trkpt>
      <trkpt lat="42.54628" lon="0.16247">
        <ele>678.4</ele>
        <time>2016-07-23T11:38:03Z</time>
      </trkpt>
      <trkpt lat="42.54624" lon="0.16243">
        <ele>678.4</ele>
        <time>2016-07-23T11:38:04Z</time>
      </trkpt>
      <trkpt lat="42.54621" lon="0.16239">
        <ele>678.1</ele>
        <time>2016-07-23T11:38:05Z</time>
      </trkpt>
      <trkpt lat="42.54617" lon="0.16235">
        <ele>677.8</ele>
        <time>2016-07-23T11:38:06Z</time>
      </trkpt>
      <trkpt lat="42.54614" lon="0.16232">
        <ele>677.6</ele>
        <time>2016-07-23T11:38:07Z</time>
      </trkpt>
      <trkpt lat="42.5461" lon="0.16229">
        <ele>677.3</ele>
        <time>2016-07-23T11:38:08Z</time>
      </trkpt>
      <trkpt lat="42.54607" lon="0.16225">
        <ele>676.8</ele>
        <time>2016-07-23T11:38:09Z</time>
      </trkpt>
      <trkpt lat="42.54604" lon="0.16221">
        <ele>676.3</ele>
        <time>2016-07-23T11:38:10Z</time>
      </trkpt>
      <trkpt lat="42.54602" lon="0.16216">
        <ele>675.5</ele>
        <time>2016-07-23T11:38:11Z</time>
      </trkpt>
      <trkpt lat="42.546" lon="0.16212">
        <ele>674.8</ele>
        <time>2016-07-23T11:38:12Z</time>
      </trkpt>
      <trkpt lat="42.54597" lon="0.16208">
        <ele>674.2</ele>
        <time>2016-07-23T11:38:13Z</time>
      </trkpt>
      <trkpt lat="42.54595" lon="0.16203">
        <ele>673.6</ele>
        <time>2016-07-23T11:38:14Z</time>
      </trkpt>
      <trkpt lat="42.54592" lon="0.16198">
        <ele>672.9</ele>
        <time>2016-07-23T11:38:15Z</time>
      </trkpt>
      <trkpt lat="42.54589" lon="0.16193">
        <ele>671.9</ele>
        <time>2016-07-23T11:38:16Z</time>
      </trkpt>
      <trkpt lat="42.54587" lon="0.16188">
        <ele>671</ele>
        <time>2016-07-23T11:38:17Z</time>
      </trkpt>
      <trkpt lat="42.54584" lon="0.16183">
        <ele>670.1</ele>
        <time>2016-07-23T11:38:18Z</time>
      </trkpt>
      <trkpt lat="42.54581" lon="0.16178">
        <ele>669.3</ele>
        <time>2016-07-23T11:38:19Z</time>
      </trkpt>
      <trkpt lat="42.54578" lon="0.16174">
        <ele>668.5</ele>
        <time>2016-07-23T11:38:20Z</time>
      </trkpt>
      <trkpt lat="42.54576" lon="0.1617">
        <ele>667.9</ele>
        <time>2016-07-23T11:38:21Z</time>
      </trkpt>
      <trkpt lat="42.54573" lon="0.16164">
        <ele>666.6</ele>
        <time>2016-07-23T11:38:23Z</time>
      </trkpt>
      <trkpt lat="42.5457" lon="0.1616">
        <ele>665.7</ele>
        <time>2016-07-23T11:38:24Z</time>
      </trkpt>
      <trkpt lat="42.54568" lon="0.16156">
        <ele>664.7</ele>
        <time>2016-07-23T11:38:25Z</time>
      </trkpt>
      <trkpt lat="42.54565" lon="0.16152">
        <ele>663.8</ele>
        <time>2016-07-23T11:38:26Z</time>
      </trkpt>
      <trkpt lat="42.54562" lon="0.16148">
        <ele>662.9</ele>
        <time>2016-07-23T11:38:27Z</time>
      </trkpt>
      <trkpt lat="42.54559" lon="0.16144">
        <ele>662.1</ele>
        <time>2016-07-23T11:38:28Z</time>
      </trkpt>
      <trkpt lat="42.54555" lon="0.16141">
        <ele>661.4</ele>
        <time>2016-07-23T11:38:29Z</time>
      </trkpt>
      <trkpt lat="42.54552" lon="0.16139">
        <ele>660.8</ele>
        <time>2016-07-23T11:38:30Z</time>
      </trkpt>
      <trkpt lat="42.54547" lon="0.16137">
        <ele>660.5</ele>
        <time>2016-07-23T11:38:31Z</time>
      </trkpt>
      <trkpt lat="42.54543" lon="0.16136">
        <ele>660.3</ele>
        <time>2016-07-23T11:38:32Z</time>
      </trkpt>
      <trkpt lat="42.54538" lon="0.16135">
        <ele>659.9</ele>
        <time>2016-07-23T11:38:33Z</time>
      </trkpt>
      <trkpt lat="42.54534" lon="0.16133">
        <ele>659</ele>
        <time>2016-07-23T11:38:34Z</time>
      </trkpt>
      <trkpt lat="42.54529" lon="0.16129">
        <ele>657.8</ele>
        <time>2016-07-23T11:38:35Z</time>
      </trkpt>
      <trkpt lat="42.54524" lon="0.16126">
        <ele>656.3</ele>
        <time>2016-07-23T11:38:36Z</time>
      </trkpt>
      <trkpt lat="42.54519" lon="0.16122">
        <ele>655.8</ele>
        <time>2016-07-23T11:38:37Z</time>
      </trkpt>
      <trkpt lat="42.54514" lon="0.16119">
        <ele>655.5</ele>
        <time>2016-07-23T11:38:38Z</time>
      </trkpt>
      <trkpt lat="42.54509" lon="0.16118">
        <ele>655.2</ele>
        <time>2016-07-23T11:38:39Z</time>
      </trkpt>
      <trkpt lat="42.54504" lon="0.16117">
        <ele>654.9</ele>
        <time>2016-07-23T11:38:40Z</time>
      </trkpt>
      <trkpt lat="42.54498" lon="0.16117">
        <ele>654.7</ele>
        <time>2016-07-23T11:38:41Z</time>
      </trkpt>
      <trkpt lat="42.54493" lon="0.16117">
        <ele>654.4</ele>
        <time>2016-07-23T11:38:42Z</time>
      </trkpt>
      <trkpt lat="42.54487" lon="0.16118">
        <ele>654.2</ele>
        <time>2016-07-23T11:38:43Z</time>
      </trkpt>
      <trkpt lat="42.54481" lon="0.16118">
        <ele>653.9</ele>
        <time>2016-07-23T11:38:44Z</time>
      </trkpt>
      <trkpt lat="42.54476" lon="0.16119">
        <ele>653.7</ele>
        <time>2016-07-23T11:38:45Z</time>
      </trkpt>
      <trkpt lat="42.5447" lon="0.1612">
        <ele>653.5</ele>
        <time>2016-07-23T11:38:46Z</time>
      </trkpt>
      <trkpt lat="42.54465" lon="0.16121">
        <ele>653.3</ele>
        <time>2016-07-23T11:38:47Z</time>
      </trkpt>
      <trkpt lat="42.5446" lon="0.16122">
        <ele>653</ele>
        <time>2016-07-23T11:38:48Z</time>
      </trkpt>
      <trkpt lat="42.54455" lon="0.16122">
        <ele>653</ele>
        <time>2016-07-23T11:38:49Z</time>
      </trkpt>
      <trkpt lat="42.54451" lon="0.16123">
        <ele>653.1</ele>
        <time>2016-07-23T11:38:50Z</time>
      </trkpt>
      <trkpt lat="42.54446" lon="0.16123">
        <ele>653.2</ele>
        <time>2016-07-23T11:38:51Z</time>
      </trkpt>
      <trkpt lat="42.54442" lon="0.16123">
        <ele>653.3</ele>
        <time>2016-07-23T11:38:52Z</time>
      </trkpt>
      <trkpt lat="42.54438" lon="0.16123">
        <ele>653.4</ele>
        <time>2016-07-23T11:38:53Z</time>
      </trkpt>
      <trkpt lat="42.54433" lon="0.16122">
        <ele>653.5</ele>
        <time>2016-07-23T11:38:54Z</time>
      </trkpt>
      <trkpt lat="42.54427" lon="0.16121">
        <ele>653.6</ele>
        <time>2016-07-23T11:38:55Z</time>
      </trkpt>
      <trkpt lat="42.54422" lon="0.16119">
        <ele>653.7</ele>
        <time>2016-07-23T11:38:56Z</time>
      </trkpt>
      <trkpt lat="42.54416" lon="0.16116">
        <ele>653.7</ele>
        <time>2016-07-23T11:38:57Z</time>
      </trkpt>
      <trkpt lat="42.54411" lon="0.16113">
        <ele>653.7</ele>
        <time>2016-07-23T11:38:58Z</time>
      </trkpt>
      <trkpt lat="42.54406" lon="0.16111">
        <ele>653.6</ele>
        <time>2016-07-23T11:38:59Z</time>
      </trkpt>
      <trkpt lat="42.54402" lon="0.16109">
        <ele>653.6</ele>
        <time>2016-07-23T11:39:00Z</time>
      </trkpt>
      <trkpt lat="42.54398" lon="0.16109">
        <ele>653.7</ele>
        <time>2016-07-23T11:39:01Z</time>
      </trkpt>
      <trkpt lat="42.54393" lon="0.16109">
        <ele>653.8</ele>
        <time>2016-07-23T11:39:02Z</time>
      </trkpt>
      <trkpt lat="42.54389" lon="0.16109">
        <ele>653.8</ele>
        <time>2016-07-23T11:39:03Z</time>
      </trkpt>
      <trkpt lat="42.54385" lon="0.16109">
        <ele>653.9</ele>
        <time>2016-07-23T11:39:04Z</time>
      </trkpt>
      <trkpt lat="42.5438" lon="0.16108">
        <ele>653.9</ele>
        <time>2016-07-23T11:39:05Z</time>
      </trkpt>
      <trkpt lat="42.54376" lon="0.16105">
        <ele>653.8</ele>
        <time>2016-07-23T11:39:06Z</time>
      </trkpt>
      <trkpt lat="42.54372" lon="0.16102">
        <ele>653.8</ele>
        <time>2016-07-23T11:39:07Z</time>
      </trkpt>
      <trkpt lat="42.54367" lon="0.16099">
        <ele>653.7</ele>
        <time>2016-07-23T11:39:08Z</time>
      </trkpt>
      <trkpt lat="42.54362" lon="0.16097">
        <ele>653.8</ele>
        <time>2016-07-23T11:39:09Z</time>
      </trkpt>
      <trkpt lat="42.54356" lon="0.16096">
        <ele>653.9</ele>
        <time>2016-07-23T11:39:10Z</time>
      </trkpt>
      <trkpt lat="42.5435" lon="0.16095">
        <ele>654</ele>
        <time>2016-07-23T11:39:11Z</time>
      </trkpt>
      <trkpt lat="42.54345" lon="0.16094">
        <ele>654.1</ele>
        <time>2016-07-23T11:39:12Z</time>
      </trkpt>
      <trkpt lat="42.5434" lon="0.16092">
        <ele>654.1</ele>
        <time>2016-07-23T11:39:13Z</time>
      </trkpt>
      <trkpt lat="42.54334" lon="0.16091">
        <ele>654.1</ele>
        <time>2016-07-23T11:39:14Z</time>
      </trkpt>
      <trkpt lat="42.54329" lon="0.1609">
        <ele>654.1</ele>
        <time>2016-07-23T11:39:15Z</time>
      </trkpt>
      <trkpt lat="42.54324" lon="0.16091">
        <ele>654.4</ele>
        <time>2016-07-23T11:39:16Z</time>
      </trkpt>
      <trkpt lat="42.5432" lon="0.16093">
        <ele>654.8</ele>
        <time>2016-07-23T11:39:17Z</time>
      </trkpt>
      <trkpt lat="42.54318" lon="0.16097">
        <ele>655.4</ele>
        <time>2016-07-23T11:39:18Z</time>
      </trkpt>
      <trkpt lat="42.54317" lon="0.16101">
        <ele>655.9</ele>
        <time>2016-07-23T11:39:19Z</time>
      </trkpt>
      <trkpt lat="42.54316" lon="0.16105">
        <ele>656.5</ele>
        <time>2016-07-23T11:39:21Z</time>
      </trkpt>
      <trkpt lat="42.54315" lon="0.16101">
        <ele>656</ele>
        <time>2016-07-23T11:39:44Z</time>
      </trkpt>
      <trkpt lat="42.54313" lon="0.16098">
        <ele>655.7</ele>
        <time>2016-07-23T11:39:47Z</time>
      </trkpt>
      <trkpt lat="42.5431" lon="0.16095">
        <ele>655.3</ele>
        <time>2016-07-23T11:39:50Z</time>
      </trkpt>
      <trkpt lat="42.54305" lon="0.16093">
        <ele>655.1</ele>
        <time>2016-07-23T11:39:52Z</time>
      </trkpt>
      <trkpt lat="42.543" lon="0.1609">
        <ele>654.9</ele>
        <time>2016-07-23T11:39:54Z</time>
      </trkpt>
      <trkpt lat="42.54297" lon="0.16089">
        <ele>654.8</ele>
        <time>2016-07-23T11:39:55Z</time>
      </trkpt>
      <trkpt lat="42.54294" lon="0.16087">
        <ele>654.6</ele>
        <time>2016-07-23T11:39:56Z</time>
      </trkpt>
      <trkpt lat="42.54291" lon="0.16086">
        <ele>654.7</ele>
        <time>2016-07-23T11:39:57Z</time>
      </trkpt>
      <trkpt lat="42.54287" lon="0.16084">
        <ele>655.1</ele>
        <time>2016-07-23T11:39:58Z</time>
      </trkpt>
      <trkpt lat="42.54283" lon="0.16082">
        <ele>655.6</ele>
        <time>2016-07-23T11:39:59Z</time>
      </trkpt>
      <trkpt lat="42.54279" lon="0.16079">
        <ele>655.8</ele>
        <time>2016-07-23T11:40:00Z</time>
      </trkpt>
      <trkpt lat="42.54275" lon="0.16076">
        <ele>655.7</ele>
        <time>2016-07-23T11:40:01Z</time>
      </trkpt>
      <trkpt lat="42.54271" lon="0.16072">
        <ele>655.5</ele>
        <time>2016-07-23T11:40:02Z</time>
      </trkpt>
      <trkpt lat="42.54266" lon="0.16068">
        <ele>655.4</ele>
        <time>2016-07-23T11:40:03Z</time>
      </trkpt>
      <trkpt lat="42.54261" lon="0.16065">
        <ele>655.3</ele>
        <time>2016-07-23T11:40:04Z</time>
      </trkpt>
      <trkpt lat="42.54256" lon="0.16062">
        <ele>655.3</ele>
        <time>2016-07-23T11:40:05Z</time>
      </trkpt>
      <trkpt lat="42.54251" lon="0.1606">
        <ele>655.2</ele>
        <time>2016-07-23T11:40:06Z</time>
      </trkpt>
      <trkpt lat="42.54246" lon="0.16058">
        <ele>655.3</ele>
        <time>2016-07-23T11:40:07Z</time>
      </trkpt>
      <trkpt lat="42.54241" lon="0.16057">
        <ele>655.2</ele>
        <time>2016-07-23T11:40:08Z</time>
      </trkpt>
      <trkpt lat="42.54236" lon="0.16055">
        <ele>655.1</ele>
        <time>2016-07-23T11:40:09Z</time>
      </trkpt>
      <trkpt lat="42.54232" lon="0.16053">
        <ele>654.9</ele>
        <time>2016-07-23T11:40:10Z</time>
      </trkpt>
      <trkpt lat="42.54228" lon="0.16051">
        <ele>654.4</ele>
        <time>2016-07-23T11:40:11Z</time>
      </trkpt>
      <trkpt lat="42.54224" lon="0.16048">
        <ele>653.8</ele>
        <time>2016-07-23T11:40:12Z</time>
      </trkpt>
      <trkpt lat="42.5422" lon="0.16046">
        <ele>653.1</ele>
        <time>2016-07-23T11:40:13Z</time>
      </trkpt>
      <trkpt lat="42.54216" lon="0.16044">
        <ele>652.5</ele>
        <time>2016-07-23T11:40:14Z</time>
      </trkpt>
      <trkpt lat="42.54212" lon="0.16042">
        <ele>652</ele>
        <time>2016-07-23T11:40:15Z</time>
      </trkpt>
      <trkpt lat="42.54207" lon="0.16041">
        <ele>652.1</ele>
        <time>2016-07-23T11:40:16Z</time>
      </trkpt>
      <trkpt lat="42.54202" lon="0.16039">
        <ele>652.3</ele>
        <time>2016-07-23T11:40:17Z</time>
      </trkpt>
      <trkpt lat="42.54198" lon="0.16037">
        <ele>652.5</ele>
        <time>2016-07-23T11:40:18Z</time>
      </trkpt>
      <trkpt lat="42.54193" lon="0.16037">
        <ele>652.7</ele>
        <time>2016-07-23T11:40:19Z</time>
      </trkpt>
      <trkpt lat="42.54189" lon="0.16036">
        <ele>652.9</ele>
        <time>2016-07-23T11:40:20Z</time>
      </trkpt>
      <trkpt lat="42.54185" lon="0.16035">
        <ele>653.1</ele>
        <time>2016-07-23T11:40:21Z</time>
      </trkpt>
      <trkpt lat="42.54182" lon="0.16035">
        <ele>653.3</ele>
        <time>2016-07-23T11:40:22Z</time>
      </trkpt>
      <trkpt lat="42.54178" lon="0.16034">
        <ele>653.4</ele>
        <time>2016-07-23T11:40:23Z</time>
      </trkpt>
      <trkpt lat="42.54175" lon="0.16033">
        <ele>653.5</ele>
        <time>2016-07-23T11:40:24Z</time>
      </trkpt>
      <trkpt lat="42.54172" lon="0.16033">
        <ele>653.6</ele>
        <time>2016-07-23T11:40:25Z</time>
      </trkpt>
      <trkpt lat="42.54169" lon="0.16033">
        <ele>653.8</ele>
        <time>2016-07-23T11:40:26Z</time>
      </trkpt>
      <trkpt lat="42.54166" lon="0.16033">
        <ele>653.9</ele>
        <time>2016-07-23T11:40:27Z</time>
      </trkpt>
      <trkpt lat="42.54163" lon="0.16032">
        <ele>654</ele>
        <time>2016-07-23T11:40:28Z</time>
      </trkpt>
      <trkpt lat="42.54159" lon="0.16031">
        <ele>654.1</ele>
        <time>2016-07-23T11:40:29Z</time>
      </trkpt>
      <trkpt lat="42.54156" lon="0.1603">
        <ele>654.1</ele>
        <time>2016-07-23T11:40:30Z</time>
      </trkpt>
      <trkpt lat="42.54153" lon="0.16028">
        <ele>654.1</ele>
        <time>2016-07-23T11:40:31Z</time>
      </trkpt>
      <trkpt lat="42.5415" lon="0.16027">
        <ele>654.1</ele>
        <time>2016-07-23T11:40:32Z</time>
      </trkpt>
      <trkpt lat="42.54147" lon="0.16025">
        <ele>654.1</ele>
        <time>2016-07-23T11:40:33Z</time>
      </trkpt>
      <trkpt lat="42.54143" lon="0.16024">
        <ele>654.1</ele>
        <time>2016-07-23T11:40:34Z</time>
      </trkpt>
      <trkpt lat="42.54139" lon="0.16023">
        <ele>654.1</ele>
        <time>2016-07-23T11:40:35Z</time>
      </trkpt>
      <trkpt lat="42.54135" lon="0.16022">
        <ele>654.1</ele>
        <time>2016-07-23T11:40:36Z</time>
      </trkpt>
      <trkpt lat="42.54131" lon="0.16021">
        <ele>654</ele>
        <time>2016-07-23T11:40:37Z</time>
      </trkpt>
      <trkpt lat="42.54129" lon="0.16019">
        <ele>653.9</ele>
        <time>2016-07-23T11:40:38Z</time>
      </trkpt>
      <trkpt lat="42.54125" lon="0.16018">
        <ele>653.8</ele>
        <time>2016-07-23T11:40:40Z</time>
      </trkpt>
      <trkpt lat="42.54129" lon="0.16015">
        <ele>653.4</ele>
        <time>2016-07-23T11:41:12Z</time>
      </trkpt>
      <trkpt lat="42.54127" lon="0.16011">
        <ele>653</ele>
        <time>2016-07-23T11:41:15Z</time>
      </trkpt>
      <trkpt lat="42.54122" lon="0.1601">
        <ele>653.4</ele>
        <time>2016-07-23T11:41:17Z</time>
      </trkpt>
      <trkpt lat="42.54118" lon="0.16009">
        <ele>654</ele>
        <time>2016-07-23T11:41:18Z</time>
      </trkpt>
      <trkpt lat="42.54113" lon="0.16008">
        <ele>654.6</ele>
        <time>2016-07-23T11:41:19Z</time>
      </trkpt>
      <trkpt lat="42.54108" lon="0.16006">
        <ele>655.1</ele>
        <time>2016-07-23T11:41:20Z</time>
      </trkpt>
      <trkpt lat="42.54104" lon="0.16004">
        <ele>655.5</ele>
        <time>2016-07-23T11:41:21Z</time>
      </trkpt>
      <trkpt lat="42.54099" lon="0.16002">
        <ele>656</ele>
        <time>2016-07-23T11:41:22Z</time>
      </trkpt>
      <trkpt lat="42.54091" lon="0.16001">
        <ele>656.9</ele>
        <time>2016-07-23T11:41:23Z</time>
      </trkpt>
      <trkpt lat="42.54087" lon="0.15997">
        <ele>656.8</ele>
        <time>2016-07-23T11:41:24Z</time>
      </trkpt>
      <trkpt lat="42.54082" lon="0.15993">
        <ele>656.7</ele>
        <time>2016-07-23T11:41:25Z</time>
      </trkpt>
      <trkpt lat="42.54077" lon="0.15991">
        <ele>656.8</ele>
        <time>2016-07-23T11:41:26Z</time>
      </trkpt>
      <trkpt lat="42.54072" lon="0.15988">
        <ele>656.8</ele>
        <time>2016-07-23T11:41:27Z</time>
      </trkpt>
      <trkpt lat="42.54068" lon="0.15985">
        <ele>656.4</ele>
        <time>2016-07-23T11:41:28Z</time>
      </trkpt>
      <trkpt lat="42.54065" lon="0.15983">
        <ele>656.2</ele>
        <time>2016-07-23T11:41:29Z</time>
      </trkpt>
      <trkpt lat="42.54062" lon="0.15981">
        <ele>656.1</ele>
        <time>2016-07-23T11:41:30Z</time>
      </trkpt>
      <trkpt lat="42.54058" lon="0.15981">
        <ele>656.4</ele>
        <time>2016-07-23T11:41:31Z</time>
      </trkpt>
      <trkpt lat="42.54055" lon="0.15981">
        <ele>656.8</ele>
        <time>2016-07-23T11:41:32Z</time>
      </trkpt>
      <trkpt lat="42.54052" lon="0.15982">
        <ele>657.6</ele>
        <time>2016-07-23T11:41:33Z</time>
      </trkpt>
      <trkpt lat="42.5405" lon="0.15986">
        <ele>658.9</ele>
        <time>2016-07-23T11:41:35Z</time>
      </trkpt>
      <trkpt lat="42.54047" lon="0.15985">
        <ele>658.9</ele>
        <time>2016-07-23T11:41:55Z</time>
      </trkpt>
      <trkpt lat="42.54044" lon="0.15983">
        <ele>658.8</ele>
        <time>2016-07-23T11:42:01Z</time>
      </trkpt>
      <trkpt lat="42.54041" lon="0.15981">
        <ele>658.5</ele>
        <time>2016-07-23T11:42:04Z</time>
      </trkpt>
      <trkpt lat="42.54038" lon="0.15981">
        <ele>659</ele>
        <time>2016-07-23T11:42:06Z</time>
      </trkpt>
      <trkpt lat="42.54034" lon="0.1598">
        <ele>659.8</ele>
        <time>2016-07-23T11:42:09Z</time>
      </trkpt>
      <trkpt lat="42.54029" lon="0.1598">
        <ele>660.7</ele>
        <time>2016-07-23T11:42:11Z</time>
      </trkpt>
      <trkpt lat="42.54023" lon="0.15979">
        <ele>661.4</ele>
        <time>2016-07-23T11:42:13Z</time>
      </trkpt>
      <trkpt lat="42.54018" lon="0.15978">
        <ele>662.2</ele>
        <time>2016-07-23T11:42:15Z</time>
      </trkpt>
      <trkpt lat="42.54013" lon="0.15978">
        <ele>663.3</ele>
        <time>2016-07-23T11:42:17Z</time>
      </trkpt>
      <trkpt lat="42.5401" lon="0.15978">
        <ele>663.9</ele>
        <time>2016-07-23T11:42:18Z</time>
      </trkpt>
      <trkpt lat="42.54005" lon="0.15977">
        <ele>664.8</ele>
        <time>2016-07-23T11:42:20Z</time>
      </trkpt>
      <trkpt lat="42.54" lon="0.15976">
        <ele>665.5</ele>
        <time>2016-07-23T11:42:22Z</time>
      </trkpt>
      <trkpt lat="42.53996" lon="0.15975">
        <ele>666</ele>
        <time>2016-07-23T11:42:24Z</time>
      </trkpt>
      <trkpt lat="42.53992" lon="0.15974">
        <ele>666.4</ele>
        <time>2016-07-23T11:42:26Z</time>
      </trkpt>
      <trkpt lat="42.53988" lon="0.15974">
        <ele>667.1</ele>
        <time>2016-07-23T11:42:28Z</time>
      </trkpt>
      <trkpt lat="42.53985" lon="0.15973">
        <ele>667.4</ele>
        <time>2016-07-23T11:42:29Z</time>
      </trkpt>
      <trkpt lat="42.53981" lon="0.15972">
        <ele>667.7</ele>
        <time>2016-07-23T11:42:30Z</time>
      </trkpt>
      <trkpt lat="42.53978" lon="0.15971">
        <ele>667.9</ele>
        <time>2016-07-23T11:42:31Z</time>
      </trkpt>
      <trkpt lat="42.53975" lon="0.1597">
        <ele>668.4</ele>
        <time>2016-07-23T11:42:33Z</time>
      </trkpt>
      <trkpt lat="42.53974" lon="0.15967">
        <ele>667.2</ele>
        <time>2016-07-23T11:42:40Z</time>
      </trkpt>
      <trkpt lat="42.53974" lon="0.15971">
        <ele>668.8</ele>
        <time>2016-07-23T11:42:54Z</time>
      </trkpt>
      <trkpt lat="42.53971" lon="0.15973">
        <ele>670.2</ele>
        <time>2016-07-23T11:42:59Z</time>
      </trkpt>
      <trkpt lat="42.53968" lon="0.15972">
        <ele>670.6</ele>
        <time>2016-07-23T11:43:03Z</time>
      </trkpt>
      <trkpt lat="42.53965" lon="0.15972">
        <ele>671</ele>
        <time>2016-07-23T11:43:07Z</time>
      </trkpt>
      <trkpt lat="42.53962" lon="0.15971">
        <ele>671.3</ele>
        <time>2016-07-23T11:43:09Z</time>
      </trkpt>
      <trkpt lat="42.53959" lon="0.15969">
        <ele>671.2</ele>
        <time>2016-07-23T11:43:11Z</time>
      </trkpt>
      <trkpt lat="42.53955" lon="0.15967">
        <ele>671.2</ele>
        <time>2016-07-23T11:43:13Z</time>
      </trkpt>
      <trkpt lat="42.53951" lon="0.15965">
        <ele>671</ele>
        <time>2016-07-23T11:43:15Z</time>
      </trkpt>
      <trkpt lat="42.53948" lon="0.15963">
        <ele>670.8</ele>
        <time>2016-07-23T11:43:17Z</time>
      </trkpt>
      <trkpt lat="42.53945" lon="0.15961">
        <ele>670.8</ele>
        <time>2016-07-23T11:43:19Z</time>
      </trkpt>
      <trkpt lat="42.53941" lon="0.1596">
        <ele>670.9</ele>
        <time>2016-07-23T11:43:21Z</time>
      </trkpt>
      <trkpt lat="42.53937" lon="0.15957">
        <ele>670.7</ele>
        <time>2016-07-23T11:43:23Z</time>
      </trkpt>
      <trkpt lat="42.53933" lon="0.15952">
        <ele>670.2</ele>
        <time>2016-07-23T11:43:25Z</time>
      </trkpt>
      <trkpt lat="42.53931" lon="0.15949">
        <ele>670</ele>
        <time>2016-07-23T11:43:26Z</time>
      </trkpt>
      <trkpt lat="42.53929" lon="0.15947">
        <ele>669.9</ele>
        <time>2016-07-23T11:43:27Z</time>
      </trkpt>
      <trkpt lat="42.53926" lon="0.15945">
        <ele>669.8</ele>
        <time>2016-07-23T11:43:28Z</time>
      </trkpt>
      <trkpt lat="42.53924" lon="0.15942">
        <ele>669.6</ele>
        <time>2016-07-23T11:43:29Z</time>
      </trkpt>
      <trkpt lat="42.53921" lon="0.1594">
        <ele>669.4</ele>
        <time>2016-07-23T11:43:30Z</time>
      </trkpt>
      <trkpt lat="42.53918" lon="0.15938">
        <ele>669.3</ele>
        <time>2016-07-23T11:43:31Z</time>
      </trkpt>
      <trkpt lat="42.53915" lon="0.15935">
        <ele>669.2</ele>
        <time>2016-07-23T11:43:32Z</time>
      </trkpt>
      <trkpt lat="42.53911" lon="0.15933">
        <ele>669.1</ele>
        <time>2016-07-23T11:43:33Z</time>
      </trkpt>
      <trkpt lat="42.53908" lon="0.1593">
        <ele>668.9</ele>
        <time>2016-07-23T11:43:34Z</time>
      </trkpt>
      <trkpt lat="42.53904" lon="0.15927">
        <ele>668.7</ele>
        <time>2016-07-23T11:43:35Z</time>
      </trkpt>
      <trkpt lat="42.539" lon="0.15925">
        <ele>668.5</ele>
        <time>2016-07-23T11:43:36Z</time>
      </trkpt>
      <trkpt lat="42.53896" lon="0.15922">
        <ele>668.3</ele>
        <time>2016-07-23T11:43:37Z</time>
      </trkpt>
      <trkpt lat="42.53891" lon="0.15918">
        <ele>667.8</ele>
        <time>2016-07-23T11:43:38Z</time>
      </trkpt>
      <trkpt lat="42.53887" lon="0.15914">
        <ele>667.2</ele>
        <time>2016-07-23T11:43:39Z</time>
      </trkpt>
      <trkpt lat="42.53883" lon="0.1591">
        <ele>666.5</ele>
        <time>2016-07-23T11:43:40Z</time>
      </trkpt>
      <trkpt lat="42.53878" lon="0.15906">
        <ele>665.8</ele>
        <time>2016-07-23T11:43:41Z</time>
      </trkpt>
      <trkpt lat="42.53874" lon="0.15903">
        <ele>664.9</ele>
        <time>2016-07-23T11:43:42Z</time>
      </trkpt>
      <trkpt lat="42.5387" lon="0.15899">
        <ele>663.5</ele>
        <time>2016-07-23T11:43:43Z</time>
      </trkpt>
      <trkpt lat="42.53866" lon="0.15897">
        <ele>662.3</ele>
        <time>2016-07-23T11:43:44Z</time>
      </trkpt>
      <trkpt lat="42.53863" lon="0.15893">
        <ele>661.1</ele>
        <time>2016-07-23T11:43:46Z</time>
      </trkpt>
      <trkpt lat="42.53862" lon="0.1589">
        <ele>659.9</ele>
        <time>2016-07-23T11:43:48Z</time>
      </trkpt>
      <trkpt lat="42.53861" lon="0.15886">
        <ele>658.6</ele>
        <time>2016-07-23T11:43:49Z</time>
      </trkpt>
      <trkpt lat="42.53857" lon="0.15881">
        <ele>656.8</ele>
        <time>2016-07-23T11:43:50Z</time>
      </trkpt>
      <trkpt lat="42.53853" lon="0.15876">
        <ele>655</ele>
        <time>2016-07-23T11:43:51Z</time>
      </trkpt>
      <trkpt lat="42.53849" lon="0.15872">
        <ele>654.9</ele>
        <time>2016-07-23T11:43:52Z</time>
      </trkpt>
      <trkpt lat="42.53843" lon="0.15867">
        <ele>655.2</ele>
        <time>2016-07-23T11:43:53Z</time>
      </trkpt>
      <trkpt lat="42.53838" lon="0.15863">
        <ele>655.4</ele>
        <time>2016-07-23T11:43:54Z</time>
      </trkpt>
      <trkpt lat="42.53832" lon="0.1586">
        <ele>655.6</ele>
        <time>2016-07-23T11:43:55Z</time>
      </trkpt>
      <trkpt lat="42.53827" lon="0.15857">
        <ele>655.8</ele>
        <time>2016-07-23T11:43:56Z</time>
      </trkpt>
      <trkpt lat="42.53822" lon="0.15855">
        <ele>655.8</ele>
        <time>2016-07-23T11:43:57Z</time>
      </trkpt>
      <trkpt lat="42.53815" lon="0.15853">
        <ele>655.7</ele>
        <time>2016-07-23T11:43:58Z</time>
      </trkpt>
      <trkpt lat="42.5381" lon="0.15852">
        <ele>655.5</ele>
        <time>2016-07-23T11:43:59Z</time>
      </trkpt>
      <trkpt lat="42.53805" lon="0.15852">
        <ele>655.4</ele>
        <time>2016-07-23T11:44:00Z</time>
      </trkpt>
      <trkpt lat="42.538" lon="0.15851">
        <ele>655.3</ele>
        <time>2016-07-23T11:44:01Z</time>
      </trkpt>
      <trkpt lat="42.53796" lon="0.1585">
        <ele>655.1</ele>
        <time>2016-07-23T11:44:02Z</time>
      </trkpt>
      <trkpt lat="42.53791" lon="0.1585">
        <ele>654.9</ele>
        <time>2016-07-23T11:44:03Z</time>
      </trkpt>
      <trkpt lat="42.53786" lon="0.1585">
        <ele>654.5</ele>
        <time>2016-07-23T11:44:04Z</time>
      </trkpt>
      <trkpt lat="42.53781" lon="0.15851">
        <ele>654.1</ele>
        <time>2016-07-23T11:44:05Z</time>
      </trkpt>
      <trkpt lat="42.53776" lon="0.15852">
        <ele>653.7</ele>
        <time>2016-07-23T11:44:06Z</time>
      </trkpt>
      <trkpt lat="42.5377" lon="0.15853">
        <ele>653.1</ele>
        <time>2016-07-23T11:44:07Z</time>
      </trkpt>
      <trkpt lat="42.53764" lon="0.15854">
        <ele>652.5</ele>
        <time>2016-07-23T11:44:08Z</time>
      </trkpt>
      <trkpt lat="42.53758" lon="0.15855">
        <ele>652</ele>
        <time>2016-07-23T11:44:09Z</time>
      </trkpt>
      <trkpt lat="42.53753" lon="0.15856">
        <ele>651.5</ele>
        <time>2016-07-23T11:44:10Z</time>
      </trkpt>
      <trkpt lat="42.53748" lon="0.15857">
        <ele>651</ele>
        <time>2016-07-23T11:44:11Z</time>
      </trkpt>
      <trkpt lat="42.53744" lon="0.15859">
        <ele>650.4</ele>
        <time>2016-07-23T11:44:12Z</time>
      </trkpt>
      <trkpt lat="42.53739" lon="0.15861">
        <ele>649.8</ele>
        <time>2016-07-23T11:44:13Z</time>
      </trkpt>
      <trkpt lat="42.53735" lon="0.15862">
        <ele>649.2</ele>
        <time>2016-07-23T11:44:14Z</time>
      </trkpt>
      <trkpt lat="42.5373" lon="0.15862">
        <ele>648.9</ele>
        <time>2016-07-23T11:44:15Z</time>
      </trkpt>
      <trkpt lat="42.53725" lon="0.15862">
        <ele>648.6</ele>
        <time>2016-07-23T11:44:16Z</time>
      </trkpt>
      <trkpt lat="42.5372" lon="0.15862">
        <ele>648.3</ele>
        <time>2016-07-23T11:44:17Z</time>
      </trkpt>
      <trkpt lat="42.53714" lon="0.15862">
        <ele>647.9</ele>
        <time>2016-07-23T11:44:18Z</time>
      </trkpt>
      <trkpt lat="42.53708" lon="0.15862">
        <ele>647.5</ele>
        <time>2016-07-23T11:44:19Z</time>
      </trkpt>
      <trkpt lat="42.53703" lon="0.15863">
        <ele>647.2</ele>
        <time>2016-07-23T11:44:20Z</time>
      </trkpt>
      <trkpt lat="42.53697" lon="0.15865">
        <ele>646.8</ele>
        <time>2016-07-23T11:44:21Z</time>
      </trkpt>
      <trkpt lat="42.53692" lon="0.15867">
        <ele>646.3</ele>
        <time>2016-07-23T11:44:22Z</time>
      </trkpt>
      <trkpt lat="42.53686" lon="0.15869">
        <ele>645.9</ele>
        <time>2016-07-23T11:44:23Z</time>
      </trkpt>
      <trkpt lat="42.53681" lon="0.15871">
        <ele>645.5</ele>
        <time>2016-07-23T11:44:24Z</time>
      </trkpt>
      <trkpt lat="42.53676" lon="0.15872">
        <ele>645.2</ele>
        <time>2016-07-23T11:44:25Z</time>
      </trkpt>
      <trkpt lat="42.53671" lon="0.15873">
        <ele>645</ele>
        <time>2016-07-23T11:44:26Z</time>
      </trkpt>
      <trkpt lat="42.53666" lon="0.15874">
        <ele>644.7</ele>
        <time>2016-07-23T11:44:27Z</time>
      </trkpt>
      <trkpt lat="42.53661" lon="0.15876">
        <ele>644.6</ele>
        <time>2016-07-23T11:44:28Z</time>
      </trkpt>
      <trkpt lat="42.53656" lon="0.15879">
        <ele>645</ele>
        <time>2016-07-23T11:44:29Z</time>
      </trkpt>
      <trkpt lat="42.53652" lon="0.15881">
        <ele>645.5</ele>
        <time>2016-07-23T11:44:30Z</time>
      </trkpt>
      <trkpt lat="42.53647" lon="0.15885">
        <ele>646.1</ele>
        <time>2016-07-23T11:44:31Z</time>
      </trkpt>
      <trkpt lat="42.53643" lon="0.15888">
        <ele>646.6</ele>
        <time>2016-07-23T11:44:32Z</time>
      </trkpt>
      <trkpt lat="42.53638" lon="0.15891">
        <ele>647.2</ele>
        <time>2016-07-23T11:44:33Z</time>
      </trkpt>
      <trkpt lat="42.53634" lon="0.15895">
        <ele>647.8</ele>
        <time>2016-07-23T11:44:34Z</time>
      </trkpt>
      <trkpt lat="42.53631" lon="0.15898">
        <ele>648.4</ele>
        <time>2016-07-23T11:44:35Z</time>
      </trkpt>
      <trkpt lat="42.53627" lon="0.15901">
        <ele>649</ele>
        <time>2016-07-23T11:44:36Z</time>
      </trkpt>
      <trkpt lat="42.53624" lon="0.15904">
        <ele>649.6</ele>
        <time>2016-07-23T11:44:37Z</time>
      </trkpt>
      <trkpt lat="42.53621" lon="0.15906">
        <ele>650.3</ele>
        <time>2016-07-23T11:44:38Z</time>
      </trkpt>
      <trkpt lat="42.53617" lon="0.15907">
        <ele>651.1</ele>
        <time>2016-07-23T11:44:40Z</time>
      </trkpt>
      <trkpt lat="42.53614" lon="0.15908">
        <ele>651.6</ele>
        <time>2016-07-23T11:44:41Z</time>
      </trkpt>
      <trkpt lat="42.5361" lon="0.15911">
        <ele>652.8</ele>
        <time>2016-07-23T11:44:43Z</time>
      </trkpt>
      <trkpt lat="42.53608" lon="0.15914">
        <ele>653.7</ele>
        <time>2016-07-23T11:44:45Z</time>
      </trkpt>
      <trkpt lat="42.53608" lon="0.15915">
        <ele>653.7</ele>
        <time>2016-07-23T11:44:50Z</time>
      </trkpt>
      <trkpt lat="42.53609" lon="0.15915">
        <ele>653.7</ele>
        <time>2016-07-23T11:44:53Z</time>
      </trkpt>
      <trkpt lat="42.53609" lon="0.15915">
        <ele>653.7</ele>
        <time>2016-07-23T11:46:24Z</time>
      </trkpt>
      <trkpt lat="42.53609" lon="0.15915">
        <ele>653.8</ele>
        <time>2016-07-23T11:46:25Z</time>
      </trkpt>
      <trkpt lat="42.53605" lon="0.15913">
        <ele>653.7</ele>
        <time>2016-07-23T11:46:26Z</time>
      </trkpt>
      <trkpt lat="42.53601" lon="0.15911">
        <ele>653.8</ele>
        <time>2016-07-23T11:46:27Z</time>
      </trkpt>
      <trkpt lat="42.53596" lon="0.1591">
        <ele>653.9</ele>
        <time>2016-07-23T11:46:28Z</time>
      </trkpt>
      <trkpt lat="42.53593" lon="0.15908">
        <ele>653.7</ele>
        <time>2016-07-23T11:46:29Z</time>
      </trkpt>
      <trkpt lat="42.5359" lon="0.15905">
        <ele>653.3</ele>
        <time>2016-07-23T11:46:30Z</time>
      </trkpt>
      <trkpt lat="42.53587" lon="0.15902">
        <ele>652.6</ele>
        <time>2016-07-23T11:46:31Z</time>
      </trkpt>
      <trkpt lat="42.53582" lon="0.15896">
        <ele>651.4</ele>
        <time>2016-07-23T11:46:32Z</time>
      </trkpt>
      <trkpt lat="42.53578" lon="0.15895">
        <ele>651.3</ele>
        <time>2016-07-23T11:46:33Z</time>
      </trkpt>
      <trkpt lat="42.53575" lon="0.15893">
        <ele>650.9</ele>
        <time>2016-07-23T11:46:34Z</time>
      </trkpt>
      <trkpt lat="42.5357" lon="0.15889">
        <ele>650.1</ele>
        <time>2016-07-23T11:46:35Z</time>
      </trkpt>
      <trkpt lat="42.53566" lon="0.15887">
        <ele>649.4</ele>
        <time>2016-07-23T11:46:36Z</time>
      </trkpt>
      <trkpt lat="42.53562" lon="0.15883">
        <ele>648.2</ele>
        <time>2016-07-23T11:46:37Z</time>
      </trkpt>
      <trkpt lat="42.53557" lon="0.1588">
        <ele>647.4</ele>
        <time>2016-07-23T11:46:38Z</time>
      </trkpt>
      <trkpt lat="42.53553" lon="0.15878">
        <ele>647</ele>
        <time>2016-07-23T11:46:39Z</time>
      </trkpt>
      <trkpt lat="42.53548" lon="0.15876">
        <ele>646.3</ele>
        <time>2016-07-23T11:46:40Z</time>
      </trkpt>
      <trkpt lat="42.53544" lon="0.15874">
        <ele>646</ele>
        <time>2016-07-23T11:46:41Z</time>
      </trkpt>
      <trkpt lat="42.53539" lon="0.15872">
        <ele>646.4</ele>
        <time>2016-07-23T11:46:42Z</time>
      </trkpt>
      <trkpt lat="42.53535" lon="0.1587">
        <ele>646.8</ele>
        <time>2016-07-23T11:46:43Z</time>
      </trkpt>
      <trkpt lat="42.53532" lon="0.15867">
        <ele>647.2</ele>
        <time>2016-07-23T11:46:44Z</time>
      </trkpt>
      <trkpt lat="42.53528" lon="0.15865">
        <ele>647.6</ele>
        <time>2016-07-23T11:46:45Z</time>
      </trkpt>
      <trkpt lat="42.53524" lon="0.15863">
        <ele>648</ele>
        <time>2016-07-23T11:46:46Z</time>
      </trkpt>
      <trkpt lat="42.53519" lon="0.15861">
        <ele>648.3</ele>
        <time>2016-07-23T11:46:47Z</time>
      </trkpt>
      <trkpt lat="42.53515" lon="0.15859">
        <ele>648.6</ele>
        <time>2016-07-23T11:46:48Z</time>
      </trkpt>
      <trkpt lat="42.5351" lon="0.15858">
        <ele>649</ele>
        <time>2016-07-23T11:46:49Z</time>
      </trkpt>
      <trkpt lat="42.53504" lon="0.15857">
        <ele>649.3</ele>
        <time>2016-07-23T11:46:50Z</time>
      </trkpt>
      <trkpt lat="42.53498" lon="0.15856">
        <ele>649.7</ele>
        <time>2016-07-23T11:46:51Z</time>
      </trkpt>
      <trkpt lat="42.53492" lon="0.15854">
        <ele>650</ele>
        <time>2016-07-23T11:46:52Z</time>
      </trkpt>
      <trkpt lat="42.53486" lon="0.15851">
        <ele>650.2</ele>
        <time>2016-07-23T11:46:53Z</time>
      </trkpt>
      <trkpt lat="42.53479" lon="0.15847">
        <ele>650.2</ele>
        <time>2016-07-23T11:46:54Z</time>
      </trkpt>
      <trkpt lat="42.53473" lon="0.15844">
        <ele>650.2</ele>
        <time>2016-07-23T11:46:55Z</time>
      </trkpt>
      <trkpt lat="42.53467" lon="0.15841">
        <ele>650.1</ele>
        <time>2016-07-23T11:46:56Z</time>
      </trkpt>
      <trkpt lat="42.53462" lon="0.15835">
        <ele>649.6</ele>
        <time>2016-07-23T11:46:57Z</time>
      </trkpt>
      <trkpt lat="42.53456" lon="0.15832">
        <ele>649.5</ele>
        <time>2016-07-23T11:46:58Z</time>
      </trkpt>
      <trkpt lat="42.53453" lon="0.15832">
        <ele>649.8</ele>
        <time>2016-07-23T11:46:59Z</time>
      </trkpt>
      <trkpt lat="42.53448" lon="0.1583">
        <ele>650</ele>
        <time>2016-07-23T11:47:00Z</time>
      </trkpt>
      <trkpt lat="42.53442" lon="0.15829">
        <ele>650.4</ele>
        <time>2016-07-23T11:47:01Z</time>
      </trkpt>
      <trkpt lat="42.53436" lon="0.15828">
        <ele>650.7</ele>
        <time>2016-07-23T11:47:02Z</time>
      </trkpt>
      <trkpt lat="42.5343" lon="0.15827">
        <ele>651</ele>
        <time>2016-07-23T11:47:03Z</time>
      </trkpt>
      <trkpt lat="42.53426" lon="0.15824">
        <ele>651.1</ele>
        <time>2016-07-23T11:47:04Z</time>
      </trkpt>
      <trkpt lat="42.53422" lon="0.15824">
        <ele>651.4</ele>
        <time>2016-07-23T11:47:05Z</time>
      </trkpt>
      <trkpt lat="42.53418" lon="0.15823">
        <ele>651.7</ele>
        <time>2016-07-23T11:47:06Z</time>
      </trkpt>
      <trkpt lat="42.53413" lon="0.15821">
        <ele>651.8</ele>
        <time>2016-07-23T11:47:07Z</time>
      </trkpt>
      <trkpt lat="42.53407" lon="0.15818">
        <ele>652</ele>
        <time>2016-07-23T11:47:09Z</time>
      </trkpt>
      <trkpt lat="42.53403" lon="0.15815">
        <ele>652</ele>
        <time>2016-07-23T11:47:10Z</time>
      </trkpt>
      <trkpt lat="42.53399" lon="0.15814">
        <ele>652.3</ele>
        <time>2016-07-23T11:47:11Z</time>
      </trkpt>
      <trkpt lat="42.53395" lon="0.15814">
        <ele>652.7</ele>
        <time>2016-07-23T11:47:12Z</time>
      </trkpt>
      <trkpt lat="42.53391" lon="0.15815">
        <ele>653</ele>
        <time>2016-07-23T11:47:13Z</time>
      </trkpt>
      <trkpt lat="42.53388" lon="0.15816">
        <ele>653.5</ele>
        <time>2016-07-23T11:47:14Z</time>
      </trkpt>
      <trkpt lat="42.53383" lon="0.15816">
        <ele>653.9</ele>
        <time>2016-07-23T11:47:15Z</time>
      </trkpt>
      <trkpt lat="42.53379" lon="0.15817">
        <ele>654.4</ele>
        <time>2016-07-23T11:47:16Z</time>
      </trkpt>
      <trkpt lat="42.53375" lon="0.15819">
        <ele>654.9</ele>
        <time>2016-07-23T11:47:17Z</time>
      </trkpt>
      <trkpt lat="42.53371" lon="0.1582">
        <ele>657.4</ele>
        <time>2016-07-23T11:47:18Z</time>
      </trkpt>
      <trkpt lat="42.53368" lon="0.15821">
        <ele>659.5</ele>
        <time>2016-07-23T11:47:19Z</time>
      </trkpt>
      <trkpt lat="42.53365" lon="0.15822">
        <ele>661.6</ele>
        <time>2016-07-23T11:47:20Z</time>
      </trkpt>
      <trkpt lat="42.53362" lon="0.15822">
        <ele>663.3</ele>
        <time>2016-07-23T11:47:21Z</time>
      </trkpt>
      <trkpt lat="42.5336" lon="0.15818">
        <ele>664.2</ele>
        <time>2016-07-23T11:47:25Z</time>
      </trkpt>
      <trkpt lat="42.53357" lon="0.15816">
        <ele>666.1</ele>
        <time>2016-07-23T11:47:27Z</time>
      </trkpt>
      <trkpt lat="42.53353" lon="0.15812">
        <ele>667.8</ele>
        <time>2016-07-23T11:47:29Z</time>
      </trkpt>
      <trkpt lat="42.53354" lon="0.15808">
        <ele>666.8</ele>
        <time>2016-07-23T11:47:31Z</time>
      </trkpt>
      <trkpt lat="42.53357" lon="0.15805">
        <ele>665</ele>
        <time>2016-07-23T11:47:34Z</time>
      </trkpt>
      <trkpt lat="42.53356" lon="0.15801">
        <ele>664.9</ele>
        <time>2016-07-23T11:47:42Z</time>
      </trkpt>
      <trkpt lat="42.53354" lon="0.15796">
        <ele>665.7</ele>
        <time>2016-07-23T11:47:45Z</time>
      </trkpt>
      <trkpt lat="42.53351" lon="0.1579">
        <ele>667</ele>
        <time>2016-07-23T11:47:47Z</time>
      </trkpt>
      <trkpt lat="42.53347" lon="0.15785">
        <ele>668.5</ele>
        <time>2016-07-23T11:47:49Z</time>
      </trkpt>
      <trkpt lat="42.53345" lon="0.15781">
        <ele>669.5</ele>
        <time>2016-07-23T11:47:50Z</time>
      </trkpt>
      <trkpt lat="42.53342" lon="0.15778">
        <ele>670.3</ele>
        <time>2016-07-23T11:47:51Z</time>
      </trkpt>
      <trkpt lat="42.5334" lon="0.15775">
        <ele>670.8</ele>
        <time>2016-07-23T11:47:52Z</time>
      </trkpt>
      <trkpt lat="42.53339" lon="0.15771">
        <ele>671.2</ele>
        <time>2016-07-23T11:47:53Z</time>
      </trkpt>
      <trkpt lat="42.53337" lon="0.15768">
        <ele>671.5</ele>
        <time>2016-07-23T11:47:54Z</time>
      </trkpt>
      <trkpt lat="42.53333" lon="0.15762">
        <ele>672.4</ele>
        <time>2016-07-23T11:47:56Z</time>
      </trkpt>
      <trkpt lat="42.53331" lon="0.15759">
        <ele>673.1</ele>
        <time>2016-07-23T11:47:57Z</time>
      </trkpt>
      <trkpt lat="42.53328" lon="0.15756">
        <ele>674</ele>
        <time>2016-07-23T11:47:58Z</time>
      </trkpt>
      <trkpt lat="42.53326" lon="0.15752">
        <ele>674.7</ele>
        <time>2016-07-23T11:47:59Z</time>
      </trkpt>
      <trkpt lat="42.53324" lon="0.1575">
        <ele>675.3</ele>
        <time>2016-07-23T11:48:00Z</time>
      </trkpt>
      <trkpt lat="42.53321" lon="0.15746">
        <ele>675.6</ele>
        <time>2016-07-23T11:48:02Z</time>
      </trkpt>
      <trkpt lat="42.53319" lon="0.1574">
        <ele>675.4</ele>
        <time>2016-07-23T11:48:05Z</time>
      </trkpt>
      <trkpt lat="42.53317" lon="0.15737">
        <ele>675.7</ele>
        <time>2016-07-23T11:48:06Z</time>
      </trkpt>
      <trkpt lat="42.53315" lon="0.15734">
        <ele>676</ele>
        <time>2016-07-23T11:48:07Z</time>
      </trkpt>
      <trkpt lat="42.53314" lon="0.15731">
        <ele>676.3</ele>
        <time>2016-07-23T11:48:08Z</time>
      </trkpt>
      <trkpt lat="42.53312" lon="0.15728">
        <ele>676.4</ele>
        <time>2016-07-23T11:48:09Z</time>
      </trkpt>
      <trkpt lat="42.5331" lon="0.15725">
        <ele>676.6</ele>
        <time>2016-07-23T11:48:10Z</time>
      </trkpt>
      <trkpt lat="42.53308" lon="0.15721">
        <ele>676.5</ele>
        <time>2016-07-23T11:48:11Z</time>
      </trkpt>
      <trkpt lat="42.53307" lon="0.15717">
        <ele>676.3</ele>
        <time>2016-07-23T11:48:12Z</time>
      </trkpt>
      <trkpt lat="42.53305" lon="0.15713">
        <ele>675.8</ele>
        <time>2016-07-23T11:48:13Z</time>
      </trkpt>
      <trkpt lat="42.53304" lon="0.15708">
        <ele>675</ele>
        <time>2016-07-23T11:48:14Z</time>
      </trkpt>
      <trkpt lat="42.53304" lon="0.15703">
        <ele>673.9</ele>
        <time>2016-07-23T11:48:15Z</time>
      </trkpt>
      <trkpt lat="42.53303" lon="0.15698">
        <ele>672.7</ele>
        <time>2016-07-23T11:48:16Z</time>
      </trkpt>
      <trkpt lat="42.53303" lon="0.15693">
        <ele>671.4</ele>
        <time>2016-07-23T11:48:17Z</time>
      </trkpt>
      <trkpt lat="42.53302" lon="0.15687">
        <ele>670.3</ele>
        <time>2016-07-23T11:48:18Z</time>
      </trkpt>
      <trkpt lat="42.533" lon="0.15682">
        <ele>669.4</ele>
        <time>2016-07-23T11:48:19Z</time>
      </trkpt>
      <trkpt lat="42.53298" lon="0.15677">
        <ele>668.5</ele>
        <time>2016-07-23T11:48:20Z</time>
      </trkpt>
      <trkpt lat="42.53296" lon="0.15672">
        <ele>667.5</ele>
        <time>2016-07-23T11:48:21Z</time>
      </trkpt>
      <trkpt lat="42.53295" lon="0.15667">
        <ele>666.4</ele>
        <time>2016-07-23T11:48:22Z</time>
      </trkpt>
      <trkpt lat="42.53294" lon="0.15661">
        <ele>665.1</ele>
        <time>2016-07-23T11:48:23Z</time>
      </trkpt>
      <trkpt lat="42.53293" lon="0.15656">
        <ele>663.6</ele>
        <time>2016-07-23T11:48:24Z</time>
      </trkpt>
      <trkpt lat="42.53292" lon="0.1565">
        <ele>662.1</ele>
        <time>2016-07-23T11:48:25Z</time>
      </trkpt>
      <trkpt lat="42.53291" lon="0.15646">
        <ele>661</ele>
        <time>2016-07-23T11:48:26Z</time>
      </trkpt>
      <trkpt lat="42.5329" lon="0.15642">
        <ele>660.1</ele>
        <time>2016-07-23T11:48:27Z</time>
      </trkpt>
      <trkpt lat="42.53288" lon="0.15636">
        <ele>658.6</ele>
        <time>2016-07-23T11:48:29Z</time>
      </trkpt>
      <trkpt lat="42.53287" lon="0.15632">
        <ele>657.7</ele>
        <time>2016-07-23T11:48:30Z</time>
      </trkpt>
      <trkpt lat="42.53285" lon="0.15629">
        <ele>656.9</ele>
        <time>2016-07-23T11:48:31Z</time>
      </trkpt>
      <trkpt lat="42.53284" lon="0.15625">
        <ele>656.2</ele>
        <time>2016-07-23T11:48:32Z</time>
      </trkpt>
      <trkpt lat="42.53281" lon="0.15621">
        <ele>656</ele>
        <time>2016-07-23T11:48:33Z</time>
      </trkpt>
      <trkpt lat="42.53279" lon="0.15618">
        <ele>655.7</ele>
        <time>2016-07-23T11:48:34Z</time>
      </trkpt>
      <trkpt lat="42.53277" lon="0.15614">
        <ele>655.5</ele>
        <time>2016-07-23T11:48:35Z</time>
      </trkpt>
      <trkpt lat="42.53275" lon="0.15609">
        <ele>655.1</ele>
        <time>2016-07-23T11:48:36Z</time>
      </trkpt>
      <trkpt lat="42.53273" lon="0.15603">
        <ele>654.5</ele>
        <time>2016-07-23T11:48:37Z</time>
      </trkpt>
      <trkpt lat="42.5327" lon="0.15598">
        <ele>653.9</ele>
        <time>2016-07-23T11:48:38Z</time>
      </trkpt>
      <trkpt lat="42.53267" lon="0.15593">
        <ele>653.6</ele>
        <time>2016-07-23T11:48:39Z</time>
      </trkpt>
      <trkpt lat="42.53264" lon="0.15589">
        <ele>653.4</ele>
        <time>2016-07-23T11:48:40Z</time>
      </trkpt>
      <trkpt lat="42.53262" lon="0.15586">
        <ele>653.3</ele>
        <time>2016-07-23T11:48:41Z</time>
      </trkpt>
      <trkpt lat="42.53259" lon="0.15582">
        <ele>653.2</ele>
        <time>2016-07-23T11:48:42Z</time>
      </trkpt>
      <trkpt lat="42.53257" lon="0.15579">
        <ele>653</ele>
        <time>2016-07-23T11:48:43Z</time>
      </trkpt>
      <trkpt lat="42.53255" lon="0.15576">
        <ele>652.9</ele>
        <time>2016-07-23T11:48:44Z</time>
      </trkpt>
      <trkpt lat="42.53251" lon="0.15573">
        <ele>652.7</ele>
        <time>2016-07-23T11:48:46Z</time>
      </trkpt>
      <trkpt lat="42.53248" lon="0.15568">
        <ele>652.6</ele>
        <time>2016-07-23T11:48:48Z</time>
      </trkpt>
      <trkpt lat="42.53245" lon="0.15566">
        <ele>652.6</ele>
        <time>2016-07-23T11:48:49Z</time>
      </trkpt>
      <trkpt lat="42.53243" lon="0.15564">
        <ele>652.7</ele>
        <time>2016-07-23T11:48:50Z</time>
      </trkpt>
      <trkpt lat="42.53238" lon="0.15562">
        <ele>653.1</ele>
        <time>2016-07-23T11:48:52Z</time>
      </trkpt>
      <trkpt lat="42.53233" lon="0.15559">
        <ele>653.4</ele>
        <time>2016-07-23T11:48:54Z</time>
      </trkpt>
      <trkpt lat="42.53229" lon="0.15558">
        <ele>653.9</ele>
        <time>2016-07-23T11:48:56Z</time>
      </trkpt>
      <trkpt lat="42.53225" lon="0.15559">
        <ele>655.2</ele>
        <time>2016-07-23T11:48:58Z</time>
      </trkpt>
      <trkpt lat="42.5322" lon="0.15563">
        <ele>657.1</ele>
        <time>2016-07-23T11:49:00Z</time>
      </trkpt>
      <trkpt lat="42.53217" lon="0.15567">
        <ele>658.7</ele>
        <time>2016-07-23T11:49:02Z</time>
      </trkpt>
      <trkpt lat="42.53213" lon="0.15569">
        <ele>660.3</ele>
        <time>2016-07-23T11:49:04Z</time>
      </trkpt>
      <trkpt lat="42.53209" lon="0.15571">
        <ele>661.7</ele>
        <time>2016-07-23T11:49:06Z</time>
      </trkpt>
      <trkpt lat="42.53205" lon="0.15572">
        <ele>663.5</ele>
        <time>2016-07-23T11:49:08Z</time>
      </trkpt>
      <trkpt lat="42.532" lon="0.15574">
        <ele>665.5</ele>
        <time>2016-07-23T11:49:10Z</time>
      </trkpt>
      <trkpt lat="42.53196" lon="0.15577">
        <ele>667.7</ele>
        <time>2016-07-23T11:49:12Z</time>
      </trkpt>
      <trkpt lat="42.53191" lon="0.15576">
        <ele>669.1</ele>
        <time>2016-07-23T11:49:14Z</time>
      </trkpt>
      <trkpt lat="42.53193" lon="0.1557">
        <ele>667.3</ele>
        <time>2016-07-23T11:49:22Z</time>
      </trkpt>
      <trkpt lat="42.53194" lon="0.15566">
        <ele>665.9</ele>
        <time>2016-07-23T11:49:24Z</time>
      </trkpt>
      <trkpt lat="42.53195" lon="0.15561">
        <ele>664.4</ele>
        <time>2016-07-23T11:49:26Z</time>
      </trkpt>
      <trkpt lat="42.53195" lon="0.15556">
        <ele>662.9</ele>
        <time>2016-07-23T11:49:28Z</time>
      </trkpt>
      <trkpt lat="42.53194" lon="0.15552">
        <ele>662.3</ele>
        <time>2016-07-23T11:49:30Z</time>
      </trkpt>
      <trkpt lat="42.53192" lon="0.15548">
        <ele>662</ele>
        <time>2016-07-23T11:49:32Z</time>
      </trkpt>
      <trkpt lat="42.53189" lon="0.15544">
        <ele>662.1</ele>
        <time>2016-07-23T11:49:34Z</time>
      </trkpt>
      <trkpt lat="42.53184" lon="0.1554">
        <ele>663.1</ele>
        <time>2016-07-23T11:49:36Z</time>
      </trkpt>
      <trkpt lat="42.5318" lon="0.15536">
        <ele>663.7</ele>
        <time>2016-07-23T11:49:37Z</time>
      </trkpt>
      <trkpt lat="42.53177" lon="0.15532">
        <ele>664.1</ele>
        <time>2016-07-23T11:49:38Z</time>
      </trkpt>
      <trkpt lat="42.53173" lon="0.15529">
        <ele>664.8</ele>
        <time>2016-07-23T11:49:39Z</time>
      </trkpt>
      <trkpt lat="42.53169" lon="0.15525">
        <ele>665.4</ele>
        <time>2016-07-23T11:49:40Z</time>
      </trkpt>
      <trkpt lat="42.53165" lon="0.15522">
        <ele>666.3</ele>
        <time>2016-07-23T11:49:41Z</time>
      </trkpt>
      <trkpt lat="42.5316" lon="0.15518">
        <ele>667.3</ele>
        <time>2016-07-23T11:49:42Z</time>
      </trkpt>
      <trkpt lat="42.53156" lon="0.15516">
        <ele>668.2</ele>
        <time>2016-07-23T11:49:43Z</time>
      </trkpt>
      <trkpt lat="42.53152" lon="0.15514">
        <ele>668.9</ele>
        <time>2016-07-23T11:49:44Z</time>
      </trkpt>
      <trkpt lat="42.53149" lon="0.15511">
        <ele>669.5</ele>
        <time>2016-07-23T11:49:45Z</time>
      </trkpt>
      <trkpt lat="42.53146" lon="0.15507">
        <ele>669.7</ele>
        <time>2016-07-23T11:49:46Z</time>
      </trkpt>
      <trkpt lat="42.53143" lon="0.15504">
        <ele>669.7</ele>
        <time>2016-07-23T11:49:47Z</time>
      </trkpt>
      <trkpt lat="42.5314" lon="0.155">
        <ele>669.9</ele>
        <time>2016-07-23T11:49:48Z</time>
      </trkpt>
      <trkpt lat="42.53136" lon="0.15496">
        <ele>670.1</ele>
        <time>2016-07-23T11:49:49Z</time>
      </trkpt>
      <trkpt lat="42.53132" lon="0.15491">
        <ele>670.2</ele>
        <time>2016-07-23T11:49:50Z</time>
      </trkpt>
      <trkpt lat="42.53129" lon="0.15486">
        <ele>669.8</ele>
        <time>2016-07-23T11:49:51Z</time>
      </trkpt>
      <trkpt lat="42.53126" lon="0.15478">
        <ele>668.9</ele>
        <time>2016-07-23T11:49:52Z</time>
      </trkpt>
      <trkpt lat="42.53124" lon="0.15471">
        <ele>667.5</ele>
        <time>2016-07-23T11:49:53Z</time>
      </trkpt>
      <trkpt lat="42.53121" lon="0.15462">
        <ele>666</ele>
        <time>2016-07-23T11:49:54Z</time>
      </trkpt>
      <trkpt lat="42.53118" lon="0.15454">
        <ele>664.6</ele>
        <time>2016-07-23T11:49:55Z</time>
      </trkpt>
      <trkpt lat="42.53115" lon="0.15446">
        <ele>663.2</ele>
        <time>2016-07-23T11:49:56Z</time>
      </trkpt>
      <trkpt lat="42.53112" lon="0.15439">
        <ele>661.9</ele>
        <time>2016-07-23T11:49:57Z</time>
      </trkpt>
      <trkpt lat="42.5311" lon="0.15431">
        <ele>660.4</ele>
        <time>2016-07-23T11:49:58Z</time>
      </trkpt>
      <trkpt lat="42.53106" lon="0.1542">
        <ele>657.8</ele>
        <time>2016-07-23T11:49:59Z</time>
      </trkpt>
      <trkpt lat="42.53104" lon="0.15414">
        <ele>656.7</ele>
        <time>2016-07-23T11:50:00Z</time>
      </trkpt>
      <trkpt lat="42.53101" lon="0.15409">
        <ele>655.8</ele>
        <time>2016-07-23T11:50:01Z</time>
      </trkpt>
      <trkpt lat="42.53097" lon="0.15402">
        <ele>654.9</ele>
        <time>2016-07-23T11:50:02Z</time>
      </trkpt>
      <trkpt lat="42.53093" lon="0.15396">
        <ele>653.7</ele>
        <time>2016-07-23T11:50:03Z</time>
      </trkpt>
      <trkpt lat="42.53092" lon="0.1539">
        <ele>652.1</ele>
        <time>2016-07-23T11:50:04Z</time>
      </trkpt>
      <trkpt lat="42.53091" lon="0.15384">
        <ele>650.4</ele>
        <time>2016-07-23T11:50:05Z</time>
      </trkpt>
      <trkpt lat="42.53089" lon="0.15379">
        <ele>649.4</ele>
        <time>2016-07-23T11:50:06Z</time>
      </trkpt>
      <trkpt lat="42.53085" lon="0.15374">
        <ele>648.5</ele>
        <time>2016-07-23T11:50:07Z</time>
      </trkpt>
      <trkpt lat="42.53081" lon="0.15368">
        <ele>648.5</ele>
        <time>2016-07-23T11:50:08Z</time>
      </trkpt>
      <trkpt lat="42.53076" lon="0.15363">
        <ele>648.3</ele>
        <time>2016-07-23T11:50:09Z</time>
      </trkpt>
      <trkpt lat="42.53072" lon="0.15355">
        <ele>647.6</ele>
        <time>2016-07-23T11:50:10Z</time>
      </trkpt>
      <trkpt lat="42.53067" lon="0.15347">
        <ele>646.7</ele>
        <time>2016-07-23T11:50:11Z</time>
      </trkpt>
      <trkpt lat="42.5306" lon="0.1534">
        <ele>646.1</ele>
        <time>2016-07-23T11:50:12Z</time>
      </trkpt>
      <trkpt lat="42.53052" lon="0.15335">
        <ele>645.6</ele>
        <time>2016-07-23T11:50:13Z</time>
      </trkpt>
      <trkpt lat="42.53046" lon="0.15331">
        <ele>645.2</ele>
        <time>2016-07-23T11:50:14Z</time>
      </trkpt>
      <trkpt lat="42.53038" lon="0.15328">
        <ele>645.9</ele>
        <time>2016-07-23T11:50:15Z</time>
      </trkpt>
      <trkpt lat="42.5303" lon="0.15323">
        <ele>647.6</ele>
        <time>2016-07-23T11:50:16Z</time>
      </trkpt>
      <trkpt lat="42.53025" lon="0.15322">
        <ele>649</ele>
        <time>2016-07-23T11:50:17Z</time>
      </trkpt>
      <trkpt lat="42.53018" lon="0.15322">
        <ele>651.2</ele>
        <time>2016-07-23T11:50:18Z</time>
      </trkpt>
      <trkpt lat="42.53016" lon="0.15319">
        <ele>651.3</ele>
        <time>2016-07-23T11:50:19Z</time>
      </trkpt>
      <trkpt lat="42.53012" lon="0.15315">
        <ele>652.2</ele>
        <time>2016-07-23T11:50:20Z</time>
      </trkpt>
      <trkpt lat="42.53008" lon="0.15312">
        <ele>653</ele>
        <time>2016-07-23T11:50:21Z</time>
      </trkpt>
      <trkpt lat="42.53004" lon="0.15309">
        <ele>654</ele>
        <time>2016-07-23T11:50:22Z</time>
      </trkpt>
      <trkpt lat="42.52999" lon="0.15304">
        <ele>655.4</ele>
        <time>2016-07-23T11:50:23Z</time>
      </trkpt>
      <trkpt lat="42.52997" lon="0.153">
        <ele>655.4</ele>
        <time>2016-07-23T11:50:24Z</time>
      </trkpt>
      <trkpt lat="42.52992" lon="0.15295">
        <ele>656.8</ele>
        <time>2016-07-23T11:50:25Z</time>
      </trkpt>
      <trkpt lat="42.52985" lon="0.15291">
        <ele>659.1</ele>
        <time>2016-07-23T11:50:26Z</time>
      </trkpt>
      <trkpt lat="42.52978" lon="0.15287">
        <ele>661.6</ele>
        <time>2016-07-23T11:50:27Z</time>
      </trkpt>
      <trkpt lat="42.52974" lon="0.15284">
        <ele>663.5</ele>
        <time>2016-07-23T11:50:28Z</time>
      </trkpt>
      <trkpt lat="42.52971" lon="0.15281">
        <ele>664.5</ele>
        <time>2016-07-23T11:50:29Z</time>
      </trkpt>
      <trkpt lat="42.52965" lon="0.15279">
        <ele>666.7</ele>
        <time>2016-07-23T11:50:30Z</time>
      </trkpt>
      <trkpt lat="42.5296" lon="0.15279">
        <ele>668.8</ele>
        <time>2016-07-23T11:50:31Z</time>
      </trkpt>
      <trkpt lat="42.52954" lon="0.15279">
        <ele>670.9</ele>
        <time>2016-07-23T11:50:32Z</time>
      </trkpt>
      <trkpt lat="42.5295" lon="0.15279">
        <ele>672.2</ele>
        <time>2016-07-23T11:50:33Z</time>
      </trkpt>
      <trkpt lat="42.52946" lon="0.15279">
        <ele>673.6</ele>
        <time>2016-07-23T11:50:34Z</time>
      </trkpt>
      <trkpt lat="42.52944" lon="0.15274">
        <ele>674</ele>
        <time>2016-07-23T11:50:37Z</time>
      </trkpt>
      <trkpt lat="42.52944" lon="0.1527">
        <ele>674</ele>
        <time>2016-07-23T11:50:39Z</time>
      </trkpt>
      <trkpt lat="42.52943" lon="0.15266">
        <ele>674.1</ele>
        <time>2016-07-23T11:50:40Z</time>
      </trkpt>
      <trkpt lat="42.52941" lon="0.15261">
        <ele>674.7</ele>
        <time>2016-07-23T11:50:42Z</time>
      </trkpt>
      <trkpt lat="42.52944" lon="0.1526">
        <ele>673.7</ele>
        <time>2016-07-23T11:50:46Z</time>
      </trkpt>
      <trkpt lat="42.52946" lon="0.15259">
        <ele>672.7</ele>
        <time>2016-07-23T11:50:51Z</time>
      </trkpt>
      <trkpt lat="42.52948" lon="0.15256">
        <ele>671.8</ele>
        <time>2016-07-23T11:51:00Z</time>
      </trkpt>
      <trkpt lat="42.52949" lon="0.15252">
        <ele>671.4</ele>
        <time>2016-07-23T11:51:02Z</time>
      </trkpt>
      <trkpt lat="42.5295" lon="0.15247">
        <ele>670.9</ele>
        <time>2016-07-23T11:51:04Z</time>
      </trkpt>
      <trkpt lat="42.5295" lon="0.15242">
        <ele>670.5</ele>
        <time>2016-07-23T11:51:06Z</time>
      </trkpt>
      <trkpt lat="42.5295" lon="0.15237">
        <ele>670.4</ele>
        <time>2016-07-23T11:51:08Z</time>
      </trkpt>
      <trkpt lat="42.52949" lon="0.15232">
        <ele>670.3</ele>
        <time>2016-07-23T11:51:10Z</time>
      </trkpt>
      <trkpt lat="42.52949" lon="0.15226">
        <ele>670</ele>
        <time>2016-07-23T11:51:12Z</time>
      </trkpt>
      <trkpt lat="42.52949" lon="0.15221">
        <ele>669.8</ele>
        <time>2016-07-23T11:51:14Z</time>
      </trkpt>
      <trkpt lat="42.52949" lon="0.15216">
        <ele>669.8</ele>
        <time>2016-07-23T11:51:16Z</time>
      </trkpt>
      <trkpt lat="42.52947" lon="0.15211">
        <ele>670</ele>
        <time>2016-07-23T11:51:18Z</time>
      </trkpt>
      <trkpt lat="42.52946" lon="0.15206">
        <ele>670.1</ele>
        <time>2016-07-23T11:51:20Z</time>
      </trkpt>
      <trkpt lat="42.52945" lon="0.152">
        <ele>669.6</ele>
        <time>2016-07-23T11:51:22Z</time>
      </trkpt>
      <trkpt lat="42.52944" lon="0.15194">
        <ele>669.2</ele>
        <time>2016-07-23T11:51:24Z</time>
      </trkpt>
      <trkpt lat="42.52943" lon="0.15188">
        <ele>668.7</ele>
        <time>2016-07-23T11:51:26Z</time>
      </trkpt>
      <trkpt lat="42.52943" lon="0.15181">
        <ele>667.9</ele>
        <time>2016-07-23T11:51:28Z</time>
      </trkpt>
      <trkpt lat="42.52943" lon="0.15174">
        <ele>667.3</ele>
        <time>2016-07-23T11:51:30Z</time>
      </trkpt>
      <trkpt lat="42.52942" lon="0.1517">
        <ele>666.8</ele>
        <time>2016-07-23T11:51:32Z</time>
      </trkpt>
      <trkpt lat="42.52941" lon="0.15165">
        <ele>666.7</ele>
        <time>2016-07-23T11:51:36Z</time>
      </trkpt>
      <trkpt lat="42.52944" lon="0.15161">
        <ele>665.2</ele>
        <time>2016-07-23T11:52:37Z</time>
      </trkpt>
      <trkpt lat="42.52946" lon="0.15153">
        <ele>663.5</ele>
        <time>2016-07-23T11:52:39Z</time>
      </trkpt>
      <trkpt lat="42.52948" lon="0.15146">
        <ele>662.1</ele>
        <time>2016-07-23T11:52:40Z</time>
      </trkpt>
      <trkpt lat="42.5295" lon="0.1514">
        <ele>660.7</ele>
        <time>2016-07-23T11:52:41Z</time>
      </trkpt>
      <trkpt lat="42.52951" lon="0.15135">
        <ele>659.6</ele>
        <time>2016-07-23T11:52:42Z</time>
      </trkpt>
      <trkpt lat="42.52952" lon="0.1513">
        <ele>658.8</ele>
        <time>2016-07-23T11:52:43Z</time>
      </trkpt>
      <trkpt lat="42.52952" lon="0.15125">
        <ele>658.1</ele>
        <time>2016-07-23T11:52:44Z</time>
      </trkpt>
      <trkpt lat="42.52953" lon="0.15121">
        <ele>657</ele>
        <time>2016-07-23T11:52:45Z</time>
      </trkpt>
      <trkpt lat="42.52954" lon="0.15116">
        <ele>655.5</ele>
        <time>2016-07-23T11:52:47Z</time>
      </trkpt>
      <trkpt lat="42.52955" lon="0.15113">
        <ele>654.3</ele>
        <time>2016-07-23T11:52:56Z</time>
      </trkpt>
      <trkpt lat="42.52954" lon="0.15109">
        <ele>653.7</ele>
        <time>2016-07-23T11:53:02Z</time>
      </trkpt>
      <trkpt lat="42.52952" lon="0.15105">
        <ele>653.5</ele>
        <time>2016-07-23T11:53:07Z</time>
      </trkpt>
      <trkpt lat="42.52949" lon="0.15105">
        <ele>654.4</ele>
        <time>2016-07-23T11:53:12Z</time>
      </trkpt>
      <trkpt lat="42.52946" lon="0.15104">
        <ele>655.2</ele>
        <time>2016-07-23T11:53:18Z</time>
      </trkpt>
      <trkpt lat="42.52943" lon="0.15101">
        <ele>655.5</ele>
        <time>2016-07-23T11:53:20Z</time>
      </trkpt>
      <trkpt lat="42.5294" lon="0.15099">
        <ele>655.8</ele>
        <time>2016-07-23T11:53:22Z</time>
      </trkpt>
      <trkpt lat="42.52937" lon="0.15097">
        <ele>656.1</ele>
        <time>2016-07-23T11:53:24Z</time>
      </trkpt>
      <trkpt lat="42.52933" lon="0.15094">
        <ele>656.4</ele>
        <time>2016-07-23T11:53:26Z</time>
      </trkpt>
      <trkpt lat="42.5293" lon="0.15091">
        <ele>656.5</ele>
        <time>2016-07-23T11:53:28Z</time>
      </trkpt>
      <trkpt lat="42.52927" lon="0.15087">
        <ele>656.3</ele>
        <time>2016-07-23T11:53:30Z</time>
      </trkpt>
      <trkpt lat="42.52925" lon="0.15084">
        <ele>656.1</ele>
        <time>2016-07-23T11:53:31Z</time>
      </trkpt>
      <trkpt lat="42.52923" lon="0.15081">
        <ele>655.9</ele>
        <time>2016-07-23T11:53:32Z</time>
      </trkpt>
      <trkpt lat="42.52921" lon="0.15078">
        <ele>655.6</ele>
        <time>2016-07-23T11:53:33Z</time>
      </trkpt>
      <trkpt lat="42.52919" lon="0.15074">
        <ele>655.2</ele>
        <time>2016-07-23T11:53:34Z</time>
      </trkpt>
      <trkpt lat="42.52917" lon="0.1507">
        <ele>654.8</ele>
        <time>2016-07-23T11:53:35Z</time>
      </trkpt>
      <trkpt lat="42.52915" lon="0.15067">
        <ele>654.3</ele>
        <time>2016-07-23T11:53:42Z</time>
      </trkpt>
      <trkpt lat="42.52914" lon="0.15063">
        <ele>653.8</ele>
        <time>2016-07-23T11:53:50Z</time>
      </trkpt>
      <trkpt lat="42.52911" lon="0.15061">
        <ele>653.7</ele>
        <time>2016-07-23T11:53:54Z</time>
      </trkpt>
      <trkpt lat="42.52908" lon="0.15059">
        <ele>654</ele>
        <time>2016-07-23T11:53:58Z</time>
      </trkpt>
      <trkpt lat="42.52906" lon="0.15055">
        <ele>653.5</ele>
        <time>2016-07-23T11:54:01Z</time>
      </trkpt>
      <trkpt lat="42.52902" lon="0.15051">
        <ele>653.2</ele>
        <time>2016-07-23T11:54:03Z</time>
      </trkpt>
      <trkpt lat="42.529" lon="0.15049">
        <ele>653.3</ele>
        <time>2016-07-23T11:54:04Z</time>
      </trkpt>
      <trkpt lat="42.52897" lon="0.15047">
        <ele>653.4</ele>
        <time>2016-07-23T11:54:05Z</time>
      </trkpt>
      <trkpt lat="42.52894" lon="0.15046">
        <ele>653.5</ele>
        <time>2016-07-23T11:54:06Z</time>
      </trkpt>
      <trkpt lat="42.52892" lon="0.15044">
        <ele>653.7</ele>
        <time>2016-07-23T11:54:07Z</time>
      </trkpt>
      <trkpt lat="42.52889" lon="0.15042">
        <ele>653.9</ele>
        <time>2016-07-23T11:54:08Z</time>
      </trkpt>
      <trkpt lat="42.52886" lon="0.15041">
        <ele>654.2</ele>
        <time>2016-07-23T11:54:09Z</time>
      </trkpt>
      <trkpt lat="42.52883" lon="0.15039">
        <ele>654.5</ele>
        <time>2016-07-23T11:54:10Z</time>
      </trkpt>
      <trkpt lat="42.5288" lon="0.15037">
        <ele>654.7</ele>
        <time>2016-07-23T11:54:11Z</time>
      </trkpt>
      <trkpt lat="42.52878" lon="0.15036">
        <ele>654.8</ele>
        <time>2016-07-23T11:54:12Z</time>
      </trkpt>
      <trkpt lat="42.52875" lon="0.15034">
        <ele>654.8</ele>
        <time>2016-07-23T11:54:13Z</time>
      </trkpt>
      <trkpt lat="42.52873" lon="0.15031">
        <ele>654.7</ele>
        <time>2016-07-23T11:54:14Z</time>
      </trkpt>
      <trkpt lat="42.52871" lon="0.15028">
        <ele>654.5</ele>
        <time>2016-07-23T11:54:15Z</time>
      </trkpt>
      <trkpt lat="42.52869" lon="0.15025">
        <ele>654.3</ele>
        <time>2016-07-23T11:54:16Z</time>
      </trkpt>
      <trkpt lat="42.52866" lon="0.15021">
        <ele>654.1</ele>
        <time>2016-07-23T11:54:17Z</time>
      </trkpt>
      <trkpt lat="42.52864" lon="0.15018">
        <ele>654.1</ele>
        <time>2016-07-23T11:54:18Z</time>
      </trkpt>
      <trkpt lat="42.52861" lon="0.15015">
        <ele>654.1</ele>
        <time>2016-07-23T11:54:19Z</time>
      </trkpt>
      <trkpt lat="42.52858" lon="0.15011">
        <ele>653.9</ele>
        <time>2016-07-23T11:54:20Z</time>
      </trkpt>
      <trkpt lat="42.52855" lon="0.15007">
        <ele>653.8</ele>
        <time>2016-07-23T11:54:21Z</time>
      </trkpt>
      <trkpt lat="42.52852" lon="0.15002">
        <ele>653.7</ele>
        <time>2016-07-23T11:54:22Z</time>
      </trkpt>
      <trkpt lat="42.52849" lon="0.14998">
        <ele>653.6</ele>
        <time>2016-07-23T11:54:23Z</time>
      </trkpt>
      <trkpt lat="42.52846" lon="0.14995">
        <ele>653.7</ele>
        <time>2016-07-23T11:54:24Z</time>
      </trkpt>
      <trkpt lat="42.52844" lon="0.14991">
        <ele>653.6</ele>
        <time>2016-07-23T11:54:25Z</time>
      </trkpt>
      <trkpt lat="42.52841" lon="0.14987">
        <ele>653.6</ele>
        <time>2016-07-23T11:54:26Z</time>
      </trkpt>
      <trkpt lat="42.52838" lon="0.14984">
        <ele>653.8</ele>
        <time>2016-07-23T11:54:27Z</time>
      </trkpt>
      <trkpt lat="42.52835" lon="0.14981">
        <ele>654.1</ele>
        <time>2016-07-23T11:54:28Z</time>
      </trkpt>
      <trkpt lat="42.52832" lon="0.14978">
        <ele>654.5</ele>
        <time>2016-07-23T11:54:29Z</time>
      </trkpt>
      <trkpt lat="42.52829" lon="0.14975">
        <ele>654.8</ele>
        <time>2016-07-23T11:54:30Z</time>
      </trkpt>
      <trkpt lat="42.52826" lon="0.1497">
        <ele>654.8</ele>
        <time>2016-07-23T11:54:31Z</time>
      </trkpt>
      <trkpt lat="42.52823" lon="0.14965">
        <ele>654.6</ele>
        <time>2016-07-23T11:54:32Z</time>
      </trkpt>
      <trkpt lat="42.52821" lon="0.14959">
        <ele>654.4</ele>
        <time>2016-07-23T11:54:33Z</time>
      </trkpt>
      <trkpt lat="42.52818" lon="0.14955">
        <ele>654.6</ele>
        <time>2016-07-23T11:54:34Z</time>
      </trkpt>
      <trkpt lat="42.52816" lon="0.14951">
        <ele>655</ele>
        <time>2016-07-23T11:54:35Z</time>
      </trkpt>
      <trkpt lat="42.52814" lon="0.14947">
        <ele>655.3</ele>
        <time>2016-07-23T11:54:36Z</time>
      </trkpt>
      <trkpt lat="42.52812" lon="0.14944">
        <ele>655.5</ele>
        <time>2016-07-23T11:54:37Z</time>
      </trkpt>
      <trkpt lat="42.5281" lon="0.14939">
        <ele>655.8</ele>
        <time>2016-07-23T11:54:39Z</time>
      </trkpt>
      <trkpt lat="42.52807" lon="0.14933">
        <ele>655.8</ele>
        <time>2016-07-23T11:54:41Z</time>
      </trkpt>
      <trkpt lat="42.52806" lon="0.14929">
        <ele>655.4</ele>
        <time>2016-07-23T11:54:43Z</time>
      </trkpt>
      <trkpt lat="42.52806" lon="0.14925">
        <ele>654.9</ele>
        <time>2016-07-23T11:54:46Z</time>
      </trkpt>
      <trkpt lat="42.52806" lon="0.14921">
        <ele>654.5</ele>
        <time>2016-07-23T11:54:54Z</time>
      </trkpt>
      <trkpt lat="42.52806" lon="0.14917">
        <ele>653.8</ele>
        <time>2016-07-23T11:55:28Z</time>
      </trkpt>
      <trkpt lat="42.52805" lon="0.14911">
        <ele>653.4</ele>
        <time>2016-07-23T11:55:30Z</time>
      </trkpt>
      <trkpt lat="42.52803" lon="0.14907">
        <ele>653.2</ele>
        <time>2016-07-23T11:55:31Z</time>
      </trkpt>
      <trkpt lat="42.52802" lon="0.14903">
        <ele>653</ele>
        <time>2016-07-23T11:55:32Z</time>
      </trkpt>
      <trkpt lat="42.528" lon="0.149">
        <ele>653</ele>
        <time>2016-07-23T11:55:33Z</time>
      </trkpt>
      <trkpt lat="42.52797" lon="0.14896">
        <ele>653.1</ele>
        <time>2016-07-23T11:55:34Z</time>
      </trkpt>
      <trkpt lat="42.52795" lon="0.14893">
        <ele>653.2</ele>
        <time>2016-07-23T11:55:35Z</time>
      </trkpt>
      <trkpt lat="42.52793" lon="0.1489">
        <ele>653.3</ele>
        <time>2016-07-23T11:55:36Z</time>
      </trkpt>
      <trkpt lat="42.5279" lon="0.14887">
        <ele>653.4</ele>
        <time>2016-07-23T11:55:37Z</time>
      </trkpt>
      <trkpt lat="42.52788" lon="0.14884">
        <ele>653.5</ele>
        <time>2016-07-23T11:55:38Z</time>
      </trkpt>
      <trkpt lat="42.52785" lon="0.1488">
        <ele>653.7</ele>
        <time>2016-07-23T11:55:39Z</time>
      </trkpt>
      <trkpt lat="42.52782" lon="0.14877">
        <ele>653.9</ele>
        <time>2016-07-23T11:55:40Z</time>
      </trkpt>
      <trkpt lat="42.5278" lon="0.14874">
        <ele>653.9</ele>
        <time>2016-07-23T11:55:41Z</time>
      </trkpt>
      <trkpt lat="42.52779" lon="0.1487">
        <ele>653.8</ele>
        <time>2016-07-23T11:55:42Z</time>
      </trkpt>
      <trkpt lat="42.52777" lon="0.14866">
        <ele>653.6</ele>
        <time>2016-07-23T11:55:44Z</time>
      </trkpt>
      <trkpt lat="42.52775" lon="0.14862">
        <ele>653.5</ele>
        <time>2016-07-23T11:55:46Z</time>
      </trkpt>
      <trkpt lat="42.52773" lon="0.14856">
        <ele>653.3</ele>
        <time>2016-07-23T11:55:48Z</time>
      </trkpt>
      <trkpt lat="42.52772" lon="0.1485">
        <ele>652.6</ele>
        <time>2016-07-23T11:55:50Z</time>
      </trkpt>
      <trkpt lat="42.52772" lon="0.14843">
        <ele>651.6</ele>
        <time>2016-07-23T11:55:52Z</time>
      </trkpt>
      <trkpt lat="42.52773" lon="0.14837">
        <ele>650.5</ele>
        <time>2016-07-23T11:55:54Z</time>
      </trkpt>
      <trkpt lat="42.52774" lon="0.14833">
        <ele>649.7</ele>
        <time>2016-07-23T11:55:56Z</time>
      </trkpt>
      <trkpt lat="42.52775" lon="0.14828">
        <ele>648.7</ele>
        <time>2016-07-23T11:55:58Z</time>
      </trkpt>
      <trkpt lat="42.52775" lon="0.14821">
        <ele>647.4</ele>
        <time>2016-07-23T11:56:00Z</time>
      </trkpt>
      <trkpt lat="42.52775" lon="0.14817">
        <ele>646.8</ele>
        <time>2016-07-23T11:56:01Z</time>
      </trkpt>
      <trkpt lat="42.52775" lon="0.14813">
        <ele>646.2</ele>
        <time>2016-07-23T11:56:02Z</time>
      </trkpt>
      <trkpt lat="42.52775" lon="0.14809">
        <ele>645.5</ele>
        <time>2016-07-23T11:56:03Z</time>
      </trkpt>
      <trkpt lat="42.52775" lon="0.14804">
        <ele>644.8</ele>
        <time>2016-07-23T11:56:04Z</time>
      </trkpt>
      <trkpt lat="42.52775" lon="0.14799">
        <ele>644.1</ele>
        <time>2016-07-23T11:56:05Z</time>
      </trkpt>
      <trkpt lat="42.52775" lon="0.14795">
        <ele>643.6</ele>
        <time>2016-07-23T11:56:06Z</time>
      </trkpt>
      <trkpt lat="42.52773" lon="0.14792">
        <ele>643.6</ele>
        <time>2016-07-23T11:56:11Z</time>
      </trkpt>
      <trkpt lat="42.52771" lon="0.14789">
        <ele>643.5</ele>
        <time>2016-07-23T11:56:13Z</time>
      </trkpt>
      <trkpt lat="42.5277" lon="0.14783">
        <ele>643</ele>
        <time>2016-07-23T11:56:15Z</time>
      </trkpt>
      <trkpt lat="42.52768" lon="0.14777">
        <ele>642.4</ele>
        <time>2016-07-23T11:56:17Z</time>
      </trkpt>
      <trkpt lat="42.52767" lon="0.1477">
        <ele>641.7</ele>
        <time>2016-07-23T11:56:19Z</time>
      </trkpt>
      <trkpt lat="42.52766" lon="0.14766">
        <ele>641.2</ele>
        <time>2016-07-23T11:56:20Z</time>
      </trkpt>
      <trkpt lat="42.52764" lon="0.14762">
        <ele>640.8</ele>
        <time>2016-07-23T11:56:21Z</time>
      </trkpt>
      <trkpt lat="42.52763" lon="0.14758">
        <ele>640.4</ele>
        <time>2016-07-23T11:56:22Z</time>
      </trkpt>
      <trkpt lat="42.52761" lon="0.14755">
        <ele>640.1</ele>
        <time>2016-07-23T11:56:23Z</time>
      </trkpt>
      <trkpt lat="42.5276" lon="0.14751">
        <ele>639.8</ele>
        <time>2016-07-23T11:56:24Z</time>
      </trkpt>
      <trkpt lat="42.52758" lon="0.14748">
        <ele>639.3</ele>
        <time>2016-07-23T11:56:25Z</time>
      </trkpt>
      <trkpt lat="42.52758" lon="0.14744">
        <ele>638.7</ele>
        <time>2016-07-23T11:56:26Z</time>
      </trkpt>
      <trkpt lat="42.52758" lon="0.1474">
        <ele>638</ele>
        <time>2016-07-23T11:56:27Z</time>
      </trkpt>
      <trkpt lat="42.52757" lon="0.14735">
        <ele>637.2</ele>
        <time>2016-07-23T11:56:29Z</time>
      </trkpt>
      <trkpt lat="42.52754" lon="0.14731">
        <ele>636.7</ele>
        <time>2016-07-23T11:56:31Z</time>
      </trkpt>
      <trkpt lat="42.52751" lon="0.14729">
        <ele>636.6</ele>
        <time>2016-07-23T11:56:33Z</time>
      </trkpt>
      <trkpt lat="42.52746" lon="0.14728">
        <ele>636.5</ele>
        <time>2016-07-23T11:56:35Z</time>
      </trkpt>
      <trkpt lat="42.52742" lon="0.14725">
        <ele>636.2</ele>
        <time>2016-07-23T11:56:37Z</time>
      </trkpt>
      <trkpt lat="42.52739" lon="0.14721">
        <ele>635.5</ele>
        <time>2016-07-23T11:56:39Z</time>
      </trkpt>
      <trkpt lat="42.52736" lon="0.14718">
        <ele>634.9</ele>
        <time>2016-07-23T11:56:41Z</time>
      </trkpt>
      <trkpt lat="42.52733" lon="0.14716">
        <ele>634.5</ele>
        <time>2016-07-23T11:56:43Z</time>
      </trkpt>
      <trkpt lat="42.52729" lon="0.14714">
        <ele>634.3</ele>
        <time>2016-07-23T11:56:45Z</time>
      </trkpt>
      <trkpt lat="42.52726" lon="0.14714">
        <ele>634.3</ele>
        <time>2016-07-23T11:56:47Z</time>
      </trkpt>
      <trkpt lat="42.52723" lon="0.14713">
        <ele>634.2</ele>
        <time>2016-07-23T11:56:49Z</time>
      </trkpt>
      <trkpt lat="42.52718" lon="0.14711">
        <ele>633.6</ele>
        <time>2016-07-23T11:56:51Z</time>
      </trkpt>
      <trkpt lat="42.52716" lon="0.14708">
        <ele>632.9</ele>
        <time>2016-07-23T11:56:52Z</time>
      </trkpt>
      <trkpt lat="42.52713" lon="0.14705">
        <ele>632.9</ele>
        <time>2016-07-23T11:56:53Z</time>
      </trkpt>
      <trkpt lat="42.5271" lon="0.14703">
        <ele>632.9</ele>
        <time>2016-07-23T11:56:54Z</time>
      </trkpt>
      <trkpt lat="42.52706" lon="0.147">
        <ele>632.8</ele>
        <time>2016-07-23T11:56:56Z</time>
      </trkpt>
      <trkpt lat="42.52701" lon="0.14699">
        <ele>632.7</ele>
        <time>2016-07-23T11:56:58Z</time>
      </trkpt>
      <trkpt lat="42.52697" lon="0.14698">
        <ele>632.6</ele>
        <time>2016-07-23T11:57:00Z</time>
      </trkpt>
      <trkpt lat="42.52693" lon="0.14699">
        <ele>632.5</ele>
        <time>2016-07-23T11:57:02Z</time>
      </trkpt>
      <trkpt lat="42.52688" lon="0.14699">
        <ele>632.4</ele>
        <time>2016-07-23T11:57:04Z</time>
      </trkpt>
      <trkpt lat="42.52683" lon="0.14698">
        <ele>632.2</ele>
        <time>2016-07-23T11:57:06Z</time>
      </trkpt>
      <trkpt lat="42.52679" lon="0.14698">
        <ele>632.1</ele>
        <time>2016-07-23T11:57:07Z</time>
      </trkpt>
      <trkpt lat="42.52676" lon="0.14698">
        <ele>632.1</ele>
        <time>2016-07-23T11:57:08Z</time>
      </trkpt>
      <trkpt lat="42.52672" lon="0.14699">
        <ele>632</ele>
        <time>2016-07-23T11:57:09Z</time>
      </trkpt>
      <trkpt lat="42.52666" lon="0.14703">
        <ele>631.9</ele>
        <time>2016-07-23T11:57:10Z</time>
      </trkpt>
      <trkpt lat="42.52657" lon="0.14717">
        <ele>634</ele>
        <time>2016-07-23T11:57:11Z</time>
      </trkpt>
      <trkpt lat="42.52654" lon="0.14715">
        <ele>633.4</ele>
        <time>2016-07-23T11:57:12Z</time>
      </trkpt>
      <trkpt lat="42.52648" lon="0.14716">
        <ele>633.3</ele>
        <time>2016-07-23T11:57:13Z</time>
      </trkpt>
      <trkpt lat="42.52643" lon="0.14716">
        <ele>633.2</ele>
        <time>2016-07-23T11:57:16Z</time>
      </trkpt>
      <trkpt lat="42.5264" lon="0.14717">
        <ele>633.2</ele>
        <time>2016-07-23T11:57:17Z</time>
      </trkpt>
      <trkpt lat="42.52636" lon="0.14718">
        <ele>633.3</ele>
        <time>2016-07-23T11:57:18Z</time>
      </trkpt>
      <trkpt lat="42.52633" lon="0.14719">
        <ele>633.5</ele>
        <time>2016-07-23T11:57:19Z</time>
      </trkpt>
      <trkpt lat="42.52629" lon="0.14721">
        <ele>633.7</ele>
        <time>2016-07-23T11:57:20Z</time>
      </trkpt>
      <trkpt lat="42.52624" lon="0.14722">
        <ele>633.7</ele>
        <time>2016-07-23T11:57:21Z</time>
      </trkpt>
      <trkpt lat="42.52619" lon="0.14724">
        <ele>633.8</ele>
        <time>2016-07-23T11:57:22Z</time>
      </trkpt>
      <trkpt lat="42.52615" lon="0.14727">
        <ele>634</ele>
        <time>2016-07-23T11:57:23Z</time>
      </trkpt>
      <trkpt lat="42.52611" lon="0.1473">
        <ele>634.2</ele>
        <time>2016-07-23T11:57:24Z</time>
      </trkpt>
      <trkpt lat="42.52606" lon="0.14734">
        <ele>634.4</ele>
        <time>2016-07-23T11:57:25Z</time>
      </trkpt>
      <trkpt lat="42.52601" lon="0.14737">
        <ele>634.5</ele>
        <time>2016-07-23T11:57:26Z</time>
      </trkpt>
      <trkpt lat="42.52596" lon="0.14741">
        <ele>634.6</ele>
        <time>2016-07-23T11:57:27Z</time>
      </trkpt>
      <trkpt lat="42.52591" lon="0.14745">
        <ele>634.6</ele>
        <time>2016-07-23T11:57:28Z</time>
      </trkpt>
      <trkpt lat="42.52586" lon="0.14749">
        <ele>634.4</ele>
        <time>2016-07-23T11:57:29Z</time>
      </trkpt>
      <trkpt lat="42.52581" lon="0.14753">
        <ele>634.2</ele>
        <time>2016-07-23T11:57:30Z</time>
      </trkpt>
      <trkpt lat="42.52576" lon="0.14757">
        <ele>633.9</ele>
        <time>2016-07-23T11:57:31Z</time>
      </trkpt>
      <trkpt lat="42.5257" lon="0.14761">
        <ele>633.5</ele>
        <time>2016-07-23T11:57:32Z</time>
      </trkpt>
      <trkpt lat="42.52565" lon="0.14765">
        <ele>633</ele>
        <time>2016-07-23T11:57:33Z</time>
      </trkpt>
      <trkpt lat="42.52559" lon="0.14769">
        <ele>632.4</ele>
        <time>2016-07-23T11:57:34Z</time>
      </trkpt>
      <trkpt lat="42.52554" lon="0.14772">
        <ele>631.7</ele>
        <time>2016-07-23T11:57:35Z</time>
      </trkpt>
      <trkpt lat="42.5255" lon="0.14775">
        <ele>631</ele>
        <time>2016-07-23T11:57:36Z</time>
      </trkpt>
      <trkpt lat="42.52544" lon="0.14778">
        <ele>630.2</ele>
        <time>2016-07-23T11:57:37Z</time>
      </trkpt>
      <trkpt lat="42.52539" lon="0.14781">
        <ele>629.6</ele>
        <time>2016-07-23T11:57:38Z</time>
      </trkpt>
      <trkpt lat="42.52534" lon="0.14784">
        <ele>629.4</ele>
        <time>2016-07-23T11:57:39Z</time>
      </trkpt>
      <trkpt lat="42.52528" lon="0.14786">
        <ele>629.1</ele>
        <time>2016-07-23T11:57:40Z</time>
      </trkpt>
      <trkpt lat="42.52523" lon="0.14788">
        <ele>628.8</ele>
        <time>2016-07-23T11:57:41Z</time>
      </trkpt>
      <trkpt lat="42.52518" lon="0.14789">
        <ele>628.6</ele>
        <time>2016-07-23T11:57:42Z</time>
      </trkpt>
      <trkpt lat="42.52514" lon="0.1479">
        <ele>628.3</ele>
        <time>2016-07-23T11:57:43Z</time>
      </trkpt>
      <trkpt lat="42.5251" lon="0.14791">
        <ele>628.1</ele>
        <time>2016-07-23T11:57:44Z</time>
      </trkpt>
      <trkpt lat="42.52505" lon="0.14792">
        <ele>627.8</ele>
        <time>2016-07-23T11:57:45Z</time>
      </trkpt>
      <trkpt lat="42.525" lon="0.14792">
        <ele>627.6</ele>
        <time>2016-07-23T11:57:46Z</time>
      </trkpt>
      <trkpt lat="42.52495" lon="0.14793">
        <ele>627.5</ele>
        <time>2016-07-23T11:57:47Z</time>
      </trkpt>
      <trkpt lat="42.52489" lon="0.14795">
        <ele>627.5</ele>
        <time>2016-07-23T11:57:48Z</time>
      </trkpt>
      <trkpt lat="42.52484" lon="0.14798">
        <ele>627.7</ele>
        <time>2016-07-23T11:57:49Z</time>
      </trkpt>
      <trkpt lat="42.52479" lon="0.14801">
        <ele>627.8</ele>
        <time>2016-07-23T11:57:50Z</time>
      </trkpt>
      <trkpt lat="42.52474" lon="0.14804">
        <ele>628</ele>
        <time>2016-07-23T11:57:51Z</time>
      </trkpt>
      <trkpt lat="42.5247" lon="0.14807">
        <ele>628.1</ele>
        <time>2016-07-23T11:57:52Z</time>
      </trkpt>
      <trkpt lat="42.52466" lon="0.1481">
        <ele>628.2</ele>
        <time>2016-07-23T11:57:53Z</time>
      </trkpt>
      <trkpt lat="42.52461" lon="0.14812">
        <ele>628.2</ele>
        <time>2016-07-23T11:57:54Z</time>
      </trkpt>
      <trkpt lat="42.52457" lon="0.14813">
        <ele>628.2</ele>
        <time>2016-07-23T11:57:55Z</time>
      </trkpt>
      <trkpt lat="42.52453" lon="0.14814">
        <ele>628.5</ele>
        <time>2016-07-23T11:57:56Z</time>
      </trkpt>
      <trkpt lat="42.52451" lon="0.14815">
        <ele>628.7</ele>
        <time>2016-07-23T11:57:57Z</time>
      </trkpt>
      <trkpt lat="42.52447" lon="0.14817">
        <ele>629.1</ele>
        <time>2016-07-23T11:57:59Z</time>
      </trkpt>
      <trkpt lat="42.52441" lon="0.14818">
        <ele>629.5</ele>
        <time>2016-07-23T11:58:01Z</time>
      </trkpt>
      <trkpt lat="42.52437" lon="0.14819">
        <ele>629.8</ele>
        <time>2016-07-23T11:58:02Z</time>
      </trkpt>
      <trkpt lat="42.52432" lon="0.14819">
        <ele>630</ele>
        <time>2016-07-23T11:58:03Z</time>
      </trkpt>
      <trkpt lat="42.52427" lon="0.14819">
        <ele>630.1</ele>
        <time>2016-07-23T11:58:04Z</time>
      </trkpt>
      <trkpt lat="42.52422" lon="0.14818">
        <ele>630.2</ele>
        <time>2016-07-23T11:58:05Z</time>
      </trkpt>
      <trkpt lat="42.52416" lon="0.14817">
        <ele>630.3</ele>
        <time>2016-07-23T11:58:06Z</time>
      </trkpt>
      <trkpt lat="42.52411" lon="0.14817">
        <ele>630.5</ele>
        <time>2016-07-23T11:58:07Z</time>
      </trkpt>
      <trkpt lat="42.52407" lon="0.14817">
        <ele>630.8</ele>
        <time>2016-07-23T11:58:08Z</time>
      </trkpt>
      <trkpt lat="42.52402" lon="0.14819">
        <ele>631.2</ele>
        <time>2016-07-23T11:58:09Z</time>
      </trkpt>
      <trkpt lat="42.52399" lon="0.14823">
        <ele>631.8</ele>
        <time>2016-07-23T11:58:10Z</time>
      </trkpt>
      <trkpt lat="42.52396" lon="0.14828">
        <ele>632.6</ele>
        <time>2016-07-23T11:58:11Z</time>
      </trkpt>
      <trkpt lat="42.52396" lon="0.14836">
        <ele>633.5</ele>
        <time>2016-07-23T11:58:12Z</time>
      </trkpt>
      <trkpt lat="42.52396" lon="0.14844">
        <ele>634.5</ele>
        <time>2016-07-23T11:58:13Z</time>
      </trkpt>
      <trkpt lat="42.52398" lon="0.14852">
        <ele>635.5</ele>
        <time>2016-07-23T11:58:14Z</time>
      </trkpt>
      <trkpt lat="42.52398" lon="0.1486">
        <ele>636.5</ele>
        <time>2016-07-23T11:58:15Z</time>
      </trkpt>
      <trkpt lat="42.52398" lon="0.14867">
        <ele>637.4</ele>
        <time>2016-07-23T11:58:16Z</time>
      </trkpt>
      <trkpt lat="42.52396" lon="0.14873">
        <ele>638.3</ele>
        <time>2016-07-23T11:58:17Z</time>
      </trkpt>
      <trkpt lat="42.52394" lon="0.1488">
        <ele>639.1</ele>
        <time>2016-07-23T11:58:18Z</time>
      </trkpt>
      <trkpt lat="42.52391" lon="0.14886">
        <ele>640</ele>
        <time>2016-07-23T11:58:19Z</time>
      </trkpt>
      <trkpt lat="42.52388" lon="0.14892">
        <ele>640.7</ele>
        <time>2016-07-23T11:58:20Z</time>
      </trkpt>
      <trkpt lat="42.52386" lon="0.14897">
        <ele>641.4</ele>
        <time>2016-07-23T11:58:21Z</time>
      </trkpt>
      <trkpt lat="42.52383" lon="0.14901">
        <ele>642</ele>
        <time>2016-07-23T11:58:22Z</time>
      </trkpt>
      <trkpt lat="42.5238" lon="0.14903">
        <ele>642.5</ele>
        <time>2016-07-23T11:58:23Z</time>
      </trkpt>
      <trkpt lat="42.52377" lon="0.14904">
        <ele>642.8</ele>
        <time>2016-07-23T11:58:24Z</time>
      </trkpt>
      <trkpt lat="42.52373" lon="0.14902">
        <ele>643.4</ele>
        <time>2016-07-23T11:58:26Z</time>
      </trkpt>
      <trkpt lat="42.52369" lon="0.14897">
        <ele>644</ele>
        <time>2016-07-23T11:58:28Z</time>
      </trkpt>
      <trkpt lat="42.52367" lon="0.14893">
        <ele>644.2</ele>
        <time>2016-07-23T11:58:29Z</time>
      </trkpt>
      <trkpt lat="42.52365" lon="0.14889">
        <ele>644.4</ele>
        <time>2016-07-23T11:58:30Z</time>
      </trkpt>
      <trkpt lat="42.52363" lon="0.14885">
        <ele>644.7</ele>
        <time>2016-07-23T11:58:31Z</time>
      </trkpt>
      <trkpt lat="42.5236" lon="0.1488">
        <ele>645</ele>
        <time>2016-07-23T11:58:32Z</time>
      </trkpt>
      <trkpt lat="42.52357" lon="0.14874">
        <ele>645.4</ele>
        <time>2016-07-23T11:58:33Z</time>
      </trkpt>
      <trkpt lat="42.52354" lon="0.14869">
        <ele>645.6</ele>
        <time>2016-07-23T11:58:34Z</time>
      </trkpt>
      <trkpt lat="42.52351" lon="0.14864">
        <ele>646</ele>
        <time>2016-07-23T11:58:35Z</time>
      </trkpt>
      <trkpt lat="42.52347" lon="0.1486">
        <ele>646.3</ele>
        <time>2016-07-23T11:58:36Z</time>
      </trkpt>
      <trkpt lat="42.52344" lon="0.14856">
        <ele>646.7</ele>
        <time>2016-07-23T11:58:37Z</time>
      </trkpt>
      <trkpt lat="42.52341" lon="0.14851">
        <ele>647</ele>
        <time>2016-07-23T11:58:38Z</time>
      </trkpt>
      <trkpt lat="42.52337" lon="0.14847">
        <ele>647.2</ele>
        <time>2016-07-23T11:58:39Z</time>
      </trkpt>
      <trkpt lat="42.52335" lon="0.14843">
        <ele>647.2</ele>
        <time>2016-07-23T11:58:40Z</time>
      </trkpt>
      <trkpt lat="42.52333" lon="0.14839">
        <ele>646.9</ele>
        <time>2016-07-23T11:58:41Z</time>
      </trkpt>
      <trkpt lat="42.52332" lon="0.14835">
        <ele>646.5</ele>
        <time>2016-07-23T11:58:42Z</time>
      </trkpt>
      <trkpt lat="42.52332" lon="0.14829">
        <ele>645.4</ele>
        <time>2016-07-23T11:58:44Z</time>
      </trkpt>
      <trkpt lat="42.5233" lon="0.14823">
        <ele>644.6</ele>
        <time>2016-07-23T11:58:46Z</time>
      </trkpt>
      <trkpt lat="42.52328" lon="0.14817">
        <ele>643.8</ele>
        <time>2016-07-23T11:58:48Z</time>
      </trkpt>
      <trkpt lat="42.52327" lon="0.14813">
        <ele>643.3</ele>
        <time>2016-07-23T11:58:49Z</time>
      </trkpt>
      <trkpt lat="42.52326" lon="0.14809">
        <ele>642.8</ele>
        <time>2016-07-23T11:58:50Z</time>
      </trkpt>
      <trkpt lat="42.52324" lon="0.14806">
        <ele>642.4</ele>
        <time>2016-07-23T11:58:51Z</time>
      </trkpt>
      <trkpt lat="42.52322" lon="0.14802">
        <ele>641.9</ele>
        <time>2016-07-23T11:58:52Z</time>
      </trkpt>
      <trkpt lat="42.52321" lon="0.14798">
        <ele>641.5</ele>
        <time>2016-07-23T11:58:53Z</time>
      </trkpt>
      <trkpt lat="42.52319" lon="0.14794">
        <ele>640.9</ele>
        <time>2016-07-23T11:58:54Z</time>
      </trkpt>
      <trkpt lat="42.52318" lon="0.1479">
        <ele>640.3</ele>
        <time>2016-07-23T11:58:55Z</time>
      </trkpt>
      <trkpt lat="42.52317" lon="0.14786">
        <ele>639.9</ele>
        <time>2016-07-23T11:58:56Z</time>
      </trkpt>
      <trkpt lat="42.52316" lon="0.14782">
        <ele>639.3</ele>
        <time>2016-07-23T11:58:57Z</time>
      </trkpt>
      <trkpt lat="42.52314" lon="0.14778">
        <ele>638.9</ele>
        <time>2016-07-23T11:58:58Z</time>
      </trkpt>
      <trkpt lat="42.52313" lon="0.14775">
        <ele>638.5</ele>
        <time>2016-07-23T11:58:59Z</time>
      </trkpt>
      <trkpt lat="42.52311" lon="0.14772">
        <ele>638.3</ele>
        <time>2016-07-23T11:59:00Z</time>
      </trkpt>
      <trkpt lat="42.52308" lon="0.1477">
        <ele>638.2</ele>
        <time>2016-07-23T11:59:01Z</time>
      </trkpt>
      <trkpt lat="42.52306" lon="0.14768">
        <ele>638.2</ele>
        <time>2016-07-23T11:59:02Z</time>
      </trkpt>
      <trkpt lat="42.52303" lon="0.14766">
        <ele>638.3</ele>
        <time>2016-07-23T11:59:03Z</time>
      </trkpt>
      <trkpt lat="42.523" lon="0.14765">
        <ele>638.5</ele>
        <time>2016-07-23T11:59:04Z</time>
      </trkpt>
      <trkpt lat="42.52297" lon="0.14764">
        <ele>638.7</ele>
        <time>2016-07-23T11:59:05Z</time>
      </trkpt>
      <trkpt lat="42.52293" lon="0.14763">
        <ele>639</ele>
        <time>2016-07-23T11:59:06Z</time>
      </trkpt>
      <trkpt lat="42.5229" lon="0.14763">
        <ele>639.3</ele>
        <time>2016-07-23T11:59:07Z</time>
      </trkpt>
      <trkpt lat="42.52287" lon="0.14762">
        <ele>639.9</ele>
        <time>2016-07-23T11:59:08Z</time>
      </trkpt>
      <trkpt lat="42.52283" lon="0.14761">
        <ele>640.5</ele>
        <time>2016-07-23T11:59:09Z</time>
      </trkpt>
      <trkpt lat="42.5228" lon="0.14761">
        <ele>641.2</ele>
        <time>2016-07-23T11:59:10Z</time>
      </trkpt>
      <trkpt lat="42.52277" lon="0.14761">
        <ele>641.9</ele>
        <time>2016-07-23T11:59:11Z</time>
      </trkpt>
      <trkpt lat="42.52274" lon="0.14761">
        <ele>642.7</ele>
        <time>2016-07-23T11:59:12Z</time>
      </trkpt>
      <trkpt lat="42.52271" lon="0.14762">
        <ele>643.4</ele>
        <time>2016-07-23T11:59:13Z</time>
      </trkpt>
      <trkpt lat="42.52268" lon="0.14761">
        <ele>643.9</ele>
        <time>2016-07-23T11:59:14Z</time>
      </trkpt>
      <trkpt lat="42.52266" lon="0.1476">
        <ele>644.2</ele>
        <time>2016-07-23T11:59:15Z</time>
      </trkpt>
      <trkpt lat="42.52263" lon="0.14758">
        <ele>644.3</ele>
        <time>2016-07-23T11:59:16Z</time>
      </trkpt>
      <trkpt lat="42.52259" lon="0.14755">
        <ele>644.2</ele>
        <time>2016-07-23T11:59:18Z</time>
      </trkpt>
      <trkpt lat="42.52256" lon="0.14752">
        <ele>644.1</ele>
        <time>2016-07-23T11:59:19Z</time>
      </trkpt>
      <trkpt lat="42.52254" lon="0.1475">
        <ele>644</ele>
        <time>2016-07-23T11:59:20Z</time>
      </trkpt>
      <trkpt lat="42.52251" lon="0.14748">
        <ele>644</ele>
        <time>2016-07-23T11:59:21Z</time>
      </trkpt>
      <trkpt lat="42.52247" lon="0.14745">
        <ele>644</ele>
        <time>2016-07-23T11:59:23Z</time>
      </trkpt>
      <trkpt lat="42.52245" lon="0.14744">
        <ele>644.1</ele>
        <time>2016-07-23T11:59:24Z</time>
      </trkpt>
      <trkpt lat="42.52242" lon="0.14742">
        <ele>644.1</ele>
        <time>2016-07-23T11:59:25Z</time>
      </trkpt>
      <trkpt lat="42.52239" lon="0.1474">
        <ele>644.1</ele>
        <time>2016-07-23T11:59:26Z</time>
      </trkpt>
      <trkpt lat="42.52236" lon="0.14738">
        <ele>644.1</ele>
        <time>2016-07-23T11:59:27Z</time>
      </trkpt>
      <trkpt lat="42.52234" lon="0.14736">
        <ele>644.1</ele>
        <time>2016-07-23T11:59:28Z</time>
      </trkpt>
      <trkpt lat="42.52231" lon="0.14735">
        <ele>644.1</ele>
        <time>2016-07-23T11:59:29Z</time>
      </trkpt>
      <trkpt lat="42.52228" lon="0.14733">
        <ele>644.2</ele>
        <time>2016-07-23T11:59:30Z</time>
      </trkpt>
      <trkpt lat="42.52224" lon="0.14731">
        <ele>644.2</ele>
        <time>2016-07-23T11:59:31Z</time>
      </trkpt>
      <trkpt lat="42.5222" lon="0.14728">
        <ele>644.2</ele>
        <time>2016-07-23T11:59:32Z</time>
      </trkpt>
      <trkpt lat="42.52216" lon="0.14725">
        <ele>644.1</ele>
        <time>2016-07-23T11:59:33Z</time>
      </trkpt>
      <trkpt lat="42.52212" lon="0.14723">
        <ele>644.1</ele>
        <time>2016-07-23T11:59:34Z</time>
      </trkpt>
      <trkpt lat="42.52208" lon="0.1472">
        <ele>644</ele>
        <time>2016-07-23T11:59:35Z</time>
      </trkpt>
      <trkpt lat="42.52204" lon="0.14717">
        <ele>644.4</ele>
        <time>2016-07-23T11:59:36Z</time>
      </trkpt>
      <trkpt lat="42.522" lon="0.14714">
        <ele>644.8</ele>
        <time>2016-07-23T11:59:37Z</time>
      </trkpt>
      <trkpt lat="42.52196" lon="0.14711">
        <ele>645.1</ele>
        <time>2016-07-23T11:59:38Z</time>
      </trkpt>
      <trkpt lat="42.52191" lon="0.14707">
        <ele>645.6</ele>
        <time>2016-07-23T11:59:39Z</time>
      </trkpt>
      <trkpt lat="42.52187" lon="0.14702">
        <ele>646.4</ele>
        <time>2016-07-23T11:59:40Z</time>
      </trkpt>
      <trkpt lat="42.52183" lon="0.14698">
        <ele>647.1</ele>
        <time>2016-07-23T11:59:41Z</time>
      </trkpt>
      <trkpt lat="42.52178" lon="0.14693">
        <ele>647.7</ele>
        <time>2016-07-23T11:59:42Z</time>
      </trkpt>
      <trkpt lat="42.52173" lon="0.14688">
        <ele>648.2</ele>
        <time>2016-07-23T11:59:43Z</time>
      </trkpt>
      <trkpt lat="42.52169" lon="0.14683">
        <ele>648.6</ele>
        <time>2016-07-23T11:59:44Z</time>
      </trkpt>
      <trkpt lat="42.52164" lon="0.14678">
        <ele>648.9</ele>
        <time>2016-07-23T11:59:45Z</time>
      </trkpt>
      <trkpt lat="42.5216" lon="0.14672">
        <ele>649.2</ele>
        <time>2016-07-23T11:59:46Z</time>
      </trkpt>
      <trkpt lat="42.52155" lon="0.14668">
        <ele>649.4</ele>
        <time>2016-07-23T11:59:47Z</time>
      </trkpt>
      <trkpt lat="42.52151" lon="0.14663">
        <ele>649.4</ele>
        <time>2016-07-23T11:59:48Z</time>
      </trkpt>
      <trkpt lat="42.52147" lon="0.14658">
        <ele>649.3</ele>
        <time>2016-07-23T11:59:49Z</time>
      </trkpt>
      <trkpt lat="42.52142" lon="0.14653">
        <ele>649.4</ele>
        <time>2016-07-23T11:59:50Z</time>
      </trkpt>
      <trkpt lat="42.52138" lon="0.14648">
        <ele>649.3</ele>
        <time>2016-07-23T11:59:51Z</time>
      </trkpt>
      <trkpt lat="42.52133" lon="0.14643">
        <ele>649.2</ele>
        <time>2016-07-23T11:59:52Z</time>
      </trkpt>
      <trkpt lat="42.52129" lon="0.14636">
        <ele>648.2</ele>
        <time>2016-07-23T11:59:53Z</time>
      </trkpt>
      <trkpt lat="42.52123" lon="0.14629">
        <ele>648</ele>
        <time>2016-07-23T11:59:54Z</time>
      </trkpt>
      <trkpt lat="42.52117" lon="0.14625">
        <ele>649.9</ele>
        <time>2016-07-23T11:59:55Z</time>
      </trkpt>
      <trkpt lat="42.52113" lon="0.1462">
        <ele>651.3</ele>
        <time>2016-07-23T11:59:56Z</time>
      </trkpt>
      <trkpt lat="42.52109" lon="0.14615">
        <ele>652.6</ele>
        <time>2016-07-23T11:59:57Z</time>
      </trkpt>
      <trkpt lat="42.52104" lon="0.1461">
        <ele>654.4</ele>
        <time>2016-07-23T11:59:58Z</time>
      </trkpt>
      <trkpt lat="42.521" lon="0.14604">
        <ele>655.8</ele>
        <time>2016-07-23T11:59:59Z</time>
      </trkpt>
      <trkpt lat="42.52095" lon="0.146">
        <ele>657.5</ele>
        <time>2016-07-23T12:00:00Z</time>
      </trkpt>
      <trkpt lat="42.52091" lon="0.14593">
        <ele>658.6</ele>
        <time>2016-07-23T12:00:01Z</time>
      </trkpt>
      <trkpt lat="42.52087" lon="0.14585">
        <ele>659.1</ele>
        <time>2016-07-23T12:00:02Z</time>
      </trkpt>
      <trkpt lat="42.52084" lon="0.14577">
        <ele>659.6</ele>
        <time>2016-07-23T12:00:03Z</time>
      </trkpt>
      <trkpt lat="42.52082" lon="0.14567">
        <ele>659.3</ele>
        <time>2016-07-23T12:00:04Z</time>
      </trkpt>
      <trkpt lat="42.5208" lon="0.14559">
        <ele>659.2</ele>
        <time>2016-07-23T12:00:05Z</time>
      </trkpt>
      <trkpt lat="42.52077" lon="0.1455">
        <ele>659.3</ele>
        <time>2016-07-23T12:00:06Z</time>
      </trkpt>
      <trkpt lat="42.52074" lon="0.14542">
        <ele>659.7</ele>
        <time>2016-07-23T12:00:07Z</time>
      </trkpt>
      <trkpt lat="42.52072" lon="0.14533">
        <ele>659.9</ele>
        <time>2016-07-23T12:00:08Z</time>
      </trkpt>
      <trkpt lat="42.52069" lon="0.14525">
        <ele>660.2</ele>
        <time>2016-07-23T12:00:09Z</time>
      </trkpt>
      <trkpt lat="42.52067" lon="0.14517">
        <ele>660.1</ele>
        <time>2016-07-23T12:00:10Z</time>
      </trkpt>
      <trkpt lat="42.52067" lon="0.14508">
        <ele>659.5</ele>
        <time>2016-07-23T12:00:11Z</time>
      </trkpt>
      <trkpt lat="42.52066" lon="0.14501">
        <ele>659</ele>
        <time>2016-07-23T12:00:12Z</time>
      </trkpt>
      <trkpt lat="42.52065" lon="0.14496">
        <ele>658.6</ele>
        <time>2016-07-23T12:00:13Z</time>
      </trkpt>
      <trkpt lat="42.52065" lon="0.14491">
        <ele>658.4</ele>
        <time>2016-07-23T12:00:14Z</time>
      </trkpt>
      <trkpt lat="42.52064" lon="0.14487">
        <ele>658.1</ele>
        <time>2016-07-23T12:00:15Z</time>
      </trkpt>
      <trkpt lat="42.52063" lon="0.14483">
        <ele>657.8</ele>
        <time>2016-07-23T12:00:16Z</time>
      </trkpt>
      <trkpt lat="42.52063" lon="0.14478">
        <ele>657.5</ele>
        <time>2016-07-23T12:00:17Z</time>
      </trkpt>
      <trkpt lat="42.52063" lon="0.14473">
        <ele>657.1</ele>
        <time>2016-07-23T12:00:18Z</time>
      </trkpt>
      <trkpt lat="42.52062" lon="0.14468">
        <ele>656.5</ele>
        <time>2016-07-23T12:00:19Z</time>
      </trkpt>
      <trkpt lat="42.52062" lon="0.14461">
        <ele>655.8</ele>
        <time>2016-07-23T12:00:20Z</time>
      </trkpt>
      <trkpt lat="42.52062" lon="0.14455">
        <ele>655.2</ele>
        <time>2016-07-23T12:00:21Z</time>
      </trkpt>
      <trkpt lat="42.52061" lon="0.14448">
        <ele>654.6</ele>
        <time>2016-07-23T12:00:22Z</time>
      </trkpt>
      <trkpt lat="42.5206" lon="0.14441">
        <ele>654</ele>
        <time>2016-07-23T12:00:23Z</time>
      </trkpt>
      <trkpt lat="42.5206" lon="0.14433">
        <ele>653.4</ele>
        <time>2016-07-23T12:00:24Z</time>
      </trkpt>
      <trkpt lat="42.52059" lon="0.14425">
        <ele>652.8</ele>
        <time>2016-07-23T12:00:25Z</time>
      </trkpt>
      <trkpt lat="42.52058" lon="0.14418">
        <ele>652.1</ele>
        <time>2016-07-23T12:00:26Z</time>
      </trkpt>
      <trkpt lat="42.52057" lon="0.1441">
        <ele>651.3</ele>
        <time>2016-07-23T12:00:27Z</time>
      </trkpt>
      <trkpt lat="42.52057" lon="0.14402">
        <ele>650.4</ele>
        <time>2016-07-23T12:00:28Z</time>
      </trkpt>
      <trkpt lat="42.52057" lon="0.14394">
        <ele>649.5</ele>
        <time>2016-07-23T12:00:29Z</time>
      </trkpt>
      <trkpt lat="42.52056" lon="0.14386">
        <ele>648.8</ele>
        <time>2016-07-23T12:00:30Z</time>
      </trkpt>
      <trkpt lat="42.52055" lon="0.14377">
        <ele>648.1</ele>
        <time>2016-07-23T12:00:31Z</time>
      </trkpt>
      <trkpt lat="42.52054" lon="0.14368">
        <ele>646.8</ele>
        <time>2016-07-23T12:00:32Z</time>
      </trkpt>
      <trkpt lat="42.52052" lon="0.14359">
        <ele>645.5</ele>
        <time>2016-07-23T12:00:33Z</time>
      </trkpt>
      <trkpt lat="42.52052" lon="0.14347">
        <ele>643.2</ele>
        <time>2016-07-23T12:00:34Z</time>
      </trkpt>
      <trkpt lat="42.52051" lon="0.14337">
        <ele>641.6</ele>
        <time>2016-07-23T12:00:35Z</time>
      </trkpt>
      <trkpt lat="42.5205" lon="0.14328">
        <ele>640.1</ele>
        <time>2016-07-23T12:00:36Z</time>
      </trkpt>
      <trkpt lat="42.52048" lon="0.1432">
        <ele>639</ele>
        <time>2016-07-23T12:00:37Z</time>
      </trkpt>
      <trkpt lat="42.52043" lon="0.14312">
        <ele>638.3</ele>
        <time>2016-07-23T12:00:38Z</time>
      </trkpt>
      <trkpt lat="42.52039" lon="0.14303">
        <ele>636.3</ele>
        <time>2016-07-23T12:00:39Z</time>
      </trkpt>
      <trkpt lat="42.52035" lon="0.14295">
        <ele>634.4</ele>
        <time>2016-07-23T12:00:40Z</time>
      </trkpt>
      <trkpt lat="42.52033" lon="0.14285">
        <ele>632.9</ele>
        <time>2016-07-23T12:00:41Z</time>
      </trkpt>
      <trkpt lat="42.52031" lon="0.14276">
        <ele>631.7</ele>
        <time>2016-07-23T12:00:42Z</time>
      </trkpt>
      <trkpt lat="42.52029" lon="0.14266">
        <ele>630.4</ele>
        <time>2016-07-23T12:00:43Z</time>
      </trkpt>
      <trkpt lat="42.52027" lon="0.14258">
        <ele>629.3</ele>
        <time>2016-07-23T12:00:44Z</time>
      </trkpt>
      <trkpt lat="42.52025" lon="0.14251">
        <ele>628.4</ele>
        <time>2016-07-23T12:00:45Z</time>
      </trkpt>
      <trkpt lat="42.52023" lon="0.14242">
        <ele>627.3</ele>
        <time>2016-07-23T12:00:46Z</time>
      </trkpt>
      <trkpt lat="42.5202" lon="0.14235">
        <ele>626.4</ele>
        <time>2016-07-23T12:00:47Z</time>
      </trkpt>
      <trkpt lat="42.52017" lon="0.14227">
        <ele>625.5</ele>
        <time>2016-07-23T12:00:48Z</time>
      </trkpt>
      <trkpt lat="42.52014" lon="0.14221">
        <ele>624.7</ele>
        <time>2016-07-23T12:00:49Z</time>
      </trkpt>
      <trkpt lat="42.5201" lon="0.14214">
        <ele>624</ele>
        <time>2016-07-23T12:00:50Z</time>
      </trkpt>
      <trkpt lat="42.52005" lon="0.14209">
        <ele>623.6</ele>
        <time>2016-07-23T12:00:51Z</time>
      </trkpt>
      <trkpt lat="42.51998" lon="0.14206">
        <ele>623.5</ele>
        <time>2016-07-23T12:00:52Z</time>
      </trkpt>
      <trkpt lat="42.51993" lon="0.14206">
        <ele>623.6</ele>
        <time>2016-07-23T12:00:53Z</time>
      </trkpt>
      <trkpt lat="42.51984" lon="0.14211">
        <ele>624</ele>
        <time>2016-07-23T12:00:54Z</time>
      </trkpt>
      <trkpt lat="42.51979" lon="0.14213">
        <ele>624.2</ele>
        <time>2016-07-23T12:00:55Z</time>
      </trkpt>
      <trkpt lat="42.51973" lon="0.14217">
        <ele>624.6</ele>
        <time>2016-07-23T12:00:56Z</time>
      </trkpt>
      <trkpt lat="42.5197" lon="0.14219">
        <ele>624.9</ele>
        <time>2016-07-23T12:00:57Z</time>
      </trkpt>
      <trkpt lat="42.51966" lon="0.14222">
        <ele>625.1</ele>
        <time>2016-07-23T12:00:58Z</time>
      </trkpt>
      <trkpt lat="42.51961" lon="0.14225">
        <ele>625.4</ele>
        <time>2016-07-23T12:00:59Z</time>
      </trkpt>
      <trkpt lat="42.51957" lon="0.14228">
        <ele>625.6</ele>
        <time>2016-07-23T12:01:00Z</time>
      </trkpt>
      <trkpt lat="42.51953" lon="0.14232">
        <ele>625.6</ele>
        <time>2016-07-23T12:01:01Z</time>
      </trkpt>
      <trkpt lat="42.51948" lon="0.14235">
        <ele>625.6</ele>
        <time>2016-07-23T12:01:02Z</time>
      </trkpt>
      <trkpt lat="42.51944" lon="0.14239">
        <ele>625.6</ele>
        <time>2016-07-23T12:01:03Z</time>
      </trkpt>
      <trkpt lat="42.5194" lon="0.14243">
        <ele>625.6</ele>
        <time>2016-07-23T12:01:04Z</time>
      </trkpt>
      <trkpt lat="42.51937" lon="0.14248">
        <ele>625.7</ele>
        <time>2016-07-23T12:01:05Z</time>
      </trkpt>
      <trkpt lat="42.51934" lon="0.14253">
        <ele>625.7</ele>
        <time>2016-07-23T12:01:06Z</time>
      </trkpt>
      <trkpt lat="42.51932" lon="0.14257">
        <ele>625.8</ele>
        <time>2016-07-23T12:01:07Z</time>
      </trkpt>
      <trkpt lat="42.51929" lon="0.14262">
        <ele>625.9</ele>
        <time>2016-07-23T12:01:08Z</time>
      </trkpt>
      <trkpt lat="42.51926" lon="0.14267">
        <ele>625.8</ele>
        <time>2016-07-23T12:01:09Z</time>
      </trkpt>
      <trkpt lat="42.51921" lon="0.14274">
        <ele>625.7</ele>
        <time>2016-07-23T12:01:10Z</time>
      </trkpt>
      <trkpt lat="42.51918" lon="0.14279">
        <ele>625.7</ele>
        <time>2016-07-23T12:01:11Z</time>
      </trkpt>
      <trkpt lat="42.51915" lon="0.14285">
        <ele>625.5</ele>
        <time>2016-07-23T12:01:12Z</time>
      </trkpt>
      <trkpt lat="42.51913" lon="0.14289">
        <ele>625.4</ele>
        <time>2016-07-23T12:01:13Z</time>
      </trkpt>
      <trkpt lat="42.5191" lon="0.14294">
        <ele>625.4</ele>
        <time>2016-07-23T12:01:14Z</time>
      </trkpt>
      <trkpt lat="42.51907" lon="0.14299">
        <ele>625.3</ele>
        <time>2016-07-23T12:01:15Z</time>
      </trkpt>
      <trkpt lat="42.51902" lon="0.14305">
        <ele>625.2</ele>
        <time>2016-07-23T12:01:16Z</time>
      </trkpt>
      <trkpt lat="42.519" lon="0.14311">
        <ele>625.2</ele>
        <time>2016-07-23T12:01:17Z</time>
      </trkpt>
      <trkpt lat="42.51897" lon="0.14318">
        <ele>625.1</ele>
        <time>2016-07-23T12:01:18Z</time>
      </trkpt>
      <trkpt lat="42.51894" lon="0.14325">
        <ele>625</ele>
        <time>2016-07-23T12:01:19Z</time>
      </trkpt>
      <trkpt lat="42.51892" lon="0.1433">
        <ele>625</ele>
        <time>2016-07-23T12:01:20Z</time>
      </trkpt>
      <trkpt lat="42.51891" lon="0.14335">
        <ele>624.8</ele>
        <time>2016-07-23T12:01:21Z</time>
      </trkpt>
      <trkpt lat="42.51888" lon="0.14339">
        <ele>624.4</ele>
        <time>2016-07-23T12:01:22Z</time>
      </trkpt>
      <trkpt lat="42.51883" lon="0.14342">
        <ele>623.4</ele>
        <time>2016-07-23T12:01:23Z</time>
      </trkpt>
      <trkpt lat="42.51878" lon="0.14345">
        <ele>622.4</ele>
        <time>2016-07-23T12:01:24Z</time>
      </trkpt>
      <trkpt lat="42.51873" lon="0.1435">
        <ele>621.6</ele>
        <time>2016-07-23T12:01:25Z</time>
      </trkpt>
      <trkpt lat="42.51869" lon="0.14355">
        <ele>621.5</ele>
        <time>2016-07-23T12:01:26Z</time>
      </trkpt>
      <trkpt lat="42.51862" lon="0.14361">
        <ele>621.2</ele>
        <time>2016-07-23T12:01:27Z</time>
      </trkpt>
      <trkpt lat="42.51856" lon="0.14368">
        <ele>620.8</ele>
        <time>2016-07-23T12:01:28Z</time>
      </trkpt>
      <trkpt lat="42.51849" lon="0.14374">
        <ele>620.5</ele>
        <time>2016-07-23T12:01:29Z</time>
      </trkpt>
      <trkpt lat="42.51843" lon="0.14379">
        <ele>620.4</ele>
        <time>2016-07-23T12:01:30Z</time>
      </trkpt>
      <trkpt lat="42.51837" lon="0.14384">
        <ele>620.4</ele>
        <time>2016-07-23T12:01:31Z</time>
      </trkpt>
      <trkpt lat="42.51831" lon="0.14389">
        <ele>620.4</ele>
        <time>2016-07-23T12:01:32Z</time>
      </trkpt>
      <trkpt lat="42.51825" lon="0.14394">
        <ele>620.2</ele>
        <time>2016-07-23T12:01:33Z</time>
      </trkpt>
      <trkpt lat="42.5182" lon="0.14399">
        <ele>619.9</ele>
        <time>2016-07-23T12:01:34Z</time>
      </trkpt>
      <trkpt lat="42.51814" lon="0.14403">
        <ele>619.6</ele>
        <time>2016-07-23T12:01:35Z</time>
      </trkpt>
      <trkpt lat="42.51809" lon="0.14408">
        <ele>619.3</ele>
        <time>2016-07-23T12:01:36Z</time>
      </trkpt>
      <trkpt lat="42.51804" lon="0.14412">
        <ele>618.8</ele>
        <time>2016-07-23T12:01:37Z</time>
      </trkpt>
      <trkpt lat="42.51799" lon="0.14417">
        <ele>618.4</ele>
        <time>2016-07-23T12:01:38Z</time>
      </trkpt>
      <trkpt lat="42.51793" lon="0.14421">
        <ele>617.8</ele>
        <time>2016-07-23T12:01:39Z</time>
      </trkpt>
      <trkpt lat="42.51788" lon="0.14424">
        <ele>617.6</ele>
        <time>2016-07-23T12:01:40Z</time>
      </trkpt>
      <trkpt lat="42.51783" lon="0.14427">
        <ele>617.7</ele>
        <time>2016-07-23T12:01:41Z</time>
      </trkpt>
      <trkpt lat="42.5178" lon="0.14428">
        <ele>617.8</ele>
        <time>2016-07-23T12:01:42Z</time>
      </trkpt>
      <trkpt lat="42.51776" lon="0.14429">
        <ele>617.8</ele>
        <time>2016-07-23T12:01:43Z</time>
      </trkpt>
      <trkpt lat="42.51773" lon="0.14429">
        <ele>617.9</ele>
        <time>2016-07-23T12:01:44Z</time>
      </trkpt>
      <trkpt lat="42.51769" lon="0.1443">
        <ele>617.9</ele>
        <time>2016-07-23T12:01:45Z</time>
      </trkpt>
      <trkpt lat="42.51765" lon="0.1443">
        <ele>618</ele>
        <time>2016-07-23T12:01:46Z</time>
      </trkpt>
      <trkpt lat="42.51762" lon="0.14431">
        <ele>618</ele>
        <time>2016-07-23T12:01:47Z</time>
      </trkpt>
      <trkpt lat="42.51757" lon="0.14432">
        <ele>618.1</ele>
        <time>2016-07-23T12:01:49Z</time>
      </trkpt>
      <trkpt lat="42.51753" lon="0.14433">
        <ele>618.1</ele>
        <time>2016-07-23T12:01:50Z</time>
      </trkpt>
      <trkpt lat="42.51747" lon="0.14434">
        <ele>618.2</ele>
        <time>2016-07-23T12:01:52Z</time>
      </trkpt>
      <trkpt lat="42.51744" lon="0.14435">
        <ele>618.2</ele>
        <time>2016-07-23T12:01:53Z</time>
      </trkpt>
      <trkpt lat="42.51741" lon="0.14436">
        <ele>618.2</ele>
        <time>2016-07-23T12:01:54Z</time>
      </trkpt>
      <trkpt lat="42.51736" lon="0.14437">
        <ele>618.3</ele>
        <time>2016-07-23T12:01:56Z</time>
      </trkpt>
      <trkpt lat="42.51733" lon="0.1444">
        <ele>618.3</ele>
        <time>2016-07-23T12:01:58Z</time>
      </trkpt>
      <trkpt lat="42.51728" lon="0.14444">
        <ele>618.2</ele>
        <time>2016-07-23T12:02:00Z</time>
      </trkpt>
      <trkpt lat="42.51725" lon="0.14446">
        <ele>618.2</ele>
        <time>2016-07-23T12:02:01Z</time>
      </trkpt>
      <trkpt lat="42.51721" lon="0.1445">
        <ele>618.2</ele>
        <time>2016-07-23T12:02:02Z</time>
      </trkpt>
      <trkpt lat="42.51717" lon="0.14453">
        <ele>618.1</ele>
        <time>2016-07-23T12:02:03Z</time>
      </trkpt>
      <trkpt lat="42.51712" lon="0.14461">
        <ele>618</ele>
        <time>2016-07-23T12:02:04Z</time>
      </trkpt>
      <trkpt lat="42.51708" lon="0.14466">
        <ele>618</ele>
        <time>2016-07-23T12:02:05Z</time>
      </trkpt>
      <trkpt lat="42.51703" lon="0.14471">
        <ele>617.9</ele>
        <time>2016-07-23T12:02:06Z</time>
      </trkpt>
      <trkpt lat="42.51699" lon="0.14475">
        <ele>617.9</ele>
        <time>2016-07-23T12:02:07Z</time>
      </trkpt>
      <trkpt lat="42.51695" lon="0.14479">
        <ele>617.8</ele>
        <time>2016-07-23T12:02:08Z</time>
      </trkpt>
      <trkpt lat="42.51691" lon="0.14483">
        <ele>617.8</ele>
        <time>2016-07-23T12:02:09Z</time>
      </trkpt>
      <trkpt lat="42.51687" lon="0.14486">
        <ele>617.7</ele>
        <time>2016-07-23T12:02:10Z</time>
      </trkpt>
      <trkpt lat="42.51683" lon="0.14491">
        <ele>617.7</ele>
        <time>2016-07-23T12:02:11Z</time>
      </trkpt>
      <trkpt lat="42.51679" lon="0.14496">
        <ele>617.6</ele>
        <time>2016-07-23T12:02:12Z</time>
      </trkpt>
      <trkpt lat="42.51674" lon="0.145">
        <ele>617.6</ele>
        <time>2016-07-23T12:02:13Z</time>
      </trkpt>
      <trkpt lat="42.5167" lon="0.14503">
        <ele>617.5</ele>
        <time>2016-07-23T12:02:14Z</time>
      </trkpt>
      <trkpt lat="42.51665" lon="0.14505">
        <ele>617.5</ele>
        <time>2016-07-23T12:02:15Z</time>
      </trkpt>
      <trkpt lat="42.5166" lon="0.14506">
        <ele>617.4</ele>
        <time>2016-07-23T12:02:16Z</time>
      </trkpt>
      <trkpt lat="42.51655" lon="0.14507">
        <ele>617.4</ele>
        <time>2016-07-23T12:02:17Z</time>
      </trkpt>
      <trkpt lat="42.5165" lon="0.14508">
        <ele>617.3</ele>
        <time>2016-07-23T12:02:18Z</time>
      </trkpt>
      <trkpt lat="42.51646" lon="0.1451">
        <ele>617.3</ele>
        <time>2016-07-23T12:02:19Z</time>
      </trkpt>
      <trkpt lat="42.51641" lon="0.14514">
        <ele>617.2</ele>
        <time>2016-07-23T12:02:20Z</time>
      </trkpt>
      <trkpt lat="42.51636" lon="0.14518">
        <ele>617.1</ele>
        <time>2016-07-23T12:02:21Z</time>
      </trkpt>
      <trkpt lat="42.51631" lon="0.14522">
        <ele>617.1</ele>
        <time>2016-07-23T12:02:22Z</time>
      </trkpt>
      <trkpt lat="42.51626" lon="0.14524">
        <ele>617</ele>
        <time>2016-07-23T12:02:23Z</time>
      </trkpt>
      <trkpt lat="42.5162" lon="0.14528">
        <ele>617</ele>
        <time>2016-07-23T12:02:24Z</time>
      </trkpt>
      <trkpt lat="42.51616" lon="0.14531">
        <ele>616.9</ele>
        <time>2016-07-23T12:02:25Z</time>
      </trkpt>
      <trkpt lat="42.51612" lon="0.14535">
        <ele>616.9</ele>
        <time>2016-07-23T12:02:26Z</time>
      </trkpt>
      <trkpt lat="42.51609" lon="0.1454">
        <ele>616.8</ele>
        <time>2016-07-23T12:02:27Z</time>
      </trkpt>
      <trkpt lat="42.51605" lon="0.14544">
        <ele>616.8</ele>
        <time>2016-07-23T12:02:28Z</time>
      </trkpt>
      <trkpt lat="42.51602" lon="0.14548">
        <ele>616.8</ele>
        <time>2016-07-23T12:02:29Z</time>
      </trkpt>
      <trkpt lat="42.51598" lon="0.14551">
        <ele>616.8</ele>
        <time>2016-07-23T12:02:30Z</time>
      </trkpt>
      <trkpt lat="42.51594" lon="0.14555">
        <ele>616.7</ele>
        <time>2016-07-23T12:02:31Z</time>
      </trkpt>
      <trkpt lat="42.5159" lon="0.14558">
        <ele>616.7</ele>
        <time>2016-07-23T12:02:32Z</time>
      </trkpt>
      <trkpt lat="42.51586" lon="0.14561">
        <ele>616.6</ele>
        <time>2016-07-23T12:02:33Z</time>
      </trkpt>
      <trkpt lat="42.51582" lon="0.14563">
        <ele>616.6</ele>
        <time>2016-07-23T12:02:34Z</time>
      </trkpt>
      <trkpt lat="42.51578" lon="0.14566">
        <ele>616.6</ele>
        <time>2016-07-23T12:02:35Z</time>
      </trkpt>
      <trkpt lat="42.51574" lon="0.14569">
        <ele>616.5</ele>
        <time>2016-07-23T12:02:36Z</time>
      </trkpt>
      <trkpt lat="42.5157" lon="0.14572">
        <ele>616.5</ele>
        <time>2016-07-23T12:02:37Z</time>
      </trkpt>
      <trkpt lat="42.51567" lon="0.14575">
        <ele>616.4</ele>
        <time>2016-07-23T12:02:38Z</time>
      </trkpt>
      <trkpt lat="42.51564" lon="0.1458">
        <ele>616.4</ele>
        <time>2016-07-23T12:02:39Z</time>
      </trkpt>
      <trkpt lat="42.51561" lon="0.14584">
        <ele>616.3</ele>
        <time>2016-07-23T12:02:40Z</time>
      </trkpt>
      <trkpt lat="42.51556" lon="0.1459">
        <ele>616.3</ele>
        <time>2016-07-23T12:02:41Z</time>
      </trkpt>
      <trkpt lat="42.51552" lon="0.14595">
        <ele>616.2</ele>
        <time>2016-07-23T12:02:42Z</time>
      </trkpt>
      <trkpt lat="42.51548" lon="0.146">
        <ele>616.1</ele>
        <time>2016-07-23T12:02:43Z</time>
      </trkpt>
      <trkpt lat="42.51545" lon="0.14606">
        <ele>616.1</ele>
        <time>2016-07-23T12:02:44Z</time>
      </trkpt>
      <trkpt lat="42.51542" lon="0.14609">
        <ele>616</ele>
        <time>2016-07-23T12:02:45Z</time>
      </trkpt>
      <trkpt lat="42.51537" lon="0.14612">
        <ele>615.9</ele>
        <time>2016-07-23T12:02:46Z</time>
      </trkpt>
      <trkpt lat="42.51533" lon="0.14614">
        <ele>615.8</ele>
        <time>2016-07-23T12:02:47Z</time>
      </trkpt>
      <trkpt lat="42.51529" lon="0.14616">
        <ele>615.7</ele>
        <time>2016-07-23T12:02:48Z</time>
      </trkpt>
      <trkpt lat="42.51524" lon="0.14616">
        <ele>615.6</ele>
        <time>2016-07-23T12:02:49Z</time>
      </trkpt>
      <trkpt lat="42.51519" lon="0.14617">
        <ele>615.5</ele>
        <time>2016-07-23T12:02:50Z</time>
      </trkpt>
      <trkpt lat="42.51514" lon="0.14618">
        <ele>615.4</ele>
        <time>2016-07-23T12:02:51Z</time>
      </trkpt>
      <trkpt lat="42.51508" lon="0.14618">
        <ele>615.2</ele>
        <time>2016-07-23T12:02:52Z</time>
      </trkpt>
      <trkpt lat="42.51504" lon="0.1462">
        <ele>615.1</ele>
        <time>2016-07-23T12:02:53Z</time>
      </trkpt>
      <trkpt lat="42.51498" lon="0.14621">
        <ele>615</ele>
        <time>2016-07-23T12:02:54Z</time>
      </trkpt>
      <trkpt lat="42.51493" lon="0.14622">
        <ele>614.8</ele>
        <time>2016-07-23T12:02:55Z</time>
      </trkpt>
      <trkpt lat="42.51488" lon="0.14623">
        <ele>614.7</ele>
        <time>2016-07-23T12:02:56Z</time>
      </trkpt>
      <trkpt lat="42.51483" lon="0.14626">
        <ele>614.7</ele>
        <time>2016-07-23T12:02:57Z</time>
      </trkpt>
      <trkpt lat="42.51477" lon="0.14627">
        <ele>614.6</ele>
        <time>2016-07-23T12:02:58Z</time>
      </trkpt>
      <trkpt lat="42.51471" lon="0.1463">
        <ele>614.7</ele>
        <time>2016-07-23T12:02:59Z</time>
      </trkpt>
      <trkpt lat="42.51466" lon="0.14632">
        <ele>614.7</ele>
        <time>2016-07-23T12:03:00Z</time>
      </trkpt>
      <trkpt lat="42.5146" lon="0.14635">
        <ele>614.8</ele>
        <time>2016-07-23T12:03:01Z</time>
      </trkpt>
      <trkpt lat="42.51454" lon="0.14637">
        <ele>614.8</ele>
        <time>2016-07-23T12:03:02Z</time>
      </trkpt>
      <trkpt lat="42.51449" lon="0.14639">
        <ele>615</ele>
        <time>2016-07-23T12:03:03Z</time>
      </trkpt>
      <trkpt lat="42.51443" lon="0.1464">
        <ele>615</ele>
        <time>2016-07-23T12:03:04Z</time>
      </trkpt>
      <trkpt lat="42.51437" lon="0.14642">
        <ele>615.2</ele>
        <time>2016-07-23T12:03:05Z</time>
      </trkpt>
      <trkpt lat="42.51432" lon="0.14643">
        <ele>615.2</ele>
        <time>2016-07-23T12:03:06Z</time>
      </trkpt>
      <trkpt lat="42.51427" lon="0.14643">
        <ele>615.2</ele>
        <time>2016-07-23T12:03:07Z</time>
      </trkpt>
      <trkpt lat="42.51421" lon="0.14642">
        <ele>615.1</ele>
        <time>2016-07-23T12:03:08Z</time>
      </trkpt>
      <trkpt lat="42.51416" lon="0.1464">
        <ele>615</ele>
        <time>2016-07-23T12:03:09Z</time>
      </trkpt>
      <trkpt lat="42.51411" lon="0.14638">
        <ele>614.9</ele>
        <time>2016-07-23T12:03:10Z</time>
      </trkpt>
      <trkpt lat="42.51406" lon="0.14638">
        <ele>614.8</ele>
        <time>2016-07-23T12:03:11Z</time>
      </trkpt>
      <trkpt lat="42.51401" lon="0.14636">
        <ele>614.7</ele>
        <time>2016-07-23T12:03:12Z</time>
      </trkpt>
      <trkpt lat="42.51395" lon="0.14635">
        <ele>614.6</ele>
        <time>2016-07-23T12:03:13Z</time>
      </trkpt>
      <trkpt lat="42.5139" lon="0.14634">
        <ele>614.6</ele>
        <time>2016-07-23T12:03:14Z</time>
      </trkpt>
      <trkpt lat="42.51385" lon="0.14633">
        <ele>614.5</ele>
        <time>2016-07-23T12:03:15Z</time>
      </trkpt>
      <trkpt lat="42.51379" lon="0.14631">
        <ele>614.3</ele>
        <time>2016-07-23T12:03:16Z</time>
      </trkpt>
      <trkpt lat="42.51374" lon="0.14629">
        <ele>614.3</ele>
        <time>2016-07-23T12:03:17Z</time>
      </trkpt>
      <trkpt lat="42.51369" lon="0.14629">
        <ele>614.4</ele>
        <time>2016-07-23T12:03:18Z</time>
      </trkpt>
      <trkpt lat="42.51364" lon="0.14627">
        <ele>614.4</ele>
        <time>2016-07-23T12:03:19Z</time>
      </trkpt>
      <trkpt lat="42.5136" lon="0.14626">
        <ele>614.4</ele>
        <time>2016-07-23T12:03:20Z</time>
      </trkpt>
      <trkpt lat="42.51355" lon="0.14624">
        <ele>614.5</ele>
        <time>2016-07-23T12:03:21Z</time>
      </trkpt>
      <trkpt lat="42.5135" lon="0.14624">
        <ele>614.6</ele>
        <time>2016-07-23T12:03:22Z</time>
      </trkpt>
      <trkpt lat="42.51345" lon="0.14625">
        <ele>614.7</ele>
        <time>2016-07-23T12:03:23Z</time>
      </trkpt>
      <trkpt lat="42.51341" lon="0.14627">
        <ele>615</ele>
        <time>2016-07-23T12:03:24Z</time>
      </trkpt>
      <trkpt lat="42.51337" lon="0.14629">
        <ele>615.3</ele>
        <time>2016-07-23T12:03:25Z</time>
      </trkpt>
      <trkpt lat="42.51334" lon="0.14635">
        <ele>616</ele>
        <time>2016-07-23T12:03:26Z</time>
      </trkpt>
      <trkpt lat="42.51331" lon="0.14638">
        <ele>616.4</ele>
        <time>2016-07-23T12:03:27Z</time>
      </trkpt>
      <trkpt lat="42.51327" lon="0.14642">
        <ele>617</ele>
        <time>2016-07-23T12:03:28Z</time>
      </trkpt>
      <trkpt lat="42.51324" lon="0.14647">
        <ele>617.6</ele>
        <time>2016-07-23T12:03:29Z</time>
      </trkpt>
      <trkpt lat="42.51322" lon="0.14652">
        <ele>618.4</ele>
        <time>2016-07-23T12:03:30Z</time>
      </trkpt>
      <trkpt lat="42.51319" lon="0.14657">
        <ele>619</ele>
        <time>2016-07-23T12:03:31Z</time>
      </trkpt>
      <trkpt lat="42.51317" lon="0.14661">
        <ele>619.6</ele>
        <time>2016-07-23T12:03:32Z</time>
      </trkpt>
      <trkpt lat="42.51315" lon="0.14665">
        <ele>620.3</ele>
        <time>2016-07-23T12:03:33Z</time>
      </trkpt>
      <trkpt lat="42.51313" lon="0.14669">
        <ele>620.9</ele>
        <time>2016-07-23T12:03:34Z</time>
      </trkpt>
      <trkpt lat="42.51311" lon="0.14673">
        <ele>621.5</ele>
        <time>2016-07-23T12:03:35Z</time>
      </trkpt>
      <trkpt lat="42.51309" lon="0.14676">
        <ele>622</ele>
        <time>2016-07-23T12:03:36Z</time>
      </trkpt>
      <trkpt lat="42.51306" lon="0.14679">
        <ele>622.6</ele>
        <time>2016-07-23T12:03:37Z</time>
      </trkpt>
      <trkpt lat="42.51304" lon="0.14682">
        <ele>623.2</ele>
        <time>2016-07-23T12:03:38Z</time>
      </trkpt>
      <trkpt lat="42.51302" lon="0.14685">
        <ele>623.8</ele>
        <time>2016-07-23T12:03:39Z</time>
      </trkpt>
      <trkpt lat="42.51299" lon="0.14688">
        <ele>624.4</ele>
        <time>2016-07-23T12:03:40Z</time>
      </trkpt>
      <trkpt lat="42.51297" lon="0.14692">
        <ele>625.2</ele>
        <time>2016-07-23T12:03:41Z</time>
      </trkpt>
      <trkpt lat="42.51295" lon="0.14696">
        <ele>625.9</ele>
        <time>2016-07-23T12:03:42Z</time>
      </trkpt>
      <trkpt lat="42.51292" lon="0.147">
        <ele>626.8</ele>
        <time>2016-07-23T12:03:43Z</time>
      </trkpt>
      <trkpt lat="42.51288" lon="0.14703">
        <ele>627.6</ele>
        <time>2016-07-23T12:03:44Z</time>
      </trkpt>
      <trkpt lat="42.51285" lon="0.14705">
        <ele>628.2</ele>
        <time>2016-07-23T12:03:45Z</time>
      </trkpt>
      <trkpt lat="42.51281" lon="0.14705">
        <ele>628.7</ele>
        <time>2016-07-23T12:03:47Z</time>
      </trkpt>
      <trkpt lat="42.51279" lon="0.14702">
        <ele>628.4</ele>
        <time>2016-07-23T12:03:49Z</time>
      </trkpt>
      <trkpt lat="42.51276" lon="0.14698">
        <ele>628</ele>
        <time>2016-07-23T12:03:51Z</time>
      </trkpt>
      <trkpt lat="42.51273" lon="0.14692">
        <ele>627.4</ele>
        <time>2016-07-23T12:03:53Z</time>
      </trkpt>
      <trkpt lat="42.51271" lon="0.14688">
        <ele>626.9</ele>
        <time>2016-07-23T12:03:54Z</time>
      </trkpt>
      <trkpt lat="42.51268" lon="0.14684">
        <ele>626.4</ele>
        <time>2016-07-23T12:03:55Z</time>
      </trkpt>
      <trkpt lat="42.51266" lon="0.1468">
        <ele>625.9</ele>
        <time>2016-07-23T12:03:56Z</time>
      </trkpt>
      <trkpt lat="42.51264" lon="0.14676">
        <ele>625.5</ele>
        <time>2016-07-23T12:03:57Z</time>
      </trkpt>
      <trkpt lat="42.51262" lon="0.14673">
        <ele>625.1</ele>
        <time>2016-07-23T12:03:58Z</time>
      </trkpt>
      <trkpt lat="42.51259" lon="0.1467">
        <ele>624.8</ele>
        <time>2016-07-23T12:03:59Z</time>
      </trkpt>
      <trkpt lat="42.51256" lon="0.14667">
        <ele>624.4</ele>
        <time>2016-07-23T12:04:00Z</time>
      </trkpt>
      <trkpt lat="42.51253" lon="0.14664">
        <ele>624.1</ele>
        <time>2016-07-23T12:04:01Z</time>
      </trkpt>
      <trkpt lat="42.51249" lon="0.14661">
        <ele>623.8</ele>
        <time>2016-07-23T12:04:02Z</time>
      </trkpt>
      <trkpt lat="42.51244" lon="0.14658">
        <ele>623.5</ele>
        <time>2016-07-23T12:04:03Z</time>
      </trkpt>
      <trkpt lat="42.5124" lon="0.14655">
        <ele>623.2</ele>
        <time>2016-07-23T12:04:04Z</time>
      </trkpt>
      <trkpt lat="42.51234" lon="0.14653">
        <ele>623</ele>
        <time>2016-07-23T12:04:05Z</time>
      </trkpt>
      <trkpt lat="42.51229" lon="0.1465">
        <ele>622.8</ele>
        <time>2016-07-23T12:04:06Z</time>
      </trkpt>
      <trkpt lat="42.51223" lon="0.14648">
        <ele>622.6</ele>
        <time>2016-07-23T12:04:07Z</time>
      </trkpt>
      <trkpt lat="42.51217" lon="0.14646">
        <ele>622.4</ele>
        <time>2016-07-23T12:04:08Z</time>
      </trkpt>
      <trkpt lat="42.51211" lon="0.14645">
        <ele>622.3</ele>
        <time>2016-07-23T12:04:09Z</time>
      </trkpt>
      <trkpt lat="42.51205" lon="0.14643">
        <ele>621.8</ele>
        <time>2016-07-23T12:04:10Z</time>
      </trkpt>
      <trkpt lat="42.51199" lon="0.14642">
        <ele>621.1</ele>
        <time>2016-07-23T12:04:11Z</time>
      </trkpt>
      <trkpt lat="42.51193" lon="0.14641">
        <ele>620.5</ele>
        <time>2016-07-23T12:04:12Z</time>
      </trkpt>
      <trkpt lat="42.51187" lon="0.1464">
        <ele>619.8</ele>
        <time>2016-07-23T12:04:13Z</time>
      </trkpt>
      <trkpt lat="42.51181" lon="0.14639">
        <ele>619.2</ele>
        <time>2016-07-23T12:04:14Z</time>
      </trkpt>
      <trkpt lat="42.51175" lon="0.14639">
        <ele>618.7</ele>
        <time>2016-07-23T12:04:15Z</time>
      </trkpt>
      <trkpt lat="42.51169" lon="0.14638">
        <ele>618.1</ele>
        <time>2016-07-23T12:04:16Z</time>
      </trkpt>
      <trkpt lat="42.51163" lon="0.14638">
        <ele>617.6</ele>
        <time>2016-07-23T12:04:17Z</time>
      </trkpt>
      <trkpt lat="42.51157" lon="0.14637">
        <ele>617</ele>
        <time>2016-07-23T12:04:18Z</time>
      </trkpt>
      <trkpt lat="42.51151" lon="0.14636">
        <ele>616.4</ele>
        <time>2016-07-23T12:04:19Z</time>
      </trkpt>
      <trkpt lat="42.51144" lon="0.14636">
        <ele>615.8</ele>
        <time>2016-07-23T12:04:20Z</time>
      </trkpt>
      <trkpt lat="42.51138" lon="0.14638">
        <ele>615.6</ele>
        <time>2016-07-23T12:04:21Z</time>
      </trkpt>
      <trkpt lat="42.51131" lon="0.14639">
        <ele>615.3</ele>
        <time>2016-07-23T12:04:22Z</time>
      </trkpt>
      <trkpt lat="42.51124" lon="0.1464">
        <ele>615</ele>
        <time>2016-07-23T12:04:23Z</time>
      </trkpt>
      <trkpt lat="42.51117" lon="0.14641">
        <ele>614.6</ele>
        <time>2016-07-23T12:04:24Z</time>
      </trkpt>
      <trkpt lat="42.51109" lon="0.14641">
        <ele>614.1</ele>
        <time>2016-07-23T12:04:25Z</time>
      </trkpt>
      <trkpt lat="42.51102" lon="0.1464">
        <ele>613.6</ele>
        <time>2016-07-23T12:04:26Z</time>
      </trkpt>
      <trkpt lat="42.51097" lon="0.14637">
        <ele>613</ele>
        <time>2016-07-23T12:04:27Z</time>
      </trkpt>
      <trkpt lat="42.51091" lon="0.14632">
        <ele>612.4</ele>
        <time>2016-07-23T12:04:28Z</time>
      </trkpt>
      <trkpt lat="42.51086" lon="0.14628">
        <ele>611.8</ele>
        <time>2016-07-23T12:04:29Z</time>
      </trkpt>
      <trkpt lat="42.51081" lon="0.14623">
        <ele>611.4</ele>
        <time>2016-07-23T12:04:30Z</time>
      </trkpt>
      <trkpt lat="42.51076" lon="0.1462">
        <ele>611.2</ele>
        <time>2016-07-23T12:04:31Z</time>
      </trkpt>
      <trkpt lat="42.5107" lon="0.14618">
        <ele>611</ele>
        <time>2016-07-23T12:04:32Z</time>
      </trkpt>
      <trkpt lat="42.51064" lon="0.14618">
        <ele>610.8</ele>
        <time>2016-07-23T12:04:33Z</time>
      </trkpt>
      <trkpt lat="42.51057" lon="0.14619">
        <ele>610.6</ele>
        <time>2016-07-23T12:04:34Z</time>
      </trkpt>
      <trkpt lat="42.51051" lon="0.1462">
        <ele>610.4</ele>
        <time>2016-07-23T12:04:35Z</time>
      </trkpt>
      <trkpt lat="42.51045" lon="0.14622">
        <ele>610.2</ele>
        <time>2016-07-23T12:04:36Z</time>
      </trkpt>
      <trkpt lat="42.51039" lon="0.14626">
        <ele>610</ele>
        <time>2016-07-23T12:04:37Z</time>
      </trkpt>
      <trkpt lat="42.51034" lon="0.1463">
        <ele>610</ele>
        <time>2016-07-23T12:04:38Z</time>
      </trkpt>
      <trkpt lat="42.51028" lon="0.14635">
        <ele>610</ele>
        <time>2016-07-23T12:04:39Z</time>
      </trkpt>
      <trkpt lat="42.51023" lon="0.1464">
        <ele>610</ele>
        <time>2016-07-23T12:04:40Z</time>
      </trkpt>
      <trkpt lat="42.51018" lon="0.14644">
        <ele>609.9</ele>
        <time>2016-07-23T12:04:41Z</time>
      </trkpt>
      <trkpt lat="42.51012" lon="0.14648">
        <ele>609.9</ele>
        <time>2016-07-23T12:04:42Z</time>
      </trkpt>
      <trkpt lat="42.51007" lon="0.14654">
        <ele>609.9</ele>
        <time>2016-07-23T12:04:43Z</time>
      </trkpt>
      <trkpt lat="42.51002" lon="0.14659">
        <ele>609.8</ele>
        <time>2016-07-23T12:04:44Z</time>
      </trkpt>
      <trkpt lat="42.50996" lon="0.14663">
        <ele>609.8</ele>
        <time>2016-07-23T12:04:45Z</time>
      </trkpt>
      <trkpt lat="42.50989" lon="0.14667">
        <ele>609.7</ele>
        <time>2016-07-23T12:04:46Z</time>
      </trkpt>
      <trkpt lat="42.50983" lon="0.1467">
        <ele>609.6</ele>
        <time>2016-07-23T12:04:47Z</time>
      </trkpt>
      <trkpt lat="42.50976" lon="0.14675">
        <ele>609.5</ele>
        <time>2016-07-23T12:04:48Z</time>
      </trkpt>
      <trkpt lat="42.5097" lon="0.1468">
        <ele>609.4</ele>
        <time>2016-07-23T12:04:49Z</time>
      </trkpt>
      <trkpt lat="42.50963" lon="0.14685">
        <ele>609.3</ele>
        <time>2016-07-23T12:04:50Z</time>
      </trkpt>
      <trkpt lat="42.50956" lon="0.14689">
        <ele>609.3</ele>
        <time>2016-07-23T12:04:51Z</time>
      </trkpt>
      <trkpt lat="42.5095" lon="0.14694">
        <ele>609.2</ele>
        <time>2016-07-23T12:04:52Z</time>
      </trkpt>
      <trkpt lat="42.50945" lon="0.14699">
        <ele>609.2</ele>
        <time>2016-07-23T12:04:53Z</time>
      </trkpt>
      <trkpt lat="42.50939" lon="0.14703">
        <ele>609.1</ele>
        <time>2016-07-23T12:04:54Z</time>
      </trkpt>
      <trkpt lat="42.50934" lon="0.14707">
        <ele>609</ele>
        <time>2016-07-23T12:04:55Z</time>
      </trkpt>
      <trkpt lat="42.50927" lon="0.14712">
        <ele>609.2</ele>
        <time>2016-07-23T12:04:56Z</time>
      </trkpt>
      <trkpt lat="42.50922" lon="0.14717">
        <ele>609.6</ele>
        <time>2016-07-23T12:04:57Z</time>
      </trkpt>
      <trkpt lat="42.50918" lon="0.14724">
        <ele>610</ele>
        <time>2016-07-23T12:04:58Z</time>
      </trkpt>
      <trkpt lat="42.50912" lon="0.14728">
        <ele>610.3</ele>
        <time>2016-07-23T12:04:59Z</time>
      </trkpt>
      <trkpt lat="42.50907" lon="0.14731">
        <ele>610.4</ele>
        <time>2016-07-23T12:05:00Z</time>
      </trkpt>
      <trkpt lat="42.50901" lon="0.14734">
        <ele>610.5</ele>
        <time>2016-07-23T12:05:01Z</time>
      </trkpt>
      <trkpt lat="42.50896" lon="0.14735">
        <ele>610.5</ele>
        <time>2016-07-23T12:05:02Z</time>
      </trkpt>
      <trkpt lat="42.5089" lon="0.14736">
        <ele>610.5</ele>
        <time>2016-07-23T12:05:03Z</time>
      </trkpt>
      <trkpt lat="42.50884" lon="0.14737">
        <ele>610.5</ele>
        <time>2016-07-23T12:05:04Z</time>
      </trkpt>
      <trkpt lat="42.50879" lon="0.14738">
        <ele>610.4</ele>
        <time>2016-07-23T12:05:05Z</time>
      </trkpt>
      <trkpt lat="42.50874" lon="0.14741">
        <ele>610.6</ele>
        <time>2016-07-23T12:05:06Z</time>
      </trkpt>
      <trkpt lat="42.50869" lon="0.14745">
        <ele>610.7</ele>
        <time>2016-07-23T12:05:07Z</time>
      </trkpt>
      <trkpt lat="42.50863" lon="0.14747">
        <ele>610.8</ele>
        <time>2016-07-23T12:05:08Z</time>
      </trkpt>
      <trkpt lat="42.50858" lon="0.1475">
        <ele>610.9</ele>
        <time>2016-07-23T12:05:09Z</time>
      </trkpt>
      <trkpt lat="42.50853" lon="0.14754">
        <ele>611</ele>
        <time>2016-07-23T12:05:10Z</time>
      </trkpt>
      <trkpt lat="42.50847" lon="0.14758">
        <ele>611</ele>
        <time>2016-07-23T12:05:11Z</time>
      </trkpt>
      <trkpt lat="42.50843" lon="0.14761">
        <ele>611.1</ele>
        <time>2016-07-23T12:05:12Z</time>
      </trkpt>
      <trkpt lat="42.50838" lon="0.14765">
        <ele>611.1</ele>
        <time>2016-07-23T12:05:13Z</time>
      </trkpt>
      <trkpt lat="42.50834" lon="0.14767">
        <ele>611.1</ele>
        <time>2016-07-23T12:05:14Z</time>
      </trkpt>
      <trkpt lat="42.50829" lon="0.1477">
        <ele>611</ele>
        <time>2016-07-23T12:05:15Z</time>
      </trkpt>
      <trkpt lat="42.50826" lon="0.1477">
        <ele>611</ele>
        <time>2016-07-23T12:05:16Z</time>
      </trkpt>
      <trkpt lat="42.50822" lon="0.14771">
        <ele>610.9</ele>
        <time>2016-07-23T12:05:17Z</time>
      </trkpt>
      <trkpt lat="42.50817" lon="0.14771">
        <ele>610.8</ele>
        <time>2016-07-23T12:05:18Z</time>
      </trkpt>
      <trkpt lat="42.50813" lon="0.1477">
        <ele>610.7</ele>
        <time>2016-07-23T12:05:19Z</time>
      </trkpt>
      <trkpt lat="42.50809" lon="0.14773">
        <ele>610.6</ele>
        <time>2016-07-23T12:05:20Z</time>
      </trkpt>
      <trkpt lat="42.50806" lon="0.14775">
        <ele>610.5</ele>
        <time>2016-07-23T12:05:21Z</time>
      </trkpt>
      <trkpt lat="42.50801" lon="0.14777">
        <ele>610.4</ele>
        <time>2016-07-23T12:05:22Z</time>
      </trkpt>
      <trkpt lat="42.50797" lon="0.14779">
        <ele>610.3</ele>
        <time>2016-07-23T12:05:23Z</time>
      </trkpt>
      <trkpt lat="42.50792" lon="0.1478">
        <ele>610.1</ele>
        <time>2016-07-23T12:05:24Z</time>
      </trkpt>
      <trkpt lat="42.50788" lon="0.14781">
        <ele>609.9</ele>
        <time>2016-07-23T12:05:25Z</time>
      </trkpt>
      <trkpt lat="42.50783" lon="0.1478">
        <ele>609.7</ele>
        <time>2016-07-23T12:05:26Z</time>
      </trkpt>
      <trkpt lat="42.5078" lon="0.14781">
        <ele>609.5</ele>
        <time>2016-07-23T12:05:27Z</time>
      </trkpt>
      <trkpt lat="42.50776" lon="0.14781">
        <ele>609.2</ele>
        <time>2016-07-23T12:05:28Z</time>
      </trkpt>
      <trkpt lat="42.50772" lon="0.14781">
        <ele>609</ele>
        <time>2016-07-23T12:05:29Z</time>
      </trkpt>
      <trkpt lat="42.50768" lon="0.14781">
        <ele>608.8</ele>
        <time>2016-07-23T12:05:30Z</time>
      </trkpt>
      <trkpt lat="42.50764" lon="0.14781">
        <ele>608.5</ele>
        <time>2016-07-23T12:05:31Z</time>
      </trkpt>
      <trkpt lat="42.5076" lon="0.14781">
        <ele>608.3</ele>
        <time>2016-07-23T12:05:32Z</time>
      </trkpt>
      <trkpt lat="42.50756" lon="0.14781">
        <ele>608.1</ele>
        <time>2016-07-23T12:05:33Z</time>
      </trkpt>
      <trkpt lat="42.50753" lon="0.14782">
        <ele>607.9</ele>
        <time>2016-07-23T12:05:34Z</time>
      </trkpt>
      <trkpt lat="42.5075" lon="0.14781">
        <ele>607.7</ele>
        <time>2016-07-23T12:05:35Z</time>
      </trkpt>
      <trkpt lat="42.50746" lon="0.14781">
        <ele>607.5</ele>
        <time>2016-07-23T12:05:36Z</time>
      </trkpt>
      <trkpt lat="42.50742" lon="0.14781">
        <ele>607.3</ele>
        <time>2016-07-23T12:05:37Z</time>
      </trkpt>
      <trkpt lat="42.50737" lon="0.14782">
        <ele>607</ele>
        <time>2016-07-23T12:05:38Z</time>
      </trkpt>
      <trkpt lat="42.50732" lon="0.14783">
        <ele>606.7</ele>
        <time>2016-07-23T12:05:39Z</time>
      </trkpt>
      <trkpt lat="42.50727" lon="0.14785">
        <ele>606.4</ele>
        <time>2016-07-23T12:05:40Z</time>
      </trkpt>
      <trkpt lat="42.50723" lon="0.14788">
        <ele>606</ele>
        <time>2016-07-23T12:05:41Z</time>
      </trkpt>
      <trkpt lat="42.50718" lon="0.14791">
        <ele>605.6</ele>
        <time>2016-07-23T12:05:42Z</time>
      </trkpt>
      <trkpt lat="42.50713" lon="0.14793">
        <ele>605.5</ele>
        <time>2016-07-23T12:05:43Z</time>
      </trkpt>
      <trkpt lat="42.50707" lon="0.14796">
        <ele>605.7</ele>
        <time>2016-07-23T12:05:44Z</time>
      </trkpt>
      <trkpt lat="42.50702" lon="0.14797">
        <ele>605.9</ele>
        <time>2016-07-23T12:05:45Z</time>
      </trkpt>
      <trkpt lat="42.50697" lon="0.14798">
        <ele>606.1</ele>
        <time>2016-07-23T12:05:46Z</time>
      </trkpt>
      <trkpt lat="42.50694" lon="0.14799">
        <ele>606.4</ele>
        <time>2016-07-23T12:05:47Z</time>
      </trkpt>
      <trkpt lat="42.50689" lon="0.14801">
        <ele>606.6</ele>
        <time>2016-07-23T12:05:48Z</time>
      </trkpt>
      <trkpt lat="42.50685" lon="0.14805">
        <ele>607.1</ele>
        <time>2016-07-23T12:05:49Z</time>
      </trkpt>
      <trkpt lat="42.50681" lon="0.14808">
        <ele>607.4</ele>
        <time>2016-07-23T12:05:50Z</time>
      </trkpt>
      <trkpt lat="42.50678" lon="0.14811">
        <ele>607.8</ele>
        <time>2016-07-23T12:05:51Z</time>
      </trkpt>
      <trkpt lat="42.50675" lon="0.14815">
        <ele>608.2</ele>
        <time>2016-07-23T12:05:52Z</time>
      </trkpt>
      <trkpt lat="42.50671" lon="0.14819">
        <ele>608.6</ele>
        <time>2016-07-23T12:05:53Z</time>
      </trkpt>
      <trkpt lat="42.50668" lon="0.14823">
        <ele>608.9</ele>
        <time>2016-07-23T12:05:54Z</time>
      </trkpt>
      <trkpt lat="42.50664" lon="0.14826">
        <ele>609</ele>
        <time>2016-07-23T12:05:55Z</time>
      </trkpt>
      <trkpt lat="42.50661" lon="0.1483">
        <ele>609.3</ele>
        <time>2016-07-23T12:05:56Z</time>
      </trkpt>
      <trkpt lat="42.50657" lon="0.14834">
        <ele>609.4</ele>
        <time>2016-07-23T12:05:57Z</time>
      </trkpt>
      <trkpt lat="42.50654" lon="0.14837">
        <ele>609.5</ele>
        <time>2016-07-23T12:05:58Z</time>
      </trkpt>
      <trkpt lat="42.50651" lon="0.14841">
        <ele>609.6</ele>
        <time>2016-07-23T12:05:59Z</time>
      </trkpt>
      <trkpt lat="42.50648" lon="0.14843">
        <ele>609.5</ele>
        <time>2016-07-23T12:06:00Z</time>
      </trkpt>
      <trkpt lat="42.50644" lon="0.14845">
        <ele>609.5</ele>
        <time>2016-07-23T12:06:01Z</time>
      </trkpt>
      <trkpt lat="42.50641" lon="0.14848">
        <ele>609.4</ele>
        <time>2016-07-23T12:06:02Z</time>
      </trkpt>
      <trkpt lat="42.50638" lon="0.1485">
        <ele>609.3</ele>
        <time>2016-07-23T12:06:03Z</time>
      </trkpt>
      <trkpt lat="42.50634" lon="0.14852">
        <ele>609.1</ele>
        <time>2016-07-23T12:06:04Z</time>
      </trkpt>
      <trkpt lat="42.50631" lon="0.14854">
        <ele>608.9</ele>
        <time>2016-07-23T12:06:05Z</time>
      </trkpt>
      <trkpt lat="42.50627" lon="0.14855">
        <ele>608.7</ele>
        <time>2016-07-23T12:06:06Z</time>
      </trkpt>
      <trkpt lat="42.50624" lon="0.14857">
        <ele>608.5</ele>
        <time>2016-07-23T12:06:07Z</time>
      </trkpt>
      <trkpt lat="42.5062" lon="0.14858">
        <ele>608.5</ele>
        <time>2016-07-23T12:06:08Z</time>
      </trkpt>
      <trkpt lat="42.50616" lon="0.14859">
        <ele>608.4</ele>
        <time>2016-07-23T12:06:09Z</time>
      </trkpt>
      <trkpt lat="42.50612" lon="0.1486">
        <ele>608.3</ele>
        <time>2016-07-23T12:06:10Z</time>
      </trkpt>
      <trkpt lat="42.50608" lon="0.14861">
        <ele>608.2</ele>
        <time>2016-07-23T12:06:11Z</time>
      </trkpt>
      <trkpt lat="42.50604" lon="0.14861">
        <ele>608.1</ele>
        <time>2016-07-23T12:06:12Z</time>
      </trkpt>
      <trkpt lat="42.50598" lon="0.14863">
        <ele>608</ele>
        <time>2016-07-23T12:06:13Z</time>
      </trkpt>
      <trkpt lat="42.50595" lon="0.14863">
        <ele>607.9</ele>
        <time>2016-07-23T12:06:14Z</time>
      </trkpt>
      <trkpt lat="42.50591" lon="0.14863">
        <ele>607.8</ele>
        <time>2016-07-23T12:06:15Z</time>
      </trkpt>
      <trkpt lat="42.50587" lon="0.14864">
        <ele>607.7</ele>
        <time>2016-07-23T12:06:17Z</time>
      </trkpt>
      <trkpt lat="42.50584" lon="0.1486">
        <ele>607.6</ele>
        <time>2016-07-23T12:06:19Z</time>
      </trkpt>
      <trkpt lat="42.50582" lon="0.14855">
        <ele>607.6</ele>
        <time>2016-07-23T12:06:20Z</time>
      </trkpt>
      <trkpt lat="42.50582" lon="0.1485">
        <ele>607.6</ele>
        <time>2016-07-23T12:06:21Z</time>
      </trkpt>
      <trkpt lat="42.50582" lon="0.14843">
        <ele>607.7</ele>
        <time>2016-07-23T12:06:22Z</time>
      </trkpt>
      <trkpt lat="42.50583" lon="0.14836">
        <ele>607.7</ele>
        <time>2016-07-23T12:06:23Z</time>
      </trkpt>
      <trkpt lat="42.50583" lon="0.14828">
        <ele>607.8</ele>
        <time>2016-07-23T12:06:24Z</time>
      </trkpt>
      <trkpt lat="42.50584" lon="0.14822">
        <ele>607.8</ele>
        <time>2016-07-23T12:06:25Z</time>
      </trkpt>
      <trkpt lat="42.50585" lon="0.14814">
        <ele>607.9</ele>
        <time>2016-07-23T12:06:26Z</time>
      </trkpt>
      <trkpt lat="42.50586" lon="0.14807">
        <ele>607.9</ele>
        <time>2016-07-23T12:06:27Z</time>
      </trkpt>
      <trkpt lat="42.50587" lon="0.14801">
        <ele>607.9</ele>
        <time>2016-07-23T12:06:28Z</time>
      </trkpt>
      <trkpt lat="42.50588" lon="0.14794">
        <ele>607.9</ele>
        <time>2016-07-23T12:06:29Z</time>
      </trkpt>
      <trkpt lat="42.50589" lon="0.14787">
        <ele>608</ele>
        <time>2016-07-23T12:06:30Z</time>
      </trkpt>
      <trkpt lat="42.5059" lon="0.14782">
        <ele>608.1</ele>
        <time>2016-07-23T12:06:31Z</time>
      </trkpt>
      <trkpt lat="42.50591" lon="0.14775">
        <ele>608.2</ele>
        <time>2016-07-23T12:06:32Z</time>
      </trkpt>
      <trkpt lat="42.50591" lon="0.14768">
        <ele>608.4</ele>
        <time>2016-07-23T12:06:33Z</time>
      </trkpt>
      <trkpt lat="42.50592" lon="0.14761">
        <ele>608.5</ele>
        <time>2016-07-23T12:06:34Z</time>
      </trkpt>
      <trkpt lat="42.50593" lon="0.14756">
        <ele>608.6</ele>
        <time>2016-07-23T12:06:35Z</time>
      </trkpt>
      <trkpt lat="42.50593" lon="0.14749">
        <ele>608.8</ele>
        <time>2016-07-23T12:06:36Z</time>
      </trkpt>
      <trkpt lat="42.50594" lon="0.14742">
        <ele>609</ele>
        <time>2016-07-23T12:06:37Z</time>
      </trkpt>
      <trkpt lat="42.50594" lon="0.14735">
        <ele>609.1</ele>
        <time>2016-07-23T12:06:38Z</time>
      </trkpt>
      <trkpt lat="42.50594" lon="0.14728">
        <ele>609.3</ele>
        <time>2016-07-23T12:06:39Z</time>
      </trkpt>
      <trkpt lat="42.50594" lon="0.14721">
        <ele>609.4</ele>
        <time>2016-07-23T12:06:40Z</time>
      </trkpt>
      <trkpt lat="42.50594" lon="0.14715">
        <ele>609.6</ele>
        <time>2016-07-23T12:06:41Z</time>
      </trkpt>
      <trkpt lat="42.50594" lon="0.14709">
        <ele>609.7</ele>
        <time>2016-07-23T12:06:42Z</time>
      </trkpt>
      <trkpt lat="42.50595" lon="0.14702">
        <ele>609.7</ele>
        <time>2016-07-23T12:06:43Z</time>
      </trkpt>
      <trkpt lat="42.50595" lon="0.14696">
        <ele>609.7</ele>
        <time>2016-07-23T12:06:44Z</time>
      </trkpt>
      <trkpt lat="42.50595" lon="0.14689">
        <ele>609.6</ele>
        <time>2016-07-23T12:06:45Z</time>
      </trkpt>
      <trkpt lat="42.50596" lon="0.14682">
        <ele>609.6</ele>
        <time>2016-07-23T12:06:46Z</time>
      </trkpt>
      <trkpt lat="42.50596" lon="0.14675">
        <ele>609.5</ele>
        <time>2016-07-23T12:06:47Z</time>
      </trkpt>
      <trkpt lat="42.50596" lon="0.14669">
        <ele>609.5</ele>
        <time>2016-07-23T12:06:48Z</time>
      </trkpt>
      <trkpt lat="42.50597" lon="0.14663">
        <ele>609.5</ele>
        <time>2016-07-23T12:06:49Z</time>
      </trkpt>
      <trkpt lat="42.50598" lon="0.14657">
        <ele>609.5</ele>
        <time>2016-07-23T12:06:50Z</time>
      </trkpt>
      <trkpt lat="42.50598" lon="0.14651">
        <ele>609.4</ele>
        <time>2016-07-23T12:06:51Z</time>
      </trkpt>
      <trkpt lat="42.50599" lon="0.14645">
        <ele>609.4</ele>
        <time>2016-07-23T12:06:52Z</time>
      </trkpt>
      <trkpt lat="42.50601" lon="0.1464">
        <ele>609.4</ele>
        <time>2016-07-23T12:06:53Z</time>
      </trkpt>
      <trkpt lat="42.50602" lon="0.14633">
        <ele>609.5</ele>
        <time>2016-07-23T12:06:54Z</time>
      </trkpt>
      <trkpt lat="42.50602" lon="0.14628">
        <ele>609.4</ele>
        <time>2016-07-23T12:06:55Z</time>
      </trkpt>
      <trkpt lat="42.50602" lon="0.14623">
        <ele>609.5</ele>
        <time>2016-07-23T12:06:56Z</time>
      </trkpt>
      <trkpt lat="42.50598" lon="0.1462">
        <ele>609.5</ele>
        <time>2016-07-23T12:06:58Z</time>
      </trkpt>
      <trkpt lat="42.50595" lon="0.1462">
        <ele>609.4</ele>
        <time>2016-07-23T12:06:59Z</time>
      </trkpt>
      <trkpt lat="42.50593" lon="0.14623">
        <ele>609.3</ele>
        <time>2016-07-23T12:07:00Z</time>
      </trkpt>
      <trkpt lat="42.50592" lon="0.1463">
        <ele>609.2</ele>
        <time>2016-07-23T12:07:02Z</time>
      </trkpt>
      <trkpt lat="42.50592" lon="0.14641">
        <ele>609.3</ele>
        <time>2016-07-23T12:07:03Z</time>
      </trkpt>
      <trkpt lat="42.50591" lon="0.14648">
        <ele>609.4</ele>
        <time>2016-07-23T12:07:04Z</time>
      </trkpt>
      <trkpt lat="42.50591" lon="0.14656">
        <ele>609.4</ele>
        <time>2016-07-23T12:07:05Z</time>
      </trkpt>
      <trkpt lat="42.50589" lon="0.14663">
        <ele>609.5</ele>
        <time>2016-07-23T12:07:06Z</time>
      </trkpt>
      <trkpt lat="42.50588" lon="0.14671">
        <ele>609.5</ele>
        <time>2016-07-23T12:07:07Z</time>
      </trkpt>
      <trkpt lat="42.50585" lon="0.14678">
        <ele>609.6</ele>
        <time>2016-07-23T12:07:08Z</time>
      </trkpt>
      <trkpt lat="42.5058" lon="0.14684">
        <ele>609.7</ele>
        <time>2016-07-23T12:07:09Z</time>
      </trkpt>
      <trkpt lat="42.50576" lon="0.14688">
        <ele>609.9</ele>
        <time>2016-07-23T12:07:10Z</time>
      </trkpt>
      <trkpt lat="42.50571" lon="0.14692">
        <ele>610</ele>
        <time>2016-07-23T12:07:11Z</time>
      </trkpt>
      <trkpt lat="42.50566" lon="0.14696">
        <ele>610.1</ele>
        <time>2016-07-23T12:07:12Z</time>
      </trkpt>
      <trkpt lat="42.50561" lon="0.147">
        <ele>610.3</ele>
        <time>2016-07-23T12:07:13Z</time>
      </trkpt>
      <trkpt lat="42.50556" lon="0.14704">
        <ele>610.5</ele>
        <time>2016-07-23T12:07:14Z</time>
      </trkpt>
      <trkpt lat="42.5055" lon="0.14707">
        <ele>610.7</ele>
        <time>2016-07-23T12:07:15Z</time>
      </trkpt>
      <trkpt lat="42.50545" lon="0.1471">
        <ele>610.9</ele>
        <time>2016-07-23T12:07:16Z</time>
      </trkpt>
      <trkpt lat="42.5054" lon="0.14715">
        <ele>610.8</ele>
        <time>2016-07-23T12:07:17Z</time>
      </trkpt>
      <trkpt lat="42.50535" lon="0.14718">
        <ele>610.8</ele>
        <time>2016-07-23T12:07:18Z</time>
      </trkpt>
      <trkpt lat="42.5053" lon="0.14722">
        <ele>610.7</ele>
        <time>2016-07-23T12:07:19Z</time>
      </trkpt>
      <trkpt lat="42.50524" lon="0.14724">
        <ele>610.6</ele>
        <time>2016-07-23T12:07:20Z</time>
      </trkpt>
      <trkpt lat="42.50519" lon="0.14727">
        <ele>610.5</ele>
        <time>2016-07-23T12:07:21Z</time>
      </trkpt>
      <trkpt lat="42.50512" lon="0.1473">
        <ele>610.4</ele>
        <time>2016-07-23T12:07:22Z</time>
      </trkpt>
      <trkpt lat="42.50506" lon="0.14732">
        <ele>610.3</ele>
        <time>2016-07-23T12:07:23Z</time>
      </trkpt>
      <trkpt lat="42.505" lon="0.14734">
        <ele>610.2</ele>
        <time>2016-07-23T12:07:24Z</time>
      </trkpt>
      <trkpt lat="42.50495" lon="0.14737">
        <ele>610.1</ele>
        <time>2016-07-23T12:07:25Z</time>
      </trkpt>
      <trkpt lat="42.50488" lon="0.14737">
        <ele>610.1</ele>
        <time>2016-07-23T12:07:26Z</time>
      </trkpt>
      <trkpt lat="42.50482" lon="0.14737">
        <ele>610.1</ele>
        <time>2016-07-23T12:07:27Z</time>
      </trkpt>
      <trkpt lat="42.50476" lon="0.14737">
        <ele>610</ele>
        <time>2016-07-23T12:07:28Z</time>
      </trkpt>
      <trkpt lat="42.5047" lon="0.14737">
        <ele>610</ele>
        <time>2016-07-23T12:07:29Z</time>
      </trkpt>
      <trkpt lat="42.50463" lon="0.14738">
        <ele>609.9</ele>
        <time>2016-07-23T12:07:30Z</time>
      </trkpt>
      <trkpt lat="42.50455" lon="0.14738">
        <ele>610</ele>
        <time>2016-07-23T12:07:31Z</time>
      </trkpt>
      <trkpt lat="42.50448" lon="0.14739">
        <ele>610</ele>
        <time>2016-07-23T12:07:32Z</time>
      </trkpt>
      <trkpt lat="42.50441" lon="0.1474">
        <ele>610.1</ele>
        <time>2016-07-23T12:07:33Z</time>
      </trkpt>
      <trkpt lat="42.50434" lon="0.14742">
        <ele>610.1</ele>
        <time>2016-07-23T12:07:34Z</time>
      </trkpt>
      <trkpt lat="42.50427" lon="0.14742">
        <ele>610.2</ele>
        <time>2016-07-23T12:07:35Z</time>
      </trkpt>
      <trkpt lat="42.50419" lon="0.14742">
        <ele>610.3</ele>
        <time>2016-07-23T12:07:36Z</time>
      </trkpt>
      <trkpt lat="42.50413" lon="0.14742">
        <ele>610.3</ele>
        <time>2016-07-23T12:07:37Z</time>
      </trkpt>
      <trkpt lat="42.50406" lon="0.14743">
        <ele>610.4</ele>
        <time>2016-07-23T12:07:38Z</time>
      </trkpt>
      <trkpt lat="42.504" lon="0.14744">
        <ele>610.4</ele>
        <time>2016-07-23T12:07:39Z</time>
      </trkpt>
      <trkpt lat="42.50395" lon="0.14744">
        <ele>610.5</ele>
        <time>2016-07-23T12:07:40Z</time>
      </trkpt>
      <trkpt lat="42.5039" lon="0.14744">
        <ele>610.5</ele>
        <time>2016-07-23T12:07:41Z</time>
      </trkpt>
      <trkpt lat="42.50384" lon="0.14746">
        <ele>610.5</ele>
        <time>2016-07-23T12:07:42Z</time>
      </trkpt>
      <trkpt lat="42.50379" lon="0.14746">
        <ele>610.6</ele>
        <time>2016-07-23T12:07:43Z</time>
      </trkpt>
      <trkpt lat="42.50374" lon="0.14747">
        <ele>610.6</ele>
        <time>2016-07-23T12:07:44Z</time>
      </trkpt>
      <trkpt lat="42.50369" lon="0.14747">
        <ele>610.5</ele>
        <time>2016-07-23T12:07:45Z</time>
      </trkpt>
      <trkpt lat="42.50362" lon="0.14744">
        <ele>610.6</ele>
        <time>2016-07-23T12:07:46Z</time>
      </trkpt>
      <trkpt lat="42.50357" lon="0.14745">
        <ele>610.5</ele>
        <time>2016-07-23T12:07:47Z</time>
      </trkpt>
      <trkpt lat="42.50351" lon="0.14745">
        <ele>610.4</ele>
        <time>2016-07-23T12:07:48Z</time>
      </trkpt>
      <trkpt lat="42.50344" lon="0.14746">
        <ele>610.3</ele>
        <time>2016-07-23T12:07:49Z</time>
      </trkpt>
      <trkpt lat="42.50339" lon="0.14747">
        <ele>610.2</ele>
        <time>2016-07-23T12:07:50Z</time>
      </trkpt>
      <trkpt lat="42.50333" lon="0.14748">
        <ele>610.1</ele>
        <time>2016-07-23T12:07:51Z</time>
      </trkpt>
      <trkpt lat="42.50329" lon="0.14749">
        <ele>610</ele>
        <time>2016-07-23T12:07:52Z</time>
      </trkpt>
      <trkpt lat="42.50322" lon="0.1475">
        <ele>609.9</ele>
        <time>2016-07-23T12:07:53Z</time>
      </trkpt>
      <trkpt lat="42.50317" lon="0.1475">
        <ele>609.8</ele>
        <time>2016-07-23T12:07:54Z</time>
      </trkpt>
      <trkpt lat="42.50311" lon="0.1475">
        <ele>609.7</ele>
        <time>2016-07-23T12:07:55Z</time>
      </trkpt>
      <trkpt lat="42.50307" lon="0.14753">
        <ele>609.5</ele>
        <time>2016-07-23T12:07:56Z</time>
      </trkpt>
      <trkpt lat="42.50301" lon="0.14756">
        <ele>609.3</ele>
        <time>2016-07-23T12:07:57Z</time>
      </trkpt>
      <trkpt lat="42.50295" lon="0.14759">
        <ele>609</ele>
        <time>2016-07-23T12:07:58Z</time>
      </trkpt>
      <trkpt lat="42.5029" lon="0.14761">
        <ele>608.7</ele>
        <time>2016-07-23T12:07:59Z</time>
      </trkpt>
      <trkpt lat="42.50284" lon="0.14761">
        <ele>608.4</ele>
        <time>2016-07-23T12:08:00Z</time>
      </trkpt>
      <trkpt lat="42.50278" lon="0.1476">
        <ele>608.2</ele>
        <time>2016-07-23T12:08:01Z</time>
      </trkpt>
      <trkpt lat="42.50272" lon="0.14758">
        <ele>607.9</ele>
        <time>2016-07-23T12:08:02Z</time>
      </trkpt>
      <trkpt lat="42.50266" lon="0.14756">
        <ele>607.6</ele>
        <time>2016-07-23T12:08:03Z</time>
      </trkpt>
      <trkpt lat="42.50261" lon="0.14757">
        <ele>607.3</ele>
        <time>2016-07-23T12:08:04Z</time>
      </trkpt>
      <trkpt lat="42.50255" lon="0.14757">
        <ele>607</ele>
        <time>2016-07-23T12:08:05Z</time>
      </trkpt>
      <trkpt lat="42.50249" lon="0.14758">
        <ele>606.5</ele>
        <time>2016-07-23T12:08:06Z</time>
      </trkpt>
      <trkpt lat="42.50241" lon="0.14759">
        <ele>606.1</ele>
        <time>2016-07-23T12:08:07Z</time>
      </trkpt>
      <trkpt lat="42.50235" lon="0.14759">
        <ele>605.7</ele>
        <time>2016-07-23T12:08:08Z</time>
      </trkpt>
      <trkpt lat="42.50227" lon="0.14759">
        <ele>605.2</ele>
        <time>2016-07-23T12:08:09Z</time>
      </trkpt>
      <trkpt lat="42.5022" lon="0.14757">
        <ele>605</ele>
        <time>2016-07-23T12:08:10Z</time>
      </trkpt>
      <trkpt lat="42.50214" lon="0.14756">
        <ele>604.6</ele>
        <time>2016-07-23T12:08:11Z</time>
      </trkpt>
      <trkpt lat="42.50208" lon="0.14754">
        <ele>604.4</ele>
        <time>2016-07-23T12:08:12Z</time>
      </trkpt>
      <trkpt lat="42.50202" lon="0.14752">
        <ele>604.3</ele>
        <time>2016-07-23T12:08:13Z</time>
      </trkpt>
      <trkpt lat="42.50197" lon="0.14751">
        <ele>604.2</ele>
        <time>2016-07-23T12:08:14Z</time>
      </trkpt>
      <trkpt lat="42.5019" lon="0.14748">
        <ele>604.1</ele>
        <time>2016-07-23T12:08:15Z</time>
      </trkpt>
      <trkpt lat="42.50185" lon="0.14745">
        <ele>604.1</ele>
        <time>2016-07-23T12:08:16Z</time>
      </trkpt>
      <trkpt lat="42.50178" lon="0.14742">
        <ele>604</ele>
        <time>2016-07-23T12:08:17Z</time>
      </trkpt>
      <trkpt lat="42.50172" lon="0.1474">
        <ele>603.9</ele>
        <time>2016-07-23T12:08:18Z</time>
      </trkpt>
      <trkpt lat="42.50165" lon="0.14737">
        <ele>603.8</ele>
        <time>2016-07-23T12:08:19Z</time>
      </trkpt>
      <trkpt lat="42.5016" lon="0.14734">
        <ele>603.7</ele>
        <time>2016-07-23T12:08:20Z</time>
      </trkpt>
      <trkpt lat="42.50154" lon="0.14733">
        <ele>603.5</ele>
        <time>2016-07-23T12:08:21Z</time>
      </trkpt>
      <trkpt lat="42.50148" lon="0.14731">
        <ele>603.4</ele>
        <time>2016-07-23T12:08:22Z</time>
      </trkpt>
      <trkpt lat="42.50141" lon="0.14728">
        <ele>603.2</ele>
        <time>2016-07-23T12:08:23Z</time>
      </trkpt>
      <trkpt lat="42.50135" lon="0.14726">
        <ele>603.1</ele>
        <time>2016-07-23T12:08:24Z</time>
      </trkpt>
      <trkpt lat="42.50129" lon="0.14722">
        <ele>603</ele>
        <time>2016-07-23T12:08:25Z</time>
      </trkpt>
      <trkpt lat="42.50122" lon="0.1472">
        <ele>602.8</ele>
        <time>2016-07-23T12:08:26Z</time>
      </trkpt>
      <trkpt lat="42.50116" lon="0.1472">
        <ele>602.6</ele>
        <time>2016-07-23T12:08:27Z</time>
      </trkpt>
      <trkpt lat="42.50109" lon="0.14717">
        <ele>602.5</ele>
        <time>2016-07-23T12:08:28Z</time>
      </trkpt>
      <trkpt lat="42.50103" lon="0.14715">
        <ele>602.4</ele>
        <time>2016-07-23T12:08:29Z</time>
      </trkpt>
      <trkpt lat="42.50096" lon="0.14712">
        <ele>602.2</ele>
        <time>2016-07-23T12:08:30Z</time>
      </trkpt>
      <trkpt lat="42.50089" lon="0.1471">
        <ele>602.1</ele>
        <time>2016-07-23T12:08:31Z</time>
      </trkpt>
      <trkpt lat="42.50082" lon="0.14707">
        <ele>602</ele>
        <time>2016-07-23T12:08:32Z</time>
      </trkpt>
      <trkpt lat="42.50075" lon="0.14705">
        <ele>601.8</ele>
        <time>2016-07-23T12:08:33Z</time>
      </trkpt>
      <trkpt lat="42.50067" lon="0.14702">
        <ele>601.7</ele>
        <time>2016-07-23T12:08:34Z</time>
      </trkpt>
      <trkpt lat="42.5006" lon="0.14699">
        <ele>601.5</ele>
        <time>2016-07-23T12:08:35Z</time>
      </trkpt>
      <trkpt lat="42.50054" lon="0.14696">
        <ele>601.4</ele>
        <time>2016-07-23T12:08:36Z</time>
      </trkpt>
      <trkpt lat="42.50047" lon="0.14691">
        <ele>601.2</ele>
        <time>2016-07-23T12:08:37Z</time>
      </trkpt>
      <trkpt lat="42.50041" lon="0.14688">
        <ele>601</ele>
        <time>2016-07-23T12:08:38Z</time>
      </trkpt>
      <trkpt lat="42.50034" lon="0.14685">
        <ele>601</ele>
        <time>2016-07-23T12:08:39Z</time>
      </trkpt>
      <trkpt lat="42.50028" lon="0.14682">
        <ele>600.9</ele>
        <time>2016-07-23T12:08:40Z</time>
      </trkpt>
      <trkpt lat="42.50021" lon="0.14679">
        <ele>600.9</ele>
        <time>2016-07-23T12:08:41Z</time>
      </trkpt>
      <trkpt lat="42.50015" lon="0.14676">
        <ele>600.9</ele>
        <time>2016-07-23T12:08:42Z</time>
      </trkpt>
      <trkpt lat="42.50009" lon="0.14673">
        <ele>600.8</ele>
        <time>2016-07-23T12:08:43Z</time>
      </trkpt>
      <trkpt lat="42.50002" lon="0.14669">
        <ele>600.8</ele>
        <time>2016-07-23T12:08:44Z</time>
      </trkpt>
      <trkpt lat="42.49996" lon="0.14666">
        <ele>600.7</ele>
        <time>2016-07-23T12:08:45Z</time>
      </trkpt>
      <trkpt lat="42.49989" lon="0.14662">
        <ele>600.7</ele>
        <time>2016-07-23T12:08:46Z</time>
      </trkpt>
      <trkpt lat="42.49983" lon="0.14659">
        <ele>600.6</ele>
        <time>2016-07-23T12:08:47Z</time>
      </trkpt>
      <trkpt lat="42.49978" lon="0.14657">
        <ele>600.5</ele>
        <time>2016-07-23T12:08:48Z</time>
      </trkpt>
      <trkpt lat="42.49971" lon="0.14655">
        <ele>600.5</ele>
        <time>2016-07-23T12:08:49Z</time>
      </trkpt>
      <trkpt lat="42.49964" lon="0.14652">
        <ele>600.4</ele>
        <time>2016-07-23T12:08:50Z</time>
      </trkpt>
      <trkpt lat="42.49958" lon="0.14649">
        <ele>600.3</ele>
        <time>2016-07-23T12:08:51Z</time>
      </trkpt>
      <trkpt lat="42.49951" lon="0.14646">
        <ele>600.2</ele>
        <time>2016-07-23T12:08:52Z</time>
      </trkpt>
      <trkpt lat="42.49946" lon="0.14644">
        <ele>600.1</ele>
        <time>2016-07-23T12:08:53Z</time>
      </trkpt>
      <trkpt lat="42.49939" lon="0.1464">
        <ele>600.1</ele>
        <time>2016-07-23T12:08:54Z</time>
      </trkpt>
      <trkpt lat="42.49932" lon="0.14638">
        <ele>600</ele>
        <time>2016-07-23T12:08:55Z</time>
      </trkpt>
      <trkpt lat="42.49926" lon="0.14634">
        <ele>600</ele>
        <time>2016-07-23T12:08:56Z</time>
      </trkpt>
      <trkpt lat="42.49919" lon="0.1463">
        <ele>600</ele>
        <time>2016-07-23T12:08:57Z</time>
      </trkpt>
      <trkpt lat="42.49912" lon="0.14627">
        <ele>600</ele>
        <time>2016-07-23T12:08:58Z</time>
      </trkpt>
      <trkpt lat="42.49907" lon="0.14625">
        <ele>600</ele>
        <time>2016-07-23T12:08:59Z</time>
      </trkpt>
      <trkpt lat="42.499" lon="0.14622">
        <ele>600.1</ele>
        <time>2016-07-23T12:09:00Z</time>
      </trkpt>
      <trkpt lat="42.49893" lon="0.14619">
        <ele>600.1</ele>
        <time>2016-07-23T12:09:01Z</time>
      </trkpt>
      <trkpt lat="42.49887" lon="0.14617">
        <ele>600.2</ele>
        <time>2016-07-23T12:09:02Z</time>
      </trkpt>
      <trkpt lat="42.4988" lon="0.14614">
        <ele>600.3</ele>
        <time>2016-07-23T12:09:03Z</time>
      </trkpt>
      <trkpt lat="42.49874" lon="0.14612">
        <ele>600.3</ele>
        <time>2016-07-23T12:09:04Z</time>
      </trkpt>
      <trkpt lat="42.49868" lon="0.14609">
        <ele>600.5</ele>
        <time>2016-07-23T12:09:05Z</time>
      </trkpt>
      <trkpt lat="42.49861" lon="0.14609">
        <ele>600.6</ele>
        <time>2016-07-23T12:09:06Z</time>
      </trkpt>
      <trkpt lat="42.49854" lon="0.14605">
        <ele>600.8</ele>
        <time>2016-07-23T12:09:07Z</time>
      </trkpt>
      <trkpt lat="42.49847" lon="0.14602">
        <ele>601</ele>
        <time>2016-07-23T12:09:08Z</time>
      </trkpt>
      <trkpt lat="42.4984" lon="0.14599">
        <ele>601.1</ele>
        <time>2016-07-23T12:09:09Z</time>
      </trkpt>
      <trkpt lat="42.49834" lon="0.14596">
        <ele>601.2</ele>
        <time>2016-07-23T12:09:10Z</time>
      </trkpt>
      <trkpt lat="42.49827" lon="0.14593">
        <ele>601.3</ele>
        <time>2016-07-23T12:09:11Z</time>
      </trkpt>
      <trkpt lat="42.49821" lon="0.14591">
        <ele>601.3</ele>
        <time>2016-07-23T12:09:12Z</time>
      </trkpt>
      <trkpt lat="42.49815" lon="0.14589">
        <ele>601.4</ele>
        <time>2016-07-23T12:09:13Z</time>
      </trkpt>
      <trkpt lat="42.49809" lon="0.14585">
        <ele>601.4</ele>
        <time>2016-07-23T12:09:14Z</time>
      </trkpt>
      <trkpt lat="42.49804" lon="0.14583">
        <ele>601.4</ele>
        <time>2016-07-23T12:09:15Z</time>
      </trkpt>
      <trkpt lat="42.49798" lon="0.14579">
        <ele>601.4</ele>
        <time>2016-07-23T12:09:16Z</time>
      </trkpt>
      <trkpt lat="42.49793" lon="0.14576">
        <ele>601.4</ele>
        <time>2016-07-23T12:09:17Z</time>
      </trkpt>
      <trkpt lat="42.49787" lon="0.14573">
        <ele>601.3</ele>
        <time>2016-07-23T12:09:18Z</time>
      </trkpt>
      <trkpt lat="42.49781" lon="0.14571">
        <ele>601.2</ele>
        <time>2016-07-23T12:09:19Z</time>
      </trkpt>
      <trkpt lat="42.49775" lon="0.14568">
        <ele>601.1</ele>
        <time>2016-07-23T12:09:20Z</time>
      </trkpt>
      <trkpt lat="42.4977" lon="0.14566">
        <ele>601.1</ele>
        <time>2016-07-23T12:09:21Z</time>
      </trkpt>
      <trkpt lat="42.49765" lon="0.14562">
        <ele>601</ele>
        <time>2016-07-23T12:09:22Z</time>
      </trkpt>
      <trkpt lat="42.49759" lon="0.14558">
        <ele>601</ele>
        <time>2016-07-23T12:09:23Z</time>
      </trkpt>
      <trkpt lat="42.49753" lon="0.14554">
        <ele>600.9</ele>
        <time>2016-07-23T12:09:24Z</time>
      </trkpt>
      <trkpt lat="42.49748" lon="0.1455">
        <ele>600.9</ele>
        <time>2016-07-23T12:09:25Z</time>
      </trkpt>
      <trkpt lat="42.49743" lon="0.14546">
        <ele>601</ele>
        <time>2016-07-23T12:09:26Z</time>
      </trkpt>
      <trkpt lat="42.49738" lon="0.14542">
        <ele>601</ele>
        <time>2016-07-23T12:09:27Z</time>
      </trkpt>
      <trkpt lat="42.49733" lon="0.14537">
        <ele>601.1</ele>
        <time>2016-07-23T12:09:28Z</time>
      </trkpt>
      <trkpt lat="42.49728" lon="0.14531">
        <ele>601.3</ele>
        <time>2016-07-23T12:09:29Z</time>
      </trkpt>
      <trkpt lat="42.49723" lon="0.14524">
        <ele>601.6</ele>
        <time>2016-07-23T12:09:30Z</time>
      </trkpt>
      <trkpt lat="42.49719" lon="0.14517">
        <ele>601.8</ele>
        <time>2016-07-23T12:09:31Z</time>
      </trkpt>
      <trkpt lat="42.49716" lon="0.14511">
        <ele>602.1</ele>
        <time>2016-07-23T12:09:32Z</time>
      </trkpt>
      <trkpt lat="42.49713" lon="0.14501">
        <ele>602.4</ele>
        <time>2016-07-23T12:09:33Z</time>
      </trkpt>
      <trkpt lat="42.4971" lon="0.14493">
        <ele>602.7</ele>
        <time>2016-07-23T12:09:34Z</time>
      </trkpt>
      <trkpt lat="42.49711" lon="0.14485">
        <ele>603</ele>
        <time>2016-07-23T12:09:35Z</time>
      </trkpt>
      <trkpt lat="42.4971" lon="0.14478">
        <ele>603.3</ele>
        <time>2016-07-23T12:09:36Z</time>
      </trkpt>
      <trkpt lat="42.4971" lon="0.1447">
        <ele>603.6</ele>
        <time>2016-07-23T12:09:37Z</time>
      </trkpt>
      <trkpt lat="42.49708" lon="0.14463">
        <ele>603.8</ele>
        <time>2016-07-23T12:09:38Z</time>
      </trkpt>
      <trkpt lat="42.49707" lon="0.14454">
        <ele>604.7</ele>
        <time>2016-07-23T12:09:39Z</time>
      </trkpt>
      <trkpt lat="42.49706" lon="0.14446">
        <ele>605.7</ele>
        <time>2016-07-23T12:09:40Z</time>
      </trkpt>
      <trkpt lat="42.49705" lon="0.14438">
        <ele>606.7</ele>
        <time>2016-07-23T12:09:41Z</time>
      </trkpt>
      <trkpt lat="42.49708" lon="0.14431">
        <ele>606.2</ele>
        <time>2016-07-23T12:09:42Z</time>
      </trkpt>
      <trkpt lat="42.4971" lon="0.14424">
        <ele>606.4</ele>
        <time>2016-07-23T12:09:43Z</time>
      </trkpt>
      <trkpt lat="42.49714" lon="0.14418">
        <ele>606.6</ele>
        <time>2016-07-23T12:09:44Z</time>
      </trkpt>
      <trkpt lat="42.49718" lon="0.14416">
        <ele>606.5</ele>
        <time>2016-07-23T12:09:45Z</time>
      </trkpt>
      <trkpt lat="42.49722" lon="0.14414">
        <ele>606.4</ele>
        <time>2016-07-23T12:09:46Z</time>
      </trkpt>
      <trkpt lat="42.49727" lon="0.14414">
        <ele>606.1</ele>
        <time>2016-07-23T12:09:47Z</time>
      </trkpt>
      <trkpt lat="42.49733" lon="0.14413">
        <ele>605.9</ele>
        <time>2016-07-23T12:09:48Z</time>
      </trkpt>
      <trkpt lat="42.49737" lon="0.14415">
        <ele>605.6</ele>
        <time>2016-07-23T12:09:49Z</time>
      </trkpt>
      <trkpt lat="42.49743" lon="0.14415">
        <ele>605.2</ele>
        <time>2016-07-23T12:09:51Z</time>
      </trkpt>
      <trkpt lat="42.49748" lon="0.14415">
        <ele>604.9</ele>
        <time>2016-07-23T12:09:53Z</time>
      </trkpt>
      <trkpt lat="42.49753" lon="0.14414">
        <ele>604.7</ele>
        <time>2016-07-23T12:09:55Z</time>
      </trkpt>
      <trkpt lat="42.49758" lon="0.14418">
        <ele>604.3</ele>
        <time>2016-07-23T12:09:57Z</time>
      </trkpt>
      <trkpt lat="42.49762" lon="0.1442">
        <ele>604</ele>
        <time>2016-07-23T12:09:58Z</time>
      </trkpt>
      <trkpt lat="42.49767" lon="0.14419">
        <ele>603.8</ele>
        <time>2016-07-23T12:09:59Z</time>
      </trkpt>
      <trkpt lat="42.49771" lon="0.14419">
        <ele>603.5</ele>
        <time>2016-07-23T12:10:00Z</time>
      </trkpt>
      <trkpt lat="42.49776" lon="0.1442">
        <ele>603.3</ele>
        <time>2016-07-23T12:10:01Z</time>
      </trkpt>
      <trkpt lat="42.49781" lon="0.1442">
        <ele>603</ele>
        <time>2016-07-23T12:10:02Z</time>
      </trkpt>
      <trkpt lat="42.49785" lon="0.14419">
        <ele>602.8</ele>
        <time>2016-07-23T12:10:03Z</time>
      </trkpt>
      <trkpt lat="42.49789" lon="0.14419">
        <ele>602.6</ele>
        <time>2016-07-23T12:10:04Z</time>
      </trkpt>
      <trkpt lat="42.49795" lon="0.14418">
        <ele>602.6</ele>
        <time>2016-07-23T12:10:05Z</time>
      </trkpt>
      <trkpt lat="42.49799" lon="0.14417">
        <ele>602.7</ele>
        <time>2016-07-23T12:10:06Z</time>
      </trkpt>
      <trkpt lat="42.49805" lon="0.14418">
        <ele>602.8</ele>
        <time>2016-07-23T12:10:07Z</time>
      </trkpt>
      <trkpt lat="42.49809" lon="0.14416">
        <ele>602.9</ele>
        <time>2016-07-23T12:10:08Z</time>
      </trkpt>
      <trkpt lat="42.49813" lon="0.14415">
        <ele>603</ele>
        <time>2016-07-23T12:10:09Z</time>
      </trkpt>
      <trkpt lat="42.49817" lon="0.14414">
        <ele>603.1</ele>
        <time>2016-07-23T12:10:10Z</time>
      </trkpt>
      <trkpt lat="42.49822" lon="0.14414">
        <ele>603.3</ele>
        <time>2016-07-23T12:10:11Z</time>
      </trkpt>
      <trkpt lat="42.49825" lon="0.14413">
        <ele>603.4</ele>
        <time>2016-07-23T12:10:12Z</time>
      </trkpt>
      <trkpt lat="42.4983" lon="0.14413">
        <ele>603.5</ele>
        <time>2016-07-23T12:10:13Z</time>
      </trkpt>
      <trkpt lat="42.49834" lon="0.14411">
        <ele>603.6</ele>
        <time>2016-07-23T12:10:14Z</time>
      </trkpt>
      <trkpt lat="42.49839" lon="0.1441">
        <ele>603.7</ele>
        <time>2016-07-23T12:10:15Z</time>
      </trkpt>
      <trkpt lat="42.49843" lon="0.1441">
        <ele>603.8</ele>
        <time>2016-07-23T12:10:16Z</time>
      </trkpt>
      <trkpt lat="42.49848" lon="0.14408">
        <ele>603.9</ele>
        <time>2016-07-23T12:10:17Z</time>
      </trkpt>
      <trkpt lat="42.49852" lon="0.14408">
        <ele>604</ele>
        <time>2016-07-23T12:10:18Z</time>
      </trkpt>
      <trkpt lat="42.49856" lon="0.14408">
        <ele>604.1</ele>
        <time>2016-07-23T12:10:19Z</time>
      </trkpt>
      <trkpt lat="42.4986" lon="0.14407">
        <ele>604.2</ele>
        <time>2016-07-23T12:10:20Z</time>
      </trkpt>
      <trkpt lat="42.49864" lon="0.14407">
        <ele>604.4</ele>
        <time>2016-07-23T12:10:21Z</time>
      </trkpt>
      <trkpt lat="42.49867" lon="0.14407">
        <ele>604.4</ele>
        <time>2016-07-23T12:10:22Z</time>
      </trkpt>
      <trkpt lat="42.4987" lon="0.14407">
        <ele>604.5</ele>
        <time>2016-07-23T12:10:23Z</time>
      </trkpt>
      <trkpt lat="42.49874" lon="0.14407">
        <ele>604.6</ele>
        <time>2016-07-23T12:10:24Z</time>
      </trkpt>
      <trkpt lat="42.49877" lon="0.14406">
        <ele>604.7</ele>
        <time>2016-07-23T12:10:25Z</time>
      </trkpt>
      <trkpt lat="42.4988" lon="0.14406">
        <ele>604.9</ele>
        <time>2016-07-23T12:10:26Z</time>
      </trkpt>
      <trkpt lat="42.49884" lon="0.14406">
        <ele>605.1</ele>
        <time>2016-07-23T12:10:27Z</time>
      </trkpt>
      <trkpt lat="42.49888" lon="0.14405">
        <ele>605.3</ele>
        <time>2016-07-23T12:10:28Z</time>
      </trkpt>
      <trkpt lat="42.49892" lon="0.14405">
        <ele>605.6</ele>
        <time>2016-07-23T12:10:29Z</time>
      </trkpt>
      <trkpt lat="42.49896" lon="0.14404">
        <ele>605.8</ele>
        <time>2016-07-23T12:10:30Z</time>
      </trkpt>
      <trkpt lat="42.499" lon="0.14404">
        <ele>606</ele>
        <time>2016-07-23T12:10:31Z</time>
      </trkpt>
      <trkpt lat="42.49903" lon="0.14404">
        <ele>606.2</ele>
        <time>2016-07-23T12:10:32Z</time>
      </trkpt>
      <trkpt lat="42.49907" lon="0.14405">
        <ele>606.4</ele>
        <time>2016-07-23T12:10:33Z</time>
      </trkpt>
      <trkpt lat="42.49911" lon="0.14404">
        <ele>606.6</ele>
        <time>2016-07-23T12:10:34Z</time>
      </trkpt>
      <trkpt lat="42.49915" lon="0.14404">
        <ele>606.9</ele>
        <time>2016-07-23T12:10:35Z</time>
      </trkpt>
      <trkpt lat="42.49919" lon="0.14404">
        <ele>607.1</ele>
        <time>2016-07-23T12:10:36Z</time>
      </trkpt>
      <trkpt lat="42.49922" lon="0.14404">
        <ele>607.3</ele>
        <time>2016-07-23T12:10:37Z</time>
      </trkpt>
      <trkpt lat="42.49926" lon="0.14404">
        <ele>607.5</ele>
        <time>2016-07-23T12:10:38Z</time>
      </trkpt>
      <trkpt lat="42.49929" lon="0.14404">
        <ele>607.7</ele>
        <time>2016-07-23T12:10:39Z</time>
      </trkpt>
      <trkpt lat="42.49933" lon="0.14404">
        <ele>607.8</ele>
        <time>2016-07-23T12:10:40Z</time>
      </trkpt>
      <trkpt lat="42.49935" lon="0.14404">
        <ele>608</ele>
        <time>2016-07-23T12:10:41Z</time>
      </trkpt>
      <trkpt lat="42.4994" lon="0.14404">
        <ele>608.2</ele>
        <time>2016-07-23T12:10:43Z</time>
      </trkpt>
      <trkpt lat="42.49943" lon="0.14403">
        <ele>608.5</ele>
        <time>2016-07-23T12:10:45Z</time>
      </trkpt>
      <trkpt lat="42.49945" lon="0.144">
        <ele>608.8</ele>
        <time>2016-07-23T12:10:47Z</time>
      </trkpt>
      <trkpt lat="42.49945" lon="0.14394">
        <ele>609.1</ele>
        <time>2016-07-23T12:10:49Z</time>
      </trkpt>
      <trkpt lat="42.49946" lon="0.14389">
        <ele>609.4</ele>
        <time>2016-07-23T12:10:51Z</time>
      </trkpt>
      <trkpt lat="42.49947" lon="0.14384">
        <ele>609.7</ele>
        <time>2016-07-23T12:10:53Z</time>
      </trkpt>
      <trkpt lat="42.49948" lon="0.14379">
        <ele>610.1</ele>
        <time>2016-07-23T12:10:55Z</time>
      </trkpt>
      <trkpt lat="42.4995" lon="0.14374">
        <ele>610.4</ele>
        <time>2016-07-23T12:10:57Z</time>
      </trkpt>
      <trkpt lat="42.49954" lon="0.14372">
        <ele>610.6</ele>
        <time>2016-07-23T12:10:59Z</time>
      </trkpt>
      <trkpt lat="42.49958" lon="0.14371">
        <ele>610.9</ele>
        <time>2016-07-23T12:11:01Z</time>
      </trkpt>
      <trkpt lat="42.49961" lon="0.14372">
        <ele>611.1</ele>
        <time>2016-07-23T12:11:03Z</time>
      </trkpt>
      <trkpt lat="42.49958" lon="0.1437">
        <ele>610.9</ele>
        <time>2016-07-23T12:11:23Z</time>
      </trkpt>
      <trkpt lat="42.49956" lon="0.14373">
        <ele>610.8</ele>
        <time>2016-07-23T12:11:37Z</time>
      </trkpt>
    </trkseg>
  </trk>
</gpx>